<?xml version="1.0" encoding="UTF-8" standalone="no" ?>
<gpx xmlns="http://www.topografix.com/GPX/1/1" xmlns:xsi="http://www.w3.org/2001/XMLSchema-instance" xsi:schemaLocation="http://www.topografix.com/GPX/1/1 http://www.topografix.com/GPX/1/1/gpx.xsd" version="1.1" creator="VisuGPX - https://www.visugpx.com">
  <metadata>
    <name>GTMC Realise</name>
  </metadata>
  <trk>
    <name><![CDATA[GTMC J3]]></name>
    <extensions>
      <line xmlns="http://www.topografix.com/GPX/gpx_style/0/2">
        <color>0000FF</color>
        <width>4</width>
      </line>
    </extensions>
    <trkseg>
      <trkpt lat="45.38866" lon="2.92252">
        <ele>1213.607308</ele>
        <time>2021-07-08T08:30:07+0200</time>
      </trkpt>
      <trkpt lat="45.38866" lon="2.92252">
        <ele>1213.607308</ele>
        <time>2021-07-08T08:30:07+0200</time>
      </trkpt>
      <trkpt lat="45.38873" lon="2.92258">
        <ele>1212.982301</ele>
        <time>2021-07-08T08:30:09+0200</time>
      </trkpt>
      <trkpt lat="45.38876" lon="2.92263">
        <ele>1212.512659</ele>
        <time>2021-07-08T08:30:10+0200</time>
      </trkpt>
      <trkpt lat="45.38879" lon="2.92272">
        <ele>1212.088307</ele>
        <time>2021-07-08T08:30:11+0200</time>
      </trkpt>
      <trkpt lat="45.3888" lon="2.92282">
        <ele>1210.675369</ele>
        <time>2021-07-08T08:30:12+0200</time>
      </trkpt>
      <trkpt lat="45.38879" lon="2.92294">
        <ele>1210.159556</ele>
        <time>2021-07-08T08:30:13+0200</time>
      </trkpt>
      <trkpt lat="45.38876" lon="2.92304">
        <ele>1209.318876</ele>
        <time>2021-07-08T08:30:14+0200</time>
      </trkpt>
      <trkpt lat="45.38872" lon="2.92314">
        <ele>1208.132242</ele>
        <time>2021-07-08T08:30:15+0200</time>
      </trkpt>
      <trkpt lat="45.38869" lon="2.92326">
        <ele>1206.624258</ele>
        <time>2021-07-08T08:30:16+0200</time>
      </trkpt>
      <trkpt lat="45.38866" lon="2.92338">
        <ele>1205.133465</ele>
        <time>2021-07-08T08:30:17+0200</time>
      </trkpt>
      <trkpt lat="45.38861" lon="2.9235">
        <ele>1204.180116</ele>
        <time>2021-07-08T08:30:18+0200</time>
      </trkpt>
      <trkpt lat="45.38856" lon="2.92359">
        <ele>1203.276173</ele>
        <time>2021-07-08T08:30:19+0200</time>
      </trkpt>
      <trkpt lat="45.38852" lon="2.92367">
        <ele>1202.42166</ele>
        <time>2021-07-08T08:30:20+0200</time>
      </trkpt>
      <trkpt lat="45.38847" lon="2.92375">
        <ele>1202.184207</ele>
        <time>2021-07-08T08:30:21+0200</time>
      </trkpt>
      <trkpt lat="45.38845" lon="2.92384">
        <ele>1202.201738</ele>
        <time>2021-07-08T08:30:22+0200</time>
      </trkpt>
      <trkpt lat="45.38846" lon="2.92394">
        <ele>1202.372373</ele>
        <time>2021-07-08T08:30:23+0200</time>
      </trkpt>
      <trkpt lat="45.38849" lon="2.92403">
        <ele>1202.442086</ele>
        <time>2021-07-08T08:30:24+0200</time>
      </trkpt>
      <trkpt lat="45.38853" lon="2.9241">
        <ele>1202.929128</ele>
        <time>2021-07-08T08:30:25+0200</time>
      </trkpt>
      <trkpt lat="45.38857" lon="2.92417">
        <ele>1202.961357</ele>
        <time>2021-07-08T08:30:26+0200</time>
      </trkpt>
      <trkpt lat="45.3886" lon="2.92425">
        <ele>1203.509638</ele>
        <time>2021-07-08T08:30:27+0200</time>
      </trkpt>
      <trkpt lat="45.38865" lon="2.92429">
        <ele>1204.173129</ele>
        <time>2021-07-08T08:30:28+0200</time>
      </trkpt>
      <trkpt lat="45.38869" lon="2.92433">
        <ele>1204.391411</ele>
        <time>2021-07-08T08:30:29+0200</time>
      </trkpt>
      <trkpt lat="45.38874" lon="2.92431">
        <ele>1205.363747</ele>
        <time>2021-07-08T08:30:30+0200</time>
      </trkpt>
      <trkpt lat="45.3888" lon="2.92431">
        <ele>1206.002742</ele>
        <time>2021-07-08T08:30:32+0200</time>
      </trkpt>
      <trkpt lat="45.38888" lon="2.92428">
        <ele>1206.273522</ele>
        <time>2021-07-08T08:30:34+0200</time>
      </trkpt>
      <trkpt lat="45.38895" lon="2.92425">
        <ele>1206.709826</ele>
        <time>2021-07-08T08:30:36+0200</time>
      </trkpt>
      <trkpt lat="45.38902" lon="2.92421">
        <ele>1207.100916</ele>
        <time>2021-07-08T08:30:38+0200</time>
      </trkpt>
      <trkpt lat="45.38907" lon="2.92416">
        <ele>1206.92828</ele>
        <time>2021-07-08T08:30:40+0200</time>
      </trkpt>
      <trkpt lat="45.38914" lon="2.92414">
        <ele>1206.934248</ele>
        <time>2021-07-08T08:30:42+0200</time>
      </trkpt>
      <trkpt lat="45.38919" lon="2.92414">
        <ele>1207.549824</ele>
        <time>2021-07-08T08:30:44+0200</time>
      </trkpt>
      <trkpt lat="45.38925" lon="2.92413">
        <ele>1207.98707</ele>
        <time>2021-07-08T08:30:46+0200</time>
      </trkpt>
      <trkpt lat="45.38931" lon="2.92415">
        <ele>1208.497107</ele>
        <time>2021-07-08T08:30:48+0200</time>
      </trkpt>
      <trkpt lat="45.38937" lon="2.92419">
        <ele>1208.877971</ele>
        <time>2021-07-08T08:30:50+0200</time>
      </trkpt>
      <trkpt lat="45.38943" lon="2.92423">
        <ele>1208.904074</ele>
        <time>2021-07-08T08:30:52+0200</time>
      </trkpt>
      <trkpt lat="45.38948" lon="2.92425">
        <ele>1209.369363</ele>
        <time>2021-07-08T08:30:54+0200</time>
      </trkpt>
      <trkpt lat="45.38953" lon="2.9243">
        <ele>1209.969395</ele>
        <time>2021-07-08T08:30:57+0200</time>
      </trkpt>
      <trkpt lat="45.3896" lon="2.92434">
        <ele>1209.899714</ele>
        <time>2021-07-08T08:31:00+0200</time>
      </trkpt>
      <trkpt lat="45.38965" lon="2.92438">
        <ele>1209.839311</ele>
        <time>2021-07-08T08:31:02+0200</time>
      </trkpt>
      <trkpt lat="45.38968" lon="2.92441">
        <ele>1209.796481</ele>
        <time>2021-07-08T08:31:04+0200</time>
      </trkpt>
      <trkpt lat="45.38973" lon="2.92444">
        <ele>1210.168238</ele>
        <time>2021-07-08T08:31:06+0200</time>
      </trkpt>
      <trkpt lat="45.38978" lon="2.92447">
        <ele>1210.855821</ele>
        <time>2021-07-08T08:31:08+0200</time>
      </trkpt>
      <trkpt lat="45.38982" lon="2.9245">
        <ele>1211.102669</ele>
        <time>2021-07-08T08:31:10+0200</time>
      </trkpt>
      <trkpt lat="45.38987" lon="2.92454">
        <ele>1211.390466</ele>
        <time>2021-07-08T08:31:12+0200</time>
      </trkpt>
      <trkpt lat="45.38992" lon="2.92459">
        <ele>1211.868313</ele>
        <time>2021-07-08T08:31:14+0200</time>
      </trkpt>
      <trkpt lat="45.38997" lon="2.92464">
        <ele>1211.884703</ele>
        <time>2021-07-08T08:31:16+0200</time>
      </trkpt>
      <trkpt lat="45.39002" lon="2.92468">
        <ele>1212.134752</ele>
        <time>2021-07-08T08:31:18+0200</time>
      </trkpt>
      <trkpt lat="45.39007" lon="2.92473">
        <ele>1212.201548</ele>
        <time>2021-07-08T08:31:20+0200</time>
      </trkpt>
      <trkpt lat="45.39011" lon="2.92477">
        <ele>1212.306127</ele>
        <time>2021-07-08T08:31:22+0200</time>
      </trkpt>
      <trkpt lat="45.39017" lon="2.92482">
        <ele>1212.532619</ele>
        <time>2021-07-08T08:31:25+0200</time>
      </trkpt>
      <trkpt lat="45.39021" lon="2.92487">
        <ele>1212.925745</ele>
        <time>2021-07-08T08:31:27+0200</time>
      </trkpt>
      <trkpt lat="45.39025" lon="2.92493">
        <ele>1212.937802</ele>
        <time>2021-07-08T08:31:30+0200</time>
      </trkpt>
      <trkpt lat="45.39029" lon="2.92498">
        <ele>1213.436708</ele>
        <time>2021-07-08T08:31:32+0200</time>
      </trkpt>
      <trkpt lat="45.39034" lon="2.92504">
        <ele>1213.824406</ele>
        <time>2021-07-08T08:31:34+0200</time>
      </trkpt>
      <trkpt lat="45.39039" lon="2.9251">
        <ele>1214.03628</ele>
        <time>2021-07-08T08:31:36+0200</time>
      </trkpt>
      <trkpt lat="45.39043" lon="2.92517">
        <ele>1214.000728</ele>
        <time>2021-07-08T08:31:38+0200</time>
      </trkpt>
      <trkpt lat="45.39048" lon="2.92524">
        <ele>1214.312603</ele>
        <time>2021-07-08T08:31:40+0200</time>
      </trkpt>
      <trkpt lat="45.39054" lon="2.92531">
        <ele>1214.542271</ele>
        <time>2021-07-08T08:31:42+0200</time>
      </trkpt>
      <trkpt lat="45.39059" lon="2.92538">
        <ele>1214.96699</ele>
        <time>2021-07-08T08:31:44+0200</time>
      </trkpt>
      <trkpt lat="45.39065" lon="2.92546">
        <ele>1215.017136</ele>
        <time>2021-07-08T08:31:46+0200</time>
      </trkpt>
      <trkpt lat="45.39071" lon="2.92554">
        <ele>1215.462097</ele>
        <time>2021-07-08T08:31:48+0200</time>
      </trkpt>
      <trkpt lat="45.39077" lon="2.92561">
        <ele>1215.718731</ele>
        <time>2021-07-08T08:31:50+0200</time>
      </trkpt>
      <trkpt lat="45.39083" lon="2.92569">
        <ele>1215.749639</ele>
        <time>2021-07-08T08:31:52+0200</time>
      </trkpt>
      <trkpt lat="45.39087" lon="2.92573">
        <ele>1215.764673</ele>
        <time>2021-07-08T08:31:53+0200</time>
      </trkpt>
      <trkpt lat="45.3909" lon="2.92577">
        <ele>1215.687907</ele>
        <time>2021-07-08T08:31:54+0200</time>
      </trkpt>
      <trkpt lat="45.39094" lon="2.92582">
        <ele>1215.568629</ele>
        <time>2021-07-08T08:31:55+0200</time>
      </trkpt>
      <trkpt lat="45.39097" lon="2.92586">
        <ele>1215.538157</ele>
        <time>2021-07-08T08:31:56+0200</time>
      </trkpt>
      <trkpt lat="45.39104" lon="2.92595">
        <ele>1215.414635</ele>
        <time>2021-07-08T08:31:58+0200</time>
      </trkpt>
      <trkpt lat="45.39107" lon="2.92599">
        <ele>1215.352722</ele>
        <time>2021-07-08T08:31:59+0200</time>
      </trkpt>
      <trkpt lat="45.39111" lon="2.92603">
        <ele>1215.300032</ele>
        <time>2021-07-08T08:32:00+0200</time>
      </trkpt>
      <trkpt lat="45.39115" lon="2.92607">
        <ele>1215.326271</ele>
        <time>2021-07-08T08:32:01+0200</time>
      </trkpt>
      <trkpt lat="45.39121" lon="2.92616">
        <ele>1215.395214</ele>
        <time>2021-07-08T08:32:03+0200</time>
      </trkpt>
      <trkpt lat="45.39125" lon="2.9262">
        <ele>1215.312089</ele>
        <time>2021-07-08T08:32:04+0200</time>
      </trkpt>
      <trkpt lat="45.39128" lon="2.92625">
        <ele>1215.138814</ele>
        <time>2021-07-08T08:32:05+0200</time>
      </trkpt>
      <trkpt lat="45.39132" lon="2.9263">
        <ele>1215.036501</ele>
        <time>2021-07-08T08:32:06+0200</time>
      </trkpt>
      <trkpt lat="45.39136" lon="2.92634">
        <ele>1215.11887</ele>
        <time>2021-07-08T08:32:07+0200</time>
      </trkpt>
      <trkpt lat="45.3914" lon="2.92638">
        <ele>1215.233241</ele>
        <time>2021-07-08T08:32:08+0200</time>
      </trkpt>
      <trkpt lat="45.39144" lon="2.92642">
        <ele>1215.22849</ele>
        <time>2021-07-08T08:32:09+0200</time>
      </trkpt>
      <trkpt lat="45.39148" lon="2.92647">
        <ele>1215.454149</ele>
        <time>2021-07-08T08:32:10+0200</time>
      </trkpt>
      <trkpt lat="45.39152" lon="2.92651">
        <ele>1215.760233</ele>
        <time>2021-07-08T08:32:11+0200</time>
      </trkpt>
      <trkpt lat="45.39156" lon="2.92654">
        <ele>1215.984535</ele>
        <time>2021-07-08T08:32:12+0200</time>
      </trkpt>
      <trkpt lat="45.3916" lon="2.92658">
        <ele>1216.238303</ele>
        <time>2021-07-08T08:32:13+0200</time>
      </trkpt>
      <trkpt lat="45.39164" lon="2.92663">
        <ele>1216.451208</ele>
        <time>2021-07-08T08:32:14+0200</time>
      </trkpt>
      <trkpt lat="45.39172" lon="2.9267">
        <ele>1216.518057</ele>
        <time>2021-07-08T08:32:16+0200</time>
      </trkpt>
      <trkpt lat="45.39176" lon="2.92673">
        <ele>1216.505841</ele>
        <time>2021-07-08T08:32:17+0200</time>
      </trkpt>
      <trkpt lat="45.39181" lon="2.92677">
        <ele>1216.820704</ele>
        <time>2021-07-08T08:32:18+0200</time>
      </trkpt>
      <trkpt lat="45.39184" lon="2.92682">
        <ele>1216.970967</ele>
        <time>2021-07-08T08:32:19+0200</time>
      </trkpt>
      <trkpt lat="45.39188" lon="2.92686">
        <ele>1217.122887</ele>
        <time>2021-07-08T08:32:20+0200</time>
      </trkpt>
      <trkpt lat="45.39191" lon="2.9269">
        <ele>1217.34586</ele>
        <time>2021-07-08T08:32:21+0200</time>
      </trkpt>
      <trkpt lat="45.39194" lon="2.92695">
        <ele>1217.291544</ele>
        <time>2021-07-08T08:32:22+0200</time>
      </trkpt>
      <trkpt lat="45.39198" lon="2.927">
        <ele>1217.224525</ele>
        <time>2021-07-08T08:32:23+0200</time>
      </trkpt>
      <trkpt lat="45.39201" lon="2.92706">
        <ele>1217.161646</ele>
        <time>2021-07-08T08:32:24+0200</time>
      </trkpt>
      <trkpt lat="45.39204" lon="2.9271">
        <ele>1217.061768</ele>
        <time>2021-07-08T08:32:25+0200</time>
      </trkpt>
      <trkpt lat="45.39207" lon="2.92716">
        <ele>1217.030698</ele>
        <time>2021-07-08T08:32:26+0200</time>
      </trkpt>
      <trkpt lat="45.3921" lon="2.92721">
        <ele>1216.802306</ele>
        <time>2021-07-08T08:32:27+0200</time>
      </trkpt>
      <trkpt lat="45.39214" lon="2.92726">
        <ele>1216.677461</ele>
        <time>2021-07-08T08:32:28+0200</time>
      </trkpt>
      <trkpt lat="45.39217" lon="2.92732">
        <ele>1216.476727</ele>
        <time>2021-07-08T08:32:29+0200</time>
      </trkpt>
      <trkpt lat="45.3922" lon="2.92738">
        <ele>1216.498655</ele>
        <time>2021-07-08T08:32:30+0200</time>
      </trkpt>
      <trkpt lat="45.39223" lon="2.92744">
        <ele>1216.366584</ele>
        <time>2021-07-08T08:32:31+0200</time>
      </trkpt>
      <trkpt lat="45.39227" lon="2.92749">
        <ele>1216.317677</ele>
        <time>2021-07-08T08:32:32+0200</time>
      </trkpt>
      <trkpt lat="45.39231" lon="2.92754">
        <ele>1216.283895</ele>
        <time>2021-07-08T08:32:33+0200</time>
      </trkpt>
      <trkpt lat="45.39235" lon="2.92759">
        <ele>1216.191035</ele>
        <time>2021-07-08T08:32:34+0200</time>
      </trkpt>
      <trkpt lat="45.39239" lon="2.92763">
        <ele>1216.332903</ele>
        <time>2021-07-08T08:32:35+0200</time>
      </trkpt>
      <trkpt lat="45.39244" lon="2.92768">
        <ele>1216.296981</ele>
        <time>2021-07-08T08:32:36+0200</time>
      </trkpt>
      <trkpt lat="45.39248" lon="2.92772">
        <ele>1216.375507</ele>
        <time>2021-07-08T08:32:37+0200</time>
      </trkpt>
      <trkpt lat="45.39252" lon="2.92776">
        <ele>1216.552</ele>
        <time>2021-07-08T08:32:38+0200</time>
      </trkpt>
      <trkpt lat="45.39255" lon="2.92781">
        <ele>1216.765674</ele>
        <time>2021-07-08T08:32:39+0200</time>
      </trkpt>
      <trkpt lat="45.39259" lon="2.92785">
        <ele>1216.844758</ele>
        <time>2021-07-08T08:32:40+0200</time>
      </trkpt>
      <trkpt lat="45.39262" lon="2.9279">
        <ele>1217.042745</ele>
        <time>2021-07-08T08:32:41+0200</time>
      </trkpt>
      <trkpt lat="45.39269" lon="2.92798">
        <ele>1217.019274</ele>
        <time>2021-07-08T08:32:43+0200</time>
      </trkpt>
      <trkpt lat="45.39275" lon="2.92807">
        <ele>1217.161149</ele>
        <time>2021-07-08T08:32:45+0200</time>
      </trkpt>
      <trkpt lat="45.39279" lon="2.92812">
        <ele>1217.040236</ele>
        <time>2021-07-08T08:32:46+0200</time>
      </trkpt>
      <trkpt lat="45.39282" lon="2.92817">
        <ele>1217.184552</ele>
        <time>2021-07-08T08:32:47+0200</time>
      </trkpt>
      <trkpt lat="45.39286" lon="2.92822">
        <ele>1217.047299</ele>
        <time>2021-07-08T08:32:48+0200</time>
      </trkpt>
      <trkpt lat="45.3929" lon="2.92826">
        <ele>1217.04682</ele>
        <time>2021-07-08T08:32:49+0200</time>
      </trkpt>
      <trkpt lat="45.39294" lon="2.92831">
        <ele>1217.004196</ele>
        <time>2021-07-08T08:32:50+0200</time>
      </trkpt>
      <trkpt lat="45.39297" lon="2.92837">
        <ele>1216.859686</ele>
        <time>2021-07-08T08:32:51+0200</time>
      </trkpt>
      <trkpt lat="45.39301" lon="2.92842">
        <ele>1216.703793</ele>
        <time>2021-07-08T08:32:52+0200</time>
      </trkpt>
      <trkpt lat="45.39305" lon="2.92847">
        <ele>1216.648119</ele>
        <time>2021-07-08T08:32:53+0200</time>
      </trkpt>
      <trkpt lat="45.39308" lon="2.92852">
        <ele>1216.699588</ele>
        <time>2021-07-08T08:32:54+0200</time>
      </trkpt>
      <trkpt lat="45.39312" lon="2.92856">
        <ele>1216.774378</ele>
        <time>2021-07-08T08:32:55+0200</time>
      </trkpt>
      <trkpt lat="45.39316" lon="2.92861">
        <ele>1216.832288</ele>
        <time>2021-07-08T08:32:56+0200</time>
      </trkpt>
      <trkpt lat="45.39319" lon="2.92865">
        <ele>1217.114584</ele>
        <time>2021-07-08T08:32:57+0200</time>
      </trkpt>
      <trkpt lat="45.39323" lon="2.9287">
        <ele>1217.431775</ele>
        <time>2021-07-08T08:32:58+0200</time>
      </trkpt>
      <trkpt lat="45.39326" lon="2.92874">
        <ele>1217.624582</ele>
        <time>2021-07-08T08:32:59+0200</time>
      </trkpt>
      <trkpt lat="45.3933" lon="2.92878">
        <ele>1217.697335</ele>
        <time>2021-07-08T08:33:00+0200</time>
      </trkpt>
      <trkpt lat="45.39333" lon="2.92883">
        <ele>1217.978831</ele>
        <time>2021-07-08T08:33:01+0200</time>
      </trkpt>
      <trkpt lat="45.39337" lon="2.92887">
        <ele>1218.097004</ele>
        <time>2021-07-08T08:33:02+0200</time>
      </trkpt>
      <trkpt lat="45.39343" lon="2.92895">
        <ele>1218.23901</ele>
        <time>2021-07-08T08:33:04+0200</time>
      </trkpt>
      <trkpt lat="45.3935" lon="2.92904">
        <ele>1218.510273</ele>
        <time>2021-07-08T08:33:06+0200</time>
      </trkpt>
      <trkpt lat="45.39356" lon="2.92913">
        <ele>1218.965647</ele>
        <time>2021-07-08T08:33:08+0200</time>
      </trkpt>
      <trkpt lat="45.39361" lon="2.92922">
        <ele>1219.461321</ele>
        <time>2021-07-08T08:33:10+0200</time>
      </trkpt>
      <trkpt lat="45.39367" lon="2.92931">
        <ele>1219.715074</ele>
        <time>2021-07-08T08:33:12+0200</time>
      </trkpt>
      <trkpt lat="45.39373" lon="2.92939">
        <ele>1220.14589</ele>
        <time>2021-07-08T08:33:14+0200</time>
      </trkpt>
      <trkpt lat="45.39379" lon="2.92948">
        <ele>1220.351944</ele>
        <time>2021-07-08T08:33:16+0200</time>
      </trkpt>
      <trkpt lat="45.39382" lon="2.92953">
        <ele>1220.359942</ele>
        <time>2021-07-08T08:33:17+0200</time>
      </trkpt>
      <trkpt lat="45.39385" lon="2.92958">
        <ele>1220.410907</ele>
        <time>2021-07-08T08:33:18+0200</time>
      </trkpt>
      <trkpt lat="45.39391" lon="2.92964">
        <ele>1220.738957</ele>
        <time>2021-07-08T08:33:20+0200</time>
      </trkpt>
      <trkpt lat="45.39397" lon="2.92972">
        <ele>1220.988107</ele>
        <time>2021-07-08T08:33:22+0200</time>
      </trkpt>
      <trkpt lat="45.39403" lon="2.92981">
        <ele>1221.312408</ele>
        <time>2021-07-08T08:33:24+0200</time>
      </trkpt>
      <trkpt lat="45.39409" lon="2.9299">
        <ele>1221.809179</ele>
        <time>2021-07-08T08:33:26+0200</time>
      </trkpt>
      <trkpt lat="45.39415" lon="2.92998">
        <ele>1222.00036</ele>
        <time>2021-07-08T08:33:28+0200</time>
      </trkpt>
      <trkpt lat="45.3942" lon="2.93007">
        <ele>1222.175992</ele>
        <time>2021-07-08T08:33:30+0200</time>
      </trkpt>
      <trkpt lat="45.39426" lon="2.93016">
        <ele>1222.339579</ele>
        <time>2021-07-08T08:33:32+0200</time>
      </trkpt>
      <trkpt lat="45.39431" lon="2.93025">
        <ele>1222.647497</ele>
        <time>2021-07-08T08:33:34+0200</time>
      </trkpt>
      <trkpt lat="45.39437" lon="2.93035">
        <ele>1223.051224</ele>
        <time>2021-07-08T08:33:36+0200</time>
      </trkpt>
      <trkpt lat="45.39442" lon="2.93045">
        <ele>1223.302929</ele>
        <time>2021-07-08T08:33:38+0200</time>
      </trkpt>
      <trkpt lat="45.39447" lon="2.93054">
        <ele>1223.830868</ele>
        <time>2021-07-08T08:33:40+0200</time>
      </trkpt>
      <trkpt lat="45.39453" lon="2.93063">
        <ele>1224.47223</ele>
        <time>2021-07-08T08:33:42+0200</time>
      </trkpt>
      <trkpt lat="45.39457" lon="2.93073">
        <ele>1224.827642</ele>
        <time>2021-07-08T08:33:44+0200</time>
      </trkpt>
      <trkpt lat="45.39463" lon="2.93082">
        <ele>1225.204197</ele>
        <time>2021-07-08T08:33:46+0200</time>
      </trkpt>
      <trkpt lat="45.39468" lon="2.93092">
        <ele>1225.540054</ele>
        <time>2021-07-08T08:33:48+0200</time>
      </trkpt>
      <trkpt lat="45.39473" lon="2.93101">
        <ele>1225.708542</ele>
        <time>2021-07-08T08:33:50+0200</time>
      </trkpt>
      <trkpt lat="45.39478" lon="2.93111">
        <ele>1225.960063</ele>
        <time>2021-07-08T08:33:52+0200</time>
      </trkpt>
      <trkpt lat="45.3948" lon="2.93117">
        <ele>1225.957212</ele>
        <time>2021-07-08T08:33:53+0200</time>
      </trkpt>
      <trkpt lat="45.39485" lon="2.93128">
        <ele>1225.680891</ele>
        <time>2021-07-08T08:33:55+0200</time>
      </trkpt>
      <trkpt lat="45.39488" lon="2.93133">
        <ele>1225.703575</ele>
        <time>2021-07-08T08:33:56+0200</time>
      </trkpt>
      <trkpt lat="45.3949" lon="2.93139">
        <ele>1225.494652</ele>
        <time>2021-07-08T08:33:57+0200</time>
      </trkpt>
      <trkpt lat="45.39493" lon="2.93145">
        <ele>1225.245694</ele>
        <time>2021-07-08T08:33:58+0200</time>
      </trkpt>
      <trkpt lat="45.39497" lon="2.93157">
        <ele>1225.00077</ele>
        <time>2021-07-08T08:34:00+0200</time>
      </trkpt>
      <trkpt lat="45.39498" lon="2.93169">
        <ele>1224.600863</ele>
        <time>2021-07-08T08:34:02+0200</time>
      </trkpt>
      <trkpt lat="45.395" lon="2.93176">
        <ele>1224.219435</ele>
        <time>2021-07-08T08:34:03+0200</time>
      </trkpt>
      <trkpt lat="45.39501" lon="2.93182">
        <ele>1223.976877</ele>
        <time>2021-07-08T08:34:04+0200</time>
      </trkpt>
      <trkpt lat="45.39503" lon="2.93188">
        <ele>1223.79168</ele>
        <time>2021-07-08T08:34:05+0200</time>
      </trkpt>
      <trkpt lat="45.39504" lon="2.93195">
        <ele>1223.623027</ele>
        <time>2021-07-08T08:34:06+0200</time>
      </trkpt>
      <trkpt lat="45.39505" lon="2.93202">
        <ele>1223.515721</ele>
        <time>2021-07-08T08:34:07+0200</time>
      </trkpt>
      <trkpt lat="45.39508" lon="2.93208">
        <ele>1223.479418</ele>
        <time>2021-07-08T08:34:08+0200</time>
      </trkpt>
      <trkpt lat="45.39511" lon="2.93213">
        <ele>1223.362627</ele>
        <time>2021-07-08T08:34:09+0200</time>
      </trkpt>
      <trkpt lat="45.39515" lon="2.93218">
        <ele>1223.163776</ele>
        <time>2021-07-08T08:34:10+0200</time>
      </trkpt>
      <trkpt lat="45.39517" lon="2.93223">
        <ele>1223.131543</ele>
        <time>2021-07-08T08:34:11+0200</time>
      </trkpt>
      <trkpt lat="45.39519" lon="2.9323">
        <ele>1223.089916</ele>
        <time>2021-07-08T08:34:12+0200</time>
      </trkpt>
      <trkpt lat="45.39521" lon="2.93236">
        <ele>1223.043559</ele>
        <time>2021-07-08T08:34:13+0200</time>
      </trkpt>
      <trkpt lat="45.39524" lon="2.93242">
        <ele>1223.019564</ele>
        <time>2021-07-08T08:34:14+0200</time>
      </trkpt>
      <trkpt lat="45.39527" lon="2.93248">
        <ele>1222.976545</ele>
        <time>2021-07-08T08:34:15+0200</time>
      </trkpt>
      <trkpt lat="45.39529" lon="2.93254">
        <ele>1222.903584</ele>
        <time>2021-07-08T08:34:16+0200</time>
      </trkpt>
      <trkpt lat="45.39531" lon="2.9326">
        <ele>1222.720411</ele>
        <time>2021-07-08T08:34:17+0200</time>
      </trkpt>
      <trkpt lat="45.39533" lon="2.93267">
        <ele>1222.61669</ele>
        <time>2021-07-08T08:34:18+0200</time>
      </trkpt>
      <trkpt lat="45.39535" lon="2.93273">
        <ele>1222.533048</ele>
        <time>2021-07-08T08:34:19+0200</time>
      </trkpt>
      <trkpt lat="45.39537" lon="2.93281">
        <ele>1222.474784</ele>
        <time>2021-07-08T08:34:20+0200</time>
      </trkpt>
      <trkpt lat="45.39539" lon="2.93294">
        <ele>1222.095841</ele>
        <time>2021-07-08T08:34:22+0200</time>
      </trkpt>
      <trkpt lat="45.3954" lon="2.93302">
        <ele>1221.985458</ele>
        <time>2021-07-08T08:34:23+0200</time>
      </trkpt>
      <trkpt lat="45.3954" lon="2.9331">
        <ele>1221.930091</ele>
        <time>2021-07-08T08:34:24+0200</time>
      </trkpt>
      <trkpt lat="45.39542" lon="2.93317">
        <ele>1221.715037</ele>
        <time>2021-07-08T08:34:25+0200</time>
      </trkpt>
      <trkpt lat="45.39542" lon="2.93325">
        <ele>1221.533664</ele>
        <time>2021-07-08T08:34:26+0200</time>
      </trkpt>
      <trkpt lat="45.39542" lon="2.93333">
        <ele>1221.38685</ele>
        <time>2021-07-08T08:34:27+0200</time>
      </trkpt>
      <trkpt lat="45.39543" lon="2.93341">
        <ele>1221.186201</ele>
        <time>2021-07-08T08:34:28+0200</time>
      </trkpt>
      <trkpt lat="45.39544" lon="2.9335">
        <ele>1221.136682</ele>
        <time>2021-07-08T08:34:29+0200</time>
      </trkpt>
      <trkpt lat="45.39546" lon="2.93358">
        <ele>1221.049303</ele>
        <time>2021-07-08T08:34:30+0200</time>
      </trkpt>
      <trkpt lat="45.39548" lon="2.93367">
        <ele>1221.033538</ele>
        <time>2021-07-08T08:34:31+0200</time>
      </trkpt>
      <trkpt lat="45.3955" lon="2.93375">
        <ele>1221.054562</ele>
        <time>2021-07-08T08:34:32+0200</time>
      </trkpt>
      <trkpt lat="45.39551" lon="2.93384">
        <ele>1221.029234</ele>
        <time>2021-07-08T08:34:33+0200</time>
      </trkpt>
      <trkpt lat="45.39553" lon="2.93392">
        <ele>1220.52571</ele>
        <time>2021-07-08T08:34:34+0200</time>
      </trkpt>
      <trkpt lat="45.39555" lon="2.934">
        <ele>1220.403606</ele>
        <time>2021-07-08T08:34:35+0200</time>
      </trkpt>
      <trkpt lat="45.39556" lon="2.93409">
        <ele>1220.170741</ele>
        <time>2021-07-08T08:34:36+0200</time>
      </trkpt>
      <trkpt lat="45.39557" lon="2.93417">
        <ele>1220.079696</ele>
        <time>2021-07-08T08:34:37+0200</time>
      </trkpt>
      <trkpt lat="45.39557" lon="2.93426">
        <ele>1219.971123</ele>
        <time>2021-07-08T08:34:38+0200</time>
      </trkpt>
      <trkpt lat="45.39556" lon="2.93434">
        <ele>1219.824998</ele>
        <time>2021-07-08T08:34:39+0200</time>
      </trkpt>
      <trkpt lat="45.39556" lon="2.93443">
        <ele>1219.482683</ele>
        <time>2021-07-08T08:34:40+0200</time>
      </trkpt>
      <trkpt lat="45.39556" lon="2.93452">
        <ele>1219.222167</ele>
        <time>2021-07-08T08:34:41+0200</time>
      </trkpt>
      <trkpt lat="45.39556" lon="2.93461">
        <ele>1218.915607</ele>
        <time>2021-07-08T08:34:42+0200</time>
      </trkpt>
      <trkpt lat="45.39555" lon="2.9347">
        <ele>1218.801508</ele>
        <time>2021-07-08T08:34:43+0200</time>
      </trkpt>
      <trkpt lat="45.39554" lon="2.9348">
        <ele>1218.652001</ele>
        <time>2021-07-08T08:34:44+0200</time>
      </trkpt>
      <trkpt lat="45.39552" lon="2.93489">
        <ele>1218.519782</ele>
        <time>2021-07-08T08:34:45+0200</time>
      </trkpt>
      <trkpt lat="45.39551" lon="2.93499">
        <ele>1218.232975</ele>
        <time>2021-07-08T08:34:46+0200</time>
      </trkpt>
      <trkpt lat="45.39551" lon="2.93509">
        <ele>1218.093037</ele>
        <time>2021-07-08T08:34:47+0200</time>
      </trkpt>
      <trkpt lat="45.3955" lon="2.93518">
        <ele>1217.859347</ele>
        <time>2021-07-08T08:34:48+0200</time>
      </trkpt>
      <trkpt lat="45.39549" lon="2.93527">
        <ele>1217.79706</ele>
        <time>2021-07-08T08:34:49+0200</time>
      </trkpt>
      <trkpt lat="45.39549" lon="2.93537">
        <ele>1217.841115</ele>
        <time>2021-07-08T08:34:50+0200</time>
      </trkpt>
      <trkpt lat="45.39549" lon="2.93546">
        <ele>1218.059172</ele>
        <time>2021-07-08T08:34:51+0200</time>
      </trkpt>
      <trkpt lat="45.39551" lon="2.93555">
        <ele>1218.214752</ele>
        <time>2021-07-08T08:34:52+0200</time>
      </trkpt>
      <trkpt lat="45.39553" lon="2.93562">
        <ele>1218.508015</ele>
        <time>2021-07-08T08:34:53+0200</time>
      </trkpt>
      <trkpt lat="45.39555" lon="2.9357">
        <ele>1218.678916</ele>
        <time>2021-07-08T08:34:54+0200</time>
      </trkpt>
      <trkpt lat="45.39557" lon="2.93578">
        <ele>1218.798023</ele>
        <time>2021-07-08T08:34:55+0200</time>
      </trkpt>
      <trkpt lat="45.39559" lon="2.93585">
        <ele>1218.969633</ele>
        <time>2021-07-08T08:34:56+0200</time>
      </trkpt>
      <trkpt lat="45.3956" lon="2.93593">
        <ele>1219.114586</ele>
        <time>2021-07-08T08:34:57+0200</time>
      </trkpt>
      <trkpt lat="45.39561" lon="2.93601">
        <ele>1219.161437</ele>
        <time>2021-07-08T08:34:58+0200</time>
      </trkpt>
      <trkpt lat="45.39561" lon="2.93609">
        <ele>1219.149686</ele>
        <time>2021-07-08T08:34:59+0200</time>
      </trkpt>
      <trkpt lat="45.39561" lon="2.93617">
        <ele>1219.258526</ele>
        <time>2021-07-08T08:35:00+0200</time>
      </trkpt>
      <trkpt lat="45.3956" lon="2.93625">
        <ele>1219.483223</ele>
        <time>2021-07-08T08:35:01+0200</time>
      </trkpt>
      <trkpt lat="45.39559" lon="2.93633">
        <ele>1219.455683</ele>
        <time>2021-07-08T08:35:02+0200</time>
      </trkpt>
      <trkpt lat="45.39559" lon="2.9364">
        <ele>1219.381391</ele>
        <time>2021-07-08T08:35:03+0200</time>
      </trkpt>
      <trkpt lat="45.39559" lon="2.93648">
        <ele>1219.263526</ele>
        <time>2021-07-08T08:35:04+0200</time>
      </trkpt>
      <trkpt lat="45.39559" lon="2.93656">
        <ele>1219.226249</ele>
        <time>2021-07-08T08:35:05+0200</time>
      </trkpt>
      <trkpt lat="45.39559" lon="2.93663">
        <ele>1219.292317</ele>
        <time>2021-07-08T08:35:06+0200</time>
      </trkpt>
      <trkpt lat="45.39559" lon="2.93671">
        <ele>1219.333785</ele>
        <time>2021-07-08T08:35:07+0200</time>
      </trkpt>
      <trkpt lat="45.39559" lon="2.93678">
        <ele>1219.274578</ele>
        <time>2021-07-08T08:35:08+0200</time>
      </trkpt>
      <trkpt lat="45.39559" lon="2.93686">
        <ele>1219.113421</ele>
        <time>2021-07-08T08:35:09+0200</time>
      </trkpt>
      <trkpt lat="45.39559" lon="2.93694">
        <ele>1218.944029</ele>
        <time>2021-07-08T08:35:10+0200</time>
      </trkpt>
      <trkpt lat="45.39561" lon="2.93701">
        <ele>1219.064857</ele>
        <time>2021-07-08T08:35:11+0200</time>
      </trkpt>
      <trkpt lat="45.39563" lon="2.93708">
        <ele>1219.51488</ele>
        <time>2021-07-08T08:35:12+0200</time>
      </trkpt>
      <trkpt lat="45.39565" lon="2.93715">
        <ele>1219.842408</ele>
        <time>2021-07-08T08:35:13+0200</time>
      </trkpt>
      <trkpt lat="45.39568" lon="2.93721">
        <ele>1220.068831</ele>
        <time>2021-07-08T08:35:14+0200</time>
      </trkpt>
      <trkpt lat="45.39571" lon="2.93726">
        <ele>1220.233417</ele>
        <time>2021-07-08T08:35:15+0200</time>
      </trkpt>
      <trkpt lat="45.39574" lon="2.93731">
        <ele>1220.773447</ele>
        <time>2021-07-08T08:35:16+0200</time>
      </trkpt>
      <trkpt lat="45.39577" lon="2.93737">
        <ele>1221.075638</ele>
        <time>2021-07-08T08:35:17+0200</time>
      </trkpt>
      <trkpt lat="45.3958" lon="2.93742">
        <ele>1221.434728</ele>
        <time>2021-07-08T08:35:18+0200</time>
      </trkpt>
      <trkpt lat="45.39583" lon="2.93749">
        <ele>1221.675714</ele>
        <time>2021-07-08T08:35:19+0200</time>
      </trkpt>
      <trkpt lat="45.39586" lon="2.93754">
        <ele>1221.967439</ele>
        <time>2021-07-08T08:35:20+0200</time>
      </trkpt>
      <trkpt lat="45.39588" lon="2.93761">
        <ele>1222.145721</ele>
        <time>2021-07-08T08:35:21+0200</time>
      </trkpt>
      <trkpt lat="45.3959" lon="2.93768">
        <ele>1222.248778</ele>
        <time>2021-07-08T08:35:22+0200</time>
      </trkpt>
      <trkpt lat="45.39593" lon="2.93775">
        <ele>1222.32094</ele>
        <time>2021-07-08T08:35:23+0200</time>
      </trkpt>
      <trkpt lat="45.39595" lon="2.93781">
        <ele>1222.356669</ele>
        <time>2021-07-08T08:35:24+0200</time>
      </trkpt>
      <trkpt lat="45.39597" lon="2.93788">
        <ele>1222.456449</ele>
        <time>2021-07-08T08:35:25+0200</time>
      </trkpt>
      <trkpt lat="45.396" lon="2.93795">
        <ele>1222.624818</ele>
        <time>2021-07-08T08:35:26+0200</time>
      </trkpt>
      <trkpt lat="45.39604" lon="2.93801">
        <ele>1222.491065</ele>
        <time>2021-07-08T08:35:27+0200</time>
      </trkpt>
      <trkpt lat="45.39607" lon="2.93807">
        <ele>1222.611161</ele>
        <time>2021-07-08T08:35:28+0200</time>
      </trkpt>
      <trkpt lat="45.3961" lon="2.93813">
        <ele>1222.742068</ele>
        <time>2021-07-08T08:35:29+0200</time>
      </trkpt>
      <trkpt lat="45.39614" lon="2.93818">
        <ele>1222.876711</ele>
        <time>2021-07-08T08:35:30+0200</time>
      </trkpt>
      <trkpt lat="45.39617" lon="2.93824">
        <ele>1222.964872</ele>
        <time>2021-07-08T08:35:31+0200</time>
      </trkpt>
      <trkpt lat="45.3962" lon="2.9383">
        <ele>1222.966561</ele>
        <time>2021-07-08T08:35:32+0200</time>
      </trkpt>
      <trkpt lat="45.39624" lon="2.93835">
        <ele>1222.946759</ele>
        <time>2021-07-08T08:35:33+0200</time>
      </trkpt>
      <trkpt lat="45.39627" lon="2.93841">
        <ele>1223.140357</ele>
        <time>2021-07-08T08:35:34+0200</time>
      </trkpt>
      <trkpt lat="45.3963" lon="2.93847">
        <ele>1223.316823</ele>
        <time>2021-07-08T08:35:35+0200</time>
      </trkpt>
      <trkpt lat="45.39633" lon="2.93854">
        <ele>1223.118049</ele>
        <time>2021-07-08T08:35:36+0200</time>
      </trkpt>
      <trkpt lat="45.39635" lon="2.93861">
        <ele>1223.145226</ele>
        <time>2021-07-08T08:35:37+0200</time>
      </trkpt>
      <trkpt lat="45.39637" lon="2.93869">
        <ele>1223.009127</ele>
        <time>2021-07-08T08:35:38+0200</time>
      </trkpt>
      <trkpt lat="45.3964" lon="2.93877">
        <ele>1222.465981</ele>
        <time>2021-07-08T08:35:39+0200</time>
      </trkpt>
      <trkpt lat="45.39642" lon="2.93885">
        <ele>1222.307773</ele>
        <time>2021-07-08T08:35:40+0200</time>
      </trkpt>
      <trkpt lat="45.39643" lon="2.93892">
        <ele>1222.273469</ele>
        <time>2021-07-08T08:35:41+0200</time>
      </trkpt>
      <trkpt lat="45.39645" lon="2.93899">
        <ele>1222.202618</ele>
        <time>2021-07-08T08:35:42+0200</time>
      </trkpt>
      <trkpt lat="45.39647" lon="2.93906">
        <ele>1222.254774</ele>
        <time>2021-07-08T08:35:43+0200</time>
      </trkpt>
      <trkpt lat="45.39649" lon="2.93914">
        <ele>1222.325686</ele>
        <time>2021-07-08T08:35:44+0200</time>
      </trkpt>
      <trkpt lat="45.39652" lon="2.9392">
        <ele>1222.515806</ele>
        <time>2021-07-08T08:35:45+0200</time>
      </trkpt>
      <trkpt lat="45.39654" lon="2.93927">
        <ele>1222.703541</ele>
        <time>2021-07-08T08:35:46+0200</time>
      </trkpt>
      <trkpt lat="45.39657" lon="2.93934">
        <ele>1222.851032</ele>
        <time>2021-07-08T08:35:47+0200</time>
      </trkpt>
      <trkpt lat="45.3966" lon="2.9394">
        <ele>1223.066863</ele>
        <time>2021-07-08T08:35:48+0200</time>
      </trkpt>
      <trkpt lat="45.39662" lon="2.93947">
        <ele>1223.176337</ele>
        <time>2021-07-08T08:35:49+0200</time>
      </trkpt>
      <trkpt lat="45.39665" lon="2.93953">
        <ele>1223.193894</ele>
        <time>2021-07-08T08:35:50+0200</time>
      </trkpt>
      <trkpt lat="45.39668" lon="2.93959">
        <ele>1223.577465</ele>
        <time>2021-07-08T08:35:51+0200</time>
      </trkpt>
      <trkpt lat="45.3967" lon="2.93966">
        <ele>1223.76401</ele>
        <time>2021-07-08T08:35:52+0200</time>
      </trkpt>
      <trkpt lat="45.39673" lon="2.93973">
        <ele>1223.822732</ele>
        <time>2021-07-08T08:35:53+0200</time>
      </trkpt>
      <trkpt lat="45.39675" lon="2.93979">
        <ele>1223.975535</ele>
        <time>2021-07-08T08:35:54+0200</time>
      </trkpt>
      <trkpt lat="45.39678" lon="2.93986">
        <ele>1224.067413</ele>
        <time>2021-07-08T08:35:55+0200</time>
      </trkpt>
      <trkpt lat="45.39681" lon="2.93993">
        <ele>1224.042358</ele>
        <time>2021-07-08T08:35:56+0200</time>
      </trkpt>
      <trkpt lat="45.39684" lon="2.93999">
        <ele>1224.037574</ele>
        <time>2021-07-08T08:35:57+0200</time>
      </trkpt>
      <trkpt lat="45.39687" lon="2.94006">
        <ele>1223.970251</ele>
        <time>2021-07-08T08:35:58+0200</time>
      </trkpt>
      <trkpt lat="45.39689" lon="2.94013">
        <ele>1224.068903</ele>
        <time>2021-07-08T08:35:59+0200</time>
      </trkpt>
      <trkpt lat="45.39692" lon="2.94019">
        <ele>1224.10007</ele>
        <time>2021-07-08T08:36:00+0200</time>
      </trkpt>
      <trkpt lat="45.39694" lon="2.94025">
        <ele>1224.028063</ele>
        <time>2021-07-08T08:36:01+0200</time>
      </trkpt>
      <trkpt lat="45.39697" lon="2.94032">
        <ele>1224.039286</ele>
        <time>2021-07-08T08:36:02+0200</time>
      </trkpt>
      <trkpt lat="45.397" lon="2.94039">
        <ele>1223.956163</ele>
        <time>2021-07-08T08:36:03+0200</time>
      </trkpt>
      <trkpt lat="45.39703" lon="2.94045">
        <ele>1223.952552</ele>
        <time>2021-07-08T08:36:04+0200</time>
      </trkpt>
      <trkpt lat="45.39706" lon="2.94052">
        <ele>1224.118123</ele>
        <time>2021-07-08T08:36:05+0200</time>
      </trkpt>
      <trkpt lat="45.39709" lon="2.94059">
        <ele>1224.182185</ele>
        <time>2021-07-08T08:36:06+0200</time>
      </trkpt>
      <trkpt lat="45.39711" lon="2.94066">
        <ele>1224.107697</ele>
        <time>2021-07-08T08:36:07+0200</time>
      </trkpt>
      <trkpt lat="45.39715" lon="2.94072">
        <ele>1224.020749</ele>
        <time>2021-07-08T08:36:08+0200</time>
      </trkpt>
      <trkpt lat="45.39717" lon="2.94079">
        <ele>1223.813777</ele>
        <time>2021-07-08T08:36:09+0200</time>
      </trkpt>
      <trkpt lat="45.39721" lon="2.94086">
        <ele>1223.83864</ele>
        <time>2021-07-08T08:36:10+0200</time>
      </trkpt>
      <trkpt lat="45.39723" lon="2.94092">
        <ele>1223.774239</ele>
        <time>2021-07-08T08:36:11+0200</time>
      </trkpt>
      <trkpt lat="45.39726" lon="2.94099">
        <ele>1223.854055</ele>
        <time>2021-07-08T08:36:12+0200</time>
      </trkpt>
      <trkpt lat="45.39729" lon="2.94106">
        <ele>1223.881118</ele>
        <time>2021-07-08T08:36:13+0200</time>
      </trkpt>
      <trkpt lat="45.39733" lon="2.94113">
        <ele>1223.947527</ele>
        <time>2021-07-08T08:36:14+0200</time>
      </trkpt>
      <trkpt lat="45.39736" lon="2.94119">
        <ele>1224.033072</ele>
        <time>2021-07-08T08:36:15+0200</time>
      </trkpt>
      <trkpt lat="45.39738" lon="2.94126">
        <ele>1224.143412</ele>
        <time>2021-07-08T08:36:16+0200</time>
      </trkpt>
      <trkpt lat="45.39741" lon="2.94133">
        <ele>1224.090217</ele>
        <time>2021-07-08T08:36:17+0200</time>
      </trkpt>
      <trkpt lat="45.39744" lon="2.94139">
        <ele>1224.047135</ele>
        <time>2021-07-08T08:36:18+0200</time>
      </trkpt>
      <trkpt lat="45.39747" lon="2.94147">
        <ele>1224.005513</ele>
        <time>2021-07-08T08:36:19+0200</time>
      </trkpt>
      <trkpt lat="45.3975" lon="2.94153">
        <ele>1223.766266</ele>
        <time>2021-07-08T08:36:20+0200</time>
      </trkpt>
      <trkpt lat="45.39752" lon="2.9416">
        <ele>1223.621211</ele>
        <time>2021-07-08T08:36:21+0200</time>
      </trkpt>
      <trkpt lat="45.39754" lon="2.94167">
        <ele>1223.472993</ele>
        <time>2021-07-08T08:36:22+0200</time>
      </trkpt>
      <trkpt lat="45.39755" lon="2.94175">
        <ele>1223.497022</ele>
        <time>2021-07-08T08:36:23+0200</time>
      </trkpt>
      <trkpt lat="45.39757" lon="2.94183">
        <ele>1223.532736</ele>
        <time>2021-07-08T08:36:24+0200</time>
      </trkpt>
      <trkpt lat="45.39757" lon="2.94191">
        <ele>1223.524088</ele>
        <time>2021-07-08T08:36:25+0200</time>
      </trkpt>
      <trkpt lat="45.39758" lon="2.94198">
        <ele>1223.544208</ele>
        <time>2021-07-08T08:36:26+0200</time>
      </trkpt>
      <trkpt lat="45.39759" lon="2.94206">
        <ele>1223.576562</ele>
        <time>2021-07-08T08:36:27+0200</time>
      </trkpt>
      <trkpt lat="45.39758" lon="2.94214">
        <ele>1223.597764</ele>
        <time>2021-07-08T08:36:28+0200</time>
      </trkpt>
      <trkpt lat="45.39757" lon="2.94222">
        <ele>1223.209968</ele>
        <time>2021-07-08T08:36:29+0200</time>
      </trkpt>
      <trkpt lat="45.39756" lon="2.9423">
        <ele>1223.180587</ele>
        <time>2021-07-08T08:36:30+0200</time>
      </trkpt>
      <trkpt lat="45.39753" lon="2.94237">
        <ele>1223.27387</ele>
        <time>2021-07-08T08:36:31+0200</time>
      </trkpt>
      <trkpt lat="45.3975" lon="2.94243">
        <ele>1223.423401</ele>
        <time>2021-07-08T08:36:32+0200</time>
      </trkpt>
      <trkpt lat="45.39748" lon="2.9425">
        <ele>1223.342584</ele>
        <time>2021-07-08T08:36:33+0200</time>
      </trkpt>
      <trkpt lat="45.39745" lon="2.94257">
        <ele>1223.49923</ele>
        <time>2021-07-08T08:36:34+0200</time>
      </trkpt>
      <trkpt lat="45.39744" lon="2.94265">
        <ele>1223.413738</ele>
        <time>2021-07-08T08:36:35+0200</time>
      </trkpt>
      <trkpt lat="45.39742" lon="2.94272">
        <ele>1223.528892</ele>
        <time>2021-07-08T08:36:36+0200</time>
      </trkpt>
      <trkpt lat="45.39741" lon="2.9428">
        <ele>1223.523919</ele>
        <time>2021-07-08T08:36:37+0200</time>
      </trkpt>
      <trkpt lat="45.39741" lon="2.94288">
        <ele>1223.430129</ele>
        <time>2021-07-08T08:36:38+0200</time>
      </trkpt>
      <trkpt lat="45.39742" lon="2.94296">
        <ele>1223.447568</ele>
        <time>2021-07-08T08:36:39+0200</time>
      </trkpt>
      <trkpt lat="45.39743" lon="2.94303">
        <ele>1223.586789</ele>
        <time>2021-07-08T08:36:40+0200</time>
      </trkpt>
      <trkpt lat="45.39745" lon="2.94311">
        <ele>1223.462447</ele>
        <time>2021-07-08T08:36:41+0200</time>
      </trkpt>
      <trkpt lat="45.39748" lon="2.94318">
        <ele>1223.476702</ele>
        <time>2021-07-08T08:36:42+0200</time>
      </trkpt>
      <trkpt lat="45.3975" lon="2.94325">
        <ele>1223.469234</ele>
        <time>2021-07-08T08:36:43+0200</time>
      </trkpt>
      <trkpt lat="45.39752" lon="2.94332">
        <ele>1223.482349</ele>
        <time>2021-07-08T08:36:44+0200</time>
      </trkpt>
      <trkpt lat="45.39755" lon="2.9434">
        <ele>1223.590428</ele>
        <time>2021-07-08T08:36:45+0200</time>
      </trkpt>
      <trkpt lat="45.39756" lon="2.94348">
        <ele>1223.37395</ele>
        <time>2021-07-08T08:36:46+0200</time>
      </trkpt>
      <trkpt lat="45.39757" lon="2.94356">
        <ele>1223.267063</ele>
        <time>2021-07-08T08:36:47+0200</time>
      </trkpt>
      <trkpt lat="45.39757" lon="2.94364">
        <ele>1223.075797</ele>
        <time>2021-07-08T08:36:48+0200</time>
      </trkpt>
      <trkpt lat="45.39755" lon="2.94373">
        <ele>1222.867463</ele>
        <time>2021-07-08T08:36:49+0200</time>
      </trkpt>
      <trkpt lat="45.39752" lon="2.94381">
        <ele>1223.0137</ele>
        <time>2021-07-08T08:36:50+0200</time>
      </trkpt>
      <trkpt lat="45.39747" lon="2.94387">
        <ele>1222.935452</ele>
        <time>2021-07-08T08:36:51+0200</time>
      </trkpt>
      <trkpt lat="45.39743" lon="2.94392">
        <ele>1223.13255</ele>
        <time>2021-07-08T08:36:52+0200</time>
      </trkpt>
      <trkpt lat="45.39738" lon="2.94398">
        <ele>1223.194358</ele>
        <time>2021-07-08T08:36:53+0200</time>
      </trkpt>
      <trkpt lat="45.39734" lon="2.94404">
        <ele>1223.048166</ele>
        <time>2021-07-08T08:36:54+0200</time>
      </trkpt>
      <trkpt lat="45.39729" lon="2.9441">
        <ele>1222.994643</ele>
        <time>2021-07-08T08:36:55+0200</time>
      </trkpt>
      <trkpt lat="45.39725" lon="2.94416">
        <ele>1222.99678</ele>
        <time>2021-07-08T08:36:56+0200</time>
      </trkpt>
      <trkpt lat="45.3972" lon="2.94421">
        <ele>1223.139022</ele>
        <time>2021-07-08T08:36:57+0200</time>
      </trkpt>
      <trkpt lat="45.39716" lon="2.94426">
        <ele>1223.191757</ele>
        <time>2021-07-08T08:36:58+0200</time>
      </trkpt>
      <trkpt lat="45.39712" lon="2.94432">
        <ele>1223.307847</ele>
        <time>2021-07-08T08:36:59+0200</time>
      </trkpt>
      <trkpt lat="45.39708" lon="2.94438">
        <ele>1223.258611</ele>
        <time>2021-07-08T08:37:00+0200</time>
      </trkpt>
      <trkpt lat="45.39704" lon="2.94444">
        <ele>1223.305714</ele>
        <time>2021-07-08T08:37:01+0200</time>
      </trkpt>
      <trkpt lat="45.397" lon="2.94449">
        <ele>1223.308608</ele>
        <time>2021-07-08T08:37:02+0200</time>
      </trkpt>
      <trkpt lat="45.39696" lon="2.94455">
        <ele>1223.383695</ele>
        <time>2021-07-08T08:37:03+0200</time>
      </trkpt>
      <trkpt lat="45.39691" lon="2.94461">
        <ele>1223.141331</ele>
        <time>2021-07-08T08:37:04+0200</time>
      </trkpt>
      <trkpt lat="45.39688" lon="2.94467">
        <ele>1223.241895</ele>
        <time>2021-07-08T08:37:05+0200</time>
      </trkpt>
      <trkpt lat="45.39684" lon="2.94474">
        <ele>1223.161531</ele>
        <time>2021-07-08T08:37:06+0200</time>
      </trkpt>
      <trkpt lat="45.39681" lon="2.94481">
        <ele>1223.153104</ele>
        <time>2021-07-08T08:37:07+0200</time>
      </trkpt>
      <trkpt lat="45.3968" lon="2.94488">
        <ele>1223.505467</ele>
        <time>2021-07-08T08:37:08+0200</time>
      </trkpt>
      <trkpt lat="45.3968" lon="2.94495">
        <ele>1223.798652</ele>
        <time>2021-07-08T08:37:09+0200</time>
      </trkpt>
      <trkpt lat="45.39681" lon="2.94502">
        <ele>1223.734363</ele>
        <time>2021-07-08T08:37:10+0200</time>
      </trkpt>
      <trkpt lat="45.39683" lon="2.9451">
        <ele>1223.877556</ele>
        <time>2021-07-08T08:37:11+0200</time>
      </trkpt>
      <trkpt lat="45.39685" lon="2.94517">
        <ele>1223.917755</ele>
        <time>2021-07-08T08:37:12+0200</time>
      </trkpt>
      <trkpt lat="45.39688" lon="2.94524">
        <ele>1224.010588</ele>
        <time>2021-07-08T08:37:13+0200</time>
      </trkpt>
      <trkpt lat="45.39692" lon="2.9453">
        <ele>1224.052546</ele>
        <time>2021-07-08T08:37:14+0200</time>
      </trkpt>
      <trkpt lat="45.39695" lon="2.94537">
        <ele>1224.030588</ele>
        <time>2021-07-08T08:37:15+0200</time>
      </trkpt>
      <trkpt lat="45.39698" lon="2.94544">
        <ele>1224.14371</ele>
        <time>2021-07-08T08:37:16+0200</time>
      </trkpt>
      <trkpt lat="45.39701" lon="2.9455">
        <ele>1224.364622</ele>
        <time>2021-07-08T08:37:17+0200</time>
      </trkpt>
      <trkpt lat="45.39705" lon="2.94556">
        <ele>1224.544657</ele>
        <time>2021-07-08T08:37:18+0200</time>
      </trkpt>
      <trkpt lat="45.39708" lon="2.94563">
        <ele>1224.498691</ele>
        <time>2021-07-08T08:37:19+0200</time>
      </trkpt>
      <trkpt lat="45.39711" lon="2.9457">
        <ele>1224.375993</ele>
        <time>2021-07-08T08:37:20+0200</time>
      </trkpt>
      <trkpt lat="45.39714" lon="2.94577">
        <ele>1224.255069</ele>
        <time>2021-07-08T08:37:21+0200</time>
      </trkpt>
      <trkpt lat="45.39716" lon="2.94583">
        <ele>1224.207501</ele>
        <time>2021-07-08T08:37:22+0200</time>
      </trkpt>
      <trkpt lat="45.39719" lon="2.9459">
        <ele>1224.152891</ele>
        <time>2021-07-08T08:37:23+0200</time>
      </trkpt>
      <trkpt lat="45.39722" lon="2.94597">
        <ele>1224.044125</ele>
        <time>2021-07-08T08:37:24+0200</time>
      </trkpt>
      <trkpt lat="45.39725" lon="2.94603">
        <ele>1224.153382</ele>
        <time>2021-07-08T08:37:25+0200</time>
      </trkpt>
      <trkpt lat="45.39728" lon="2.9461">
        <ele>1224.2032</ele>
        <time>2021-07-08T08:37:26+0200</time>
      </trkpt>
      <trkpt lat="45.3973" lon="2.94617">
        <ele>1224.369595</ele>
        <time>2021-07-08T08:37:27+0200</time>
      </trkpt>
      <trkpt lat="45.39734" lon="2.94624">
        <ele>1224.311811</ele>
        <time>2021-07-08T08:37:28+0200</time>
      </trkpt>
      <trkpt lat="45.39736" lon="2.94631">
        <ele>1224.325222</ele>
        <time>2021-07-08T08:37:29+0200</time>
      </trkpt>
      <trkpt lat="45.39739" lon="2.94638">
        <ele>1224.234959</ele>
        <time>2021-07-08T08:37:30+0200</time>
      </trkpt>
      <trkpt lat="45.39742" lon="2.94645">
        <ele>1224.224254</ele>
        <time>2021-07-08T08:37:31+0200</time>
      </trkpt>
      <trkpt lat="45.39745" lon="2.94652">
        <ele>1224.154812</ele>
        <time>2021-07-08T08:37:32+0200</time>
      </trkpt>
      <trkpt lat="45.39748" lon="2.9466">
        <ele>1223.969762</ele>
        <time>2021-07-08T08:37:33+0200</time>
      </trkpt>
      <trkpt lat="45.3975" lon="2.94667">
        <ele>1223.894883</ele>
        <time>2021-07-08T08:37:34+0200</time>
      </trkpt>
      <trkpt lat="45.39751" lon="2.94675">
        <ele>1223.760081</ele>
        <time>2021-07-08T08:37:35+0200</time>
      </trkpt>
      <trkpt lat="45.39752" lon="2.94682">
        <ele>1223.506287</ele>
        <time>2021-07-08T08:37:36+0200</time>
      </trkpt>
      <trkpt lat="45.39751" lon="2.94689">
        <ele>1223.501656</ele>
        <time>2021-07-08T08:37:37+0200</time>
      </trkpt>
      <trkpt lat="45.39751" lon="2.94697">
        <ele>1223.445574</ele>
        <time>2021-07-08T08:37:38+0200</time>
      </trkpt>
      <trkpt lat="45.3975" lon="2.94704">
        <ele>1223.281987</ele>
        <time>2021-07-08T08:37:39+0200</time>
      </trkpt>
      <trkpt lat="45.39749" lon="2.94712">
        <ele>1223.329209</ele>
        <time>2021-07-08T08:37:40+0200</time>
      </trkpt>
      <trkpt lat="45.39747" lon="2.94719">
        <ele>1223.343383</ele>
        <time>2021-07-08T08:37:41+0200</time>
      </trkpt>
      <trkpt lat="45.39745" lon="2.94726">
        <ele>1223.499816</ele>
        <time>2021-07-08T08:37:42+0200</time>
      </trkpt>
      <trkpt lat="45.39743" lon="2.94733">
        <ele>1223.64225</ele>
        <time>2021-07-08T08:37:43+0200</time>
      </trkpt>
      <trkpt lat="45.39742" lon="2.94741">
        <ele>1223.76066</ele>
        <time>2021-07-08T08:37:44+0200</time>
      </trkpt>
      <trkpt lat="45.39741" lon="2.94747">
        <ele>1223.872099</ele>
        <time>2021-07-08T08:37:45+0200</time>
      </trkpt>
      <trkpt lat="45.3974" lon="2.94755">
        <ele>1223.793463</ele>
        <time>2021-07-08T08:37:46+0200</time>
      </trkpt>
      <trkpt lat="45.39738" lon="2.94762">
        <ele>1223.69756</ele>
        <time>2021-07-08T08:37:47+0200</time>
      </trkpt>
      <trkpt lat="45.39736" lon="2.9477">
        <ele>1223.559329</ele>
        <time>2021-07-08T08:37:48+0200</time>
      </trkpt>
      <trkpt lat="45.39733" lon="2.94776">
        <ele>1223.380745</ele>
        <time>2021-07-08T08:37:49+0200</time>
      </trkpt>
      <trkpt lat="45.3973" lon="2.94782">
        <ele>1223.343566</ele>
        <time>2021-07-08T08:37:50+0200</time>
      </trkpt>
      <trkpt lat="45.39725" lon="2.94787">
        <ele>1223.266139</ele>
        <time>2021-07-08T08:37:51+0200</time>
      </trkpt>
      <trkpt lat="45.3972" lon="2.94792">
        <ele>1223.059753</ele>
        <time>2021-07-08T08:37:52+0200</time>
      </trkpt>
      <trkpt lat="45.39716" lon="2.94797">
        <ele>1223.145843</ele>
        <time>2021-07-08T08:37:53+0200</time>
      </trkpt>
      <trkpt lat="45.39711" lon="2.948">
        <ele>1223.097455</ele>
        <time>2021-07-08T08:37:54+0200</time>
      </trkpt>
      <trkpt lat="45.39706" lon="2.94803">
        <ele>1223.188711</ele>
        <time>2021-07-08T08:37:55+0200</time>
      </trkpt>
      <trkpt lat="45.39702" lon="2.94807">
        <ele>1223.107659</ele>
        <time>2021-07-08T08:37:56+0200</time>
      </trkpt>
      <trkpt lat="45.39697" lon="2.9481">
        <ele>1223.050472</ele>
        <time>2021-07-08T08:37:57+0200</time>
      </trkpt>
      <trkpt lat="45.39692" lon="2.94814">
        <ele>1223.07633</ele>
        <time>2021-07-08T08:37:58+0200</time>
      </trkpt>
      <trkpt lat="45.39687" lon="2.94819">
        <ele>1223.010867</ele>
        <time>2021-07-08T08:37:59+0200</time>
      </trkpt>
      <trkpt lat="45.39683" lon="2.94824">
        <ele>1222.966899</ele>
        <time>2021-07-08T08:38:00+0200</time>
      </trkpt>
      <trkpt lat="45.39679" lon="2.9483">
        <ele>1222.801234</ele>
        <time>2021-07-08T08:38:01+0200</time>
      </trkpt>
      <trkpt lat="45.39676" lon="2.94837">
        <ele>1222.707722</ele>
        <time>2021-07-08T08:38:02+0200</time>
      </trkpt>
      <trkpt lat="45.39672" lon="2.94844">
        <ele>1222.528291</ele>
        <time>2021-07-08T08:38:03+0200</time>
      </trkpt>
      <trkpt lat="45.39669" lon="2.94852">
        <ele>1222.360817</ele>
        <time>2021-07-08T08:38:04+0200</time>
      </trkpt>
      <trkpt lat="45.39666" lon="2.94859">
        <ele>1222.353499</ele>
        <time>2021-07-08T08:38:05+0200</time>
      </trkpt>
      <trkpt lat="45.39663" lon="2.94866">
        <ele>1222.446724</ele>
        <time>2021-07-08T08:38:06+0200</time>
      </trkpt>
      <trkpt lat="45.39662" lon="2.94874">
        <ele>1222.561797</ele>
        <time>2021-07-08T08:38:07+0200</time>
      </trkpt>
      <trkpt lat="45.3966" lon="2.94882">
        <ele>1222.521448</ele>
        <time>2021-07-08T08:38:08+0200</time>
      </trkpt>
      <trkpt lat="45.39657" lon="2.9489">
        <ele>1222.691101</ele>
        <time>2021-07-08T08:38:09+0200</time>
      </trkpt>
      <trkpt lat="45.39655" lon="2.94897">
        <ele>1222.654964</ele>
        <time>2021-07-08T08:38:10+0200</time>
      </trkpt>
      <trkpt lat="45.39653" lon="2.94905">
        <ele>1222.59464</ele>
        <time>2021-07-08T08:38:11+0200</time>
      </trkpt>
      <trkpt lat="45.39649" lon="2.94912">
        <ele>1222.53178</ele>
        <time>2021-07-08T08:38:12+0200</time>
      </trkpt>
      <trkpt lat="45.39645" lon="2.94918">
        <ele>1222.802406</ele>
        <time>2021-07-08T08:38:13+0200</time>
      </trkpt>
      <trkpt lat="45.39639" lon="2.94921">
        <ele>1222.27847</ele>
        <time>2021-07-08T08:38:14+0200</time>
      </trkpt>
      <trkpt lat="45.39633" lon="2.94923">
        <ele>1222.256247</ele>
        <time>2021-07-08T08:38:15+0200</time>
      </trkpt>
      <trkpt lat="45.39627" lon="2.94923">
        <ele>1222.292367</ele>
        <time>2021-07-08T08:38:16+0200</time>
      </trkpt>
      <trkpt lat="45.39621" lon="2.94923">
        <ele>1222.248011</ele>
        <time>2021-07-08T08:38:17+0200</time>
      </trkpt>
      <trkpt lat="45.39615" lon="2.94922">
        <ele>1222.185721</ele>
        <time>2021-07-08T08:38:18+0200</time>
      </trkpt>
      <trkpt lat="45.39608" lon="2.94922">
        <ele>1222.16194</ele>
        <time>2021-07-08T08:38:19+0200</time>
      </trkpt>
      <trkpt lat="45.39602" lon="2.94924">
        <ele>1221.935589</ele>
        <time>2021-07-08T08:38:20+0200</time>
      </trkpt>
      <trkpt lat="45.39596" lon="2.94927">
        <ele>1222.018291</ele>
        <time>2021-07-08T08:38:21+0200</time>
      </trkpt>
      <trkpt lat="45.39591" lon="2.94931">
        <ele>1221.925182</ele>
        <time>2021-07-08T08:38:22+0200</time>
      </trkpt>
      <trkpt lat="45.39588" lon="2.94938">
        <ele>1222.398308</ele>
        <time>2021-07-08T08:38:23+0200</time>
      </trkpt>
      <trkpt lat="45.39585" lon="2.94947">
        <ele>1222.63003</ele>
        <time>2021-07-08T08:38:24+0200</time>
      </trkpt>
      <trkpt lat="45.39584" lon="2.94955">
        <ele>1222.55054</ele>
        <time>2021-07-08T08:38:25+0200</time>
      </trkpt>
      <trkpt lat="45.39584" lon="2.94963">
        <ele>1222.569254</ele>
        <time>2021-07-08T08:38:26+0200</time>
      </trkpt>
      <trkpt lat="45.39583" lon="2.94972">
        <ele>1222.76205</ele>
        <time>2021-07-08T08:38:27+0200</time>
      </trkpt>
      <trkpt lat="45.39582" lon="2.9498">
        <ele>1222.687236</ele>
        <time>2021-07-08T08:38:28+0200</time>
      </trkpt>
      <trkpt lat="45.39581" lon="2.94988">
        <ele>1222.541841</ele>
        <time>2021-07-08T08:38:29+0200</time>
      </trkpt>
      <trkpt lat="45.3958" lon="2.94996">
        <ele>1222.622591</ele>
        <time>2021-07-08T08:38:30+0200</time>
      </trkpt>
      <trkpt lat="45.39579" lon="2.95004">
        <ele>1222.761194</ele>
        <time>2021-07-08T08:38:31+0200</time>
      </trkpt>
      <trkpt lat="45.39577" lon="2.95012">
        <ele>1222.697525</ele>
        <time>2021-07-08T08:38:32+0200</time>
      </trkpt>
      <trkpt lat="45.39576" lon="2.95019">
        <ele>1222.885452</ele>
        <time>2021-07-08T08:38:33+0200</time>
      </trkpt>
      <trkpt lat="45.39574" lon="2.95027">
        <ele>1222.765003</ele>
        <time>2021-07-08T08:38:34+0200</time>
      </trkpt>
      <trkpt lat="45.39572" lon="2.95036">
        <ele>1222.77607</ele>
        <time>2021-07-08T08:38:35+0200</time>
      </trkpt>
      <trkpt lat="45.3957" lon="2.95044">
        <ele>1222.582714</ele>
        <time>2021-07-08T08:38:36+0200</time>
      </trkpt>
      <trkpt lat="45.39568" lon="2.95053">
        <ele>1222.651686</ele>
        <time>2021-07-08T08:38:37+0200</time>
      </trkpt>
      <trkpt lat="45.39567" lon="2.95062">
        <ele>1222.748569</ele>
        <time>2021-07-08T08:38:38+0200</time>
      </trkpt>
      <trkpt lat="45.39567" lon="2.9507">
        <ele>1222.748692</ele>
        <time>2021-07-08T08:38:39+0200</time>
      </trkpt>
      <trkpt lat="45.39567" lon="2.95078">
        <ele>1222.785373</ele>
        <time>2021-07-08T08:38:40+0200</time>
      </trkpt>
      <trkpt lat="45.39568" lon="2.95086">
        <ele>1222.732183</ele>
        <time>2021-07-08T08:38:41+0200</time>
      </trkpt>
      <trkpt lat="45.39569" lon="2.95095">
        <ele>1222.69699</ele>
        <time>2021-07-08T08:38:42+0200</time>
      </trkpt>
      <trkpt lat="45.39571" lon="2.95104">
        <ele>1222.618745</ele>
        <time>2021-07-08T08:38:43+0200</time>
      </trkpt>
      <trkpt lat="45.39573" lon="2.95113">
        <ele>1222.477872</ele>
        <time>2021-07-08T08:38:44+0200</time>
      </trkpt>
      <trkpt lat="45.39575" lon="2.95122">
        <ele>1222.342666</ele>
        <time>2021-07-08T08:38:45+0200</time>
      </trkpt>
      <trkpt lat="45.39577" lon="2.95131">
        <ele>1222.267287</ele>
        <time>2021-07-08T08:38:46+0200</time>
      </trkpt>
      <trkpt lat="45.39579" lon="2.95141">
        <ele>1222.087582</ele>
        <time>2021-07-08T08:38:47+0200</time>
      </trkpt>
      <trkpt lat="45.39581" lon="2.95151">
        <ele>1222.040622</ele>
        <time>2021-07-08T08:38:48+0200</time>
      </trkpt>
      <trkpt lat="45.39582" lon="2.9516">
        <ele>1221.947569</ele>
        <time>2021-07-08T08:38:49+0200</time>
      </trkpt>
      <trkpt lat="45.39585" lon="2.9517">
        <ele>1221.695083</ele>
        <time>2021-07-08T08:38:50+0200</time>
      </trkpt>
      <trkpt lat="45.39586" lon="2.9518">
        <ele>1221.491225</ele>
        <time>2021-07-08T08:38:51+0200</time>
      </trkpt>
      <trkpt lat="45.39588" lon="2.9519">
        <ele>1221.546436</ele>
        <time>2021-07-08T08:38:52+0200</time>
      </trkpt>
      <trkpt lat="45.39589" lon="2.952">
        <ele>1221.58345</ele>
        <time>2021-07-08T08:38:53+0200</time>
      </trkpt>
      <trkpt lat="45.39591" lon="2.9521">
        <ele>1221.4007</ele>
        <time>2021-07-08T08:38:54+0200</time>
      </trkpt>
      <trkpt lat="45.39593" lon="2.9522">
        <ele>1221.394875</ele>
        <time>2021-07-08T08:38:55+0200</time>
      </trkpt>
      <trkpt lat="45.39595" lon="2.9523">
        <ele>1221.258456</ele>
        <time>2021-07-08T08:38:56+0200</time>
      </trkpt>
      <trkpt lat="45.39597" lon="2.95241">
        <ele>1221.129345</ele>
        <time>2021-07-08T08:38:57+0200</time>
      </trkpt>
      <trkpt lat="45.39598" lon="2.95251">
        <ele>1220.838894</ele>
        <time>2021-07-08T08:38:58+0200</time>
      </trkpt>
      <trkpt lat="45.396" lon="2.95262">
        <ele>1220.510997</ele>
        <time>2021-07-08T08:38:59+0200</time>
      </trkpt>
      <trkpt lat="45.39601" lon="2.95273">
        <ele>1220.167588</ele>
        <time>2021-07-08T08:39:00+0200</time>
      </trkpt>
      <trkpt lat="45.39603" lon="2.95284">
        <ele>1220.102267</ele>
        <time>2021-07-08T08:39:01+0200</time>
      </trkpt>
      <trkpt lat="45.39605" lon="2.95294">
        <ele>1220.077176</ele>
        <time>2021-07-08T08:39:02+0200</time>
      </trkpt>
      <trkpt lat="45.39608" lon="2.95304">
        <ele>1219.867194</ele>
        <time>2021-07-08T08:39:03+0200</time>
      </trkpt>
      <trkpt lat="45.3961" lon="2.95315">
        <ele>1219.724514</ele>
        <time>2021-07-08T08:39:04+0200</time>
      </trkpt>
      <trkpt lat="45.39613" lon="2.95325">
        <ele>1219.599217</ele>
        <time>2021-07-08T08:39:05+0200</time>
      </trkpt>
      <trkpt lat="45.39615" lon="2.95337">
        <ele>1219.427026</ele>
        <time>2021-07-08T08:39:06+0200</time>
      </trkpt>
      <trkpt lat="45.39618" lon="2.95348">
        <ele>1219.207442</ele>
        <time>2021-07-08T08:39:07+0200</time>
      </trkpt>
      <trkpt lat="45.39621" lon="2.95358">
        <ele>1218.841544</ele>
        <time>2021-07-08T08:39:08+0200</time>
      </trkpt>
      <trkpt lat="45.39624" lon="2.95368">
        <ele>1218.698205</ele>
        <time>2021-07-08T08:39:09+0200</time>
      </trkpt>
      <trkpt lat="45.39627" lon="2.95379">
        <ele>1218.593048</ele>
        <time>2021-07-08T08:39:10+0200</time>
      </trkpt>
      <trkpt lat="45.3963" lon="2.95389">
        <ele>1218.58475</ele>
        <time>2021-07-08T08:39:11+0200</time>
      </trkpt>
      <trkpt lat="45.39633" lon="2.954">
        <ele>1218.388944</ele>
        <time>2021-07-08T08:39:12+0200</time>
      </trkpt>
      <trkpt lat="45.39636" lon="2.95411">
        <ele>1218.293914</ele>
        <time>2021-07-08T08:39:13+0200</time>
      </trkpt>
      <trkpt lat="45.39639" lon="2.95421">
        <ele>1218.254772</ele>
        <time>2021-07-08T08:39:14+0200</time>
      </trkpt>
      <trkpt lat="45.39642" lon="2.95432">
        <ele>1217.854196</ele>
        <time>2021-07-08T08:39:15+0200</time>
      </trkpt>
      <trkpt lat="45.39645" lon="2.95442">
        <ele>1217.756865</ele>
        <time>2021-07-08T08:39:16+0200</time>
      </trkpt>
      <trkpt lat="45.3965" lon="2.95452">
        <ele>1217.611395</ele>
        <time>2021-07-08T08:39:17+0200</time>
      </trkpt>
      <trkpt lat="45.39654" lon="2.95462">
        <ele>1217.407183</ele>
        <time>2021-07-08T08:39:18+0200</time>
      </trkpt>
      <trkpt lat="45.39658" lon="2.95471">
        <ele>1217.277491</ele>
        <time>2021-07-08T08:39:19+0200</time>
      </trkpt>
      <trkpt lat="45.39662" lon="2.9548">
        <ele>1217.066688</ele>
        <time>2021-07-08T08:39:20+0200</time>
      </trkpt>
      <trkpt lat="45.39667" lon="2.95489">
        <ele>1216.664998</ele>
        <time>2021-07-08T08:39:21+0200</time>
      </trkpt>
      <trkpt lat="45.39672" lon="2.95499">
        <ele>1216.527389</ele>
        <time>2021-07-08T08:39:22+0200</time>
      </trkpt>
      <trkpt lat="45.39676" lon="2.9551">
        <ele>1216.338733</ele>
        <time>2021-07-08T08:39:23+0200</time>
      </trkpt>
      <trkpt lat="45.3968" lon="2.95519">
        <ele>1216.13526</ele>
        <time>2021-07-08T08:39:24+0200</time>
      </trkpt>
      <trkpt lat="45.39684" lon="2.9553">
        <ele>1215.901426</ele>
        <time>2021-07-08T08:39:25+0200</time>
      </trkpt>
      <trkpt lat="45.39687" lon="2.95541">
        <ele>1215.907111</ele>
        <time>2021-07-08T08:39:26+0200</time>
      </trkpt>
      <trkpt lat="45.39688" lon="2.95552">
        <ele>1215.790979</ele>
        <time>2021-07-08T08:39:27+0200</time>
      </trkpt>
      <trkpt lat="45.39687" lon="2.95563">
        <ele>1215.586946</ele>
        <time>2021-07-08T08:39:28+0200</time>
      </trkpt>
      <trkpt lat="45.39684" lon="2.95575">
        <ele>1215.232975</ele>
        <time>2021-07-08T08:39:29+0200</time>
      </trkpt>
      <trkpt lat="45.39681" lon="2.95586">
        <ele>1214.914416</ele>
        <time>2021-07-08T08:39:30+0200</time>
      </trkpt>
      <trkpt lat="45.39677" lon="2.95596">
        <ele>1214.375567</ele>
        <time>2021-07-08T08:39:31+0200</time>
      </trkpt>
      <trkpt lat="45.39673" lon="2.95606">
        <ele>1214.537539</ele>
        <time>2021-07-08T08:39:32+0200</time>
      </trkpt>
      <trkpt lat="45.39672" lon="2.95616">
        <ele>1214.41118</ele>
        <time>2021-07-08T08:39:33+0200</time>
      </trkpt>
      <trkpt lat="45.39672" lon="2.95627">
        <ele>1214.453514</ele>
        <time>2021-07-08T08:39:34+0200</time>
      </trkpt>
      <trkpt lat="45.39673" lon="2.95638">
        <ele>1214.885194</ele>
        <time>2021-07-08T08:39:35+0200</time>
      </trkpt>
      <trkpt lat="45.39675" lon="2.95647">
        <ele>1215.347777</ele>
        <time>2021-07-08T08:39:36+0200</time>
      </trkpt>
      <trkpt lat="45.39678" lon="2.95656">
        <ele>1215.591542</ele>
        <time>2021-07-08T08:39:37+0200</time>
      </trkpt>
      <trkpt lat="45.39682" lon="2.95665">
        <ele>1215.878375</ele>
        <time>2021-07-08T08:39:38+0200</time>
      </trkpt>
      <trkpt lat="45.39686" lon="2.95672">
        <ele>1216.230505</ele>
        <time>2021-07-08T08:39:39+0200</time>
      </trkpt>
      <trkpt lat="45.39689" lon="2.9568">
        <ele>1216.4768</ele>
        <time>2021-07-08T08:39:40+0200</time>
      </trkpt>
      <trkpt lat="45.39693" lon="2.95687">
        <ele>1216.828275</ele>
        <time>2021-07-08T08:39:41+0200</time>
      </trkpt>
      <trkpt lat="45.39696" lon="2.95694">
        <ele>1217.064225</ele>
        <time>2021-07-08T08:39:42+0200</time>
      </trkpt>
      <trkpt lat="45.397" lon="2.95701">
        <ele>1217.254112</ele>
        <time>2021-07-08T08:39:43+0200</time>
      </trkpt>
      <trkpt lat="45.39703" lon="2.95708">
        <ele>1217.476755</ele>
        <time>2021-07-08T08:39:44+0200</time>
      </trkpt>
      <trkpt lat="45.39706" lon="2.95715">
        <ele>1217.69305</ele>
        <time>2021-07-08T08:39:45+0200</time>
      </trkpt>
      <trkpt lat="45.39708" lon="2.95722">
        <ele>1217.912085</ele>
        <time>2021-07-08T08:39:46+0200</time>
      </trkpt>
      <trkpt lat="45.39711" lon="2.95729">
        <ele>1218.118233</ele>
        <time>2021-07-08T08:39:47+0200</time>
      </trkpt>
      <trkpt lat="45.39713" lon="2.95735">
        <ele>1218.30122</ele>
        <time>2021-07-08T08:39:48+0200</time>
      </trkpt>
      <trkpt lat="45.39715" lon="2.95742">
        <ele>1218.397566</ele>
        <time>2021-07-08T08:39:49+0200</time>
      </trkpt>
      <trkpt lat="45.39717" lon="2.9575">
        <ele>1218.518874</ele>
        <time>2021-07-08T08:39:50+0200</time>
      </trkpt>
      <trkpt lat="45.39719" lon="2.95757">
        <ele>1218.651399</ele>
        <time>2021-07-08T08:39:51+0200</time>
      </trkpt>
      <trkpt lat="45.39719" lon="2.95764">
        <ele>1218.826361</ele>
        <time>2021-07-08T08:39:52+0200</time>
      </trkpt>
      <trkpt lat="45.3972" lon="2.95772">
        <ele>1218.934075</ele>
        <time>2021-07-08T08:39:53+0200</time>
      </trkpt>
      <trkpt lat="45.3972" lon="2.95779">
        <ele>1219.122079</ele>
        <time>2021-07-08T08:39:54+0200</time>
      </trkpt>
      <trkpt lat="45.3972" lon="2.95786">
        <ele>1219.43344</ele>
        <time>2021-07-08T08:39:55+0200</time>
      </trkpt>
      <trkpt lat="45.3972" lon="2.95793">
        <ele>1219.643304</ele>
        <time>2021-07-08T08:39:56+0200</time>
      </trkpt>
      <trkpt lat="45.3972" lon="2.95799">
        <ele>1219.934899</ele>
        <time>2021-07-08T08:39:57+0200</time>
      </trkpt>
      <trkpt lat="45.39719" lon="2.95807">
        <ele>1220.029943</ele>
        <time>2021-07-08T08:39:58+0200</time>
      </trkpt>
      <trkpt lat="45.39719" lon="2.95814">
        <ele>1220.249484</ele>
        <time>2021-07-08T08:39:59+0200</time>
      </trkpt>
      <trkpt lat="45.39719" lon="2.95821">
        <ele>1220.130701</ele>
        <time>2021-07-08T08:40:00+0200</time>
      </trkpt>
      <trkpt lat="45.39719" lon="2.95828">
        <ele>1220.343518</ele>
        <time>2021-07-08T08:40:01+0200</time>
      </trkpt>
      <trkpt lat="45.39719" lon="2.95836">
        <ele>1220.600657</ele>
        <time>2021-07-08T08:40:02+0200</time>
      </trkpt>
      <trkpt lat="45.39718" lon="2.95843">
        <ele>1220.888478</ele>
        <time>2021-07-08T08:40:03+0200</time>
      </trkpt>
      <trkpt lat="45.39719" lon="2.95851">
        <ele>1221.039726</ele>
        <time>2021-07-08T08:40:04+0200</time>
      </trkpt>
      <trkpt lat="45.39719" lon="2.95858">
        <ele>1221.509616</ele>
        <time>2021-07-08T08:40:05+0200</time>
      </trkpt>
      <trkpt lat="45.39719" lon="2.95865">
        <ele>1221.718047</ele>
        <time>2021-07-08T08:40:06+0200</time>
      </trkpt>
      <trkpt lat="45.39719" lon="2.95871">
        <ele>1221.945743</ele>
        <time>2021-07-08T08:40:07+0200</time>
      </trkpt>
      <trkpt lat="45.39719" lon="2.95879">
        <ele>1222.016332</ele>
        <time>2021-07-08T08:40:08+0200</time>
      </trkpt>
      <trkpt lat="45.39719" lon="2.95886">
        <ele>1222.110439</ele>
        <time>2021-07-08T08:40:09+0200</time>
      </trkpt>
      <trkpt lat="45.39719" lon="2.95893">
        <ele>1222.307473</ele>
        <time>2021-07-08T08:40:10+0200</time>
      </trkpt>
      <trkpt lat="45.39719" lon="2.959">
        <ele>1222.353216</ele>
        <time>2021-07-08T08:40:11+0200</time>
      </trkpt>
      <trkpt lat="45.39719" lon="2.95907">
        <ele>1222.624645</ele>
        <time>2021-07-08T08:40:12+0200</time>
      </trkpt>
      <trkpt lat="45.39719" lon="2.95914">
        <ele>1222.810613</ele>
        <time>2021-07-08T08:40:13+0200</time>
      </trkpt>
      <trkpt lat="45.3972" lon="2.95921">
        <ele>1223.001932</ele>
        <time>2021-07-08T08:40:14+0200</time>
      </trkpt>
      <trkpt lat="45.39721" lon="2.95928">
        <ele>1223.110751</ele>
        <time>2021-07-08T08:40:15+0200</time>
      </trkpt>
      <trkpt lat="45.39722" lon="2.95935">
        <ele>1223.308483</ele>
        <time>2021-07-08T08:40:16+0200</time>
      </trkpt>
      <trkpt lat="45.39725" lon="2.95941">
        <ele>1223.619719</ele>
        <time>2021-07-08T08:40:17+0200</time>
      </trkpt>
      <trkpt lat="45.39727" lon="2.95947">
        <ele>1223.623479</ele>
        <time>2021-07-08T08:40:18+0200</time>
      </trkpt>
      <trkpt lat="45.3973" lon="2.95953">
        <ele>1223.63947</ele>
        <time>2021-07-08T08:40:19+0200</time>
      </trkpt>
      <trkpt lat="45.39733" lon="2.95959">
        <ele>1223.944765</ele>
        <time>2021-07-08T08:40:20+0200</time>
      </trkpt>
      <trkpt lat="45.39737" lon="2.95964">
        <ele>1224.022066</ele>
        <time>2021-07-08T08:40:21+0200</time>
      </trkpt>
      <trkpt lat="45.3974" lon="2.9597">
        <ele>1224.03793</ele>
        <time>2021-07-08T08:40:22+0200</time>
      </trkpt>
      <trkpt lat="45.39744" lon="2.95975">
        <ele>1223.810818</ele>
        <time>2021-07-08T08:40:23+0200</time>
      </trkpt>
      <trkpt lat="45.39748" lon="2.95981">
        <ele>1223.468797</ele>
        <time>2021-07-08T08:40:24+0200</time>
      </trkpt>
      <trkpt lat="45.39752" lon="2.95988">
        <ele>1223.225091</ele>
        <time>2021-07-08T08:40:25+0200</time>
      </trkpt>
      <trkpt lat="45.39756" lon="2.95994">
        <ele>1223.001244</ele>
        <time>2021-07-08T08:40:26+0200</time>
      </trkpt>
      <trkpt lat="45.3976" lon="2.96">
        <ele>1222.873206</ele>
        <time>2021-07-08T08:40:27+0200</time>
      </trkpt>
      <trkpt lat="45.39764" lon="2.96006">
        <ele>1222.900285</ele>
        <time>2021-07-08T08:40:28+0200</time>
      </trkpt>
      <trkpt lat="45.39768" lon="2.96012">
        <ele>1223.013407</ele>
        <time>2021-07-08T08:40:29+0200</time>
      </trkpt>
      <trkpt lat="45.39773" lon="2.96019">
        <ele>1222.95817</ele>
        <time>2021-07-08T08:40:30+0200</time>
      </trkpt>
      <trkpt lat="45.39777" lon="2.96025">
        <ele>1222.771049</ele>
        <time>2021-07-08T08:40:31+0200</time>
      </trkpt>
      <trkpt lat="45.39782" lon="2.96032">
        <ele>1222.586191</ele>
        <time>2021-07-08T08:40:32+0200</time>
      </trkpt>
      <trkpt lat="45.39787" lon="2.96039">
        <ele>1222.413742</ele>
        <time>2021-07-08T08:40:33+0200</time>
      </trkpt>
      <trkpt lat="45.39791" lon="2.96046">
        <ele>1222.156332</ele>
        <time>2021-07-08T08:40:34+0200</time>
      </trkpt>
      <trkpt lat="45.39796" lon="2.96053">
        <ele>1222.092829</ele>
        <time>2021-07-08T08:40:35+0200</time>
      </trkpt>
      <trkpt lat="45.39801" lon="2.9606">
        <ele>1222.127057</ele>
        <time>2021-07-08T08:40:36+0200</time>
      </trkpt>
      <trkpt lat="45.39806" lon="2.96067">
        <ele>1222.126257</ele>
        <time>2021-07-08T08:40:37+0200</time>
      </trkpt>
      <trkpt lat="45.3981" lon="2.96074">
        <ele>1222.110162</ele>
        <time>2021-07-08T08:40:38+0200</time>
      </trkpt>
      <trkpt lat="45.39815" lon="2.96081">
        <ele>1222.06594</ele>
        <time>2021-07-08T08:40:39+0200</time>
      </trkpt>
      <trkpt lat="45.3982" lon="2.96088">
        <ele>1222.095206</ele>
        <time>2021-07-08T08:40:40+0200</time>
      </trkpt>
      <trkpt lat="45.39824" lon="2.96095">
        <ele>1222.065899</ele>
        <time>2021-07-08T08:40:41+0200</time>
      </trkpt>
      <trkpt lat="45.39828" lon="2.96102">
        <ele>1221.974049</ele>
        <time>2021-07-08T08:40:42+0200</time>
      </trkpt>
      <trkpt lat="45.39829" lon="2.96109">
        <ele>1221.71473</ele>
        <time>2021-07-08T08:40:45+0200</time>
      </trkpt>
      <trkpt lat="45.39825" lon="2.96113">
        <ele>1221.471396</ele>
        <time>2021-07-08T08:40:48+0200</time>
      </trkpt>
      <trkpt lat="45.39825" lon="2.96106">
        <ele>1221.447949</ele>
        <time>2021-07-08T08:41:45+0200</time>
      </trkpt>
      <trkpt lat="45.39819" lon="2.96104">
        <ele>1222.849401</ele>
        <time>2021-07-08T08:42:25+0200</time>
      </trkpt>
      <trkpt lat="45.39814" lon="2.96107">
        <ele>1222.363344</ele>
        <time>2021-07-08T08:42:27+0200</time>
      </trkpt>
      <trkpt lat="45.39808" lon="2.96108">
        <ele>1222.438543</ele>
        <time>2021-07-08T08:42:30+0200</time>
      </trkpt>
      <trkpt lat="45.39801" lon="2.96108">
        <ele>1222.952421</ele>
        <time>2021-07-08T08:42:33+0200</time>
      </trkpt>
      <trkpt lat="45.39797" lon="2.96112">
        <ele>1223.085075</ele>
        <time>2021-07-08T08:42:37+0200</time>
      </trkpt>
      <trkpt lat="45.39793" lon="2.96118">
        <ele>1223.318838</ele>
        <time>2021-07-08T08:42:40+0200</time>
      </trkpt>
      <trkpt lat="45.39789" lon="2.96124">
        <ele>1224.089384</ele>
        <time>2021-07-08T08:42:43+0200</time>
      </trkpt>
      <trkpt lat="45.39785" lon="2.96129">
        <ele>1224.421979</ele>
        <time>2021-07-08T08:42:47+0200</time>
      </trkpt>
      <trkpt lat="45.39781" lon="2.96135">
        <ele>1224.905616</ele>
        <time>2021-07-08T08:42:50+0200</time>
      </trkpt>
      <trkpt lat="45.39778" lon="2.9614">
        <ele>1225.459723</ele>
        <time>2021-07-08T08:42:53+0200</time>
      </trkpt>
      <trkpt lat="45.39775" lon="2.96146">
        <ele>1225.889512</ele>
        <time>2021-07-08T08:42:56+0200</time>
      </trkpt>
      <trkpt lat="45.39773" lon="2.96153">
        <ele>1226.156684</ele>
        <time>2021-07-08T08:42:59+0200</time>
      </trkpt>
      <trkpt lat="45.39771" lon="2.96159">
        <ele>1226.743964</ele>
        <time>2021-07-08T08:43:02+0200</time>
      </trkpt>
      <trkpt lat="45.39768" lon="2.96167">
        <ele>1227.09178</ele>
        <time>2021-07-08T08:43:05+0200</time>
      </trkpt>
      <trkpt lat="45.39767" lon="2.96175">
        <ele>1227.60446</ele>
        <time>2021-07-08T08:43:08+0200</time>
      </trkpt>
      <trkpt lat="45.39766" lon="2.96183">
        <ele>1228.230664</ele>
        <time>2021-07-08T08:43:11+0200</time>
      </trkpt>
      <trkpt lat="45.39764" lon="2.96191">
        <ele>1228.284248</ele>
        <time>2021-07-08T08:43:14+0200</time>
      </trkpt>
      <trkpt lat="45.39762" lon="2.96199">
        <ele>1228.626705</ele>
        <time>2021-07-08T08:43:17+0200</time>
      </trkpt>
      <trkpt lat="45.39759" lon="2.96207">
        <ele>1228.8967</ele>
        <time>2021-07-08T08:43:20+0200</time>
      </trkpt>
      <trkpt lat="45.39756" lon="2.96212">
        <ele>1228.965545</ele>
        <time>2021-07-08T08:43:22+0200</time>
      </trkpt>
      <trkpt lat="45.39754" lon="2.96218">
        <ele>1228.89386</ele>
        <time>2021-07-08T08:43:24+0200</time>
      </trkpt>
      <trkpt lat="45.3975" lon="2.96223">
        <ele>1229.287531</ele>
        <time>2021-07-08T08:43:26+0200</time>
      </trkpt>
      <trkpt lat="45.39746" lon="2.96227">
        <ele>1229.528083</ele>
        <time>2021-07-08T08:43:28+0200</time>
      </trkpt>
      <trkpt lat="45.39743" lon="2.96232">
        <ele>1229.64425</ele>
        <time>2021-07-08T08:43:30+0200</time>
      </trkpt>
      <trkpt lat="45.39739" lon="2.96237">
        <ele>1229.887392</ele>
        <time>2021-07-08T08:43:32+0200</time>
      </trkpt>
      <trkpt lat="45.39736" lon="2.96241">
        <ele>1230.293181</ele>
        <time>2021-07-08T08:43:34+0200</time>
      </trkpt>
      <trkpt lat="45.3973" lon="2.96248">
        <ele>1231.077147</ele>
        <time>2021-07-08T08:43:37+0200</time>
      </trkpt>
      <trkpt lat="45.39726" lon="2.96251">
        <ele>1231.584545</ele>
        <time>2021-07-08T08:43:39+0200</time>
      </trkpt>
      <trkpt lat="45.39723" lon="2.96255">
        <ele>1231.785702</ele>
        <time>2021-07-08T08:43:41+0200</time>
      </trkpt>
      <trkpt lat="45.39719" lon="2.9626">
        <ele>1232.353668</ele>
        <time>2021-07-08T08:43:43+0200</time>
      </trkpt>
      <trkpt lat="45.39716" lon="2.96264">
        <ele>1232.760334</ele>
        <time>2021-07-08T08:43:45+0200</time>
      </trkpt>
      <trkpt lat="45.3971" lon="2.96268">
        <ele>1233.506763</ele>
        <time>2021-07-08T08:43:48+0200</time>
      </trkpt>
      <trkpt lat="45.39705" lon="2.9627">
        <ele>1233.92706</ele>
        <time>2021-07-08T08:43:50+0200</time>
      </trkpt>
      <trkpt lat="45.397" lon="2.9627">
        <ele>1234.171243</ele>
        <time>2021-07-08T08:43:52+0200</time>
      </trkpt>
      <trkpt lat="45.39694" lon="2.96269">
        <ele>1234.335335</ele>
        <time>2021-07-08T08:43:55+0200</time>
      </trkpt>
      <trkpt lat="45.39689" lon="2.96267">
        <ele>1233.910728</ele>
        <time>2021-07-08T08:43:57+0200</time>
      </trkpt>
      <trkpt lat="45.39682" lon="2.96265">
        <ele>1233.770934</ele>
        <time>2021-07-08T08:43:59+0200</time>
      </trkpt>
      <trkpt lat="45.39676" lon="2.96263">
        <ele>1233.64721</ele>
        <time>2021-07-08T08:44:01+0200</time>
      </trkpt>
      <trkpt lat="45.3967" lon="2.9626">
        <ele>1233.353966</ele>
        <time>2021-07-08T08:44:03+0200</time>
      </trkpt>
      <trkpt lat="45.39664" lon="2.96255">
        <ele>1233.240453</ele>
        <time>2021-07-08T08:44:05+0200</time>
      </trkpt>
      <trkpt lat="45.39658" lon="2.96252">
        <ele>1233.490935</ele>
        <time>2021-07-08T08:44:07+0200</time>
      </trkpt>
      <trkpt lat="45.39651" lon="2.9625">
        <ele>1233.693786</ele>
        <time>2021-07-08T08:44:09+0200</time>
      </trkpt>
      <trkpt lat="45.39645" lon="2.96247">
        <ele>1233.601311</ele>
        <time>2021-07-08T08:44:11+0200</time>
      </trkpt>
      <trkpt lat="45.39638" lon="2.96245">
        <ele>1233.836002</ele>
        <time>2021-07-08T08:44:13+0200</time>
      </trkpt>
      <trkpt lat="45.39632" lon="2.96243">
        <ele>1234.220946</ele>
        <time>2021-07-08T08:44:15+0200</time>
      </trkpt>
      <trkpt lat="45.39626" lon="2.96241">
        <ele>1234.132099</ele>
        <time>2021-07-08T08:44:17+0200</time>
      </trkpt>
      <trkpt lat="45.39619" lon="2.96239">
        <ele>1234.248098</ele>
        <time>2021-07-08T08:44:19+0200</time>
      </trkpt>
      <trkpt lat="45.39613" lon="2.96233">
        <ele>1234.231645</ele>
        <time>2021-07-08T08:44:21+0200</time>
      </trkpt>
      <trkpt lat="45.39609" lon="2.96228">
        <ele>1234.375969</ele>
        <time>2021-07-08T08:44:23+0200</time>
      </trkpt>
      <trkpt lat="45.39604" lon="2.96222">
        <ele>1234.455445</ele>
        <time>2021-07-08T08:44:25+0200</time>
      </trkpt>
      <trkpt lat="45.396" lon="2.96217">
        <ele>1234.663676</ele>
        <time>2021-07-08T08:44:27+0200</time>
      </trkpt>
      <trkpt lat="45.39597" lon="2.96211">
        <ele>1234.702051</ele>
        <time>2021-07-08T08:44:29+0200</time>
      </trkpt>
      <trkpt lat="45.39593" lon="2.96203">
        <ele>1235.554497</ele>
        <time>2021-07-08T08:44:32+0200</time>
      </trkpt>
      <trkpt lat="45.39592" lon="2.96196">
        <ele>1235.955039</ele>
        <time>2021-07-08T08:44:34+0200</time>
      </trkpt>
      <trkpt lat="45.3959" lon="2.96188">
        <ele>1236.965509</ele>
        <time>2021-07-08T08:44:37+0200</time>
      </trkpt>
      <trkpt lat="45.39587" lon="2.9618">
        <ele>1237.919041</ele>
        <time>2021-07-08T08:44:39+0200</time>
      </trkpt>
      <trkpt lat="45.39585" lon="2.96172">
        <ele>1238.278957</ele>
        <time>2021-07-08T08:44:42+0200</time>
      </trkpt>
      <trkpt lat="45.3958" lon="2.96166">
        <ele>1238.786745</ele>
        <time>2021-07-08T08:44:45+0200</time>
      </trkpt>
      <trkpt lat="45.39575" lon="2.96164">
        <ele>1239.486817</ele>
        <time>2021-07-08T08:44:48+0200</time>
      </trkpt>
      <trkpt lat="45.39569" lon="2.96166">
        <ele>1239.057233</ele>
        <time>2021-07-08T08:44:53+0200</time>
      </trkpt>
      <trkpt lat="45.39563" lon="2.96165">
        <ele>1239.86508</ele>
        <time>2021-07-08T08:44:56+0200</time>
      </trkpt>
      <trkpt lat="45.39558" lon="2.96167">
        <ele>1239.663737</ele>
        <time>2021-07-08T08:44:58+0200</time>
      </trkpt>
      <trkpt lat="45.39553" lon="2.96168">
        <ele>1240.005085</ele>
        <time>2021-07-08T08:45:00+0200</time>
      </trkpt>
      <trkpt lat="45.39548" lon="2.9617">
        <ele>1240.31337</ele>
        <time>2021-07-08T08:45:02+0200</time>
      </trkpt>
      <trkpt lat="45.39542" lon="2.9617">
        <ele>1240.015951</ele>
        <time>2021-07-08T08:45:04+0200</time>
      </trkpt>
      <trkpt lat="45.39535" lon="2.9617">
        <ele>1239.648398</ele>
        <time>2021-07-08T08:45:06+0200</time>
      </trkpt>
      <trkpt lat="45.39528" lon="2.96171">
        <ele>1239.302199</ele>
        <time>2021-07-08T08:45:08+0200</time>
      </trkpt>
      <trkpt lat="45.3952" lon="2.96173">
        <ele>1238.673348</ele>
        <time>2021-07-08T08:45:10+0200</time>
      </trkpt>
      <trkpt lat="45.39515" lon="2.96174">
        <ele>1238.438901</ele>
        <time>2021-07-08T08:45:11+0200</time>
      </trkpt>
      <trkpt lat="45.39506" lon="2.96175">
        <ele>1238.21003</ele>
        <time>2021-07-08T08:45:13+0200</time>
      </trkpt>
      <trkpt lat="45.39501" lon="2.96175">
        <ele>1238.239217</ele>
        <time>2021-07-08T08:45:14+0200</time>
      </trkpt>
      <trkpt lat="45.39496" lon="2.96176">
        <ele>1238.163418</ele>
        <time>2021-07-08T08:45:15+0200</time>
      </trkpt>
      <trkpt lat="45.39491" lon="2.96177">
        <ele>1237.700819</ele>
        <time>2021-07-08T08:45:16+0200</time>
      </trkpt>
      <trkpt lat="45.39485" lon="2.96177">
        <ele>1237.363989</ele>
        <time>2021-07-08T08:45:17+0200</time>
      </trkpt>
      <trkpt lat="45.39478" lon="2.96178">
        <ele>1236.857144</ele>
        <time>2021-07-08T08:45:18+0200</time>
      </trkpt>
      <trkpt lat="45.39471" lon="2.96179">
        <ele>1236.356824</ele>
        <time>2021-07-08T08:45:19+0200</time>
      </trkpt>
      <trkpt lat="45.39464" lon="2.96181">
        <ele>1235.781711</ele>
        <time>2021-07-08T08:45:20+0200</time>
      </trkpt>
      <trkpt lat="45.39456" lon="2.96182">
        <ele>1235.219202</ele>
        <time>2021-07-08T08:45:21+0200</time>
      </trkpt>
      <trkpt lat="45.39449" lon="2.96183">
        <ele>1234.825052</ele>
        <time>2021-07-08T08:45:22+0200</time>
      </trkpt>
      <trkpt lat="45.39442" lon="2.96184">
        <ele>1234.403856</ele>
        <time>2021-07-08T08:45:23+0200</time>
      </trkpt>
      <trkpt lat="45.39434" lon="2.96185">
        <ele>1234.492683</ele>
        <time>2021-07-08T08:45:24+0200</time>
      </trkpt>
      <trkpt lat="45.39427" lon="2.96185">
        <ele>1234.40542</ele>
        <time>2021-07-08T08:45:25+0200</time>
      </trkpt>
      <trkpt lat="45.3942" lon="2.96187">
        <ele>1234.324792</ele>
        <time>2021-07-08T08:45:26+0200</time>
      </trkpt>
      <trkpt lat="45.39413" lon="2.96187">
        <ele>1234.472058</ele>
        <time>2021-07-08T08:45:26+0200</time>
      </trkpt>
      <trkpt lat="45.39406" lon="2.96189">
        <ele>1234.576997</ele>
        <time>2021-07-08T08:45:27+0200</time>
      </trkpt>
      <trkpt lat="45.394" lon="2.96189">
        <ele>1234.623268</ele>
        <time>2021-07-08T08:45:28+0200</time>
      </trkpt>
      <trkpt lat="45.39393" lon="2.9619">
        <ele>1234.799372</ele>
        <time>2021-07-08T08:45:29+0200</time>
      </trkpt>
      <trkpt lat="45.39387" lon="2.96191">
        <ele>1234.883069</ele>
        <time>2021-07-08T08:45:30+0200</time>
      </trkpt>
      <trkpt lat="45.39381" lon="2.96192">
        <ele>1235.179294</ele>
        <time>2021-07-08T08:45:31+0200</time>
      </trkpt>
      <trkpt lat="45.39376" lon="2.96192">
        <ele>1235.461839</ele>
        <time>2021-07-08T08:45:32+0200</time>
      </trkpt>
      <trkpt lat="45.39371" lon="2.96193">
        <ele>1235.711419</ele>
        <time>2021-07-08T08:45:33+0200</time>
      </trkpt>
      <trkpt lat="45.39364" lon="2.96193">
        <ele>1236.410321</ele>
        <time>2021-07-08T08:45:35+0200</time>
      </trkpt>
      <trkpt lat="45.39358" lon="2.96195">
        <ele>1236.969978</ele>
        <time>2021-07-08T08:45:37+0200</time>
      </trkpt>
      <trkpt lat="45.3935" lon="2.96196">
        <ele>1237.366601</ele>
        <time>2021-07-08T08:45:39+0200</time>
      </trkpt>
      <trkpt lat="45.39343" lon="2.96196">
        <ele>1237.44007</ele>
        <time>2021-07-08T08:45:41+0200</time>
      </trkpt>
      <trkpt lat="45.39336" lon="2.96198">
        <ele>1237.363171</ele>
        <time>2021-07-08T08:45:43+0200</time>
      </trkpt>
      <trkpt lat="45.39329" lon="2.96199">
        <ele>1237.243806</ele>
        <time>2021-07-08T08:45:45+0200</time>
      </trkpt>
      <trkpt lat="45.39323" lon="2.96199">
        <ele>1237.321265</ele>
        <time>2021-07-08T08:45:47+0200</time>
      </trkpt>
      <trkpt lat="45.39315" lon="2.96201">
        <ele>1236.862492</ele>
        <time>2021-07-08T08:45:49+0200</time>
      </trkpt>
      <trkpt lat="45.39306" lon="2.96204">
        <ele>1236.597802</ele>
        <time>2021-07-08T08:45:51+0200</time>
      </trkpt>
      <trkpt lat="45.39301" lon="2.96206">
        <ele>1236.485882</ele>
        <time>2021-07-08T08:45:52+0200</time>
      </trkpt>
      <trkpt lat="45.39296" lon="2.96206">
        <ele>1236.257486</ele>
        <time>2021-07-08T08:45:53+0200</time>
      </trkpt>
      <trkpt lat="45.39291" lon="2.96208">
        <ele>1235.997202</ele>
        <time>2021-07-08T08:45:54+0200</time>
      </trkpt>
      <trkpt lat="45.39285" lon="2.96211">
        <ele>1235.489516</ele>
        <time>2021-07-08T08:45:55+0200</time>
      </trkpt>
      <trkpt lat="45.39279" lon="2.96213">
        <ele>1234.96366</ele>
        <time>2021-07-08T08:45:56+0200</time>
      </trkpt>
      <trkpt lat="45.39272" lon="2.96215">
        <ele>1234.474816</ele>
        <time>2021-07-08T08:45:57+0200</time>
      </trkpt>
      <trkpt lat="45.39266" lon="2.96217">
        <ele>1233.969292</ele>
        <time>2021-07-08T08:45:58+0200</time>
      </trkpt>
      <trkpt lat="45.39258" lon="2.96219">
        <ele>1232.983163</ele>
        <time>2021-07-08T08:45:59+0200</time>
      </trkpt>
      <trkpt lat="45.3925" lon="2.96221">
        <ele>1231.866186</ele>
        <time>2021-07-08T08:46:00+0200</time>
      </trkpt>
      <trkpt lat="45.39241" lon="2.96225">
        <ele>1230.56956</ele>
        <time>2021-07-08T08:46:01+0200</time>
      </trkpt>
      <trkpt lat="45.39232" lon="2.96228">
        <ele>1229.139903</ele>
        <time>2021-07-08T08:46:02+0200</time>
      </trkpt>
      <trkpt lat="45.39222" lon="2.96232">
        <ele>1227.38058</ele>
        <time>2021-07-08T08:46:03+0200</time>
      </trkpt>
      <trkpt lat="45.39211" lon="2.96235">
        <ele>1226.046262</ele>
        <time>2021-07-08T08:46:04+0200</time>
      </trkpt>
      <trkpt lat="45.39201" lon="2.96239">
        <ele>1225.150218</ele>
        <time>2021-07-08T08:46:05+0200</time>
      </trkpt>
      <trkpt lat="45.3919" lon="2.96241">
        <ele>1224.760517</ele>
        <time>2021-07-08T08:46:06+0200</time>
      </trkpt>
      <trkpt lat="45.3918" lon="2.96243">
        <ele>1224.346265</ele>
        <time>2021-07-08T08:46:07+0200</time>
      </trkpt>
      <trkpt lat="45.3917" lon="2.96244">
        <ele>1224.307308</ele>
        <time>2021-07-08T08:46:08+0200</time>
      </trkpt>
      <trkpt lat="45.39161" lon="2.96244">
        <ele>1224.21208</ele>
        <time>2021-07-08T08:46:09+0200</time>
      </trkpt>
      <trkpt lat="45.39152" lon="2.96243">
        <ele>1224.24311</ele>
        <time>2021-07-08T08:46:10+0200</time>
      </trkpt>
      <trkpt lat="45.39143" lon="2.96241">
        <ele>1224.238882</ele>
        <time>2021-07-08T08:46:11+0200</time>
      </trkpt>
      <trkpt lat="45.39134" lon="2.96239">
        <ele>1224.421484</ele>
        <time>2021-07-08T08:46:12+0200</time>
      </trkpt>
      <trkpt lat="45.39126" lon="2.96236">
        <ele>1224.34614</ele>
        <time>2021-07-08T08:46:13+0200</time>
      </trkpt>
      <trkpt lat="45.39118" lon="2.96233">
        <ele>1224.342771</ele>
        <time>2021-07-08T08:46:14+0200</time>
      </trkpt>
      <trkpt lat="45.39111" lon="2.9623">
        <ele>1224.321965</ele>
        <time>2021-07-08T08:46:15+0200</time>
      </trkpt>
      <trkpt lat="45.39103" lon="2.96226">
        <ele>1224.007692</ele>
        <time>2021-07-08T08:46:16+0200</time>
      </trkpt>
      <trkpt lat="45.39096" lon="2.96222">
        <ele>1223.898305</ele>
        <time>2021-07-08T08:46:17+0200</time>
      </trkpt>
      <trkpt lat="45.39089" lon="2.96217">
        <ele>1223.844325</ele>
        <time>2021-07-08T08:46:18+0200</time>
      </trkpt>
      <trkpt lat="45.39081" lon="2.96212">
        <ele>1223.693359</ele>
        <time>2021-07-08T08:46:19+0200</time>
      </trkpt>
      <trkpt lat="45.39074" lon="2.96208">
        <ele>1223.644825</ele>
        <time>2021-07-08T08:46:20+0200</time>
      </trkpt>
      <trkpt lat="45.39067" lon="2.96204">
        <ele>1223.560532</ele>
        <time>2021-07-08T08:46:21+0200</time>
      </trkpt>
      <trkpt lat="45.3906" lon="2.96201">
        <ele>1223.672842</ele>
        <time>2021-07-08T08:46:22+0200</time>
      </trkpt>
      <trkpt lat="45.39054" lon="2.96197">
        <ele>1224.226153</ele>
        <time>2021-07-08T08:46:23+0200</time>
      </trkpt>
      <trkpt lat="45.39047" lon="2.96195">
        <ele>1224.122948</ele>
        <time>2021-07-08T08:46:24+0200</time>
      </trkpt>
      <trkpt lat="45.3904" lon="2.96192">
        <ele>1224.521457</ele>
        <time>2021-07-08T08:46:25+0200</time>
      </trkpt>
      <trkpt lat="45.39033" lon="2.9619">
        <ele>1224.385856</ele>
        <time>2021-07-08T08:46:26+0200</time>
      </trkpt>
      <trkpt lat="45.39026" lon="2.96188">
        <ele>1224.095566</ele>
        <time>2021-07-08T08:46:27+0200</time>
      </trkpt>
      <trkpt lat="45.3902" lon="2.96187">
        <ele>1223.878739</ele>
        <time>2021-07-08T08:46:28+0200</time>
      </trkpt>
      <trkpt lat="45.39013" lon="2.96186">
        <ele>1223.585613</ele>
        <time>2021-07-08T08:46:29+0200</time>
      </trkpt>
      <trkpt lat="45.39006" lon="2.96185">
        <ele>1223.292441</ele>
        <time>2021-07-08T08:46:30+0200</time>
      </trkpt>
      <trkpt lat="45.38999" lon="2.96184">
        <ele>1222.685747</ele>
        <time>2021-07-08T08:46:31+0200</time>
      </trkpt>
      <trkpt lat="45.38992" lon="2.96181">
        <ele>1222.147528</ele>
        <time>2021-07-08T08:46:32+0200</time>
      </trkpt>
      <trkpt lat="45.38985" lon="2.96179">
        <ele>1221.438445</ele>
        <time>2021-07-08T08:46:33+0200</time>
      </trkpt>
      <trkpt lat="45.38977" lon="2.96176">
        <ele>1220.776445</ele>
        <time>2021-07-08T08:46:34+0200</time>
      </trkpt>
      <trkpt lat="45.38969" lon="2.96173">
        <ele>1220.136052</ele>
        <time>2021-07-08T08:46:35+0200</time>
      </trkpt>
      <trkpt lat="45.38962" lon="2.96169">
        <ele>1219.526642</ele>
        <time>2021-07-08T08:46:36+0200</time>
      </trkpt>
      <trkpt lat="45.38954" lon="2.96166">
        <ele>1218.891585</ele>
        <time>2021-07-08T08:46:37+0200</time>
      </trkpt>
      <trkpt lat="45.38946" lon="2.96162">
        <ele>1218.084701</ele>
        <time>2021-07-08T08:46:38+0200</time>
      </trkpt>
      <trkpt lat="45.38937" lon="2.96159">
        <ele>1217.283779</ele>
        <time>2021-07-08T08:46:39+0200</time>
      </trkpt>
      <trkpt lat="45.38928" lon="2.96155">
        <ele>1216.437154</ele>
        <time>2021-07-08T08:46:40+0200</time>
      </trkpt>
      <trkpt lat="45.38919" lon="2.96152">
        <ele>1215.502866</ele>
        <time>2021-07-08T08:46:41+0200</time>
      </trkpt>
      <trkpt lat="45.3891" lon="2.96149">
        <ele>1214.5423</ele>
        <time>2021-07-08T08:46:42+0200</time>
      </trkpt>
      <trkpt lat="45.389" lon="2.96145">
        <ele>1213.625258</ele>
        <time>2021-07-08T08:46:43+0200</time>
      </trkpt>
      <trkpt lat="45.3889" lon="2.96141">
        <ele>1212.714612</ele>
        <time>2021-07-08T08:46:44+0200</time>
      </trkpt>
      <trkpt lat="45.3888" lon="2.96139">
        <ele>1211.814066</ele>
        <time>2021-07-08T08:46:45+0200</time>
      </trkpt>
      <trkpt lat="45.38869" lon="2.96138">
        <ele>1210.685999</ele>
        <time>2021-07-08T08:46:46+0200</time>
      </trkpt>
      <trkpt lat="45.38858" lon="2.96138">
        <ele>1209.326502</ele>
        <time>2021-07-08T08:46:47+0200</time>
      </trkpt>
      <trkpt lat="45.38847" lon="2.9614">
        <ele>1207.837445</ele>
        <time>2021-07-08T08:46:48+0200</time>
      </trkpt>
      <trkpt lat="45.38835" lon="2.96143">
        <ele>1206.191174</ele>
        <time>2021-07-08T08:46:49+0200</time>
      </trkpt>
      <trkpt lat="45.38823" lon="2.96145">
        <ele>1204.810154</ele>
        <time>2021-07-08T08:46:50+0200</time>
      </trkpt>
      <trkpt lat="45.38811" lon="2.96147">
        <ele>1203.449189</ele>
        <time>2021-07-08T08:46:51+0200</time>
      </trkpt>
      <trkpt lat="45.38799" lon="2.9615">
        <ele>1202.306237</ele>
        <time>2021-07-08T08:46:52+0200</time>
      </trkpt>
      <trkpt lat="45.38787" lon="2.96152">
        <ele>1201.086104</ele>
        <time>2021-07-08T08:46:53+0200</time>
      </trkpt>
      <trkpt lat="45.38777" lon="2.96155">
        <ele>1199.592359</ele>
        <time>2021-07-08T08:46:54+0200</time>
      </trkpt>
      <trkpt lat="45.38767" lon="2.96161">
        <ele>1198.424294</ele>
        <time>2021-07-08T08:46:55+0200</time>
      </trkpt>
      <trkpt lat="45.38759" lon="2.96167">
        <ele>1197.147188</ele>
        <time>2021-07-08T08:46:57+0200</time>
      </trkpt>
      <trkpt lat="45.38753" lon="2.96171">
        <ele>1196.387566</ele>
        <time>2021-07-08T08:46:58+0200</time>
      </trkpt>
      <trkpt lat="45.38746" lon="2.96178">
        <ele>1195.725732</ele>
        <time>2021-07-08T08:47:00+0200</time>
      </trkpt>
      <trkpt lat="45.38744" lon="2.96185">
        <ele>1195.357438</ele>
        <time>2021-07-08T08:47:01+0200</time>
      </trkpt>
      <trkpt lat="45.38741" lon="2.96193">
        <ele>1194.966604</ele>
        <time>2021-07-08T08:47:02+0200</time>
      </trkpt>
      <trkpt lat="45.38739" lon="2.96201">
        <ele>1194.211834</ele>
        <time>2021-07-08T08:47:02+0200</time>
      </trkpt>
      <trkpt lat="45.38738" lon="2.96208">
        <ele>1193.687222</ele>
        <time>2021-07-08T08:47:03+0200</time>
      </trkpt>
      <trkpt lat="45.3874" lon="2.96216">
        <ele>1193.142294</ele>
        <time>2021-07-08T08:47:05+0200</time>
      </trkpt>
      <trkpt lat="45.38742" lon="2.96223">
        <ele>1192.895631</ele>
        <time>2021-07-08T08:47:07+0200</time>
      </trkpt>
      <trkpt lat="45.38744" lon="2.96232">
        <ele>1193.229956</ele>
        <time>2021-07-08T08:47:11+0200</time>
      </trkpt>
      <trkpt lat="45.38744" lon="2.96238">
        <ele>1193.564341</ele>
        <time>2021-07-08T08:47:13+0200</time>
      </trkpt>
      <trkpt lat="45.38746" lon="2.96247">
        <ele>1193.706938</ele>
        <time>2021-07-08T08:47:15+0200</time>
      </trkpt>
      <trkpt lat="45.38747" lon="2.96258">
        <ele>1193.184111</ele>
        <time>2021-07-08T08:47:17+0200</time>
      </trkpt>
      <trkpt lat="45.38748" lon="2.96271">
        <ele>1192.56059</ele>
        <time>2021-07-08T08:47:19+0200</time>
      </trkpt>
      <trkpt lat="45.38747" lon="2.96279">
        <ele>1192.049544</ele>
        <time>2021-07-08T08:47:20+0200</time>
      </trkpt>
      <trkpt lat="45.38746" lon="2.96288">
        <ele>1191.347404</ele>
        <time>2021-07-08T08:47:21+0200</time>
      </trkpt>
      <trkpt lat="45.38745" lon="2.96298">
        <ele>1190.455284</ele>
        <time>2021-07-08T08:47:22+0200</time>
      </trkpt>
      <trkpt lat="45.38744" lon="2.96309">
        <ele>1189.206739</ele>
        <time>2021-07-08T08:47:23+0200</time>
      </trkpt>
      <trkpt lat="45.38741" lon="2.96322">
        <ele>1187.735562</ele>
        <time>2021-07-08T08:47:24+0200</time>
      </trkpt>
      <trkpt lat="45.38739" lon="2.96335">
        <ele>1186.691776</ele>
        <time>2021-07-08T08:47:25+0200</time>
      </trkpt>
      <trkpt lat="45.38737" lon="2.96349">
        <ele>1186.219139</ele>
        <time>2021-07-08T08:47:26+0200</time>
      </trkpt>
      <trkpt lat="45.38735" lon="2.9636">
        <ele>1185.858964</ele>
        <time>2021-07-08T08:47:27+0200</time>
      </trkpt>
      <trkpt lat="45.38733" lon="2.96369">
        <ele>1185.712</ele>
        <time>2021-07-08T08:47:28+0200</time>
      </trkpt>
      <trkpt lat="45.38729" lon="2.96375">
        <ele>1185.974877</ele>
        <time>2021-07-08T08:47:29+0200</time>
      </trkpt>
      <trkpt lat="45.38723" lon="2.9638">
        <ele>1185.831064</ele>
        <time>2021-07-08T08:47:30+0200</time>
      </trkpt>
      <trkpt lat="45.38717" lon="2.96383">
        <ele>1185.55592</ele>
        <time>2021-07-08T08:47:31+0200</time>
      </trkpt>
      <trkpt lat="45.38711" lon="2.96385">
        <ele>1185.42087</ele>
        <time>2021-07-08T08:47:32+0200</time>
      </trkpt>
      <trkpt lat="45.38705" lon="2.96387">
        <ele>1185.340971</ele>
        <time>2021-07-08T08:47:33+0200</time>
      </trkpt>
      <trkpt lat="45.38699" lon="2.96389">
        <ele>1185.224881</ele>
        <time>2021-07-08T08:47:34+0200</time>
      </trkpt>
      <trkpt lat="45.38694" lon="2.9639">
        <ele>1185.210023</ele>
        <time>2021-07-08T08:47:35+0200</time>
      </trkpt>
      <trkpt lat="45.38688" lon="2.96391">
        <ele>1185.396489</ele>
        <time>2021-07-08T08:47:36+0200</time>
      </trkpt>
      <trkpt lat="45.38683" lon="2.96392">
        <ele>1185.947816</ele>
        <time>2021-07-08T08:47:37+0200</time>
      </trkpt>
      <trkpt lat="45.38678" lon="2.96394">
        <ele>1186.025239</ele>
        <time>2021-07-08T08:47:38+0200</time>
      </trkpt>
      <trkpt lat="45.38674" lon="2.96395">
        <ele>1186.217092</ele>
        <time>2021-07-08T08:47:39+0200</time>
      </trkpt>
      <trkpt lat="45.38666" lon="2.96398">
        <ele>1186.723392</ele>
        <time>2021-07-08T08:47:41+0200</time>
      </trkpt>
      <trkpt lat="45.38658" lon="2.96401">
        <ele>1186.733809</ele>
        <time>2021-07-08T08:47:43+0200</time>
      </trkpt>
      <trkpt lat="45.38651" lon="2.96403">
        <ele>1186.884813</ele>
        <time>2021-07-08T08:47:45+0200</time>
      </trkpt>
      <trkpt lat="45.38644" lon="2.96406">
        <ele>1186.826921</ele>
        <time>2021-07-08T08:47:47+0200</time>
      </trkpt>
      <trkpt lat="45.38637" lon="2.96407">
        <ele>1187.034532</ele>
        <time>2021-07-08T08:47:49+0200</time>
      </trkpt>
      <trkpt lat="45.38629" lon="2.9641">
        <ele>1186.810024</ele>
        <time>2021-07-08T08:47:51+0200</time>
      </trkpt>
      <trkpt lat="45.38621" lon="2.96413">
        <ele>1186.572288</ele>
        <time>2021-07-08T08:47:53+0200</time>
      </trkpt>
      <trkpt lat="45.38613" lon="2.96417">
        <ele>1186.279958</ele>
        <time>2021-07-08T08:47:55+0200</time>
      </trkpt>
      <trkpt lat="45.38608" lon="2.96419">
        <ele>1186.16795</ele>
        <time>2021-07-08T08:47:56+0200</time>
      </trkpt>
      <trkpt lat="45.38603" lon="2.96421">
        <ele>1186.165151</ele>
        <time>2021-07-08T08:47:57+0200</time>
      </trkpt>
      <trkpt lat="45.38598" lon="2.96423">
        <ele>1185.935865</ele>
        <time>2021-07-08T08:47:58+0200</time>
      </trkpt>
      <trkpt lat="45.38594" lon="2.96425">
        <ele>1185.795463</ele>
        <time>2021-07-08T08:47:59+0200</time>
      </trkpt>
      <trkpt lat="45.38589" lon="2.96426">
        <ele>1185.766056</ele>
        <time>2021-07-08T08:48:00+0200</time>
      </trkpt>
      <trkpt lat="45.38584" lon="2.96429">
        <ele>1185.695561</ele>
        <time>2021-07-08T08:48:01+0200</time>
      </trkpt>
      <trkpt lat="45.3858" lon="2.96431">
        <ele>1185.582183</ele>
        <time>2021-07-08T08:48:02+0200</time>
      </trkpt>
      <trkpt lat="45.38575" lon="2.96433">
        <ele>1185.661276</ele>
        <time>2021-07-08T08:48:03+0200</time>
      </trkpt>
      <trkpt lat="45.38571" lon="2.96435">
        <ele>1185.53953</ele>
        <time>2021-07-08T08:48:04+0200</time>
      </trkpt>
      <trkpt lat="45.38566" lon="2.96436">
        <ele>1185.279819</ele>
        <time>2021-07-08T08:48:05+0200</time>
      </trkpt>
      <trkpt lat="45.38561" lon="2.96438">
        <ele>1184.893554</ele>
        <time>2021-07-08T08:48:06+0200</time>
      </trkpt>
      <trkpt lat="45.38556" lon="2.96438">
        <ele>1184.560767</ele>
        <time>2021-07-08T08:48:07+0200</time>
      </trkpt>
      <trkpt lat="45.3855" lon="2.96437">
        <ele>1184.179982</ele>
        <time>2021-07-08T08:48:08+0200</time>
      </trkpt>
      <trkpt lat="45.38543" lon="2.96436">
        <ele>1183.989857</ele>
        <time>2021-07-08T08:48:09+0200</time>
      </trkpt>
      <trkpt lat="45.38537" lon="2.96435">
        <ele>1183.630092</ele>
        <time>2021-07-08T08:48:10+0200</time>
      </trkpt>
      <trkpt lat="45.38531" lon="2.96433">
        <ele>1183.395361</ele>
        <time>2021-07-08T08:48:11+0200</time>
      </trkpt>
      <trkpt lat="45.38524" lon="2.96429">
        <ele>1183.171613</ele>
        <time>2021-07-08T08:48:12+0200</time>
      </trkpt>
      <trkpt lat="45.38518" lon="2.96426">
        <ele>1183.045487</ele>
        <time>2021-07-08T08:48:13+0200</time>
      </trkpt>
      <trkpt lat="45.38512" lon="2.96421">
        <ele>1182.926363</ele>
        <time>2021-07-08T08:48:14+0200</time>
      </trkpt>
      <trkpt lat="45.38506" lon="2.96416">
        <ele>1182.899238</ele>
        <time>2021-07-08T08:48:15+0200</time>
      </trkpt>
      <trkpt lat="45.385" lon="2.96414">
        <ele>1182.945994</ele>
        <time>2021-07-08T08:48:16+0200</time>
      </trkpt>
      <trkpt lat="45.38494" lon="2.96412">
        <ele>1183.046552</ele>
        <time>2021-07-08T08:48:17+0200</time>
      </trkpt>
      <trkpt lat="45.38488" lon="2.96409">
        <ele>1183.040715</ele>
        <time>2021-07-08T08:48:18+0200</time>
      </trkpt>
      <trkpt lat="45.38483" lon="2.96408">
        <ele>1182.909164</ele>
        <time>2021-07-08T08:48:19+0200</time>
      </trkpt>
      <trkpt lat="45.38477" lon="2.96406">
        <ele>1182.850403</ele>
        <time>2021-07-08T08:48:20+0200</time>
      </trkpt>
      <trkpt lat="45.38471" lon="2.96404">
        <ele>1182.803074</ele>
        <time>2021-07-08T08:48:21+0200</time>
      </trkpt>
      <trkpt lat="45.38465" lon="2.96403">
        <ele>1182.829451</ele>
        <time>2021-07-08T08:48:22+0200</time>
      </trkpt>
      <trkpt lat="45.38459" lon="2.96402">
        <ele>1182.835512</ele>
        <time>2021-07-08T08:48:23+0200</time>
      </trkpt>
      <trkpt lat="45.38453" lon="2.96402">
        <ele>1182.676456</ele>
        <time>2021-07-08T08:48:24+0200</time>
      </trkpt>
      <trkpt lat="45.38447" lon="2.96403">
        <ele>1182.787348</ele>
        <time>2021-07-08T08:48:25+0200</time>
      </trkpt>
      <trkpt lat="45.38442" lon="2.96403">
        <ele>1182.54093</ele>
        <time>2021-07-08T08:48:26+0200</time>
      </trkpt>
      <trkpt lat="45.38436" lon="2.96404">
        <ele>1182.646552</ele>
        <time>2021-07-08T08:48:27+0200</time>
      </trkpt>
      <trkpt lat="45.38432" lon="2.96403">
        <ele>1182.766084</ele>
        <time>2021-07-08T08:48:28+0200</time>
      </trkpt>
      <trkpt lat="45.38427" lon="2.96402">
        <ele>1182.666286</ele>
        <time>2021-07-08T08:48:29+0200</time>
      </trkpt>
      <trkpt lat="45.38422" lon="2.96399">
        <ele>1182.197533</ele>
        <time>2021-07-08T08:48:30+0200</time>
      </trkpt>
      <trkpt lat="45.38417" lon="2.96396">
        <ele>1181.767975</ele>
        <time>2021-07-08T08:48:31+0200</time>
      </trkpt>
      <trkpt lat="45.38413" lon="2.9639">
        <ele>1181.235094</ele>
        <time>2021-07-08T08:48:32+0200</time>
      </trkpt>
      <trkpt lat="45.38407" lon="2.96386">
        <ele>1180.773175</ele>
        <time>2021-07-08T08:48:33+0200</time>
      </trkpt>
      <trkpt lat="45.38402" lon="2.96383">
        <ele>1180.416924</ele>
        <time>2021-07-08T08:48:34+0200</time>
      </trkpt>
      <trkpt lat="45.38396" lon="2.96383">
        <ele>1179.915267</ele>
        <time>2021-07-08T08:48:35+0200</time>
      </trkpt>
      <trkpt lat="45.3839" lon="2.96386">
        <ele>1179.353483</ele>
        <time>2021-07-08T08:48:36+0200</time>
      </trkpt>
      <trkpt lat="45.38384" lon="2.96391">
        <ele>1178.522345</ele>
        <time>2021-07-08T08:48:37+0200</time>
      </trkpt>
      <trkpt lat="45.38378" lon="2.96397">
        <ele>1177.810435</ele>
        <time>2021-07-08T08:48:38+0200</time>
      </trkpt>
      <trkpt lat="45.38372" lon="2.96405">
        <ele>1177.088301</ele>
        <time>2021-07-08T08:48:39+0200</time>
      </trkpt>
      <trkpt lat="45.38367" lon="2.96414">
        <ele>1176.839331</ele>
        <time>2021-07-08T08:48:40+0200</time>
      </trkpt>
      <trkpt lat="45.38363" lon="2.96422">
        <ele>1176.836046</ele>
        <time>2021-07-08T08:48:41+0200</time>
      </trkpt>
      <trkpt lat="45.38359" lon="2.9643">
        <ele>1176.789709</ele>
        <time>2021-07-08T08:48:42+0200</time>
      </trkpt>
      <trkpt lat="45.38355" lon="2.96438">
        <ele>1176.651724</ele>
        <time>2021-07-08T08:48:43+0200</time>
      </trkpt>
      <trkpt lat="45.38351" lon="2.96446">
        <ele>1176.635247</ele>
        <time>2021-07-08T08:48:44+0200</time>
      </trkpt>
      <trkpt lat="45.38347" lon="2.96454">
        <ele>1176.521524</ele>
        <time>2021-07-08T08:48:45+0200</time>
      </trkpt>
      <trkpt lat="45.38342" lon="2.9646">
        <ele>1176.710712</ele>
        <time>2021-07-08T08:48:46+0200</time>
      </trkpt>
      <trkpt lat="45.38338" lon="2.96467">
        <ele>1176.702327</ele>
        <time>2021-07-08T08:48:47+0200</time>
      </trkpt>
      <trkpt lat="45.38335" lon="2.96474">
        <ele>1176.600112</ele>
        <time>2021-07-08T08:48:48+0200</time>
      </trkpt>
      <trkpt lat="45.38331" lon="2.9648">
        <ele>1176.463821</ele>
        <time>2021-07-08T08:48:49+0200</time>
      </trkpt>
      <trkpt lat="45.38327" lon="2.96487">
        <ele>1176.423835</ele>
        <time>2021-07-08T08:48:50+0200</time>
      </trkpt>
      <trkpt lat="45.38324" lon="2.96494">
        <ele>1176.527478</ele>
        <time>2021-07-08T08:48:51+0200</time>
      </trkpt>
      <trkpt lat="45.38319" lon="2.965">
        <ele>1176.086739</ele>
        <time>2021-07-08T08:48:52+0200</time>
      </trkpt>
      <trkpt lat="45.38316" lon="2.96506">
        <ele>1175.752047</ele>
        <time>2021-07-08T08:48:53+0200</time>
      </trkpt>
      <trkpt lat="45.38311" lon="2.96513">
        <ele>1175.301113</ele>
        <time>2021-07-08T08:48:54+0200</time>
      </trkpt>
      <trkpt lat="45.38307" lon="2.96519">
        <ele>1175.032763</ele>
        <time>2021-07-08T08:48:55+0200</time>
      </trkpt>
      <trkpt lat="45.38303" lon="2.96525">
        <ele>1174.61744</ele>
        <time>2021-07-08T08:48:56+0200</time>
      </trkpt>
      <trkpt lat="45.38299" lon="2.96532">
        <ele>1174.20984</ele>
        <time>2021-07-08T08:48:57+0200</time>
      </trkpt>
      <trkpt lat="45.38294" lon="2.96538">
        <ele>1174.072444</ele>
        <time>2021-07-08T08:48:58+0200</time>
      </trkpt>
      <trkpt lat="45.3829" lon="2.96545">
        <ele>1173.392606</ele>
        <time>2021-07-08T08:48:59+0200</time>
      </trkpt>
      <trkpt lat="45.38285" lon="2.96553">
        <ele>1172.945544</ele>
        <time>2021-07-08T08:49:00+0200</time>
      </trkpt>
      <trkpt lat="45.38281" lon="2.96561">
        <ele>1172.438684</ele>
        <time>2021-07-08T08:49:01+0200</time>
      </trkpt>
      <trkpt lat="45.38276" lon="2.96569">
        <ele>1172.087275</ele>
        <time>2021-07-08T08:49:02+0200</time>
      </trkpt>
      <trkpt lat="45.38272" lon="2.96577">
        <ele>1171.823539</ele>
        <time>2021-07-08T08:49:03+0200</time>
      </trkpt>
      <trkpt lat="45.38267" lon="2.96586">
        <ele>1171.623139</ele>
        <time>2021-07-08T08:49:04+0200</time>
      </trkpt>
      <trkpt lat="45.38263" lon="2.96594">
        <ele>1171.479532</ele>
        <time>2021-07-08T08:49:05+0200</time>
      </trkpt>
      <trkpt lat="45.3826" lon="2.96602">
        <ele>1171.489626</ele>
        <time>2021-07-08T08:49:06+0200</time>
      </trkpt>
      <trkpt lat="45.38256" lon="2.9661">
        <ele>1171.410692</ele>
        <time>2021-07-08T08:49:07+0200</time>
      </trkpt>
      <trkpt lat="45.38252" lon="2.96618">
        <ele>1171.326015</ele>
        <time>2021-07-08T08:49:08+0200</time>
      </trkpt>
      <trkpt lat="45.38248" lon="2.96625">
        <ele>1171.409029</ele>
        <time>2021-07-08T08:49:09+0200</time>
      </trkpt>
      <trkpt lat="45.38244" lon="2.96633">
        <ele>1171.109952</ele>
        <time>2021-07-08T08:49:10+0200</time>
      </trkpt>
      <trkpt lat="45.38239" lon="2.9664">
        <ele>1170.942581</ele>
        <time>2021-07-08T08:49:11+0200</time>
      </trkpt>
      <trkpt lat="45.38235" lon="2.96648">
        <ele>1170.596442</ele>
        <time>2021-07-08T08:49:12+0200</time>
      </trkpt>
      <trkpt lat="45.38231" lon="2.96655">
        <ele>1170.080369</ele>
        <time>2021-07-08T08:49:13+0200</time>
      </trkpt>
      <trkpt lat="45.38225" lon="2.96663">
        <ele>1169.712992</ele>
        <time>2021-07-08T08:49:14+0200</time>
      </trkpt>
      <trkpt lat="45.3822" lon="2.9667">
        <ele>1169.420529</ele>
        <time>2021-07-08T08:49:15+0200</time>
      </trkpt>
      <trkpt lat="45.38214" lon="2.96677">
        <ele>1168.940756</ele>
        <time>2021-07-08T08:49:16+0200</time>
      </trkpt>
      <trkpt lat="45.3821" lon="2.96685">
        <ele>1168.323747</ele>
        <time>2021-07-08T08:49:17+0200</time>
      </trkpt>
      <trkpt lat="45.38204" lon="2.96694">
        <ele>1167.565471</ele>
        <time>2021-07-08T08:49:18+0200</time>
      </trkpt>
      <trkpt lat="45.38198" lon="2.96703">
        <ele>1166.898699</ele>
        <time>2021-07-08T08:49:19+0200</time>
      </trkpt>
      <trkpt lat="45.38192" lon="2.96712">
        <ele>1166.126257</ele>
        <time>2021-07-08T08:49:20+0200</time>
      </trkpt>
      <trkpt lat="45.38185" lon="2.96721">
        <ele>1165.593696</ele>
        <time>2021-07-08T08:49:21+0200</time>
      </trkpt>
      <trkpt lat="45.38178" lon="2.96729">
        <ele>1165.242093</ele>
        <time>2021-07-08T08:49:22+0200</time>
      </trkpt>
      <trkpt lat="45.38171" lon="2.96737">
        <ele>1164.933295</ele>
        <time>2021-07-08T08:49:23+0200</time>
      </trkpt>
      <trkpt lat="45.38164" lon="2.96742">
        <ele>1165.028857</ele>
        <time>2021-07-08T08:49:24+0200</time>
      </trkpt>
      <trkpt lat="45.38158" lon="2.96749">
        <ele>1165.248288</ele>
        <time>2021-07-08T08:49:25+0200</time>
      </trkpt>
      <trkpt lat="45.38152" lon="2.96754">
        <ele>1165.56002</ele>
        <time>2021-07-08T08:49:26+0200</time>
      </trkpt>
      <trkpt lat="45.38146" lon="2.96759">
        <ele>1165.656827</ele>
        <time>2021-07-08T08:49:27+0200</time>
      </trkpt>
      <trkpt lat="45.3814" lon="2.96763">
        <ele>1165.902516</ele>
        <time>2021-07-08T08:49:28+0200</time>
      </trkpt>
      <trkpt lat="45.38134" lon="2.96765">
        <ele>1166.006984</ele>
        <time>2021-07-08T08:49:29+0200</time>
      </trkpt>
      <trkpt lat="45.38128" lon="2.96769">
        <ele>1165.952461</ele>
        <time>2021-07-08T08:49:30+0200</time>
      </trkpt>
      <trkpt lat="45.38122" lon="2.96772">
        <ele>1165.896662</ele>
        <time>2021-07-08T08:49:31+0200</time>
      </trkpt>
      <trkpt lat="45.38116" lon="2.96776">
        <ele>1165.648823</ele>
        <time>2021-07-08T08:49:31+0200</time>
      </trkpt>
      <trkpt lat="45.3811" lon="2.96781">
        <ele>1165.439318</ele>
        <time>2021-07-08T08:49:32+0200</time>
      </trkpt>
      <trkpt lat="45.38105" lon="2.96786">
        <ele>1165.283354</ele>
        <time>2021-07-08T08:49:33+0200</time>
      </trkpt>
      <trkpt lat="45.38099" lon="2.96791">
        <ele>1165.049384</ele>
        <time>2021-07-08T08:49:34+0200</time>
      </trkpt>
      <trkpt lat="45.38094" lon="2.96799">
        <ele>1164.682862</ele>
        <time>2021-07-08T08:49:35+0200</time>
      </trkpt>
      <trkpt lat="45.38089" lon="2.96807">
        <ele>1164.588578</ele>
        <time>2021-07-08T08:49:36+0200</time>
      </trkpt>
      <trkpt lat="45.38084" lon="2.96816">
        <ele>1164.46499</ele>
        <time>2021-07-08T08:49:37+0200</time>
      </trkpt>
      <trkpt lat="45.3808" lon="2.96824">
        <ele>1163.976029</ele>
        <time>2021-07-08T08:49:38+0200</time>
      </trkpt>
      <trkpt lat="45.38075" lon="2.96831">
        <ele>1163.357611</ele>
        <time>2021-07-08T08:49:39+0200</time>
      </trkpt>
      <trkpt lat="45.3807" lon="2.9684">
        <ele>1162.397707</ele>
        <time>2021-07-08T08:49:40+0200</time>
      </trkpt>
      <trkpt lat="45.38065" lon="2.96849">
        <ele>1161.671636</ele>
        <time>2021-07-08T08:49:41+0200</time>
      </trkpt>
      <trkpt lat="45.3806" lon="2.96859">
        <ele>1160.942512</ele>
        <time>2021-07-08T08:49:42+0200</time>
      </trkpt>
      <trkpt lat="45.38055" lon="2.96869">
        <ele>1160.131272</ele>
        <time>2021-07-08T08:49:43+0200</time>
      </trkpt>
      <trkpt lat="45.3805" lon="2.96879">
        <ele>1159.40771</ele>
        <time>2021-07-08T08:49:44+0200</time>
      </trkpt>
      <trkpt lat="45.38046" lon="2.96889">
        <ele>1159.22709</ele>
        <time>2021-07-08T08:49:45+0200</time>
      </trkpt>
      <trkpt lat="45.38043" lon="2.969">
        <ele>1159.110045</ele>
        <time>2021-07-08T08:49:46+0200</time>
      </trkpt>
      <trkpt lat="45.38041" lon="2.96908">
        <ele>1158.637363</ele>
        <time>2021-07-08T08:49:47+0200</time>
      </trkpt>
      <trkpt lat="45.38041" lon="2.96916">
        <ele>1158.232379</ele>
        <time>2021-07-08T08:49:48+0200</time>
      </trkpt>
      <trkpt lat="45.38038" lon="2.96922">
        <ele>1156.685791</ele>
        <time>2021-07-08T08:49:50+0200</time>
      </trkpt>
      <trkpt lat="45.38031" lon="2.96925">
        <ele>1154.572901</ele>
        <time>2021-07-08T08:49:52+0200</time>
      </trkpt>
      <trkpt lat="45.38027" lon="2.96921">
        <ele>1152.212029</ele>
        <time>2021-07-08T08:49:53+0200</time>
      </trkpt>
      <trkpt lat="45.38021" lon="2.96916">
        <ele>1149.845716</ele>
        <time>2021-07-08T08:49:55+0200</time>
      </trkpt>
      <trkpt lat="45.38015" lon="2.96911">
        <ele>1151.137923</ele>
        <time>2021-07-08T08:49:57+0200</time>
      </trkpt>
      <trkpt lat="45.3801" lon="2.96907">
        <ele>1152.07283</ele>
        <time>2021-07-08T08:49:59+0200</time>
      </trkpt>
      <trkpt lat="45.38004" lon="2.969">
        <ele>1151.079498</ele>
        <time>2021-07-08T08:50:01+0200</time>
      </trkpt>
      <trkpt lat="45.37997" lon="2.96899">
        <ele>1152.675741</ele>
        <time>2021-07-08T08:50:03+0200</time>
      </trkpt>
      <trkpt lat="45.37993" lon="2.96896">
        <ele>1152.072855</ele>
        <time>2021-07-08T08:50:04+0200</time>
      </trkpt>
      <trkpt lat="45.37988" lon="2.96893">
        <ele>1151.465602</ele>
        <time>2021-07-08T08:50:05+0200</time>
      </trkpt>
      <trkpt lat="45.37984" lon="2.96891">
        <ele>1151.339657</ele>
        <time>2021-07-08T08:50:06+0200</time>
      </trkpt>
      <trkpt lat="45.37977" lon="2.96891">
        <ele>1152.690338</ele>
        <time>2021-07-08T08:50:08+0200</time>
      </trkpt>
      <trkpt lat="45.3797" lon="2.9689">
        <ele>1151.681021</ele>
        <time>2021-07-08T08:50:10+0200</time>
      </trkpt>
      <trkpt lat="45.37966" lon="2.96887">
        <ele>1150.908932</ele>
        <time>2021-07-08T08:50:11+0200</time>
      </trkpt>
      <trkpt lat="45.37957" lon="2.96885">
        <ele>1150.967056</ele>
        <time>2021-07-08T08:50:13+0200</time>
      </trkpt>
      <trkpt lat="45.37953" lon="2.96884">
        <ele>1151.762928</ele>
        <time>2021-07-08T08:50:14+0200</time>
      </trkpt>
      <trkpt lat="45.37948" lon="2.96881">
        <ele>1151.781217</ele>
        <time>2021-07-08T08:50:15+0200</time>
      </trkpt>
      <trkpt lat="45.37939" lon="2.96881">
        <ele>1154.233332</ele>
        <time>2021-07-08T08:50:17+0200</time>
      </trkpt>
      <trkpt lat="45.37931" lon="2.9688">
        <ele>1155.825486</ele>
        <time>2021-07-08T08:50:19+0200</time>
      </trkpt>
      <trkpt lat="45.37925" lon="2.96882">
        <ele>1157.295039</ele>
        <time>2021-07-08T08:50:21+0200</time>
      </trkpt>
      <trkpt lat="45.37921" lon="2.96885">
        <ele>1158.138489</ele>
        <time>2021-07-08T08:50:23+0200</time>
      </trkpt>
      <trkpt lat="45.37917" lon="2.96894">
        <ele>1158.616926</ele>
        <time>2021-07-08T08:50:25+0200</time>
      </trkpt>
      <trkpt lat="45.37912" lon="2.96903">
        <ele>1158.927661</ele>
        <time>2021-07-08T08:50:27+0200</time>
      </trkpt>
      <trkpt lat="45.37907" lon="2.96913">
        <ele>1159.024889</ele>
        <time>2021-07-08T08:50:29+0200</time>
      </trkpt>
      <trkpt lat="45.37905" lon="2.9692">
        <ele>1159.085623</ele>
        <time>2021-07-08T08:50:30+0200</time>
      </trkpt>
      <trkpt lat="45.37903" lon="2.96926">
        <ele>1159.128333</ele>
        <time>2021-07-08T08:50:31+0200</time>
      </trkpt>
      <trkpt lat="45.37901" lon="2.96932">
        <ele>1159.159542</ele>
        <time>2021-07-08T08:50:32+0200</time>
      </trkpt>
      <trkpt lat="45.37899" lon="2.96938">
        <ele>1159.201253</ele>
        <time>2021-07-08T08:50:33+0200</time>
      </trkpt>
      <trkpt lat="45.37895" lon="2.96948">
        <ele>1159.602184</ele>
        <time>2021-07-08T08:50:35+0200</time>
      </trkpt>
      <trkpt lat="45.37892" lon="2.96958">
        <ele>1159.967923</ele>
        <time>2021-07-08T08:50:37+0200</time>
      </trkpt>
      <trkpt lat="45.37887" lon="2.96968">
        <ele>1160.162206</ele>
        <time>2021-07-08T08:50:39+0200</time>
      </trkpt>
      <trkpt lat="45.37882" lon="2.96978">
        <ele>1160.586943</ele>
        <time>2021-07-08T08:50:41+0200</time>
      </trkpt>
      <trkpt lat="45.37877" lon="2.96988">
        <ele>1160.635688</ele>
        <time>2021-07-08T08:50:43+0200</time>
      </trkpt>
      <trkpt lat="45.37872" lon="2.96997">
        <ele>1160.526872</ele>
        <time>2021-07-08T08:50:45+0200</time>
      </trkpt>
      <trkpt lat="45.37867" lon="2.97008">
        <ele>1160.636645</ele>
        <time>2021-07-08T08:50:47+0200</time>
      </trkpt>
      <trkpt lat="45.37864" lon="2.97013">
        <ele>1160.66378</ele>
        <time>2021-07-08T08:50:48+0200</time>
      </trkpt>
      <trkpt lat="45.3786" lon="2.97017">
        <ele>1160.764652</ele>
        <time>2021-07-08T08:50:49+0200</time>
      </trkpt>
      <trkpt lat="45.37857" lon="2.97022">
        <ele>1160.948418</ele>
        <time>2021-07-08T08:50:50+0200</time>
      </trkpt>
      <trkpt lat="45.37853" lon="2.97026">
        <ele>1161.144433</ele>
        <time>2021-07-08T08:50:51+0200</time>
      </trkpt>
      <trkpt lat="45.37847" lon="2.97034">
        <ele>1161.90315</ele>
        <time>2021-07-08T08:50:53+0200</time>
      </trkpt>
      <trkpt lat="45.37843" lon="2.97041">
        <ele>1162.500968</ele>
        <time>2021-07-08T08:50:55+0200</time>
      </trkpt>
      <trkpt lat="45.37837" lon="2.97047">
        <ele>1163.367222</ele>
        <time>2021-07-08T08:50:57+0200</time>
      </trkpt>
      <trkpt lat="45.3783" lon="2.97054">
        <ele>1163.854416</ele>
        <time>2021-07-08T08:50:59+0200</time>
      </trkpt>
      <trkpt lat="45.37824" lon="2.97062">
        <ele>1164.019242</ele>
        <time>2021-07-08T08:51:01+0200</time>
      </trkpt>
      <trkpt lat="45.37818" lon="2.97069">
        <ele>1164.416582</ele>
        <time>2021-07-08T08:51:03+0200</time>
      </trkpt>
      <trkpt lat="45.37812" lon="2.97077">
        <ele>1164.476968</ele>
        <time>2021-07-08T08:51:05+0200</time>
      </trkpt>
      <trkpt lat="45.37805" lon="2.97085">
        <ele>1164.798399</ele>
        <time>2021-07-08T08:51:07+0200</time>
      </trkpt>
      <trkpt lat="45.37799" lon="2.97092">
        <ele>1164.929091</ele>
        <time>2021-07-08T08:51:10+0200</time>
      </trkpt>
      <trkpt lat="45.37793" lon="2.971">
        <ele>1165.119209</ele>
        <time>2021-07-08T08:51:12+0200</time>
      </trkpt>
      <trkpt lat="45.37787" lon="2.97108">
        <ele>1165.548481</ele>
        <time>2021-07-08T08:51:14+0200</time>
      </trkpt>
      <trkpt lat="45.37781" lon="2.97117">
        <ele>1165.994458</ele>
        <time>2021-07-08T08:51:15+0200</time>
      </trkpt>
      <trkpt lat="45.37777" lon="2.97126">
        <ele>1166.747867</ele>
        <time>2021-07-08T08:51:17+0200</time>
      </trkpt>
      <trkpt lat="45.37775" lon="2.97137">
        <ele>1167.471242</ele>
        <time>2021-07-08T08:51:19+0200</time>
      </trkpt>
      <trkpt lat="45.37773" lon="2.97146">
        <ele>1167.824105</ele>
        <time>2021-07-08T08:51:21+0200</time>
      </trkpt>
      <trkpt lat="45.37772" lon="2.97156">
        <ele>1168.559199</ele>
        <time>2021-07-08T08:51:24+0200</time>
      </trkpt>
      <trkpt lat="45.37769" lon="2.97165">
        <ele>1168.960519</ele>
        <time>2021-07-08T08:51:26+0200</time>
      </trkpt>
      <trkpt lat="45.37768" lon="2.97174">
        <ele>1169.545174</ele>
        <time>2021-07-08T08:51:28+0200</time>
      </trkpt>
      <trkpt lat="45.37767" lon="2.97185">
        <ele>1170.652796</ele>
        <time>2021-07-08T08:51:29+0200</time>
      </trkpt>
      <trkpt lat="45.37766" lon="2.97194">
        <ele>1171.46595</ele>
        <time>2021-07-08T08:51:31+0200</time>
      </trkpt>
      <trkpt lat="45.37764" lon="2.97203">
        <ele>1171.968264</ele>
        <time>2021-07-08T08:51:33+0200</time>
      </trkpt>
      <trkpt lat="45.37762" lon="2.97212">
        <ele>1172.158882</ele>
        <time>2021-07-08T08:51:35+0200</time>
      </trkpt>
      <trkpt lat="45.37761" lon="2.97221">
        <ele>1172.295789</ele>
        <time>2021-07-08T08:51:37+0200</time>
      </trkpt>
      <trkpt lat="45.37759" lon="2.9723">
        <ele>1172.487185</ele>
        <time>2021-07-08T08:51:39+0200</time>
      </trkpt>
      <trkpt lat="45.37757" lon="2.97239">
        <ele>1172.669022</ele>
        <time>2021-07-08T08:51:41+0200</time>
      </trkpt>
      <trkpt lat="45.37756" lon="2.97249">
        <ele>1173.31108</ele>
        <time>2021-07-08T08:51:43+0200</time>
      </trkpt>
      <trkpt lat="45.37755" lon="2.97259">
        <ele>1173.457153</ele>
        <time>2021-07-08T08:51:45+0200</time>
      </trkpt>
      <trkpt lat="45.37754" lon="2.97269">
        <ele>1173.746709</ele>
        <time>2021-07-08T08:51:47+0200</time>
      </trkpt>
      <trkpt lat="45.37753" lon="2.97279">
        <ele>1174.108537</ele>
        <time>2021-07-08T08:51:49+0200</time>
      </trkpt>
      <trkpt lat="45.37751" lon="2.97288">
        <ele>1174.245555</ele>
        <time>2021-07-08T08:51:51+0200</time>
      </trkpt>
      <trkpt lat="45.37748" lon="2.97297">
        <ele>1174.674171</ele>
        <time>2021-07-08T08:51:53+0200</time>
      </trkpt>
      <trkpt lat="45.37744" lon="2.97304">
        <ele>1174.943552</ele>
        <time>2021-07-08T08:51:55+0200</time>
      </trkpt>
      <trkpt lat="45.37742" lon="2.97312">
        <ele>1175.369893</ele>
        <time>2021-07-08T08:51:57+0200</time>
      </trkpt>
      <trkpt lat="45.37738" lon="2.97318">
        <ele>1175.588402</ele>
        <time>2021-07-08T08:51:59+0200</time>
      </trkpt>
      <trkpt lat="45.37734" lon="2.97325">
        <ele>1176.030556</ele>
        <time>2021-07-08T08:52:01+0200</time>
      </trkpt>
      <trkpt lat="45.37731" lon="2.9733">
        <ele>1176.64435</ele>
        <time>2021-07-08T08:52:03+0200</time>
      </trkpt>
      <trkpt lat="45.37726" lon="2.97336">
        <ele>1176.781594</ele>
        <time>2021-07-08T08:52:05+0200</time>
      </trkpt>
      <trkpt lat="45.37721" lon="2.9734">
        <ele>1176.918787</ele>
        <time>2021-07-08T08:52:07+0200</time>
      </trkpt>
      <trkpt lat="45.37715" lon="2.97341">
        <ele>1177.034362</ele>
        <time>2021-07-08T08:52:09+0200</time>
      </trkpt>
      <trkpt lat="45.37708" lon="2.97341">
        <ele>1177.26674</ele>
        <time>2021-07-08T08:52:11+0200</time>
      </trkpt>
      <trkpt lat="45.37701" lon="2.97339">
        <ele>1177.457204</ele>
        <time>2021-07-08T08:52:13+0200</time>
      </trkpt>
      <trkpt lat="45.37694" lon="2.97335">
        <ele>1177.62404</ele>
        <time>2021-07-08T08:52:15+0200</time>
      </trkpt>
      <trkpt lat="45.37688" lon="2.9733">
        <ele>1177.757565</ele>
        <time>2021-07-08T08:52:17+0200</time>
      </trkpt>
      <trkpt lat="45.37682" lon="2.97326">
        <ele>1178.156343</ele>
        <time>2021-07-08T08:52:19+0200</time>
      </trkpt>
      <trkpt lat="45.37676" lon="2.9732">
        <ele>1178.819591</ele>
        <time>2021-07-08T08:52:21+0200</time>
      </trkpt>
      <trkpt lat="45.3767" lon="2.97313">
        <ele>1179.555391</ele>
        <time>2021-07-08T08:52:23+0200</time>
      </trkpt>
      <trkpt lat="45.37664" lon="2.97308">
        <ele>1180.075156</ele>
        <time>2021-07-08T08:52:25+0200</time>
      </trkpt>
      <trkpt lat="45.37658" lon="2.97302">
        <ele>1180.968911</ele>
        <time>2021-07-08T08:52:27+0200</time>
      </trkpt>
      <trkpt lat="45.3765" lon="2.97299">
        <ele>1181.560615</ele>
        <time>2021-07-08T08:52:29+0200</time>
      </trkpt>
      <trkpt lat="45.37642" lon="2.97298">
        <ele>1181.356736</ele>
        <time>2021-07-08T08:52:31+0200</time>
      </trkpt>
      <trkpt lat="45.37635" lon="2.97298">
        <ele>1181.791417</ele>
        <time>2021-07-08T08:52:33+0200</time>
      </trkpt>
      <trkpt lat="45.37628" lon="2.973">
        <ele>1181.831883</ele>
        <time>2021-07-08T08:52:35+0200</time>
      </trkpt>
      <trkpt lat="45.37621" lon="2.97302">
        <ele>1181.960579</ele>
        <time>2021-07-08T08:52:37+0200</time>
      </trkpt>
      <trkpt lat="45.37614" lon="2.97303">
        <ele>1182.024603</ele>
        <time>2021-07-08T08:52:39+0200</time>
      </trkpt>
      <trkpt lat="45.37606" lon="2.97304">
        <ele>1182.15225</ele>
        <time>2021-07-08T08:52:41+0200</time>
      </trkpt>
      <trkpt lat="45.37598" lon="2.97305">
        <ele>1182.192108</ele>
        <time>2021-07-08T08:52:43+0200</time>
      </trkpt>
      <trkpt lat="45.37591" lon="2.97307">
        <ele>1182.270433</ele>
        <time>2021-07-08T08:52:45+0200</time>
      </trkpt>
      <trkpt lat="45.37584" lon="2.9731">
        <ele>1182.803945</ele>
        <time>2021-07-08T08:52:47+0200</time>
      </trkpt>
      <trkpt lat="45.37577" lon="2.97314">
        <ele>1183.03433</ele>
        <time>2021-07-08T08:52:49+0200</time>
      </trkpt>
      <trkpt lat="45.3757" lon="2.9732">
        <ele>1183.659316</ele>
        <time>2021-07-08T08:52:51+0200</time>
      </trkpt>
      <trkpt lat="45.37564" lon="2.97325">
        <ele>1184.484215</ele>
        <time>2021-07-08T08:52:53+0200</time>
      </trkpt>
      <trkpt lat="45.37559" lon="2.97329">
        <ele>1184.92001</ele>
        <time>2021-07-08T08:52:55+0200</time>
      </trkpt>
      <trkpt lat="45.37554" lon="2.97333">
        <ele>1185.332882</ele>
        <time>2021-07-08T08:52:57+0200</time>
      </trkpt>
      <trkpt lat="45.37548" lon="2.97337">
        <ele>1185.857023</ele>
        <time>2021-07-08T08:52:59+0200</time>
      </trkpt>
      <trkpt lat="45.37542" lon="2.97339">
        <ele>1186.113298</ele>
        <time>2021-07-08T08:53:01+0200</time>
      </trkpt>
      <trkpt lat="45.37537" lon="2.9734">
        <ele>1186.41786</ele>
        <time>2021-07-08T08:53:03+0200</time>
      </trkpt>
      <trkpt lat="45.37531" lon="2.9734">
        <ele>1186.446604</ele>
        <time>2021-07-08T08:53:05+0200</time>
      </trkpt>
      <trkpt lat="45.37525" lon="2.97338">
        <ele>1186.7451</ele>
        <time>2021-07-08T08:53:07+0200</time>
      </trkpt>
      <trkpt lat="45.37518" lon="2.97332">
        <ele>1186.866114</ele>
        <time>2021-07-08T08:53:09+0200</time>
      </trkpt>
      <trkpt lat="45.37511" lon="2.97325">
        <ele>1186.751046</ele>
        <time>2021-07-08T08:53:11+0200</time>
      </trkpt>
      <trkpt lat="45.37505" lon="2.97316">
        <ele>1186.442812</ele>
        <time>2021-07-08T08:53:13+0200</time>
      </trkpt>
      <trkpt lat="45.37499" lon="2.97307">
        <ele>1186.844609</ele>
        <time>2021-07-08T08:53:16+0200</time>
      </trkpt>
      <trkpt lat="45.37493" lon="2.97298">
        <ele>1187.092099</ele>
        <time>2021-07-08T08:53:18+0200</time>
      </trkpt>
      <trkpt lat="45.37488" lon="2.97288">
        <ele>1187.18108</ele>
        <time>2021-07-08T08:53:20+0200</time>
      </trkpt>
      <trkpt lat="45.37484" lon="2.97283">
        <ele>1187.188299</ele>
        <time>2021-07-08T08:53:20+0200</time>
      </trkpt>
      <trkpt lat="45.37482" lon="2.97277">
        <ele>1187.181703</ele>
        <time>2021-07-08T08:53:21+0200</time>
      </trkpt>
      <trkpt lat="45.37478" lon="2.97271">
        <ele>1186.938198</ele>
        <time>2021-07-08T08:53:22+0200</time>
      </trkpt>
      <trkpt lat="45.37475" lon="2.97265">
        <ele>1186.97184</ele>
        <time>2021-07-08T08:53:23+0200</time>
      </trkpt>
      <trkpt lat="45.37471" lon="2.9726">
        <ele>1187.021388</ele>
        <time>2021-07-08T08:53:24+0200</time>
      </trkpt>
      <trkpt lat="45.37468" lon="2.97254">
        <ele>1187.101289</ele>
        <time>2021-07-08T08:53:25+0200</time>
      </trkpt>
      <trkpt lat="45.37465" lon="2.97249">
        <ele>1187.485653</ele>
        <time>2021-07-08T08:53:26+0200</time>
      </trkpt>
      <trkpt lat="45.37461" lon="2.97244">
        <ele>1187.817737</ele>
        <time>2021-07-08T08:53:27+0200</time>
      </trkpt>
      <trkpt lat="45.37457" lon="2.97239">
        <ele>1188.184868</ele>
        <time>2021-07-08T08:53:29+0200</time>
      </trkpt>
      <trkpt lat="45.37452" lon="2.97236">
        <ele>1188.308456</ele>
        <time>2021-07-08T08:53:30+0200</time>
      </trkpt>
      <trkpt lat="45.37446" lon="2.97232">
        <ele>1188.013724</ele>
        <time>2021-07-08T08:53:30+0200</time>
      </trkpt>
      <trkpt lat="45.37441" lon="2.97227">
        <ele>1187.622761</ele>
        <time>2021-07-08T08:53:31+0200</time>
      </trkpt>
      <trkpt lat="45.37435" lon="2.97223">
        <ele>1187.090742</ele>
        <time>2021-07-08T08:53:33+0200</time>
      </trkpt>
      <trkpt lat="45.37429" lon="2.9722">
        <ele>1186.535446</ele>
        <time>2021-07-08T08:53:34+0200</time>
      </trkpt>
      <trkpt lat="45.37423" lon="2.97218">
        <ele>1186.06926</ele>
        <time>2021-07-08T08:53:35+0200</time>
      </trkpt>
      <trkpt lat="45.37416" lon="2.97218">
        <ele>1185.959634</ele>
        <time>2021-07-08T08:53:36+0200</time>
      </trkpt>
      <trkpt lat="45.3741" lon="2.97218">
        <ele>1184.882493</ele>
        <time>2021-07-08T08:53:37+0200</time>
      </trkpt>
      <trkpt lat="45.37404" lon="2.97221">
        <ele>1184.389049</ele>
        <time>2021-07-08T08:53:38+0200</time>
      </trkpt>
      <trkpt lat="45.37399" lon="2.97226">
        <ele>1183.779384</ele>
        <time>2021-07-08T08:53:39+0200</time>
      </trkpt>
      <trkpt lat="45.37394" lon="2.97229">
        <ele>1183.216422</ele>
        <time>2021-07-08T08:53:40+0200</time>
      </trkpt>
      <trkpt lat="45.37389" lon="2.97232">
        <ele>1182.814538</ele>
        <time>2021-07-08T08:53:41+0200</time>
      </trkpt>
      <trkpt lat="45.37382" lon="2.97229">
        <ele>1182.923471</ele>
        <time>2021-07-08T08:53:43+0200</time>
      </trkpt>
      <trkpt lat="45.37379" lon="2.97234">
        <ele>1181.588117</ele>
        <time>2021-07-08T08:53:48+0200</time>
      </trkpt>
      <trkpt lat="45.37374" lon="2.97237">
        <ele>1180.881913</ele>
        <time>2021-07-08T08:53:50+0200</time>
      </trkpt>
      <trkpt lat="45.37368" lon="2.97236">
        <ele>1181.199221</ele>
        <time>2021-07-08T08:53:52+0200</time>
      </trkpt>
      <trkpt lat="45.37361" lon="2.97233">
        <ele>1181.335595</ele>
        <time>2021-07-08T08:53:54+0200</time>
      </trkpt>
      <trkpt lat="45.37354" lon="2.97227">
        <ele>1181.462078</ele>
        <time>2021-07-08T08:53:55+0200</time>
      </trkpt>
      <trkpt lat="45.37346" lon="2.97221">
        <ele>1182.082269</ele>
        <time>2021-07-08T08:53:57+0200</time>
      </trkpt>
      <trkpt lat="45.37343" lon="2.97217">
        <ele>1182.19842</ele>
        <time>2021-07-08T08:53:58+0200</time>
      </trkpt>
      <trkpt lat="45.37339" lon="2.97214">
        <ele>1182.215884</ele>
        <time>2021-07-08T08:53:59+0200</time>
      </trkpt>
      <trkpt lat="45.37335" lon="2.97209">
        <ele>1182.17656</ele>
        <time>2021-07-08T08:54:00+0200</time>
      </trkpt>
      <trkpt lat="45.37328" lon="2.97201">
        <ele>1182.513518</ele>
        <time>2021-07-08T08:54:02+0200</time>
      </trkpt>
      <trkpt lat="45.37325" lon="2.97196">
        <ele>1182.577972</ele>
        <time>2021-07-08T08:54:04+0200</time>
      </trkpt>
      <trkpt lat="45.37321" lon="2.97192">
        <ele>1182.703943</ele>
        <time>2021-07-08T08:54:04+0200</time>
      </trkpt>
      <trkpt lat="45.37317" lon="2.97187">
        <ele>1182.616668</ele>
        <time>2021-07-08T08:54:05+0200</time>
      </trkpt>
      <trkpt lat="45.37313" lon="2.97182">
        <ele>1182.716695</ele>
        <time>2021-07-08T08:54:06+0200</time>
      </trkpt>
      <trkpt lat="45.37309" lon="2.97178">
        <ele>1182.829417</ele>
        <time>2021-07-08T08:54:07+0200</time>
      </trkpt>
      <trkpt lat="45.37305" lon="2.97172">
        <ele>1182.91397</ele>
        <time>2021-07-08T08:54:08+0200</time>
      </trkpt>
      <trkpt lat="45.37301" lon="2.97165">
        <ele>1183.082525</ele>
        <time>2021-07-08T08:54:09+0200</time>
      </trkpt>
      <trkpt lat="45.37298" lon="2.97159">
        <ele>1182.912936</ele>
        <time>2021-07-08T08:54:10+0200</time>
      </trkpt>
      <trkpt lat="45.37294" lon="2.97152">
        <ele>1182.725981</ele>
        <time>2021-07-08T08:54:11+0200</time>
      </trkpt>
      <trkpt lat="45.3729" lon="2.97146">
        <ele>1182.492401</ele>
        <time>2021-07-08T08:54:12+0200</time>
      </trkpt>
      <trkpt lat="45.37286" lon="2.97139">
        <ele>1182.285646</ele>
        <time>2021-07-08T08:54:13+0200</time>
      </trkpt>
      <trkpt lat="45.37281" lon="2.97134">
        <ele>1182.028661</ele>
        <time>2021-07-08T08:54:14+0200</time>
      </trkpt>
      <trkpt lat="45.37276" lon="2.97129">
        <ele>1182.048322</ele>
        <time>2021-07-08T08:54:15+0200</time>
      </trkpt>
      <trkpt lat="45.3727" lon="2.97126">
        <ele>1182.165893</ele>
        <time>2021-07-08T08:54:16+0200</time>
      </trkpt>
      <trkpt lat="45.37264" lon="2.97124">
        <ele>1182.239154</ele>
        <time>2021-07-08T08:54:17+0200</time>
      </trkpt>
      <trkpt lat="45.37258" lon="2.97125">
        <ele>1182.267222</ele>
        <time>2021-07-08T08:54:18+0200</time>
      </trkpt>
      <trkpt lat="45.37252" lon="2.97128">
        <ele>1181.987551</ele>
        <time>2021-07-08T08:54:19+0200</time>
      </trkpt>
      <trkpt lat="45.37246" lon="2.97131">
        <ele>1181.744125</ele>
        <time>2021-07-08T08:54:20+0200</time>
      </trkpt>
      <trkpt lat="45.3724" lon="2.97134">
        <ele>1181.59447</ele>
        <time>2021-07-08T08:54:21+0200</time>
      </trkpt>
      <trkpt lat="45.37235" lon="2.97138">
        <ele>1181.443409</ele>
        <time>2021-07-08T08:54:22+0200</time>
      </trkpt>
      <trkpt lat="45.3723" lon="2.97142">
        <ele>1181.526325</ele>
        <time>2021-07-08T08:54:23+0200</time>
      </trkpt>
      <trkpt lat="45.37225" lon="2.97146">
        <ele>1181.704904</ele>
        <time>2021-07-08T08:54:24+0200</time>
      </trkpt>
      <trkpt lat="45.37218" lon="2.97152">
        <ele>1181.894549</ele>
        <time>2021-07-08T08:54:26+0200</time>
      </trkpt>
      <trkpt lat="45.3721" lon="2.97158">
        <ele>1182.409948</ele>
        <time>2021-07-08T08:54:28+0200</time>
      </trkpt>
      <trkpt lat="45.37203" lon="2.97164">
        <ele>1183.165111</ele>
        <time>2021-07-08T08:54:30+0200</time>
      </trkpt>
      <trkpt lat="45.37195" lon="2.9717">
        <ele>1183.747404</ele>
        <time>2021-07-08T08:54:32+0200</time>
      </trkpt>
      <trkpt lat="45.37187" lon="2.97175">
        <ele>1184.245682</ele>
        <time>2021-07-08T08:54:34+0200</time>
      </trkpt>
      <trkpt lat="45.37179" lon="2.9718">
        <ele>1184.445886</ele>
        <time>2021-07-08T08:54:36+0200</time>
      </trkpt>
      <trkpt lat="45.37171" lon="2.97185">
        <ele>1184.346854</ele>
        <time>2021-07-08T08:54:38+0200</time>
      </trkpt>
      <trkpt lat="45.37167" lon="2.97187">
        <ele>1184.268239</ele>
        <time>2021-07-08T08:54:39+0200</time>
      </trkpt>
      <trkpt lat="45.37162" lon="2.97189">
        <ele>1184.311297</ele>
        <time>2021-07-08T08:54:40+0200</time>
      </trkpt>
      <trkpt lat="45.37158" lon="2.9719">
        <ele>1184.317706</ele>
        <time>2021-07-08T08:54:41+0200</time>
      </trkpt>
      <trkpt lat="45.37152" lon="2.97192">
        <ele>1184.30177</ele>
        <time>2021-07-08T08:54:42+0200</time>
      </trkpt>
      <trkpt lat="45.37147" lon="2.97194">
        <ele>1184.387588</ele>
        <time>2021-07-08T08:54:43+0200</time>
      </trkpt>
      <trkpt lat="45.37142" lon="2.97197">
        <ele>1184.4372</ele>
        <time>2021-07-08T08:54:44+0200</time>
      </trkpt>
      <trkpt lat="45.37137" lon="2.97199">
        <ele>1184.625735</ele>
        <time>2021-07-08T08:54:45+0200</time>
      </trkpt>
      <trkpt lat="45.37132" lon="2.97201">
        <ele>1184.669686</ele>
        <time>2021-07-08T08:54:46+0200</time>
      </trkpt>
      <trkpt lat="45.37127" lon="2.97203">
        <ele>1184.743366</ele>
        <time>2021-07-08T08:54:47+0200</time>
      </trkpt>
      <trkpt lat="45.37122" lon="2.97205">
        <ele>1184.808849</ele>
        <time>2021-07-08T08:54:48+0200</time>
      </trkpt>
      <trkpt lat="45.37117" lon="2.97207">
        <ele>1184.818614</ele>
        <time>2021-07-08T08:54:49+0200</time>
      </trkpt>
      <trkpt lat="45.37112" lon="2.9721">
        <ele>1184.814026</ele>
        <time>2021-07-08T08:54:50+0200</time>
      </trkpt>
      <trkpt lat="45.37106" lon="2.97212">
        <ele>1184.868963</ele>
        <time>2021-07-08T08:54:51+0200</time>
      </trkpt>
      <trkpt lat="45.37101" lon="2.97214">
        <ele>1184.847185</ele>
        <time>2021-07-08T08:54:52+0200</time>
      </trkpt>
      <trkpt lat="45.37096" lon="2.97216">
        <ele>1184.84132</ele>
        <time>2021-07-08T08:54:53+0200</time>
      </trkpt>
      <trkpt lat="45.37092" lon="2.97219">
        <ele>1184.716473</ele>
        <time>2021-07-08T08:54:54+0200</time>
      </trkpt>
      <trkpt lat="45.37086" lon="2.97221">
        <ele>1184.568585</ele>
        <time>2021-07-08T08:54:55+0200</time>
      </trkpt>
      <trkpt lat="45.37082" lon="2.97223">
        <ele>1184.43549</ele>
        <time>2021-07-08T08:54:56+0200</time>
      </trkpt>
      <trkpt lat="45.37077" lon="2.97225">
        <ele>1184.491869</ele>
        <time>2021-07-08T08:54:57+0200</time>
      </trkpt>
      <trkpt lat="45.37072" lon="2.97227">
        <ele>1184.660275</ele>
        <time>2021-07-08T08:54:58+0200</time>
      </trkpt>
      <trkpt lat="45.37067" lon="2.97228">
        <ele>1184.945395</ele>
        <time>2021-07-08T08:54:59+0200</time>
      </trkpt>
      <trkpt lat="45.37062" lon="2.97229">
        <ele>1185.161269</ele>
        <time>2021-07-08T08:55:00+0200</time>
      </trkpt>
      <trkpt lat="45.37058" lon="2.97231">
        <ele>1185.236028</ele>
        <time>2021-07-08T08:55:01+0200</time>
      </trkpt>
      <trkpt lat="45.37053" lon="2.97232">
        <ele>1185.375368</ele>
        <time>2021-07-08T08:55:02+0200</time>
      </trkpt>
      <trkpt lat="45.37045" lon="2.97231">
        <ele>1185.962875</ele>
        <time>2021-07-08T08:55:04+0200</time>
      </trkpt>
      <trkpt lat="45.3704" lon="2.9723">
        <ele>1186.332304</ele>
        <time>2021-07-08T08:55:05+0200</time>
      </trkpt>
      <trkpt lat="45.37035" lon="2.97229">
        <ele>1186.581969</ele>
        <time>2021-07-08T08:55:06+0200</time>
      </trkpt>
      <trkpt lat="45.37028" lon="2.97227">
        <ele>1187.430472</ele>
        <time>2021-07-08T08:55:08+0200</time>
      </trkpt>
      <trkpt lat="45.3702" lon="2.97224">
        <ele>1187.781458</ele>
        <time>2021-07-08T08:55:10+0200</time>
      </trkpt>
      <trkpt lat="45.37013" lon="2.97222">
        <ele>1188.161598</ele>
        <time>2021-07-08T08:55:12+0200</time>
      </trkpt>
      <trkpt lat="45.37006" lon="2.97217">
        <ele>1188.884876</ele>
        <time>2021-07-08T08:55:14+0200</time>
      </trkpt>
      <trkpt lat="45.36999" lon="2.97212">
        <ele>1189.578697</ele>
        <time>2021-07-08T08:55:16+0200</time>
      </trkpt>
      <trkpt lat="45.36993" lon="2.97207">
        <ele>1189.685852</ele>
        <time>2021-07-08T08:55:18+0200</time>
      </trkpt>
      <trkpt lat="45.36986" lon="2.97202">
        <ele>1190.381351</ele>
        <time>2021-07-08T08:55:21+0200</time>
      </trkpt>
      <trkpt lat="45.36979" lon="2.97197">
        <ele>1191.176058</ele>
        <time>2021-07-08T08:55:23+0200</time>
      </trkpt>
      <trkpt lat="45.36973" lon="2.97192">
        <ele>1191.953914</ele>
        <time>2021-07-08T08:55:25+0200</time>
      </trkpt>
      <trkpt lat="45.36966" lon="2.97187">
        <ele>1192.367112</ele>
        <time>2021-07-08T08:55:27+0200</time>
      </trkpt>
      <trkpt lat="45.3696" lon="2.97184">
        <ele>1192.63133</ele>
        <time>2021-07-08T08:55:28+0200</time>
      </trkpt>
      <trkpt lat="45.36953" lon="2.97183">
        <ele>1193.087792</ele>
        <time>2021-07-08T08:55:30+0200</time>
      </trkpt>
      <trkpt lat="45.36947" lon="2.9718">
        <ele>1193.391868</ele>
        <time>2021-07-08T08:55:33+0200</time>
      </trkpt>
      <trkpt lat="45.36941" lon="2.97179">
        <ele>1193.576915</ele>
        <time>2021-07-08T08:55:34+0200</time>
      </trkpt>
      <trkpt lat="45.36935" lon="2.97178">
        <ele>1193.855771</ele>
        <time>2021-07-08T08:55:36+0200</time>
      </trkpt>
      <trkpt lat="45.3693" lon="2.97176">
        <ele>1194.075507</ele>
        <time>2021-07-08T08:55:39+0200</time>
      </trkpt>
      <trkpt lat="45.36924" lon="2.97174">
        <ele>1194.346459</ele>
        <time>2021-07-08T08:55:41+0200</time>
      </trkpt>
      <trkpt lat="45.36918" lon="2.97172">
        <ele>1194.907189</ele>
        <time>2021-07-08T08:55:43+0200</time>
      </trkpt>
      <trkpt lat="45.36913" lon="2.9717">
        <ele>1195.573746</ele>
        <time>2021-07-08T08:55:45+0200</time>
      </trkpt>
      <trkpt lat="45.36908" lon="2.97168">
        <ele>1196.089789</ele>
        <time>2021-07-08T08:55:47+0200</time>
      </trkpt>
      <trkpt lat="45.36902" lon="2.97169">
        <ele>1196.61212</ele>
        <time>2021-07-08T08:55:49+0200</time>
      </trkpt>
      <trkpt lat="45.36895" lon="2.97168">
        <ele>1196.931889</ele>
        <time>2021-07-08T08:55:51+0200</time>
      </trkpt>
      <trkpt lat="45.3689" lon="2.97167">
        <ele>1197.312896</ele>
        <time>2021-07-08T08:55:53+0200</time>
      </trkpt>
      <trkpt lat="45.36884" lon="2.97167">
        <ele>1197.260626</ele>
        <time>2021-07-08T08:55:55+0200</time>
      </trkpt>
      <trkpt lat="45.36879" lon="2.97166">
        <ele>1197.990043</ele>
        <time>2021-07-08T08:55:57+0200</time>
      </trkpt>
      <trkpt lat="45.36872" lon="2.97167">
        <ele>1198.697359</ele>
        <time>2021-07-08T08:55:59+0200</time>
      </trkpt>
      <trkpt lat="45.36866" lon="2.97168">
        <ele>1199.065901</ele>
        <time>2021-07-08T08:56:01+0200</time>
      </trkpt>
      <trkpt lat="45.3686" lon="2.97168">
        <ele>1199.317895</ele>
        <time>2021-07-08T08:56:03+0200</time>
      </trkpt>
      <trkpt lat="45.36855" lon="2.97168">
        <ele>1199.597278</ele>
        <time>2021-07-08T08:56:05+0200</time>
      </trkpt>
      <trkpt lat="45.36849" lon="2.97168">
        <ele>1199.921123</ele>
        <time>2021-07-08T08:56:07+0200</time>
      </trkpt>
      <trkpt lat="45.36842" lon="2.97168">
        <ele>1200.173787</ele>
        <time>2021-07-08T08:56:09+0200</time>
      </trkpt>
      <trkpt lat="45.36836" lon="2.97168">
        <ele>1200.50974</ele>
        <time>2021-07-08T08:56:11+0200</time>
      </trkpt>
      <trkpt lat="45.3683" lon="2.97168">
        <ele>1201.327988</ele>
        <time>2021-07-08T08:56:13+0200</time>
      </trkpt>
      <trkpt lat="45.36825" lon="2.97167">
        <ele>1202.244712</ele>
        <time>2021-07-08T08:56:15+0200</time>
      </trkpt>
      <trkpt lat="45.36818" lon="2.97167">
        <ele>1202.506052</ele>
        <time>2021-07-08T08:56:17+0200</time>
      </trkpt>
      <trkpt lat="45.36813" lon="2.97167">
        <ele>1202.574239</ele>
        <time>2021-07-08T08:56:19+0200</time>
      </trkpt>
      <trkpt lat="45.36807" lon="2.97168">
        <ele>1203.049419</ele>
        <time>2021-07-08T08:56:21+0200</time>
      </trkpt>
      <trkpt lat="45.36801" lon="2.97167">
        <ele>1203.827812</ele>
        <time>2021-07-08T08:56:23+0200</time>
      </trkpt>
      <trkpt lat="45.36795" lon="2.97167">
        <ele>1204.340383</ele>
        <time>2021-07-08T08:56:25+0200</time>
      </trkpt>
      <trkpt lat="45.36789" lon="2.97167">
        <ele>1204.66099</ele>
        <time>2021-07-08T08:56:27+0200</time>
      </trkpt>
      <trkpt lat="45.36783" lon="2.97166">
        <ele>1205.012579</ele>
        <time>2021-07-08T08:56:29+0200</time>
      </trkpt>
      <trkpt lat="45.36777" lon="2.97165">
        <ele>1205.222957</ele>
        <time>2021-07-08T08:56:31+0200</time>
      </trkpt>
      <trkpt lat="45.36772" lon="2.97164">
        <ele>1205.773078</ele>
        <time>2021-07-08T08:56:33+0200</time>
      </trkpt>
      <trkpt lat="45.36765" lon="2.97161">
        <ele>1205.849894</ele>
        <time>2021-07-08T08:56:35+0200</time>
      </trkpt>
      <trkpt lat="45.36759" lon="2.97161">
        <ele>1206.025508</ele>
        <time>2021-07-08T08:56:37+0200</time>
      </trkpt>
      <trkpt lat="45.36752" lon="2.97157">
        <ele>1206.787091</ele>
        <time>2021-07-08T08:56:39+0200</time>
      </trkpt>
      <trkpt lat="45.36745" lon="2.97155">
        <ele>1206.893218</ele>
        <time>2021-07-08T08:56:41+0200</time>
      </trkpt>
      <trkpt lat="45.36739" lon="2.9715">
        <ele>1207.400702</ele>
        <time>2021-07-08T08:56:43+0200</time>
      </trkpt>
      <trkpt lat="45.36732" lon="2.97148">
        <ele>1207.406793</ele>
        <time>2021-07-08T08:56:45+0200</time>
      </trkpt>
      <trkpt lat="45.36726" lon="2.97146">
        <ele>1207.695973</ele>
        <time>2021-07-08T08:56:47+0200</time>
      </trkpt>
      <trkpt lat="45.36719" lon="2.97144">
        <ele>1207.743141</ele>
        <time>2021-07-08T08:56:49+0200</time>
      </trkpt>
      <trkpt lat="45.36712" lon="2.97141">
        <ele>1207.774287</ele>
        <time>2021-07-08T08:56:51+0200</time>
      </trkpt>
      <trkpt lat="45.36705" lon="2.97138">
        <ele>1207.879102</ele>
        <time>2021-07-08T08:56:53+0200</time>
      </trkpt>
      <trkpt lat="45.36697" lon="2.97135">
        <ele>1207.623937</ele>
        <time>2021-07-08T08:56:55+0200</time>
      </trkpt>
      <trkpt lat="45.3669" lon="2.97131">
        <ele>1207.716051</ele>
        <time>2021-07-08T08:56:57+0200</time>
      </trkpt>
      <trkpt lat="45.36683" lon="2.97126">
        <ele>1208.042136</ele>
        <time>2021-07-08T08:56:59+0200</time>
      </trkpt>
      <trkpt lat="45.36676" lon="2.97119">
        <ele>1208.348251</ele>
        <time>2021-07-08T08:57:01+0200</time>
      </trkpt>
      <trkpt lat="45.36669" lon="2.9711">
        <ele>1208.750927</ele>
        <time>2021-07-08T08:57:03+0200</time>
      </trkpt>
      <trkpt lat="45.36666" lon="2.97105">
        <ele>1209.044427</ele>
        <time>2021-07-08T08:57:04+0200</time>
      </trkpt>
      <trkpt lat="45.36659" lon="2.97096">
        <ele>1208.704218</ele>
        <time>2021-07-08T08:57:06+0200</time>
      </trkpt>
      <trkpt lat="45.36653" lon="2.97089">
        <ele>1208.697027</ele>
        <time>2021-07-08T08:57:08+0200</time>
      </trkpt>
      <trkpt lat="45.36646" lon="2.97081">
        <ele>1208.712087</ele>
        <time>2021-07-08T08:57:10+0200</time>
      </trkpt>
      <trkpt lat="45.3664" lon="2.97074">
        <ele>1208.848185</ele>
        <time>2021-07-08T08:57:12+0200</time>
      </trkpt>
      <trkpt lat="45.36632" lon="2.97066">
        <ele>1209.071954</ele>
        <time>2021-07-08T08:57:14+0200</time>
      </trkpt>
      <trkpt lat="45.36629" lon="2.97062">
        <ele>1209.240894</ele>
        <time>2021-07-08T08:57:15+0200</time>
      </trkpt>
      <trkpt lat="45.36625" lon="2.97058">
        <ele>1209.554093</ele>
        <time>2021-07-08T08:57:16+0200</time>
      </trkpt>
      <trkpt lat="45.36621" lon="2.97055">
        <ele>1209.838955</ele>
        <time>2021-07-08T08:57:17+0200</time>
      </trkpt>
      <trkpt lat="45.36612" lon="2.97053">
        <ele>1210.122738</ele>
        <time>2021-07-08T08:57:19+0200</time>
      </trkpt>
      <trkpt lat="45.36607" lon="2.97053">
        <ele>1210.126725</ele>
        <time>2021-07-08T08:57:20+0200</time>
      </trkpt>
      <trkpt lat="45.36599" lon="2.97054">
        <ele>1210.289543</ele>
        <time>2021-07-08T08:57:22+0200</time>
      </trkpt>
      <trkpt lat="45.36591" lon="2.97055">
        <ele>1210.398214</ele>
        <time>2021-07-08T08:57:24+0200</time>
      </trkpt>
      <trkpt lat="45.36584" lon="2.97057">
        <ele>1210.690135</ele>
        <time>2021-07-08T08:57:26+0200</time>
      </trkpt>
      <trkpt lat="45.36578" lon="2.97057">
        <ele>1211.256046</ele>
        <time>2021-07-08T08:57:28+0200</time>
      </trkpt>
      <trkpt lat="45.36572" lon="2.97056">
        <ele>1211.644015</ele>
        <time>2021-07-08T08:57:30+0200</time>
      </trkpt>
      <trkpt lat="45.36566" lon="2.97056">
        <ele>1211.246546</ele>
        <time>2021-07-08T08:57:32+0200</time>
      </trkpt>
      <trkpt lat="45.3656" lon="2.97056">
        <ele>1211.097664</ele>
        <time>2021-07-08T08:57:34+0200</time>
      </trkpt>
      <trkpt lat="45.36553" lon="2.97058">
        <ele>1210.787604</ele>
        <time>2021-07-08T08:57:36+0200</time>
      </trkpt>
      <trkpt lat="45.36546" lon="2.97053">
        <ele>1211.617774</ele>
        <time>2021-07-08T08:57:38+0200</time>
      </trkpt>
      <trkpt lat="45.36541" lon="2.97048">
        <ele>1211.936542</ele>
        <time>2021-07-08T08:57:41+0200</time>
      </trkpt>
      <trkpt lat="45.36537" lon="2.97045">
        <ele>1213.059119</ele>
        <time>2021-07-08T08:57:44+0200</time>
      </trkpt>
      <trkpt lat="45.36531" lon="2.97041">
        <ele>1213.149899</ele>
        <time>2021-07-08T08:57:47+0200</time>
      </trkpt>
      <trkpt lat="45.36527" lon="2.97037">
        <ele>1213.50728</ele>
        <time>2021-07-08T08:57:49+0200</time>
      </trkpt>
      <trkpt lat="45.36522" lon="2.97034">
        <ele>1214.716277</ele>
        <time>2021-07-08T08:57:51+0200</time>
      </trkpt>
      <trkpt lat="45.36516" lon="2.97028">
        <ele>1214.957971</ele>
        <time>2021-07-08T08:57:53+0200</time>
      </trkpt>
      <trkpt lat="45.36513" lon="2.97024">
        <ele>1214.877637</ele>
        <time>2021-07-08T08:57:56+0200</time>
      </trkpt>
      <trkpt lat="45.36508" lon="2.97024">
        <ele>1213.953908</ele>
        <time>2021-07-08T08:58:23+0200</time>
      </trkpt>
      <trkpt lat="45.36513" lon="2.97025">
        <ele>1213.480604</ele>
        <time>2021-07-08T08:58:43+0200</time>
      </trkpt>
      <trkpt lat="45.3651" lon="2.9702">
        <ele>1214.816276</ele>
        <time>2021-07-08T08:59:02+0200</time>
      </trkpt>
      <trkpt lat="45.36505" lon="2.97018">
        <ele>1215.161444</ele>
        <time>2021-07-08T08:59:05+0200</time>
      </trkpt>
      <trkpt lat="45.36499" lon="2.97013">
        <ele>1215.501467</ele>
        <time>2021-07-08T08:59:08+0200</time>
      </trkpt>
      <trkpt lat="45.36496" lon="2.97008">
        <ele>1215.698266</ele>
        <time>2021-07-08T08:59:10+0200</time>
      </trkpt>
      <trkpt lat="45.36491" lon="2.97004">
        <ele>1215.935682</ele>
        <time>2021-07-08T08:59:12+0200</time>
      </trkpt>
      <trkpt lat="45.36486" lon="2.96999">
        <ele>1216.11641</ele>
        <time>2021-07-08T08:59:14+0200</time>
      </trkpt>
      <trkpt lat="45.36482" lon="2.96993">
        <ele>1216.972075</ele>
        <time>2021-07-08T08:59:16+0200</time>
      </trkpt>
      <trkpt lat="45.36476" lon="2.96989">
        <ele>1217.344485</ele>
        <time>2021-07-08T08:59:18+0200</time>
      </trkpt>
      <trkpt lat="45.36471" lon="2.96984">
        <ele>1217.852609</ele>
        <time>2021-07-08T08:59:20+0200</time>
      </trkpt>
      <trkpt lat="45.36465" lon="2.9698">
        <ele>1217.723567</ele>
        <time>2021-07-08T08:59:22+0200</time>
      </trkpt>
      <trkpt lat="45.36459" lon="2.96975">
        <ele>1217.542449</ele>
        <time>2021-07-08T08:59:24+0200</time>
      </trkpt>
      <trkpt lat="45.36455" lon="2.9697">
        <ele>1217.637379</ele>
        <time>2021-07-08T08:59:26+0200</time>
      </trkpt>
      <trkpt lat="45.36449" lon="2.96965">
        <ele>1217.514041</ele>
        <time>2021-07-08T08:59:28+0200</time>
      </trkpt>
      <trkpt lat="45.36445" lon="2.96959">
        <ele>1217.80452</ele>
        <time>2021-07-08T08:59:30+0200</time>
      </trkpt>
      <trkpt lat="45.36439" lon="2.96953">
        <ele>1218.051889</ele>
        <time>2021-07-08T08:59:32+0200</time>
      </trkpt>
      <trkpt lat="45.36434" lon="2.96949">
        <ele>1218.673275</ele>
        <time>2021-07-08T08:59:34+0200</time>
      </trkpt>
      <trkpt lat="45.36428" lon="2.96945">
        <ele>1219.478252</ele>
        <time>2021-07-08T08:59:36+0200</time>
      </trkpt>
      <trkpt lat="45.36422" lon="2.96941">
        <ele>1220.099561</ele>
        <time>2021-07-08T08:59:38+0200</time>
      </trkpt>
      <trkpt lat="45.36416" lon="2.96936">
        <ele>1220.802534</ele>
        <time>2021-07-08T08:59:40+0200</time>
      </trkpt>
      <trkpt lat="45.36412" lon="2.96933">
        <ele>1222.26994</ele>
        <time>2021-07-08T08:59:42+0200</time>
      </trkpt>
      <trkpt lat="45.36406" lon="2.96933">
        <ele>1222.513136</ele>
        <time>2021-07-08T08:59:44+0200</time>
      </trkpt>
      <trkpt lat="45.36401" lon="2.96936">
        <ele>1222.258964</ele>
        <time>2021-07-08T08:59:46+0200</time>
      </trkpt>
      <trkpt lat="45.36393" lon="2.96937">
        <ele>1221.52515</ele>
        <time>2021-07-08T08:59:48+0200</time>
      </trkpt>
      <trkpt lat="45.36386" lon="2.96939">
        <ele>1220.852033</ele>
        <time>2021-07-08T08:59:50+0200</time>
      </trkpt>
      <trkpt lat="45.36379" lon="2.96942">
        <ele>1219.85583</ele>
        <time>2021-07-08T08:59:52+0200</time>
      </trkpt>
      <trkpt lat="45.36373" lon="2.96944">
        <ele>1219.607575</ele>
        <time>2021-07-08T08:59:54+0200</time>
      </trkpt>
      <trkpt lat="45.36367" lon="2.96947">
        <ele>1219.209574</ele>
        <time>2021-07-08T08:59:56+0200</time>
      </trkpt>
      <trkpt lat="45.36359" lon="2.96951">
        <ele>1218.415601</ele>
        <time>2021-07-08T08:59:58+0200</time>
      </trkpt>
      <trkpt lat="45.36354" lon="2.96954">
        <ele>1218.111335</ele>
        <time>2021-07-08T08:59:59+0200</time>
      </trkpt>
      <trkpt lat="45.36348" lon="2.96962">
        <ele>1218.168357</ele>
        <time>2021-07-08T09:00:01+0200</time>
      </trkpt>
      <trkpt lat="45.36343" lon="2.96963">
        <ele>1218.32842</ele>
        <time>2021-07-08T09:00:02+0200</time>
      </trkpt>
      <trkpt lat="45.36336" lon="2.96966">
        <ele>1219.086823</ele>
        <time>2021-07-08T09:00:04+0200</time>
      </trkpt>
      <trkpt lat="45.36329" lon="2.9697">
        <ele>1219.578014</ele>
        <time>2021-07-08T09:00:06+0200</time>
      </trkpt>
      <trkpt lat="45.36324" lon="2.96972">
        <ele>1219.441539</ele>
        <time>2021-07-08T09:00:08+0200</time>
      </trkpt>
      <trkpt lat="45.36318" lon="2.96975">
        <ele>1220.176202</ele>
        <time>2021-07-08T09:00:10+0200</time>
      </trkpt>
      <trkpt lat="45.36312" lon="2.96977">
        <ele>1220.256111</ele>
        <time>2021-07-08T09:00:12+0200</time>
      </trkpt>
      <trkpt lat="45.36306" lon="2.96979">
        <ele>1220.113615</ele>
        <time>2021-07-08T09:00:14+0200</time>
      </trkpt>
      <trkpt lat="45.363" lon="2.96983">
        <ele>1220.317189</ele>
        <time>2021-07-08T09:00:16+0200</time>
      </trkpt>
      <trkpt lat="45.36296" lon="2.9699">
        <ele>1221.362015</ele>
        <time>2021-07-08T09:00:18+0200</time>
      </trkpt>
      <trkpt lat="45.36293" lon="2.96997">
        <ele>1221.453323</ele>
        <time>2021-07-08T09:00:20+0200</time>
      </trkpt>
      <trkpt lat="45.36288" lon="2.97005">
        <ele>1222.088076</ele>
        <time>2021-07-08T09:00:22+0200</time>
      </trkpt>
      <trkpt lat="45.36284" lon="2.97012">
        <ele>1222.56681</ele>
        <time>2021-07-08T09:00:24+0200</time>
      </trkpt>
      <trkpt lat="45.36281" lon="2.97019">
        <ele>1222.617</ele>
        <time>2021-07-08T09:00:26+0200</time>
      </trkpt>
      <trkpt lat="45.36277" lon="2.97024">
        <ele>1222.968669</ele>
        <time>2021-07-08T09:00:28+0200</time>
      </trkpt>
      <trkpt lat="45.36273" lon="2.9703">
        <ele>1223.666396</ele>
        <time>2021-07-08T09:00:30+0200</time>
      </trkpt>
      <trkpt lat="45.36269" lon="2.97037">
        <ele>1224.855826</ele>
        <time>2021-07-08T09:00:33+0200</time>
      </trkpt>
      <trkpt lat="45.36265" lon="2.97041">
        <ele>1226.167593</ele>
        <time>2021-07-08T09:00:36+0200</time>
      </trkpt>
      <trkpt lat="45.3626" lon="2.97043">
        <ele>1228.371222</ele>
        <time>2021-07-08T09:00:42+0200</time>
      </trkpt>
      <trkpt lat="45.36257" lon="2.97039">
        <ele>1228.272904</ele>
        <time>2021-07-08T09:00:45+0200</time>
      </trkpt>
      <trkpt lat="45.36252" lon="2.97033">
        <ele>1229.033718</ele>
        <time>2021-07-08T09:00:48+0200</time>
      </trkpt>
      <trkpt lat="45.36246" lon="2.97031">
        <ele>1228.82389</ele>
        <time>2021-07-08T09:00:54+0200</time>
      </trkpt>
      <trkpt lat="45.36243" lon="2.97024">
        <ele>1229.926053</ele>
        <time>2021-07-08T09:00:57+0200</time>
      </trkpt>
      <trkpt lat="45.3624" lon="2.97018">
        <ele>1230.001266</ele>
        <time>2021-07-08T09:00:59+0200</time>
      </trkpt>
      <trkpt lat="45.36237" lon="2.97014">
        <ele>1230.338577</ele>
        <time>2021-07-08T09:01:01+0200</time>
      </trkpt>
      <trkpt lat="45.36232" lon="2.97009">
        <ele>1230.752914</ele>
        <time>2021-07-08T09:01:03+0200</time>
      </trkpt>
      <trkpt lat="45.36228" lon="2.97004">
        <ele>1230.644071</ele>
        <time>2021-07-08T09:01:05+0200</time>
      </trkpt>
      <trkpt lat="45.36223" lon="2.96999">
        <ele>1231.126246</ele>
        <time>2021-07-08T09:01:07+0200</time>
      </trkpt>
      <trkpt lat="45.36217" lon="2.96994">
        <ele>1230.297951</ele>
        <time>2021-07-08T09:01:09+0200</time>
      </trkpt>
      <trkpt lat="45.36213" lon="2.96988">
        <ele>1230.710604</ele>
        <time>2021-07-08T09:01:11+0200</time>
      </trkpt>
      <trkpt lat="45.36209" lon="2.96983">
        <ele>1231.306647</ele>
        <time>2021-07-08T09:01:13+0200</time>
      </trkpt>
      <trkpt lat="45.36203" lon="2.96978">
        <ele>1231.39777</ele>
        <time>2021-07-08T09:01:15+0200</time>
      </trkpt>
      <trkpt lat="45.36198" lon="2.96971">
        <ele>1231.456433</ele>
        <time>2021-07-08T09:01:17+0200</time>
      </trkpt>
      <trkpt lat="45.36192" lon="2.96964">
        <ele>1231.955392</ele>
        <time>2021-07-08T09:01:19+0200</time>
      </trkpt>
      <trkpt lat="45.36187" lon="2.9696">
        <ele>1232.146621</ele>
        <time>2021-07-08T09:01:21+0200</time>
      </trkpt>
      <trkpt lat="45.36181" lon="2.96955">
        <ele>1232.522406</ele>
        <time>2021-07-08T09:01:23+0200</time>
      </trkpt>
      <trkpt lat="45.36177" lon="2.96952">
        <ele>1233.135786</ele>
        <time>2021-07-08T09:01:25+0200</time>
      </trkpt>
      <trkpt lat="45.36173" lon="2.96947">
        <ele>1233.485147</ele>
        <time>2021-07-08T09:01:27+0200</time>
      </trkpt>
      <trkpt lat="45.36167" lon="2.96942">
        <ele>1233.324566</ele>
        <time>2021-07-08T09:01:29+0200</time>
      </trkpt>
      <trkpt lat="45.36161" lon="2.96937">
        <ele>1233.488142</ele>
        <time>2021-07-08T09:01:31+0200</time>
      </trkpt>
      <trkpt lat="45.36155" lon="2.96934">
        <ele>1234.516207</ele>
        <time>2021-07-08T09:01:33+0200</time>
      </trkpt>
      <trkpt lat="45.3615" lon="2.9693">
        <ele>1235.427933</ele>
        <time>2021-07-08T09:01:35+0200</time>
      </trkpt>
      <trkpt lat="45.36145" lon="2.96925">
        <ele>1235.661307</ele>
        <time>2021-07-08T09:01:37+0200</time>
      </trkpt>
      <trkpt lat="45.36141" lon="2.96919">
        <ele>1235.708205</ele>
        <time>2021-07-08T09:01:39+0200</time>
      </trkpt>
      <trkpt lat="45.36136" lon="2.96913">
        <ele>1235.933482</ele>
        <time>2021-07-08T09:01:41+0200</time>
      </trkpt>
      <trkpt lat="45.36131" lon="2.96906">
        <ele>1236.333424</ele>
        <time>2021-07-08T09:01:43+0200</time>
      </trkpt>
      <trkpt lat="45.36127" lon="2.96896">
        <ele>1236.474755</ele>
        <time>2021-07-08T09:01:45+0200</time>
      </trkpt>
      <trkpt lat="45.36124" lon="2.96887">
        <ele>1236.390734</ele>
        <time>2021-07-08T09:01:47+0200</time>
      </trkpt>
      <trkpt lat="45.36122" lon="2.96878">
        <ele>1236.641693</ele>
        <time>2021-07-08T09:01:49+0200</time>
      </trkpt>
      <trkpt lat="45.36121" lon="2.96867">
        <ele>1236.624222</ele>
        <time>2021-07-08T09:01:51+0200</time>
      </trkpt>
      <trkpt lat="45.3612" lon="2.9686">
        <ele>1236.725376</ele>
        <time>2021-07-08T09:01:52+0200</time>
      </trkpt>
      <trkpt lat="45.36118" lon="2.96849">
        <ele>1237.184641</ele>
        <time>2021-07-08T09:01:54+0200</time>
      </trkpt>
      <trkpt lat="45.36117" lon="2.96838">
        <ele>1237.123524</ele>
        <time>2021-07-08T09:01:56+0200</time>
      </trkpt>
      <trkpt lat="45.36116" lon="2.96828">
        <ele>1237.249795</ele>
        <time>2021-07-08T09:01:58+0200</time>
      </trkpt>
      <trkpt lat="45.36116" lon="2.9682">
        <ele>1236.854433</ele>
        <time>2021-07-08T09:02:00+0200</time>
      </trkpt>
      <trkpt lat="45.36115" lon="2.9681">
        <ele>1236.942763</ele>
        <time>2021-07-08T09:02:02+0200</time>
      </trkpt>
      <trkpt lat="45.36113" lon="2.96802">
        <ele>1236.789862</ele>
        <time>2021-07-08T09:02:04+0200</time>
      </trkpt>
      <trkpt lat="45.36111" lon="2.96792">
        <ele>1236.975103</ele>
        <time>2021-07-08T09:02:06+0200</time>
      </trkpt>
      <trkpt lat="45.3611" lon="2.96782">
        <ele>1237.05225</ele>
        <time>2021-07-08T09:02:08+0200</time>
      </trkpt>
      <trkpt lat="45.36108" lon="2.96772">
        <ele>1237.504337</ele>
        <time>2021-07-08T09:02:10+0200</time>
      </trkpt>
      <trkpt lat="45.36106" lon="2.96763">
        <ele>1237.497561</ele>
        <time>2021-07-08T09:02:12+0200</time>
      </trkpt>
      <trkpt lat="45.36104" lon="2.96754">
        <ele>1237.2814</ele>
        <time>2021-07-08T09:02:14+0200</time>
      </trkpt>
      <trkpt lat="45.36101" lon="2.96745">
        <ele>1237.392747</ele>
        <time>2021-07-08T09:02:16+0200</time>
      </trkpt>
      <trkpt lat="45.36099" lon="2.96735">
        <ele>1237.941128</ele>
        <time>2021-07-08T09:02:18+0200</time>
      </trkpt>
      <trkpt lat="45.36097" lon="2.96726">
        <ele>1238.157144</ele>
        <time>2021-07-08T09:02:20+0200</time>
      </trkpt>
      <trkpt lat="45.36095" lon="2.96717">
        <ele>1238.491814</ele>
        <time>2021-07-08T09:02:22+0200</time>
      </trkpt>
      <trkpt lat="45.36092" lon="2.96707">
        <ele>1239.145024</ele>
        <time>2021-07-08T09:02:24+0200</time>
      </trkpt>
      <trkpt lat="45.36089" lon="2.96697">
        <ele>1239.952691</ele>
        <time>2021-07-08T09:02:26+0200</time>
      </trkpt>
      <trkpt lat="45.36087" lon="2.96688">
        <ele>1240.288653</ele>
        <time>2021-07-08T09:02:28+0200</time>
      </trkpt>
      <trkpt lat="45.36084" lon="2.96679">
        <ele>1240.852543</ele>
        <time>2021-07-08T09:02:30+0200</time>
      </trkpt>
      <trkpt lat="45.36081" lon="2.96669">
        <ele>1241.286124</ele>
        <time>2021-07-08T09:02:32+0200</time>
      </trkpt>
      <trkpt lat="45.36078" lon="2.9666">
        <ele>1241.601432</ele>
        <time>2021-07-08T09:02:34+0200</time>
      </trkpt>
      <trkpt lat="45.36074" lon="2.96653">
        <ele>1241.748925</ele>
        <time>2021-07-08T09:02:36+0200</time>
      </trkpt>
      <trkpt lat="45.3607" lon="2.96646">
        <ele>1242.253305</ele>
        <time>2021-07-08T09:02:38+0200</time>
      </trkpt>
      <trkpt lat="45.36065" lon="2.96639">
        <ele>1242.172128</ele>
        <time>2021-07-08T09:02:40+0200</time>
      </trkpt>
      <trkpt lat="45.36061" lon="2.96633">
        <ele>1242.486771</ele>
        <time>2021-07-08T09:02:42+0200</time>
      </trkpt>
      <trkpt lat="45.36057" lon="2.96627">
        <ele>1243.061205</ele>
        <time>2021-07-08T09:02:44+0200</time>
      </trkpt>
      <trkpt lat="45.36052" lon="2.96621">
        <ele>1243.342078</ele>
        <time>2021-07-08T09:02:46+0200</time>
      </trkpt>
      <trkpt lat="45.36048" lon="2.96616">
        <ele>1243.621943</ele>
        <time>2021-07-08T09:02:48+0200</time>
      </trkpt>
      <trkpt lat="45.36044" lon="2.9661">
        <ele>1244.106132</ele>
        <time>2021-07-08T09:02:50+0200</time>
      </trkpt>
      <trkpt lat="45.3604" lon="2.96602">
        <ele>1244.272076</ele>
        <time>2021-07-08T09:02:52+0200</time>
      </trkpt>
      <trkpt lat="45.36035" lon="2.96595">
        <ele>1245.049594</ele>
        <time>2021-07-08T09:02:54+0200</time>
      </trkpt>
      <trkpt lat="45.36031" lon="2.96588">
        <ele>1245.745127</ele>
        <time>2021-07-08T09:02:56+0200</time>
      </trkpt>
      <trkpt lat="45.36028" lon="2.96581">
        <ele>1246.146623</ele>
        <time>2021-07-08T09:02:58+0200</time>
      </trkpt>
      <trkpt lat="45.36025" lon="2.96574">
        <ele>1246.44624</ele>
        <time>2021-07-08T09:03:00+0200</time>
      </trkpt>
      <trkpt lat="45.36023" lon="2.96565">
        <ele>1247.107711</ele>
        <time>2021-07-08T09:03:02+0200</time>
      </trkpt>
      <trkpt lat="45.36023" lon="2.96557">
        <ele>1247.128142</ele>
        <time>2021-07-08T09:03:04+0200</time>
      </trkpt>
      <trkpt lat="45.36021" lon="2.96549">
        <ele>1247.069468</ele>
        <time>2021-07-08T09:03:06+0200</time>
      </trkpt>
      <trkpt lat="45.3602" lon="2.96541">
        <ele>1247.304337</ele>
        <time>2021-07-08T09:03:08+0200</time>
      </trkpt>
      <trkpt lat="45.36019" lon="2.96534">
        <ele>1247.725703</ele>
        <time>2021-07-08T09:03:10+0200</time>
      </trkpt>
      <trkpt lat="45.36017" lon="2.96525">
        <ele>1248.005428</ele>
        <time>2021-07-08T09:03:12+0200</time>
      </trkpt>
      <trkpt lat="45.36014" lon="2.96517">
        <ele>1248.452981</ele>
        <time>2021-07-08T09:03:14+0200</time>
      </trkpt>
      <trkpt lat="45.36013" lon="2.96509">
        <ele>1248.624223</ele>
        <time>2021-07-08T09:03:16+0200</time>
      </trkpt>
      <trkpt lat="45.3601" lon="2.965">
        <ele>1248.864154</ele>
        <time>2021-07-08T09:03:18+0200</time>
      </trkpt>
      <trkpt lat="45.36008" lon="2.96493">
        <ele>1249.399998</ele>
        <time>2021-07-08T09:03:20+0200</time>
      </trkpt>
      <trkpt lat="45.36005" lon="2.96486">
        <ele>1249.837554</ele>
        <time>2021-07-08T09:03:22+0200</time>
      </trkpt>
      <trkpt lat="45.36002" lon="2.96479">
        <ele>1250.161375</ele>
        <time>2021-07-08T09:03:24+0200</time>
      </trkpt>
      <trkpt lat="45.35998" lon="2.96472">
        <ele>1250.497293</ele>
        <time>2021-07-08T09:03:26+0200</time>
      </trkpt>
      <trkpt lat="45.35995" lon="2.96464">
        <ele>1251.006075</ele>
        <time>2021-07-08T09:03:28+0200</time>
      </trkpt>
      <trkpt lat="45.35992" lon="2.96456">
        <ele>1251.773938</ele>
        <time>2021-07-08T09:03:30+0200</time>
      </trkpt>
      <trkpt lat="45.35988" lon="2.9645">
        <ele>1252.113258</ele>
        <time>2021-07-08T09:03:32+0200</time>
      </trkpt>
      <trkpt lat="45.35984" lon="2.96443">
        <ele>1252.424653</ele>
        <time>2021-07-08T09:03:34+0200</time>
      </trkpt>
      <trkpt lat="45.3598" lon="2.96436">
        <ele>1252.499967</ele>
        <time>2021-07-08T09:03:36+0200</time>
      </trkpt>
      <trkpt lat="45.35976" lon="2.96429">
        <ele>1252.754255</ele>
        <time>2021-07-08T09:03:38+0200</time>
      </trkpt>
      <trkpt lat="45.35971" lon="2.96423">
        <ele>1253.054633</ele>
        <time>2021-07-08T09:03:40+0200</time>
      </trkpt>
      <trkpt lat="45.35967" lon="2.96416">
        <ele>1253.647239</ele>
        <time>2021-07-08T09:03:42+0200</time>
      </trkpt>
      <trkpt lat="45.35964" lon="2.96411">
        <ele>1253.89807</ele>
        <time>2021-07-08T09:03:44+0200</time>
      </trkpt>
      <trkpt lat="45.35961" lon="2.96405">
        <ele>1253.96767</ele>
        <time>2021-07-08T09:03:46+0200</time>
      </trkpt>
      <trkpt lat="45.35958" lon="2.96399">
        <ele>1254.047835</ele>
        <time>2021-07-08T09:03:50+0200</time>
      </trkpt>
      <trkpt lat="45.35954" lon="2.96392">
        <ele>1254.432695</ele>
        <time>2021-07-08T09:03:54+0200</time>
      </trkpt>
      <trkpt lat="45.35952" lon="2.96387">
        <ele>1254.545578</ele>
        <time>2021-07-08T09:03:57+0200</time>
      </trkpt>
      <trkpt lat="45.35949" lon="2.96381">
        <ele>1254.167477</ele>
        <time>2021-07-08T09:04:01+0200</time>
      </trkpt>
      <trkpt lat="45.35946" lon="2.96373">
        <ele>1254.401238</ele>
        <time>2021-07-08T09:05:55+0200</time>
      </trkpt>
      <trkpt lat="45.35943" lon="2.96365">
        <ele>1253.962669</ele>
        <time>2021-07-08T09:05:57+0200</time>
      </trkpt>
      <trkpt lat="45.35938" lon="2.96356">
        <ele>1253.458299</ele>
        <time>2021-07-08T09:05:59+0200</time>
      </trkpt>
      <trkpt lat="45.35933" lon="2.96345">
        <ele>1252.361683</ele>
        <time>2021-07-08T09:06:01+0200</time>
      </trkpt>
      <trkpt lat="45.3593" lon="2.96338">
        <ele>1251.715051</ele>
        <time>2021-07-08T09:06:02+0200</time>
      </trkpt>
      <trkpt lat="45.35927" lon="2.96331">
        <ele>1251.187694</ele>
        <time>2021-07-08T09:06:03+0200</time>
      </trkpt>
      <trkpt lat="45.35924" lon="2.96323">
        <ele>1250.468591</ele>
        <time>2021-07-08T09:06:04+0200</time>
      </trkpt>
      <trkpt lat="45.35922" lon="2.96314">
        <ele>1250.056424</ele>
        <time>2021-07-08T09:06:05+0200</time>
      </trkpt>
      <trkpt lat="45.35919" lon="2.96306">
        <ele>1249.345703</ele>
        <time>2021-07-08T09:06:06+0200</time>
      </trkpt>
      <trkpt lat="45.35917" lon="2.96297">
        <ele>1248.574409</ele>
        <time>2021-07-08T09:06:07+0200</time>
      </trkpt>
      <trkpt lat="45.35915" lon="2.96287">
        <ele>1247.935148</ele>
        <time>2021-07-08T09:06:08+0200</time>
      </trkpt>
      <trkpt lat="45.35914" lon="2.96277">
        <ele>1247.181721</ele>
        <time>2021-07-08T09:06:09+0200</time>
      </trkpt>
      <trkpt lat="45.35911" lon="2.96267">
        <ele>1246.582989</ele>
        <time>2021-07-08T09:06:10+0200</time>
      </trkpt>
      <trkpt lat="45.35909" lon="2.96258">
        <ele>1245.784372</ele>
        <time>2021-07-08T09:06:11+0200</time>
      </trkpt>
      <trkpt lat="45.35907" lon="2.9625">
        <ele>1245.360762</ele>
        <time>2021-07-08T09:06:12+0200</time>
      </trkpt>
      <trkpt lat="45.35904" lon="2.96244">
        <ele>1244.914507</ele>
        <time>2021-07-08T09:06:13+0200</time>
      </trkpt>
      <trkpt lat="45.359" lon="2.96239">
        <ele>1244.638082</ele>
        <time>2021-07-08T09:06:14+0200</time>
      </trkpt>
      <trkpt lat="45.35894" lon="2.96234">
        <ele>1244.056948</ele>
        <time>2021-07-08T09:06:15+0200</time>
      </trkpt>
      <trkpt lat="45.35886" lon="2.96231">
        <ele>1243.47637</ele>
        <time>2021-07-08T09:06:16+0200</time>
      </trkpt>
      <trkpt lat="45.35878" lon="2.96233">
        <ele>1243.016095</ele>
        <time>2021-07-08T09:06:17+0200</time>
      </trkpt>
      <trkpt lat="45.3587" lon="2.96239">
        <ele>1242.839949</ele>
        <time>2021-07-08T09:06:18+0200</time>
      </trkpt>
      <trkpt lat="45.35862" lon="2.96246">
        <ele>1241.890774</ele>
        <time>2021-07-08T09:06:19+0200</time>
      </trkpt>
      <trkpt lat="45.35855" lon="2.96255">
        <ele>1240.806731</ele>
        <time>2021-07-08T09:06:20+0200</time>
      </trkpt>
      <trkpt lat="45.35848" lon="2.96264">
        <ele>1240.057094</ele>
        <time>2021-07-08T09:06:21+0200</time>
      </trkpt>
      <trkpt lat="45.35839" lon="2.96272">
        <ele>1239.076638</ele>
        <time>2021-07-08T09:06:22+0200</time>
      </trkpt>
      <trkpt lat="45.3583" lon="2.96276">
        <ele>1238.262165</ele>
        <time>2021-07-08T09:06:23+0200</time>
      </trkpt>
      <trkpt lat="45.35819" lon="2.96276">
        <ele>1236.855164</ele>
        <time>2021-07-08T09:06:24+0200</time>
      </trkpt>
      <trkpt lat="45.3581" lon="2.96278">
        <ele>1235.955111</ele>
        <time>2021-07-08T09:06:25+0200</time>
      </trkpt>
      <trkpt lat="45.35803" lon="2.9626">
        <ele>1236.705123</ele>
        <time>2021-07-08T09:06:26+0200</time>
      </trkpt>
      <trkpt lat="45.35795" lon="2.96251">
        <ele>1235.976471</ele>
        <time>2021-07-08T09:06:27+0200</time>
      </trkpt>
      <trkpt lat="45.35787" lon="2.96241">
        <ele>1235.314818</ele>
        <time>2021-07-08T09:06:28+0200</time>
      </trkpt>
      <trkpt lat="45.3578" lon="2.96231">
        <ele>1234.800445</ele>
        <time>2021-07-08T09:06:29+0200</time>
      </trkpt>
      <trkpt lat="45.35771" lon="2.96223">
        <ele>1234.372835</ele>
        <time>2021-07-08T09:06:30+0200</time>
      </trkpt>
      <trkpt lat="45.35762" lon="2.96217">
        <ele>1234.179894</ele>
        <time>2021-07-08T09:06:31+0200</time>
      </trkpt>
      <trkpt lat="45.35753" lon="2.96212">
        <ele>1233.983274</ele>
        <time>2021-07-08T09:06:32+0200</time>
      </trkpt>
      <trkpt lat="45.35744" lon="2.96206">
        <ele>1233.872695</ele>
        <time>2021-07-08T09:06:33+0200</time>
      </trkpt>
      <trkpt lat="45.35736" lon="2.962">
        <ele>1233.741168</ele>
        <time>2021-07-08T09:06:34+0200</time>
      </trkpt>
      <trkpt lat="45.35728" lon="2.96194">
        <ele>1233.512896</ele>
        <time>2021-07-08T09:06:35+0200</time>
      </trkpt>
      <trkpt lat="45.3572" lon="2.96188">
        <ele>1233.156317</ele>
        <time>2021-07-08T09:06:36+0200</time>
      </trkpt>
      <trkpt lat="45.35713" lon="2.96181">
        <ele>1232.867034</ele>
        <time>2021-07-08T09:06:37+0200</time>
      </trkpt>
      <trkpt lat="45.35706" lon="2.96174">
        <ele>1232.635301</ele>
        <time>2021-07-08T09:06:38+0200</time>
      </trkpt>
      <trkpt lat="45.35698" lon="2.96168">
        <ele>1232.539919</ele>
        <time>2021-07-08T09:06:39+0200</time>
      </trkpt>
      <trkpt lat="45.35691" lon="2.96162">
        <ele>1232.565848</ele>
        <time>2021-07-08T09:06:40+0200</time>
      </trkpt>
      <trkpt lat="45.35685" lon="2.96156">
        <ele>1232.613245</ele>
        <time>2021-07-08T09:06:41+0200</time>
      </trkpt>
      <trkpt lat="45.35678" lon="2.9615">
        <ele>1232.676262</ele>
        <time>2021-07-08T09:06:42+0200</time>
      </trkpt>
      <trkpt lat="45.35672" lon="2.96144">
        <ele>1232.772149</ele>
        <time>2021-07-08T09:06:43+0200</time>
      </trkpt>
      <trkpt lat="45.35666" lon="2.96136">
        <ele>1232.858666</ele>
        <time>2021-07-08T09:06:44+0200</time>
      </trkpt>
      <trkpt lat="45.3566" lon="2.96129">
        <ele>1233.54113</ele>
        <time>2021-07-08T09:06:45+0200</time>
      </trkpt>
      <trkpt lat="45.35655" lon="2.96122">
        <ele>1233.320967</ele>
        <time>2021-07-08T09:06:46+0200</time>
      </trkpt>
      <trkpt lat="45.3565" lon="2.96115">
        <ele>1233.172052</ele>
        <time>2021-07-08T09:06:47+0200</time>
      </trkpt>
      <trkpt lat="45.35645" lon="2.96108">
        <ele>1233.345917</ele>
        <time>2021-07-08T09:06:48+0200</time>
      </trkpt>
      <trkpt lat="45.3564" lon="2.961">
        <ele>1233.120915</ele>
        <time>2021-07-08T09:06:49+0200</time>
      </trkpt>
      <trkpt lat="45.35635" lon="2.96093">
        <ele>1233.226063</ele>
        <time>2021-07-08T09:06:50+0200</time>
      </trkpt>
      <trkpt lat="45.3563" lon="2.96086">
        <ele>1233.378232</ele>
        <time>2021-07-08T09:06:51+0200</time>
      </trkpt>
      <trkpt lat="45.35626" lon="2.96079">
        <ele>1233.575684</ele>
        <time>2021-07-08T09:06:52+0200</time>
      </trkpt>
      <trkpt lat="45.35621" lon="2.96071">
        <ele>1233.863485</ele>
        <time>2021-07-08T09:06:53+0200</time>
      </trkpt>
      <trkpt lat="45.35617" lon="2.96063">
        <ele>1233.988252</ele>
        <time>2021-07-08T09:06:54+0200</time>
      </trkpt>
      <trkpt lat="45.35613" lon="2.96056">
        <ele>1234.128348</ele>
        <time>2021-07-08T09:06:55+0200</time>
      </trkpt>
      <trkpt lat="45.35609" lon="2.96049">
        <ele>1234.282973</ele>
        <time>2021-07-08T09:06:56+0200</time>
      </trkpt>
      <trkpt lat="45.35605" lon="2.96041">
        <ele>1234.417807</ele>
        <time>2021-07-08T09:06:57+0200</time>
      </trkpt>
      <trkpt lat="45.35602" lon="2.96034">
        <ele>1234.398243</ele>
        <time>2021-07-08T09:06:58+0200</time>
      </trkpt>
      <trkpt lat="45.35597" lon="2.96027">
        <ele>1234.465926</ele>
        <time>2021-07-08T09:06:59+0200</time>
      </trkpt>
      <trkpt lat="45.35593" lon="2.9602">
        <ele>1234.434469</ele>
        <time>2021-07-08T09:07:00+0200</time>
      </trkpt>
      <trkpt lat="45.35589" lon="2.96013">
        <ele>1234.369366</ele>
        <time>2021-07-08T09:07:01+0200</time>
      </trkpt>
      <trkpt lat="45.35584" lon="2.96005">
        <ele>1234.635247</ele>
        <time>2021-07-08T09:07:02+0200</time>
      </trkpt>
      <trkpt lat="45.35581" lon="2.95998">
        <ele>1234.67466</ele>
        <time>2021-07-08T09:07:03+0200</time>
      </trkpt>
      <trkpt lat="45.35577" lon="2.95991">
        <ele>1234.32183</ele>
        <time>2021-07-08T09:07:04+0200</time>
      </trkpt>
      <trkpt lat="45.35572" lon="2.95983">
        <ele>1234.047666</ele>
        <time>2021-07-08T09:07:05+0200</time>
      </trkpt>
      <trkpt lat="45.35568" lon="2.95975">
        <ele>1233.860045</ele>
        <time>2021-07-08T09:07:06+0200</time>
      </trkpt>
      <trkpt lat="45.35565" lon="2.95966">
        <ele>1233.96471</ele>
        <time>2021-07-08T09:07:07+0200</time>
      </trkpt>
      <trkpt lat="45.35563" lon="2.95958">
        <ele>1234.191656</ele>
        <time>2021-07-08T09:07:08+0200</time>
      </trkpt>
      <trkpt lat="45.35561" lon="2.9595">
        <ele>1234.323407</ele>
        <time>2021-07-08T09:07:09+0200</time>
      </trkpt>
      <trkpt lat="45.35558" lon="2.95942">
        <ele>1234.242901</ele>
        <time>2021-07-08T09:07:10+0200</time>
      </trkpt>
      <trkpt lat="45.35555" lon="2.95934">
        <ele>1234.073828</ele>
        <time>2021-07-08T09:07:11+0200</time>
      </trkpt>
      <trkpt lat="45.35553" lon="2.95925">
        <ele>1234.136257</ele>
        <time>2021-07-08T09:07:12+0200</time>
      </trkpt>
      <trkpt lat="45.35551" lon="2.95917">
        <ele>1234.017109</ele>
        <time>2021-07-08T09:07:13+0200</time>
      </trkpt>
      <trkpt lat="45.35548" lon="2.95909">
        <ele>1233.927936</ele>
        <time>2021-07-08T09:07:14+0200</time>
      </trkpt>
      <trkpt lat="45.35546" lon="2.95901">
        <ele>1234.162364</ele>
        <time>2021-07-08T09:07:15+0200</time>
      </trkpt>
      <trkpt lat="45.35544" lon="2.95893">
        <ele>1234.334271</ele>
        <time>2021-07-08T09:07:16+0200</time>
      </trkpt>
      <trkpt lat="45.35541" lon="2.95886">
        <ele>1234.288091</ele>
        <time>2021-07-08T09:07:17+0200</time>
      </trkpt>
      <trkpt lat="45.35537" lon="2.9588">
        <ele>1234.680799</ele>
        <time>2021-07-08T09:07:18+0200</time>
      </trkpt>
      <trkpt lat="45.35532" lon="2.95876">
        <ele>1234.667378</ele>
        <time>2021-07-08T09:07:19+0200</time>
      </trkpt>
      <trkpt lat="45.35526" lon="2.95872">
        <ele>1234.644351</ele>
        <time>2021-07-08T09:07:20+0200</time>
      </trkpt>
      <trkpt lat="45.3552" lon="2.95868">
        <ele>1234.682395</ele>
        <time>2021-07-08T09:07:21+0200</time>
      </trkpt>
      <trkpt lat="45.35515" lon="2.95864">
        <ele>1234.590303</ele>
        <time>2021-07-08T09:07:22+0200</time>
      </trkpt>
      <trkpt lat="45.3551" lon="2.9586">
        <ele>1234.669961</ele>
        <time>2021-07-08T09:07:23+0200</time>
      </trkpt>
      <trkpt lat="45.35505" lon="2.95856">
        <ele>1234.583586</ele>
        <time>2021-07-08T09:07:24+0200</time>
      </trkpt>
      <trkpt lat="45.35499" lon="2.95853">
        <ele>1234.819968</ele>
        <time>2021-07-08T09:07:25+0200</time>
      </trkpt>
      <trkpt lat="45.35494" lon="2.95848">
        <ele>1235.02503</ele>
        <time>2021-07-08T09:07:26+0200</time>
      </trkpt>
      <trkpt lat="45.35489" lon="2.95842">
        <ele>1235.074263</ele>
        <time>2021-07-08T09:07:27+0200</time>
      </trkpt>
      <trkpt lat="45.35487" lon="2.95835">
        <ele>1235.505873</ele>
        <time>2021-07-08T09:07:28+0200</time>
      </trkpt>
      <trkpt lat="45.35484" lon="2.95829">
        <ele>1235.773727</ele>
        <time>2021-07-08T09:07:29+0200</time>
      </trkpt>
      <trkpt lat="45.35482" lon="2.95822">
        <ele>1235.764908</ele>
        <time>2021-07-08T09:07:30+0200</time>
      </trkpt>
      <trkpt lat="45.35478" lon="2.95815">
        <ele>1236.044585</ele>
        <time>2021-07-08T09:07:31+0200</time>
      </trkpt>
      <trkpt lat="45.35477" lon="2.95808">
        <ele>1236.595332</ele>
        <time>2021-07-08T09:07:32+0200</time>
      </trkpt>
      <trkpt lat="45.35475" lon="2.95801">
        <ele>1236.456937</ele>
        <time>2021-07-08T09:07:33+0200</time>
      </trkpt>
      <trkpt lat="45.35473" lon="2.95794">
        <ele>1236.648879</ele>
        <time>2021-07-08T09:07:34+0200</time>
      </trkpt>
      <trkpt lat="45.3547" lon="2.95787">
        <ele>1236.626071</ele>
        <time>2021-07-08T09:07:35+0200</time>
      </trkpt>
      <trkpt lat="45.35468" lon="2.95782">
        <ele>1236.509824</ele>
        <time>2021-07-08T09:07:36+0200</time>
      </trkpt>
      <trkpt lat="45.35464" lon="2.95777">
        <ele>1236.662123</ele>
        <time>2021-07-08T09:07:37+0200</time>
      </trkpt>
      <trkpt lat="45.3546" lon="2.95771">
        <ele>1236.75709</ele>
        <time>2021-07-08T09:07:38+0200</time>
      </trkpt>
      <trkpt lat="45.35456" lon="2.95767">
        <ele>1237.026356</ele>
        <time>2021-07-08T09:07:39+0200</time>
      </trkpt>
      <trkpt lat="45.35453" lon="2.95761">
        <ele>1237.093406</ele>
        <time>2021-07-08T09:07:40+0200</time>
      </trkpt>
      <trkpt lat="45.35449" lon="2.95756">
        <ele>1237.349665</ele>
        <time>2021-07-08T09:07:41+0200</time>
      </trkpt>
      <trkpt lat="45.35445" lon="2.95751">
        <ele>1237.52847</ele>
        <time>2021-07-08T09:07:42+0200</time>
      </trkpt>
      <trkpt lat="45.35441" lon="2.95747">
        <ele>1237.653356</ele>
        <time>2021-07-08T09:07:43+0200</time>
      </trkpt>
      <trkpt lat="45.35436" lon="2.95742">
        <ele>1237.774026</ele>
        <time>2021-07-08T09:07:44+0200</time>
      </trkpt>
      <trkpt lat="45.35432" lon="2.95738">
        <ele>1237.853796</ele>
        <time>2021-07-08T09:07:45+0200</time>
      </trkpt>
      <trkpt lat="45.35428" lon="2.95734">
        <ele>1238.095202</ele>
        <time>2021-07-08T09:07:46+0200</time>
      </trkpt>
      <trkpt lat="45.35424" lon="2.9573">
        <ele>1238.146784</ele>
        <time>2021-07-08T09:07:47+0200</time>
      </trkpt>
      <trkpt lat="45.35419" lon="2.95724">
        <ele>1238.394362</ele>
        <time>2021-07-08T09:07:48+0200</time>
      </trkpt>
      <trkpt lat="45.35415" lon="2.95719">
        <ele>1238.654837</ele>
        <time>2021-07-08T09:07:49+0200</time>
      </trkpt>
      <trkpt lat="45.35412" lon="2.95713">
        <ele>1238.491639</ele>
        <time>2021-07-08T09:07:50+0200</time>
      </trkpt>
      <trkpt lat="45.35407" lon="2.95708">
        <ele>1238.384541</ele>
        <time>2021-07-08T09:07:51+0200</time>
      </trkpt>
      <trkpt lat="45.35404" lon="2.95703">
        <ele>1238.532924</ele>
        <time>2021-07-08T09:07:52+0200</time>
      </trkpt>
      <trkpt lat="45.354" lon="2.95699">
        <ele>1238.626879</ele>
        <time>2021-07-08T09:07:53+0200</time>
      </trkpt>
      <trkpt lat="45.35396" lon="2.95694">
        <ele>1238.683443</ele>
        <time>2021-07-08T09:07:54+0200</time>
      </trkpt>
      <trkpt lat="45.35393" lon="2.95688">
        <ele>1238.60788</ele>
        <time>2021-07-08T09:07:55+0200</time>
      </trkpt>
      <trkpt lat="45.3539" lon="2.95682">
        <ele>1238.881204</ele>
        <time>2021-07-08T09:07:56+0200</time>
      </trkpt>
      <trkpt lat="45.35386" lon="2.95677">
        <ele>1238.863458</ele>
        <time>2021-07-08T09:07:57+0200</time>
      </trkpt>
      <trkpt lat="45.35382" lon="2.95672">
        <ele>1238.922949</ele>
        <time>2021-07-08T09:07:58+0200</time>
      </trkpt>
      <trkpt lat="45.35379" lon="2.95667">
        <ele>1239.031787</ele>
        <time>2021-07-08T09:07:59+0200</time>
      </trkpt>
      <trkpt lat="45.35375" lon="2.95662">
        <ele>1238.932518</ele>
        <time>2021-07-08T09:08:00+0200</time>
      </trkpt>
      <trkpt lat="45.35371" lon="2.95656">
        <ele>1238.814062</ele>
        <time>2021-07-08T09:08:01+0200</time>
      </trkpt>
      <trkpt lat="45.35368" lon="2.95651">
        <ele>1238.880539</ele>
        <time>2021-07-08T09:08:02+0200</time>
      </trkpt>
      <trkpt lat="45.35364" lon="2.95645">
        <ele>1238.546645</ele>
        <time>2021-07-08T09:08:03+0200</time>
      </trkpt>
      <trkpt lat="45.35361" lon="2.95639">
        <ele>1238.293664</ele>
        <time>2021-07-08T09:08:04+0200</time>
      </trkpt>
      <trkpt lat="45.35357" lon="2.95627">
        <ele>1238.037483</ele>
        <time>2021-07-08T09:08:06+0200</time>
      </trkpt>
      <trkpt lat="45.35354" lon="2.9562">
        <ele>1238.036666</ele>
        <time>2021-07-08T09:08:07+0200</time>
      </trkpt>
      <trkpt lat="45.35352" lon="2.95614">
        <ele>1238.24228</ele>
        <time>2021-07-08T09:08:08+0200</time>
      </trkpt>
      <trkpt lat="45.35351" lon="2.95607">
        <ele>1238.3248</ele>
        <time>2021-07-08T09:08:09+0200</time>
      </trkpt>
      <trkpt lat="45.3535" lon="2.956">
        <ele>1238.182851</ele>
        <time>2021-07-08T09:08:10+0200</time>
      </trkpt>
      <trkpt lat="45.35348" lon="2.95594">
        <ele>1238.017427</ele>
        <time>2021-07-08T09:08:11+0200</time>
      </trkpt>
      <trkpt lat="45.35346" lon="2.95587">
        <ele>1238.149013</ele>
        <time>2021-07-08T09:08:12+0200</time>
      </trkpt>
      <trkpt lat="45.35344" lon="2.95581">
        <ele>1238.168388</ele>
        <time>2021-07-08T09:08:13+0200</time>
      </trkpt>
      <trkpt lat="45.3534" lon="2.95575">
        <ele>1237.980282</ele>
        <time>2021-07-08T09:08:14+0200</time>
      </trkpt>
      <trkpt lat="45.35337" lon="2.95569">
        <ele>1238.187479</ele>
        <time>2021-07-08T09:08:15+0200</time>
      </trkpt>
      <trkpt lat="45.35333" lon="2.95564">
        <ele>1238.368821</ele>
        <time>2021-07-08T09:08:16+0200</time>
      </trkpt>
      <trkpt lat="45.35328" lon="2.9556">
        <ele>1238.624231</ele>
        <time>2021-07-08T09:08:17+0200</time>
      </trkpt>
      <trkpt lat="45.35323" lon="2.95556">
        <ele>1238.723013</ele>
        <time>2021-07-08T09:08:18+0200</time>
      </trkpt>
      <trkpt lat="45.35319" lon="2.95553">
        <ele>1238.565191</ele>
        <time>2021-07-08T09:08:19+0200</time>
      </trkpt>
      <trkpt lat="45.35314" lon="2.9555">
        <ele>1238.499949</ele>
        <time>2021-07-08T09:08:20+0200</time>
      </trkpt>
      <trkpt lat="45.3531" lon="2.95546">
        <ele>1239.020991</ele>
        <time>2021-07-08T09:08:21+0200</time>
      </trkpt>
      <trkpt lat="45.35306" lon="2.95541">
        <ele>1239.177801</ele>
        <time>2021-07-08T09:08:22+0200</time>
      </trkpt>
      <trkpt lat="45.35301" lon="2.95535">
        <ele>1239.374996</ele>
        <time>2021-07-08T09:08:23+0200</time>
      </trkpt>
      <trkpt lat="45.35299" lon="2.95528">
        <ele>1239.455339</ele>
        <time>2021-07-08T09:08:24+0200</time>
      </trkpt>
      <trkpt lat="45.35297" lon="2.95522">
        <ele>1239.204874</ele>
        <time>2021-07-08T09:08:25+0200</time>
      </trkpt>
      <trkpt lat="45.35297" lon="2.95515">
        <ele>1239.170715</ele>
        <time>2021-07-08T09:08:26+0200</time>
      </trkpt>
      <trkpt lat="45.35297" lon="2.95508">
        <ele>1238.966642</ele>
        <time>2021-07-08T09:08:27+0200</time>
      </trkpt>
      <trkpt lat="45.35296" lon="2.955">
        <ele>1239.134729</ele>
        <time>2021-07-08T09:08:28+0200</time>
      </trkpt>
      <trkpt lat="45.35297" lon="2.95493">
        <ele>1239.142014</ele>
        <time>2021-07-08T09:08:29+0200</time>
      </trkpt>
      <trkpt lat="45.35297" lon="2.95486">
        <ele>1239.223962</ele>
        <time>2021-07-08T09:08:30+0200</time>
      </trkpt>
      <trkpt lat="45.35297" lon="2.95479">
        <ele>1239.199474</ele>
        <time>2021-07-08T09:08:31+0200</time>
      </trkpt>
      <trkpt lat="45.35297" lon="2.95472">
        <ele>1239.240265</ele>
        <time>2021-07-08T09:08:32+0200</time>
      </trkpt>
      <trkpt lat="45.35297" lon="2.95465">
        <ele>1239.459049</ele>
        <time>2021-07-08T09:08:33+0200</time>
      </trkpt>
      <trkpt lat="45.35297" lon="2.95458">
        <ele>1239.490332</ele>
        <time>2021-07-08T09:08:34+0200</time>
      </trkpt>
      <trkpt lat="45.35297" lon="2.95451">
        <ele>1239.650248</ele>
        <time>2021-07-08T09:08:35+0200</time>
      </trkpt>
      <trkpt lat="45.35297" lon="2.95444">
        <ele>1239.686685</ele>
        <time>2021-07-08T09:08:36+0200</time>
      </trkpt>
      <trkpt lat="45.35296" lon="2.95437">
        <ele>1239.676034</ele>
        <time>2021-07-08T09:08:37+0200</time>
      </trkpt>
      <trkpt lat="45.35296" lon="2.9543">
        <ele>1239.7611</ele>
        <time>2021-07-08T09:08:38+0200</time>
      </trkpt>
      <trkpt lat="45.35295" lon="2.95422">
        <ele>1240.056116</ele>
        <time>2021-07-08T09:08:39+0200</time>
      </trkpt>
      <trkpt lat="45.35294" lon="2.95414">
        <ele>1240.356805</ele>
        <time>2021-07-08T09:08:40+0200</time>
      </trkpt>
      <trkpt lat="45.35293" lon="2.95408">
        <ele>1240.521597</ele>
        <time>2021-07-08T09:08:41+0200</time>
      </trkpt>
      <trkpt lat="45.35291" lon="2.95402">
        <ele>1240.412668</ele>
        <time>2021-07-08T09:08:42+0200</time>
      </trkpt>
      <trkpt lat="45.35289" lon="2.95396">
        <ele>1240.07699</ele>
        <time>2021-07-08T09:08:43+0200</time>
      </trkpt>
      <trkpt lat="45.35287" lon="2.9539">
        <ele>1239.973457</ele>
        <time>2021-07-08T09:08:44+0200</time>
      </trkpt>
      <trkpt lat="45.35284" lon="2.95385">
        <ele>1239.823235</ele>
        <time>2021-07-08T09:08:45+0200</time>
      </trkpt>
      <trkpt lat="45.35278" lon="2.95376">
        <ele>1240.104969</ele>
        <time>2021-07-08T09:08:47+0200</time>
      </trkpt>
      <trkpt lat="45.35274" lon="2.95371">
        <ele>1240.288649</ele>
        <time>2021-07-08T09:08:48+0200</time>
      </trkpt>
      <trkpt lat="45.35271" lon="2.95366">
        <ele>1240.299625</ele>
        <time>2021-07-08T09:08:49+0200</time>
      </trkpt>
      <trkpt lat="45.35267" lon="2.95361">
        <ele>1240.501424</ele>
        <time>2021-07-08T09:08:50+0200</time>
      </trkpt>
      <trkpt lat="45.35264" lon="2.95355">
        <ele>1240.593783</ele>
        <time>2021-07-08T09:08:51+0200</time>
      </trkpt>
      <trkpt lat="45.35261" lon="2.95349">
        <ele>1240.572038</ele>
        <time>2021-07-08T09:08:52+0200</time>
      </trkpt>
      <trkpt lat="45.35261" lon="2.95342">
        <ele>1240.920699</ele>
        <time>2021-07-08T09:08:53+0200</time>
      </trkpt>
      <trkpt lat="45.3526" lon="2.95329">
        <ele>1241.828799</ele>
        <time>2021-07-08T09:08:55+0200</time>
      </trkpt>
      <trkpt lat="45.3526" lon="2.95318">
        <ele>1242.164768</ele>
        <time>2021-07-08T09:08:57+0200</time>
      </trkpt>
      <trkpt lat="45.35261" lon="2.95307">
        <ele>1242.831602</ele>
        <time>2021-07-08T09:08:59+0200</time>
      </trkpt>
      <trkpt lat="45.35261" lon="2.95296">
        <ele>1242.756181</ele>
        <time>2021-07-08T09:09:01+0200</time>
      </trkpt>
      <trkpt lat="45.35259" lon="2.95284">
        <ele>1243.220986</ele>
        <time>2021-07-08T09:09:03+0200</time>
      </trkpt>
      <trkpt lat="45.35258" lon="2.95274">
        <ele>1243.422329</ele>
        <time>2021-07-08T09:09:05+0200</time>
      </trkpt>
      <trkpt lat="45.35255" lon="2.95266">
        <ele>1243.375574</ele>
        <time>2021-07-08T09:09:07+0200</time>
      </trkpt>
      <trkpt lat="45.35251" lon="2.95258">
        <ele>1243.662002</ele>
        <time>2021-07-08T09:09:09+0200</time>
      </trkpt>
      <trkpt lat="45.35246" lon="2.9525">
        <ele>1243.921581</ele>
        <time>2021-07-08T09:09:11+0200</time>
      </trkpt>
      <trkpt lat="45.35241" lon="2.95243">
        <ele>1244.064385</ele>
        <time>2021-07-08T09:09:13+0200</time>
      </trkpt>
      <trkpt lat="45.35236" lon="2.95235">
        <ele>1244.723847</ele>
        <time>2021-07-08T09:09:15+0200</time>
      </trkpt>
      <trkpt lat="45.35232" lon="2.95228">
        <ele>1245.465715</ele>
        <time>2021-07-08T09:09:17+0200</time>
      </trkpt>
      <trkpt lat="45.35228" lon="2.95221">
        <ele>1245.872773</ele>
        <time>2021-07-08T09:09:19+0200</time>
      </trkpt>
      <trkpt lat="45.35223" lon="2.95213">
        <ele>1246.049046</ele>
        <time>2021-07-08T09:09:21+0200</time>
      </trkpt>
      <trkpt lat="45.35218" lon="2.95205">
        <ele>1246.617358</ele>
        <time>2021-07-08T09:09:23+0200</time>
      </trkpt>
      <trkpt lat="45.35213" lon="2.95198">
        <ele>1247.097563</ele>
        <time>2021-07-08T09:09:25+0200</time>
      </trkpt>
      <trkpt lat="45.35208" lon="2.95191">
        <ele>1247.632272</ele>
        <time>2021-07-08T09:09:27+0200</time>
      </trkpt>
      <trkpt lat="45.35202" lon="2.95184">
        <ele>1247.993987</ele>
        <time>2021-07-08T09:09:29+0200</time>
      </trkpt>
      <trkpt lat="45.35197" lon="2.95178">
        <ele>1248.237689</ele>
        <time>2021-07-08T09:09:31+0200</time>
      </trkpt>
      <trkpt lat="45.35192" lon="2.95172">
        <ele>1248.533803</ele>
        <time>2021-07-08T09:09:33+0200</time>
      </trkpt>
      <trkpt lat="45.35187" lon="2.95164">
        <ele>1248.433673</ele>
        <time>2021-07-08T09:09:35+0200</time>
      </trkpt>
      <trkpt lat="45.35183" lon="2.95155">
        <ele>1248.525087</ele>
        <time>2021-07-08T09:09:37+0200</time>
      </trkpt>
      <trkpt lat="45.3518" lon="2.95147">
        <ele>1248.899556</ele>
        <time>2021-07-08T09:09:39+0200</time>
      </trkpt>
      <trkpt lat="45.35176" lon="2.95138">
        <ele>1249.277348</ele>
        <time>2021-07-08T09:09:41+0200</time>
      </trkpt>
      <trkpt lat="45.35172" lon="2.9513">
        <ele>1249.869241</ele>
        <time>2021-07-08T09:09:43+0200</time>
      </trkpt>
      <trkpt lat="45.35167" lon="2.95123">
        <ele>1250.452375</ele>
        <time>2021-07-08T09:09:45+0200</time>
      </trkpt>
      <trkpt lat="45.35161" lon="2.95117">
        <ele>1250.695917</ele>
        <time>2021-07-08T09:09:47+0200</time>
      </trkpt>
      <trkpt lat="45.35155" lon="2.95112">
        <ele>1251.069163</ele>
        <time>2021-07-08T09:09:49+0200</time>
      </trkpt>
      <trkpt lat="45.35148" lon="2.95109">
        <ele>1251.036822</ele>
        <time>2021-07-08T09:09:51+0200</time>
      </trkpt>
      <trkpt lat="45.35141" lon="2.95107">
        <ele>1251.631226</ele>
        <time>2021-07-08T09:09:53+0200</time>
      </trkpt>
      <trkpt lat="45.35134" lon="2.95105">
        <ele>1252.170304</ele>
        <time>2021-07-08T09:09:55+0200</time>
      </trkpt>
      <trkpt lat="45.35127" lon="2.95106">
        <ele>1252.296701</ele>
        <time>2021-07-08T09:09:57+0200</time>
      </trkpt>
      <trkpt lat="45.3512" lon="2.95106">
        <ele>1252.47267</ele>
        <time>2021-07-08T09:09:59+0200</time>
      </trkpt>
      <trkpt lat="45.35113" lon="2.95105">
        <ele>1252.510518</ele>
        <time>2021-07-08T09:10:01+0200</time>
      </trkpt>
      <trkpt lat="45.35105" lon="2.95104">
        <ele>1252.274828</ele>
        <time>2021-07-08T09:10:03+0200</time>
      </trkpt>
      <trkpt lat="45.35098" lon="2.95101">
        <ele>1252.851165</ele>
        <time>2021-07-08T09:10:05+0200</time>
      </trkpt>
      <trkpt lat="45.35093" lon="2.95097">
        <ele>1253.734221</ele>
        <time>2021-07-08T09:10:07+0200</time>
      </trkpt>
      <trkpt lat="45.35087" lon="2.95091">
        <ele>1254.593279</ele>
        <time>2021-07-08T09:10:09+0200</time>
      </trkpt>
      <trkpt lat="45.35082" lon="2.95086">
        <ele>1255.174535</ele>
        <time>2021-07-08T09:10:11+0200</time>
      </trkpt>
      <trkpt lat="45.35077" lon="2.95079">
        <ele>1255.822425</ele>
        <time>2021-07-08T09:10:13+0200</time>
      </trkpt>
      <trkpt lat="45.35073" lon="2.95072">
        <ele>1256.469247</ele>
        <time>2021-07-08T09:10:15+0200</time>
      </trkpt>
      <trkpt lat="45.35068" lon="2.95066">
        <ele>1257.101419</ele>
        <time>2021-07-08T09:10:17+0200</time>
      </trkpt>
      <trkpt lat="45.35063" lon="2.95059">
        <ele>1257.801706</ele>
        <time>2021-07-08T09:10:19+0200</time>
      </trkpt>
      <trkpt lat="45.35056" lon="2.95053">
        <ele>1258.314598</ele>
        <time>2021-07-08T09:10:21+0200</time>
      </trkpt>
      <trkpt lat="45.3505" lon="2.95049">
        <ele>1258.894072</ele>
        <time>2021-07-08T09:10:23+0200</time>
      </trkpt>
      <trkpt lat="45.35045" lon="2.95043">
        <ele>1259.022727</ele>
        <time>2021-07-08T09:10:25+0200</time>
      </trkpt>
      <trkpt lat="45.35039" lon="2.95037">
        <ele>1259.029287</ele>
        <time>2021-07-08T09:10:27+0200</time>
      </trkpt>
      <trkpt lat="45.35033" lon="2.95031">
        <ele>1259.493365</ele>
        <time>2021-07-08T09:10:29+0200</time>
      </trkpt>
      <trkpt lat="45.35028" lon="2.95026">
        <ele>1259.86191</ele>
        <time>2021-07-08T09:10:31+0200</time>
      </trkpt>
      <trkpt lat="45.35023" lon="2.95022">
        <ele>1260.104662</ele>
        <time>2021-07-08T09:10:33+0200</time>
      </trkpt>
      <trkpt lat="45.35016" lon="2.95018">
        <ele>1260.203183</ele>
        <time>2021-07-08T09:10:35+0200</time>
      </trkpt>
      <trkpt lat="45.3501" lon="2.95013">
        <ele>1260.470929</ele>
        <time>2021-07-08T09:10:37+0200</time>
      </trkpt>
      <trkpt lat="45.35004" lon="2.95007">
        <ele>1260.900171</ele>
        <time>2021-07-08T09:10:39+0200</time>
      </trkpt>
      <trkpt lat="45.34998" lon="2.95003">
        <ele>1261.271448</ele>
        <time>2021-07-08T09:10:41+0200</time>
      </trkpt>
      <trkpt lat="45.34993" lon="2.94998">
        <ele>1261.803359</ele>
        <time>2021-07-08T09:10:43+0200</time>
      </trkpt>
      <trkpt lat="45.34987" lon="2.94992">
        <ele>1262.395607</ele>
        <time>2021-07-08T09:10:45+0200</time>
      </trkpt>
      <trkpt lat="45.34981" lon="2.94988">
        <ele>1262.600283</ele>
        <time>2021-07-08T09:10:47+0200</time>
      </trkpt>
      <trkpt lat="45.34976" lon="2.94982">
        <ele>1262.529807</ele>
        <time>2021-07-08T09:10:49+0200</time>
      </trkpt>
      <trkpt lat="45.34969" lon="2.94977">
        <ele>1262.765009</ele>
        <time>2021-07-08T09:10:51+0200</time>
      </trkpt>
      <trkpt lat="45.34964" lon="2.9497">
        <ele>1262.839722</ele>
        <time>2021-07-08T09:10:53+0200</time>
      </trkpt>
      <trkpt lat="45.34959" lon="2.94963">
        <ele>1263.222192</ele>
        <time>2021-07-08T09:10:55+0200</time>
      </trkpt>
      <trkpt lat="45.34955" lon="2.94955">
        <ele>1263.543993</ele>
        <time>2021-07-08T09:10:57+0200</time>
      </trkpt>
      <trkpt lat="45.3495" lon="2.94946">
        <ele>1263.783891</ele>
        <time>2021-07-08T09:10:59+0200</time>
      </trkpt>
      <trkpt lat="45.34945" lon="2.94938">
        <ele>1264.211929</ele>
        <time>2021-07-08T09:11:01+0200</time>
      </trkpt>
      <trkpt lat="45.34942" lon="2.94928">
        <ele>1264.664684</ele>
        <time>2021-07-08T09:11:03+0200</time>
      </trkpt>
      <trkpt lat="45.34937" lon="2.9492">
        <ele>1264.809322</ele>
        <time>2021-07-08T09:11:05+0200</time>
      </trkpt>
      <trkpt lat="45.34931" lon="2.94913">
        <ele>1264.824058</ele>
        <time>2021-07-08T09:11:07+0200</time>
      </trkpt>
      <trkpt lat="45.34928" lon="2.94908">
        <ele>1264.891886</ele>
        <time>2021-07-08T09:11:08+0200</time>
      </trkpt>
      <trkpt lat="45.34921" lon="2.949">
        <ele>1265.25196</ele>
        <time>2021-07-08T09:11:10+0200</time>
      </trkpt>
      <trkpt lat="45.34916" lon="2.94893">
        <ele>1265.61541</ele>
        <time>2021-07-08T09:11:12+0200</time>
      </trkpt>
      <trkpt lat="45.34911" lon="2.94884">
        <ele>1265.677617</ele>
        <time>2021-07-08T09:11:14+0200</time>
      </trkpt>
      <trkpt lat="45.34907" lon="2.94876">
        <ele>1266.092431</ele>
        <time>2021-07-08T09:11:16+0200</time>
      </trkpt>
      <trkpt lat="45.34903" lon="2.94868">
        <ele>1266.142413</ele>
        <time>2021-07-08T09:11:18+0200</time>
      </trkpt>
      <trkpt lat="45.34898" lon="2.94861">
        <ele>1266.317322</ele>
        <time>2021-07-08T09:11:20+0200</time>
      </trkpt>
      <trkpt lat="45.34893" lon="2.94852">
        <ele>1266.486425</ele>
        <time>2021-07-08T09:11:22+0200</time>
      </trkpt>
      <trkpt lat="45.34887" lon="2.94845">
        <ele>1266.76623</ele>
        <time>2021-07-08T09:11:24+0200</time>
      </trkpt>
      <trkpt lat="45.3488" lon="2.94839">
        <ele>1267.065213</ele>
        <time>2021-07-08T09:11:26+0200</time>
      </trkpt>
      <trkpt lat="45.34873" lon="2.94833">
        <ele>1267.488235</ele>
        <time>2021-07-08T09:11:28+0200</time>
      </trkpt>
      <trkpt lat="45.34866" lon="2.94828">
        <ele>1267.528885</ele>
        <time>2021-07-08T09:11:30+0200</time>
      </trkpt>
      <trkpt lat="45.34859" lon="2.94822">
        <ele>1267.897801</ele>
        <time>2021-07-08T09:11:32+0200</time>
      </trkpt>
      <trkpt lat="45.34851" lon="2.94818">
        <ele>1268.133946</ele>
        <time>2021-07-08T09:11:34+0200</time>
      </trkpt>
      <trkpt lat="45.34844" lon="2.94813">
        <ele>1268.348478</ele>
        <time>2021-07-08T09:11:36+0200</time>
      </trkpt>
      <trkpt lat="45.34837" lon="2.9481">
        <ele>1268.377683</ele>
        <time>2021-07-08T09:11:38+0200</time>
      </trkpt>
      <trkpt lat="45.34829" lon="2.94809">
        <ele>1268.321088</ele>
        <time>2021-07-08T09:11:40+0200</time>
      </trkpt>
      <trkpt lat="45.3482" lon="2.94808">
        <ele>1268.033049</ele>
        <time>2021-07-08T09:11:42+0200</time>
      </trkpt>
      <trkpt lat="45.34813" lon="2.94807">
        <ele>1268.17959</ele>
        <time>2021-07-08T09:11:44+0200</time>
      </trkpt>
      <trkpt lat="45.34805" lon="2.94804">
        <ele>1268.033459</ele>
        <time>2021-07-08T09:11:46+0200</time>
      </trkpt>
      <trkpt lat="45.34796" lon="2.94802">
        <ele>1268.405621</ele>
        <time>2021-07-08T09:11:48+0200</time>
      </trkpt>
      <trkpt lat="45.34789" lon="2.94799">
        <ele>1269.145543</ele>
        <time>2021-07-08T09:11:50+0200</time>
      </trkpt>
      <trkpt lat="45.34781" lon="2.94795">
        <ele>1269.497814</ele>
        <time>2021-07-08T09:11:52+0200</time>
      </trkpt>
      <trkpt lat="45.34774" lon="2.94791">
        <ele>1269.761268</ele>
        <time>2021-07-08T09:11:54+0200</time>
      </trkpt>
      <trkpt lat="45.34766" lon="2.94786">
        <ele>1270.084055</ele>
        <time>2021-07-08T09:11:56+0200</time>
      </trkpt>
      <trkpt lat="45.34758" lon="2.94781">
        <ele>1270.296237</ele>
        <time>2021-07-08T09:11:58+0200</time>
      </trkpt>
      <trkpt lat="45.34749" lon="2.94777">
        <ele>1270.107588</ele>
        <time>2021-07-08T09:12:00+0200</time>
      </trkpt>
      <trkpt lat="45.34745" lon="2.94774">
        <ele>1270.210244</ele>
        <time>2021-07-08T09:12:01+0200</time>
      </trkpt>
      <trkpt lat="45.34737" lon="2.9477">
        <ele>1270.485828</ele>
        <time>2021-07-08T09:12:03+0200</time>
      </trkpt>
      <trkpt lat="45.34729" lon="2.94766">
        <ele>1271.003977</ele>
        <time>2021-07-08T09:12:05+0200</time>
      </trkpt>
      <trkpt lat="45.3472" lon="2.94762">
        <ele>1271.216167</ele>
        <time>2021-07-08T09:12:07+0200</time>
      </trkpt>
      <trkpt lat="45.34712" lon="2.94758">
        <ele>1271.529835</ele>
        <time>2021-07-08T09:12:09+0200</time>
      </trkpt>
      <trkpt lat="45.34707" lon="2.94754">
        <ele>1271.62874</ele>
        <time>2021-07-08T09:12:10+0200</time>
      </trkpt>
      <trkpt lat="45.34699" lon="2.94752">
        <ele>1271.553281</ele>
        <time>2021-07-08T09:12:12+0200</time>
      </trkpt>
      <trkpt lat="45.34695" lon="2.94751">
        <ele>1271.922505</ele>
        <time>2021-07-08T09:12:13+0200</time>
      </trkpt>
      <trkpt lat="45.34689" lon="2.94749">
        <ele>1271.60145</ele>
        <time>2021-07-08T09:12:14+0200</time>
      </trkpt>
      <trkpt lat="45.34682" lon="2.94747">
        <ele>1272.077847</ele>
        <time>2021-07-08T09:12:16+0200</time>
      </trkpt>
      <trkpt lat="45.34674" lon="2.94745">
        <ele>1272.26516</ele>
        <time>2021-07-08T09:12:18+0200</time>
      </trkpt>
      <trkpt lat="45.34666" lon="2.94743">
        <ele>1272.216551</ele>
        <time>2021-07-08T09:12:20+0200</time>
      </trkpt>
      <trkpt lat="45.34658" lon="2.94741">
        <ele>1272.837614</ele>
        <time>2021-07-08T09:12:22+0200</time>
      </trkpt>
      <trkpt lat="45.3465" lon="2.94737">
        <ele>1272.946266</ele>
        <time>2021-07-08T09:12:24+0200</time>
      </trkpt>
      <trkpt lat="45.34641" lon="2.94735">
        <ele>1273.248234</ele>
        <time>2021-07-08T09:12:26+0200</time>
      </trkpt>
      <trkpt lat="45.34636" lon="2.94733">
        <ele>1273.599137</ele>
        <time>2021-07-08T09:12:27+0200</time>
      </trkpt>
      <trkpt lat="45.34627" lon="2.94729">
        <ele>1273.520609</ele>
        <time>2021-07-08T09:12:29+0200</time>
      </trkpt>
      <trkpt lat="45.34623" lon="2.94727">
        <ele>1273.41596</ele>
        <time>2021-07-08T09:12:30+0200</time>
      </trkpt>
      <trkpt lat="45.34614" lon="2.94722">
        <ele>1273.660213</ele>
        <time>2021-07-08T09:12:32+0200</time>
      </trkpt>
      <trkpt lat="45.34609" lon="2.9472">
        <ele>1273.567787</ele>
        <time>2021-07-08T09:12:33+0200</time>
      </trkpt>
      <trkpt lat="45.34605" lon="2.94717">
        <ele>1273.681566</ele>
        <time>2021-07-08T09:12:34+0200</time>
      </trkpt>
      <trkpt lat="45.34596" lon="2.94713">
        <ele>1274.076449</ele>
        <time>2021-07-08T09:12:36+0200</time>
      </trkpt>
      <trkpt lat="45.34592" lon="2.9471">
        <ele>1274.558221</ele>
        <time>2021-07-08T09:12:37+0200</time>
      </trkpt>
      <trkpt lat="45.34584" lon="2.94704">
        <ele>1274.820503</ele>
        <time>2021-07-08T09:12:39+0200</time>
      </trkpt>
      <trkpt lat="45.3458" lon="2.947">
        <ele>1275.004132</ele>
        <time>2021-07-08T09:12:40+0200</time>
      </trkpt>
      <trkpt lat="45.34573" lon="2.94693">
        <ele>1275.421293</ele>
        <time>2021-07-08T09:12:42+0200</time>
      </trkpt>
      <trkpt lat="45.34565" lon="2.94687">
        <ele>1275.357301</ele>
        <time>2021-07-08T09:12:44+0200</time>
      </trkpt>
      <trkpt lat="45.34558" lon="2.94682">
        <ele>1275.490453</ele>
        <time>2021-07-08T09:12:46+0200</time>
      </trkpt>
      <trkpt lat="45.3455" lon="2.94676">
        <ele>1275.836211</ele>
        <time>2021-07-08T09:12:48+0200</time>
      </trkpt>
      <trkpt lat="45.34546" lon="2.94673">
        <ele>1275.802264</ele>
        <time>2021-07-08T09:12:49+0200</time>
      </trkpt>
      <trkpt lat="45.34538" lon="2.94668">
        <ele>1275.51743</ele>
        <time>2021-07-08T09:12:51+0200</time>
      </trkpt>
      <trkpt lat="45.3453" lon="2.94665">
        <ele>1275.417057</ele>
        <time>2021-07-08T09:12:53+0200</time>
      </trkpt>
      <trkpt lat="45.34525" lon="2.94663">
        <ele>1275.478811</ele>
        <time>2021-07-08T09:12:54+0200</time>
      </trkpt>
      <trkpt lat="45.34517" lon="2.94661">
        <ele>1275.797931</ele>
        <time>2021-07-08T09:12:56+0200</time>
      </trkpt>
      <trkpt lat="45.34509" lon="2.94658">
        <ele>1276.044364</ele>
        <time>2021-07-08T09:12:58+0200</time>
      </trkpt>
      <trkpt lat="45.34501" lon="2.94655">
        <ele>1276.400518</ele>
        <time>2021-07-08T09:13:00+0200</time>
      </trkpt>
      <trkpt lat="45.34493" lon="2.94651">
        <ele>1276.426645</ele>
        <time>2021-07-08T09:13:02+0200</time>
      </trkpt>
      <trkpt lat="45.34489" lon="2.94648">
        <ele>1276.554062</ele>
        <time>2021-07-08T09:13:03+0200</time>
      </trkpt>
      <trkpt lat="45.34484" lon="2.94645">
        <ele>1276.574107</ele>
        <time>2021-07-08T09:13:04+0200</time>
      </trkpt>
      <trkpt lat="45.3448" lon="2.94642">
        <ele>1276.733357</ele>
        <time>2021-07-08T09:13:05+0200</time>
      </trkpt>
      <trkpt lat="45.34476" lon="2.94639">
        <ele>1277.020939</ele>
        <time>2021-07-08T09:13:06+0200</time>
      </trkpt>
      <trkpt lat="45.34469" lon="2.94632">
        <ele>1277.480534</ele>
        <time>2021-07-08T09:13:08+0200</time>
      </trkpt>
      <trkpt lat="45.34462" lon="2.94625">
        <ele>1277.635297</ele>
        <time>2021-07-08T09:13:10+0200</time>
      </trkpt>
      <trkpt lat="45.34455" lon="2.94619">
        <ele>1277.848424</ele>
        <time>2021-07-08T09:13:12+0200</time>
      </trkpt>
      <trkpt lat="45.34448" lon="2.94612">
        <ele>1278.360606</ele>
        <time>2021-07-08T09:13:14+0200</time>
      </trkpt>
      <trkpt lat="45.34441" lon="2.94605">
        <ele>1278.629637</ele>
        <time>2021-07-08T09:13:16+0200</time>
      </trkpt>
      <trkpt lat="45.34433" lon="2.94599">
        <ele>1278.612054</ele>
        <time>2021-07-08T09:13:18+0200</time>
      </trkpt>
      <trkpt lat="45.34429" lon="2.94596">
        <ele>1278.884233</ele>
        <time>2021-07-08T09:13:19+0200</time>
      </trkpt>
      <trkpt lat="45.34425" lon="2.94593">
        <ele>1279.047892</ele>
        <time>2021-07-08T09:13:20+0200</time>
      </trkpt>
      <trkpt lat="45.34417" lon="2.94587">
        <ele>1279.593588</ele>
        <time>2021-07-08T09:13:22+0200</time>
      </trkpt>
      <trkpt lat="45.3441" lon="2.94583">
        <ele>1280.043378</ele>
        <time>2021-07-08T09:13:24+0200</time>
      </trkpt>
      <trkpt lat="45.34403" lon="2.94579">
        <ele>1280.221813</ele>
        <time>2021-07-08T09:13:26+0200</time>
      </trkpt>
      <trkpt lat="45.34395" lon="2.94574">
        <ele>1280.380402</ele>
        <time>2021-07-08T09:13:28+0200</time>
      </trkpt>
      <trkpt lat="45.34387" lon="2.9457">
        <ele>1280.605379</ele>
        <time>2021-07-08T09:13:30+0200</time>
      </trkpt>
      <trkpt lat="45.34379" lon="2.94568">
        <ele>1280.765337</ele>
        <time>2021-07-08T09:13:32+0200</time>
      </trkpt>
      <trkpt lat="45.34371" lon="2.94566">
        <ele>1280.524691</ele>
        <time>2021-07-08T09:13:34+0200</time>
      </trkpt>
      <trkpt lat="45.34363" lon="2.94566">
        <ele>1280.593809</ele>
        <time>2021-07-08T09:13:36+0200</time>
      </trkpt>
      <trkpt lat="45.34355" lon="2.9457">
        <ele>1280.593963</ele>
        <time>2021-07-08T09:13:38+0200</time>
      </trkpt>
      <trkpt lat="45.34347" lon="2.94572">
        <ele>1280.992309</ele>
        <time>2021-07-08T09:13:40+0200</time>
      </trkpt>
      <trkpt lat="45.34342" lon="2.94573">
        <ele>1281.037933</ele>
        <time>2021-07-08T09:13:41+0200</time>
      </trkpt>
      <trkpt lat="45.34338" lon="2.94574">
        <ele>1281.130283</ele>
        <time>2021-07-08T09:13:42+0200</time>
      </trkpt>
      <trkpt lat="45.34329" lon="2.94574">
        <ele>1281.854431</ele>
        <time>2021-07-08T09:13:44+0200</time>
      </trkpt>
      <trkpt lat="45.34324" lon="2.94573">
        <ele>1281.738893</ele>
        <time>2021-07-08T09:13:45+0200</time>
      </trkpt>
      <trkpt lat="45.34319" lon="2.94573">
        <ele>1281.759978</ele>
        <time>2021-07-08T09:13:46+0200</time>
      </trkpt>
      <trkpt lat="45.34314" lon="2.94572">
        <ele>1281.663341</ele>
        <time>2021-07-08T09:13:47+0200</time>
      </trkpt>
      <trkpt lat="45.34309" lon="2.94571">
        <ele>1281.793929</ele>
        <time>2021-07-08T09:13:48+0200</time>
      </trkpt>
      <trkpt lat="45.34304" lon="2.94569">
        <ele>1282.207282</ele>
        <time>2021-07-08T09:13:49+0200</time>
      </trkpt>
      <trkpt lat="45.343" lon="2.94566">
        <ele>1282.422968</ele>
        <time>2021-07-08T09:13:50+0200</time>
      </trkpt>
      <trkpt lat="45.34295" lon="2.94564">
        <ele>1282.625353</ele>
        <time>2021-07-08T09:13:51+0200</time>
      </trkpt>
      <trkpt lat="45.34291" lon="2.94561">
        <ele>1282.779328</ele>
        <time>2021-07-08T09:13:52+0200</time>
      </trkpt>
      <trkpt lat="45.34287" lon="2.94557">
        <ele>1282.95297</ele>
        <time>2021-07-08T09:13:53+0200</time>
      </trkpt>
      <trkpt lat="45.3428" lon="2.94552">
        <ele>1283.232902</ele>
        <time>2021-07-08T09:13:55+0200</time>
      </trkpt>
      <trkpt lat="45.34272" lon="2.94545">
        <ele>1283.617735</ele>
        <time>2021-07-08T09:13:57+0200</time>
      </trkpt>
      <trkpt lat="45.34265" lon="2.9454">
        <ele>1283.788145</ele>
        <time>2021-07-08T09:13:59+0200</time>
      </trkpt>
      <trkpt lat="45.34256" lon="2.94535">
        <ele>1284.096919</ele>
        <time>2021-07-08T09:14:01+0200</time>
      </trkpt>
      <trkpt lat="45.34252" lon="2.94533">
        <ele>1284.225167</ele>
        <time>2021-07-08T09:14:02+0200</time>
      </trkpt>
      <trkpt lat="45.34248" lon="2.9453">
        <ele>1284.248838</ele>
        <time>2021-07-08T09:14:03+0200</time>
      </trkpt>
      <trkpt lat="45.34239" lon="2.94525">
        <ele>1284.445724</ele>
        <time>2021-07-08T09:14:05+0200</time>
      </trkpt>
      <trkpt lat="45.34235" lon="2.94522">
        <ele>1284.603655</ele>
        <time>2021-07-08T09:14:06+0200</time>
      </trkpt>
      <trkpt lat="45.34228" lon="2.94514">
        <ele>1285.086247</ele>
        <time>2021-07-08T09:14:08+0200</time>
      </trkpt>
      <trkpt lat="45.34225" lon="2.94509">
        <ele>1285.336952</ele>
        <time>2021-07-08T09:14:09+0200</time>
      </trkpt>
      <trkpt lat="45.34221" lon="2.94501">
        <ele>1285.806009</ele>
        <time>2021-07-08T09:14:11+0200</time>
      </trkpt>
      <trkpt lat="45.34215" lon="2.94494">
        <ele>1285.703288</ele>
        <time>2021-07-08T09:14:13+0200</time>
      </trkpt>
      <trkpt lat="45.34208" lon="2.94488">
        <ele>1285.718531</ele>
        <time>2021-07-08T09:14:15+0200</time>
      </trkpt>
      <trkpt lat="45.34199" lon="2.94485">
        <ele>1285.468258</ele>
        <time>2021-07-08T09:14:17+0200</time>
      </trkpt>
      <trkpt lat="45.34191" lon="2.94484">
        <ele>1285.641485</ele>
        <time>2021-07-08T09:14:19+0200</time>
      </trkpt>
      <trkpt lat="45.34183" lon="2.94483">
        <ele>1285.680274</ele>
        <time>2021-07-08T09:14:21+0200</time>
      </trkpt>
      <trkpt lat="45.34175" lon="2.94482">
        <ele>1285.480614</ele>
        <time>2021-07-08T09:14:23+0200</time>
      </trkpt>
      <trkpt lat="45.34167" lon="2.94479">
        <ele>1285.479596</ele>
        <time>2021-07-08T09:14:25+0200</time>
      </trkpt>
      <trkpt lat="45.34163" lon="2.94476">
        <ele>1285.551784</ele>
        <time>2021-07-08T09:14:26+0200</time>
      </trkpt>
      <trkpt lat="45.34159" lon="2.94472">
        <ele>1285.834257</ele>
        <time>2021-07-08T09:14:27+0200</time>
      </trkpt>
      <trkpt lat="45.34155" lon="2.94469">
        <ele>1286.250003</ele>
        <time>2021-07-08T09:14:28+0200</time>
      </trkpt>
      <trkpt lat="45.34151" lon="2.94464">
        <ele>1286.658895</ele>
        <time>2021-07-08T09:14:29+0200</time>
      </trkpt>
      <trkpt lat="45.34149" lon="2.94459">
        <ele>1286.907749</ele>
        <time>2021-07-08T09:14:30+0200</time>
      </trkpt>
      <trkpt lat="45.34146" lon="2.94454">
        <ele>1287.11548</ele>
        <time>2021-07-08T09:14:31+0200</time>
      </trkpt>
      <trkpt lat="45.3414" lon="2.94446">
        <ele>1287.175304</ele>
        <time>2021-07-08T09:14:33+0200</time>
      </trkpt>
      <trkpt lat="45.34137" lon="2.94441">
        <ele>1287.097714</ele>
        <time>2021-07-08T09:14:34+0200</time>
      </trkpt>
      <trkpt lat="45.34133" lon="2.94438">
        <ele>1287.232214</ele>
        <time>2021-07-08T09:14:35+0200</time>
      </trkpt>
      <trkpt lat="45.34128" lon="2.94435">
        <ele>1287.31156</ele>
        <time>2021-07-08T09:14:36+0200</time>
      </trkpt>
      <trkpt lat="45.34121" lon="2.9443">
        <ele>1287.740322</ele>
        <time>2021-07-08T09:14:38+0200</time>
      </trkpt>
      <trkpt lat="45.34117" lon="2.94426">
        <ele>1287.928517</ele>
        <time>2021-07-08T09:14:39+0200</time>
      </trkpt>
      <trkpt lat="45.34113" lon="2.94422">
        <ele>1287.925765</ele>
        <time>2021-07-08T09:14:40+0200</time>
      </trkpt>
      <trkpt lat="45.3411" lon="2.94417">
        <ele>1287.610656</ele>
        <time>2021-07-08T09:14:41+0200</time>
      </trkpt>
      <trkpt lat="45.34107" lon="2.94411">
        <ele>1287.902722</ele>
        <time>2021-07-08T09:14:42+0200</time>
      </trkpt>
      <trkpt lat="45.34106" lon="2.94399">
        <ele>1288.224307</ele>
        <time>2021-07-08T09:14:44+0200</time>
      </trkpt>
      <trkpt lat="45.34106" lon="2.94386">
        <ele>1288.034516</ele>
        <time>2021-07-08T09:14:46+0200</time>
      </trkpt>
      <trkpt lat="45.34104" lon="2.94374">
        <ele>1288.038172</ele>
        <time>2021-07-08T09:14:48+0200</time>
      </trkpt>
      <trkpt lat="45.34103" lon="2.94368">
        <ele>1287.944303</ele>
        <time>2021-07-08T09:14:49+0200</time>
      </trkpt>
      <trkpt lat="45.34099" lon="2.94357">
        <ele>1287.760047</ele>
        <time>2021-07-08T09:14:51+0200</time>
      </trkpt>
      <trkpt lat="45.34094" lon="2.94348">
        <ele>1287.637726</ele>
        <time>2021-07-08T09:14:53+0200</time>
      </trkpt>
      <trkpt lat="45.34087" lon="2.94341">
        <ele>1287.834631</ele>
        <time>2021-07-08T09:14:55+0200</time>
      </trkpt>
      <trkpt lat="45.34083" lon="2.94338">
        <ele>1287.956047</ele>
        <time>2021-07-08T09:14:56+0200</time>
      </trkpt>
      <trkpt lat="45.34079" lon="2.94334">
        <ele>1288.002675</ele>
        <time>2021-07-08T09:14:57+0200</time>
      </trkpt>
      <trkpt lat="45.34076" lon="2.9433">
        <ele>1288.088024</ele>
        <time>2021-07-08T09:14:58+0200</time>
      </trkpt>
      <trkpt lat="45.34072" lon="2.94325">
        <ele>1288.16598</ele>
        <time>2021-07-08T09:14:59+0200</time>
      </trkpt>
      <trkpt lat="45.34066" lon="2.94316">
        <ele>1288.563298</ele>
        <time>2021-07-08T09:15:01+0200</time>
      </trkpt>
      <trkpt lat="45.34061" lon="2.94308">
        <ele>1288.723486</ele>
        <time>2021-07-08T09:15:03+0200</time>
      </trkpt>
      <trkpt lat="45.34057" lon="2.94305">
        <ele>1288.867783</ele>
        <time>2021-07-08T09:15:04+0200</time>
      </trkpt>
      <trkpt lat="45.34048" lon="2.94299">
        <ele>1289.561934</ele>
        <time>2021-07-08T09:15:06+0200</time>
      </trkpt>
      <trkpt lat="45.34044" lon="2.94297">
        <ele>1289.825268</ele>
        <time>2021-07-08T09:15:07+0200</time>
      </trkpt>
      <trkpt lat="45.34036" lon="2.94294">
        <ele>1290.152244</ele>
        <time>2021-07-08T09:15:09+0200</time>
      </trkpt>
      <trkpt lat="45.34028" lon="2.94297">
        <ele>1290.21125</ele>
        <time>2021-07-08T09:15:11+0200</time>
      </trkpt>
      <trkpt lat="45.34019" lon="2.94299">
        <ele>1290.432828</ele>
        <time>2021-07-08T09:15:13+0200</time>
      </trkpt>
      <trkpt lat="45.34015" lon="2.94299">
        <ele>1290.607142</ele>
        <time>2021-07-08T09:15:14+0200</time>
      </trkpt>
      <trkpt lat="45.3401" lon="2.94297">
        <ele>1290.329953</ele>
        <time>2021-07-08T09:15:15+0200</time>
      </trkpt>
      <trkpt lat="45.34005" lon="2.94296">
        <ele>1290.6626</ele>
        <time>2021-07-08T09:15:16+0200</time>
      </trkpt>
      <trkpt lat="45.34" lon="2.94293">
        <ele>1290.919515</ele>
        <time>2021-07-08T09:15:17+0200</time>
      </trkpt>
      <trkpt lat="45.33995" lon="2.94289">
        <ele>1290.833306</ele>
        <time>2021-07-08T09:15:18+0200</time>
      </trkpt>
      <trkpt lat="45.33992" lon="2.9428">
        <ele>1291.739628</ele>
        <time>2021-07-08T09:15:20+0200</time>
      </trkpt>
      <trkpt lat="45.33991" lon="2.94269">
        <ele>1292.455256</ele>
        <time>2021-07-08T09:15:22+0200</time>
      </trkpt>
      <trkpt lat="45.3399" lon="2.94257">
        <ele>1292.36922</ele>
        <time>2021-07-08T09:15:24+0200</time>
      </trkpt>
      <trkpt lat="45.33989" lon="2.94246">
        <ele>1291.442094</ele>
        <time>2021-07-08T09:15:26+0200</time>
      </trkpt>
      <trkpt lat="45.33987" lon="2.94234">
        <ele>1291.438422</ele>
        <time>2021-07-08T09:15:28+0200</time>
      </trkpt>
      <trkpt lat="45.33985" lon="2.94223">
        <ele>1291.568242</ele>
        <time>2021-07-08T09:15:30+0200</time>
      </trkpt>
      <trkpt lat="45.33985" lon="2.94213">
        <ele>1291.660789</ele>
        <time>2021-07-08T09:15:32+0200</time>
      </trkpt>
      <trkpt lat="45.33982" lon="2.94206">
        <ele>1292.182902</ele>
        <time>2021-07-08T09:15:34+0200</time>
      </trkpt>
      <trkpt lat="45.33975" lon="2.94209">
        <ele>1292.214031</ele>
        <time>2021-07-08T09:15:36+0200</time>
      </trkpt>
      <trkpt lat="45.3397" lon="2.9421">
        <ele>1291.158737</ele>
        <time>2021-07-08T09:15:40+0200</time>
      </trkpt>
      <trkpt lat="45.33965" lon="2.94209">
        <ele>1292.158153</ele>
        <time>2021-07-08T09:15:43+0200</time>
      </trkpt>
      <trkpt lat="45.3396" lon="2.94208">
        <ele>1292.260581</ele>
        <time>2021-07-08T09:18:16+0200</time>
      </trkpt>
      <trkpt lat="45.33955" lon="2.94206">
        <ele>1293.694456</ele>
        <time>2021-07-08T09:18:43+0200</time>
      </trkpt>
      <trkpt lat="45.33951" lon="2.94204">
        <ele>1294.554549</ele>
        <time>2021-07-08T09:18:45+0200</time>
      </trkpt>
      <trkpt lat="45.33946" lon="2.94204">
        <ele>1294.46157</ele>
        <time>2021-07-08T09:18:47+0200</time>
      </trkpt>
      <trkpt lat="45.3394" lon="2.94203">
        <ele>1294.569175</ele>
        <time>2021-07-08T09:18:49+0200</time>
      </trkpt>
      <trkpt lat="45.33935" lon="2.94202">
        <ele>1294.429122</ele>
        <time>2021-07-08T09:18:51+0200</time>
      </trkpt>
      <trkpt lat="45.33928" lon="2.94201">
        <ele>1294.127936</ele>
        <time>2021-07-08T09:18:54+0200</time>
      </trkpt>
      <trkpt lat="45.33923" lon="2.94199">
        <ele>1294.033565</ele>
        <time>2021-07-08T09:18:56+0200</time>
      </trkpt>
      <trkpt lat="45.33917" lon="2.94196">
        <ele>1294.336408</ele>
        <time>2021-07-08T09:18:58+0200</time>
      </trkpt>
      <trkpt lat="45.3391" lon="2.94194">
        <ele>1294.536558</ele>
        <time>2021-07-08T09:19:01+0200</time>
      </trkpt>
      <trkpt lat="45.33905" lon="2.94192">
        <ele>1294.124931</ele>
        <time>2021-07-08T09:19:03+0200</time>
      </trkpt>
      <trkpt lat="45.33899" lon="2.9419">
        <ele>1293.675063</ele>
        <time>2021-07-08T09:19:05+0200</time>
      </trkpt>
      <trkpt lat="45.33893" lon="2.94188">
        <ele>1293.774599</ele>
        <time>2021-07-08T09:19:07+0200</time>
      </trkpt>
      <trkpt lat="45.33887" lon="2.94185">
        <ele>1294.0498</ele>
        <time>2021-07-08T09:19:09+0200</time>
      </trkpt>
      <trkpt lat="45.33881" lon="2.94183">
        <ele>1294.409804</ele>
        <time>2021-07-08T09:19:11+0200</time>
      </trkpt>
      <trkpt lat="45.33875" lon="2.94181">
        <ele>1294.673903</ele>
        <time>2021-07-08T09:19:13+0200</time>
      </trkpt>
      <trkpt lat="45.33869" lon="2.94178">
        <ele>1294.851296</ele>
        <time>2021-07-08T09:19:16+0200</time>
      </trkpt>
      <trkpt lat="45.33864" lon="2.94176">
        <ele>1295.111887</ele>
        <time>2021-07-08T09:19:18+0200</time>
      </trkpt>
      <trkpt lat="45.33858" lon="2.94173">
        <ele>1295.539714</ele>
        <time>2021-07-08T09:19:20+0200</time>
      </trkpt>
      <trkpt lat="45.33853" lon="2.94171">
        <ele>1296.00703</ele>
        <time>2021-07-08T09:19:22+0200</time>
      </trkpt>
      <trkpt lat="45.33848" lon="2.94172">
        <ele>1296.161237</ele>
        <time>2021-07-08T09:19:24+0200</time>
      </trkpt>
      <trkpt lat="45.33843" lon="2.94177">
        <ele>1296.765616</ele>
        <time>2021-07-08T09:19:27+0200</time>
      </trkpt>
      <trkpt lat="45.33842" lon="2.94184">
        <ele>1297.257131</ele>
        <time>2021-07-08T09:19:29+0200</time>
      </trkpt>
      <trkpt lat="45.33841" lon="2.9419">
        <ele>1298.029462</ele>
        <time>2021-07-08T09:19:31+0200</time>
      </trkpt>
      <trkpt lat="45.33845" lon="2.942">
        <ele>1298.853625</ele>
        <time>2021-07-08T09:19:34+0200</time>
      </trkpt>
      <trkpt lat="45.33849" lon="2.94205">
        <ele>1299.383201</ele>
        <time>2021-07-08T09:19:36+0200</time>
      </trkpt>
      <trkpt lat="45.33852" lon="2.94212">
        <ele>1299.71977</ele>
        <time>2021-07-08T09:19:39+0200</time>
      </trkpt>
      <trkpt lat="45.33854" lon="2.94219">
        <ele>1300.57974</ele>
        <time>2021-07-08T09:19:42+0200</time>
      </trkpt>
      <trkpt lat="45.33856" lon="2.94225">
        <ele>1301.618974</ele>
        <time>2021-07-08T09:19:46+0200</time>
      </trkpt>
      <trkpt lat="45.33859" lon="2.94233">
        <ele>1301.730208</ele>
        <time>2021-07-08T09:19:49+0200</time>
      </trkpt>
      <trkpt lat="45.3386" lon="2.94241">
        <ele>1302.23686</ele>
        <time>2021-07-08T09:19:52+0200</time>
      </trkpt>
      <trkpt lat="45.33859" lon="2.9425">
        <ele>1302.772972</ele>
        <time>2021-07-08T09:19:55+0200</time>
      </trkpt>
      <trkpt lat="45.33861" lon="2.94257">
        <ele>1303.271531</ele>
        <time>2021-07-08T09:19:58+0200</time>
      </trkpt>
      <trkpt lat="45.33862" lon="2.94263">
        <ele>1303.43492</ele>
        <time>2021-07-08T09:20:01+0200</time>
      </trkpt>
      <trkpt lat="45.33863" lon="2.94272">
        <ele>1304.223194</ele>
        <time>2021-07-08T09:20:04+0200</time>
      </trkpt>
      <trkpt lat="45.33862" lon="2.94279">
        <ele>1304.723124</ele>
        <time>2021-07-08T09:20:07+0200</time>
      </trkpt>
      <trkpt lat="45.33861" lon="2.94284">
        <ele>1305.585849</ele>
        <time>2021-07-08T09:20:10+0200</time>
      </trkpt>
      <trkpt lat="45.33859" lon="2.94292">
        <ele>1306.053812</ele>
        <time>2021-07-08T09:20:13+0200</time>
      </trkpt>
      <trkpt lat="45.33857" lon="2.943">
        <ele>1306.191259</ele>
        <time>2021-07-08T09:20:16+0200</time>
      </trkpt>
      <trkpt lat="45.33855" lon="2.94307">
        <ele>1306.533985</ele>
        <time>2021-07-08T09:20:19+0200</time>
      </trkpt>
      <trkpt lat="45.33853" lon="2.94315">
        <ele>1308.027999</ele>
        <time>2021-07-08T09:20:22+0200</time>
      </trkpt>
      <trkpt lat="45.33852" lon="2.94322">
        <ele>1308.897367</ele>
        <time>2021-07-08T09:20:25+0200</time>
      </trkpt>
      <trkpt lat="45.33851" lon="2.94329">
        <ele>1309.562314</ele>
        <time>2021-07-08T09:20:28+0200</time>
      </trkpt>
      <trkpt lat="45.3385" lon="2.94335">
        <ele>1310.55719</ele>
        <time>2021-07-08T09:20:31+0200</time>
      </trkpt>
      <trkpt lat="45.33849" lon="2.94343">
        <ele>1311.151587</ele>
        <time>2021-07-08T09:20:34+0200</time>
      </trkpt>
      <trkpt lat="45.33848" lon="2.94351">
        <ele>1312.441755</ele>
        <time>2021-07-08T09:20:38+0200</time>
      </trkpt>
      <trkpt lat="45.33846" lon="2.94359">
        <ele>1313.450001</ele>
        <time>2021-07-08T09:20:42+0200</time>
      </trkpt>
      <trkpt lat="45.33844" lon="2.94367">
        <ele>1313.584738</ele>
        <time>2021-07-08T09:20:45+0200</time>
      </trkpt>
      <trkpt lat="45.33842" lon="2.94375">
        <ele>1313.57465</ele>
        <time>2021-07-08T09:20:48+0200</time>
      </trkpt>
      <trkpt lat="45.33839" lon="2.94381">
        <ele>1313.987734</ele>
        <time>2021-07-08T09:20:51+0200</time>
      </trkpt>
      <trkpt lat="45.33837" lon="2.94386">
        <ele>1314.244623</ele>
        <time>2021-07-08T09:20:54+0200</time>
      </trkpt>
      <trkpt lat="45.33832" lon="2.9439">
        <ele>1314.784926</ele>
        <time>2021-07-08T09:20:57+0200</time>
      </trkpt>
      <trkpt lat="45.33827" lon="2.94395">
        <ele>1315.756185</ele>
        <time>2021-07-08T09:21:01+0200</time>
      </trkpt>
      <trkpt lat="45.33823" lon="2.94397">
        <ele>1316.321124</ele>
        <time>2021-07-08T09:21:04+0200</time>
      </trkpt>
      <trkpt lat="45.33817" lon="2.944">
        <ele>1316.6943</ele>
        <time>2021-07-08T09:21:07+0200</time>
      </trkpt>
      <trkpt lat="45.33813" lon="2.94401">
        <ele>1317.134154</ele>
        <time>2021-07-08T09:21:10+0200</time>
      </trkpt>
      <trkpt lat="45.33808" lon="2.94402">
        <ele>1318.719534</ele>
        <time>2021-07-08T09:21:13+0200</time>
      </trkpt>
      <trkpt lat="45.33803" lon="2.94403">
        <ele>1319.269596</ele>
        <time>2021-07-08T09:21:16+0200</time>
      </trkpt>
      <trkpt lat="45.33798" lon="2.94405">
        <ele>1320.273875</ele>
        <time>2021-07-08T09:21:19+0200</time>
      </trkpt>
      <trkpt lat="45.33793" lon="2.94405">
        <ele>1320.964606</ele>
        <time>2021-07-08T09:21:22+0200</time>
      </trkpt>
      <trkpt lat="45.33788" lon="2.94403">
        <ele>1321.626872</ele>
        <time>2021-07-08T09:21:25+0200</time>
      </trkpt>
      <trkpt lat="45.33782" lon="2.94403">
        <ele>1321.883784</ele>
        <time>2021-07-08T09:21:28+0200</time>
      </trkpt>
      <trkpt lat="45.33777" lon="2.94402">
        <ele>1322.95682</ele>
        <time>2021-07-08T09:21:31+0200</time>
      </trkpt>
      <trkpt lat="45.33771" lon="2.94399">
        <ele>1323.462536</ele>
        <time>2021-07-08T09:21:34+0200</time>
      </trkpt>
      <trkpt lat="45.33766" lon="2.94398">
        <ele>1324.447048</ele>
        <time>2021-07-08T09:21:38+0200</time>
      </trkpt>
      <trkpt lat="45.3376" lon="2.94397">
        <ele>1323.906358</ele>
        <time>2021-07-08T09:21:41+0200</time>
      </trkpt>
      <trkpt lat="45.33755" lon="2.94395">
        <ele>1324.299363</ele>
        <time>2021-07-08T09:21:44+0200</time>
      </trkpt>
      <trkpt lat="45.33749" lon="2.94394">
        <ele>1324.722849</ele>
        <time>2021-07-08T09:21:47+0200</time>
      </trkpt>
      <trkpt lat="45.33743" lon="2.94392">
        <ele>1325.55975</ele>
        <time>2021-07-08T09:21:50+0200</time>
      </trkpt>
      <trkpt lat="45.33738" lon="2.94392">
        <ele>1325.810663</ele>
        <time>2021-07-08T09:21:53+0200</time>
      </trkpt>
      <trkpt lat="45.33732" lon="2.94392">
        <ele>1326.070791</ele>
        <time>2021-07-08T09:21:56+0200</time>
      </trkpt>
      <trkpt lat="45.33727" lon="2.94392">
        <ele>1326.938119</ele>
        <time>2021-07-08T09:21:59+0200</time>
      </trkpt>
      <trkpt lat="45.33721" lon="2.9439">
        <ele>1327.385362</ele>
        <time>2021-07-08T09:22:02+0200</time>
      </trkpt>
      <trkpt lat="45.33715" lon="2.94389">
        <ele>1328.01345</ele>
        <time>2021-07-08T09:22:05+0200</time>
      </trkpt>
      <trkpt lat="45.33709" lon="2.94389">
        <ele>1328.54242</ele>
        <time>2021-07-08T09:22:08+0200</time>
      </trkpt>
      <trkpt lat="45.33703" lon="2.94388">
        <ele>1329.218461</ele>
        <time>2021-07-08T09:22:11+0200</time>
      </trkpt>
      <trkpt lat="45.33698" lon="2.94389">
        <ele>1329.174696</ele>
        <time>2021-07-08T09:22:14+0200</time>
      </trkpt>
      <trkpt lat="45.33691" lon="2.94387">
        <ele>1329.374255</ele>
        <time>2021-07-08T09:22:17+0200</time>
      </trkpt>
      <trkpt lat="45.33686" lon="2.94387">
        <ele>1329.966941</ele>
        <time>2021-07-08T09:22:19+0200</time>
      </trkpt>
      <trkpt lat="45.3368" lon="2.94386">
        <ele>1330.482692</ele>
        <time>2021-07-08T09:22:22+0200</time>
      </trkpt>
      <trkpt lat="45.33675" lon="2.94384">
        <ele>1331.415077</ele>
        <time>2021-07-08T09:22:25+0200</time>
      </trkpt>
      <trkpt lat="45.3367" lon="2.94383">
        <ele>1331.95359</ele>
        <time>2021-07-08T09:22:27+0200</time>
      </trkpt>
      <trkpt lat="45.33664" lon="2.9438">
        <ele>1332.193117</ele>
        <time>2021-07-08T09:22:30+0200</time>
      </trkpt>
      <trkpt lat="45.33658" lon="2.94378">
        <ele>1332.858244</ele>
        <time>2021-07-08T09:22:33+0200</time>
      </trkpt>
      <trkpt lat="45.33653" lon="2.94378">
        <ele>1332.754698</ele>
        <time>2021-07-08T09:22:36+0200</time>
      </trkpt>
      <trkpt lat="45.33647" lon="2.94375">
        <ele>1333.541017</ele>
        <time>2021-07-08T09:22:39+0200</time>
      </trkpt>
      <trkpt lat="45.33641" lon="2.94372">
        <ele>1333.47566</ele>
        <time>2021-07-08T09:22:42+0200</time>
      </trkpt>
      <trkpt lat="45.33636" lon="2.9437">
        <ele>1333.924438</ele>
        <time>2021-07-08T09:22:45+0200</time>
      </trkpt>
      <trkpt lat="45.3363" lon="2.94369">
        <ele>1335.202914</ele>
        <time>2021-07-08T09:22:48+0200</time>
      </trkpt>
      <trkpt lat="45.33625" lon="2.94367">
        <ele>1336.344352</ele>
        <time>2021-07-08T09:22:51+0200</time>
      </trkpt>
      <trkpt lat="45.3362" lon="2.94367">
        <ele>1336.224156</ele>
        <time>2021-07-08T09:22:54+0200</time>
      </trkpt>
      <trkpt lat="45.33615" lon="2.94363">
        <ele>1337.23809</ele>
        <time>2021-07-08T09:22:58+0200</time>
      </trkpt>
      <trkpt lat="45.3361" lon="2.9436">
        <ele>1337.978901</ele>
        <time>2021-07-08T09:23:01+0200</time>
      </trkpt>
      <trkpt lat="45.33604" lon="2.94359">
        <ele>1338.150437</ele>
        <time>2021-07-08T09:23:04+0200</time>
      </trkpt>
      <trkpt lat="45.33598" lon="2.94361">
        <ele>1337.877397</ele>
        <time>2021-07-08T09:23:07+0200</time>
      </trkpt>
      <trkpt lat="45.33592" lon="2.94363">
        <ele>1338.28501</ele>
        <time>2021-07-08T09:23:10+0200</time>
      </trkpt>
      <trkpt lat="45.33587" lon="2.94365">
        <ele>1339.041891</ele>
        <time>2021-07-08T09:23:13+0200</time>
      </trkpt>
      <trkpt lat="45.33581" lon="2.94366">
        <ele>1340.256785</ele>
        <time>2021-07-08T09:23:16+0200</time>
      </trkpt>
      <trkpt lat="45.33576" lon="2.94365">
        <ele>1341.435413</ele>
        <time>2021-07-08T09:23:19+0200</time>
      </trkpt>
      <trkpt lat="45.33571" lon="2.94365">
        <ele>1342.306848</ele>
        <time>2021-07-08T09:23:22+0200</time>
      </trkpt>
      <trkpt lat="45.33565" lon="2.94363">
        <ele>1342.61121</ele>
        <time>2021-07-08T09:23:25+0200</time>
      </trkpt>
      <trkpt lat="45.3356" lon="2.94362">
        <ele>1342.84142</ele>
        <time>2021-07-08T09:23:28+0200</time>
      </trkpt>
      <trkpt lat="45.33554" lon="2.94359">
        <ele>1342.494019</ele>
        <time>2021-07-08T09:23:31+0200</time>
      </trkpt>
      <trkpt lat="45.3355" lon="2.94358">
        <ele>1343.876987</ele>
        <time>2021-07-08T09:23:34+0200</time>
      </trkpt>
      <trkpt lat="45.33544" lon="2.94356">
        <ele>1343.642144</ele>
        <time>2021-07-08T09:23:37+0200</time>
      </trkpt>
      <trkpt lat="45.33539" lon="2.94356">
        <ele>1344.001198</ele>
        <time>2021-07-08T09:23:40+0200</time>
      </trkpt>
      <trkpt lat="45.33533" lon="2.94355">
        <ele>1344.554235</ele>
        <time>2021-07-08T09:23:43+0200</time>
      </trkpt>
      <trkpt lat="45.33527" lon="2.94354">
        <ele>1344.767245</ele>
        <time>2021-07-08T09:23:46+0200</time>
      </trkpt>
      <trkpt lat="45.33521" lon="2.94352">
        <ele>1346.273664</ele>
        <time>2021-07-08T09:23:50+0200</time>
      </trkpt>
      <trkpt lat="45.33516" lon="2.94349">
        <ele>1347.390803</ele>
        <time>2021-07-08T09:23:53+0200</time>
      </trkpt>
      <trkpt lat="45.33512" lon="2.94345">
        <ele>1349.588959</ele>
        <time>2021-07-08T09:23:56+0200</time>
      </trkpt>
      <trkpt lat="45.33508" lon="2.94342">
        <ele>1350.075903</ele>
        <time>2021-07-08T09:23:58+0200</time>
      </trkpt>
      <trkpt lat="45.33504" lon="2.94335">
        <ele>1350.251403</ele>
        <time>2021-07-08T09:24:01+0200</time>
      </trkpt>
      <trkpt lat="45.335" lon="2.9433">
        <ele>1350.412929</ele>
        <time>2021-07-08T09:24:04+0200</time>
      </trkpt>
      <trkpt lat="45.33498" lon="2.94321">
        <ele>1350.917375</ele>
        <time>2021-07-08T09:24:07+0200</time>
      </trkpt>
      <trkpt lat="45.33495" lon="2.94313">
        <ele>1350.654852</ele>
        <time>2021-07-08T09:24:11+0200</time>
      </trkpt>
      <trkpt lat="45.33492" lon="2.94305">
        <ele>1350.615547</ele>
        <time>2021-07-08T09:24:14+0200</time>
      </trkpt>
      <trkpt lat="45.3349" lon="2.943">
        <ele>1350.604552</ele>
        <time>2021-07-08T09:24:16+0200</time>
      </trkpt>
      <trkpt lat="45.33489" lon="2.94293">
        <ele>1350.989379</ele>
        <time>2021-07-08T09:24:18+0200</time>
      </trkpt>
      <trkpt lat="45.33487" lon="2.94285">
        <ele>1350.942256</ele>
        <time>2021-07-08T09:24:21+0200</time>
      </trkpt>
      <trkpt lat="45.33485" lon="2.94277">
        <ele>1351.343724</ele>
        <time>2021-07-08T09:24:24+0200</time>
      </trkpt>
      <trkpt lat="45.33481" lon="2.94272">
        <ele>1350.994817</ele>
        <time>2021-07-08T09:24:27+0200</time>
      </trkpt>
      <trkpt lat="45.33475" lon="2.94269">
        <ele>1351.667415</ele>
        <time>2021-07-08T09:24:30+0200</time>
      </trkpt>
      <trkpt lat="45.33469" lon="2.94268">
        <ele>1352.950249</ele>
        <time>2021-07-08T09:24:33+0200</time>
      </trkpt>
      <trkpt lat="45.33463" lon="2.9427">
        <ele>1353.52646</ele>
        <time>2021-07-08T09:24:36+0200</time>
      </trkpt>
      <trkpt lat="45.33456" lon="2.94269">
        <ele>1353.677342</ele>
        <time>2021-07-08T09:24:39+0200</time>
      </trkpt>
      <trkpt lat="45.3345" lon="2.9427">
        <ele>1354.262461</ele>
        <time>2021-07-08T09:24:42+0200</time>
      </trkpt>
      <trkpt lat="45.33443" lon="2.9427">
        <ele>1354.78967</ele>
        <time>2021-07-08T09:24:45+0200</time>
      </trkpt>
      <trkpt lat="45.33438" lon="2.94269">
        <ele>1355.400773</ele>
        <time>2021-07-08T09:24:47+0200</time>
      </trkpt>
      <trkpt lat="45.33432" lon="2.94268">
        <ele>1356.003702</ele>
        <time>2021-07-08T09:24:50+0200</time>
      </trkpt>
      <trkpt lat="45.33426" lon="2.94267">
        <ele>1356.209666</ele>
        <time>2021-07-08T09:24:53+0200</time>
      </trkpt>
      <trkpt lat="45.33421" lon="2.94266">
        <ele>1356.416357</ele>
        <time>2021-07-08T09:24:55+0200</time>
      </trkpt>
      <trkpt lat="45.33415" lon="2.94266">
        <ele>1356.889989</ele>
        <time>2021-07-08T09:24:58+0200</time>
      </trkpt>
      <trkpt lat="45.33408" lon="2.94265">
        <ele>1357.260834</ele>
        <time>2021-07-08T09:25:01+0200</time>
      </trkpt>
      <trkpt lat="45.33403" lon="2.94265">
        <ele>1358.267607</ele>
        <time>2021-07-08T09:25:04+0200</time>
      </trkpt>
      <trkpt lat="45.33397" lon="2.94266">
        <ele>1358.289912</ele>
        <time>2021-07-08T09:25:07+0200</time>
      </trkpt>
      <trkpt lat="45.33391" lon="2.94267">
        <ele>1359.413067</ele>
        <time>2021-07-08T09:25:10+0200</time>
      </trkpt>
      <trkpt lat="45.33386" lon="2.94268">
        <ele>1359.842161</ele>
        <time>2021-07-08T09:25:13+0200</time>
      </trkpt>
      <trkpt lat="45.33379" lon="2.94268">
        <ele>1360.428579</ele>
        <time>2021-07-08T09:25:16+0200</time>
      </trkpt>
      <trkpt lat="45.33373" lon="2.94269">
        <ele>1360.298052</ele>
        <time>2021-07-08T09:25:19+0200</time>
      </trkpt>
      <trkpt lat="45.33367" lon="2.94271">
        <ele>1360.484315</ele>
        <time>2021-07-08T09:25:22+0200</time>
      </trkpt>
      <trkpt lat="45.33361" lon="2.94271">
        <ele>1360.675928</ele>
        <time>2021-07-08T09:25:25+0200</time>
      </trkpt>
      <trkpt lat="45.33356" lon="2.94275">
        <ele>1360.621087</ele>
        <time>2021-07-08T09:25:28+0200</time>
      </trkpt>
      <trkpt lat="45.33351" lon="2.94277">
        <ele>1361.385958</ele>
        <time>2021-07-08T09:25:31+0200</time>
      </trkpt>
      <trkpt lat="45.33345" lon="2.94277">
        <ele>1361.68325</ele>
        <time>2021-07-08T09:25:34+0200</time>
      </trkpt>
      <trkpt lat="45.3334" lon="2.9428">
        <ele>1362.052672</ele>
        <time>2021-07-08T09:25:37+0200</time>
      </trkpt>
      <trkpt lat="45.33336" lon="2.94283">
        <ele>1362.922916</ele>
        <time>2021-07-08T09:25:40+0200</time>
      </trkpt>
      <trkpt lat="45.33331" lon="2.94286">
        <ele>1363.37715</ele>
        <time>2021-07-08T09:25:43+0200</time>
      </trkpt>
      <trkpt lat="45.33326" lon="2.94288">
        <ele>1363.690411</ele>
        <time>2021-07-08T09:25:46+0200</time>
      </trkpt>
      <trkpt lat="45.33321" lon="2.94293">
        <ele>1364.15095</ele>
        <time>2021-07-08T09:25:49+0200</time>
      </trkpt>
      <trkpt lat="45.33316" lon="2.94299">
        <ele>1365.017996</ele>
        <time>2021-07-08T09:25:52+0200</time>
      </trkpt>
      <trkpt lat="45.33311" lon="2.94303">
        <ele>1365.884609</ele>
        <time>2021-07-08T09:25:55+0200</time>
      </trkpt>
      <trkpt lat="45.33306" lon="2.94309">
        <ele>1366.616045</ele>
        <time>2021-07-08T09:25:58+0200</time>
      </trkpt>
      <trkpt lat="45.33301" lon="2.94313">
        <ele>1367.447955</ele>
        <time>2021-07-08T09:26:01+0200</time>
      </trkpt>
      <trkpt lat="45.33295" lon="2.94316">
        <ele>1368.194239</ele>
        <time>2021-07-08T09:26:04+0200</time>
      </trkpt>
      <trkpt lat="45.33291" lon="2.9432">
        <ele>1369.008568</ele>
        <time>2021-07-08T09:26:07+0200</time>
      </trkpt>
      <trkpt lat="45.33286" lon="2.94324">
        <ele>1369.355519</ele>
        <time>2021-07-08T09:26:10+0200</time>
      </trkpt>
      <trkpt lat="45.33281" lon="2.94328">
        <ele>1369.642005</ele>
        <time>2021-07-08T09:26:13+0200</time>
      </trkpt>
      <trkpt lat="45.33276" lon="2.9433">
        <ele>1369.949653</ele>
        <time>2021-07-08T09:26:15+0200</time>
      </trkpt>
      <trkpt lat="45.33272" lon="2.94335">
        <ele>1370.342303</ele>
        <time>2021-07-08T09:26:18+0200</time>
      </trkpt>
      <trkpt lat="45.33267" lon="2.94339">
        <ele>1370.880502</ele>
        <time>2021-07-08T09:26:21+0200</time>
      </trkpt>
      <trkpt lat="45.33262" lon="2.94344">
        <ele>1371.182439</ele>
        <time>2021-07-08T09:26:24+0200</time>
      </trkpt>
      <trkpt lat="45.33258" lon="2.94348">
        <ele>1371.007801</ele>
        <time>2021-07-08T09:26:27+0200</time>
      </trkpt>
      <trkpt lat="45.33253" lon="2.94352">
        <ele>1371.228901</ele>
        <time>2021-07-08T09:26:30+0200</time>
      </trkpt>
      <trkpt lat="45.33248" lon="2.94357">
        <ele>1371.253987</ele>
        <time>2021-07-08T09:26:33+0200</time>
      </trkpt>
      <trkpt lat="45.33242" lon="2.9436">
        <ele>1372.092978</ele>
        <time>2021-07-08T09:26:36+0200</time>
      </trkpt>
      <trkpt lat="45.3324" lon="2.94365">
        <ele>1372.950304</ele>
        <time>2021-07-08T09:26:38+0200</time>
      </trkpt>
      <trkpt lat="45.33237" lon="2.94373">
        <ele>1373.667026</ele>
        <time>2021-07-08T09:26:41+0200</time>
      </trkpt>
      <trkpt lat="45.33235" lon="2.9438">
        <ele>1374.351969</ele>
        <time>2021-07-08T09:26:44+0200</time>
      </trkpt>
      <trkpt lat="45.33232" lon="2.94387">
        <ele>1374.875954</ele>
        <time>2021-07-08T09:26:47+0200</time>
      </trkpt>
      <trkpt lat="45.3323" lon="2.94394">
        <ele>1375.620079</ele>
        <time>2021-07-08T09:26:50+0200</time>
      </trkpt>
      <trkpt lat="45.33228" lon="2.94401">
        <ele>1375.879348</ele>
        <time>2021-07-08T09:26:53+0200</time>
      </trkpt>
      <trkpt lat="45.33226" lon="2.94409">
        <ele>1376.579613</ele>
        <time>2021-07-08T09:26:57+0200</time>
      </trkpt>
      <trkpt lat="45.33223" lon="2.94416">
        <ele>1377.131382</ele>
        <time>2021-07-08T09:27:01+0200</time>
      </trkpt>
      <trkpt lat="45.3322" lon="2.94422">
        <ele>1377.666907</ele>
        <time>2021-07-08T09:27:05+0200</time>
      </trkpt>
      <trkpt lat="45.33218" lon="2.94429">
        <ele>1378.689348</ele>
        <time>2021-07-08T09:27:09+0200</time>
      </trkpt>
      <trkpt lat="45.33214" lon="2.94434">
        <ele>1378.636013</ele>
        <time>2021-07-08T09:27:12+0200</time>
      </trkpt>
      <trkpt lat="45.33209" lon="2.94438">
        <ele>1379.319504</ele>
        <time>2021-07-08T09:27:16+0200</time>
      </trkpt>
      <trkpt lat="45.33206" lon="2.94445">
        <ele>1379.825895</ele>
        <time>2021-07-08T09:27:20+0200</time>
      </trkpt>
      <trkpt lat="45.33202" lon="2.9445">
        <ele>1380.725807</ele>
        <time>2021-07-08T09:27:23+0200</time>
      </trkpt>
      <trkpt lat="45.33196" lon="2.94452">
        <ele>1381.1808</ele>
        <time>2021-07-08T09:27:26+0200</time>
      </trkpt>
      <trkpt lat="45.33193" lon="2.94458">
        <ele>1381.431043</ele>
        <time>2021-07-08T09:27:29+0200</time>
      </trkpt>
      <trkpt lat="45.33188" lon="2.94462">
        <ele>1381.768419</ele>
        <time>2021-07-08T09:27:33+0200</time>
      </trkpt>
      <trkpt lat="45.33184" lon="2.94467">
        <ele>1381.722788</ele>
        <time>2021-07-08T09:27:36+0200</time>
      </trkpt>
      <trkpt lat="45.33178" lon="2.9447">
        <ele>1382.581551</ele>
        <time>2021-07-08T09:27:40+0200</time>
      </trkpt>
      <trkpt lat="45.33174" lon="2.94473">
        <ele>1383.36734</ele>
        <time>2021-07-08T09:27:43+0200</time>
      </trkpt>
      <trkpt lat="45.3317" lon="2.94476">
        <ele>1384.268049</ele>
        <time>2021-07-08T09:27:46+0200</time>
      </trkpt>
      <trkpt lat="45.33165" lon="2.94478">
        <ele>1385.14001</ele>
        <time>2021-07-08T09:27:49+0200</time>
      </trkpt>
      <trkpt lat="45.3316" lon="2.9448">
        <ele>1385.563043</ele>
        <time>2021-07-08T09:27:52+0200</time>
      </trkpt>
      <trkpt lat="45.33155" lon="2.94485">
        <ele>1385.961582</ele>
        <time>2021-07-08T09:27:55+0200</time>
      </trkpt>
      <trkpt lat="45.3315" lon="2.94488">
        <ele>1386.523156</ele>
        <time>2021-07-08T09:27:58+0200</time>
      </trkpt>
      <trkpt lat="45.33146" lon="2.94492">
        <ele>1387.682583</ele>
        <time>2021-07-08T09:28:01+0200</time>
      </trkpt>
      <trkpt lat="45.33142" lon="2.94497">
        <ele>1388.273735</ele>
        <time>2021-07-08T09:28:04+0200</time>
      </trkpt>
      <trkpt lat="45.33137" lon="2.94499">
        <ele>1388.614209</ele>
        <time>2021-07-08T09:28:07+0200</time>
      </trkpt>
      <trkpt lat="45.33131" lon="2.94501">
        <ele>1388.711005</ele>
        <time>2021-07-08T09:28:10+0200</time>
      </trkpt>
      <trkpt lat="45.33127" lon="2.94504">
        <ele>1389.417512</ele>
        <time>2021-07-08T09:28:13+0200</time>
      </trkpt>
      <trkpt lat="45.33122" lon="2.94506">
        <ele>1390.148841</ele>
        <time>2021-07-08T09:28:16+0200</time>
      </trkpt>
      <trkpt lat="45.33117" lon="2.94511">
        <ele>1390.417243</ele>
        <time>2021-07-08T09:28:19+0200</time>
      </trkpt>
      <trkpt lat="45.33112" lon="2.94514">
        <ele>1391.15502</ele>
        <time>2021-07-08T09:28:23+0200</time>
      </trkpt>
      <trkpt lat="45.33107" lon="2.94516">
        <ele>1391.26143</ele>
        <time>2021-07-08T09:28:26+0200</time>
      </trkpt>
      <trkpt lat="45.33103" lon="2.9452">
        <ele>1392.123449</ele>
        <time>2021-07-08T09:28:30+0200</time>
      </trkpt>
      <trkpt lat="45.33099" lon="2.94524">
        <ele>1392.817215</ele>
        <time>2021-07-08T09:28:33+0200</time>
      </trkpt>
      <trkpt lat="45.33095" lon="2.94527">
        <ele>1392.875479</ele>
        <time>2021-07-08T09:28:36+0200</time>
      </trkpt>
      <trkpt lat="45.3309" lon="2.94532">
        <ele>1393.401815</ele>
        <time>2021-07-08T09:28:40+0200</time>
      </trkpt>
      <trkpt lat="45.33085" lon="2.94536">
        <ele>1393.777959</ele>
        <time>2021-07-08T09:28:44+0200</time>
      </trkpt>
      <trkpt lat="45.3308" lon="2.94539">
        <ele>1394.398799</ele>
        <time>2021-07-08T09:28:47+0200</time>
      </trkpt>
      <trkpt lat="45.33076" lon="2.94543">
        <ele>1394.817465</ele>
        <time>2021-07-08T09:28:50+0200</time>
      </trkpt>
      <trkpt lat="45.3307" lon="2.94547">
        <ele>1395.65705</ele>
        <time>2021-07-08T09:28:54+0200</time>
      </trkpt>
      <trkpt lat="45.33065" lon="2.94552">
        <ele>1396.282875</ele>
        <time>2021-07-08T09:28:58+0200</time>
      </trkpt>
      <trkpt lat="45.33062" lon="2.94558">
        <ele>1397.217862</ele>
        <time>2021-07-08T09:29:01+0200</time>
      </trkpt>
      <trkpt lat="45.33058" lon="2.94562">
        <ele>1398.59792</ele>
        <time>2021-07-08T09:29:04+0200</time>
      </trkpt>
      <trkpt lat="45.33053" lon="2.94566">
        <ele>1399.314992</ele>
        <time>2021-07-08T09:29:07+0200</time>
      </trkpt>
      <trkpt lat="45.33048" lon="2.94568">
        <ele>1399.663311</ele>
        <time>2021-07-08T09:29:10+0200</time>
      </trkpt>
      <trkpt lat="45.33044" lon="2.94573">
        <ele>1399.811555</ele>
        <time>2021-07-08T09:29:13+0200</time>
      </trkpt>
      <trkpt lat="45.33039" lon="2.94576">
        <ele>1400.352569</ele>
        <time>2021-07-08T09:29:16+0200</time>
      </trkpt>
      <trkpt lat="45.33034" lon="2.94579">
        <ele>1400.651884</ele>
        <time>2021-07-08T09:29:19+0200</time>
      </trkpt>
      <trkpt lat="45.33029" lon="2.94583">
        <ele>1400.709211</ele>
        <time>2021-07-08T09:29:22+0200</time>
      </trkpt>
      <trkpt lat="45.33025" lon="2.94588">
        <ele>1401.2908</ele>
        <time>2021-07-08T09:29:25+0200</time>
      </trkpt>
      <trkpt lat="45.3302" lon="2.94591">
        <ele>1402.474648</ele>
        <time>2021-07-08T09:29:29+0200</time>
      </trkpt>
      <trkpt lat="45.33016" lon="2.94597">
        <ele>1402.574719</ele>
        <time>2021-07-08T09:29:32+0200</time>
      </trkpt>
      <trkpt lat="45.33013" lon="2.94603">
        <ele>1402.850965</ele>
        <time>2021-07-08T09:29:35+0200</time>
      </trkpt>
      <trkpt lat="45.33011" lon="2.9461">
        <ele>1403.506912</ele>
        <time>2021-07-08T09:29:38+0200</time>
      </trkpt>
      <trkpt lat="45.33007" lon="2.94616">
        <ele>1403.90406</ele>
        <time>2021-07-08T09:29:41+0200</time>
      </trkpt>
      <trkpt lat="45.33002" lon="2.94622">
        <ele>1404.665594</ele>
        <time>2021-07-08T09:29:44+0200</time>
      </trkpt>
      <trkpt lat="45.32999" lon="2.94627">
        <ele>1405.013639</ele>
        <time>2021-07-08T09:29:47+0200</time>
      </trkpt>
      <trkpt lat="45.32995" lon="2.94632">
        <ele>1406.059327</ele>
        <time>2021-07-08T09:29:50+0200</time>
      </trkpt>
      <trkpt lat="45.3299" lon="2.94637">
        <ele>1406.405493</ele>
        <time>2021-07-08T09:29:53+0200</time>
      </trkpt>
      <trkpt lat="45.32986" lon="2.94641">
        <ele>1406.747663</ele>
        <time>2021-07-08T09:29:56+0200</time>
      </trkpt>
      <trkpt lat="45.32982" lon="2.94647">
        <ele>1407.432981</ele>
        <time>2021-07-08T09:29:59+0200</time>
      </trkpt>
      <trkpt lat="45.32979" lon="2.94654">
        <ele>1407.805619</ele>
        <time>2021-07-08T09:30:02+0200</time>
      </trkpt>
      <trkpt lat="45.32975" lon="2.94658">
        <ele>1408.91296</ele>
        <time>2021-07-08T09:30:05+0200</time>
      </trkpt>
      <trkpt lat="45.32972" lon="2.94665">
        <ele>1408.952502</ele>
        <time>2021-07-08T09:30:08+0200</time>
      </trkpt>
      <trkpt lat="45.32968" lon="2.9467">
        <ele>1408.99106</ele>
        <time>2021-07-08T09:30:11+0200</time>
      </trkpt>
      <trkpt lat="45.32963" lon="2.94676">
        <ele>1409.246043</ele>
        <time>2021-07-08T09:30:14+0200</time>
      </trkpt>
      <trkpt lat="45.32959" lon="2.94682">
        <ele>1409.774947</ele>
        <time>2021-07-08T09:30:17+0200</time>
      </trkpt>
      <trkpt lat="45.32955" lon="2.94686">
        <ele>1410.446851</ele>
        <time>2021-07-08T09:30:20+0200</time>
      </trkpt>
      <trkpt lat="45.32951" lon="2.94691">
        <ele>1410.869407</ele>
        <time>2021-07-08T09:30:23+0200</time>
      </trkpt>
      <trkpt lat="45.32947" lon="2.94695">
        <ele>1411.258187</ele>
        <time>2021-07-08T09:30:26+0200</time>
      </trkpt>
      <trkpt lat="45.32943" lon="2.94703">
        <ele>1411.674962</ele>
        <time>2021-07-08T09:30:30+0200</time>
      </trkpt>
      <trkpt lat="45.3294" lon="2.9471">
        <ele>1412.040887</ele>
        <time>2021-07-08T09:30:33+0200</time>
      </trkpt>
      <trkpt lat="45.32938" lon="2.94716">
        <ele>1412.554174</ele>
        <time>2021-07-08T09:30:36+0200</time>
      </trkpt>
      <trkpt lat="45.32935" lon="2.94723">
        <ele>1413.227578</ele>
        <time>2021-07-08T09:30:39+0200</time>
      </trkpt>
      <trkpt lat="45.32933" lon="2.94729">
        <ele>1414.145485</ele>
        <time>2021-07-08T09:30:42+0200</time>
      </trkpt>
      <trkpt lat="45.3293" lon="2.94736">
        <ele>1414.625407</ele>
        <time>2021-07-08T09:30:45+0200</time>
      </trkpt>
      <trkpt lat="45.32927" lon="2.94741">
        <ele>1416.01818</ele>
        <time>2021-07-08T09:30:49+0200</time>
      </trkpt>
      <trkpt lat="45.32925" lon="2.94748">
        <ele>1416.387091</ele>
        <time>2021-07-08T09:30:52+0200</time>
      </trkpt>
      <trkpt lat="45.32922" lon="2.94754">
        <ele>1416.956424</ele>
        <time>2021-07-08T09:30:55+0200</time>
      </trkpt>
      <trkpt lat="45.32918" lon="2.9476">
        <ele>1417.404506</ele>
        <time>2021-07-08T09:30:59+0200</time>
      </trkpt>
      <trkpt lat="45.32915" lon="2.94765">
        <ele>1417.855723</ele>
        <time>2021-07-08T09:31:03+0200</time>
      </trkpt>
      <trkpt lat="45.32912" lon="2.94771">
        <ele>1418.456229</ele>
        <time>2021-07-08T09:31:05+0200</time>
      </trkpt>
      <trkpt lat="45.32908" lon="2.94777">
        <ele>1419.049346</ele>
        <time>2021-07-08T09:31:09+0200</time>
      </trkpt>
      <trkpt lat="45.32904" lon="2.94781">
        <ele>1419.464928</ele>
        <time>2021-07-08T09:31:12+0200</time>
      </trkpt>
      <trkpt lat="45.329" lon="2.94787">
        <ele>1420.106185</ele>
        <time>2021-07-08T09:31:15+0200</time>
      </trkpt>
      <trkpt lat="45.32896" lon="2.9479">
        <ele>1420.483465</ele>
        <time>2021-07-08T09:31:18+0200</time>
      </trkpt>
      <trkpt lat="45.32892" lon="2.94796">
        <ele>1421.003243</ele>
        <time>2021-07-08T09:31:21+0200</time>
      </trkpt>
      <trkpt lat="45.32888" lon="2.94801">
        <ele>1421.204536</ele>
        <time>2021-07-08T09:31:24+0200</time>
      </trkpt>
      <trkpt lat="45.32885" lon="2.94806">
        <ele>1421.619831</ele>
        <time>2021-07-08T09:31:27+0200</time>
      </trkpt>
      <trkpt lat="45.32883" lon="2.94813">
        <ele>1421.968572</ele>
        <time>2021-07-08T09:31:30+0200</time>
      </trkpt>
      <trkpt lat="45.32879" lon="2.94818">
        <ele>1421.351076</ele>
        <time>2021-07-08T09:31:33+0200</time>
      </trkpt>
      <trkpt lat="45.32875" lon="2.94824">
        <ele>1422.425489</ele>
        <time>2021-07-08T09:31:37+0200</time>
      </trkpt>
      <trkpt lat="45.32871" lon="2.9483">
        <ele>1422.859182</ele>
        <time>2021-07-08T09:31:40+0200</time>
      </trkpt>
      <trkpt lat="45.32868" lon="2.94836">
        <ele>1423.115435</ele>
        <time>2021-07-08T09:31:43+0200</time>
      </trkpt>
      <trkpt lat="45.32865" lon="2.94842">
        <ele>1423.818859</ele>
        <time>2021-07-08T09:31:46+0200</time>
      </trkpt>
      <trkpt lat="45.32862" lon="2.94849">
        <ele>1424.285507</ele>
        <time>2021-07-08T09:31:49+0200</time>
      </trkpt>
      <trkpt lat="45.3286" lon="2.94857">
        <ele>1423.946328</ele>
        <time>2021-07-08T09:32:08+0200</time>
      </trkpt>
      <trkpt lat="45.32859" lon="2.94866">
        <ele>1425.256478</ele>
        <time>2021-07-08T09:32:13+0200</time>
      </trkpt>
      <trkpt lat="45.32856" lon="2.94873">
        <ele>1425.935257</ele>
        <time>2021-07-08T09:32:16+0200</time>
      </trkpt>
      <trkpt lat="45.32853" lon="2.94879">
        <ele>1426.473909</ele>
        <time>2021-07-08T09:32:19+0200</time>
      </trkpt>
      <trkpt lat="45.32852" lon="2.94887">
        <ele>1427.260346</ele>
        <time>2021-07-08T09:32:22+0200</time>
      </trkpt>
      <trkpt lat="45.3285" lon="2.94894">
        <ele>1427.926926</ele>
        <time>2021-07-08T09:32:25+0200</time>
      </trkpt>
      <trkpt lat="45.32846" lon="2.94901">
        <ele>1428.613037</ele>
        <time>2021-07-08T09:32:28+0200</time>
      </trkpt>
      <trkpt lat="45.32841" lon="2.94905">
        <ele>1429.075877</ele>
        <time>2021-07-08T09:32:31+0200</time>
      </trkpt>
      <trkpt lat="45.32837" lon="2.94909">
        <ele>1428.990673</ele>
        <time>2021-07-08T09:32:33+0200</time>
      </trkpt>
      <trkpt lat="45.32834" lon="2.94914">
        <ele>1429.027072</ele>
        <time>2021-07-08T09:32:35+0200</time>
      </trkpt>
      <trkpt lat="45.32829" lon="2.94919">
        <ele>1429.313938</ele>
        <time>2021-07-08T09:32:38+0200</time>
      </trkpt>
      <trkpt lat="45.32823" lon="2.94921">
        <ele>1429.86605</ele>
        <time>2021-07-08T09:32:41+0200</time>
      </trkpt>
      <trkpt lat="45.32818" lon="2.94921">
        <ele>1430.770623</ele>
        <time>2021-07-08T09:32:43+0200</time>
      </trkpt>
      <trkpt lat="45.32811" lon="2.94921">
        <ele>1431.323382</ele>
        <time>2021-07-08T09:32:46+0200</time>
      </trkpt>
      <trkpt lat="45.32805" lon="2.94919">
        <ele>1432.153509</ele>
        <time>2021-07-08T09:32:49+0200</time>
      </trkpt>
      <trkpt lat="45.32799" lon="2.94918">
        <ele>1432.795148</ele>
        <time>2021-07-08T09:32:52+0200</time>
      </trkpt>
      <trkpt lat="45.32794" lon="2.9492">
        <ele>1433.021534</ele>
        <time>2021-07-08T09:32:54+0200</time>
      </trkpt>
      <trkpt lat="45.32789" lon="2.94923">
        <ele>1433.405826</ele>
        <time>2021-07-08T09:32:57+0200</time>
      </trkpt>
      <trkpt lat="45.32782" lon="2.94925">
        <ele>1433.300835</ele>
        <time>2021-07-08T09:33:00+0200</time>
      </trkpt>
      <trkpt lat="45.32775" lon="2.94927">
        <ele>1433.855606</ele>
        <time>2021-07-08T09:33:03+0200</time>
      </trkpt>
      <trkpt lat="45.3277" lon="2.94929">
        <ele>1433.846772</ele>
        <time>2021-07-08T09:33:05+0200</time>
      </trkpt>
      <trkpt lat="45.32764" lon="2.94931">
        <ele>1434.416219</ele>
        <time>2021-07-08T09:33:07+0200</time>
      </trkpt>
      <trkpt lat="45.32759" lon="2.94931">
        <ele>1434.73632</ele>
        <time>2021-07-08T09:33:09+0200</time>
      </trkpt>
      <trkpt lat="45.32754" lon="2.94932">
        <ele>1435.170494</ele>
        <time>2021-07-08T09:33:11+0200</time>
      </trkpt>
      <trkpt lat="45.32749" lon="2.94931">
        <ele>1435.590014</ele>
        <time>2021-07-08T09:33:13+0200</time>
      </trkpt>
      <trkpt lat="45.32744" lon="2.9493">
        <ele>1436.099212</ele>
        <time>2021-07-08T09:33:15+0200</time>
      </trkpt>
      <trkpt lat="45.32738" lon="2.9493">
        <ele>1436.53597</ele>
        <time>2021-07-08T09:33:17+0200</time>
      </trkpt>
      <trkpt lat="45.32733" lon="2.94929">
        <ele>1437.028912</ele>
        <time>2021-07-08T09:33:19+0200</time>
      </trkpt>
      <trkpt lat="45.32728" lon="2.94928">
        <ele>1437.350729</ele>
        <time>2021-07-08T09:33:21+0200</time>
      </trkpt>
      <trkpt lat="45.32723" lon="2.94927">
        <ele>1437.343373</ele>
        <time>2021-07-08T09:33:23+0200</time>
      </trkpt>
      <trkpt lat="45.32718" lon="2.94926">
        <ele>1437.680792</ele>
        <time>2021-07-08T09:33:25+0200</time>
      </trkpt>
      <trkpt lat="45.32713" lon="2.94925">
        <ele>1437.889678</ele>
        <time>2021-07-08T09:33:27+0200</time>
      </trkpt>
      <trkpt lat="45.32708" lon="2.94923">
        <ele>1438.387771</ele>
        <time>2021-07-08T09:33:29+0200</time>
      </trkpt>
      <trkpt lat="45.32702" lon="2.94921">
        <ele>1438.227783</ele>
        <time>2021-07-08T09:33:31+0200</time>
      </trkpt>
      <trkpt lat="45.32697" lon="2.94919">
        <ele>1438.471491</ele>
        <time>2021-07-08T09:33:33+0200</time>
      </trkpt>
      <trkpt lat="45.32692" lon="2.94916">
        <ele>1438.483453</ele>
        <time>2021-07-08T09:33:35+0200</time>
      </trkpt>
      <trkpt lat="45.32688" lon="2.94914">
        <ele>1439.066907</ele>
        <time>2021-07-08T09:33:37+0200</time>
      </trkpt>
      <trkpt lat="45.32683" lon="2.94911">
        <ele>1439.602309</ele>
        <time>2021-07-08T09:33:39+0200</time>
      </trkpt>
      <trkpt lat="45.32679" lon="2.94908">
        <ele>1440.309782</ele>
        <time>2021-07-08T09:33:41+0200</time>
      </trkpt>
      <trkpt lat="45.32673" lon="2.94906">
        <ele>1440.603449</ele>
        <time>2021-07-08T09:33:43+0200</time>
      </trkpt>
      <trkpt lat="45.32669" lon="2.94904">
        <ele>1441.085106</ele>
        <time>2021-07-08T09:33:45+0200</time>
      </trkpt>
      <trkpt lat="45.32664" lon="2.94901">
        <ele>1441.667086</ele>
        <time>2021-07-08T09:33:47+0200</time>
      </trkpt>
      <trkpt lat="45.32659" lon="2.94899">
        <ele>1442.08436</ele>
        <time>2021-07-08T09:33:49+0200</time>
      </trkpt>
      <trkpt lat="45.32654" lon="2.94896">
        <ele>1442.409698</ele>
        <time>2021-07-08T09:33:51+0200</time>
      </trkpt>
      <trkpt lat="45.32649" lon="2.94894">
        <ele>1442.543482</ele>
        <time>2021-07-08T09:33:53+0200</time>
      </trkpt>
      <trkpt lat="45.32643" lon="2.94892">
        <ele>1442.637045</ele>
        <time>2021-07-08T09:33:55+0200</time>
      </trkpt>
      <trkpt lat="45.32638" lon="2.94891">
        <ele>1442.481305</ele>
        <time>2021-07-08T09:33:57+0200</time>
      </trkpt>
      <trkpt lat="45.32633" lon="2.94891">
        <ele>1442.656005</ele>
        <time>2021-07-08T09:33:59+0200</time>
      </trkpt>
      <trkpt lat="45.32628" lon="2.94892">
        <ele>1442.975871</ele>
        <time>2021-07-08T09:34:01+0200</time>
      </trkpt>
      <trkpt lat="45.32623" lon="2.94892">
        <ele>1443.689077</ele>
        <time>2021-07-08T09:34:03+0200</time>
      </trkpt>
      <trkpt lat="45.32618" lon="2.94892">
        <ele>1444.264074</ele>
        <time>2021-07-08T09:34:05+0200</time>
      </trkpt>
      <trkpt lat="45.32613" lon="2.94893">
        <ele>1444.526899</ele>
        <time>2021-07-08T09:34:07+0200</time>
      </trkpt>
      <trkpt lat="45.32607" lon="2.94894">
        <ele>1445.036801</ele>
        <time>2021-07-08T09:34:09+0200</time>
      </trkpt>
      <trkpt lat="45.32603" lon="2.94895">
        <ele>1445.364054</ele>
        <time>2021-07-08T09:34:11+0200</time>
      </trkpt>
      <trkpt lat="45.32597" lon="2.94895">
        <ele>1445.996223</ele>
        <time>2021-07-08T09:34:14+0200</time>
      </trkpt>
      <trkpt lat="45.32592" lon="2.94895">
        <ele>1446.342653</ele>
        <time>2021-07-08T09:34:17+0200</time>
      </trkpt>
      <trkpt lat="45.32586" lon="2.94895">
        <ele>1447.249216</ele>
        <time>2021-07-08T09:34:20+0200</time>
      </trkpt>
      <trkpt lat="45.3258" lon="2.94897">
        <ele>1448.055605</ele>
        <time>2021-07-08T09:34:23+0200</time>
      </trkpt>
      <trkpt lat="45.32574" lon="2.94896">
        <ele>1448.818484</ele>
        <time>2021-07-08T09:34:26+0200</time>
      </trkpt>
      <trkpt lat="45.32569" lon="2.94897">
        <ele>1449.60892</ele>
        <time>2021-07-08T09:34:29+0200</time>
      </trkpt>
      <trkpt lat="45.32563" lon="2.94898">
        <ele>1450.090629</ele>
        <time>2021-07-08T09:34:32+0200</time>
      </trkpt>
      <trkpt lat="45.32557" lon="2.94898">
        <ele>1450.555329</ele>
        <time>2021-07-08T09:34:35+0200</time>
      </trkpt>
      <trkpt lat="45.32551" lon="2.94899">
        <ele>1450.92331</ele>
        <time>2021-07-08T09:34:38+0200</time>
      </trkpt>
      <trkpt lat="45.32545" lon="2.94899">
        <ele>1451.662289</ele>
        <time>2021-07-08T09:34:41+0200</time>
      </trkpt>
      <trkpt lat="45.3254" lon="2.94899">
        <ele>1452.161819</ele>
        <time>2021-07-08T09:34:44+0200</time>
      </trkpt>
      <trkpt lat="45.32534" lon="2.949">
        <ele>1452.539604</ele>
        <time>2021-07-08T09:34:47+0200</time>
      </trkpt>
      <trkpt lat="45.32528" lon="2.949">
        <ele>1452.832833</ele>
        <time>2021-07-08T09:34:50+0200</time>
      </trkpt>
      <trkpt lat="45.32522" lon="2.94901">
        <ele>1453.393896</ele>
        <time>2021-07-08T09:34:53+0200</time>
      </trkpt>
      <trkpt lat="45.32517" lon="2.94902">
        <ele>1454.085871</ele>
        <time>2021-07-08T09:34:56+0200</time>
      </trkpt>
      <trkpt lat="45.32512" lon="2.94903">
        <ele>1454.552554</ele>
        <time>2021-07-08T09:34:59+0200</time>
      </trkpt>
      <trkpt lat="45.32506" lon="2.94902">
        <ele>1455.244911</ele>
        <time>2021-07-08T09:35:03+0200</time>
      </trkpt>
      <trkpt lat="45.32501" lon="2.94899">
        <ele>1455.760898</ele>
        <time>2021-07-08T09:35:12+0200</time>
      </trkpt>
      <trkpt lat="45.32496" lon="2.94902">
        <ele>1455.291113</ele>
        <time>2021-07-08T09:40:12+0200</time>
      </trkpt>
      <trkpt lat="45.32491" lon="2.94902">
        <ele>1456.106776</ele>
        <time>2021-07-08T09:40:15+0200</time>
      </trkpt>
      <trkpt lat="45.32486" lon="2.94902">
        <ele>1456.661014</ele>
        <time>2021-07-08T09:40:17+0200</time>
      </trkpt>
      <trkpt lat="45.32481" lon="2.94904">
        <ele>1458.05364</ele>
        <time>2021-07-08T09:40:19+0200</time>
      </trkpt>
      <trkpt lat="45.32474" lon="2.94906">
        <ele>1458.070681</ele>
        <time>2021-07-08T09:40:22+0200</time>
      </trkpt>
      <trkpt lat="45.32468" lon="2.94906">
        <ele>1458.68739</ele>
        <time>2021-07-08T09:40:25+0200</time>
      </trkpt>
      <trkpt lat="45.32463" lon="2.94907">
        <ele>1458.889562</ele>
        <time>2021-07-08T09:40:27+0200</time>
      </trkpt>
      <trkpt lat="45.32458" lon="2.94906">
        <ele>1459.544976</ele>
        <time>2021-07-08T09:40:29+0200</time>
      </trkpt>
      <trkpt lat="45.32453" lon="2.94907">
        <ele>1459.692152</ele>
        <time>2021-07-08T09:40:31+0200</time>
      </trkpt>
      <trkpt lat="45.32448" lon="2.94908">
        <ele>1459.671893</ele>
        <time>2021-07-08T09:40:33+0200</time>
      </trkpt>
      <trkpt lat="45.32442" lon="2.94909">
        <ele>1459.798089</ele>
        <time>2021-07-08T09:40:35+0200</time>
      </trkpt>
      <trkpt lat="45.32436" lon="2.94909">
        <ele>1459.963766</ele>
        <time>2021-07-08T09:40:37+0200</time>
      </trkpt>
      <trkpt lat="45.32431" lon="2.9491">
        <ele>1459.92023</ele>
        <time>2021-07-08T09:40:39+0200</time>
      </trkpt>
      <trkpt lat="45.32424" lon="2.94911">
        <ele>1460.165098</ele>
        <time>2021-07-08T09:40:41+0200</time>
      </trkpt>
      <trkpt lat="45.32418" lon="2.94911">
        <ele>1460.476374</ele>
        <time>2021-07-08T09:40:43+0200</time>
      </trkpt>
      <trkpt lat="45.32412" lon="2.94912">
        <ele>1460.941648</ele>
        <time>2021-07-08T09:40:45+0200</time>
      </trkpt>
      <trkpt lat="45.32406" lon="2.94913">
        <ele>1461.477211</ele>
        <time>2021-07-08T09:40:47+0200</time>
      </trkpt>
      <trkpt lat="45.32401" lon="2.94912">
        <ele>1461.665879</ele>
        <time>2021-07-08T09:40:49+0200</time>
      </trkpt>
      <trkpt lat="45.32395" lon="2.94913">
        <ele>1461.596561</ele>
        <time>2021-07-08T09:40:51+0200</time>
      </trkpt>
      <trkpt lat="45.32389" lon="2.94912">
        <ele>1461.470428</ele>
        <time>2021-07-08T09:40:53+0200</time>
      </trkpt>
      <trkpt lat="45.32383" lon="2.94913">
        <ele>1461.61937</ele>
        <time>2021-07-08T09:40:55+0200</time>
      </trkpt>
      <trkpt lat="45.32377" lon="2.94913">
        <ele>1461.509915</ele>
        <time>2021-07-08T09:40:57+0200</time>
      </trkpt>
      <trkpt lat="45.32371" lon="2.94914">
        <ele>1461.130485</ele>
        <time>2021-07-08T09:40:59+0200</time>
      </trkpt>
      <trkpt lat="45.32364" lon="2.94915">
        <ele>1460.452613</ele>
        <time>2021-07-08T09:41:01+0200</time>
      </trkpt>
      <trkpt lat="45.32357" lon="2.94915">
        <ele>1460.11345</ele>
        <time>2021-07-08T09:41:03+0200</time>
      </trkpt>
      <trkpt lat="45.3235" lon="2.94917">
        <ele>1459.400194</ele>
        <time>2021-07-08T09:41:05+0200</time>
      </trkpt>
      <trkpt lat="45.32342" lon="2.94917">
        <ele>1458.896107</ele>
        <time>2021-07-08T09:41:07+0200</time>
      </trkpt>
      <trkpt lat="45.32332" lon="2.94918">
        <ele>1458.231874</ele>
        <time>2021-07-08T09:41:09+0200</time>
      </trkpt>
      <trkpt lat="45.32327" lon="2.9492">
        <ele>1457.706727</ele>
        <time>2021-07-08T09:41:10+0200</time>
      </trkpt>
      <trkpt lat="45.32322" lon="2.94922">
        <ele>1457.825023</ele>
        <time>2021-07-08T09:41:11+0200</time>
      </trkpt>
      <trkpt lat="45.32317" lon="2.94922">
        <ele>1457.658436</ele>
        <time>2021-07-08T09:41:12+0200</time>
      </trkpt>
      <trkpt lat="45.32311" lon="2.94923">
        <ele>1457.676396</ele>
        <time>2021-07-08T09:41:13+0200</time>
      </trkpt>
      <trkpt lat="45.32305" lon="2.94923">
        <ele>1457.59142</ele>
        <time>2021-07-08T09:41:14+0200</time>
      </trkpt>
      <trkpt lat="45.323" lon="2.94924">
        <ele>1457.548702</ele>
        <time>2021-07-08T09:41:15+0200</time>
      </trkpt>
      <trkpt lat="45.32295" lon="2.94925">
        <ele>1457.53795</ele>
        <time>2021-07-08T09:41:16+0200</time>
      </trkpt>
      <trkpt lat="45.32287" lon="2.94926">
        <ele>1458.097732</ele>
        <time>2021-07-08T09:41:18+0200</time>
      </trkpt>
      <trkpt lat="45.3228" lon="2.94929">
        <ele>1458.486091</ele>
        <time>2021-07-08T09:41:20+0200</time>
      </trkpt>
      <trkpt lat="45.32273" lon="2.94929">
        <ele>1458.401525</ele>
        <time>2021-07-08T09:41:22+0200</time>
      </trkpt>
      <trkpt lat="45.32266" lon="2.9493">
        <ele>1458.874105</ele>
        <time>2021-07-08T09:41:24+0200</time>
      </trkpt>
      <trkpt lat="45.32259" lon="2.9493">
        <ele>1459.406898</ele>
        <time>2021-07-08T09:41:26+0200</time>
      </trkpt>
      <trkpt lat="45.32252" lon="2.94931">
        <ele>1459.994259</ele>
        <time>2021-07-08T09:41:28+0200</time>
      </trkpt>
      <trkpt lat="45.32246" lon="2.94931">
        <ele>1460.306641</ele>
        <time>2021-07-08T09:41:30+0200</time>
      </trkpt>
      <trkpt lat="45.32239" lon="2.94931">
        <ele>1460.429698</ele>
        <time>2021-07-08T09:41:32+0200</time>
      </trkpt>
      <trkpt lat="45.32233" lon="2.94932">
        <ele>1460.926991</ele>
        <time>2021-07-08T09:41:34+0200</time>
      </trkpt>
      <trkpt lat="45.32227" lon="2.94933">
        <ele>1461.288519</ele>
        <time>2021-07-08T09:41:36+0200</time>
      </trkpt>
      <trkpt lat="45.3222" lon="2.94934">
        <ele>1461.644159</ele>
        <time>2021-07-08T09:41:38+0200</time>
      </trkpt>
      <trkpt lat="45.32213" lon="2.94935">
        <ele>1461.614299</ele>
        <time>2021-07-08T09:41:40+0200</time>
      </trkpt>
      <trkpt lat="45.32206" lon="2.94935">
        <ele>1461.760232</ele>
        <time>2021-07-08T09:41:42+0200</time>
      </trkpt>
      <trkpt lat="45.32199" lon="2.94936">
        <ele>1461.902084</ele>
        <time>2021-07-08T09:41:44+0200</time>
      </trkpt>
      <trkpt lat="45.32191" lon="2.94935">
        <ele>1462.35488</ele>
        <time>2021-07-08T09:41:46+0200</time>
      </trkpt>
      <trkpt lat="45.32184" lon="2.94936">
        <ele>1462.140564</ele>
        <time>2021-07-08T09:41:48+0200</time>
      </trkpt>
      <trkpt lat="45.32176" lon="2.94938">
        <ele>1461.937736</ele>
        <time>2021-07-08T09:41:50+0200</time>
      </trkpt>
      <trkpt lat="45.3217" lon="2.94939">
        <ele>1461.880739</ele>
        <time>2021-07-08T09:41:52+0200</time>
      </trkpt>
      <trkpt lat="45.32162" lon="2.9494">
        <ele>1461.94756</ele>
        <time>2021-07-08T09:41:54+0200</time>
      </trkpt>
      <trkpt lat="45.32154" lon="2.9494">
        <ele>1462.074288</ele>
        <time>2021-07-08T09:41:56+0200</time>
      </trkpt>
      <trkpt lat="45.32147" lon="2.94942">
        <ele>1461.902531</ele>
        <time>2021-07-08T09:41:58+0200</time>
      </trkpt>
      <trkpt lat="45.32139" lon="2.94941">
        <ele>1462.152379</ele>
        <time>2021-07-08T09:42:00+0200</time>
      </trkpt>
      <trkpt lat="45.32131" lon="2.94939">
        <ele>1461.971366</ele>
        <time>2021-07-08T09:42:02+0200</time>
      </trkpt>
      <trkpt lat="45.32122" lon="2.94937">
        <ele>1461.711952</ele>
        <time>2021-07-08T09:42:04+0200</time>
      </trkpt>
      <trkpt lat="45.32118" lon="2.94935">
        <ele>1461.785753</ele>
        <time>2021-07-08T09:42:05+0200</time>
      </trkpt>
      <trkpt lat="45.32113" lon="2.94933">
        <ele>1461.592471</ele>
        <time>2021-07-08T09:42:06+0200</time>
      </trkpt>
      <trkpt lat="45.32108" lon="2.94932">
        <ele>1461.479182</ele>
        <time>2021-07-08T09:42:07+0200</time>
      </trkpt>
      <trkpt lat="45.32104" lon="2.9493">
        <ele>1461.45175</ele>
        <time>2021-07-08T09:42:08+0200</time>
      </trkpt>
      <trkpt lat="45.32099" lon="2.94928">
        <ele>1461.466249</ele>
        <time>2021-07-08T09:42:09+0200</time>
      </trkpt>
      <trkpt lat="45.32094" lon="2.94925">
        <ele>1461.429515</ele>
        <time>2021-07-08T09:42:10+0200</time>
      </trkpt>
      <trkpt lat="45.32089" lon="2.94923">
        <ele>1461.191054</ele>
        <time>2021-07-08T09:42:11+0200</time>
      </trkpt>
      <trkpt lat="45.32084" lon="2.94921">
        <ele>1460.898682</ele>
        <time>2021-07-08T09:42:12+0200</time>
      </trkpt>
      <trkpt lat="45.32079" lon="2.94919">
        <ele>1460.506424</ele>
        <time>2021-07-08T09:42:13+0200</time>
      </trkpt>
      <trkpt lat="45.32073" lon="2.94917">
        <ele>1459.820505</ele>
        <time>2021-07-08T09:42:14+0200</time>
      </trkpt>
      <trkpt lat="45.32067" lon="2.94914">
        <ele>1459.621276</ele>
        <time>2021-07-08T09:42:15+0200</time>
      </trkpt>
      <trkpt lat="45.32061" lon="2.94912">
        <ele>1458.710956</ele>
        <time>2021-07-08T09:42:16+0200</time>
      </trkpt>
      <trkpt lat="45.32054" lon="2.94911">
        <ele>1458.51873</ele>
        <time>2021-07-08T09:42:17+0200</time>
      </trkpt>
      <trkpt lat="45.32048" lon="2.94912">
        <ele>1457.71691</ele>
        <time>2021-07-08T09:42:18+0200</time>
      </trkpt>
      <trkpt lat="45.32041" lon="2.94911">
        <ele>1456.975113</ele>
        <time>2021-07-08T09:42:19+0200</time>
      </trkpt>
      <trkpt lat="45.32033" lon="2.94912">
        <ele>1456.187012</ele>
        <time>2021-07-08T09:42:20+0200</time>
      </trkpt>
      <trkpt lat="45.32026" lon="2.94914">
        <ele>1455.682798</ele>
        <time>2021-07-08T09:42:21+0200</time>
      </trkpt>
      <trkpt lat="45.32019" lon="2.94916">
        <ele>1454.968906</ele>
        <time>2021-07-08T09:42:22+0200</time>
      </trkpt>
      <trkpt lat="45.32012" lon="2.94919">
        <ele>1454.018564</ele>
        <time>2021-07-08T09:42:23+0200</time>
      </trkpt>
      <trkpt lat="45.32005" lon="2.94924">
        <ele>1453.426429</ele>
        <time>2021-07-08T09:42:24+0200</time>
      </trkpt>
      <trkpt lat="45.31998" lon="2.94927">
        <ele>1452.695959</ele>
        <time>2021-07-08T09:42:25+0200</time>
      </trkpt>
      <trkpt lat="45.3199" lon="2.9493">
        <ele>1451.840434</ele>
        <time>2021-07-08T09:42:26+0200</time>
      </trkpt>
      <trkpt lat="45.31982" lon="2.94935">
        <ele>1451.683156</ele>
        <time>2021-07-08T09:42:27+0200</time>
      </trkpt>
      <trkpt lat="45.31974" lon="2.94939">
        <ele>1451.249947</ele>
        <time>2021-07-08T09:42:28+0200</time>
      </trkpt>
      <trkpt lat="45.31966" lon="2.94944">
        <ele>1450.94371</ele>
        <time>2021-07-08T09:42:29+0200</time>
      </trkpt>
      <trkpt lat="45.31958" lon="2.94951">
        <ele>1450.291025</ele>
        <time>2021-07-08T09:42:30+0200</time>
      </trkpt>
      <trkpt lat="45.31953" lon="2.94959">
        <ele>1449.500928</ele>
        <time>2021-07-08T09:42:31+0200</time>
      </trkpt>
      <trkpt lat="45.31949" lon="2.94967">
        <ele>1449.135769</ele>
        <time>2021-07-08T09:42:32+0200</time>
      </trkpt>
      <trkpt lat="45.31946" lon="2.94977">
        <ele>1448.096937</ele>
        <time>2021-07-08T09:42:33+0200</time>
      </trkpt>
      <trkpt lat="45.31945" lon="2.94988">
        <ele>1447.50302</ele>
        <time>2021-07-08T09:42:34+0200</time>
      </trkpt>
      <trkpt lat="45.31945" lon="2.94999">
        <ele>1446.717831</ele>
        <time>2021-07-08T09:42:35+0200</time>
      </trkpt>
      <trkpt lat="45.31945" lon="2.95009">
        <ele>1446.343971</ele>
        <time>2021-07-08T09:42:36+0200</time>
      </trkpt>
      <trkpt lat="45.31945" lon="2.95015">
        <ele>1446.248792</ele>
        <time>2021-07-08T09:42:37+0200</time>
      </trkpt>
      <trkpt lat="45.31945" lon="2.95028">
        <ele>1445.808347</ele>
        <time>2021-07-08T09:42:39+0200</time>
      </trkpt>
      <trkpt lat="45.31946" lon="2.95037">
        <ele>1445.623778</ele>
        <time>2021-07-08T09:42:41+0200</time>
      </trkpt>
      <trkpt lat="45.31948" lon="2.95045">
        <ele>1445.160977</ele>
        <time>2021-07-08T09:42:43+0200</time>
      </trkpt>
      <trkpt lat="45.31949" lon="2.95052">
        <ele>1444.970867</ele>
        <time>2021-07-08T09:42:46+0200</time>
      </trkpt>
      <trkpt lat="45.31952" lon="2.9506">
        <ele>1445.328904</ele>
        <time>2021-07-08T09:42:49+0200</time>
      </trkpt>
      <trkpt lat="45.31954" lon="2.95068">
        <ele>1444.973435</ele>
        <time>2021-07-08T09:42:51+0200</time>
      </trkpt>
      <trkpt lat="45.31957" lon="2.95079">
        <ele>1444.869602</ele>
        <time>2021-07-08T09:42:53+0200</time>
      </trkpt>
      <trkpt lat="45.31959" lon="2.95085">
        <ele>1444.609714</ele>
        <time>2021-07-08T09:42:54+0200</time>
      </trkpt>
      <trkpt lat="45.31962" lon="2.95092">
        <ele>1444.366928</ele>
        <time>2021-07-08T09:42:55+0200</time>
      </trkpt>
      <trkpt lat="45.31964" lon="2.95099">
        <ele>1444.149525</ele>
        <time>2021-07-08T09:42:56+0200</time>
      </trkpt>
      <trkpt lat="45.31966" lon="2.95106">
        <ele>1443.64897</ele>
        <time>2021-07-08T09:42:57+0200</time>
      </trkpt>
      <trkpt lat="45.31969" lon="2.95117">
        <ele>1443.906583</ele>
        <time>2021-07-08T09:42:59+0200</time>
      </trkpt>
      <trkpt lat="45.31971" lon="2.95129">
        <ele>1443.359223</ele>
        <time>2021-07-08T09:43:01+0200</time>
      </trkpt>
      <trkpt lat="45.31971" lon="2.9514">
        <ele>1443.214316</ele>
        <time>2021-07-08T09:43:03+0200</time>
      </trkpt>
      <trkpt lat="45.31972" lon="2.95152">
        <ele>1442.505185</ele>
        <time>2021-07-08T09:43:05+0200</time>
      </trkpt>
      <trkpt lat="45.31973" lon="2.95164">
        <ele>1442.597972</ele>
        <time>2021-07-08T09:43:07+0200</time>
      </trkpt>
      <trkpt lat="45.31973" lon="2.9517">
        <ele>1442.177467</ele>
        <time>2021-07-08T09:43:08+0200</time>
      </trkpt>
      <trkpt lat="45.31973" lon="2.95177">
        <ele>1441.969008</ele>
        <time>2021-07-08T09:43:09+0200</time>
      </trkpt>
      <trkpt lat="45.31973" lon="2.95184">
        <ele>1441.864473</ele>
        <time>2021-07-08T09:43:10+0200</time>
      </trkpt>
      <trkpt lat="45.31972" lon="2.9519">
        <ele>1441.752042</ele>
        <time>2021-07-08T09:43:11+0200</time>
      </trkpt>
      <trkpt lat="45.31972" lon="2.95198">
        <ele>1441.709338</ele>
        <time>2021-07-08T09:43:12+0200</time>
      </trkpt>
      <trkpt lat="45.3197" lon="2.95205">
        <ele>1441.408766</ele>
        <time>2021-07-08T09:43:13+0200</time>
      </trkpt>
      <trkpt lat="45.31968" lon="2.95212">
        <ele>1441.061523</ele>
        <time>2021-07-08T09:43:14+0200</time>
      </trkpt>
      <trkpt lat="45.31965" lon="2.9522">
        <ele>1440.754309</ele>
        <time>2021-07-08T09:43:15+0200</time>
      </trkpt>
      <trkpt lat="45.3196" lon="2.95225">
        <ele>1440.372414</ele>
        <time>2021-07-08T09:43:16+0200</time>
      </trkpt>
      <trkpt lat="45.31954" lon="2.95229">
        <ele>1439.48849</ele>
        <time>2021-07-08T09:43:17+0200</time>
      </trkpt>
      <trkpt lat="45.31947" lon="2.9523">
        <ele>1439.125493</ele>
        <time>2021-07-08T09:43:18+0200</time>
      </trkpt>
      <trkpt lat="45.3194" lon="2.95229">
        <ele>1439.075674</ele>
        <time>2021-07-08T09:43:19+0200</time>
      </trkpt>
      <trkpt lat="45.31933" lon="2.95229">
        <ele>1438.94757</ele>
        <time>2021-07-08T09:43:20+0200</time>
      </trkpt>
      <trkpt lat="45.31925" lon="2.95228">
        <ele>1438.637037</ele>
        <time>2021-07-08T09:43:21+0200</time>
      </trkpt>
      <trkpt lat="45.31919" lon="2.95227">
        <ele>1437.948164</ele>
        <time>2021-07-08T09:43:22+0200</time>
      </trkpt>
      <trkpt lat="45.31911" lon="2.95229">
        <ele>1437.055721</ele>
        <time>2021-07-08T09:43:23+0200</time>
      </trkpt>
      <trkpt lat="45.31904" lon="2.95231">
        <ele>1436.291452</ele>
        <time>2021-07-08T09:43:24+0200</time>
      </trkpt>
      <trkpt lat="45.31896" lon="2.95234">
        <ele>1435.255033</ele>
        <time>2021-07-08T09:43:25+0200</time>
      </trkpt>
      <trkpt lat="45.31889" lon="2.95237">
        <ele>1435.213928</ele>
        <time>2021-07-08T09:43:26+0200</time>
      </trkpt>
      <trkpt lat="45.31882" lon="2.95243">
        <ele>1434.849934</ele>
        <time>2021-07-08T09:43:27+0200</time>
      </trkpt>
      <trkpt lat="45.31875" lon="2.9525">
        <ele>1434.365656</ele>
        <time>2021-07-08T09:43:28+0200</time>
      </trkpt>
      <trkpt lat="45.31869" lon="2.95259">
        <ele>1433.691797</ele>
        <time>2021-07-08T09:43:29+0200</time>
      </trkpt>
      <trkpt lat="45.31863" lon="2.95269">
        <ele>1432.836225</ele>
        <time>2021-07-08T09:43:30+0200</time>
      </trkpt>
      <trkpt lat="45.31859" lon="2.95281">
        <ele>1432.41403</ele>
        <time>2021-07-08T09:43:31+0200</time>
      </trkpt>
      <trkpt lat="45.31855" lon="2.95294">
        <ele>1431.926429</ele>
        <time>2021-07-08T09:43:32+0200</time>
      </trkpt>
      <trkpt lat="45.31854" lon="2.95306">
        <ele>1432.02481</ele>
        <time>2021-07-08T09:43:33+0200</time>
      </trkpt>
      <trkpt lat="45.31852" lon="2.95319">
        <ele>1431.238388</ele>
        <time>2021-07-08T09:43:34+0200</time>
      </trkpt>
      <trkpt lat="45.31853" lon="2.95332">
        <ele>1430.589275</ele>
        <time>2021-07-08T09:43:35+0200</time>
      </trkpt>
      <trkpt lat="45.31852" lon="2.95345">
        <ele>1430.109117</ele>
        <time>2021-07-08T09:43:36+0200</time>
      </trkpt>
      <trkpt lat="45.31852" lon="2.95359">
        <ele>1429.517113</ele>
        <time>2021-07-08T09:43:37+0200</time>
      </trkpt>
      <trkpt lat="45.3185" lon="2.95372">
        <ele>1429.168522</ele>
        <time>2021-07-08T09:43:38+0200</time>
      </trkpt>
      <trkpt lat="45.31847" lon="2.95385">
        <ele>1428.335515</ele>
        <time>2021-07-08T09:43:39+0200</time>
      </trkpt>
      <trkpt lat="45.31843" lon="2.95397">
        <ele>1428.132632</ele>
        <time>2021-07-08T09:43:40+0200</time>
      </trkpt>
      <trkpt lat="45.31837" lon="2.95407">
        <ele>1427.818594</ele>
        <time>2021-07-08T09:43:41+0200</time>
      </trkpt>
      <trkpt lat="45.31831" lon="2.95417">
        <ele>1427.22</ele>
        <time>2021-07-08T09:43:42+0200</time>
      </trkpt>
      <trkpt lat="45.31823" lon="2.95424">
        <ele>1426.602055</ele>
        <time>2021-07-08T09:43:43+0200</time>
      </trkpt>
      <trkpt lat="45.31814" lon="2.95426">
        <ele>1426.425931</ele>
        <time>2021-07-08T09:43:44+0200</time>
      </trkpt>
      <trkpt lat="45.31805" lon="2.95427">
        <ele>1426.277781</ele>
        <time>2021-07-08T09:43:45+0200</time>
      </trkpt>
      <trkpt lat="45.31795" lon="2.95427">
        <ele>1426.399547</ele>
        <time>2021-07-08T09:43:46+0200</time>
      </trkpt>
      <trkpt lat="45.31785" lon="2.95425">
        <ele>1426.304008</ele>
        <time>2021-07-08T09:43:47+0200</time>
      </trkpt>
      <trkpt lat="45.31777" lon="2.95422">
        <ele>1425.811127</ele>
        <time>2021-07-08T09:43:48+0200</time>
      </trkpt>
      <trkpt lat="45.31768" lon="2.9542">
        <ele>1425.616355</ele>
        <time>2021-07-08T09:43:49+0200</time>
      </trkpt>
      <trkpt lat="45.31759" lon="2.95418">
        <ele>1425.563656</ele>
        <time>2021-07-08T09:43:50+0200</time>
      </trkpt>
      <trkpt lat="45.31751" lon="2.95415">
        <ele>1425.225109</ele>
        <time>2021-07-08T09:43:51+0200</time>
      </trkpt>
      <trkpt lat="45.31742" lon="2.95412">
        <ele>1424.658321</ele>
        <time>2021-07-08T09:43:52+0200</time>
      </trkpt>
      <trkpt lat="45.31733" lon="2.9541">
        <ele>1424.145863</ele>
        <time>2021-07-08T09:43:53+0200</time>
      </trkpt>
      <trkpt lat="45.31724" lon="2.95406">
        <ele>1423.539453</ele>
        <time>2021-07-08T09:43:54+0200</time>
      </trkpt>
      <trkpt lat="45.31716" lon="2.95403">
        <ele>1423.013081</ele>
        <time>2021-07-08T09:43:55+0200</time>
      </trkpt>
      <trkpt lat="45.31707" lon="2.954">
        <ele>1422.129635</ele>
        <time>2021-07-08T09:43:56+0200</time>
      </trkpt>
      <trkpt lat="45.31699" lon="2.95399">
        <ele>1421.535041</ele>
        <time>2021-07-08T09:43:57+0200</time>
      </trkpt>
      <trkpt lat="45.31691" lon="2.95399">
        <ele>1421.224483</ele>
        <time>2021-07-08T09:43:58+0200</time>
      </trkpt>
      <trkpt lat="45.31683" lon="2.95397">
        <ele>1420.872378</ele>
        <time>2021-07-08T09:43:59+0200</time>
      </trkpt>
      <trkpt lat="45.31676" lon="2.95396">
        <ele>1420.603601</ele>
        <time>2021-07-08T09:44:00+0200</time>
      </trkpt>
      <trkpt lat="45.31669" lon="2.95395">
        <ele>1420.0956</ele>
        <time>2021-07-08T09:44:02+0200</time>
      </trkpt>
      <trkpt lat="45.31663" lon="2.95393">
        <ele>1419.759692</ele>
        <time>2021-07-08T09:44:04+0200</time>
      </trkpt>
      <trkpt lat="45.31658" lon="2.95391">
        <ele>1419.28341</ele>
        <time>2021-07-08T09:44:06+0200</time>
      </trkpt>
      <trkpt lat="45.31653" lon="2.95393">
        <ele>1418.8988</ele>
        <time>2021-07-08T09:44:08+0200</time>
      </trkpt>
      <trkpt lat="45.3165" lon="2.95388">
        <ele>1418.525744</ele>
        <time>2021-07-08T09:44:35+0200</time>
      </trkpt>
      <trkpt lat="45.31645" lon="2.95386">
        <ele>1418.242277</ele>
        <time>2021-07-08T09:44:37+0200</time>
      </trkpt>
      <trkpt lat="45.3164" lon="2.95383">
        <ele>1418.370005</ele>
        <time>2021-07-08T09:44:39+0200</time>
      </trkpt>
      <trkpt lat="45.31635" lon="2.95378">
        <ele>1418.096911</ele>
        <time>2021-07-08T09:44:41+0200</time>
      </trkpt>
      <trkpt lat="45.31629" lon="2.95373">
        <ele>1417.876969</ele>
        <time>2021-07-08T09:44:43+0200</time>
      </trkpt>
      <trkpt lat="45.31622" lon="2.95367">
        <ele>1417.743799</ele>
        <time>2021-07-08T09:44:45+0200</time>
      </trkpt>
      <trkpt lat="45.31616" lon="2.95361">
        <ele>1417.431232</ele>
        <time>2021-07-08T09:44:47+0200</time>
      </trkpt>
      <trkpt lat="45.3161" lon="2.95353">
        <ele>1416.488919</ele>
        <time>2021-07-08T09:44:49+0200</time>
      </trkpt>
      <trkpt lat="45.31605" lon="2.95349">
        <ele>1415.732529</ele>
        <time>2021-07-08T09:44:50+0200</time>
      </trkpt>
      <trkpt lat="45.316" lon="2.95345">
        <ele>1415.268438</ele>
        <time>2021-07-08T09:44:51+0200</time>
      </trkpt>
      <trkpt lat="45.31597" lon="2.95341">
        <ele>1414.8044</ele>
        <time>2021-07-08T09:44:52+0200</time>
      </trkpt>
      <trkpt lat="45.31592" lon="2.95336">
        <ele>1414.37513</ele>
        <time>2021-07-08T09:44:53+0200</time>
      </trkpt>
      <trkpt lat="45.31587" lon="2.95332">
        <ele>1413.884028</ele>
        <time>2021-07-08T09:44:54+0200</time>
      </trkpt>
      <trkpt lat="45.31582" lon="2.95327">
        <ele>1413.254303</ele>
        <time>2021-07-08T09:44:55+0200</time>
      </trkpt>
      <trkpt lat="45.31576" lon="2.95322">
        <ele>1412.747636</ele>
        <time>2021-07-08T09:44:56+0200</time>
      </trkpt>
      <trkpt lat="45.3157" lon="2.95317">
        <ele>1412.57509</ele>
        <time>2021-07-08T09:44:57+0200</time>
      </trkpt>
      <trkpt lat="45.31565" lon="2.95311">
        <ele>1412.181042</ele>
        <time>2021-07-08T09:44:58+0200</time>
      </trkpt>
      <trkpt lat="45.31559" lon="2.95306">
        <ele>1411.865991</ele>
        <time>2021-07-08T09:44:59+0200</time>
      </trkpt>
      <trkpt lat="45.31553" lon="2.95301">
        <ele>1411.550315</ele>
        <time>2021-07-08T09:45:00+0200</time>
      </trkpt>
      <trkpt lat="45.31548" lon="2.95295">
        <ele>1411.169073</ele>
        <time>2021-07-08T09:45:01+0200</time>
      </trkpt>
      <trkpt lat="45.31542" lon="2.95289">
        <ele>1410.844087</ele>
        <time>2021-07-08T09:45:02+0200</time>
      </trkpt>
      <trkpt lat="45.31536" lon="2.95286">
        <ele>1410.070671</ele>
        <time>2021-07-08T09:45:03+0200</time>
      </trkpt>
      <trkpt lat="45.3153" lon="2.95282">
        <ele>1409.419359</ele>
        <time>2021-07-08T09:45:04+0200</time>
      </trkpt>
      <trkpt lat="45.31524" lon="2.95277">
        <ele>1408.809918</ele>
        <time>2021-07-08T09:45:05+0200</time>
      </trkpt>
      <trkpt lat="45.31518" lon="2.95275">
        <ele>1408.122258</ele>
        <time>2021-07-08T09:45:06+0200</time>
      </trkpt>
      <trkpt lat="45.31511" lon="2.95275">
        <ele>1407.482956</ele>
        <time>2021-07-08T09:45:07+0200</time>
      </trkpt>
      <trkpt lat="45.31504" lon="2.95276">
        <ele>1406.690552</ele>
        <time>2021-07-08T09:45:08+0200</time>
      </trkpt>
      <trkpt lat="45.31496" lon="2.95278">
        <ele>1406.638641</ele>
        <time>2021-07-08T09:45:09+0200</time>
      </trkpt>
      <trkpt lat="45.31489" lon="2.95279">
        <ele>1405.964179</ele>
        <time>2021-07-08T09:45:10+0200</time>
      </trkpt>
      <trkpt lat="45.31481" lon="2.95279">
        <ele>1405.614458</ele>
        <time>2021-07-08T09:45:11+0200</time>
      </trkpt>
      <trkpt lat="45.31474" lon="2.95278">
        <ele>1405.370309</ele>
        <time>2021-07-08T09:45:12+0200</time>
      </trkpt>
      <trkpt lat="45.31467" lon="2.95276">
        <ele>1405.016207</ele>
        <time>2021-07-08T09:45:13+0200</time>
      </trkpt>
      <trkpt lat="45.31459" lon="2.95275">
        <ele>1404.436937</ele>
        <time>2021-07-08T09:45:14+0200</time>
      </trkpt>
      <trkpt lat="45.31452" lon="2.95274">
        <ele>1403.547975</ele>
        <time>2021-07-08T09:45:15+0200</time>
      </trkpt>
      <trkpt lat="45.31445" lon="2.95274">
        <ele>1402.831149</ele>
        <time>2021-07-08T09:45:16+0200</time>
      </trkpt>
      <trkpt lat="45.31439" lon="2.95274">
        <ele>1401.953746</ele>
        <time>2021-07-08T09:45:17+0200</time>
      </trkpt>
      <trkpt lat="45.31432" lon="2.95273">
        <ele>1401.218856</ele>
        <time>2021-07-08T09:45:18+0200</time>
      </trkpt>
      <trkpt lat="45.31428" lon="2.9527">
        <ele>1400.522888</ele>
        <time>2021-07-08T09:45:19+0200</time>
      </trkpt>
      <trkpt lat="45.31422" lon="2.95265">
        <ele>1400.419447</ele>
        <time>2021-07-08T09:45:22+0200</time>
      </trkpt>
      <trkpt lat="45.31416" lon="2.95263">
        <ele>1399.064919</ele>
        <time>2021-07-08T09:45:24+0200</time>
      </trkpt>
      <trkpt lat="45.3141" lon="2.95259">
        <ele>1397.603778</ele>
        <time>2021-07-08T09:45:26+0200</time>
      </trkpt>
      <trkpt lat="45.31403" lon="2.95257">
        <ele>1396.573188</ele>
        <time>2021-07-08T09:45:28+0200</time>
      </trkpt>
      <trkpt lat="45.31398" lon="2.95254">
        <ele>1395.939702</ele>
        <time>2021-07-08T09:45:31+0200</time>
      </trkpt>
      <trkpt lat="45.31392" lon="2.95252">
        <ele>1395.269273</ele>
        <time>2021-07-08T09:45:34+0200</time>
      </trkpt>
      <trkpt lat="45.31387" lon="2.95252">
        <ele>1395.104253</ele>
        <time>2021-07-08T09:45:38+0200</time>
      </trkpt>
      <trkpt lat="45.31382" lon="2.95249">
        <ele>1394.536271</ele>
        <time>2021-07-08T09:45:46+0200</time>
      </trkpt>
      <trkpt lat="45.31378" lon="2.95246">
        <ele>1393.709824</ele>
        <time>2021-07-08T09:46:01+0200</time>
      </trkpt>
      <trkpt lat="45.31373" lon="2.95242">
        <ele>1393.344915</ele>
        <time>2021-07-08T09:46:03+0200</time>
      </trkpt>
      <trkpt lat="45.31368" lon="2.95239">
        <ele>1392.641229</ele>
        <time>2021-07-08T09:46:04+0200</time>
      </trkpt>
      <trkpt lat="45.31364" lon="2.95236">
        <ele>1392.25231</ele>
        <time>2021-07-08T09:46:05+0200</time>
      </trkpt>
      <trkpt lat="45.31359" lon="2.95233">
        <ele>1391.672695</ele>
        <time>2021-07-08T09:46:06+0200</time>
      </trkpt>
      <trkpt lat="45.31354" lon="2.9523">
        <ele>1391.720929</ele>
        <time>2021-07-08T09:46:07+0200</time>
      </trkpt>
      <trkpt lat="45.31348" lon="2.95227">
        <ele>1391.390413</ele>
        <time>2021-07-08T09:46:08+0200</time>
      </trkpt>
      <trkpt lat="45.31343" lon="2.95223">
        <ele>1390.838377</ele>
        <time>2021-07-08T09:46:09+0200</time>
      </trkpt>
      <trkpt lat="45.31337" lon="2.95219">
        <ele>1390.499953</ele>
        <time>2021-07-08T09:46:10+0200</time>
      </trkpt>
      <trkpt lat="45.31331" lon="2.95215">
        <ele>1390.130357</ele>
        <time>2021-07-08T09:46:11+0200</time>
      </trkpt>
      <trkpt lat="45.31325" lon="2.95211">
        <ele>1389.677305</ele>
        <time>2021-07-08T09:46:12+0200</time>
      </trkpt>
      <trkpt lat="45.3132" lon="2.95208">
        <ele>1389.152324</ele>
        <time>2021-07-08T09:46:13+0200</time>
      </trkpt>
      <trkpt lat="45.31316" lon="2.95205">
        <ele>1388.860991</ele>
        <time>2021-07-08T09:46:14+0200</time>
      </trkpt>
      <trkpt lat="45.31312" lon="2.952">
        <ele>1388.617494</ele>
        <time>2021-07-08T09:46:15+0200</time>
      </trkpt>
      <trkpt lat="45.31308" lon="2.95195">
        <ele>1388.405854</ele>
        <time>2021-07-08T09:46:16+0200</time>
      </trkpt>
      <trkpt lat="45.31304" lon="2.95191">
        <ele>1388.329532</ele>
        <time>2021-07-08T09:46:17+0200</time>
      </trkpt>
      <trkpt lat="45.31299" lon="2.95189">
        <ele>1387.878885</ele>
        <time>2021-07-08T09:46:18+0200</time>
      </trkpt>
      <trkpt lat="45.31294" lon="2.95187">
        <ele>1387.885095</ele>
        <time>2021-07-08T09:46:19+0200</time>
      </trkpt>
      <trkpt lat="45.3129" lon="2.95184">
        <ele>1387.726865</ele>
        <time>2021-07-08T09:46:20+0200</time>
      </trkpt>
      <trkpt lat="45.31286" lon="2.95181">
        <ele>1387.765656</ele>
        <time>2021-07-08T09:46:21+0200</time>
      </trkpt>
      <trkpt lat="45.31281" lon="2.95178">
        <ele>1387.575436</ele>
        <time>2021-07-08T09:46:22+0200</time>
      </trkpt>
      <trkpt lat="45.31276" lon="2.95175">
        <ele>1387.298952</ele>
        <time>2021-07-08T09:46:23+0200</time>
      </trkpt>
      <trkpt lat="45.31271" lon="2.95174">
        <ele>1387.132982</ele>
        <time>2021-07-08T09:46:24+0200</time>
      </trkpt>
      <trkpt lat="45.31266" lon="2.95172">
        <ele>1386.944267</ele>
        <time>2021-07-08T09:46:25+0200</time>
      </trkpt>
      <trkpt lat="45.31261" lon="2.95172">
        <ele>1386.542767</ele>
        <time>2021-07-08T09:46:26+0200</time>
      </trkpt>
      <trkpt lat="45.31257" lon="2.9517">
        <ele>1386.126649</ele>
        <time>2021-07-08T09:46:27+0200</time>
      </trkpt>
      <trkpt lat="45.31252" lon="2.95169">
        <ele>1385.951241</ele>
        <time>2021-07-08T09:46:28+0200</time>
      </trkpt>
      <trkpt lat="45.31243" lon="2.95168">
        <ele>1385.284639</ele>
        <time>2021-07-08T09:46:30+0200</time>
      </trkpt>
      <trkpt lat="45.31239" lon="2.9517">
        <ele>1385.029235</ele>
        <time>2021-07-08T09:46:31+0200</time>
      </trkpt>
      <trkpt lat="45.31234" lon="2.95168">
        <ele>1385.267306</ele>
        <time>2021-07-08T09:46:32+0200</time>
      </trkpt>
      <trkpt lat="45.31226" lon="2.95168">
        <ele>1385.366655</ele>
        <time>2021-07-08T09:46:34+0200</time>
      </trkpt>
      <trkpt lat="45.31218" lon="2.95166">
        <ele>1385.615662</ele>
        <time>2021-07-08T09:46:36+0200</time>
      </trkpt>
      <trkpt lat="45.31209" lon="2.95164">
        <ele>1385.388982</ele>
        <time>2021-07-08T09:46:38+0200</time>
      </trkpt>
      <trkpt lat="45.31201" lon="2.95163">
        <ele>1384.468743</ele>
        <time>2021-07-08T09:46:40+0200</time>
      </trkpt>
      <trkpt lat="45.31192" lon="2.95161">
        <ele>1383.963896</ele>
        <time>2021-07-08T09:46:42+0200</time>
      </trkpt>
      <trkpt lat="45.31183" lon="2.95162">
        <ele>1383.170027</ele>
        <time>2021-07-08T09:46:44+0200</time>
      </trkpt>
      <trkpt lat="45.31178" lon="2.95162">
        <ele>1382.578754</ele>
        <time>2021-07-08T09:46:45+0200</time>
      </trkpt>
      <trkpt lat="45.31173" lon="2.95163">
        <ele>1382.274919</ele>
        <time>2021-07-08T09:46:46+0200</time>
      </trkpt>
      <trkpt lat="45.31168" lon="2.95165">
        <ele>1381.875055</ele>
        <time>2021-07-08T09:46:47+0200</time>
      </trkpt>
      <trkpt lat="45.31163" lon="2.95166">
        <ele>1381.424929</ele>
        <time>2021-07-08T09:46:48+0200</time>
      </trkpt>
      <trkpt lat="45.31157" lon="2.95168">
        <ele>1380.978018</ele>
        <time>2021-07-08T09:46:49+0200</time>
      </trkpt>
      <trkpt lat="45.31152" lon="2.95171">
        <ele>1380.664208</ele>
        <time>2021-07-08T09:46:50+0200</time>
      </trkpt>
      <trkpt lat="45.31145" lon="2.95174">
        <ele>1379.879216</ele>
        <time>2021-07-08T09:46:51+0200</time>
      </trkpt>
      <trkpt lat="45.31139" lon="2.95178">
        <ele>1379.694103</ele>
        <time>2021-07-08T09:46:52+0200</time>
      </trkpt>
      <trkpt lat="45.31132" lon="2.95184">
        <ele>1378.815991</ele>
        <time>2021-07-08T09:46:53+0200</time>
      </trkpt>
      <trkpt lat="45.31126" lon="2.95186">
        <ele>1378.173768</ele>
        <time>2021-07-08T09:46:54+0200</time>
      </trkpt>
      <trkpt lat="45.3112" lon="2.95185">
        <ele>1377.794258</ele>
        <time>2021-07-08T09:46:55+0200</time>
      </trkpt>
      <trkpt lat="45.31115" lon="2.95182">
        <ele>1377.658113</ele>
        <time>2021-07-08T09:46:56+0200</time>
      </trkpt>
      <trkpt lat="45.3111" lon="2.95177">
        <ele>1377.60918</ele>
        <time>2021-07-08T09:46:57+0200</time>
      </trkpt>
      <trkpt lat="45.31107" lon="2.9517">
        <ele>1376.946375</ele>
        <time>2021-07-08T09:46:58+0200</time>
      </trkpt>
      <trkpt lat="45.31104" lon="2.95163">
        <ele>1376.539682</ele>
        <time>2021-07-08T09:46:59+0200</time>
      </trkpt>
      <trkpt lat="45.31103" lon="2.95154">
        <ele>1376.181996</ele>
        <time>2021-07-08T09:47:00+0200</time>
      </trkpt>
      <trkpt lat="45.31102" lon="2.95145">
        <ele>1375.672553</ele>
        <time>2021-07-08T09:47:01+0200</time>
      </trkpt>
      <trkpt lat="45.31102" lon="2.95137">
        <ele>1375.271091</ele>
        <time>2021-07-08T09:47:02+0200</time>
      </trkpt>
      <trkpt lat="45.31102" lon="2.95128">
        <ele>1374.933784</ele>
        <time>2021-07-08T09:47:03+0200</time>
      </trkpt>
      <trkpt lat="45.31102" lon="2.9512">
        <ele>1374.691894</ele>
        <time>2021-07-08T09:47:04+0200</time>
      </trkpt>
      <trkpt lat="45.31102" lon="2.95112">
        <ele>1374.442319</ele>
        <time>2021-07-08T09:47:05+0200</time>
      </trkpt>
      <trkpt lat="45.31102" lon="2.95104">
        <ele>1374.377722</ele>
        <time>2021-07-08T09:47:06+0200</time>
      </trkpt>
      <trkpt lat="45.311" lon="2.95097">
        <ele>1374.388225</ele>
        <time>2021-07-08T09:47:07+0200</time>
      </trkpt>
      <trkpt lat="45.31097" lon="2.95091">
        <ele>1374.018985</ele>
        <time>2021-07-08T09:47:08+0200</time>
      </trkpt>
      <trkpt lat="45.31093" lon="2.95085">
        <ele>1373.693962</ele>
        <time>2021-07-08T09:47:09+0200</time>
      </trkpt>
      <trkpt lat="45.31089" lon="2.95079">
        <ele>1373.502</ele>
        <time>2021-07-08T09:47:10+0200</time>
      </trkpt>
      <trkpt lat="45.31085" lon="2.95075">
        <ele>1373.557444</ele>
        <time>2021-07-08T09:47:11+0200</time>
      </trkpt>
      <trkpt lat="45.3108" lon="2.95071">
        <ele>1373.855995</ele>
        <time>2021-07-08T09:47:12+0200</time>
      </trkpt>
      <trkpt lat="45.31076" lon="2.95067">
        <ele>1373.835226</ele>
        <time>2021-07-08T09:47:13+0200</time>
      </trkpt>
      <trkpt lat="45.31071" lon="2.95064">
        <ele>1374.106818</ele>
        <time>2021-07-08T09:47:14+0200</time>
      </trkpt>
      <trkpt lat="45.31067" lon="2.9506">
        <ele>1374.012986</ele>
        <time>2021-07-08T09:47:15+0200</time>
      </trkpt>
      <trkpt lat="45.31062" lon="2.95056">
        <ele>1374.122306</ele>
        <time>2021-07-08T09:47:16+0200</time>
      </trkpt>
      <trkpt lat="45.31057" lon="2.95052">
        <ele>1374.256812</ele>
        <time>2021-07-08T09:47:17+0200</time>
      </trkpt>
      <trkpt lat="45.31052" lon="2.95048">
        <ele>1374.334934</ele>
        <time>2021-07-08T09:47:18+0200</time>
      </trkpt>
      <trkpt lat="45.31047" lon="2.95043">
        <ele>1374.203549</ele>
        <time>2021-07-08T09:47:19+0200</time>
      </trkpt>
      <trkpt lat="45.31042" lon="2.95038">
        <ele>1374.195356</ele>
        <time>2021-07-08T09:47:20+0200</time>
      </trkpt>
      <trkpt lat="45.31038" lon="2.95033">
        <ele>1374.171487</ele>
        <time>2021-07-08T09:47:21+0200</time>
      </trkpt>
      <trkpt lat="45.31033" lon="2.95029">
        <ele>1374.098616</ele>
        <time>2021-07-08T09:47:22+0200</time>
      </trkpt>
      <trkpt lat="45.31028" lon="2.95025">
        <ele>1374.096075</ele>
        <time>2021-07-08T09:47:23+0200</time>
      </trkpt>
      <trkpt lat="45.31024" lon="2.9502">
        <ele>1374.215641</ele>
        <time>2021-07-08T09:47:24+0200</time>
      </trkpt>
      <trkpt lat="45.3102" lon="2.95017">
        <ele>1374.34553</ele>
        <time>2021-07-08T09:47:25+0200</time>
      </trkpt>
      <trkpt lat="45.31016" lon="2.95013">
        <ele>1374.515262</ele>
        <time>2021-07-08T09:47:26+0200</time>
      </trkpt>
      <trkpt lat="45.31012" lon="2.95009">
        <ele>1374.636407</ele>
        <time>2021-07-08T09:47:27+0200</time>
      </trkpt>
      <trkpt lat="45.31008" lon="2.95005">
        <ele>1374.884563</ele>
        <time>2021-07-08T09:47:28+0200</time>
      </trkpt>
      <trkpt lat="45.31002" lon="2.94998">
        <ele>1375.272567</ele>
        <time>2021-07-08T09:47:30+0200</time>
      </trkpt>
      <trkpt lat="45.30994" lon="2.94992">
        <ele>1375.489453</ele>
        <time>2021-07-08T09:47:32+0200</time>
      </trkpt>
      <trkpt lat="45.30987" lon="2.94985">
        <ele>1375.395215</ele>
        <time>2021-07-08T09:47:34+0200</time>
      </trkpt>
      <trkpt lat="45.3098" lon="2.94979">
        <ele>1375.534077</ele>
        <time>2021-07-08T09:47:36+0200</time>
      </trkpt>
      <trkpt lat="45.30975" lon="2.94976">
        <ele>1375.682291</ele>
        <time>2021-07-08T09:47:37+0200</time>
      </trkpt>
      <trkpt lat="45.30971" lon="2.94972">
        <ele>1375.718558</ele>
        <time>2021-07-08T09:47:38+0200</time>
      </trkpt>
      <trkpt lat="45.30967" lon="2.94969">
        <ele>1375.921504</ele>
        <time>2021-07-08T09:47:39+0200</time>
      </trkpt>
      <trkpt lat="45.3096" lon="2.94962">
        <ele>1376.049515</ele>
        <time>2021-07-08T09:47:41+0200</time>
      </trkpt>
      <trkpt lat="45.30952" lon="2.94957">
        <ele>1376.120047</ele>
        <time>2021-07-08T09:47:43+0200</time>
      </trkpt>
      <trkpt lat="45.30946" lon="2.9495">
        <ele>1375.978082</ele>
        <time>2021-07-08T09:47:45+0200</time>
      </trkpt>
      <trkpt lat="45.30937" lon="2.94947">
        <ele>1375.74593</ele>
        <time>2021-07-08T09:47:47+0200</time>
      </trkpt>
      <trkpt lat="45.30929" lon="2.94942">
        <ele>1375.13646</ele>
        <time>2021-07-08T09:47:49+0200</time>
      </trkpt>
      <trkpt lat="45.30924" lon="2.94938">
        <ele>1374.814738</ele>
        <time>2021-07-08T09:47:50+0200</time>
      </trkpt>
      <trkpt lat="45.3092" lon="2.94935">
        <ele>1374.480235</ele>
        <time>2021-07-08T09:47:51+0200</time>
      </trkpt>
      <trkpt lat="45.30912" lon="2.9493">
        <ele>1373.775222</ele>
        <time>2021-07-08T09:47:53+0200</time>
      </trkpt>
      <trkpt lat="45.30907" lon="2.94927">
        <ele>1373.528018</ele>
        <time>2021-07-08T09:47:54+0200</time>
      </trkpt>
      <trkpt lat="45.30903" lon="2.94922">
        <ele>1373.353859</ele>
        <time>2021-07-08T09:47:55+0200</time>
      </trkpt>
      <trkpt lat="45.30899" lon="2.94917">
        <ele>1373.207503</ele>
        <time>2021-07-08T09:47:56+0200</time>
      </trkpt>
      <trkpt lat="45.30895" lon="2.94913">
        <ele>1372.832462</ele>
        <time>2021-07-08T09:47:57+0200</time>
      </trkpt>
      <trkpt lat="45.30891" lon="2.94908">
        <ele>1372.536332</ele>
        <time>2021-07-08T09:47:58+0200</time>
      </trkpt>
      <trkpt lat="45.30886" lon="2.94903">
        <ele>1371.654851</ele>
        <time>2021-07-08T09:47:59+0200</time>
      </trkpt>
      <trkpt lat="45.30881" lon="2.949">
        <ele>1371.120223</ele>
        <time>2021-07-08T09:48:00+0200</time>
      </trkpt>
      <trkpt lat="45.30875" lon="2.94897">
        <ele>1370.989662</ele>
        <time>2021-07-08T09:48:01+0200</time>
      </trkpt>
      <trkpt lat="45.3087" lon="2.94892">
        <ele>1370.726685</ele>
        <time>2021-07-08T09:48:02+0200</time>
      </trkpt>
      <trkpt lat="45.30865" lon="2.94886">
        <ele>1370.024452</ele>
        <time>2021-07-08T09:48:03+0200</time>
      </trkpt>
      <trkpt lat="45.30861" lon="2.94879">
        <ele>1369.979753</ele>
        <time>2021-07-08T09:48:04+0200</time>
      </trkpt>
      <trkpt lat="45.30859" lon="2.94872">
        <ele>1370.136072</ele>
        <time>2021-07-08T09:48:05+0200</time>
      </trkpt>
      <trkpt lat="45.30857" lon="2.94865">
        <ele>1370.204529</ele>
        <time>2021-07-08T09:48:06+0200</time>
      </trkpt>
      <trkpt lat="45.30855" lon="2.94858">
        <ele>1370.63083</ele>
        <time>2021-07-08T09:48:07+0200</time>
      </trkpt>
      <trkpt lat="45.30851" lon="2.94849">
        <ele>1371.310099</ele>
        <time>2021-07-08T09:48:09+0200</time>
      </trkpt>
      <trkpt lat="45.30849" lon="2.94843">
        <ele>1371.982965</ele>
        <time>2021-07-08T09:48:11+0200</time>
      </trkpt>
      <trkpt lat="45.30845" lon="2.94836">
        <ele>1372.755677</ele>
        <time>2021-07-08T09:48:14+0200</time>
      </trkpt>
      <trkpt lat="45.3084" lon="2.94829">
        <ele>1372.969668</ele>
        <time>2021-07-08T09:48:17+0200</time>
      </trkpt>
      <trkpt lat="45.30837" lon="2.94822">
        <ele>1373.127521</ele>
        <time>2021-07-08T09:48:19+0200</time>
      </trkpt>
      <trkpt lat="45.30833" lon="2.94815">
        <ele>1373.701976</ele>
        <time>2021-07-08T09:48:21+0200</time>
      </trkpt>
      <trkpt lat="45.30829" lon="2.94809">
        <ele>1373.865554</ele>
        <time>2021-07-08T09:48:23+0200</time>
      </trkpt>
      <trkpt lat="45.30825" lon="2.94803">
        <ele>1373.985585</ele>
        <time>2021-07-08T09:48:25+0200</time>
      </trkpt>
      <trkpt lat="45.30822" lon="2.94796">
        <ele>1374.255185</ele>
        <time>2021-07-08T09:48:27+0200</time>
      </trkpt>
      <trkpt lat="45.30818" lon="2.9479">
        <ele>1374.372967</ele>
        <time>2021-07-08T09:48:29+0200</time>
      </trkpt>
      <trkpt lat="45.30814" lon="2.94783">
        <ele>1374.197218</ele>
        <time>2021-07-08T09:48:31+0200</time>
      </trkpt>
      <trkpt lat="45.30811" lon="2.94775">
        <ele>1374.032382</ele>
        <time>2021-07-08T09:48:33+0200</time>
      </trkpt>
      <trkpt lat="45.30807" lon="2.94768">
        <ele>1374.041697</ele>
        <time>2021-07-08T09:48:35+0200</time>
      </trkpt>
      <trkpt lat="45.30803" lon="2.94761">
        <ele>1374.028818</ele>
        <time>2021-07-08T09:48:37+0200</time>
      </trkpt>
      <trkpt lat="45.308" lon="2.94753">
        <ele>1374.255985</ele>
        <time>2021-07-08T09:48:39+0200</time>
      </trkpt>
      <trkpt lat="45.30796" lon="2.94746">
        <ele>1374.53658</ele>
        <time>2021-07-08T09:48:41+0200</time>
      </trkpt>
      <trkpt lat="45.30793" lon="2.94739">
        <ele>1375.041836</ele>
        <time>2021-07-08T09:48:43+0200</time>
      </trkpt>
      <trkpt lat="45.30789" lon="2.94731">
        <ele>1375.988779</ele>
        <time>2021-07-08T09:48:46+0200</time>
      </trkpt>
      <trkpt lat="45.30786" lon="2.94724">
        <ele>1376.248194</ele>
        <time>2021-07-08T09:48:48+0200</time>
      </trkpt>
      <trkpt lat="45.30783" lon="2.94719">
        <ele>1376.905596</ele>
        <time>2021-07-08T09:48:50+0200</time>
      </trkpt>
      <trkpt lat="45.30779" lon="2.94715">
        <ele>1376.903064</ele>
        <time>2021-07-08T09:48:52+0200</time>
      </trkpt>
      <trkpt lat="45.30777" lon="2.94708">
        <ele>1377.055551</ele>
        <time>2021-07-08T09:48:54+0200</time>
      </trkpt>
      <trkpt lat="45.30774" lon="2.94701">
        <ele>1377.238734</ele>
        <time>2021-07-08T09:48:56+0200</time>
      </trkpt>
      <trkpt lat="45.30771" lon="2.94695">
        <ele>1377.211697</ele>
        <time>2021-07-08T09:48:58+0200</time>
      </trkpt>
      <trkpt lat="45.30768" lon="2.94688">
        <ele>1377.529109</ele>
        <time>2021-07-08T09:49:00+0200</time>
      </trkpt>
      <trkpt lat="45.30765" lon="2.9468">
        <ele>1377.751383</ele>
        <time>2021-07-08T09:49:02+0200</time>
      </trkpt>
      <trkpt lat="45.30763" lon="2.94673">
        <ele>1377.537044</ele>
        <time>2021-07-08T09:49:04+0200</time>
      </trkpt>
      <trkpt lat="45.3076" lon="2.94667">
        <ele>1377.567017</ele>
        <time>2021-07-08T09:49:06+0200</time>
      </trkpt>
      <trkpt lat="45.30757" lon="2.94659">
        <ele>1377.893681</ele>
        <time>2021-07-08T09:49:08+0200</time>
      </trkpt>
      <trkpt lat="45.30754" lon="2.94651">
        <ele>1378.304574</ele>
        <time>2021-07-08T09:49:10+0200</time>
      </trkpt>
      <trkpt lat="45.30751" lon="2.94644">
        <ele>1378.570206</ele>
        <time>2021-07-08T09:49:12+0200</time>
      </trkpt>
      <trkpt lat="45.30749" lon="2.94636">
        <ele>1378.778333</ele>
        <time>2021-07-08T09:49:14+0200</time>
      </trkpt>
      <trkpt lat="45.30746" lon="2.94628">
        <ele>1379.126261</ele>
        <time>2021-07-08T09:49:16+0200</time>
      </trkpt>
      <trkpt lat="45.30743" lon="2.94621">
        <ele>1379.422516</ele>
        <time>2021-07-08T09:49:18+0200</time>
      </trkpt>
      <trkpt lat="45.3074" lon="2.94613">
        <ele>1379.850628</ele>
        <time>2021-07-08T09:49:20+0200</time>
      </trkpt>
      <trkpt lat="45.30736" lon="2.94607">
        <ele>1380.073837</ele>
        <time>2021-07-08T09:49:22+0200</time>
      </trkpt>
      <trkpt lat="45.30734" lon="2.94601">
        <ele>1380.326343</ele>
        <time>2021-07-08T09:49:24+0200</time>
      </trkpt>
      <trkpt lat="45.30731" lon="2.94595">
        <ele>1380.776034</ele>
        <time>2021-07-08T09:49:26+0200</time>
      </trkpt>
      <trkpt lat="45.30726" lon="2.94588">
        <ele>1381.030158</ele>
        <time>2021-07-08T09:49:29+0200</time>
      </trkpt>
      <trkpt lat="45.30723" lon="2.94582">
        <ele>1381.319266</ele>
        <time>2021-07-08T09:49:31+0200</time>
      </trkpt>
      <trkpt lat="45.3072" lon="2.94576">
        <ele>1381.566022</ele>
        <time>2021-07-08T09:49:33+0200</time>
      </trkpt>
      <trkpt lat="45.30717" lon="2.9457">
        <ele>1381.615716</ele>
        <time>2021-07-08T09:49:35+0200</time>
      </trkpt>
      <trkpt lat="45.30712" lon="2.94563">
        <ele>1382.165812</ele>
        <time>2021-07-08T09:49:38+0200</time>
      </trkpt>
      <trkpt lat="45.30707" lon="2.94556">
        <ele>1382.814885</ele>
        <time>2021-07-08T09:49:41+0200</time>
      </trkpt>
      <trkpt lat="45.30703" lon="2.94551">
        <ele>1383.186374</ele>
        <time>2021-07-08T09:49:43+0200</time>
      </trkpt>
      <trkpt lat="45.307" lon="2.94547">
        <ele>1383.511331</ele>
        <time>2021-07-08T09:49:45+0200</time>
      </trkpt>
      <trkpt lat="45.30695" lon="2.94541">
        <ele>1383.703252</ele>
        <time>2021-07-08T09:49:48+0200</time>
      </trkpt>
      <trkpt lat="45.3069" lon="2.94537">
        <ele>1384.652629</ele>
        <time>2021-07-08T09:49:50+0200</time>
      </trkpt>
      <trkpt lat="45.30685" lon="2.94532">
        <ele>1385.057798</ele>
        <time>2021-07-08T09:49:53+0200</time>
      </trkpt>
      <trkpt lat="45.3068" lon="2.94526">
        <ele>1385.327036</ele>
        <time>2021-07-08T09:49:56+0200</time>
      </trkpt>
      <trkpt lat="45.30675" lon="2.9452">
        <ele>1385.101344</ele>
        <time>2021-07-08T09:49:58+0200</time>
      </trkpt>
      <trkpt lat="45.30672" lon="2.94513">
        <ele>1385.369345</ele>
        <time>2021-07-08T09:50:00+0200</time>
      </trkpt>
      <trkpt lat="45.30669" lon="2.94508">
        <ele>1385.650953</ele>
        <time>2021-07-08T09:50:02+0200</time>
      </trkpt>
      <trkpt lat="45.30667" lon="2.94502">
        <ele>1386.042337</ele>
        <time>2021-07-08T09:50:04+0200</time>
      </trkpt>
      <trkpt lat="45.30663" lon="2.94495">
        <ele>1386.690707</ele>
        <time>2021-07-08T09:50:06+0200</time>
      </trkpt>
      <trkpt lat="45.30659" lon="2.9449">
        <ele>1387.110696</ele>
        <time>2021-07-08T09:50:08+0200</time>
      </trkpt>
      <trkpt lat="45.30655" lon="2.94486">
        <ele>1387.404079</ele>
        <time>2021-07-08T09:50:10+0200</time>
      </trkpt>
      <trkpt lat="45.30653" lon="2.9448">
        <ele>1387.82206</ele>
        <time>2021-07-08T09:50:12+0200</time>
      </trkpt>
      <trkpt lat="45.30649" lon="2.94474">
        <ele>1388.069829</ele>
        <time>2021-07-08T09:50:14+0200</time>
      </trkpt>
      <trkpt lat="45.30645" lon="2.94469">
        <ele>1387.713496</ele>
        <time>2021-07-08T09:50:16+0200</time>
      </trkpt>
      <trkpt lat="45.30641" lon="2.94461">
        <ele>1388.266031</ele>
        <time>2021-07-08T09:50:19+0200</time>
      </trkpt>
      <trkpt lat="45.30638" lon="2.94454">
        <ele>1388.915722</ele>
        <time>2021-07-08T09:50:23+0200</time>
      </trkpt>
      <trkpt lat="45.30635" lon="2.94446">
        <ele>1389.269425</ele>
        <time>2021-07-08T09:50:26+0200</time>
      </trkpt>
      <trkpt lat="45.30633" lon="2.9444">
        <ele>1389.437383</ele>
        <time>2021-07-08T09:50:28+0200</time>
      </trkpt>
      <trkpt lat="45.30629" lon="2.94433">
        <ele>1389.645201</ele>
        <time>2021-07-08T09:50:31+0200</time>
      </trkpt>
      <trkpt lat="45.30627" lon="2.94425">
        <ele>1390.484192</ele>
        <time>2021-07-08T09:50:34+0200</time>
      </trkpt>
      <trkpt lat="45.30625" lon="2.94419">
        <ele>1390.610285</ele>
        <time>2021-07-08T09:50:36+0200</time>
      </trkpt>
      <trkpt lat="45.30622" lon="2.94413">
        <ele>1391.077526</ele>
        <time>2021-07-08T09:50:38+0200</time>
      </trkpt>
      <trkpt lat="45.30619" lon="2.94405">
        <ele>1390.825892</ele>
        <time>2021-07-08T09:50:41+0200</time>
      </trkpt>
      <trkpt lat="45.30616" lon="2.94397">
        <ele>1390.747086</ele>
        <time>2021-07-08T09:50:44+0200</time>
      </trkpt>
      <trkpt lat="45.30614" lon="2.9439">
        <ele>1390.714759</ele>
        <time>2021-07-08T09:50:47+0200</time>
      </trkpt>
      <trkpt lat="45.30611" lon="2.94384">
        <ele>1390.762409</ele>
        <time>2021-07-08T09:50:50+0200</time>
      </trkpt>
      <trkpt lat="45.30608" lon="2.94378">
        <ele>1390.898956</ele>
        <time>2021-07-08T09:50:53+0200</time>
      </trkpt>
      <trkpt lat="45.30606" lon="2.94372">
        <ele>1391.321621</ele>
        <time>2021-07-08T09:50:55+0200</time>
      </trkpt>
      <trkpt lat="45.30604" lon="2.94364">
        <ele>1391.089156</ele>
        <time>2021-07-08T09:50:58+0200</time>
      </trkpt>
      <trkpt lat="45.306" lon="2.94359">
        <ele>1391.087724</ele>
        <time>2021-07-08T09:51:01+0200</time>
      </trkpt>
      <trkpt lat="45.30598" lon="2.94353">
        <ele>1391.156237</ele>
        <time>2021-07-08T09:51:03+0200</time>
      </trkpt>
      <trkpt lat="45.30595" lon="2.94348">
        <ele>1391.126216</ele>
        <time>2021-07-08T09:51:05+0200</time>
      </trkpt>
      <trkpt lat="45.30591" lon="2.94342">
        <ele>1391.102839</ele>
        <time>2021-07-08T09:51:07+0200</time>
      </trkpt>
      <trkpt lat="45.30588" lon="2.94336">
        <ele>1390.911356</ele>
        <time>2021-07-08T09:51:09+0200</time>
      </trkpt>
      <trkpt lat="45.30584" lon="2.9433">
        <ele>1391.035614</ele>
        <time>2021-07-08T09:51:11+0200</time>
      </trkpt>
      <trkpt lat="45.30581" lon="2.94324">
        <ele>1391.022482</ele>
        <time>2021-07-08T09:51:13+0200</time>
      </trkpt>
      <trkpt lat="45.30577" lon="2.94318">
        <ele>1391.272809</ele>
        <time>2021-07-08T09:51:15+0200</time>
      </trkpt>
      <trkpt lat="45.30572" lon="2.94314">
        <ele>1391.467177</ele>
        <time>2021-07-08T09:51:17+0200</time>
      </trkpt>
      <trkpt lat="45.30569" lon="2.94308">
        <ele>1391.583083</ele>
        <time>2021-07-08T09:51:19+0200</time>
      </trkpt>
      <trkpt lat="45.30565" lon="2.94303">
        <ele>1391.570469</ele>
        <time>2021-07-08T09:51:21+0200</time>
      </trkpt>
      <trkpt lat="45.30562" lon="2.94298">
        <ele>1391.591423</ele>
        <time>2021-07-08T09:51:23+0200</time>
      </trkpt>
      <trkpt lat="45.30558" lon="2.94292">
        <ele>1391.299518</ele>
        <time>2021-07-08T09:51:25+0200</time>
      </trkpt>
      <trkpt lat="45.30555" lon="2.94285">
        <ele>1391.497245</ele>
        <time>2021-07-08T09:51:27+0200</time>
      </trkpt>
      <trkpt lat="45.30552" lon="2.9428">
        <ele>1392.100973</ele>
        <time>2021-07-08T09:51:30+0200</time>
      </trkpt>
      <trkpt lat="45.30547" lon="2.94274">
        <ele>1392.624967</ele>
        <time>2021-07-08T09:51:33+0200</time>
      </trkpt>
      <trkpt lat="45.30544" lon="2.94268">
        <ele>1393.290466</ele>
        <time>2021-07-08T09:51:35+0200</time>
      </trkpt>
      <trkpt lat="45.30541" lon="2.94262">
        <ele>1393.619159</ele>
        <time>2021-07-08T09:51:37+0200</time>
      </trkpt>
      <trkpt lat="45.30537" lon="2.94257">
        <ele>1393.677721</ele>
        <time>2021-07-08T09:51:39+0200</time>
      </trkpt>
      <trkpt lat="45.30533" lon="2.9425">
        <ele>1394.304304</ele>
        <time>2021-07-08T09:51:42+0200</time>
      </trkpt>
      <trkpt lat="45.3053" lon="2.94245">
        <ele>1394.699726</ele>
        <time>2021-07-08T09:51:44+0200</time>
      </trkpt>
      <trkpt lat="45.30526" lon="2.94238">
        <ele>1395.062156</ele>
        <time>2021-07-08T09:51:47+0200</time>
      </trkpt>
      <trkpt lat="45.30522" lon="2.94231">
        <ele>1395.322305</ele>
        <time>2021-07-08T09:51:50+0200</time>
      </trkpt>
      <trkpt lat="45.30518" lon="2.94227">
        <ele>1395.587597</ele>
        <time>2021-07-08T09:51:52+0200</time>
      </trkpt>
      <trkpt lat="45.30515" lon="2.94221">
        <ele>1395.867568</ele>
        <time>2021-07-08T09:51:54+0200</time>
      </trkpt>
      <trkpt lat="45.30511" lon="2.94215">
        <ele>1396.236545</ele>
        <time>2021-07-08T09:51:56+0200</time>
      </trkpt>
      <trkpt lat="45.30508" lon="2.94208">
        <ele>1396.352462</ele>
        <time>2021-07-08T09:51:58+0200</time>
      </trkpt>
      <trkpt lat="45.30503" lon="2.94202">
        <ele>1396.760671</ele>
        <time>2021-07-08T09:52:01+0200</time>
      </trkpt>
      <trkpt lat="45.305" lon="2.94195">
        <ele>1397.086274</ele>
        <time>2021-07-08T09:52:03+0200</time>
      </trkpt>
      <trkpt lat="45.30496" lon="2.9419">
        <ele>1397.324514</ele>
        <time>2021-07-08T09:52:05+0200</time>
      </trkpt>
      <trkpt lat="45.30493" lon="2.94184">
        <ele>1397.588176</ele>
        <time>2021-07-08T09:52:07+0200</time>
      </trkpt>
      <trkpt lat="45.30489" lon="2.94179">
        <ele>1397.697025</ele>
        <time>2021-07-08T09:52:09+0200</time>
      </trkpt>
      <trkpt lat="45.30485" lon="2.94173">
        <ele>1397.971953</ele>
        <time>2021-07-08T09:52:11+0200</time>
      </trkpt>
      <trkpt lat="45.30481" lon="2.94166">
        <ele>1398.368535</ele>
        <time>2021-07-08T09:52:13+0200</time>
      </trkpt>
      <trkpt lat="45.30478" lon="2.9416">
        <ele>1398.708836</ele>
        <time>2021-07-08T09:52:15+0200</time>
      </trkpt>
      <trkpt lat="45.30474" lon="2.94155">
        <ele>1398.999504</ele>
        <time>2021-07-08T09:52:17+0200</time>
      </trkpt>
      <trkpt lat="45.30471" lon="2.9415">
        <ele>1398.975113</ele>
        <time>2021-07-08T09:52:19+0200</time>
      </trkpt>
      <trkpt lat="45.30467" lon="2.94143">
        <ele>1398.985036</ele>
        <time>2021-07-08T09:52:21+0200</time>
      </trkpt>
      <trkpt lat="45.30462" lon="2.94136">
        <ele>1399.189229</ele>
        <time>2021-07-08T09:52:23+0200</time>
      </trkpt>
      <trkpt lat="45.30459" lon="2.9413">
        <ele>1399.798476</ele>
        <time>2021-07-08T09:52:25+0200</time>
      </trkpt>
      <trkpt lat="45.30454" lon="2.94123">
        <ele>1400.174336</ele>
        <time>2021-07-08T09:52:27+0200</time>
      </trkpt>
      <trkpt lat="45.30449" lon="2.94117">
        <ele>1400.543567</ele>
        <time>2021-07-08T09:52:29+0200</time>
      </trkpt>
      <trkpt lat="45.30446" lon="2.9411">
        <ele>1400.107876</ele>
        <time>2021-07-08T09:52:31+0200</time>
      </trkpt>
      <trkpt lat="45.3044" lon="2.94102">
        <ele>1399.733188</ele>
        <time>2021-07-08T09:52:33+0200</time>
      </trkpt>
      <trkpt lat="45.30435" lon="2.94093">
        <ele>1399.134001</ele>
        <time>2021-07-08T09:52:35+0200</time>
      </trkpt>
      <trkpt lat="45.30429" lon="2.94085">
        <ele>1398.401348</ele>
        <time>2021-07-08T09:52:37+0200</time>
      </trkpt>
      <trkpt lat="45.30423" lon="2.94078">
        <ele>1398.33785</ele>
        <time>2021-07-08T09:52:39+0200</time>
      </trkpt>
      <trkpt lat="45.30418" lon="2.94069">
        <ele>1397.804038</ele>
        <time>2021-07-08T09:52:41+0200</time>
      </trkpt>
      <trkpt lat="45.30414" lon="2.94064">
        <ele>1397.710153</ele>
        <time>2021-07-08T09:52:42+0200</time>
      </trkpt>
      <trkpt lat="45.30411" lon="2.94058">
        <ele>1397.574274</ele>
        <time>2021-07-08T09:52:43+0200</time>
      </trkpt>
      <trkpt lat="45.30407" lon="2.94053">
        <ele>1397.217028</ele>
        <time>2021-07-08T09:52:44+0200</time>
      </trkpt>
      <trkpt lat="45.30404" lon="2.94047">
        <ele>1396.809647</ele>
        <time>2021-07-08T09:52:45+0200</time>
      </trkpt>
      <trkpt lat="45.30399" lon="2.94041">
        <ele>1396.350781</ele>
        <time>2021-07-08T09:52:46+0200</time>
      </trkpt>
      <trkpt lat="45.30396" lon="2.94035">
        <ele>1395.970744</ele>
        <time>2021-07-08T09:52:47+0200</time>
      </trkpt>
      <trkpt lat="45.30391" lon="2.94028">
        <ele>1395.617602</ele>
        <time>2021-07-08T09:52:48+0200</time>
      </trkpt>
      <trkpt lat="45.30387" lon="2.94021">
        <ele>1394.962182</ele>
        <time>2021-07-08T09:52:49+0200</time>
      </trkpt>
      <trkpt lat="45.30382" lon="2.94014">
        <ele>1394.454</ele>
        <time>2021-07-08T09:52:50+0200</time>
      </trkpt>
      <trkpt lat="45.30377" lon="2.94007">
        <ele>1393.777094</ele>
        <time>2021-07-08T09:52:51+0200</time>
      </trkpt>
      <trkpt lat="45.30372" lon="2.93999">
        <ele>1393.286193</ele>
        <time>2021-07-08T09:52:52+0200</time>
      </trkpt>
      <trkpt lat="45.30368" lon="2.9399">
        <ele>1392.588345</ele>
        <time>2021-07-08T09:52:53+0200</time>
      </trkpt>
      <trkpt lat="45.30362" lon="2.93982">
        <ele>1391.823884</ele>
        <time>2021-07-08T09:52:54+0200</time>
      </trkpt>
      <trkpt lat="45.30357" lon="2.93973">
        <ele>1391.024468</ele>
        <time>2021-07-08T09:52:55+0200</time>
      </trkpt>
      <trkpt lat="45.30351" lon="2.93965">
        <ele>1390.059665</ele>
        <time>2021-07-08T09:52:56+0200</time>
      </trkpt>
      <trkpt lat="45.30345" lon="2.93956">
        <ele>1389.066363</ele>
        <time>2021-07-08T09:52:57+0200</time>
      </trkpt>
      <trkpt lat="45.3034" lon="2.93948">
        <ele>1388.727517</ele>
        <time>2021-07-08T09:52:58+0200</time>
      </trkpt>
      <trkpt lat="45.30335" lon="2.93939">
        <ele>1387.981348</ele>
        <time>2021-07-08T09:52:59+0200</time>
      </trkpt>
      <trkpt lat="45.30331" lon="2.9393">
        <ele>1387.582856</ele>
        <time>2021-07-08T09:53:00+0200</time>
      </trkpt>
      <trkpt lat="45.30326" lon="2.93922">
        <ele>1387.36926</ele>
        <time>2021-07-08T09:53:01+0200</time>
      </trkpt>
      <trkpt lat="45.30322" lon="2.93914">
        <ele>1387.06661</ele>
        <time>2021-07-08T09:53:02+0200</time>
      </trkpt>
      <trkpt lat="45.30317" lon="2.93906">
        <ele>1386.708366</ele>
        <time>2021-07-08T09:53:03+0200</time>
      </trkpt>
      <trkpt lat="45.30313" lon="2.93898">
        <ele>1386.373959</ele>
        <time>2021-07-08T09:53:04+0200</time>
      </trkpt>
      <trkpt lat="45.30308" lon="2.9389">
        <ele>1385.912831</ele>
        <time>2021-07-08T09:53:05+0200</time>
      </trkpt>
      <trkpt lat="45.30304" lon="2.93881">
        <ele>1385.48375</ele>
        <time>2021-07-08T09:53:06+0200</time>
      </trkpt>
      <trkpt lat="45.303" lon="2.93873">
        <ele>1384.97917</ele>
        <time>2021-07-08T09:53:07+0200</time>
      </trkpt>
      <trkpt lat="45.30295" lon="2.93863">
        <ele>1384.405939</ele>
        <time>2021-07-08T09:53:08+0200</time>
      </trkpt>
      <trkpt lat="45.3029" lon="2.93854">
        <ele>1383.719001</ele>
        <time>2021-07-08T09:53:09+0200</time>
      </trkpt>
      <trkpt lat="45.30285" lon="2.93846">
        <ele>1382.714174</ele>
        <time>2021-07-08T09:53:10+0200</time>
      </trkpt>
      <trkpt lat="45.30279" lon="2.93838">
        <ele>1381.809779</ele>
        <time>2021-07-08T09:53:11+0200</time>
      </trkpt>
      <trkpt lat="45.30272" lon="2.93829">
        <ele>1380.952679</ele>
        <time>2021-07-08T09:53:12+0200</time>
      </trkpt>
      <trkpt lat="45.30265" lon="2.9382">
        <ele>1380.050197</ele>
        <time>2021-07-08T09:53:13+0200</time>
      </trkpt>
      <trkpt lat="45.30258" lon="2.93811">
        <ele>1379.288218</ele>
        <time>2021-07-08T09:53:14+0200</time>
      </trkpt>
      <trkpt lat="45.30251" lon="2.93803">
        <ele>1378.292047</ele>
        <time>2021-07-08T09:53:15+0200</time>
      </trkpt>
      <trkpt lat="45.30243" lon="2.93795">
        <ele>1376.959871</ele>
        <time>2021-07-08T09:53:16+0200</time>
      </trkpt>
      <trkpt lat="45.30235" lon="2.93786">
        <ele>1375.463582</ele>
        <time>2021-07-08T09:53:17+0200</time>
      </trkpt>
      <trkpt lat="45.30226" lon="2.93777">
        <ele>1374.000852</ele>
        <time>2021-07-08T09:53:18+0200</time>
      </trkpt>
      <trkpt lat="45.30218" lon="2.93768">
        <ele>1372.75856</ele>
        <time>2021-07-08T09:53:19+0200</time>
      </trkpt>
      <trkpt lat="45.30208" lon="2.9376">
        <ele>1371.245576</ele>
        <time>2021-07-08T09:53:20+0200</time>
      </trkpt>
      <trkpt lat="45.30199" lon="2.93751">
        <ele>1369.78643</ele>
        <time>2021-07-08T09:53:21+0200</time>
      </trkpt>
      <trkpt lat="45.30191" lon="2.93742">
        <ele>1368.492143</ele>
        <time>2021-07-08T09:53:22+0200</time>
      </trkpt>
      <trkpt lat="45.30182" lon="2.93733">
        <ele>1367.238534</ele>
        <time>2021-07-08T09:53:23+0200</time>
      </trkpt>
      <trkpt lat="45.30173" lon="2.93723">
        <ele>1365.894216</ele>
        <time>2021-07-08T09:53:24+0200</time>
      </trkpt>
      <trkpt lat="45.30164" lon="2.93711">
        <ele>1364.69009</ele>
        <time>2021-07-08T09:53:25+0200</time>
      </trkpt>
      <trkpt lat="45.30156" lon="2.93701">
        <ele>1363.776688</ele>
        <time>2021-07-08T09:53:26+0200</time>
      </trkpt>
      <trkpt lat="45.30149" lon="2.93691">
        <ele>1363.07048</ele>
        <time>2021-07-08T09:53:27+0200</time>
      </trkpt>
      <trkpt lat="45.30141" lon="2.93682">
        <ele>1362.432002</ele>
        <time>2021-07-08T09:53:28+0200</time>
      </trkpt>
      <trkpt lat="45.30132" lon="2.93674">
        <ele>1361.712343</ele>
        <time>2021-07-08T09:53:29+0200</time>
      </trkpt>
      <trkpt lat="45.30123" lon="2.93667">
        <ele>1360.890679</ele>
        <time>2021-07-08T09:53:30+0200</time>
      </trkpt>
      <trkpt lat="45.30117" lon="2.93663">
        <ele>1360.226517</ele>
        <time>2021-07-08T09:53:31+0200</time>
      </trkpt>
      <trkpt lat="45.30113" lon="2.93659">
        <ele>1359.716316</ele>
        <time>2021-07-08T09:53:32+0200</time>
      </trkpt>
      <trkpt lat="45.30107" lon="2.93654">
        <ele>1359.182492</ele>
        <time>2021-07-08T09:53:34+0200</time>
      </trkpt>
      <trkpt lat="45.30103" lon="2.93651">
        <ele>1358.649892</ele>
        <time>2021-07-08T09:53:35+0200</time>
      </trkpt>
      <trkpt lat="45.30097" lon="2.93649">
        <ele>1358.182043</ele>
        <time>2021-07-08T09:53:36+0200</time>
      </trkpt>
      <trkpt lat="45.30091" lon="2.93645">
        <ele>1357.469893</ele>
        <time>2021-07-08T09:53:37+0200</time>
      </trkpt>
      <trkpt lat="45.30085" lon="2.93642">
        <ele>1356.724979</ele>
        <time>2021-07-08T09:53:38+0200</time>
      </trkpt>
      <trkpt lat="45.30077" lon="2.93639">
        <ele>1356.094525</ele>
        <time>2021-07-08T09:53:39+0200</time>
      </trkpt>
      <trkpt lat="45.30069" lon="2.93638">
        <ele>1355.499384</ele>
        <time>2021-07-08T09:53:40+0200</time>
      </trkpt>
      <trkpt lat="45.30061" lon="2.93635">
        <ele>1355.252067</ele>
        <time>2021-07-08T09:53:41+0200</time>
      </trkpt>
      <trkpt lat="45.30053" lon="2.93634">
        <ele>1355.163674</ele>
        <time>2021-07-08T09:53:42+0200</time>
      </trkpt>
      <trkpt lat="45.30045" lon="2.93632">
        <ele>1355.191326</ele>
        <time>2021-07-08T09:53:43+0200</time>
      </trkpt>
      <trkpt lat="45.30038" lon="2.93629">
        <ele>1355.131166</ele>
        <time>2021-07-08T09:53:44+0200</time>
      </trkpt>
      <trkpt lat="45.30031" lon="2.93628">
        <ele>1354.75212</ele>
        <time>2021-07-08T09:53:45+0200</time>
      </trkpt>
      <trkpt lat="45.30024" lon="2.93628">
        <ele>1354.416959</ele>
        <time>2021-07-08T09:53:46+0200</time>
      </trkpt>
      <trkpt lat="45.30018" lon="2.93628">
        <ele>1354.31132</ele>
        <time>2021-07-08T09:53:47+0200</time>
      </trkpt>
      <trkpt lat="45.30012" lon="2.93629">
        <ele>1353.930096</ele>
        <time>2021-07-08T09:53:48+0200</time>
      </trkpt>
      <trkpt lat="45.30006" lon="2.93631">
        <ele>1353.933571</ele>
        <time>2021-07-08T09:53:49+0200</time>
      </trkpt>
      <trkpt lat="45.3" lon="2.93631">
        <ele>1353.971563</ele>
        <time>2021-07-08T09:53:50+0200</time>
      </trkpt>
      <trkpt lat="45.29995" lon="2.9363">
        <ele>1353.689161</ele>
        <time>2021-07-08T09:53:51+0200</time>
      </trkpt>
      <trkpt lat="45.2999" lon="2.9363">
        <ele>1353.568233</ele>
        <time>2021-07-08T09:53:52+0200</time>
      </trkpt>
      <trkpt lat="45.29985" lon="2.9363">
        <ele>1353.605336</ele>
        <time>2021-07-08T09:53:53+0200</time>
      </trkpt>
      <trkpt lat="45.29979" lon="2.9363">
        <ele>1353.67526</ele>
        <time>2021-07-08T09:53:54+0200</time>
      </trkpt>
      <trkpt lat="45.29974" lon="2.9363">
        <ele>1353.60099</ele>
        <time>2021-07-08T09:53:55+0200</time>
      </trkpt>
      <trkpt lat="45.29966" lon="2.93628">
        <ele>1354.165002</ele>
        <time>2021-07-08T09:53:57+0200</time>
      </trkpt>
      <trkpt lat="45.29959" lon="2.93627">
        <ele>1354.515806</ele>
        <time>2021-07-08T09:53:59+0200</time>
      </trkpt>
      <trkpt lat="45.29952" lon="2.93626">
        <ele>1354.345722</ele>
        <time>2021-07-08T09:54:01+0200</time>
      </trkpt>
      <trkpt lat="45.29944" lon="2.93625">
        <ele>1354.156235</ele>
        <time>2021-07-08T09:54:03+0200</time>
      </trkpt>
      <trkpt lat="45.29936" lon="2.93624">
        <ele>1354.356341</ele>
        <time>2021-07-08T09:54:05+0200</time>
      </trkpt>
      <trkpt lat="45.29927" lon="2.93622">
        <ele>1353.901635</ele>
        <time>2021-07-08T09:54:07+0200</time>
      </trkpt>
      <trkpt lat="45.29921" lon="2.93622">
        <ele>1353.690868</ele>
        <time>2021-07-08T09:54:08+0200</time>
      </trkpt>
      <trkpt lat="45.29916" lon="2.93622">
        <ele>1353.585895</ele>
        <time>2021-07-08T09:54:09+0200</time>
      </trkpt>
      <trkpt lat="45.29911" lon="2.93621">
        <ele>1353.641656</ele>
        <time>2021-07-08T09:54:10+0200</time>
      </trkpt>
      <trkpt lat="45.29906" lon="2.93622">
        <ele>1353.708871</ele>
        <time>2021-07-08T09:54:11+0200</time>
      </trkpt>
      <trkpt lat="45.29901" lon="2.93624">
        <ele>1353.629443</ele>
        <time>2021-07-08T09:54:12+0200</time>
      </trkpt>
      <trkpt lat="45.29895" lon="2.93626">
        <ele>1353.742132</ele>
        <time>2021-07-08T09:54:13+0200</time>
      </trkpt>
      <trkpt lat="45.2989" lon="2.93629">
        <ele>1353.848722</ele>
        <time>2021-07-08T09:54:14+0200</time>
      </trkpt>
      <trkpt lat="45.29884" lon="2.93632">
        <ele>1353.81869</ele>
        <time>2021-07-08T09:54:15+0200</time>
      </trkpt>
      <trkpt lat="45.29878" lon="2.93635">
        <ele>1353.69795</ele>
        <time>2021-07-08T09:54:16+0200</time>
      </trkpt>
      <trkpt lat="45.29871" lon="2.93638">
        <ele>1353.259245</ele>
        <time>2021-07-08T09:54:17+0200</time>
      </trkpt>
      <trkpt lat="45.29864" lon="2.9364">
        <ele>1352.936801</ele>
        <time>2021-07-08T09:54:18+0200</time>
      </trkpt>
      <trkpt lat="45.29857" lon="2.93642">
        <ele>1352.143835</ele>
        <time>2021-07-08T09:54:19+0200</time>
      </trkpt>
      <trkpt lat="45.2985" lon="2.93645">
        <ele>1351.480799</ele>
        <time>2021-07-08T09:54:20+0200</time>
      </trkpt>
      <trkpt lat="45.29842" lon="2.93648">
        <ele>1350.751117</ele>
        <time>2021-07-08T09:54:21+0200</time>
      </trkpt>
      <trkpt lat="45.29835" lon="2.93651">
        <ele>1350.048096</ele>
        <time>2021-07-08T09:54:22+0200</time>
      </trkpt>
      <trkpt lat="45.29828" lon="2.93655">
        <ele>1349.59708</ele>
        <time>2021-07-08T09:54:23+0200</time>
      </trkpt>
      <trkpt lat="45.29821" lon="2.93658">
        <ele>1348.944252</ele>
        <time>2021-07-08T09:54:24+0200</time>
      </trkpt>
      <trkpt lat="45.29813" lon="2.93661">
        <ele>1348.474418</ele>
        <time>2021-07-08T09:54:25+0200</time>
      </trkpt>
      <trkpt lat="45.29804" lon="2.93664">
        <ele>1347.58828</ele>
        <time>2021-07-08T09:54:26+0200</time>
      </trkpt>
      <trkpt lat="45.29797" lon="2.93669">
        <ele>1347.079291</ele>
        <time>2021-07-08T09:54:27+0200</time>
      </trkpt>
      <trkpt lat="45.29788" lon="2.93674">
        <ele>1346.44145</ele>
        <time>2021-07-08T09:54:28+0200</time>
      </trkpt>
      <trkpt lat="45.29779" lon="2.93678">
        <ele>1345.842926</ele>
        <time>2021-07-08T09:54:29+0200</time>
      </trkpt>
      <trkpt lat="45.29769" lon="2.93681">
        <ele>1345.161256</ele>
        <time>2021-07-08T09:54:30+0200</time>
      </trkpt>
      <trkpt lat="45.29759" lon="2.93686">
        <ele>1344.203346</ele>
        <time>2021-07-08T09:54:31+0200</time>
      </trkpt>
      <trkpt lat="45.29749" lon="2.93691">
        <ele>1343.378654</ele>
        <time>2021-07-08T09:54:32+0200</time>
      </trkpt>
      <trkpt lat="45.29739" lon="2.93695">
        <ele>1342.582206</ele>
        <time>2021-07-08T09:54:33+0200</time>
      </trkpt>
      <trkpt lat="45.29729" lon="2.937">
        <ele>1342.03636</ele>
        <time>2021-07-08T09:54:34+0200</time>
      </trkpt>
      <trkpt lat="45.29719" lon="2.93704">
        <ele>1341.367931</ele>
        <time>2021-07-08T09:54:35+0200</time>
      </trkpt>
      <trkpt lat="45.29709" lon="2.93709">
        <ele>1340.842149</ele>
        <time>2021-07-08T09:54:36+0200</time>
      </trkpt>
      <trkpt lat="45.29699" lon="2.93714">
        <ele>1340.409107</ele>
        <time>2021-07-08T09:54:37+0200</time>
      </trkpt>
      <trkpt lat="45.29689" lon="2.93718">
        <ele>1340.169532</ele>
        <time>2021-07-08T09:54:38+0200</time>
      </trkpt>
      <trkpt lat="45.2968" lon="2.93723">
        <ele>1339.960722</ele>
        <time>2021-07-08T09:54:39+0200</time>
      </trkpt>
      <trkpt lat="45.29671" lon="2.93727">
        <ele>1339.666412</ele>
        <time>2021-07-08T09:54:40+0200</time>
      </trkpt>
      <trkpt lat="45.29661" lon="2.93731">
        <ele>1339.197378</ele>
        <time>2021-07-08T09:54:41+0200</time>
      </trkpt>
      <trkpt lat="45.29651" lon="2.93736">
        <ele>1338.825876</ele>
        <time>2021-07-08T09:54:42+0200</time>
      </trkpt>
      <trkpt lat="45.29642" lon="2.93741">
        <ele>1338.139773</ele>
        <time>2021-07-08T09:54:43+0200</time>
      </trkpt>
      <trkpt lat="45.29632" lon="2.93743">
        <ele>1337.506962</ele>
        <time>2021-07-08T09:54:44+0200</time>
      </trkpt>
      <trkpt lat="45.29622" lon="2.93748">
        <ele>1336.737843</ele>
        <time>2021-07-08T09:54:45+0200</time>
      </trkpt>
      <trkpt lat="45.29612" lon="2.93752">
        <ele>1335.939414</ele>
        <time>2021-07-08T09:54:46+0200</time>
      </trkpt>
      <trkpt lat="45.29601" lon="2.93756">
        <ele>1335.018677</ele>
        <time>2021-07-08T09:54:47+0200</time>
      </trkpt>
      <trkpt lat="45.29591" lon="2.9376">
        <ele>1334.265784</ele>
        <time>2021-07-08T09:54:48+0200</time>
      </trkpt>
      <trkpt lat="45.2958" lon="2.93766">
        <ele>1333.409529</ele>
        <time>2021-07-08T09:54:49+0200</time>
      </trkpt>
      <trkpt lat="45.29569" lon="2.93771">
        <ele>1332.367682</ele>
        <time>2021-07-08T09:54:50+0200</time>
      </trkpt>
      <trkpt lat="45.29558" lon="2.93776">
        <ele>1331.07668</ele>
        <time>2021-07-08T09:54:51+0200</time>
      </trkpt>
      <trkpt lat="45.29546" lon="2.93781">
        <ele>1330.24184</ele>
        <time>2021-07-08T09:54:52+0200</time>
      </trkpt>
      <trkpt lat="45.29535" lon="2.93786">
        <ele>1329.27774</ele>
        <time>2021-07-08T09:54:53+0200</time>
      </trkpt>
      <trkpt lat="45.29523" lon="2.93791">
        <ele>1328.127212</ele>
        <time>2021-07-08T09:54:54+0200</time>
      </trkpt>
      <trkpt lat="45.29511" lon="2.93797">
        <ele>1327.015873</ele>
        <time>2021-07-08T09:54:55+0200</time>
      </trkpt>
      <trkpt lat="45.29499" lon="2.93803">
        <ele>1325.795703</ele>
        <time>2021-07-08T09:54:56+0200</time>
      </trkpt>
      <trkpt lat="45.29485" lon="2.93809">
        <ele>1323.190561</ele>
        <time>2021-07-08T09:54:57+0200</time>
      </trkpt>
      <trkpt lat="45.29471" lon="2.93815">
        <ele>1321.982261</ele>
        <time>2021-07-08T09:54:58+0200</time>
      </trkpt>
      <trkpt lat="45.29457" lon="2.9382">
        <ele>1320.39769</ele>
        <time>2021-07-08T09:54:59+0200</time>
      </trkpt>
      <trkpt lat="45.29443" lon="2.93826">
        <ele>1318.603187</ele>
        <time>2021-07-08T09:55:00+0200</time>
      </trkpt>
      <trkpt lat="45.29429" lon="2.93832">
        <ele>1316.731475</ele>
        <time>2021-07-08T09:55:01+0200</time>
      </trkpt>
      <trkpt lat="45.29415" lon="2.93837">
        <ele>1314.79298</ele>
        <time>2021-07-08T09:55:02+0200</time>
      </trkpt>
      <trkpt lat="45.294" lon="2.93844">
        <ele>1313.048236</ele>
        <time>2021-07-08T09:55:03+0200</time>
      </trkpt>
      <trkpt lat="45.29385" lon="2.9385">
        <ele>1311.436097</ele>
        <time>2021-07-08T09:55:04+0200</time>
      </trkpt>
      <trkpt lat="45.29371" lon="2.93857">
        <ele>1309.598744</ele>
        <time>2021-07-08T09:55:05+0200</time>
      </trkpt>
      <trkpt lat="45.29356" lon="2.93863">
        <ele>1307.897456</ele>
        <time>2021-07-08T09:55:06+0200</time>
      </trkpt>
      <trkpt lat="45.29341" lon="2.93869">
        <ele>1306.476001</ele>
        <time>2021-07-08T09:55:07+0200</time>
      </trkpt>
      <trkpt lat="45.29326" lon="2.93875">
        <ele>1305.374841</ele>
        <time>2021-07-08T09:55:08+0200</time>
      </trkpt>
      <trkpt lat="45.29312" lon="2.93882">
        <ele>1304.201283</ele>
        <time>2021-07-08T09:55:09+0200</time>
      </trkpt>
      <trkpt lat="45.29297" lon="2.93888">
        <ele>1302.847753</ele>
        <time>2021-07-08T09:55:10+0200</time>
      </trkpt>
      <trkpt lat="45.29284" lon="2.93894">
        <ele>1301.633432</ele>
        <time>2021-07-08T09:55:11+0200</time>
      </trkpt>
      <trkpt lat="45.29273" lon="2.93898">
        <ele>1300.587855</ele>
        <time>2021-07-08T09:55:12+0200</time>
      </trkpt>
      <trkpt lat="45.29262" lon="2.93903">
        <ele>1299.811668</ele>
        <time>2021-07-08T09:55:13+0200</time>
      </trkpt>
      <trkpt lat="45.2925" lon="2.93908">
        <ele>1299.172612</ele>
        <time>2021-07-08T09:55:14+0200</time>
      </trkpt>
      <trkpt lat="45.29238" lon="2.93912">
        <ele>1298.521776</ele>
        <time>2021-07-08T09:55:15+0200</time>
      </trkpt>
      <trkpt lat="45.29227" lon="2.93916">
        <ele>1298.230627</ele>
        <time>2021-07-08T09:55:16+0200</time>
      </trkpt>
      <trkpt lat="45.29216" lon="2.93918">
        <ele>1298.146143</ele>
        <time>2021-07-08T09:55:17+0200</time>
      </trkpt>
      <trkpt lat="45.29205" lon="2.93921">
        <ele>1298.153979</ele>
        <time>2021-07-08T09:55:18+0200</time>
      </trkpt>
      <trkpt lat="45.29194" lon="2.93924">
        <ele>1298.037896</ele>
        <time>2021-07-08T09:55:19+0200</time>
      </trkpt>
      <trkpt lat="45.29184" lon="2.93926">
        <ele>1297.554869</ele>
        <time>2021-07-08T09:55:20+0200</time>
      </trkpt>
      <trkpt lat="45.29174" lon="2.93928">
        <ele>1297.158583</ele>
        <time>2021-07-08T09:55:21+0200</time>
      </trkpt>
      <trkpt lat="45.29164" lon="2.9393">
        <ele>1296.899778</ele>
        <time>2021-07-08T09:55:22+0200</time>
      </trkpt>
      <trkpt lat="45.29155" lon="2.93932">
        <ele>1296.694411</ele>
        <time>2021-07-08T09:55:23+0200</time>
      </trkpt>
      <trkpt lat="45.29146" lon="2.93934">
        <ele>1296.609259</ele>
        <time>2021-07-08T09:55:24+0200</time>
      </trkpt>
      <trkpt lat="45.29136" lon="2.93934">
        <ele>1296.457879</ele>
        <time>2021-07-08T09:55:25+0200</time>
      </trkpt>
      <trkpt lat="45.29127" lon="2.93934">
        <ele>1296.502905</ele>
        <time>2021-07-08T09:55:26+0200</time>
      </trkpt>
      <trkpt lat="45.29118" lon="2.93934">
        <ele>1296.604256</ele>
        <time>2021-07-08T09:55:27+0200</time>
      </trkpt>
      <trkpt lat="45.2911" lon="2.93935">
        <ele>1296.438347</ele>
        <time>2021-07-08T09:55:28+0200</time>
      </trkpt>
      <trkpt lat="45.29102" lon="2.93935">
        <ele>1296.345097</ele>
        <time>2021-07-08T09:55:29+0200</time>
      </trkpt>
      <trkpt lat="45.29094" lon="2.93936">
        <ele>1296.265301</ele>
        <time>2021-07-08T09:55:30+0200</time>
      </trkpt>
      <trkpt lat="45.29087" lon="2.93936">
        <ele>1296.037258</ele>
        <time>2021-07-08T09:55:31+0200</time>
      </trkpt>
      <trkpt lat="45.2908" lon="2.93936">
        <ele>1296.023559</ele>
        <time>2021-07-08T09:55:32+0200</time>
      </trkpt>
      <trkpt lat="45.29073" lon="2.93937">
        <ele>1296.143709</ele>
        <time>2021-07-08T09:55:33+0200</time>
      </trkpt>
      <trkpt lat="45.29066" lon="2.93939">
        <ele>1296.239475</ele>
        <time>2021-07-08T09:55:34+0200</time>
      </trkpt>
      <trkpt lat="45.2906" lon="2.93939">
        <ele>1296.433756</ele>
        <time>2021-07-08T09:55:35+0200</time>
      </trkpt>
      <trkpt lat="45.29053" lon="2.93939">
        <ele>1296.555362</ele>
        <time>2021-07-08T09:55:36+0200</time>
      </trkpt>
      <trkpt lat="45.29048" lon="2.93938">
        <ele>1296.468176</ele>
        <time>2021-07-08T09:55:37+0200</time>
      </trkpt>
      <trkpt lat="45.29043" lon="2.93939">
        <ele>1296.305377</ele>
        <time>2021-07-08T09:55:38+0200</time>
      </trkpt>
      <trkpt lat="45.29038" lon="2.93938">
        <ele>1296.406347</ele>
        <time>2021-07-08T09:55:39+0200</time>
      </trkpt>
      <trkpt lat="45.29033" lon="2.93938">
        <ele>1296.710112</ele>
        <time>2021-07-08T09:55:40+0200</time>
      </trkpt>
      <trkpt lat="45.29025" lon="2.9394">
        <ele>1297.102027</ele>
        <time>2021-07-08T09:55:42+0200</time>
      </trkpt>
      <trkpt lat="45.29016" lon="2.93941">
        <ele>1297.375129</ele>
        <time>2021-07-08T09:55:44+0200</time>
      </trkpt>
      <trkpt lat="45.2901" lon="2.93941">
        <ele>1297.765282</ele>
        <time>2021-07-08T09:55:46+0200</time>
      </trkpt>
      <trkpt lat="45.29003" lon="2.93941">
        <ele>1298.095742</ele>
        <time>2021-07-08T09:55:48+0200</time>
      </trkpt>
      <trkpt lat="45.28996" lon="2.93942">
        <ele>1298.383266</ele>
        <time>2021-07-08T09:55:50+0200</time>
      </trkpt>
      <trkpt lat="45.28989" lon="2.93942">
        <ele>1298.438452</ele>
        <time>2021-07-08T09:55:52+0200</time>
      </trkpt>
      <trkpt lat="45.28982" lon="2.93943">
        <ele>1298.4136</ele>
        <time>2021-07-08T09:55:54+0200</time>
      </trkpt>
      <trkpt lat="45.28975" lon="2.93943">
        <ele>1298.431467</ele>
        <time>2021-07-08T09:55:56+0200</time>
      </trkpt>
      <trkpt lat="45.28966" lon="2.93944">
        <ele>1298.458467</ele>
        <time>2021-07-08T09:55:58+0200</time>
      </trkpt>
      <trkpt lat="45.28958" lon="2.93943">
        <ele>1298.586279</ele>
        <time>2021-07-08T09:56:00+0200</time>
      </trkpt>
      <trkpt lat="45.28954" lon="2.93942">
        <ele>1298.400761</ele>
        <time>2021-07-08T09:56:01+0200</time>
      </trkpt>
      <trkpt lat="45.28949" lon="2.93942">
        <ele>1298.413515</ele>
        <time>2021-07-08T09:56:02+0200</time>
      </trkpt>
      <trkpt lat="45.28944" lon="2.93942">
        <ele>1298.347047</ele>
        <time>2021-07-08T09:56:03+0200</time>
      </trkpt>
      <trkpt lat="45.2894" lon="2.93942">
        <ele>1298.346256</ele>
        <time>2021-07-08T09:56:04+0200</time>
      </trkpt>
      <trkpt lat="45.28934" lon="2.93942">
        <ele>1298.156689</ele>
        <time>2021-07-08T09:56:05+0200</time>
      </trkpt>
      <trkpt lat="45.28929" lon="2.93942">
        <ele>1298.002853</ele>
        <time>2021-07-08T09:56:06+0200</time>
      </trkpt>
      <trkpt lat="45.28924" lon="2.93943">
        <ele>1297.876935</ele>
        <time>2021-07-08T09:56:07+0200</time>
      </trkpt>
      <trkpt lat="45.28919" lon="2.93943">
        <ele>1297.585319</ele>
        <time>2021-07-08T09:56:08+0200</time>
      </trkpt>
      <trkpt lat="45.28913" lon="2.93944">
        <ele>1297.175759</ele>
        <time>2021-07-08T09:56:09+0200</time>
      </trkpt>
      <trkpt lat="45.28909" lon="2.93945">
        <ele>1297.09684</ele>
        <time>2021-07-08T09:56:10+0200</time>
      </trkpt>
      <trkpt lat="45.28904" lon="2.93945">
        <ele>1297.185775</ele>
        <time>2021-07-08T09:56:11+0200</time>
      </trkpt>
      <trkpt lat="45.28899" lon="2.93947">
        <ele>1297.200501</ele>
        <time>2021-07-08T09:56:12+0200</time>
      </trkpt>
      <trkpt lat="45.28894" lon="2.93947">
        <ele>1296.903681</ele>
        <time>2021-07-08T09:56:13+0200</time>
      </trkpt>
      <trkpt lat="45.28888" lon="2.93947">
        <ele>1296.711936</ele>
        <time>2021-07-08T09:56:14+0200</time>
      </trkpt>
      <trkpt lat="45.28883" lon="2.93947">
        <ele>1296.437661</ele>
        <time>2021-07-08T09:56:15+0200</time>
      </trkpt>
      <trkpt lat="45.28877" lon="2.93947">
        <ele>1296.323214</ele>
        <time>2021-07-08T09:56:16+0200</time>
      </trkpt>
      <trkpt lat="45.28872" lon="2.93948">
        <ele>1295.973312</ele>
        <time>2021-07-08T09:56:17+0200</time>
      </trkpt>
      <trkpt lat="45.28866" lon="2.93949">
        <ele>1295.681494</ele>
        <time>2021-07-08T09:56:18+0200</time>
      </trkpt>
      <trkpt lat="45.28861" lon="2.9395">
        <ele>1295.490935</ele>
        <time>2021-07-08T09:56:19+0200</time>
      </trkpt>
      <trkpt lat="45.28856" lon="2.93951">
        <ele>1295.283575</ele>
        <time>2021-07-08T09:56:20+0200</time>
      </trkpt>
      <trkpt lat="45.28851" lon="2.93953">
        <ele>1295.092152</ele>
        <time>2021-07-08T09:56:21+0200</time>
      </trkpt>
      <trkpt lat="45.28845" lon="2.93954">
        <ele>1294.727994</ele>
        <time>2021-07-08T09:56:22+0200</time>
      </trkpt>
      <trkpt lat="45.28839" lon="2.93954">
        <ele>1294.376271</ele>
        <time>2021-07-08T09:56:23+0200</time>
      </trkpt>
      <trkpt lat="45.28834" lon="2.93956">
        <ele>1293.863321</ele>
        <time>2021-07-08T09:56:24+0200</time>
      </trkpt>
      <trkpt lat="45.28828" lon="2.93956">
        <ele>1293.57322</ele>
        <time>2021-07-08T09:56:25+0200</time>
      </trkpt>
      <trkpt lat="45.28822" lon="2.93957">
        <ele>1293.296798</ele>
        <time>2021-07-08T09:56:26+0200</time>
      </trkpt>
      <trkpt lat="45.28816" lon="2.93959">
        <ele>1292.850284</ele>
        <time>2021-07-08T09:56:27+0200</time>
      </trkpt>
      <trkpt lat="45.2881" lon="2.9396">
        <ele>1292.668343</ele>
        <time>2021-07-08T09:56:28+0200</time>
      </trkpt>
      <trkpt lat="45.28803" lon="2.93961">
        <ele>1292.430192</ele>
        <time>2021-07-08T09:56:29+0200</time>
      </trkpt>
      <trkpt lat="45.28797" lon="2.93961">
        <ele>1292.248239</ele>
        <time>2021-07-08T09:56:30+0200</time>
      </trkpt>
      <trkpt lat="45.28791" lon="2.93964">
        <ele>1291.526694</ele>
        <time>2021-07-08T09:56:31+0200</time>
      </trkpt>
      <trkpt lat="45.28785" lon="2.93966">
        <ele>1291.14735</ele>
        <time>2021-07-08T09:56:32+0200</time>
      </trkpt>
      <trkpt lat="45.28778" lon="2.93968">
        <ele>1290.836942</ele>
        <time>2021-07-08T09:56:33+0200</time>
      </trkpt>
      <trkpt lat="45.28772" lon="2.93969">
        <ele>1290.179155</ele>
        <time>2021-07-08T09:56:34+0200</time>
      </trkpt>
      <trkpt lat="45.28764" lon="2.93971">
        <ele>1289.836411</ele>
        <time>2021-07-08T09:56:35+0200</time>
      </trkpt>
      <trkpt lat="45.28756" lon="2.93973">
        <ele>1289.275154</ele>
        <time>2021-07-08T09:56:36+0200</time>
      </trkpt>
      <trkpt lat="45.28748" lon="2.93974">
        <ele>1288.637484</ele>
        <time>2021-07-08T09:56:37+0200</time>
      </trkpt>
      <trkpt lat="45.28739" lon="2.93976">
        <ele>1288.184852</ele>
        <time>2021-07-08T09:56:38+0200</time>
      </trkpt>
      <trkpt lat="45.2873" lon="2.93978">
        <ele>1287.611121</ele>
        <time>2021-07-08T09:56:39+0200</time>
      </trkpt>
      <trkpt lat="45.2872" lon="2.9398">
        <ele>1287.076607</ele>
        <time>2021-07-08T09:56:40+0200</time>
      </trkpt>
      <trkpt lat="45.2871" lon="2.93982">
        <ele>1286.41115</ele>
        <time>2021-07-08T09:56:41+0200</time>
      </trkpt>
      <trkpt lat="45.28701" lon="2.93984">
        <ele>1285.853598</ele>
        <time>2021-07-08T09:56:42+0200</time>
      </trkpt>
      <trkpt lat="45.28691" lon="2.93986">
        <ele>1285.545892</ele>
        <time>2021-07-08T09:56:43+0200</time>
      </trkpt>
      <trkpt lat="45.28681" lon="2.93988">
        <ele>1285.30587</ele>
        <time>2021-07-08T09:56:44+0200</time>
      </trkpt>
      <trkpt lat="45.28671" lon="2.93989">
        <ele>1285.149601</ele>
        <time>2021-07-08T09:56:45+0200</time>
      </trkpt>
      <trkpt lat="45.28662" lon="2.93991">
        <ele>1284.981812</ele>
        <time>2021-07-08T09:56:46+0200</time>
      </trkpt>
      <trkpt lat="45.28652" lon="2.93993">
        <ele>1285.117679</ele>
        <time>2021-07-08T09:56:47+0200</time>
      </trkpt>
      <trkpt lat="45.28643" lon="2.93994">
        <ele>1285.250432</ele>
        <time>2021-07-08T09:56:48+0200</time>
      </trkpt>
      <trkpt lat="45.28633" lon="2.93997">
        <ele>1285.968466</ele>
        <time>2021-07-08T09:56:49+0200</time>
      </trkpt>
      <trkpt lat="45.28624" lon="2.93999">
        <ele>1286.621195</ele>
        <time>2021-07-08T09:56:50+0200</time>
      </trkpt>
      <trkpt lat="45.28615" lon="2.94002">
        <ele>1287.466875</ele>
        <time>2021-07-08T09:56:51+0200</time>
      </trkpt>
      <trkpt lat="45.28607" lon="2.94004">
        <ele>1288.294419</ele>
        <time>2021-07-08T09:56:52+0200</time>
      </trkpt>
      <trkpt lat="45.28599" lon="2.94005">
        <ele>1289.019293</ele>
        <time>2021-07-08T09:56:53+0200</time>
      </trkpt>
      <trkpt lat="45.28593" lon="2.94007">
        <ele>1289.601546</ele>
        <time>2021-07-08T09:56:54+0200</time>
      </trkpt>
      <trkpt lat="45.28586" lon="2.94009">
        <ele>1289.840374</ele>
        <time>2021-07-08T09:56:55+0200</time>
      </trkpt>
      <trkpt lat="45.28581" lon="2.94011">
        <ele>1290.223435</ele>
        <time>2021-07-08T09:56:56+0200</time>
      </trkpt>
      <trkpt lat="45.28576" lon="2.94013">
        <ele>1290.475698</ele>
        <time>2021-07-08T09:56:57+0200</time>
      </trkpt>
      <trkpt lat="45.28571" lon="2.94015">
        <ele>1290.588755</ele>
        <time>2021-07-08T09:56:58+0200</time>
      </trkpt>
      <trkpt lat="45.28566" lon="2.94016">
        <ele>1290.682337</ele>
        <time>2021-07-08T09:56:59+0200</time>
      </trkpt>
      <trkpt lat="45.28561" lon="2.94017">
        <ele>1290.742326</ele>
        <time>2021-07-08T09:57:00+0200</time>
      </trkpt>
      <trkpt lat="45.28553" lon="2.94019">
        <ele>1290.90966</ele>
        <time>2021-07-08T09:57:02+0200</time>
      </trkpt>
      <trkpt lat="45.28546" lon="2.9402">
        <ele>1290.946553</ele>
        <time>2021-07-08T09:57:04+0200</time>
      </trkpt>
      <trkpt lat="45.28539" lon="2.9402">
        <ele>1291.024023</ele>
        <time>2021-07-08T09:57:06+0200</time>
      </trkpt>
      <trkpt lat="45.28533" lon="2.9402">
        <ele>1291.251065</ele>
        <time>2021-07-08T09:57:08+0200</time>
      </trkpt>
      <trkpt lat="45.28527" lon="2.94023">
        <ele>1290.99914</ele>
        <time>2021-07-08T09:57:10+0200</time>
      </trkpt>
      <trkpt lat="45.28521" lon="2.94025">
        <ele>1291.163065</ele>
        <time>2021-07-08T09:57:12+0200</time>
      </trkpt>
      <trkpt lat="45.28513" lon="2.94026">
        <ele>1290.917002</ele>
        <time>2021-07-08T09:57:14+0200</time>
      </trkpt>
      <trkpt lat="45.28505" lon="2.9403">
        <ele>1290.260012</ele>
        <time>2021-07-08T09:57:16+0200</time>
      </trkpt>
      <trkpt lat="45.28496" lon="2.94033">
        <ele>1289.004541</ele>
        <time>2021-07-08T09:57:18+0200</time>
      </trkpt>
      <trkpt lat="45.2849" lon="2.94036">
        <ele>1288.503565</ele>
        <time>2021-07-08T09:57:19+0200</time>
      </trkpt>
      <trkpt lat="45.28485" lon="2.94039">
        <ele>1288.214586</ele>
        <time>2021-07-08T09:57:20+0200</time>
      </trkpt>
      <trkpt lat="45.28478" lon="2.9404">
        <ele>1287.821863</ele>
        <time>2021-07-08T09:57:21+0200</time>
      </trkpt>
      <trkpt lat="45.28472" lon="2.94042">
        <ele>1287.329227</ele>
        <time>2021-07-08T09:57:22+0200</time>
      </trkpt>
      <trkpt lat="45.28465" lon="2.94044">
        <ele>1287.001025</ele>
        <time>2021-07-08T09:57:23+0200</time>
      </trkpt>
      <trkpt lat="45.28458" lon="2.94047">
        <ele>1286.611744</ele>
        <time>2021-07-08T09:57:24+0200</time>
      </trkpt>
      <trkpt lat="45.28451" lon="2.9405">
        <ele>1286.516431</ele>
        <time>2021-07-08T09:57:25+0200</time>
      </trkpt>
      <trkpt lat="45.28444" lon="2.94052">
        <ele>1286.143667</ele>
        <time>2021-07-08T09:57:26+0200</time>
      </trkpt>
      <trkpt lat="45.28437" lon="2.94055">
        <ele>1285.708021</ele>
        <time>2021-07-08T09:57:27+0200</time>
      </trkpt>
      <trkpt lat="45.2843" lon="2.94057">
        <ele>1285.341156</ele>
        <time>2021-07-08T09:57:28+0200</time>
      </trkpt>
      <trkpt lat="45.28424" lon="2.9406">
        <ele>1285.046417</ele>
        <time>2021-07-08T09:57:29+0200</time>
      </trkpt>
      <trkpt lat="45.28418" lon="2.94063">
        <ele>1284.926097</ele>
        <time>2021-07-08T09:57:30+0200</time>
      </trkpt>
      <trkpt lat="45.28411" lon="2.94065">
        <ele>1284.886797</ele>
        <time>2021-07-08T09:57:31+0200</time>
      </trkpt>
      <trkpt lat="45.28404" lon="2.94068">
        <ele>1284.338159</ele>
        <time>2021-07-08T09:57:32+0200</time>
      </trkpt>
      <trkpt lat="45.28397" lon="2.9407">
        <ele>1283.772342</ele>
        <time>2021-07-08T09:57:33+0200</time>
      </trkpt>
      <trkpt lat="45.28391" lon="2.94073">
        <ele>1283.338667</ele>
        <time>2021-07-08T09:57:34+0200</time>
      </trkpt>
      <trkpt lat="45.28384" lon="2.94075">
        <ele>1282.938693</ele>
        <time>2021-07-08T09:57:35+0200</time>
      </trkpt>
      <trkpt lat="45.28378" lon="2.94077">
        <ele>1282.679613</ele>
        <time>2021-07-08T09:57:36+0200</time>
      </trkpt>
      <trkpt lat="45.28371" lon="2.94079">
        <ele>1282.39341</ele>
        <time>2021-07-08T09:57:37+0200</time>
      </trkpt>
      <trkpt lat="45.28364" lon="2.94082">
        <ele>1282.397126</ele>
        <time>2021-07-08T09:57:38+0200</time>
      </trkpt>
      <trkpt lat="45.28357" lon="2.94084">
        <ele>1282.384391</ele>
        <time>2021-07-08T09:57:39+0200</time>
      </trkpt>
      <trkpt lat="45.2835" lon="2.94087">
        <ele>1282.186918</ele>
        <time>2021-07-08T09:57:40+0200</time>
      </trkpt>
      <trkpt lat="45.28343" lon="2.94089">
        <ele>1281.829034</ele>
        <time>2021-07-08T09:57:41+0200</time>
      </trkpt>
      <trkpt lat="45.28337" lon="2.94092">
        <ele>1281.672879</ele>
        <time>2021-07-08T09:57:42+0200</time>
      </trkpt>
      <trkpt lat="45.28329" lon="2.94096">
        <ele>1281.089953</ele>
        <time>2021-07-08T09:57:43+0200</time>
      </trkpt>
      <trkpt lat="45.28322" lon="2.94098">
        <ele>1280.82125</ele>
        <time>2021-07-08T09:57:44+0200</time>
      </trkpt>
      <trkpt lat="45.28315" lon="2.94101">
        <ele>1280.255177</ele>
        <time>2021-07-08T09:57:45+0200</time>
      </trkpt>
      <trkpt lat="45.28307" lon="2.94105">
        <ele>1279.702769</ele>
        <time>2021-07-08T09:57:46+0200</time>
      </trkpt>
      <trkpt lat="45.283" lon="2.94108">
        <ele>1279.277962</ele>
        <time>2021-07-08T09:57:47+0200</time>
      </trkpt>
      <trkpt lat="45.28292" lon="2.94111">
        <ele>1278.891479</ele>
        <time>2021-07-08T09:57:48+0200</time>
      </trkpt>
      <trkpt lat="45.28284" lon="2.94114">
        <ele>1278.475925</ele>
        <time>2021-07-08T09:57:49+0200</time>
      </trkpt>
      <trkpt lat="45.28276" lon="2.94118">
        <ele>1278.561648</ele>
        <time>2021-07-08T09:57:50+0200</time>
      </trkpt>
      <trkpt lat="45.28269" lon="2.94121">
        <ele>1278.422925</ele>
        <time>2021-07-08T09:57:51+0200</time>
      </trkpt>
      <trkpt lat="45.28261" lon="2.94124">
        <ele>1278.28528</ele>
        <time>2021-07-08T09:57:52+0200</time>
      </trkpt>
      <trkpt lat="45.28254" lon="2.94126">
        <ele>1278.504766</ele>
        <time>2021-07-08T09:57:53+0200</time>
      </trkpt>
      <trkpt lat="45.28246" lon="2.9413">
        <ele>1278.440621</ele>
        <time>2021-07-08T09:57:54+0200</time>
      </trkpt>
      <trkpt lat="45.28239" lon="2.94133">
        <ele>1278.416189</ele>
        <time>2021-07-08T09:57:55+0200</time>
      </trkpt>
      <trkpt lat="45.28232" lon="2.94136">
        <ele>1278.327864</ele>
        <time>2021-07-08T09:57:56+0200</time>
      </trkpt>
      <trkpt lat="45.28224" lon="2.94138">
        <ele>1278.342636</ele>
        <time>2021-07-08T09:57:57+0200</time>
      </trkpt>
      <trkpt lat="45.28217" lon="2.94142">
        <ele>1278.233624</ele>
        <time>2021-07-08T09:57:58+0200</time>
      </trkpt>
      <trkpt lat="45.28209" lon="2.94145">
        <ele>1277.868748</ele>
        <time>2021-07-08T09:57:59+0200</time>
      </trkpt>
      <trkpt lat="45.28202" lon="2.94148">
        <ele>1277.318839</ele>
        <time>2021-07-08T09:58:00+0200</time>
      </trkpt>
      <trkpt lat="45.28194" lon="2.94151">
        <ele>1277.019491</ele>
        <time>2021-07-08T09:58:01+0200</time>
      </trkpt>
      <trkpt lat="45.28187" lon="2.94155">
        <ele>1276.523812</ele>
        <time>2021-07-08T09:58:02+0200</time>
      </trkpt>
      <trkpt lat="45.2818" lon="2.94157">
        <ele>1276.236142</ele>
        <time>2021-07-08T09:58:03+0200</time>
      </trkpt>
      <trkpt lat="45.28173" lon="2.94159">
        <ele>1276.160403</ele>
        <time>2021-07-08T09:58:04+0200</time>
      </trkpt>
      <trkpt lat="45.28165" lon="2.94162">
        <ele>1276.079324</ele>
        <time>2021-07-08T09:58:05+0200</time>
      </trkpt>
      <trkpt lat="45.28159" lon="2.94165">
        <ele>1276.057801</ele>
        <time>2021-07-08T09:58:06+0200</time>
      </trkpt>
      <trkpt lat="45.28152" lon="2.94167">
        <ele>1276.102182</ele>
        <time>2021-07-08T09:58:07+0200</time>
      </trkpt>
      <trkpt lat="45.28146" lon="2.9417">
        <ele>1275.888523</ele>
        <time>2021-07-08T09:58:08+0200</time>
      </trkpt>
      <trkpt lat="45.28139" lon="2.94173">
        <ele>1276.133718</ele>
        <time>2021-07-08T09:58:09+0200</time>
      </trkpt>
      <trkpt lat="45.28133" lon="2.94176">
        <ele>1276.239055</ele>
        <time>2021-07-08T09:58:10+0200</time>
      </trkpt>
      <trkpt lat="45.28127" lon="2.9418">
        <ele>1275.944779</ele>
        <time>2021-07-08T09:58:11+0200</time>
      </trkpt>
      <trkpt lat="45.2812" lon="2.94182">
        <ele>1276.035077</ele>
        <time>2021-07-08T09:58:12+0200</time>
      </trkpt>
      <trkpt lat="45.28114" lon="2.94184">
        <ele>1275.970649</ele>
        <time>2021-07-08T09:58:13+0200</time>
      </trkpt>
      <trkpt lat="45.28109" lon="2.94187">
        <ele>1276.116225</ele>
        <time>2021-07-08T09:58:14+0200</time>
      </trkpt>
      <trkpt lat="45.28104" lon="2.94189">
        <ele>1276.502245</ele>
        <time>2021-07-08T09:58:15+0200</time>
      </trkpt>
      <trkpt lat="45.28099" lon="2.94191">
        <ele>1276.706288</ele>
        <time>2021-07-08T09:58:16+0200</time>
      </trkpt>
      <trkpt lat="45.28091" lon="2.94195">
        <ele>1277.338665</ele>
        <time>2021-07-08T09:58:18+0200</time>
      </trkpt>
      <trkpt lat="45.28083" lon="2.94198">
        <ele>1278.301357</ele>
        <time>2021-07-08T09:58:20+0200</time>
      </trkpt>
      <trkpt lat="45.28077" lon="2.94201">
        <ele>1279.1362</ele>
        <time>2021-07-08T09:58:22+0200</time>
      </trkpt>
      <trkpt lat="45.28069" lon="2.94203">
        <ele>1279.64037</ele>
        <time>2021-07-08T09:58:24+0200</time>
      </trkpt>
      <trkpt lat="45.28062" lon="2.94206">
        <ele>1280.014273</ele>
        <time>2021-07-08T09:58:26+0200</time>
      </trkpt>
      <trkpt lat="45.28055" lon="2.94209">
        <ele>1280.340721</ele>
        <time>2021-07-08T09:58:28+0200</time>
      </trkpt>
      <trkpt lat="45.28047" lon="2.94212">
        <ele>1280.614129</ele>
        <time>2021-07-08T09:58:30+0200</time>
      </trkpt>
      <trkpt lat="45.28039" lon="2.94215">
        <ele>1280.668008</ele>
        <time>2021-07-08T09:58:32+0200</time>
      </trkpt>
      <trkpt lat="45.28031" lon="2.94218">
        <ele>1280.539378</ele>
        <time>2021-07-08T09:58:34+0200</time>
      </trkpt>
      <trkpt lat="45.28023" lon="2.94222">
        <ele>1280.665353</ele>
        <time>2021-07-08T09:58:36+0200</time>
      </trkpt>
      <trkpt lat="45.28014" lon="2.94224">
        <ele>1280.477053</ele>
        <time>2021-07-08T09:58:38+0200</time>
      </trkpt>
      <trkpt lat="45.2801" lon="2.94225">
        <ele>1280.303654</ele>
        <time>2021-07-08T09:58:39+0200</time>
      </trkpt>
      <trkpt lat="45.28005" lon="2.94226">
        <ele>1280.239436</ele>
        <time>2021-07-08T09:58:40+0200</time>
      </trkpt>
      <trkpt lat="45.27997" lon="2.94229">
        <ele>1280.068747</ele>
        <time>2021-07-08T09:58:42+0200</time>
      </trkpt>
      <trkpt lat="45.27989" lon="2.94233">
        <ele>1279.933866</ele>
        <time>2021-07-08T09:58:44+0200</time>
      </trkpt>
      <trkpt lat="45.27981" lon="2.94235">
        <ele>1280.084928</ele>
        <time>2021-07-08T09:58:46+0200</time>
      </trkpt>
      <trkpt lat="45.27973" lon="2.94238">
        <ele>1280.203514</ele>
        <time>2021-07-08T09:58:48+0200</time>
      </trkpt>
      <trkpt lat="45.27966" lon="2.94241">
        <ele>1280.272717</ele>
        <time>2021-07-08T09:58:50+0200</time>
      </trkpt>
      <trkpt lat="45.27959" lon="2.94245">
        <ele>1279.900192</ele>
        <time>2021-07-08T09:58:52+0200</time>
      </trkpt>
      <trkpt lat="45.27952" lon="2.94246">
        <ele>1280.004022</ele>
        <time>2021-07-08T09:58:54+0200</time>
      </trkpt>
      <trkpt lat="45.27945" lon="2.94249">
        <ele>1279.966103</ele>
        <time>2021-07-08T09:58:56+0200</time>
      </trkpt>
      <trkpt lat="45.27939" lon="2.94251">
        <ele>1279.904141</ele>
        <time>2021-07-08T09:58:58+0200</time>
      </trkpt>
      <trkpt lat="45.27933" lon="2.9425">
        <ele>1279.542752</ele>
        <time>2021-07-08T09:59:00+0200</time>
      </trkpt>
      <trkpt lat="45.27928" lon="2.94247">
        <ele>1279.750975</ele>
        <time>2021-07-08T09:59:04+0200</time>
      </trkpt>
      <trkpt lat="45.27924" lon="2.9424">
        <ele>1279.645436</ele>
        <time>2021-07-08T09:59:07+0200</time>
      </trkpt>
      <trkpt lat="45.27921" lon="2.94234">
        <ele>1279.530882</ele>
        <time>2021-07-08T09:59:09+0200</time>
      </trkpt>
      <trkpt lat="45.27917" lon="2.94228">
        <ele>1279.45558</ele>
        <time>2021-07-08T09:59:11+0200</time>
      </trkpt>
      <trkpt lat="45.27913" lon="2.94222">
        <ele>1279.267998</ele>
        <time>2021-07-08T09:59:13+0200</time>
      </trkpt>
      <trkpt lat="45.27908" lon="2.94216">
        <ele>1279.177937</ele>
        <time>2021-07-08T09:59:15+0200</time>
      </trkpt>
      <trkpt lat="45.27902" lon="2.9421">
        <ele>1278.849552</ele>
        <time>2021-07-08T09:59:17+0200</time>
      </trkpt>
      <trkpt lat="45.27896" lon="2.94202">
        <ele>1278.811602</ele>
        <time>2021-07-08T09:59:19+0200</time>
      </trkpt>
      <trkpt lat="45.27893" lon="2.94197">
        <ele>1278.698705</ele>
        <time>2021-07-08T09:59:20+0200</time>
      </trkpt>
      <trkpt lat="45.2789" lon="2.94193">
        <ele>1278.58084</ele>
        <time>2021-07-08T09:59:21+0200</time>
      </trkpt>
      <trkpt lat="45.27883" lon="2.94186">
        <ele>1278.418017</ele>
        <time>2021-07-08T09:59:23+0200</time>
      </trkpt>
      <trkpt lat="45.27879" lon="2.94182">
        <ele>1278.242411</ele>
        <time>2021-07-08T09:59:24+0200</time>
      </trkpt>
      <trkpt lat="45.27875" lon="2.94178">
        <ele>1278.202332</ele>
        <time>2021-07-08T09:59:25+0200</time>
      </trkpt>
      <trkpt lat="45.27872" lon="2.94173">
        <ele>1277.971676</ele>
        <time>2021-07-08T09:59:26+0200</time>
      </trkpt>
      <trkpt lat="45.27868" lon="2.94169">
        <ele>1277.814195</ele>
        <time>2021-07-08T09:59:27+0200</time>
      </trkpt>
      <trkpt lat="45.27865" lon="2.94164">
        <ele>1277.508902</ele>
        <time>2021-07-08T09:59:28+0200</time>
      </trkpt>
      <trkpt lat="45.27861" lon="2.9416">
        <ele>1277.275897</ele>
        <time>2021-07-08T09:59:29+0200</time>
      </trkpt>
      <trkpt lat="45.27858" lon="2.94155">
        <ele>1276.998039</ele>
        <time>2021-07-08T09:59:30+0200</time>
      </trkpt>
      <trkpt lat="45.27854" lon="2.94151">
        <ele>1276.927586</ele>
        <time>2021-07-08T09:59:31+0200</time>
      </trkpt>
      <trkpt lat="45.2785" lon="2.94147">
        <ele>1276.806172</ele>
        <time>2021-07-08T09:59:32+0200</time>
      </trkpt>
      <trkpt lat="45.27846" lon="2.94142">
        <ele>1276.766051</ele>
        <time>2021-07-08T09:59:33+0200</time>
      </trkpt>
      <trkpt lat="45.27843" lon="2.94137">
        <ele>1276.646522</ele>
        <time>2021-07-08T09:59:34+0200</time>
      </trkpt>
      <trkpt lat="45.27839" lon="2.94132">
        <ele>1276.578177</ele>
        <time>2021-07-08T09:59:35+0200</time>
      </trkpt>
      <trkpt lat="45.27834" lon="2.94127">
        <ele>1276.371164</ele>
        <time>2021-07-08T09:59:36+0200</time>
      </trkpt>
      <trkpt lat="45.2783" lon="2.94121">
        <ele>1276.275001</ele>
        <time>2021-07-08T09:59:37+0200</time>
      </trkpt>
      <trkpt lat="45.27826" lon="2.94116">
        <ele>1276.241999</ele>
        <time>2021-07-08T09:59:38+0200</time>
      </trkpt>
      <trkpt lat="45.27821" lon="2.94111">
        <ele>1276.052397</ele>
        <time>2021-07-08T09:59:39+0200</time>
      </trkpt>
      <trkpt lat="45.27817" lon="2.94105">
        <ele>1275.802837</ele>
        <time>2021-07-08T09:59:40+0200</time>
      </trkpt>
      <trkpt lat="45.27812" lon="2.94099">
        <ele>1275.593965</ele>
        <time>2021-07-08T09:59:41+0200</time>
      </trkpt>
      <trkpt lat="45.27807" lon="2.94094">
        <ele>1275.472398</ele>
        <time>2021-07-08T09:59:42+0200</time>
      </trkpt>
      <trkpt lat="45.27802" lon="2.94088">
        <ele>1275.342379</ele>
        <time>2021-07-08T09:59:43+0200</time>
      </trkpt>
      <trkpt lat="45.27797" lon="2.94082">
        <ele>1275.206451</ele>
        <time>2021-07-08T09:59:44+0200</time>
      </trkpt>
      <trkpt lat="45.27793" lon="2.94077">
        <ele>1275.029312</ele>
        <time>2021-07-08T09:59:45+0200</time>
      </trkpt>
      <trkpt lat="45.27788" lon="2.94071">
        <ele>1274.819362</ele>
        <time>2021-07-08T09:59:46+0200</time>
      </trkpt>
      <trkpt lat="45.27784" lon="2.94065">
        <ele>1274.571519</ele>
        <time>2021-07-08T09:59:47+0200</time>
      </trkpt>
      <trkpt lat="45.27778" lon="2.9406">
        <ele>1274.367805</ele>
        <time>2021-07-08T09:59:48+0200</time>
      </trkpt>
      <trkpt lat="45.27773" lon="2.94055">
        <ele>1274.181914</ele>
        <time>2021-07-08T09:59:49+0200</time>
      </trkpt>
      <trkpt lat="45.27767" lon="2.9405">
        <ele>1273.823499</ele>
        <time>2021-07-08T09:59:50+0200</time>
      </trkpt>
      <trkpt lat="45.27761" lon="2.94045">
        <ele>1273.436349</ele>
        <time>2021-07-08T09:59:51+0200</time>
      </trkpt>
      <trkpt lat="45.27755" lon="2.94041">
        <ele>1273.143446</ele>
        <time>2021-07-08T09:59:52+0200</time>
      </trkpt>
      <trkpt lat="45.27749" lon="2.94038">
        <ele>1272.851632</ele>
        <time>2021-07-08T09:59:53+0200</time>
      </trkpt>
      <trkpt lat="45.27742" lon="2.94035">
        <ele>1272.518435</ele>
        <time>2021-07-08T09:59:54+0200</time>
      </trkpt>
      <trkpt lat="45.27734" lon="2.94032">
        <ele>1272.161127</ele>
        <time>2021-07-08T09:59:55+0200</time>
      </trkpt>
      <trkpt lat="45.27727" lon="2.94029">
        <ele>1271.945625</ele>
        <time>2021-07-08T09:59:56+0200</time>
      </trkpt>
      <trkpt lat="45.2772" lon="2.94027">
        <ele>1271.746387</ele>
        <time>2021-07-08T09:59:57+0200</time>
      </trkpt>
      <trkpt lat="45.27713" lon="2.94023">
        <ele>1271.434537</ele>
        <time>2021-07-08T09:59:58+0200</time>
      </trkpt>
      <trkpt lat="45.27706" lon="2.9402">
        <ele>1271.053267</ele>
        <time>2021-07-08T09:59:59+0200</time>
      </trkpt>
      <trkpt lat="45.27698" lon="2.94017">
        <ele>1270.67706</ele>
        <time>2021-07-08T10:00:00+0200</time>
      </trkpt>
      <trkpt lat="45.27691" lon="2.94013">
        <ele>1270.366628</ele>
        <time>2021-07-08T10:00:01+0200</time>
      </trkpt>
      <trkpt lat="45.27684" lon="2.94009">
        <ele>1269.980384</ele>
        <time>2021-07-08T10:00:02+0200</time>
      </trkpt>
      <trkpt lat="45.27678" lon="2.94005">
        <ele>1269.635291</ele>
        <time>2021-07-08T10:00:03+0200</time>
      </trkpt>
      <trkpt lat="45.27671" lon="2.94">
        <ele>1269.198054</ele>
        <time>2021-07-08T10:00:04+0200</time>
      </trkpt>
      <trkpt lat="45.27665" lon="2.93993">
        <ele>1268.715565</ele>
        <time>2021-07-08T10:00:05+0200</time>
      </trkpt>
      <trkpt lat="45.2766" lon="2.93986">
        <ele>1268.279581</ele>
        <time>2021-07-08T10:00:06+0200</time>
      </trkpt>
      <trkpt lat="45.27655" lon="2.93978">
        <ele>1267.713547</ele>
        <time>2021-07-08T10:00:07+0200</time>
      </trkpt>
      <trkpt lat="45.2765" lon="2.93969">
        <ele>1267.293051</ele>
        <time>2021-07-08T10:00:08+0200</time>
      </trkpt>
      <trkpt lat="45.27646" lon="2.9396">
        <ele>1266.807471</ele>
        <time>2021-07-08T10:00:09+0200</time>
      </trkpt>
      <trkpt lat="45.27641" lon="2.9395">
        <ele>1266.256686</ele>
        <time>2021-07-08T10:00:10+0200</time>
      </trkpt>
      <trkpt lat="45.27635" lon="2.93941">
        <ele>1265.70977</ele>
        <time>2021-07-08T10:00:11+0200</time>
      </trkpt>
      <trkpt lat="45.27629" lon="2.93931">
        <ele>1265.088098</ele>
        <time>2021-07-08T10:00:12+0200</time>
      </trkpt>
      <trkpt lat="45.27624" lon="2.93921">
        <ele>1264.570171</ele>
        <time>2021-07-08T10:00:13+0200</time>
      </trkpt>
      <trkpt lat="45.27618" lon="2.93911">
        <ele>1264.088544</ele>
        <time>2021-07-08T10:00:14+0200</time>
      </trkpt>
      <trkpt lat="45.27612" lon="2.93901">
        <ele>1263.400102</ele>
        <time>2021-07-08T10:00:15+0200</time>
      </trkpt>
      <trkpt lat="45.27606" lon="2.93891">
        <ele>1262.902267</ele>
        <time>2021-07-08T10:00:16+0200</time>
      </trkpt>
      <trkpt lat="45.276" lon="2.9388">
        <ele>1262.121367</ele>
        <time>2021-07-08T10:00:17+0200</time>
      </trkpt>
      <trkpt lat="45.27594" lon="2.93869">
        <ele>1261.449237</ele>
        <time>2021-07-08T10:00:18+0200</time>
      </trkpt>
      <trkpt lat="45.27587" lon="2.93858">
        <ele>1260.851975</ele>
        <time>2021-07-08T10:00:19+0200</time>
      </trkpt>
      <trkpt lat="45.27581" lon="2.93848">
        <ele>1260.310603</ele>
        <time>2021-07-08T10:00:20+0200</time>
      </trkpt>
      <trkpt lat="45.27575" lon="2.93837">
        <ele>1259.815767</ele>
        <time>2021-07-08T10:00:21+0200</time>
      </trkpt>
      <trkpt lat="45.27568" lon="2.93826">
        <ele>1259.417021</ele>
        <time>2021-07-08T10:00:22+0200</time>
      </trkpt>
      <trkpt lat="45.27561" lon="2.93816">
        <ele>1259.032102</ele>
        <time>2021-07-08T10:00:23+0200</time>
      </trkpt>
      <trkpt lat="45.27554" lon="2.93806">
        <ele>1258.496536</ele>
        <time>2021-07-08T10:00:24+0200</time>
      </trkpt>
      <trkpt lat="45.27547" lon="2.93797">
        <ele>1257.922589</ele>
        <time>2021-07-08T10:00:25+0200</time>
      </trkpt>
      <trkpt lat="45.2754" lon="2.93788">
        <ele>1257.406634</ele>
        <time>2021-07-08T10:00:26+0200</time>
      </trkpt>
      <trkpt lat="45.27533" lon="2.93779">
        <ele>1256.943374</ele>
        <time>2021-07-08T10:00:27+0200</time>
      </trkpt>
      <trkpt lat="45.27526" lon="2.93769">
        <ele>1256.397742</ele>
        <time>2021-07-08T10:00:28+0200</time>
      </trkpt>
      <trkpt lat="45.27519" lon="2.9376">
        <ele>1255.932349</ele>
        <time>2021-07-08T10:00:29+0200</time>
      </trkpt>
      <trkpt lat="45.27512" lon="2.9375">
        <ele>1255.34513</ele>
        <time>2021-07-08T10:00:30+0200</time>
      </trkpt>
      <trkpt lat="45.27505" lon="2.93741">
        <ele>1254.747201</ele>
        <time>2021-07-08T10:00:31+0200</time>
      </trkpt>
      <trkpt lat="45.27499" lon="2.93731">
        <ele>1254.157123</ele>
        <time>2021-07-08T10:00:32+0200</time>
      </trkpt>
      <trkpt lat="45.27494" lon="2.93719">
        <ele>1253.555283</ele>
        <time>2021-07-08T10:00:33+0200</time>
      </trkpt>
      <trkpt lat="45.27489" lon="2.93706">
        <ele>1253.159999</ele>
        <time>2021-07-08T10:00:34+0200</time>
      </trkpt>
      <trkpt lat="45.27485" lon="2.93693">
        <ele>1252.914966</ele>
        <time>2021-07-08T10:00:35+0200</time>
      </trkpt>
      <trkpt lat="45.27481" lon="2.9368">
        <ele>1252.529162</ele>
        <time>2021-07-08T10:00:36+0200</time>
      </trkpt>
      <trkpt lat="45.27478" lon="2.93667">
        <ele>1251.927855</ele>
        <time>2021-07-08T10:00:37+0200</time>
      </trkpt>
      <trkpt lat="45.27475" lon="2.93653">
        <ele>1251.296106</ele>
        <time>2021-07-08T10:00:38+0200</time>
      </trkpt>
      <trkpt lat="45.27471" lon="2.93641">
        <ele>1250.866307</ele>
        <time>2021-07-08T10:00:39+0200</time>
      </trkpt>
      <trkpt lat="45.27468" lon="2.93628">
        <ele>1250.35849</ele>
        <time>2021-07-08T10:00:40+0200</time>
      </trkpt>
      <trkpt lat="45.27464" lon="2.93616">
        <ele>1249.757082</ele>
        <time>2021-07-08T10:00:41+0200</time>
      </trkpt>
      <trkpt lat="45.2746" lon="2.93603">
        <ele>1249.051638</ele>
        <time>2021-07-08T10:00:42+0200</time>
      </trkpt>
      <trkpt lat="45.27456" lon="2.93592">
        <ele>1248.376379</ele>
        <time>2021-07-08T10:00:43+0200</time>
      </trkpt>
      <trkpt lat="45.27451" lon="2.93581">
        <ele>1247.688086</ele>
        <time>2021-07-08T10:00:44+0200</time>
      </trkpt>
      <trkpt lat="45.27445" lon="2.93571">
        <ele>1246.950174</ele>
        <time>2021-07-08T10:00:45+0200</time>
      </trkpt>
      <trkpt lat="45.27439" lon="2.93562">
        <ele>1246.161943</ele>
        <time>2021-07-08T10:00:46+0200</time>
      </trkpt>
      <trkpt lat="45.27431" lon="2.93555">
        <ele>1245.776361</ele>
        <time>2021-07-08T10:00:47+0200</time>
      </trkpt>
      <trkpt lat="45.27424" lon="2.93547">
        <ele>1245.325257</ele>
        <time>2021-07-08T10:00:48+0200</time>
      </trkpt>
      <trkpt lat="45.27416" lon="2.93539">
        <ele>1245.031775</ele>
        <time>2021-07-08T10:00:49+0200</time>
      </trkpt>
      <trkpt lat="45.27409" lon="2.93532">
        <ele>1244.540836</ele>
        <time>2021-07-08T10:00:50+0200</time>
      </trkpt>
      <trkpt lat="45.27401" lon="2.93524">
        <ele>1244.090047</ele>
        <time>2021-07-08T10:00:51+0200</time>
      </trkpt>
      <trkpt lat="45.27394" lon="2.93517">
        <ele>1243.733763</ele>
        <time>2021-07-08T10:00:52+0200</time>
      </trkpt>
      <trkpt lat="45.27386" lon="2.93508">
        <ele>1243.358848</ele>
        <time>2021-07-08T10:00:53+0200</time>
      </trkpt>
      <trkpt lat="45.27379" lon="2.935">
        <ele>1242.825685</ele>
        <time>2021-07-08T10:00:54+0200</time>
      </trkpt>
      <trkpt lat="45.27373" lon="2.93491">
        <ele>1242.239292</ele>
        <time>2021-07-08T10:00:55+0200</time>
      </trkpt>
      <trkpt lat="45.27367" lon="2.9348">
        <ele>1241.791181</ele>
        <time>2021-07-08T10:00:56+0200</time>
      </trkpt>
      <trkpt lat="45.27363" lon="2.93467">
        <ele>1241.423621</ele>
        <time>2021-07-08T10:00:57+0200</time>
      </trkpt>
      <trkpt lat="45.27359" lon="2.93453">
        <ele>1240.77934</ele>
        <time>2021-07-08T10:00:58+0200</time>
      </trkpt>
      <trkpt lat="45.27357" lon="2.93439">
        <ele>1239.823575</ele>
        <time>2021-07-08T10:00:59+0200</time>
      </trkpt>
      <trkpt lat="45.27354" lon="2.93426">
        <ele>1239.174851</ele>
        <time>2021-07-08T10:01:00+0200</time>
      </trkpt>
      <trkpt lat="45.27352" lon="2.93412">
        <ele>1238.574314</ele>
        <time>2021-07-08T10:01:01+0200</time>
      </trkpt>
      <trkpt lat="45.27348" lon="2.93399">
        <ele>1237.968267</ele>
        <time>2021-07-08T10:01:02+0200</time>
      </trkpt>
      <trkpt lat="45.27344" lon="2.93387">
        <ele>1237.349847</ele>
        <time>2021-07-08T10:01:03+0200</time>
      </trkpt>
      <trkpt lat="45.27339" lon="2.93377">
        <ele>1236.62806</ele>
        <time>2021-07-08T10:01:04+0200</time>
      </trkpt>
      <trkpt lat="45.27334" lon="2.93367">
        <ele>1236.047146</ele>
        <time>2021-07-08T10:01:05+0200</time>
      </trkpt>
      <trkpt lat="45.27328" lon="2.93357">
        <ele>1235.496599</ele>
        <time>2021-07-08T10:01:06+0200</time>
      </trkpt>
      <trkpt lat="45.27322" lon="2.93347">
        <ele>1235.030235</ele>
        <time>2021-07-08T10:01:07+0200</time>
      </trkpt>
      <trkpt lat="45.27317" lon="2.93337">
        <ele>1234.693721</ele>
        <time>2021-07-08T10:01:08+0200</time>
      </trkpt>
      <trkpt lat="45.27311" lon="2.93326">
        <ele>1234.362572</ele>
        <time>2021-07-08T10:01:09+0200</time>
      </trkpt>
      <trkpt lat="45.27307" lon="2.93315">
        <ele>1234.002017</ele>
        <time>2021-07-08T10:01:10+0200</time>
      </trkpt>
      <trkpt lat="45.27302" lon="2.93302">
        <ele>1233.53507</ele>
        <time>2021-07-08T10:01:11+0200</time>
      </trkpt>
      <trkpt lat="45.27297" lon="2.9329">
        <ele>1233.064056</ele>
        <time>2021-07-08T10:01:12+0200</time>
      </trkpt>
      <trkpt lat="45.27293" lon="2.93278">
        <ele>1232.600061</ele>
        <time>2021-07-08T10:01:13+0200</time>
      </trkpt>
      <trkpt lat="45.27289" lon="2.93266">
        <ele>1232.123416</ele>
        <time>2021-07-08T10:01:14+0200</time>
      </trkpt>
      <trkpt lat="45.27285" lon="2.93255">
        <ele>1231.575807</ele>
        <time>2021-07-08T10:01:15+0200</time>
      </trkpt>
      <trkpt lat="45.27281" lon="2.93243">
        <ele>1231.067051</ele>
        <time>2021-07-08T10:01:16+0200</time>
      </trkpt>
      <trkpt lat="45.27277" lon="2.9323">
        <ele>1230.523953</ele>
        <time>2021-07-08T10:01:17+0200</time>
      </trkpt>
      <trkpt lat="45.27273" lon="2.93218">
        <ele>1229.886946</ele>
        <time>2021-07-08T10:01:18+0200</time>
      </trkpt>
      <trkpt lat="45.2727" lon="2.93206">
        <ele>1229.242503</ele>
        <time>2021-07-08T10:01:19+0200</time>
      </trkpt>
      <trkpt lat="45.27266" lon="2.93193">
        <ele>1228.639622</ele>
        <time>2021-07-08T10:01:20+0200</time>
      </trkpt>
      <trkpt lat="45.27263" lon="2.93181">
        <ele>1228.106181</ele>
        <time>2021-07-08T10:01:21+0200</time>
      </trkpt>
      <trkpt lat="45.27261" lon="2.93168">
        <ele>1227.677431</ele>
        <time>2021-07-08T10:01:22+0200</time>
      </trkpt>
      <trkpt lat="45.2726" lon="2.93154">
        <ele>1227.143126</ele>
        <time>2021-07-08T10:01:23+0200</time>
      </trkpt>
      <trkpt lat="45.2726" lon="2.93141">
        <ele>1226.562009</ele>
        <time>2021-07-08T10:01:24+0200</time>
      </trkpt>
      <trkpt lat="45.27261" lon="2.93128">
        <ele>1225.971311</ele>
        <time>2021-07-08T10:01:25+0200</time>
      </trkpt>
      <trkpt lat="45.27263" lon="2.93115">
        <ele>1225.77482</ele>
        <time>2021-07-08T10:01:26+0200</time>
      </trkpt>
      <trkpt lat="45.27263" lon="2.93102">
        <ele>1225.206765</ele>
        <time>2021-07-08T10:01:27+0200</time>
      </trkpt>
      <trkpt lat="45.27263" lon="2.93089">
        <ele>1224.5273</ele>
        <time>2021-07-08T10:01:28+0200</time>
      </trkpt>
      <trkpt lat="45.27262" lon="2.93077">
        <ele>1224.012446</ele>
        <time>2021-07-08T10:01:29+0200</time>
      </trkpt>
      <trkpt lat="45.27261" lon="2.93064">
        <ele>1223.557759</ele>
        <time>2021-07-08T10:01:30+0200</time>
      </trkpt>
      <trkpt lat="45.27259" lon="2.93051">
        <ele>1222.840211</ele>
        <time>2021-07-08T10:01:31+0200</time>
      </trkpt>
      <trkpt lat="45.27255" lon="2.93038">
        <ele>1222.219298</ele>
        <time>2021-07-08T10:01:32+0200</time>
      </trkpt>
      <trkpt lat="45.27252" lon="2.93025">
        <ele>1221.534655</ele>
        <time>2021-07-08T10:01:33+0200</time>
      </trkpt>
      <trkpt lat="45.27249" lon="2.93011">
        <ele>1220.624667</ele>
        <time>2021-07-08T10:01:34+0200</time>
      </trkpt>
      <trkpt lat="45.27246" lon="2.92998">
        <ele>1219.752704</ele>
        <time>2021-07-08T10:01:35+0200</time>
      </trkpt>
      <trkpt lat="45.27243" lon="2.92985">
        <ele>1218.879642</ele>
        <time>2021-07-08T10:01:36+0200</time>
      </trkpt>
      <trkpt lat="45.2724" lon="2.92971">
        <ele>1218.071482</ele>
        <time>2021-07-08T10:01:37+0200</time>
      </trkpt>
      <trkpt lat="45.27238" lon="2.92958">
        <ele>1217.088149</ele>
        <time>2021-07-08T10:01:38+0200</time>
      </trkpt>
      <trkpt lat="45.27236" lon="2.92947">
        <ele>1216.346338</ele>
        <time>2021-07-08T10:01:39+0200</time>
      </trkpt>
      <trkpt lat="45.27236" lon="2.92937">
        <ele>1215.674668</ele>
        <time>2021-07-08T10:01:40+0200</time>
      </trkpt>
      <trkpt lat="45.27237" lon="2.92927">
        <ele>1214.862806</ele>
        <time>2021-07-08T10:01:41+0200</time>
      </trkpt>
      <trkpt lat="45.27237" lon="2.92917">
        <ele>1213.872739</ele>
        <time>2021-07-08T10:01:42+0200</time>
      </trkpt>
      <trkpt lat="45.27238" lon="2.92904">
        <ele>1213.037638</ele>
        <time>2021-07-08T10:01:43+0200</time>
      </trkpt>
      <trkpt lat="45.27239" lon="2.92892">
        <ele>1212.244496</ele>
        <time>2021-07-08T10:01:44+0200</time>
      </trkpt>
      <trkpt lat="45.2724" lon="2.92879">
        <ele>1211.551137</ele>
        <time>2021-07-08T10:01:45+0200</time>
      </trkpt>
      <trkpt lat="45.27241" lon="2.92866">
        <ele>1210.846488</ele>
        <time>2021-07-08T10:01:46+0200</time>
      </trkpt>
      <trkpt lat="45.27243" lon="2.92853">
        <ele>1210.118744</ele>
        <time>2021-07-08T10:01:47+0200</time>
      </trkpt>
      <trkpt lat="45.27245" lon="2.9284">
        <ele>1209.305269</ele>
        <time>2021-07-08T10:01:48+0200</time>
      </trkpt>
      <trkpt lat="45.27246" lon="2.92827">
        <ele>1208.333189</ele>
        <time>2021-07-08T10:01:49+0200</time>
      </trkpt>
      <trkpt lat="45.27247" lon="2.92814">
        <ele>1207.239872</ele>
        <time>2021-07-08T10:01:50+0200</time>
      </trkpt>
      <trkpt lat="45.27248" lon="2.92799">
        <ele>1205.831201</ele>
        <time>2021-07-08T10:01:51+0200</time>
      </trkpt>
      <trkpt lat="45.27247" lon="2.92783">
        <ele>1204.324546</ele>
        <time>2021-07-08T10:01:52+0200</time>
      </trkpt>
      <trkpt lat="45.27245" lon="2.92769">
        <ele>1203.482498</ele>
        <time>2021-07-08T10:01:53+0200</time>
      </trkpt>
      <trkpt lat="45.27241" lon="2.92755">
        <ele>1202.349613</ele>
        <time>2021-07-08T10:01:54+0200</time>
      </trkpt>
      <trkpt lat="45.27237" lon="2.92741">
        <ele>1201.141001</ele>
        <time>2021-07-08T10:01:55+0200</time>
      </trkpt>
      <trkpt lat="45.27233" lon="2.92727">
        <ele>1200.063045</ele>
        <time>2021-07-08T10:01:56+0200</time>
      </trkpt>
      <trkpt lat="45.27228" lon="2.92714">
        <ele>1198.906108</ele>
        <time>2021-07-08T10:01:57+0200</time>
      </trkpt>
      <trkpt lat="45.27222" lon="2.927">
        <ele>1197.710697</ele>
        <time>2021-07-08T10:01:58+0200</time>
      </trkpt>
      <trkpt lat="45.27214" lon="2.92688">
        <ele>1196.599985</ele>
        <time>2021-07-08T10:01:59+0200</time>
      </trkpt>
      <trkpt lat="45.27206" lon="2.92677">
        <ele>1195.524504</ele>
        <time>2021-07-08T10:02:00+0200</time>
      </trkpt>
      <trkpt lat="45.27196" lon="2.92666">
        <ele>1194.462533</ele>
        <time>2021-07-08T10:02:01+0200</time>
      </trkpt>
      <trkpt lat="45.27186" lon="2.92655">
        <ele>1193.627436</ele>
        <time>2021-07-08T10:02:02+0200</time>
      </trkpt>
      <trkpt lat="45.27176" lon="2.92645">
        <ele>1192.534666</ele>
        <time>2021-07-08T10:02:03+0200</time>
      </trkpt>
      <trkpt lat="45.27165" lon="2.92636">
        <ele>1191.430963</ele>
        <time>2021-07-08T10:02:04+0200</time>
      </trkpt>
      <trkpt lat="45.27155" lon="2.92625">
        <ele>1190.218695</ele>
        <time>2021-07-08T10:02:05+0200</time>
      </trkpt>
      <trkpt lat="45.27145" lon="2.92614">
        <ele>1189.155069</ele>
        <time>2021-07-08T10:02:06+0200</time>
      </trkpt>
      <trkpt lat="45.27134" lon="2.92604">
        <ele>1188.239423</ele>
        <time>2021-07-08T10:02:07+0200</time>
      </trkpt>
      <trkpt lat="45.27124" lon="2.92592">
        <ele>1187.174252</ele>
        <time>2021-07-08T10:02:08+0200</time>
      </trkpt>
      <trkpt lat="45.27114" lon="2.9258">
        <ele>1186.131656</ele>
        <time>2021-07-08T10:02:09+0200</time>
      </trkpt>
      <trkpt lat="45.27105" lon="2.92567">
        <ele>1185.179932</ele>
        <time>2021-07-08T10:02:10+0200</time>
      </trkpt>
      <trkpt lat="45.27094" lon="2.92556">
        <ele>1183.89436</ele>
        <time>2021-07-08T10:02:11+0200</time>
      </trkpt>
      <trkpt lat="45.27084" lon="2.92546">
        <ele>1183.126604</ele>
        <time>2021-07-08T10:02:12+0200</time>
      </trkpt>
      <trkpt lat="45.27074" lon="2.92535">
        <ele>1182.265216</ele>
        <time>2021-07-08T10:02:13+0200</time>
      </trkpt>
      <trkpt lat="45.27064" lon="2.92524">
        <ele>1181.160229</ele>
        <time>2021-07-08T10:02:14+0200</time>
      </trkpt>
      <trkpt lat="45.27054" lon="2.92513">
        <ele>1179.930271</ele>
        <time>2021-07-08T10:02:15+0200</time>
      </trkpt>
      <trkpt lat="45.27046" lon="2.92504">
        <ele>1179.184006</ele>
        <time>2021-07-08T10:02:16+0200</time>
      </trkpt>
      <trkpt lat="45.27039" lon="2.92496">
        <ele>1178.609084</ele>
        <time>2021-07-08T10:02:17+0200</time>
      </trkpt>
      <trkpt lat="45.27032" lon="2.92489">
        <ele>1177.945313</ele>
        <time>2021-07-08T10:02:18+0200</time>
      </trkpt>
      <trkpt lat="45.27025" lon="2.92484">
        <ele>1177.579999</ele>
        <time>2021-07-08T10:02:19+0200</time>
      </trkpt>
      <trkpt lat="45.27018" lon="2.92478">
        <ele>1176.965999</ele>
        <time>2021-07-08T10:02:20+0200</time>
      </trkpt>
      <trkpt lat="45.2701" lon="2.92472">
        <ele>1176.613097</ele>
        <time>2021-07-08T10:02:21+0200</time>
      </trkpt>
      <trkpt lat="45.27003" lon="2.92466">
        <ele>1176.307507</ele>
        <time>2021-07-08T10:02:22+0200</time>
      </trkpt>
      <trkpt lat="45.26996" lon="2.92461">
        <ele>1175.612203</ele>
        <time>2021-07-08T10:02:23+0200</time>
      </trkpt>
      <trkpt lat="45.26988" lon="2.92457">
        <ele>1175.439234</ele>
        <time>2021-07-08T10:02:24+0200</time>
      </trkpt>
      <trkpt lat="45.26982" lon="2.92455">
        <ele>1175.45048</ele>
        <time>2021-07-08T10:02:25+0200</time>
      </trkpt>
      <trkpt lat="45.26977" lon="2.92453">
        <ele>1175.21083</ele>
        <time>2021-07-08T10:02:26+0200</time>
      </trkpt>
      <trkpt lat="45.26971" lon="2.92454">
        <ele>1174.810436</ele>
        <time>2021-07-08T10:02:27+0200</time>
      </trkpt>
      <trkpt lat="45.26965" lon="2.92454">
        <ele>1175.207646</ele>
        <time>2021-07-08T10:02:28+0200</time>
      </trkpt>
      <trkpt lat="45.26961" lon="2.92453">
        <ele>1175.630541</ele>
        <time>2021-07-08T10:02:29+0200</time>
      </trkpt>
      <trkpt lat="45.26956" lon="2.92452">
        <ele>1175.412753</ele>
        <time>2021-07-08T10:02:30+0200</time>
      </trkpt>
      <trkpt lat="45.26951" lon="2.92451">
        <ele>1175.338522</ele>
        <time>2021-07-08T10:02:31+0200</time>
      </trkpt>
      <trkpt lat="45.26946" lon="2.92449">
        <ele>1175.426576</ele>
        <time>2021-07-08T10:02:32+0200</time>
      </trkpt>
      <trkpt lat="45.26941" lon="2.92448">
        <ele>1175.634325</ele>
        <time>2021-07-08T10:02:33+0200</time>
      </trkpt>
      <trkpt lat="45.26932" lon="2.92446">
        <ele>1175.66095</ele>
        <time>2021-07-08T10:02:35+0200</time>
      </trkpt>
      <trkpt lat="45.26928" lon="2.92446">
        <ele>1175.592804</ele>
        <time>2021-07-08T10:02:36+0200</time>
      </trkpt>
      <trkpt lat="45.2692" lon="2.92446">
        <ele>1175.868728</ele>
        <time>2021-07-08T10:02:38+0200</time>
      </trkpt>
      <trkpt lat="45.26912" lon="2.92444">
        <ele>1175.931239</ele>
        <time>2021-07-08T10:02:40+0200</time>
      </trkpt>
      <trkpt lat="45.26905" lon="2.92443">
        <ele>1176.261219</ele>
        <time>2021-07-08T10:02:42+0200</time>
      </trkpt>
      <trkpt lat="45.26898" lon="2.92444">
        <ele>1177.358918</ele>
        <time>2021-07-08T10:02:44+0200</time>
      </trkpt>
      <trkpt lat="45.26892" lon="2.92446">
        <ele>1177.126499</ele>
        <time>2021-07-08T10:02:46+0200</time>
      </trkpt>
      <trkpt lat="45.26887" lon="2.92449">
        <ele>1177.149868</ele>
        <time>2021-07-08T10:02:48+0200</time>
      </trkpt>
      <trkpt lat="45.26881" lon="2.92452">
        <ele>1176.990007</ele>
        <time>2021-07-08T10:02:50+0200</time>
      </trkpt>
      <trkpt lat="45.26874" lon="2.92455">
        <ele>1177.409053</ele>
        <time>2021-07-08T10:02:52+0200</time>
      </trkpt>
      <trkpt lat="45.26868" lon="2.92457">
        <ele>1177.969095</ele>
        <time>2021-07-08T10:02:54+0200</time>
      </trkpt>
      <trkpt lat="45.26862" lon="2.92459">
        <ele>1178.332638</ele>
        <time>2021-07-08T10:02:56+0200</time>
      </trkpt>
      <trkpt lat="45.26856" lon="2.92461">
        <ele>1178.332286</ele>
        <time>2021-07-08T10:02:58+0200</time>
      </trkpt>
      <trkpt lat="45.2685" lon="2.92463">
        <ele>1178.76742</ele>
        <time>2021-07-08T10:03:00+0200</time>
      </trkpt>
      <trkpt lat="45.26844" lon="2.92465">
        <ele>1179.250984</ele>
        <time>2021-07-08T10:03:02+0200</time>
      </trkpt>
      <trkpt lat="45.26837" lon="2.92463">
        <ele>1178.914738</ele>
        <time>2021-07-08T10:03:04+0200</time>
      </trkpt>
      <trkpt lat="45.2683" lon="2.92466">
        <ele>1179.535065</ele>
        <time>2021-07-08T10:03:06+0200</time>
      </trkpt>
      <trkpt lat="45.26821" lon="2.92463">
        <ele>1179.672897</ele>
        <time>2021-07-08T10:03:08+0200</time>
      </trkpt>
      <trkpt lat="45.26812" lon="2.92463">
        <ele>1178.9929</ele>
        <time>2021-07-08T10:03:10+0200</time>
      </trkpt>
      <trkpt lat="45.26804" lon="2.92462">
        <ele>1178.106834</ele>
        <time>2021-07-08T10:03:12+0200</time>
      </trkpt>
      <trkpt lat="45.26796" lon="2.92463">
        <ele>1178.052759</ele>
        <time>2021-07-08T10:03:14+0200</time>
      </trkpt>
      <trkpt lat="45.26789" lon="2.92462">
        <ele>1177.965701</ele>
        <time>2021-07-08T10:03:16+0200</time>
      </trkpt>
      <trkpt lat="45.26784" lon="2.92461">
        <ele>1178.112545</ele>
        <time>2021-07-08T10:03:17+0200</time>
      </trkpt>
      <trkpt lat="45.26775" lon="2.9246">
        <ele>1177.971392</ele>
        <time>2021-07-08T10:03:19+0200</time>
      </trkpt>
      <trkpt lat="45.26771" lon="2.92458">
        <ele>1178.080093</ele>
        <time>2021-07-08T10:03:20+0200</time>
      </trkpt>
      <trkpt lat="45.26766" lon="2.92458">
        <ele>1178.062703</ele>
        <time>2021-07-08T10:03:21+0200</time>
      </trkpt>
      <trkpt lat="45.26757" lon="2.92459">
        <ele>1177.587293</ele>
        <time>2021-07-08T10:03:23+0200</time>
      </trkpt>
      <trkpt lat="45.26752" lon="2.92459">
        <ele>1177.379098</ele>
        <time>2021-07-08T10:03:24+0200</time>
      </trkpt>
      <trkpt lat="45.26747" lon="2.92459">
        <ele>1177.364054</ele>
        <time>2021-07-08T10:03:25+0200</time>
      </trkpt>
      <trkpt lat="45.26738" lon="2.92456">
        <ele>1176.550742</ele>
        <time>2021-07-08T10:03:27+0200</time>
      </trkpt>
      <trkpt lat="45.26733" lon="2.92456">
        <ele>1176.376191</ele>
        <time>2021-07-08T10:03:28+0200</time>
      </trkpt>
      <trkpt lat="45.26725" lon="2.92457">
        <ele>1177.066511</ele>
        <time>2021-07-08T10:03:30+0200</time>
      </trkpt>
      <trkpt lat="45.2672" lon="2.92456">
        <ele>1176.936176</ele>
        <time>2021-07-08T10:03:31+0200</time>
      </trkpt>
      <trkpt lat="45.26715" lon="2.92457">
        <ele>1176.857438</ele>
        <time>2021-07-08T10:03:32+0200</time>
      </trkpt>
      <trkpt lat="45.2671" lon="2.92458">
        <ele>1176.978055</ele>
        <time>2021-07-08T10:03:33+0200</time>
      </trkpt>
      <trkpt lat="45.26705" lon="2.9246">
        <ele>1176.634487</ele>
        <time>2021-07-08T10:03:34+0200</time>
      </trkpt>
      <trkpt lat="45.26697" lon="2.92462">
        <ele>1176.623688</ele>
        <time>2021-07-08T10:03:36+0200</time>
      </trkpt>
      <trkpt lat="45.26693" lon="2.92464">
        <ele>1177.103404</ele>
        <time>2021-07-08T10:03:37+0200</time>
      </trkpt>
      <trkpt lat="45.26683" lon="2.92464">
        <ele>1176.972978</ele>
        <time>2021-07-08T10:03:39+0200</time>
      </trkpt>
      <trkpt lat="45.26678" lon="2.92465">
        <ele>1177.219437</ele>
        <time>2021-07-08T10:03:40+0200</time>
      </trkpt>
      <trkpt lat="45.26669" lon="2.92463">
        <ele>1177.495177</ele>
        <time>2021-07-08T10:03:42+0200</time>
      </trkpt>
      <trkpt lat="45.26661" lon="2.92457">
        <ele>1177.524821</ele>
        <time>2021-07-08T10:03:44+0200</time>
      </trkpt>
      <trkpt lat="45.26656" lon="2.92449">
        <ele>1177.049325</ele>
        <time>2021-07-08T10:03:46+0200</time>
      </trkpt>
      <trkpt lat="45.26652" lon="2.92445">
        <ele>1176.586442</ele>
        <time>2021-07-08T10:03:48+0200</time>
      </trkpt>
      <trkpt lat="45.26648" lon="2.92442">
        <ele>1176.184977</ele>
        <time>2021-07-08T10:05:01+0200</time>
      </trkpt>
      <trkpt lat="45.26648" lon="2.92448">
        <ele>1176.873472</ele>
        <time>2021-07-08T10:05:48+0200</time>
      </trkpt>
      <trkpt lat="45.26646" lon="2.92442">
        <ele>1176.546988</ele>
        <time>2021-07-08T10:06:42+0200</time>
      </trkpt>
      <trkpt lat="45.26643" lon="2.92437">
        <ele>1176.897722</ele>
        <time>2021-07-08T10:06:44+0200</time>
      </trkpt>
      <trkpt lat="45.26639" lon="2.92431">
        <ele>1176.485301</ele>
        <time>2021-07-08T10:06:46+0200</time>
      </trkpt>
      <trkpt lat="45.26635" lon="2.92424">
        <ele>1176.630316</ele>
        <time>2021-07-08T10:06:48+0200</time>
      </trkpt>
      <trkpt lat="45.26632" lon="2.92415">
        <ele>1176.307259</ele>
        <time>2021-07-08T10:06:50+0200</time>
      </trkpt>
      <trkpt lat="45.26627" lon="2.92408">
        <ele>1175.612426</ele>
        <time>2021-07-08T10:06:52+0200</time>
      </trkpt>
      <trkpt lat="45.2662" lon="2.92399">
        <ele>1174.681463</ele>
        <time>2021-07-08T10:06:54+0200</time>
      </trkpt>
      <trkpt lat="45.26615" lon="2.92392">
        <ele>1174.102843</ele>
        <time>2021-07-08T10:06:56+0200</time>
      </trkpt>
      <trkpt lat="45.26609" lon="2.92385">
        <ele>1173.278304</ele>
        <time>2021-07-08T10:06:58+0200</time>
      </trkpt>
      <trkpt lat="45.26605" lon="2.92381">
        <ele>1172.34849</ele>
        <time>2021-07-08T10:07:01+0200</time>
      </trkpt>
      <trkpt lat="45.26601" lon="2.92378">
        <ele>1172.819899</ele>
        <time>2021-07-08T10:10:19+0200</time>
      </trkpt>
      <trkpt lat="45.26594" lon="2.92374">
        <ele>1172.957968</ele>
        <time>2021-07-08T10:10:21+0200</time>
      </trkpt>
      <trkpt lat="45.26587" lon="2.92369">
        <ele>1172.193586</ele>
        <time>2021-07-08T10:10:23+0200</time>
      </trkpt>
      <trkpt lat="45.26583" lon="2.92365">
        <ele>1171.612336</ele>
        <time>2021-07-08T10:10:24+0200</time>
      </trkpt>
      <trkpt lat="45.26578" lon="2.92361">
        <ele>1171.034719</ele>
        <time>2021-07-08T10:10:25+0200</time>
      </trkpt>
      <trkpt lat="45.26573" lon="2.92356">
        <ele>1170.54374</ele>
        <time>2021-07-08T10:10:26+0200</time>
      </trkpt>
      <trkpt lat="45.26568" lon="2.92351">
        <ele>1169.827961</ele>
        <time>2021-07-08T10:10:27+0200</time>
      </trkpt>
      <trkpt lat="45.26561" lon="2.92346">
        <ele>1169.237877</ele>
        <time>2021-07-08T10:10:28+0200</time>
      </trkpt>
      <trkpt lat="45.26555" lon="2.92341">
        <ele>1168.623136</ele>
        <time>2021-07-08T10:10:29+0200</time>
      </trkpt>
      <trkpt lat="45.26548" lon="2.92337">
        <ele>1168.224892</ele>
        <time>2021-07-08T10:10:30+0200</time>
      </trkpt>
      <trkpt lat="45.26542" lon="2.92332">
        <ele>1167.545033</ele>
        <time>2021-07-08T10:10:31+0200</time>
      </trkpt>
      <trkpt lat="45.26535" lon="2.92325">
        <ele>1166.891883</ele>
        <time>2021-07-08T10:10:32+0200</time>
      </trkpt>
      <trkpt lat="45.26527" lon="2.92319">
        <ele>1166.324012</ele>
        <time>2021-07-08T10:10:33+0200</time>
      </trkpt>
      <trkpt lat="45.2652" lon="2.92314">
        <ele>1165.595029</ele>
        <time>2021-07-08T10:10:34+0200</time>
      </trkpt>
      <trkpt lat="45.26512" lon="2.92307">
        <ele>1165.022409</ele>
        <time>2021-07-08T10:10:35+0200</time>
      </trkpt>
      <trkpt lat="45.26505" lon="2.92299">
        <ele>1164.303154</ele>
        <time>2021-07-08T10:10:36+0200</time>
      </trkpt>
      <trkpt lat="45.26499" lon="2.92292">
        <ele>1163.666133</ele>
        <time>2021-07-08T10:10:37+0200</time>
      </trkpt>
      <trkpt lat="45.26492" lon="2.92283">
        <ele>1163.254753</ele>
        <time>2021-07-08T10:10:38+0200</time>
      </trkpt>
      <trkpt lat="45.26486" lon="2.92274">
        <ele>1162.768194</ele>
        <time>2021-07-08T10:10:39+0200</time>
      </trkpt>
      <trkpt lat="45.2648" lon="2.92265">
        <ele>1162.342851</ele>
        <time>2021-07-08T10:10:40+0200</time>
      </trkpt>
      <trkpt lat="45.26474" lon="2.92255">
        <ele>1161.849073</ele>
        <time>2021-07-08T10:10:41+0200</time>
      </trkpt>
      <trkpt lat="45.26469" lon="2.92245">
        <ele>1161.318865</ele>
        <time>2021-07-08T10:10:42+0200</time>
      </trkpt>
      <trkpt lat="45.26464" lon="2.92234">
        <ele>1160.876067</ele>
        <time>2021-07-08T10:10:43+0200</time>
      </trkpt>
      <trkpt lat="45.2646" lon="2.92223">
        <ele>1160.22588</ele>
        <time>2021-07-08T10:10:44+0200</time>
      </trkpt>
      <trkpt lat="45.26457" lon="2.92212">
        <ele>1159.558609</ele>
        <time>2021-07-08T10:10:45+0200</time>
      </trkpt>
      <trkpt lat="45.26453" lon="2.922">
        <ele>1158.783033</ele>
        <time>2021-07-08T10:10:46+0200</time>
      </trkpt>
      <trkpt lat="45.26449" lon="2.92188">
        <ele>1158.357519</ele>
        <time>2021-07-08T10:10:47+0200</time>
      </trkpt>
      <trkpt lat="45.26446" lon="2.92176">
        <ele>1157.538678</ele>
        <time>2021-07-08T10:10:48+0200</time>
      </trkpt>
      <trkpt lat="45.26442" lon="2.92165">
        <ele>1156.68291</ele>
        <time>2021-07-08T10:10:49+0200</time>
      </trkpt>
      <trkpt lat="45.26438" lon="2.92154">
        <ele>1155.788176</ele>
        <time>2021-07-08T10:10:50+0200</time>
      </trkpt>
      <trkpt lat="45.26435" lon="2.92141">
        <ele>1154.832391</ele>
        <time>2021-07-08T10:10:51+0200</time>
      </trkpt>
      <trkpt lat="45.26431" lon="2.9213">
        <ele>1154.06782</ele>
        <time>2021-07-08T10:10:52+0200</time>
      </trkpt>
      <trkpt lat="45.26426" lon="2.92119">
        <ele>1153.394307</ele>
        <time>2021-07-08T10:10:53+0200</time>
      </trkpt>
      <trkpt lat="45.2642" lon="2.92109">
        <ele>1152.647343</ele>
        <time>2021-07-08T10:10:54+0200</time>
      </trkpt>
      <trkpt lat="45.26414" lon="2.92099">
        <ele>1152.208242</ele>
        <time>2021-07-08T10:10:55+0200</time>
      </trkpt>
      <trkpt lat="45.26408" lon="2.9209">
        <ele>1151.378419</ele>
        <time>2021-07-08T10:10:56+0200</time>
      </trkpt>
      <trkpt lat="45.26401" lon="2.92082">
        <ele>1150.917999</ele>
        <time>2021-07-08T10:10:57+0200</time>
      </trkpt>
      <trkpt lat="45.26395" lon="2.92073">
        <ele>1150.358675</ele>
        <time>2021-07-08T10:10:58+0200</time>
      </trkpt>
      <trkpt lat="45.26389" lon="2.92065">
        <ele>1149.964308</ele>
        <time>2021-07-08T10:10:59+0200</time>
      </trkpt>
      <trkpt lat="45.26383" lon="2.92057">
        <ele>1149.843676</ele>
        <time>2021-07-08T10:11:00+0200</time>
      </trkpt>
      <trkpt lat="45.26377" lon="2.92049">
        <ele>1149.568264</ele>
        <time>2021-07-08T10:11:01+0200</time>
      </trkpt>
      <trkpt lat="45.26372" lon="2.92041">
        <ele>1149.279669</ele>
        <time>2021-07-08T10:11:02+0200</time>
      </trkpt>
      <trkpt lat="45.26366" lon="2.92033">
        <ele>1148.800859</ele>
        <time>2021-07-08T10:11:03+0200</time>
      </trkpt>
      <trkpt lat="45.2636" lon="2.92028">
        <ele>1148.13816</ele>
        <time>2021-07-08T10:11:04+0200</time>
      </trkpt>
      <trkpt lat="45.26353" lon="2.92022">
        <ele>1147.768999</ele>
        <time>2021-07-08T10:11:05+0200</time>
      </trkpt>
      <trkpt lat="45.26345" lon="2.92015">
        <ele>1146.779546</ele>
        <time>2021-07-08T10:11:06+0200</time>
      </trkpt>
      <trkpt lat="45.26338" lon="2.92007">
        <ele>1146.071987</ele>
        <time>2021-07-08T10:11:07+0200</time>
      </trkpt>
      <trkpt lat="45.26331" lon="2.92001">
        <ele>1145.366324</ele>
        <time>2021-07-08T10:11:08+0200</time>
      </trkpt>
      <trkpt lat="45.26324" lon="2.91996">
        <ele>1144.825958</ele>
        <time>2021-07-08T10:11:09+0200</time>
      </trkpt>
      <trkpt lat="45.26317" lon="2.91994">
        <ele>1144.578077</ele>
        <time>2021-07-08T10:11:10+0200</time>
      </trkpt>
      <trkpt lat="45.2631" lon="2.91993">
        <ele>1144.431619</ele>
        <time>2021-07-08T10:11:11+0200</time>
      </trkpt>
      <trkpt lat="45.26302" lon="2.91993">
        <ele>1144.356035</ele>
        <time>2021-07-08T10:11:12+0200</time>
      </trkpt>
      <trkpt lat="45.26295" lon="2.91995">
        <ele>1144.686164</ele>
        <time>2021-07-08T10:11:13+0200</time>
      </trkpt>
      <trkpt lat="45.2629" lon="2.91999">
        <ele>1144.956323</ele>
        <time>2021-07-08T10:11:14+0200</time>
      </trkpt>
      <trkpt lat="45.26285" lon="2.92004">
        <ele>1145.13071</ele>
        <time>2021-07-08T10:11:15+0200</time>
      </trkpt>
      <trkpt lat="45.26281" lon="2.92006">
        <ele>1145.512319</ele>
        <time>2021-07-08T10:11:16+0200</time>
      </trkpt>
      <trkpt lat="45.26273" lon="2.92013">
        <ele>1145.913083</ele>
        <time>2021-07-08T10:11:18+0200</time>
      </trkpt>
      <trkpt lat="45.26269" lon="2.92022">
        <ele>1146.426704</ele>
        <time>2021-07-08T10:11:20+0200</time>
      </trkpt>
      <trkpt lat="45.26263" lon="2.92027">
        <ele>1146.374044</ele>
        <time>2021-07-08T10:11:22+0200</time>
      </trkpt>
      <trkpt lat="45.26257" lon="2.92032">
        <ele>1146.02076</ele>
        <time>2021-07-08T10:11:24+0200</time>
      </trkpt>
      <trkpt lat="45.26252" lon="2.92043">
        <ele>1145.9148</ele>
        <time>2021-07-08T10:11:26+0200</time>
      </trkpt>
      <trkpt lat="45.26247" lon="2.92052">
        <ele>1145.862064</ele>
        <time>2021-07-08T10:11:28+0200</time>
      </trkpt>
      <trkpt lat="45.26241" lon="2.92059">
        <ele>1145.79217</ele>
        <time>2021-07-08T10:11:30+0200</time>
      </trkpt>
      <trkpt lat="45.26236" lon="2.92067">
        <ele>1144.86302</ele>
        <time>2021-07-08T10:11:32+0200</time>
      </trkpt>
      <trkpt lat="45.26229" lon="2.92074">
        <ele>1144.185433</ele>
        <time>2021-07-08T10:11:34+0200</time>
      </trkpt>
      <trkpt lat="45.26224" lon="2.9208">
        <ele>1144.302786</ele>
        <time>2021-07-08T10:11:36+0200</time>
      </trkpt>
      <trkpt lat="45.26219" lon="2.92084">
        <ele>1143.57619</ele>
        <time>2021-07-08T10:11:38+0200</time>
      </trkpt>
      <trkpt lat="45.26212" lon="2.92092">
        <ele>1142.928384</ele>
        <time>2021-07-08T10:11:40+0200</time>
      </trkpt>
      <trkpt lat="45.26208" lon="2.92097">
        <ele>1142.7088</ele>
        <time>2021-07-08T10:11:41+0200</time>
      </trkpt>
      <trkpt lat="45.26205" lon="2.92102">
        <ele>1142.090961</ele>
        <time>2021-07-08T10:11:42+0200</time>
      </trkpt>
      <trkpt lat="45.26201" lon="2.92108">
        <ele>1141.583296</ele>
        <time>2021-07-08T10:11:43+0200</time>
      </trkpt>
      <trkpt lat="45.26197" lon="2.92115">
        <ele>1141.466318</ele>
        <time>2021-07-08T10:11:44+0200</time>
      </trkpt>
      <trkpt lat="45.26193" lon="2.92121">
        <ele>1141.067894</ele>
        <time>2021-07-08T10:11:45+0200</time>
      </trkpt>
      <trkpt lat="45.26189" lon="2.92128">
        <ele>1140.56263</ele>
        <time>2021-07-08T10:11:46+0200</time>
      </trkpt>
      <trkpt lat="45.26184" lon="2.92135">
        <ele>1139.916662</ele>
        <time>2021-07-08T10:11:47+0200</time>
      </trkpt>
      <trkpt lat="45.26179" lon="2.92144">
        <ele>1139.302976</ele>
        <time>2021-07-08T10:11:48+0200</time>
      </trkpt>
      <trkpt lat="45.26174" lon="2.92153">
        <ele>1138.384532</ele>
        <time>2021-07-08T10:11:49+0200</time>
      </trkpt>
      <trkpt lat="45.26169" lon="2.92162">
        <ele>1137.816257</ele>
        <time>2021-07-08T10:11:50+0200</time>
      </trkpt>
      <trkpt lat="45.26163" lon="2.92171">
        <ele>1137.155024</ele>
        <time>2021-07-08T10:11:51+0200</time>
      </trkpt>
      <trkpt lat="45.26159" lon="2.9218">
        <ele>1136.739907</ele>
        <time>2021-07-08T10:11:52+0200</time>
      </trkpt>
      <trkpt lat="45.26153" lon="2.92189">
        <ele>1136.446292</ele>
        <time>2021-07-08T10:11:53+0200</time>
      </trkpt>
      <trkpt lat="45.26148" lon="2.92197">
        <ele>1135.716605</ele>
        <time>2021-07-08T10:11:54+0200</time>
      </trkpt>
      <trkpt lat="45.26141" lon="2.92205">
        <ele>1135.259879</ele>
        <time>2021-07-08T10:11:55+0200</time>
      </trkpt>
      <trkpt lat="45.26135" lon="2.92213">
        <ele>1134.527828</ele>
        <time>2021-07-08T10:11:56+0200</time>
      </trkpt>
      <trkpt lat="45.26129" lon="2.92222">
        <ele>1134.018962</ele>
        <time>2021-07-08T10:11:57+0200</time>
      </trkpt>
      <trkpt lat="45.26123" lon="2.92232">
        <ele>1133.162767</ele>
        <time>2021-07-08T10:11:58+0200</time>
      </trkpt>
      <trkpt lat="45.26117" lon="2.92242">
        <ele>1132.649343</ele>
        <time>2021-07-08T10:11:59+0200</time>
      </trkpt>
      <trkpt lat="45.26111" lon="2.92252">
        <ele>1132.175722</ele>
        <time>2021-07-08T10:12:00+0200</time>
      </trkpt>
      <trkpt lat="45.26105" lon="2.92262">
        <ele>1131.394883</ele>
        <time>2021-07-08T10:12:01+0200</time>
      </trkpt>
      <trkpt lat="45.26098" lon="2.92269">
        <ele>1130.724329</ele>
        <time>2021-07-08T10:12:02+0200</time>
      </trkpt>
      <trkpt lat="45.2609" lon="2.92275">
        <ele>1129.978654</ele>
        <time>2021-07-08T10:12:03+0200</time>
      </trkpt>
      <trkpt lat="45.26081" lon="2.92279">
        <ele>1129.157721</ele>
        <time>2021-07-08T10:12:04+0200</time>
      </trkpt>
      <trkpt lat="45.26072" lon="2.92281">
        <ele>1128.766296</ele>
        <time>2021-07-08T10:12:05+0200</time>
      </trkpt>
      <trkpt lat="45.26064" lon="2.92285">
        <ele>1128.224907</ele>
        <time>2021-07-08T10:12:06+0200</time>
      </trkpt>
      <trkpt lat="45.26055" lon="2.92293">
        <ele>1127.187707</ele>
        <time>2021-07-08T10:12:07+0200</time>
      </trkpt>
      <trkpt lat="45.26047" lon="2.923">
        <ele>1126.367032</ele>
        <time>2021-07-08T10:12:08+0200</time>
      </trkpt>
      <trkpt lat="45.26039" lon="2.92307">
        <ele>1125.914161</ele>
        <time>2021-07-08T10:12:09+0200</time>
      </trkpt>
      <trkpt lat="45.26031" lon="2.92312">
        <ele>1125.784873</ele>
        <time>2021-07-08T10:12:10+0200</time>
      </trkpt>
      <trkpt lat="45.26022" lon="2.92315">
        <ele>1125.700873</ele>
        <time>2021-07-08T10:12:11+0200</time>
      </trkpt>
      <trkpt lat="45.26013" lon="2.92312">
        <ele>1124.846313</ele>
        <time>2021-07-08T10:12:12+0200</time>
      </trkpt>
      <trkpt lat="45.26006" lon="2.92308">
        <ele>1126.248971</ele>
        <time>2021-07-08T10:12:13+0200</time>
      </trkpt>
      <trkpt lat="45.25999" lon="2.92303">
        <ele>1125.951429</ele>
        <time>2021-07-08T10:12:14+0200</time>
      </trkpt>
      <trkpt lat="45.25992" lon="2.92301">
        <ele>1125.658403</ele>
        <time>2021-07-08T10:12:15+0200</time>
      </trkpt>
      <trkpt lat="45.25983" lon="2.92302">
        <ele>1125.294573</ele>
        <time>2021-07-08T10:12:16+0200</time>
      </trkpt>
      <trkpt lat="45.25976" lon="2.92304">
        <ele>1124.889877</ele>
        <time>2021-07-08T10:12:17+0200</time>
      </trkpt>
      <trkpt lat="45.25968" lon="2.92307">
        <ele>1124.407377</ele>
        <time>2021-07-08T10:12:18+0200</time>
      </trkpt>
      <trkpt lat="45.2596" lon="2.92309">
        <ele>1123.910797</ele>
        <time>2021-07-08T10:12:19+0200</time>
      </trkpt>
      <trkpt lat="45.25952" lon="2.92313">
        <ele>1123.395588</ele>
        <time>2021-07-08T10:12:20+0200</time>
      </trkpt>
      <trkpt lat="45.25943" lon="2.92316">
        <ele>1122.694667</ele>
        <time>2021-07-08T10:12:21+0200</time>
      </trkpt>
      <trkpt lat="45.25935" lon="2.92322">
        <ele>1121.843985</ele>
        <time>2021-07-08T10:12:22+0200</time>
      </trkpt>
      <trkpt lat="45.25926" lon="2.92326">
        <ele>1121.019822</ele>
        <time>2021-07-08T10:12:23+0200</time>
      </trkpt>
      <trkpt lat="45.25917" lon="2.92331">
        <ele>1120.017773</ele>
        <time>2021-07-08T10:12:24+0200</time>
      </trkpt>
      <trkpt lat="45.25909" lon="2.92337">
        <ele>1119.186605</ele>
        <time>2021-07-08T10:12:25+0200</time>
      </trkpt>
      <trkpt lat="45.259" lon="2.92343">
        <ele>1118.362431</ele>
        <time>2021-07-08T10:12:26+0200</time>
      </trkpt>
      <trkpt lat="45.25891" lon="2.92349">
        <ele>1117.610325</ele>
        <time>2021-07-08T10:12:27+0200</time>
      </trkpt>
      <trkpt lat="45.25883" lon="2.92356">
        <ele>1116.857982</ele>
        <time>2021-07-08T10:12:28+0200</time>
      </trkpt>
      <trkpt lat="45.25875" lon="2.92363">
        <ele>1116.242581</ele>
        <time>2021-07-08T10:12:29+0200</time>
      </trkpt>
      <trkpt lat="45.25866" lon="2.9237">
        <ele>1115.786525</ele>
        <time>2021-07-08T10:12:30+0200</time>
      </trkpt>
      <trkpt lat="45.25858" lon="2.92377">
        <ele>1115.415767</ele>
        <time>2021-07-08T10:12:31+0200</time>
      </trkpt>
      <trkpt lat="45.2585" lon="2.9238">
        <ele>1114.860438</ele>
        <time>2021-07-08T10:12:32+0200</time>
      </trkpt>
      <trkpt lat="45.25839" lon="2.92381">
        <ele>1114.001503</ele>
        <time>2021-07-08T10:12:33+0200</time>
      </trkpt>
      <trkpt lat="45.2583" lon="2.9238">
        <ele>1113.661084</ele>
        <time>2021-07-08T10:12:34+0200</time>
      </trkpt>
      <trkpt lat="45.25821" lon="2.92379">
        <ele>1113.034693</ele>
        <time>2021-07-08T10:12:35+0200</time>
      </trkpt>
      <trkpt lat="45.25813" lon="2.92379">
        <ele>1112.523785</ele>
        <time>2021-07-08T10:12:36+0200</time>
      </trkpt>
      <trkpt lat="45.25805" lon="2.92377">
        <ele>1112.091769</ele>
        <time>2021-07-08T10:12:37+0200</time>
      </trkpt>
      <trkpt lat="45.25796" lon="2.92376">
        <ele>1111.393364</ele>
        <time>2021-07-08T10:12:38+0200</time>
      </trkpt>
      <trkpt lat="45.25787" lon="2.92376">
        <ele>1110.8827</ele>
        <time>2021-07-08T10:12:39+0200</time>
      </trkpt>
      <trkpt lat="45.25779" lon="2.92377">
        <ele>1110.478735</ele>
        <time>2021-07-08T10:12:40+0200</time>
      </trkpt>
      <trkpt lat="45.2577" lon="2.92378">
        <ele>1109.819176</ele>
        <time>2021-07-08T10:12:41+0200</time>
      </trkpt>
      <trkpt lat="45.25761" lon="2.92381">
        <ele>1108.586619</ele>
        <time>2021-07-08T10:12:42+0200</time>
      </trkpt>
      <trkpt lat="45.25753" lon="2.92385">
        <ele>1107.954096</ele>
        <time>2021-07-08T10:12:43+0200</time>
      </trkpt>
      <trkpt lat="45.25744" lon="2.92389">
        <ele>1107.29243</ele>
        <time>2021-07-08T10:12:44+0200</time>
      </trkpt>
      <trkpt lat="45.25735" lon="2.92393">
        <ele>1106.728731</ele>
        <time>2021-07-08T10:12:45+0200</time>
      </trkpt>
      <trkpt lat="45.25726" lon="2.92397">
        <ele>1106.158084</ele>
        <time>2021-07-08T10:12:46+0200</time>
      </trkpt>
      <trkpt lat="45.25718" lon="2.924">
        <ele>1105.511738</ele>
        <time>2021-07-08T10:12:47+0200</time>
      </trkpt>
      <trkpt lat="45.2571" lon="2.92406">
        <ele>1104.845048</ele>
        <time>2021-07-08T10:12:48+0200</time>
      </trkpt>
      <trkpt lat="45.25703" lon="2.92414">
        <ele>1104.200181</ele>
        <time>2021-07-08T10:12:49+0200</time>
      </trkpt>
      <trkpt lat="45.25697" lon="2.92423">
        <ele>1103.723191</ele>
        <time>2021-07-08T10:12:50+0200</time>
      </trkpt>
      <trkpt lat="45.25694" lon="2.92432">
        <ele>1103.483749</ele>
        <time>2021-07-08T10:12:51+0200</time>
      </trkpt>
      <trkpt lat="45.25692" lon="2.92441">
        <ele>1103.424935</ele>
        <time>2021-07-08T10:12:52+0200</time>
      </trkpt>
      <trkpt lat="45.25689" lon="2.92449">
        <ele>1103.335152</ele>
        <time>2021-07-08T10:12:53+0200</time>
      </trkpt>
      <trkpt lat="45.25688" lon="2.92456">
        <ele>1103.495569</ele>
        <time>2021-07-08T10:12:54+0200</time>
      </trkpt>
      <trkpt lat="45.25687" lon="2.92463">
        <ele>1103.90168</ele>
        <time>2021-07-08T10:12:55+0200</time>
      </trkpt>
      <trkpt lat="45.25688" lon="2.9247">
        <ele>1104.363788</ele>
        <time>2021-07-08T10:12:56+0200</time>
      </trkpt>
      <trkpt lat="45.2569" lon="2.92476">
        <ele>1104.490174</ele>
        <time>2021-07-08T10:12:57+0200</time>
      </trkpt>
      <trkpt lat="45.25692" lon="2.92485">
        <ele>1105.494241</ele>
        <time>2021-07-08T10:12:59+0200</time>
      </trkpt>
      <trkpt lat="45.25692" lon="2.92496">
        <ele>1106.199554</ele>
        <time>2021-07-08T10:13:01+0200</time>
      </trkpt>
      <trkpt lat="45.25687" lon="2.92505">
        <ele>1106.3523</ele>
        <time>2021-07-08T10:13:03+0200</time>
      </trkpt>
      <trkpt lat="45.25677" lon="2.92505">
        <ele>1106.600588</ele>
        <time>2021-07-08T10:13:05+0200</time>
      </trkpt>
      <trkpt lat="45.2567" lon="2.92506">
        <ele>1106.505303</ele>
        <time>2021-07-08T10:13:07+0200</time>
      </trkpt>
      <trkpt lat="45.25662" lon="2.92506">
        <ele>1106.382798</ele>
        <time>2021-07-08T10:13:09+0200</time>
      </trkpt>
      <trkpt lat="45.25654" lon="2.92508">
        <ele>1106.753803</ele>
        <time>2021-07-08T10:13:11+0200</time>
      </trkpt>
      <trkpt lat="45.25646" lon="2.9251">
        <ele>1106.978833</ele>
        <time>2021-07-08T10:13:13+0200</time>
      </trkpt>
      <trkpt lat="45.25637" lon="2.92512">
        <ele>1107.032939</ele>
        <time>2021-07-08T10:13:15+0200</time>
      </trkpt>
      <trkpt lat="45.2563" lon="2.92514">
        <ele>1107.350471</ele>
        <time>2021-07-08T10:13:17+0200</time>
      </trkpt>
      <trkpt lat="45.25623" lon="2.92515">
        <ele>1107.402421</ele>
        <time>2021-07-08T10:13:19+0200</time>
      </trkpt>
      <trkpt lat="45.25615" lon="2.92516">
        <ele>1107.669586</ele>
        <time>2021-07-08T10:13:21+0200</time>
      </trkpt>
      <trkpt lat="45.25609" lon="2.92517">
        <ele>1107.891634</ele>
        <time>2021-07-08T10:13:23+0200</time>
      </trkpt>
      <trkpt lat="45.25601" lon="2.92518">
        <ele>1108.016951</ele>
        <time>2021-07-08T10:13:25+0200</time>
      </trkpt>
      <trkpt lat="45.25593" lon="2.9252">
        <ele>1108.268015</ele>
        <time>2021-07-08T10:13:27+0200</time>
      </trkpt>
      <trkpt lat="45.25585" lon="2.92523">
        <ele>1108.03736</ele>
        <time>2021-07-08T10:13:29+0200</time>
      </trkpt>
      <trkpt lat="45.25578" lon="2.92525">
        <ele>1107.847985</ele>
        <time>2021-07-08T10:13:31+0200</time>
      </trkpt>
      <trkpt lat="45.2557" lon="2.92525">
        <ele>1108.293533</ele>
        <time>2021-07-08T10:13:33+0200</time>
      </trkpt>
      <trkpt lat="45.25565" lon="2.92518">
        <ele>1107.326528</ele>
        <time>2021-07-08T10:13:35+0200</time>
      </trkpt>
      <trkpt lat="45.25562" lon="2.92507">
        <ele>1106.571491</ele>
        <time>2021-07-08T10:13:37+0200</time>
      </trkpt>
      <trkpt lat="45.25561" lon="2.925">
        <ele>1106.124857</ele>
        <time>2021-07-08T10:13:38+0200</time>
      </trkpt>
      <trkpt lat="45.25559" lon="2.92492">
        <ele>1105.5382</ele>
        <time>2021-07-08T10:13:39+0200</time>
      </trkpt>
      <trkpt lat="45.25558" lon="2.92484">
        <ele>1105.496863</ele>
        <time>2021-07-08T10:13:40+0200</time>
      </trkpt>
      <trkpt lat="45.25556" lon="2.92475">
        <ele>1104.859145</ele>
        <time>2021-07-08T10:13:41+0200</time>
      </trkpt>
      <trkpt lat="45.25555" lon="2.92466">
        <ele>1104.372352</ele>
        <time>2021-07-08T10:13:42+0200</time>
      </trkpt>
      <trkpt lat="45.25552" lon="2.92457">
        <ele>1103.472618</ele>
        <time>2021-07-08T10:13:43+0200</time>
      </trkpt>
      <trkpt lat="45.25548" lon="2.92448">
        <ele>1102.562012</ele>
        <time>2021-07-08T10:13:44+0200</time>
      </trkpt>
      <trkpt lat="45.25543" lon="2.9244">
        <ele>1101.944321</ele>
        <time>2021-07-08T10:13:45+0200</time>
      </trkpt>
      <trkpt lat="45.25539" lon="2.92432">
        <ele>1101.316942</ele>
        <time>2021-07-08T10:13:46+0200</time>
      </trkpt>
      <trkpt lat="45.25534" lon="2.92423">
        <ele>1100.70183</ele>
        <time>2021-07-08T10:13:47+0200</time>
      </trkpt>
      <trkpt lat="45.2553" lon="2.92413">
        <ele>1099.987209</ele>
        <time>2021-07-08T10:13:48+0200</time>
      </trkpt>
      <trkpt lat="45.25525" lon="2.92404">
        <ele>1099.180489</ele>
        <time>2021-07-08T10:13:49+0200</time>
      </trkpt>
      <trkpt lat="45.25519" lon="2.92395">
        <ele>1098.295197</ele>
        <time>2021-07-08T10:13:50+0200</time>
      </trkpt>
      <trkpt lat="45.25513" lon="2.92386">
        <ele>1097.311559</ele>
        <time>2021-07-08T10:13:51+0200</time>
      </trkpt>
      <trkpt lat="45.25507" lon="2.92377">
        <ele>1096.331938</ele>
        <time>2021-07-08T10:13:52+0200</time>
      </trkpt>
      <trkpt lat="45.255" lon="2.92368">
        <ele>1095.308419</ele>
        <time>2021-07-08T10:13:53+0200</time>
      </trkpt>
      <trkpt lat="45.25493" lon="2.92358">
        <ele>1094.304721</ele>
        <time>2021-07-08T10:13:54+0200</time>
      </trkpt>
      <trkpt lat="45.25487" lon="2.92349">
        <ele>1093.549653</ele>
        <time>2021-07-08T10:13:55+0200</time>
      </trkpt>
      <trkpt lat="45.2548" lon="2.92339">
        <ele>1092.699521</ele>
        <time>2021-07-08T10:13:56+0200</time>
      </trkpt>
      <trkpt lat="45.25474" lon="2.92328">
        <ele>1091.818706</ele>
        <time>2021-07-08T10:13:57+0200</time>
      </trkpt>
      <trkpt lat="45.25469" lon="2.92318">
        <ele>1091.093848</ele>
        <time>2021-07-08T10:13:58+0200</time>
      </trkpt>
      <trkpt lat="45.25463" lon="2.92307">
        <ele>1090.568077</ele>
        <time>2021-07-08T10:13:59+0200</time>
      </trkpt>
      <trkpt lat="45.25457" lon="2.92296">
        <ele>1089.597081</ele>
        <time>2021-07-08T10:14:00+0200</time>
      </trkpt>
      <trkpt lat="45.25452" lon="2.92286">
        <ele>1088.943664</ele>
        <time>2021-07-08T10:14:01+0200</time>
      </trkpt>
      <trkpt lat="45.25445" lon="2.92276">
        <ele>1088.21939</ele>
        <time>2021-07-08T10:14:02+0200</time>
      </trkpt>
      <trkpt lat="45.2544" lon="2.92266">
        <ele>1087.699833</ele>
        <time>2021-07-08T10:14:03+0200</time>
      </trkpt>
      <trkpt lat="45.25434" lon="2.92256">
        <ele>1087.1404</ele>
        <time>2021-07-08T10:14:04+0200</time>
      </trkpt>
      <trkpt lat="45.25428" lon="2.92247">
        <ele>1086.438366</ele>
        <time>2021-07-08T10:14:05+0200</time>
      </trkpt>
      <trkpt lat="45.25425" lon="2.9224">
        <ele>1086.244618</ele>
        <time>2021-07-08T10:14:06+0200</time>
      </trkpt>
      <trkpt lat="45.25421" lon="2.92233">
        <ele>1085.979846</ele>
        <time>2021-07-08T10:14:07+0200</time>
      </trkpt>
      <trkpt lat="45.25418" lon="2.92225">
        <ele>1085.590947</ele>
        <time>2021-07-08T10:14:08+0200</time>
      </trkpt>
      <trkpt lat="45.25415" lon="2.92218">
        <ele>1084.818862</ele>
        <time>2021-07-08T10:14:09+0200</time>
      </trkpt>
      <trkpt lat="45.25412" lon="2.9221">
        <ele>1084.643659</ele>
        <time>2021-07-08T10:14:10+0200</time>
      </trkpt>
      <trkpt lat="45.25408" lon="2.92201">
        <ele>1084.012452</ele>
        <time>2021-07-08T10:14:11+0200</time>
      </trkpt>
      <trkpt lat="45.25404" lon="2.92193">
        <ele>1083.750409</ele>
        <time>2021-07-08T10:14:12+0200</time>
      </trkpt>
      <trkpt lat="45.25401" lon="2.92185">
        <ele>1083.296591</ele>
        <time>2021-07-08T10:14:13+0200</time>
      </trkpt>
      <trkpt lat="45.25398" lon="2.92174">
        <ele>1082.785268</ele>
        <time>2021-07-08T10:14:14+0200</time>
      </trkpt>
      <trkpt lat="45.25394" lon="2.92166">
        <ele>1081.297702</ele>
        <time>2021-07-08T10:14:15+0200</time>
      </trkpt>
      <trkpt lat="45.25389" lon="2.92161">
        <ele>1080.135579</ele>
        <time>2021-07-08T10:14:16+0200</time>
      </trkpt>
      <trkpt lat="45.25385" lon="2.92155">
        <ele>1078.932955</ele>
        <time>2021-07-08T10:14:17+0200</time>
      </trkpt>
      <trkpt lat="45.2538" lon="2.9215">
        <ele>1077.852953</ele>
        <time>2021-07-08T10:14:18+0200</time>
      </trkpt>
      <trkpt lat="45.25374" lon="2.92146">
        <ele>1076.205006</ele>
        <time>2021-07-08T10:14:20+0200</time>
      </trkpt>
      <trkpt lat="45.25373" lon="2.92138">
        <ele>1074.847354</ele>
        <time>2021-07-08T10:14:22+0200</time>
      </trkpt>
      <trkpt lat="45.25369" lon="2.92127">
        <ele>1074.338611</ele>
        <time>2021-07-08T10:14:24+0200</time>
      </trkpt>
      <trkpt lat="45.25365" lon="2.92123">
        <ele>1073.078894</ele>
        <time>2021-07-08T10:14:25+0200</time>
      </trkpt>
      <trkpt lat="45.25359" lon="2.92113">
        <ele>1070.878742</ele>
        <time>2021-07-08T10:14:27+0200</time>
      </trkpt>
      <trkpt lat="45.25351" lon="2.92107">
        <ele>1068.871978</ele>
        <time>2021-07-08T10:14:29+0200</time>
      </trkpt>
      <trkpt lat="45.25343" lon="2.92105">
        <ele>1067.111678</ele>
        <time>2021-07-08T10:14:31+0200</time>
      </trkpt>
      <trkpt lat="45.25337" lon="2.92106">
        <ele>1065.529343</ele>
        <time>2021-07-08T10:14:33+0200</time>
      </trkpt>
      <trkpt lat="45.25332" lon="2.92107">
        <ele>1064.981632</ele>
        <time>2021-07-08T10:14:34+0200</time>
      </trkpt>
      <trkpt lat="45.25327" lon="2.92108">
        <ele>1063.882739</ele>
        <time>2021-07-08T10:14:35+0200</time>
      </trkpt>
      <trkpt lat="45.25321" lon="2.92109">
        <ele>1063.132096</ele>
        <time>2021-07-08T10:14:37+0200</time>
      </trkpt>
      <trkpt lat="45.25314" lon="2.9211">
        <ele>1061.349984</ele>
        <time>2021-07-08T10:14:39+0200</time>
      </trkpt>
      <trkpt lat="45.25309" lon="2.9211">
        <ele>1060.894795</ele>
        <time>2021-07-08T10:14:40+0200</time>
      </trkpt>
      <trkpt lat="45.25304" lon="2.92111">
        <ele>1060.251547</ele>
        <time>2021-07-08T10:14:41+0200</time>
      </trkpt>
      <trkpt lat="45.25299" lon="2.92111">
        <ele>1058.779403</ele>
        <time>2021-07-08T10:14:42+0200</time>
      </trkpt>
      <trkpt lat="45.25292" lon="2.92116">
        <ele>1057.89389</ele>
        <time>2021-07-08T10:14:44+0200</time>
      </trkpt>
      <trkpt lat="45.25287" lon="2.9212">
        <ele>1057.192593</ele>
        <time>2021-07-08T10:14:45+0200</time>
      </trkpt>
      <trkpt lat="45.25281" lon="2.92125">
        <ele>1056.033245</ele>
        <time>2021-07-08T10:14:46+0200</time>
      </trkpt>
      <trkpt lat="45.25277" lon="2.92129">
        <ele>1054.726029</ele>
        <time>2021-07-08T10:14:47+0200</time>
      </trkpt>
      <trkpt lat="45.25274" lon="2.92134">
        <ele>1053.776044</ele>
        <time>2021-07-08T10:14:48+0200</time>
      </trkpt>
      <trkpt lat="45.25269" lon="2.92141">
        <ele>1052.596139</ele>
        <time>2021-07-08T10:14:49+0200</time>
      </trkpt>
      <trkpt lat="45.25264" lon="2.92145">
        <ele>1051.861551</ele>
        <time>2021-07-08T10:14:50+0200</time>
      </trkpt>
      <trkpt lat="45.2526" lon="2.9215">
        <ele>1051.04438</ele>
        <time>2021-07-08T10:14:51+0200</time>
      </trkpt>
      <trkpt lat="45.25255" lon="2.92157">
        <ele>1049.935915</ele>
        <time>2021-07-08T10:14:52+0200</time>
      </trkpt>
      <trkpt lat="45.2525" lon="2.92162">
        <ele>1048.536898</ele>
        <time>2021-07-08T10:14:53+0200</time>
      </trkpt>
      <trkpt lat="45.25245" lon="2.92163">
        <ele>1048.176213</ele>
        <time>2021-07-08T10:14:54+0200</time>
      </trkpt>
      <trkpt lat="45.25236" lon="2.92162">
        <ele>1046.675044</ele>
        <time>2021-07-08T10:14:56+0200</time>
      </trkpt>
      <trkpt lat="45.25229" lon="2.92154">
        <ele>1045.377844</ele>
        <time>2021-07-08T10:14:58+0200</time>
      </trkpt>
      <trkpt lat="45.25227" lon="2.92148">
        <ele>1044.716845</ele>
        <time>2021-07-08T10:14:59+0200</time>
      </trkpt>
      <trkpt lat="45.25229" lon="2.9214">
        <ele>1043.85219</ele>
        <time>2021-07-08T10:15:00+0200</time>
      </trkpt>
      <trkpt lat="45.2523" lon="2.92132">
        <ele>1043.20642</ele>
        <time>2021-07-08T10:15:01+0200</time>
      </trkpt>
      <trkpt lat="45.25231" lon="2.92124">
        <ele>1042.09693</ele>
        <time>2021-07-08T10:15:02+0200</time>
      </trkpt>
      <trkpt lat="45.25234" lon="2.92115">
        <ele>1041.478051</ele>
        <time>2021-07-08T10:15:03+0200</time>
      </trkpt>
      <trkpt lat="45.25236" lon="2.92106">
        <ele>1039.834376</ele>
        <time>2021-07-08T10:15:04+0200</time>
      </trkpt>
      <trkpt lat="45.2524" lon="2.92099">
        <ele>1039.275667</ele>
        <time>2021-07-08T10:15:05+0200</time>
      </trkpt>
      <trkpt lat="45.25243" lon="2.92092">
        <ele>1038.891672</ele>
        <time>2021-07-08T10:15:06+0200</time>
      </trkpt>
      <trkpt lat="45.25246" lon="2.92084">
        <ele>1038.45884</ele>
        <time>2021-07-08T10:15:07+0200</time>
      </trkpt>
      <trkpt lat="45.25249" lon="2.92076">
        <ele>1038.379959</ele>
        <time>2021-07-08T10:15:08+0200</time>
      </trkpt>
      <trkpt lat="45.25254" lon="2.9207">
        <ele>1038.062966</ele>
        <time>2021-07-08T10:15:09+0200</time>
      </trkpt>
      <trkpt lat="45.25254" lon="2.92062">
        <ele>1037.215197</ele>
        <time>2021-07-08T10:15:10+0200</time>
      </trkpt>
      <trkpt lat="45.25255" lon="2.92053">
        <ele>1035.928325</ele>
        <time>2021-07-08T10:15:11+0200</time>
      </trkpt>
      <trkpt lat="45.25258" lon="2.92043">
        <ele>1034.893885</ele>
        <time>2021-07-08T10:15:12+0200</time>
      </trkpt>
      <trkpt lat="45.25261" lon="2.92032">
        <ele>1032.865362</ele>
        <time>2021-07-08T10:15:13+0200</time>
      </trkpt>
      <trkpt lat="45.25264" lon="2.92019">
        <ele>1030.842415</ele>
        <time>2021-07-08T10:15:14+0200</time>
      </trkpt>
      <trkpt lat="45.25267" lon="2.9201">
        <ele>1029.171235</ele>
        <time>2021-07-08T10:15:15+0200</time>
      </trkpt>
      <trkpt lat="45.25267" lon="2.92001">
        <ele>1027.608035</ele>
        <time>2021-07-08T10:15:17+0200</time>
      </trkpt>
      <trkpt lat="45.25267" lon="2.91993">
        <ele>1026.941803</ele>
        <time>2021-07-08T10:15:19+0200</time>
      </trkpt>
      <trkpt lat="45.25269" lon="2.91981">
        <ele>1025.8554</ele>
        <time>2021-07-08T10:15:21+0200</time>
      </trkpt>
      <trkpt lat="45.25269" lon="2.91974">
        <ele>1025.743873</ele>
        <time>2021-07-08T10:15:22+0200</time>
      </trkpt>
      <trkpt lat="45.25267" lon="2.91968">
        <ele>1025.311659</ele>
        <time>2021-07-08T10:15:23+0200</time>
      </trkpt>
      <trkpt lat="45.25263" lon="2.91959">
        <ele>1024.907468</ele>
        <time>2021-07-08T10:15:25+0200</time>
      </trkpt>
      <trkpt lat="45.2526" lon="2.91953">
        <ele>1024.760698</ele>
        <time>2021-07-08T10:15:26+0200</time>
      </trkpt>
      <trkpt lat="45.25257" lon="2.91948">
        <ele>1024.356652</ele>
        <time>2021-07-08T10:15:27+0200</time>
      </trkpt>
      <trkpt lat="45.25254" lon="2.91943">
        <ele>1024.149628</ele>
        <time>2021-07-08T10:15:28+0200</time>
      </trkpt>
      <trkpt lat="45.25249" lon="2.91933">
        <ele>1023.489116</ele>
        <time>2021-07-08T10:15:30+0200</time>
      </trkpt>
      <trkpt lat="45.25246" lon="2.91928">
        <ele>1023.273382</ele>
        <time>2021-07-08T10:15:31+0200</time>
      </trkpt>
      <trkpt lat="45.25243" lon="2.91922">
        <ele>1022.963461</ele>
        <time>2021-07-08T10:15:32+0200</time>
      </trkpt>
      <trkpt lat="45.2524" lon="2.91916">
        <ele>1022.559976</ele>
        <time>2021-07-08T10:15:33+0200</time>
      </trkpt>
      <trkpt lat="45.25237" lon="2.91909">
        <ele>1022.131224</ele>
        <time>2021-07-08T10:15:34+0200</time>
      </trkpt>
      <trkpt lat="45.25235" lon="2.91903">
        <ele>1021.793827</ele>
        <time>2021-07-08T10:15:35+0200</time>
      </trkpt>
      <trkpt lat="45.25229" lon="2.91895">
        <ele>1020.75969</ele>
        <time>2021-07-08T10:15:37+0200</time>
      </trkpt>
      <trkpt lat="45.25223" lon="2.91893">
        <ele>1020.368314</ele>
        <time>2021-07-08T10:15:39+0200</time>
      </trkpt>
      <trkpt lat="45.25217" lon="2.91892">
        <ele>1019.87288</ele>
        <time>2021-07-08T10:15:41+0200</time>
      </trkpt>
      <trkpt lat="45.2521" lon="2.91887">
        <ele>1020.376392</ele>
        <time>2021-07-08T10:15:43+0200</time>
      </trkpt>
      <trkpt lat="45.25205" lon="2.91883">
        <ele>1020.523944</ele>
        <time>2021-07-08T10:15:44+0200</time>
      </trkpt>
      <trkpt lat="45.25201" lon="2.9188">
        <ele>1020.536719</ele>
        <time>2021-07-08T10:15:45+0200</time>
      </trkpt>
      <trkpt lat="45.25195" lon="2.91875">
        <ele>1021.717356</ele>
        <time>2021-07-08T10:15:47+0200</time>
      </trkpt>
      <trkpt lat="45.25191" lon="2.91873">
        <ele>1022.687458</ele>
        <time>2021-07-08T10:15:49+0200</time>
      </trkpt>
      <trkpt lat="45.25186" lon="2.91873">
        <ele>1023.372816</ele>
        <time>2021-07-08T10:15:52+0200</time>
      </trkpt>
      <trkpt lat="45.25181" lon="2.91869">
        <ele>1023.812315</ele>
        <time>2021-07-08T10:15:54+0200</time>
      </trkpt>
      <trkpt lat="45.25176" lon="2.91865">
        <ele>1023.845899</ele>
        <time>2021-07-08T10:15:57+0200</time>
      </trkpt>
      <trkpt lat="45.25171" lon="2.91861">
        <ele>1023.756865</ele>
        <time>2021-07-08T10:16:00+0200</time>
      </trkpt>
      <trkpt lat="45.25165" lon="2.91858">
        <ele>1023.85385</ele>
        <time>2021-07-08T10:16:03+0200</time>
      </trkpt>
      <trkpt lat="45.25161" lon="2.91852">
        <ele>1024.278912</ele>
        <time>2021-07-08T10:16:06+0200</time>
      </trkpt>
      <trkpt lat="45.25156" lon="2.91846">
        <ele>1024.662013</ele>
        <time>2021-07-08T10:16:09+0200</time>
      </trkpt>
      <trkpt lat="45.25153" lon="2.91841">
        <ele>1025.166365</ele>
        <time>2021-07-08T10:16:12+0200</time>
      </trkpt>
      <trkpt lat="45.2515" lon="2.91833">
        <ele>1026.059629</ele>
        <time>2021-07-08T10:16:15+0200</time>
      </trkpt>
      <trkpt lat="45.25147" lon="2.91826">
        <ele>1026.460559</ele>
        <time>2021-07-08T10:16:18+0200</time>
      </trkpt>
      <trkpt lat="45.25143" lon="2.91821">
        <ele>1026.591689</ele>
        <time>2021-07-08T10:16:21+0200</time>
      </trkpt>
      <trkpt lat="45.2514" lon="2.91814">
        <ele>1027.263852</ele>
        <time>2021-07-08T10:16:24+0200</time>
      </trkpt>
      <trkpt lat="45.25137" lon="2.91807">
        <ele>1027.783749</ele>
        <time>2021-07-08T10:16:27+0200</time>
      </trkpt>
      <trkpt lat="45.25134" lon="2.918">
        <ele>1028.179611</ele>
        <time>2021-07-08T10:16:30+0200</time>
      </trkpt>
      <trkpt lat="45.2513" lon="2.91794">
        <ele>1028.501145</ele>
        <time>2021-07-08T10:16:33+0200</time>
      </trkpt>
      <trkpt lat="45.25127" lon="2.91787">
        <ele>1028.907992</ele>
        <time>2021-07-08T10:16:36+0200</time>
      </trkpt>
      <trkpt lat="45.25123" lon="2.9178">
        <ele>1029.221291</ele>
        <time>2021-07-08T10:16:39+0200</time>
      </trkpt>
      <trkpt lat="45.25119" lon="2.91774">
        <ele>1029.305092</ele>
        <time>2021-07-08T10:16:42+0200</time>
      </trkpt>
      <trkpt lat="45.25117" lon="2.91765">
        <ele>1030.013396</ele>
        <time>2021-07-08T10:16:45+0200</time>
      </trkpt>
      <trkpt lat="45.25113" lon="2.91758">
        <ele>1030.416325</ele>
        <time>2021-07-08T10:16:48+0200</time>
      </trkpt>
      <trkpt lat="45.25109" lon="2.91753">
        <ele>1030.996844</ele>
        <time>2021-07-08T10:16:51+0200</time>
      </trkpt>
      <trkpt lat="45.25107" lon="2.91747">
        <ele>1030.912192</ele>
        <time>2021-07-08T10:16:53+0200</time>
      </trkpt>
      <trkpt lat="45.25103" lon="2.91742">
        <ele>1031.470465</ele>
        <time>2021-07-08T10:16:56+0200</time>
      </trkpt>
      <trkpt lat="45.251" lon="2.91736">
        <ele>1031.64239</ele>
        <time>2021-07-08T10:16:59+0200</time>
      </trkpt>
      <trkpt lat="45.25097" lon="2.91729">
        <ele>1031.803624</ele>
        <time>2021-07-08T10:17:02+0200</time>
      </trkpt>
      <trkpt lat="45.25094" lon="2.91722">
        <ele>1032.281799</ele>
        <time>2021-07-08T10:17:05+0200</time>
      </trkpt>
      <trkpt lat="45.25091" lon="2.91717">
        <ele>1031.484088</ele>
        <time>2021-07-08T10:17:09+0200</time>
      </trkpt>
      <trkpt lat="45.2509" lon="2.91711">
        <ele>1032.429777</ele>
        <time>2021-07-08T10:17:13+0200</time>
      </trkpt>
      <trkpt lat="45.25092" lon="2.91704">
        <ele>1031.493565</ele>
        <time>2021-07-08T10:17:32+0200</time>
      </trkpt>
      <trkpt lat="45.25087" lon="2.91702">
        <ele>1031.737239</ele>
        <time>2021-07-08T10:17:35+0200</time>
      </trkpt>
      <trkpt lat="45.25083" lon="2.91704">
        <ele>1032.766912</ele>
        <time>2021-07-08T10:18:05+0200</time>
      </trkpt>
      <trkpt lat="45.25078" lon="2.91704">
        <ele>1032.790984</ele>
        <time>2021-07-08T10:18:15+0200</time>
      </trkpt>
      <trkpt lat="45.25073" lon="2.91703">
        <ele>1032.669042</ele>
        <time>2021-07-08T10:18:18+0200</time>
      </trkpt>
      <trkpt lat="45.25068" lon="2.91704">
        <ele>1032.743925</ele>
        <time>2021-07-08T10:18:20+0200</time>
      </trkpt>
      <trkpt lat="45.25063" lon="2.91704">
        <ele>1033.28425</ele>
        <time>2021-07-08T10:18:22+0200</time>
      </trkpt>
      <trkpt lat="45.25056" lon="2.91706">
        <ele>1033.136262</ele>
        <time>2021-07-08T10:18:24+0200</time>
      </trkpt>
      <trkpt lat="45.2505" lon="2.91709">
        <ele>1033.181073</ele>
        <time>2021-07-08T10:18:26+0200</time>
      </trkpt>
      <trkpt lat="45.25043" lon="2.91712">
        <ele>1032.751602</ele>
        <time>2021-07-08T10:18:28+0200</time>
      </trkpt>
      <trkpt lat="45.25036" lon="2.91716">
        <ele>1032.519202</ele>
        <time>2021-07-08T10:18:30+0200</time>
      </trkpt>
      <trkpt lat="45.25032" lon="2.9172">
        <ele>1032.032118</ele>
        <time>2021-07-08T10:18:31+0200</time>
      </trkpt>
      <trkpt lat="45.25028" lon="2.91723">
        <ele>1031.477174</ele>
        <time>2021-07-08T10:18:32+0200</time>
      </trkpt>
      <trkpt lat="45.25023" lon="2.91727">
        <ele>1031.214349</ele>
        <time>2021-07-08T10:18:33+0200</time>
      </trkpt>
      <trkpt lat="45.25018" lon="2.9173">
        <ele>1030.991609</ele>
        <time>2021-07-08T10:18:34+0200</time>
      </trkpt>
      <trkpt lat="45.25013" lon="2.91734">
        <ele>1030.588083</ele>
        <time>2021-07-08T10:18:35+0200</time>
      </trkpt>
      <trkpt lat="45.25008" lon="2.91737">
        <ele>1030.393993</ele>
        <time>2021-07-08T10:18:36+0200</time>
      </trkpt>
      <trkpt lat="45.25002" lon="2.91742">
        <ele>1030.375399</ele>
        <time>2021-07-08T10:18:37+0200</time>
      </trkpt>
      <trkpt lat="45.24997" lon="2.91746">
        <ele>1029.99505</ele>
        <time>2021-07-08T10:18:38+0200</time>
      </trkpt>
      <trkpt lat="45.24992" lon="2.91751">
        <ele>1030.196423</ele>
        <time>2021-07-08T10:18:39+0200</time>
      </trkpt>
      <trkpt lat="45.24986" lon="2.91755">
        <ele>1029.98063</ele>
        <time>2021-07-08T10:18:40+0200</time>
      </trkpt>
      <trkpt lat="45.24982" lon="2.91758">
        <ele>1029.885604</ele>
        <time>2021-07-08T10:18:41+0200</time>
      </trkpt>
      <trkpt lat="45.24978" lon="2.91754">
        <ele>1029.31232</ele>
        <time>2021-07-08T10:18:42+0200</time>
      </trkpt>
      <trkpt lat="45.24978" lon="2.91739">
        <ele>1028.282798</ele>
        <time>2021-07-08T10:18:44+0200</time>
      </trkpt>
      <trkpt lat="45.24979" lon="2.9173">
        <ele>1028.155396</ele>
        <time>2021-07-08T10:18:45+0200</time>
      </trkpt>
      <trkpt lat="45.24978" lon="2.9172">
        <ele>1027.749028</ele>
        <time>2021-07-08T10:18:46+0200</time>
      </trkpt>
      <trkpt lat="45.24978" lon="2.91712">
        <ele>1027.660485</ele>
        <time>2021-07-08T10:18:47+0200</time>
      </trkpt>
      <trkpt lat="45.24977" lon="2.91705">
        <ele>1027.561514</ele>
        <time>2021-07-08T10:18:48+0200</time>
      </trkpt>
      <trkpt lat="45.24973" lon="2.917">
        <ele>1027.641399</ele>
        <time>2021-07-08T10:18:49+0200</time>
      </trkpt>
      <trkpt lat="45.24968" lon="2.91696">
        <ele>1027.816793</ele>
        <time>2021-07-08T10:18:50+0200</time>
      </trkpt>
      <trkpt lat="45.24964" lon="2.91694">
        <ele>1027.975429</ele>
        <time>2021-07-08T10:18:51+0200</time>
      </trkpt>
      <trkpt lat="45.24957" lon="2.91692">
        <ele>1028.214967</ele>
        <time>2021-07-08T10:18:53+0200</time>
      </trkpt>
      <trkpt lat="45.2495" lon="2.91691">
        <ele>1028.805649</ele>
        <time>2021-07-08T10:18:55+0200</time>
      </trkpt>
      <trkpt lat="45.24942" lon="2.91689">
        <ele>1028.935523</ele>
        <time>2021-07-08T10:18:57+0200</time>
      </trkpt>
      <trkpt lat="45.24936" lon="2.91688">
        <ele>1029.229798</ele>
        <time>2021-07-08T10:18:59+0200</time>
      </trkpt>
      <trkpt lat="45.24927" lon="2.91686">
        <ele>1029.339918</ele>
        <time>2021-07-08T10:19:01+0200</time>
      </trkpt>
      <trkpt lat="45.24922" lon="2.91687">
        <ele>1030.83461</ele>
        <time>2021-07-08T10:19:03+0200</time>
      </trkpt>
      <trkpt lat="45.24914" lon="2.91685">
        <ele>1030.808003</ele>
        <time>2021-07-08T10:19:05+0200</time>
      </trkpt>
      <trkpt lat="45.24907" lon="2.91683">
        <ele>1030.553076</ele>
        <time>2021-07-08T10:19:07+0200</time>
      </trkpt>
      <trkpt lat="45.24902" lon="2.91681">
        <ele>1030.233004</ele>
        <time>2021-07-08T10:19:08+0200</time>
      </trkpt>
      <trkpt lat="45.24894" lon="2.91679">
        <ele>1029.21963</ele>
        <time>2021-07-08T10:19:10+0200</time>
      </trkpt>
      <trkpt lat="45.24888" lon="2.91672">
        <ele>1028.669469</ele>
        <time>2021-07-08T10:19:12+0200</time>
      </trkpt>
      <trkpt lat="45.24884" lon="2.91667">
        <ele>1028.760085</ele>
        <time>2021-07-08T10:19:13+0200</time>
      </trkpt>
      <trkpt lat="45.24879" lon="2.91661">
        <ele>1029.232657</ele>
        <time>2021-07-08T10:19:15+0200</time>
      </trkpt>
      <trkpt lat="45.24875" lon="2.91655">
        <ele>1030.260748</ele>
        <time>2021-07-08T10:19:17+0200</time>
      </trkpt>
      <trkpt lat="45.24873" lon="2.91649">
        <ele>1031.558862</ele>
        <time>2021-07-08T10:19:19+0200</time>
      </trkpt>
      <trkpt lat="45.24869" lon="2.91643">
        <ele>1033.102362</ele>
        <time>2021-07-08T10:19:22+0200</time>
      </trkpt>
      <trkpt lat="45.24865" lon="2.9164">
        <ele>1033.687869</ele>
        <time>2021-07-08T10:20:14+0200</time>
      </trkpt>
      <trkpt lat="45.24869" lon="2.91637">
        <ele>1034.907589</ele>
        <time>2021-07-08T10:20:40+0200</time>
      </trkpt>
      <trkpt lat="45.24865" lon="2.91634">
        <ele>1036.024909</ele>
        <time>2021-07-08T10:20:47+0200</time>
      </trkpt>
      <trkpt lat="45.24862" lon="2.91627">
        <ele>1035.718222</ele>
        <time>2021-07-08T10:21:18+0200</time>
      </trkpt>
      <trkpt lat="45.24859" lon="2.91622">
        <ele>1036.910121</ele>
        <time>2021-07-08T10:21:20+0200</time>
      </trkpt>
      <trkpt lat="45.24856" lon="2.91616">
        <ele>1037.170259</ele>
        <time>2021-07-08T10:21:22+0200</time>
      </trkpt>
      <trkpt lat="45.24854" lon="2.91609">
        <ele>1037.690175</ele>
        <time>2021-07-08T10:21:24+0200</time>
      </trkpt>
      <trkpt lat="45.24852" lon="2.91603">
        <ele>1038.493716</ele>
        <time>2021-07-08T10:21:26+0200</time>
      </trkpt>
      <trkpt lat="45.24851" lon="2.91597">
        <ele>1038.451071</ele>
        <time>2021-07-08T10:21:28+0200</time>
      </trkpt>
      <trkpt lat="45.24848" lon="2.91588">
        <ele>1040.466217</ele>
        <time>2021-07-08T10:21:31+0200</time>
      </trkpt>
      <trkpt lat="45.24845" lon="2.91582">
        <ele>1040.783056</ele>
        <time>2021-07-08T10:21:33+0200</time>
      </trkpt>
      <trkpt lat="45.24841" lon="2.91575">
        <ele>1041.828812</ele>
        <time>2021-07-08T10:21:35+0200</time>
      </trkpt>
      <trkpt lat="45.24838" lon="2.91569">
        <ele>1041.720771</ele>
        <time>2021-07-08T10:21:37+0200</time>
      </trkpt>
      <trkpt lat="45.24833" lon="2.91563">
        <ele>1042.369056</ele>
        <time>2021-07-08T10:21:41+0200</time>
      </trkpt>
      <trkpt lat="45.24829" lon="2.9156">
        <ele>1040.571311</ele>
        <time>2021-07-08T10:22:07+0200</time>
      </trkpt>
      <trkpt lat="45.24824" lon="2.91562">
        <ele>1039.606975</ele>
        <time>2021-07-08T10:23:34+0200</time>
      </trkpt>
      <trkpt lat="45.24829" lon="2.91563">
        <ele>1041.340101</ele>
        <time>2021-07-08T10:24:29+0200</time>
      </trkpt>
      <trkpt lat="45.24834" lon="2.91562">
        <ele>1039.218803</ele>
        <time>2021-07-08T10:30:04+0200</time>
      </trkpt>
      <trkpt lat="45.24839" lon="2.91563">
        <ele>1044.052926</ele>
        <time>2021-07-08T10:32:04+0200</time>
      </trkpt>
      <trkpt lat="45.24834" lon="2.9156">
        <ele>1043.106529</ele>
        <time>2021-07-08T10:32:28+0200</time>
      </trkpt>
      <trkpt lat="45.24839" lon="2.91561">
        <ele>1042.972705</ele>
        <time>2021-07-08T10:33:13+0200</time>
      </trkpt>
      <trkpt lat="45.24834" lon="2.91561">
        <ele>1040.90106</ele>
        <time>2021-07-08T10:34:01+0200</time>
      </trkpt>
      <trkpt lat="45.2483" lon="2.91563">
        <ele>1040.427925</ele>
        <time>2021-07-08T10:35:21+0200</time>
      </trkpt>
      <trkpt lat="45.24835" lon="2.91562">
        <ele>1041.753281</ele>
        <time>2021-07-08T10:35:51+0200</time>
      </trkpt>
      <trkpt lat="45.24831" lon="2.91564">
        <ele>1040.27194</ele>
        <time>2021-07-08T10:37:58+0200</time>
      </trkpt>
      <trkpt lat="45.24835" lon="2.91562">
        <ele>1041.247793</ele>
        <time>2021-07-08T10:39:18+0200</time>
      </trkpt>
      <trkpt lat="45.24831" lon="2.91561">
        <ele>1041.080404</ele>
        <time>2021-07-08T10:39:39+0200</time>
      </trkpt>
      <trkpt lat="45.24835" lon="2.91561">
        <ele>1040.04176</ele>
        <time>2021-07-08T10:40:05+0200</time>
      </trkpt>
      <trkpt lat="45.24834" lon="2.91567">
        <ele>1040.296393</ele>
        <time>2021-07-08T10:40:44+0200</time>
      </trkpt>
      <trkpt lat="45.24835" lon="2.91561">
        <ele>1040.747851</ele>
        <time>2021-07-08T10:41:23+0200</time>
      </trkpt>
      <trkpt lat="45.24829" lon="2.9156">
        <ele>1042.096546</ele>
        <time>2021-07-08T10:43:29+0200</time>
      </trkpt>
      <trkpt lat="45.24825" lon="2.91555">
        <ele>1041.969684</ele>
        <time>2021-07-08T10:43:33+0200</time>
      </trkpt>
      <trkpt lat="45.24822" lon="2.91549">
        <ele>1041.514308</ele>
        <time>2021-07-08T10:43:35+0200</time>
      </trkpt>
      <trkpt lat="45.24818" lon="2.91539">
        <ele>1041.12265</ele>
        <time>2021-07-08T10:43:37+0200</time>
      </trkpt>
      <trkpt lat="45.24815" lon="2.91532">
        <ele>1040.97201</ele>
        <time>2021-07-08T10:43:38+0200</time>
      </trkpt>
      <trkpt lat="45.24813" lon="2.91526">
        <ele>1040.634951</ele>
        <time>2021-07-08T10:43:39+0200</time>
      </trkpt>
      <trkpt lat="45.2481" lon="2.91521">
        <ele>1040.474074</ele>
        <time>2021-07-08T10:43:40+0200</time>
      </trkpt>
      <trkpt lat="45.24806" lon="2.91512">
        <ele>1041.243791</ele>
        <time>2021-07-08T10:43:42+0200</time>
      </trkpt>
      <trkpt lat="45.24804" lon="2.91504">
        <ele>1041.661809</ele>
        <time>2021-07-08T10:43:44+0200</time>
      </trkpt>
      <trkpt lat="45.248" lon="2.91495">
        <ele>1042.944895</ele>
        <time>2021-07-08T10:43:46+0200</time>
      </trkpt>
      <trkpt lat="45.24797" lon="2.91485">
        <ele>1043.688415</ele>
        <time>2021-07-08T10:43:48+0200</time>
      </trkpt>
      <trkpt lat="45.24793" lon="2.91478">
        <ele>1044.554179</ele>
        <time>2021-07-08T10:43:50+0200</time>
      </trkpt>
      <trkpt lat="45.2479" lon="2.91472">
        <ele>1044.545603</ele>
        <time>2021-07-08T10:43:52+0200</time>
      </trkpt>
      <trkpt lat="45.24785" lon="2.91465">
        <ele>1044.787483</ele>
        <time>2021-07-08T10:43:54+0200</time>
      </trkpt>
      <trkpt lat="45.24781" lon="2.91458">
        <ele>1044.510766</ele>
        <time>2021-07-08T10:43:56+0200</time>
      </trkpt>
      <trkpt lat="45.24778" lon="2.91452">
        <ele>1044.88208</ele>
        <time>2021-07-08T10:43:58+0200</time>
      </trkpt>
      <trkpt lat="45.24774" lon="2.91444">
        <ele>1045.854929</ele>
        <time>2021-07-08T10:44:01+0200</time>
      </trkpt>
      <trkpt lat="45.24771" lon="2.91438">
        <ele>1046.415695</ele>
        <time>2021-07-08T10:44:03+0200</time>
      </trkpt>
      <trkpt lat="45.24769" lon="2.91433">
        <ele>1047.163118</ele>
        <time>2021-07-08T10:44:05+0200</time>
      </trkpt>
      <trkpt lat="45.24765" lon="2.91427">
        <ele>1047.027368</ele>
        <time>2021-07-08T10:44:07+0200</time>
      </trkpt>
      <trkpt lat="45.2476" lon="2.9142">
        <ele>1045.892535</ele>
        <time>2021-07-08T10:44:10+0200</time>
      </trkpt>
      <trkpt lat="45.24758" lon="2.91413">
        <ele>1046.691137</ele>
        <time>2021-07-08T10:44:12+0200</time>
      </trkpt>
      <trkpt lat="45.24755" lon="2.91405">
        <ele>1048.249053</ele>
        <time>2021-07-08T10:44:16+0200</time>
      </trkpt>
      <trkpt lat="45.24752" lon="2.91397">
        <ele>1049.07027</ele>
        <time>2021-07-08T10:44:19+0200</time>
      </trkpt>
      <trkpt lat="45.24748" lon="2.91389">
        <ele>1050.610204</ele>
        <time>2021-07-08T10:44:22+0200</time>
      </trkpt>
      <trkpt lat="45.24746" lon="2.91383">
        <ele>1051.630942</ele>
        <time>2021-07-08T10:44:25+0200</time>
      </trkpt>
      <trkpt lat="45.24744" lon="2.91375">
        <ele>1051.78981</ele>
        <time>2021-07-08T10:44:28+0200</time>
      </trkpt>
      <trkpt lat="45.24741" lon="2.91368">
        <ele>1053.26709</ele>
        <time>2021-07-08T10:44:31+0200</time>
      </trkpt>
      <trkpt lat="45.2474" lon="2.91361">
        <ele>1053.757339</ele>
        <time>2021-07-08T10:44:34+0200</time>
      </trkpt>
      <trkpt lat="45.24737" lon="2.91352">
        <ele>1053.758791</ele>
        <time>2021-07-08T10:44:37+0200</time>
      </trkpt>
      <trkpt lat="45.24736" lon="2.91344">
        <ele>1054.480812</ele>
        <time>2021-07-08T10:44:39+0200</time>
      </trkpt>
      <trkpt lat="45.24734" lon="2.91336">
        <ele>1054.893519</ele>
        <time>2021-07-08T10:44:44+0200</time>
      </trkpt>
      <trkpt lat="45.24733" lon="2.91329">
        <ele>1055.305769</ele>
        <time>2021-07-08T10:44:47+0200</time>
      </trkpt>
      <trkpt lat="45.24733" lon="2.91321">
        <ele>1055.620302</ele>
        <time>2021-07-08T10:44:52+0200</time>
      </trkpt>
      <trkpt lat="45.24733" lon="2.91314">
        <ele>1056.232616</ele>
        <time>2021-07-08T10:44:55+0200</time>
      </trkpt>
      <trkpt lat="45.24733" lon="2.91305">
        <ele>1057.23654</ele>
        <time>2021-07-08T10:44:59+0200</time>
      </trkpt>
      <trkpt lat="45.24732" lon="2.91299">
        <ele>1057.795942</ele>
        <time>2021-07-08T10:45:02+0200</time>
      </trkpt>
      <trkpt lat="45.24733" lon="2.91291">
        <ele>1058.885183</ele>
        <time>2021-07-08T10:45:05+0200</time>
      </trkpt>
      <trkpt lat="45.24733" lon="2.91283">
        <ele>1059.83861</ele>
        <time>2021-07-08T10:45:08+0200</time>
      </trkpt>
      <trkpt lat="45.24736" lon="2.91277">
        <ele>1061.23667</ele>
        <time>2021-07-08T10:45:11+0200</time>
      </trkpt>
      <trkpt lat="45.24738" lon="2.91271">
        <ele>1061.323803</ele>
        <time>2021-07-08T10:45:15+0200</time>
      </trkpt>
      <trkpt lat="45.2474" lon="2.91263">
        <ele>1062.469482</ele>
        <time>2021-07-08T10:45:19+0200</time>
      </trkpt>
      <trkpt lat="45.24741" lon="2.91255">
        <ele>1063.675844</ele>
        <time>2021-07-08T10:45:23+0200</time>
      </trkpt>
      <trkpt lat="45.24744" lon="2.91248">
        <ele>1064.289342</ele>
        <time>2021-07-08T10:45:26+0200</time>
      </trkpt>
      <trkpt lat="45.24747" lon="2.91243">
        <ele>1064.575653</ele>
        <time>2021-07-08T10:45:29+0200</time>
      </trkpt>
      <trkpt lat="45.24748" lon="2.91237">
        <ele>1064.852514</ele>
        <time>2021-07-08T10:45:32+0200</time>
      </trkpt>
      <trkpt lat="45.2475" lon="2.9123">
        <ele>1064.940774</ele>
        <time>2021-07-08T10:45:35+0200</time>
      </trkpt>
      <trkpt lat="45.24753" lon="2.91222">
        <ele>1065.571012</ele>
        <time>2021-07-08T10:45:38+0200</time>
      </trkpt>
      <trkpt lat="45.24756" lon="2.91218">
        <ele>1065.913762</ele>
        <time>2021-07-08T10:45:41+0200</time>
      </trkpt>
      <trkpt lat="45.24759" lon="2.91211">
        <ele>1066.602808</ele>
        <time>2021-07-08T10:45:44+0200</time>
      </trkpt>
      <trkpt lat="45.24761" lon="2.91203">
        <ele>1067.218083</ele>
        <time>2021-07-08T10:45:47+0200</time>
      </trkpt>
      <trkpt lat="45.24764" lon="2.91196">
        <ele>1067.718376</ele>
        <time>2021-07-08T10:45:50+0200</time>
      </trkpt>
      <trkpt lat="45.24766" lon="2.91188">
        <ele>1067.978222</ele>
        <time>2021-07-08T10:45:53+0200</time>
      </trkpt>
      <trkpt lat="45.24767" lon="2.9118">
        <ele>1068.213333</ele>
        <time>2021-07-08T10:45:56+0200</time>
      </trkpt>
      <trkpt lat="45.24769" lon="2.91174">
        <ele>1068.552444</ele>
        <time>2021-07-08T10:45:58+0200</time>
      </trkpt>
      <trkpt lat="45.24771" lon="2.91168">
        <ele>1068.605549</ele>
        <time>2021-07-08T10:46:00+0200</time>
      </trkpt>
      <trkpt lat="45.24773" lon="2.9116">
        <ele>1068.935547</ele>
        <time>2021-07-08T10:46:03+0200</time>
      </trkpt>
      <trkpt lat="45.24775" lon="2.91154">
        <ele>1068.979785</ele>
        <time>2021-07-08T10:46:05+0200</time>
      </trkpt>
      <trkpt lat="45.24777" lon="2.91146">
        <ele>1069.19448</ele>
        <time>2021-07-08T10:46:07+0200</time>
      </trkpt>
      <trkpt lat="45.24778" lon="2.91138">
        <ele>1069.408489</ele>
        <time>2021-07-08T10:46:09+0200</time>
      </trkpt>
      <trkpt lat="45.2478" lon="2.91131">
        <ele>1069.489089</ele>
        <time>2021-07-08T10:46:11+0200</time>
      </trkpt>
      <trkpt lat="45.24782" lon="2.91125">
        <ele>1069.88948</ele>
        <time>2021-07-08T10:46:13+0200</time>
      </trkpt>
      <trkpt lat="45.24784" lon="2.91119">
        <ele>1070.178154</ele>
        <time>2021-07-08T10:46:15+0200</time>
      </trkpt>
      <trkpt lat="45.24786" lon="2.91112">
        <ele>1070.624311</ele>
        <time>2021-07-08T10:46:17+0200</time>
      </trkpt>
      <trkpt lat="45.24788" lon="2.91105">
        <ele>1070.725361</ele>
        <time>2021-07-08T10:46:19+0200</time>
      </trkpt>
      <trkpt lat="45.2479" lon="2.91097">
        <ele>1070.852288</ele>
        <time>2021-07-08T10:46:21+0200</time>
      </trkpt>
      <trkpt lat="45.24793" lon="2.9109">
        <ele>1071.445127</ele>
        <time>2021-07-08T10:46:23+0200</time>
      </trkpt>
      <trkpt lat="45.24795" lon="2.91083">
        <ele>1071.683009</ele>
        <time>2021-07-08T10:46:25+0200</time>
      </trkpt>
      <trkpt lat="45.24797" lon="2.91076">
        <ele>1071.905631</ele>
        <time>2021-07-08T10:46:27+0200</time>
      </trkpt>
      <trkpt lat="45.248" lon="2.91069">
        <ele>1072.23589</ele>
        <time>2021-07-08T10:46:29+0200</time>
      </trkpt>
      <trkpt lat="45.24802" lon="2.91062">
        <ele>1072.536109</ele>
        <time>2021-07-08T10:46:31+0200</time>
      </trkpt>
      <trkpt lat="45.24804" lon="2.91056">
        <ele>1072.736079</ele>
        <time>2021-07-08T10:46:33+0200</time>
      </trkpt>
      <trkpt lat="45.24806" lon="2.91049">
        <ele>1073.051411</ele>
        <time>2021-07-08T10:46:35+0200</time>
      </trkpt>
      <trkpt lat="45.24806" lon="2.9104">
        <ele>1073.688103</ele>
        <time>2021-07-08T10:46:38+0200</time>
      </trkpt>
      <trkpt lat="45.24808" lon="2.91034">
        <ele>1073.7688</ele>
        <time>2021-07-08T10:46:40+0200</time>
      </trkpt>
      <trkpt lat="45.24811" lon="2.91028">
        <ele>1073.838403</ele>
        <time>2021-07-08T10:46:42+0200</time>
      </trkpt>
      <trkpt lat="45.24813" lon="2.91021">
        <ele>1074.093565</ele>
        <time>2021-07-08T10:46:44+0200</time>
      </trkpt>
      <trkpt lat="45.24815" lon="2.91014">
        <ele>1074.441268</ele>
        <time>2021-07-08T10:46:46+0200</time>
      </trkpt>
      <trkpt lat="45.24817" lon="2.91008">
        <ele>1074.693499</ele>
        <time>2021-07-08T10:46:48+0200</time>
      </trkpt>
      <trkpt lat="45.24819" lon="2.91001">
        <ele>1074.579105</ele>
        <time>2021-07-08T10:46:50+0200</time>
      </trkpt>
      <trkpt lat="45.24822" lon="2.90993">
        <ele>1074.687235</ele>
        <time>2021-07-08T10:46:53+0200</time>
      </trkpt>
      <trkpt lat="45.24824" lon="2.90985">
        <ele>1075.573532</ele>
        <time>2021-07-08T10:46:57+0200</time>
      </trkpt>
      <trkpt lat="45.24826" lon="2.90978">
        <ele>1075.275948</ele>
        <time>2021-07-08T10:47:00+0200</time>
      </trkpt>
      <trkpt lat="45.24828" lon="2.90972">
        <ele>1075.803897</ele>
        <time>2021-07-08T10:47:03+0200</time>
      </trkpt>
      <trkpt lat="45.24831" lon="2.90966">
        <ele>1075.980512</ele>
        <time>2021-07-08T10:47:06+0200</time>
      </trkpt>
      <trkpt lat="45.24835" lon="2.9096">
        <ele>1076.670303</ele>
        <time>2021-07-08T10:47:09+0200</time>
      </trkpt>
      <trkpt lat="45.24839" lon="2.90952">
        <ele>1077.780728</ele>
        <time>2021-07-08T10:47:12+0200</time>
      </trkpt>
      <trkpt lat="45.24842" lon="2.90946">
        <ele>1078.74876</ele>
        <time>2021-07-08T10:47:15+0200</time>
      </trkpt>
      <trkpt lat="45.24845" lon="2.90941">
        <ele>1079.237609</ele>
        <time>2021-07-08T10:47:18+0200</time>
      </trkpt>
      <trkpt lat="45.24849" lon="2.90935">
        <ele>1079.747381</ele>
        <time>2021-07-08T10:47:21+0200</time>
      </trkpt>
      <trkpt lat="45.24852" lon="2.9093">
        <ele>1080.161568</ele>
        <time>2021-07-08T10:47:24+0200</time>
      </trkpt>
      <trkpt lat="45.24856" lon="2.90922">
        <ele>1080.312386</ele>
        <time>2021-07-08T10:47:28+0200</time>
      </trkpt>
      <trkpt lat="45.24858" lon="2.90916">
        <ele>1080.418715</ele>
        <time>2021-07-08T10:47:30+0200</time>
      </trkpt>
      <trkpt lat="45.24862" lon="2.90909">
        <ele>1080.416385</ele>
        <time>2021-07-08T10:47:33+0200</time>
      </trkpt>
      <trkpt lat="45.24867" lon="2.90901">
        <ele>1080.518179</ele>
        <time>2021-07-08T10:47:36+0200</time>
      </trkpt>
      <trkpt lat="45.24869" lon="2.90895">
        <ele>1080.61819</ele>
        <time>2021-07-08T10:47:38+0200</time>
      </trkpt>
      <trkpt lat="45.24871" lon="2.90889">
        <ele>1080.607595</ele>
        <time>2021-07-08T10:47:40+0200</time>
      </trkpt>
      <trkpt lat="45.24874" lon="2.90883">
        <ele>1080.87953</ele>
        <time>2021-07-08T10:47:42+0200</time>
      </trkpt>
      <trkpt lat="45.24877" lon="2.90877">
        <ele>1081.389243</ele>
        <time>2021-07-08T10:47:44+0200</time>
      </trkpt>
      <trkpt lat="45.24879" lon="2.9087">
        <ele>1081.822447</ele>
        <time>2021-07-08T10:47:46+0200</time>
      </trkpt>
      <trkpt lat="45.24881" lon="2.90864">
        <ele>1081.726033</ele>
        <time>2021-07-08T10:47:48+0200</time>
      </trkpt>
      <trkpt lat="45.24884" lon="2.90857">
        <ele>1081.693302</ele>
        <time>2021-07-08T10:47:50+0200</time>
      </trkpt>
      <trkpt lat="45.24887" lon="2.90851">
        <ele>1081.692893</ele>
        <time>2021-07-08T10:47:52+0200</time>
      </trkpt>
      <trkpt lat="45.24889" lon="2.90845">
        <ele>1081.454713</ele>
        <time>2021-07-08T10:47:55+0200</time>
      </trkpt>
      <trkpt lat="45.24892" lon="2.90837">
        <ele>1081.569584</ele>
        <time>2021-07-08T10:49:47+0200</time>
      </trkpt>
      <trkpt lat="45.24895" lon="2.90831">
        <ele>1081.340533</ele>
        <time>2021-07-08T10:49:49+0200</time>
      </trkpt>
      <trkpt lat="45.24899" lon="2.90824">
        <ele>1081.061886</ele>
        <time>2021-07-08T10:49:51+0200</time>
      </trkpt>
      <trkpt lat="45.24904" lon="2.90815">
        <ele>1080.991207</ele>
        <time>2021-07-08T10:49:53+0200</time>
      </trkpt>
      <trkpt lat="45.24909" lon="2.90806">
        <ele>1080.978496</ele>
        <time>2021-07-08T10:49:55+0200</time>
      </trkpt>
      <trkpt lat="45.24912" lon="2.90801">
        <ele>1080.743618</ele>
        <time>2021-07-08T10:49:56+0200</time>
      </trkpt>
      <trkpt lat="45.24915" lon="2.90796">
        <ele>1080.542612</ele>
        <time>2021-07-08T10:49:57+0200</time>
      </trkpt>
      <trkpt lat="45.24918" lon="2.90791">
        <ele>1080.360334</ele>
        <time>2021-07-08T10:49:58+0200</time>
      </trkpt>
      <trkpt lat="45.24921" lon="2.90786">
        <ele>1080.225961</ele>
        <time>2021-07-08T10:49:59+0200</time>
      </trkpt>
      <trkpt lat="45.24927" lon="2.90776">
        <ele>1079.970522</ele>
        <time>2021-07-08T10:50:01+0200</time>
      </trkpt>
      <trkpt lat="45.24931" lon="2.90771">
        <ele>1079.846078</ele>
        <time>2021-07-08T10:50:02+0200</time>
      </trkpt>
      <trkpt lat="45.24935" lon="2.90766">
        <ele>1079.943051</ele>
        <time>2021-07-08T10:50:03+0200</time>
      </trkpt>
      <trkpt lat="45.24938" lon="2.90761">
        <ele>1079.266769</ele>
        <time>2021-07-08T10:50:04+0200</time>
      </trkpt>
      <trkpt lat="45.24942" lon="2.90755">
        <ele>1078.823218</ele>
        <time>2021-07-08T10:50:05+0200</time>
      </trkpt>
      <trkpt lat="45.24945" lon="2.90749">
        <ele>1078.371335</ele>
        <time>2021-07-08T10:50:06+0200</time>
      </trkpt>
      <trkpt lat="45.2495" lon="2.90742">
        <ele>1077.839725</ele>
        <time>2021-07-08T10:50:07+0200</time>
      </trkpt>
      <trkpt lat="45.24954" lon="2.90736">
        <ele>1077.152284</ele>
        <time>2021-07-08T10:50:08+0200</time>
      </trkpt>
      <trkpt lat="45.24958" lon="2.9073">
        <ele>1076.658034</ele>
        <time>2021-07-08T10:50:09+0200</time>
      </trkpt>
      <trkpt lat="45.24962" lon="2.90724">
        <ele>1076.031415</ele>
        <time>2021-07-08T10:50:10+0200</time>
      </trkpt>
      <trkpt lat="45.24965" lon="2.90717">
        <ele>1075.503998</ele>
        <time>2021-07-08T10:50:11+0200</time>
      </trkpt>
      <trkpt lat="45.24969" lon="2.9071">
        <ele>1075.264363</ele>
        <time>2021-07-08T10:50:12+0200</time>
      </trkpt>
      <trkpt lat="45.24973" lon="2.90704">
        <ele>1074.837075</ele>
        <time>2021-07-08T10:50:13+0200</time>
      </trkpt>
      <trkpt lat="45.24977" lon="2.90697">
        <ele>1073.941874</ele>
        <time>2021-07-08T10:50:14+0200</time>
      </trkpt>
      <trkpt lat="45.24981" lon="2.9069">
        <ele>1073.48432</ele>
        <time>2021-07-08T10:50:15+0200</time>
      </trkpt>
      <trkpt lat="45.24986" lon="2.90683">
        <ele>1072.88143</ele>
        <time>2021-07-08T10:50:16+0200</time>
      </trkpt>
      <trkpt lat="45.24991" lon="2.90675">
        <ele>1072.057757</ele>
        <time>2021-07-08T10:50:17+0200</time>
      </trkpt>
      <trkpt lat="45.24995" lon="2.90667">
        <ele>1071.503919</ele>
        <time>2021-07-08T10:50:18+0200</time>
      </trkpt>
      <trkpt lat="45.25" lon="2.9066">
        <ele>1070.808252</ele>
        <time>2021-07-08T10:50:19+0200</time>
      </trkpt>
      <trkpt lat="45.25004" lon="2.90651">
        <ele>1069.695655</ele>
        <time>2021-07-08T10:50:20+0200</time>
      </trkpt>
      <trkpt lat="45.25008" lon="2.90643">
        <ele>1069.472367</ele>
        <time>2021-07-08T10:50:21+0200</time>
      </trkpt>
      <trkpt lat="45.25012" lon="2.90635">
        <ele>1069.213934</ele>
        <time>2021-07-08T10:50:22+0200</time>
      </trkpt>
      <trkpt lat="45.25016" lon="2.90627">
        <ele>1068.844103</ele>
        <time>2021-07-08T10:50:23+0200</time>
      </trkpt>
      <trkpt lat="45.25019" lon="2.90619">
        <ele>1068.552819</ele>
        <time>2021-07-08T10:50:24+0200</time>
      </trkpt>
      <trkpt lat="45.25022" lon="2.9061">
        <ele>1068.327743</ele>
        <time>2021-07-08T10:50:25+0200</time>
      </trkpt>
      <trkpt lat="45.25026" lon="2.90602">
        <ele>1068.031221</ele>
        <time>2021-07-08T10:50:26+0200</time>
      </trkpt>
      <trkpt lat="45.25029" lon="2.90594">
        <ele>1067.800867</ele>
        <time>2021-07-08T10:50:27+0200</time>
      </trkpt>
      <trkpt lat="45.25031" lon="2.90587">
        <ele>1067.417112</ele>
        <time>2021-07-08T10:50:28+0200</time>
      </trkpt>
      <trkpt lat="45.25035" lon="2.9058">
        <ele>1067.161014</ele>
        <time>2021-07-08T10:50:29+0200</time>
      </trkpt>
      <trkpt lat="45.25037" lon="2.90573">
        <ele>1066.877688</ele>
        <time>2021-07-08T10:50:30+0200</time>
      </trkpt>
      <trkpt lat="45.2504" lon="2.90565">
        <ele>1066.652334</ele>
        <time>2021-07-08T10:50:31+0200</time>
      </trkpt>
      <trkpt lat="45.25042" lon="2.90559">
        <ele>1066.623311</ele>
        <time>2021-07-08T10:50:32+0200</time>
      </trkpt>
      <trkpt lat="45.25044" lon="2.90551">
        <ele>1066.680057</ele>
        <time>2021-07-08T10:50:33+0200</time>
      </trkpt>
      <trkpt lat="45.25046" lon="2.90545">
        <ele>1066.820652</ele>
        <time>2021-07-08T10:50:34+0200</time>
      </trkpt>
      <trkpt lat="45.25048" lon="2.90538">
        <ele>1066.35966</ele>
        <time>2021-07-08T10:50:35+0200</time>
      </trkpt>
      <trkpt lat="45.2505" lon="2.90531">
        <ele>1065.967294</ele>
        <time>2021-07-08T10:50:36+0200</time>
      </trkpt>
      <trkpt lat="45.25052" lon="2.90524">
        <ele>1065.802817</ele>
        <time>2021-07-08T10:50:37+0200</time>
      </trkpt>
      <trkpt lat="45.25053" lon="2.90518">
        <ele>1065.666475</ele>
        <time>2021-07-08T10:50:38+0200</time>
      </trkpt>
      <trkpt lat="45.25053" lon="2.9051">
        <ele>1065.361558</ele>
        <time>2021-07-08T10:50:39+0200</time>
      </trkpt>
      <trkpt lat="45.25055" lon="2.90504">
        <ele>1065.521599</ele>
        <time>2021-07-08T10:50:40+0200</time>
      </trkpt>
      <trkpt lat="45.25056" lon="2.90493">
        <ele>1065.456795</ele>
        <time>2021-07-08T10:50:42+0200</time>
      </trkpt>
      <trkpt lat="45.25057" lon="2.9048">
        <ele>1065.176579</ele>
        <time>2021-07-08T10:50:44+0200</time>
      </trkpt>
      <trkpt lat="45.25059" lon="2.90473">
        <ele>1065.524678</ele>
        <time>2021-07-08T10:50:45+0200</time>
      </trkpt>
      <trkpt lat="45.25062" lon="2.90463">
        <ele>1065.12195</ele>
        <time>2021-07-08T10:50:47+0200</time>
      </trkpt>
      <trkpt lat="45.25064" lon="2.90458">
        <ele>1065.17874</ele>
        <time>2021-07-08T10:50:48+0200</time>
      </trkpt>
      <trkpt lat="45.25067" lon="2.90452">
        <ele>1065.302597</ele>
        <time>2021-07-08T10:50:49+0200</time>
      </trkpt>
      <trkpt lat="45.2507" lon="2.90447">
        <ele>1065.345402</ele>
        <time>2021-07-08T10:50:50+0200</time>
      </trkpt>
      <trkpt lat="45.25073" lon="2.90441">
        <ele>1065.283639</ele>
        <time>2021-07-08T10:50:51+0200</time>
      </trkpt>
      <trkpt lat="45.25075" lon="2.90436">
        <ele>1065.222035</ele>
        <time>2021-07-08T10:50:52+0200</time>
      </trkpt>
      <trkpt lat="45.25079" lon="2.90427">
        <ele>1064.982126</ele>
        <time>2021-07-08T10:50:54+0200</time>
      </trkpt>
      <trkpt lat="45.25082" lon="2.90421">
        <ele>1065.519172</ele>
        <time>2021-07-08T10:50:56+0200</time>
      </trkpt>
      <trkpt lat="45.25085" lon="2.90412">
        <ele>1065.68937</ele>
        <time>2021-07-08T10:50:59+0200</time>
      </trkpt>
      <trkpt lat="45.25086" lon="2.90405">
        <ele>1066.010193</ele>
        <time>2021-07-08T10:51:01+0200</time>
      </trkpt>
      <trkpt lat="45.25089" lon="2.90397">
        <ele>1065.449846</ele>
        <time>2021-07-08T10:51:03+0200</time>
      </trkpt>
      <trkpt lat="45.25091" lon="2.9039">
        <ele>1065.927693</ele>
        <time>2021-07-08T10:51:05+0200</time>
      </trkpt>
      <trkpt lat="45.25094" lon="2.90382">
        <ele>1066.061235</ele>
        <time>2021-07-08T10:51:07+0200</time>
      </trkpt>
      <trkpt lat="45.25096" lon="2.90373">
        <ele>1066.294938</ele>
        <time>2021-07-08T10:51:09+0200</time>
      </trkpt>
      <trkpt lat="45.25097" lon="2.90367">
        <ele>1066.353004</ele>
        <time>2021-07-08T10:51:11+0200</time>
      </trkpt>
      <trkpt lat="45.251" lon="2.90361">
        <ele>1066.863901</ele>
        <time>2021-07-08T10:51:13+0200</time>
      </trkpt>
      <trkpt lat="45.25103" lon="2.90352">
        <ele>1067.743858</ele>
        <time>2021-07-08T10:51:16+0200</time>
      </trkpt>
      <trkpt lat="45.25105" lon="2.90346">
        <ele>1068.102128</ele>
        <time>2021-07-08T10:51:18+0200</time>
      </trkpt>
      <trkpt lat="45.25108" lon="2.90339">
        <ele>1068.266848</ele>
        <time>2021-07-08T10:51:20+0200</time>
      </trkpt>
      <trkpt lat="45.2511" lon="2.90332">
        <ele>1068.833096</ele>
        <time>2021-07-08T10:51:22+0200</time>
      </trkpt>
      <trkpt lat="45.25113" lon="2.90324">
        <ele>1069.194391</ele>
        <time>2021-07-08T10:51:24+0200</time>
      </trkpt>
      <trkpt lat="45.25115" lon="2.90314">
        <ele>1069.174388</ele>
        <time>2021-07-08T10:51:26+0200</time>
      </trkpt>
      <trkpt lat="45.25117" lon="2.90307">
        <ele>1069.435968</ele>
        <time>2021-07-08T10:51:28+0200</time>
      </trkpt>
      <trkpt lat="45.25119" lon="2.90299">
        <ele>1069.581906</ele>
        <time>2021-07-08T10:51:30+0200</time>
      </trkpt>
      <trkpt lat="45.25122" lon="2.90292">
        <ele>1069.597667</ele>
        <time>2021-07-08T10:51:32+0200</time>
      </trkpt>
      <trkpt lat="45.25124" lon="2.90285">
        <ele>1070.089509</ele>
        <time>2021-07-08T10:51:34+0200</time>
      </trkpt>
      <trkpt lat="45.25127" lon="2.90277">
        <ele>1069.30464</ele>
        <time>2021-07-08T10:51:36+0200</time>
      </trkpt>
      <trkpt lat="45.2513" lon="2.9027">
        <ele>1069.846162</ele>
        <time>2021-07-08T10:51:38+0200</time>
      </trkpt>
      <trkpt lat="45.25132" lon="2.90262">
        <ele>1070.151997</ele>
        <time>2021-07-08T10:51:40+0200</time>
      </trkpt>
      <trkpt lat="45.25135" lon="2.90256">
        <ele>1070.560033</ele>
        <time>2021-07-08T10:51:42+0200</time>
      </trkpt>
      <trkpt lat="45.25136" lon="2.90249">
        <ele>1070.97128</ele>
        <time>2021-07-08T10:51:44+0200</time>
      </trkpt>
      <trkpt lat="45.25138" lon="2.90243">
        <ele>1071.593794</ele>
        <time>2021-07-08T10:51:46+0200</time>
      </trkpt>
      <trkpt lat="45.25142" lon="2.90234">
        <ele>1072.292192</ele>
        <time>2021-07-08T10:51:48+0200</time>
      </trkpt>
      <trkpt lat="45.25145" lon="2.90227">
        <ele>1071.944697</ele>
        <time>2021-07-08T10:51:50+0200</time>
      </trkpt>
      <trkpt lat="45.25147" lon="2.90221">
        <ele>1071.990914</ele>
        <time>2021-07-08T10:51:52+0200</time>
      </trkpt>
      <trkpt lat="45.25149" lon="2.90212">
        <ele>1072.162056</ele>
        <time>2021-07-08T10:51:54+0200</time>
      </trkpt>
      <trkpt lat="45.25152" lon="2.90205">
        <ele>1072.182478</ele>
        <time>2021-07-08T10:51:56+0200</time>
      </trkpt>
      <trkpt lat="45.25155" lon="2.90198">
        <ele>1071.45803</ele>
        <time>2021-07-08T10:51:58+0200</time>
      </trkpt>
      <trkpt lat="45.25158" lon="2.90189">
        <ele>1071.611651</ele>
        <time>2021-07-08T10:52:00+0200</time>
      </trkpt>
      <trkpt lat="45.2516" lon="2.9018">
        <ele>1071.559451</ele>
        <time>2021-07-08T10:52:02+0200</time>
      </trkpt>
      <trkpt lat="45.25162" lon="2.90172">
        <ele>1071.747059</ele>
        <time>2021-07-08T10:52:04+0200</time>
      </trkpt>
      <trkpt lat="45.25166" lon="2.90162">
        <ele>1071.725807</ele>
        <time>2021-07-08T10:52:06+0200</time>
      </trkpt>
      <trkpt lat="45.25168" lon="2.90154">
        <ele>1072.168698</ele>
        <time>2021-07-08T10:52:08+0200</time>
      </trkpt>
      <trkpt lat="45.25171" lon="2.90146">
        <ele>1072.363148</ele>
        <time>2021-07-08T10:52:10+0200</time>
      </trkpt>
      <trkpt lat="45.25174" lon="2.90138">
        <ele>1071.701017</ele>
        <time>2021-07-08T10:52:12+0200</time>
      </trkpt>
      <trkpt lat="45.25176" lon="2.9013">
        <ele>1071.357732</ele>
        <time>2021-07-08T10:52:14+0200</time>
      </trkpt>
      <trkpt lat="45.25179" lon="2.9012">
        <ele>1071.818224</ele>
        <time>2021-07-08T10:52:16+0200</time>
      </trkpt>
      <trkpt lat="45.25182" lon="2.90111">
        <ele>1072.649327</ele>
        <time>2021-07-08T10:52:18+0200</time>
      </trkpt>
      <trkpt lat="45.25186" lon="2.90102">
        <ele>1073.123088</ele>
        <time>2021-07-08T10:52:20+0200</time>
      </trkpt>
      <trkpt lat="45.25189" lon="2.90095">
        <ele>1073.213634</ele>
        <time>2021-07-08T10:52:22+0200</time>
      </trkpt>
      <trkpt lat="45.25191" lon="2.90086">
        <ele>1073.77502</ele>
        <time>2021-07-08T10:52:24+0200</time>
      </trkpt>
      <trkpt lat="45.25195" lon="2.90079">
        <ele>1073.879866</ele>
        <time>2021-07-08T10:52:26+0200</time>
      </trkpt>
      <trkpt lat="45.25196" lon="2.90072">
        <ele>1073.745235</ele>
        <time>2021-07-08T10:52:28+0200</time>
      </trkpt>
      <trkpt lat="45.252" lon="2.90065">
        <ele>1073.75134</ele>
        <time>2021-07-08T10:52:30+0200</time>
      </trkpt>
      <trkpt lat="45.25204" lon="2.90056">
        <ele>1073.693917</ele>
        <time>2021-07-08T10:52:32+0200</time>
      </trkpt>
      <trkpt lat="45.25207" lon="2.90049">
        <ele>1073.61114</ele>
        <time>2021-07-08T10:52:34+0200</time>
      </trkpt>
      <trkpt lat="45.2521" lon="2.9004">
        <ele>1074.567137</ele>
        <time>2021-07-08T10:52:36+0200</time>
      </trkpt>
      <trkpt lat="45.25213" lon="2.90033">
        <ele>1075.353502</ele>
        <time>2021-07-08T10:52:38+0200</time>
      </trkpt>
      <trkpt lat="45.25217" lon="2.90023">
        <ele>1075.510157</ele>
        <time>2021-07-08T10:52:40+0200</time>
      </trkpt>
      <trkpt lat="45.2522" lon="2.90014">
        <ele>1075.439165</ele>
        <time>2021-07-08T10:52:42+0200</time>
      </trkpt>
      <trkpt lat="45.25223" lon="2.90006">
        <ele>1074.974062</ele>
        <time>2021-07-08T10:52:44+0200</time>
      </trkpt>
      <trkpt lat="45.25226" lon="2.89992">
        <ele>1075.731129</ele>
        <time>2021-07-08T10:52:46+0200</time>
      </trkpt>
      <trkpt lat="45.2523" lon="2.89983">
        <ele>1075.654679</ele>
        <time>2021-07-08T10:52:49+0200</time>
      </trkpt>
      <trkpt lat="45.25234" lon="2.89975">
        <ele>1075.625311</ele>
        <time>2021-07-08T10:52:51+0200</time>
      </trkpt>
      <trkpt lat="45.25238" lon="2.89967">
        <ele>1075.836962</ele>
        <time>2021-07-08T10:52:53+0200</time>
      </trkpt>
      <trkpt lat="45.25242" lon="2.89958">
        <ele>1076.389955</ele>
        <time>2021-07-08T10:52:55+0200</time>
      </trkpt>
      <trkpt lat="45.25246" lon="2.89947">
        <ele>1076.439566</ele>
        <time>2021-07-08T10:52:57+0200</time>
      </trkpt>
      <trkpt lat="45.25251" lon="2.89938">
        <ele>1077.102897</ele>
        <time>2021-07-08T10:52:59+0200</time>
      </trkpt>
      <trkpt lat="45.25254" lon="2.89928">
        <ele>1077.086347</ele>
        <time>2021-07-08T10:53:01+0200</time>
      </trkpt>
      <trkpt lat="45.25257" lon="2.89919">
        <ele>1077.65057</ele>
        <time>2021-07-08T10:53:03+0200</time>
      </trkpt>
      <trkpt lat="45.25261" lon="2.8991">
        <ele>1078.175965</ele>
        <time>2021-07-08T10:53:05+0200</time>
      </trkpt>
      <trkpt lat="45.25265" lon="2.89901">
        <ele>1078.070654</ele>
        <time>2021-07-08T10:53:07+0200</time>
      </trkpt>
      <trkpt lat="45.2527" lon="2.89893">
        <ele>1078.458329</ele>
        <time>2021-07-08T10:53:09+0200</time>
      </trkpt>
      <trkpt lat="45.25273" lon="2.89884">
        <ele>1078.968819</ele>
        <time>2021-07-08T10:53:11+0200</time>
      </trkpt>
      <trkpt lat="45.25275" lon="2.89878">
        <ele>1078.978434</ele>
        <time>2021-07-08T10:53:12+0200</time>
      </trkpt>
      <trkpt lat="45.25278" lon="2.89867">
        <ele>1079.770219</ele>
        <time>2021-07-08T10:53:14+0200</time>
      </trkpt>
      <trkpt lat="45.2528" lon="2.89858">
        <ele>1079.446541</ele>
        <time>2021-07-08T10:53:16+0200</time>
      </trkpt>
      <trkpt lat="45.25283" lon="2.89848">
        <ele>1079.653653</ele>
        <time>2021-07-08T10:53:18+0200</time>
      </trkpt>
      <trkpt lat="45.25286" lon="2.89839">
        <ele>1079.82548</ele>
        <time>2021-07-08T10:53:20+0200</time>
      </trkpt>
      <trkpt lat="45.2529" lon="2.89831">
        <ele>1080.234396</ele>
        <time>2021-07-08T10:53:22+0200</time>
      </trkpt>
      <trkpt lat="45.25296" lon="2.89823">
        <ele>1080.226908</ele>
        <time>2021-07-08T10:53:24+0200</time>
      </trkpt>
      <trkpt lat="45.25301" lon="2.89815">
        <ele>1080.577194</ele>
        <time>2021-07-08T10:53:26+0200</time>
      </trkpt>
      <trkpt lat="45.25306" lon="2.89807">
        <ele>1080.394455</ele>
        <time>2021-07-08T10:53:28+0200</time>
      </trkpt>
      <trkpt lat="45.25311" lon="2.89798">
        <ele>1080.201771</ele>
        <time>2021-07-08T10:53:30+0200</time>
      </trkpt>
      <trkpt lat="45.25316" lon="2.89788">
        <ele>1079.827143</ele>
        <time>2021-07-08T10:53:32+0200</time>
      </trkpt>
      <trkpt lat="45.25322" lon="2.89778">
        <ele>1079.445636</ele>
        <time>2021-07-08T10:53:34+0200</time>
      </trkpt>
      <trkpt lat="45.25325" lon="2.89771">
        <ele>1079.044381</ele>
        <time>2021-07-08T10:53:35+0200</time>
      </trkpt>
      <trkpt lat="45.25329" lon="2.89764">
        <ele>1078.422113</ele>
        <time>2021-07-08T10:53:36+0200</time>
      </trkpt>
      <trkpt lat="45.25333" lon="2.89758">
        <ele>1077.984935</ele>
        <time>2021-07-08T10:53:37+0200</time>
      </trkpt>
      <trkpt lat="45.25337" lon="2.89751">
        <ele>1077.198627</ele>
        <time>2021-07-08T10:53:38+0200</time>
      </trkpt>
      <trkpt lat="45.25341" lon="2.89744">
        <ele>1076.760725</ele>
        <time>2021-07-08T10:53:39+0200</time>
      </trkpt>
      <trkpt lat="45.25345" lon="2.89736">
        <ele>1076.183506</ele>
        <time>2021-07-08T10:53:40+0200</time>
      </trkpt>
      <trkpt lat="45.25349" lon="2.8973">
        <ele>1075.738167</ele>
        <time>2021-07-08T10:53:41+0200</time>
      </trkpt>
      <trkpt lat="45.25353" lon="2.89722">
        <ele>1075.068267</ele>
        <time>2021-07-08T10:53:42+0200</time>
      </trkpt>
      <trkpt lat="45.25356" lon="2.89716">
        <ele>1074.687702</ele>
        <time>2021-07-08T10:53:43+0200</time>
      </trkpt>
      <trkpt lat="45.25361" lon="2.89709">
        <ele>1074.472064</ele>
        <time>2021-07-08T10:53:44+0200</time>
      </trkpt>
      <trkpt lat="45.25366" lon="2.89703">
        <ele>1073.942272</ele>
        <time>2021-07-08T10:53:45+0200</time>
      </trkpt>
      <trkpt lat="45.25371" lon="2.89697">
        <ele>1073.767278</ele>
        <time>2021-07-08T10:53:46+0200</time>
      </trkpt>
      <trkpt lat="45.25374" lon="2.8969">
        <ele>1072.991883</ele>
        <time>2021-07-08T10:53:47+0200</time>
      </trkpt>
      <trkpt lat="45.2538" lon="2.89683">
        <ele>1073.105058</ele>
        <time>2021-07-08T10:53:48+0200</time>
      </trkpt>
      <trkpt lat="45.25384" lon="2.89676">
        <ele>1072.785386</ele>
        <time>2021-07-08T10:53:49+0200</time>
      </trkpt>
      <trkpt lat="45.25388" lon="2.89669">
        <ele>1072.322573</ele>
        <time>2021-07-08T10:53:50+0200</time>
      </trkpt>
      <trkpt lat="45.25392" lon="2.89662">
        <ele>1071.715974</ele>
        <time>2021-07-08T10:53:51+0200</time>
      </trkpt>
      <trkpt lat="45.25397" lon="2.89656">
        <ele>1071.387851</ele>
        <time>2021-07-08T10:53:52+0200</time>
      </trkpt>
      <trkpt lat="45.25402" lon="2.89649">
        <ele>1071.184012</ele>
        <time>2021-07-08T10:53:53+0200</time>
      </trkpt>
      <trkpt lat="45.25406" lon="2.89643">
        <ele>1070.96059</ele>
        <time>2021-07-08T10:53:54+0200</time>
      </trkpt>
      <trkpt lat="45.2541" lon="2.89638">
        <ele>1070.867004</ele>
        <time>2021-07-08T10:53:55+0200</time>
      </trkpt>
      <trkpt lat="45.25415" lon="2.89632">
        <ele>1070.779296</ele>
        <time>2021-07-08T10:53:56+0200</time>
      </trkpt>
      <trkpt lat="45.2542" lon="2.89626">
        <ele>1070.59636</ele>
        <time>2021-07-08T10:53:57+0200</time>
      </trkpt>
      <trkpt lat="45.25424" lon="2.89621">
        <ele>1070.273054</ele>
        <time>2021-07-08T10:53:58+0200</time>
      </trkpt>
      <trkpt lat="45.25428" lon="2.89615">
        <ele>1070.107172</ele>
        <time>2021-07-08T10:53:59+0200</time>
      </trkpt>
      <trkpt lat="45.25433" lon="2.89608">
        <ele>1069.815514</ele>
        <time>2021-07-08T10:54:00+0200</time>
      </trkpt>
      <trkpt lat="45.25437" lon="2.89601">
        <ele>1069.188284</ele>
        <time>2021-07-08T10:54:01+0200</time>
      </trkpt>
      <trkpt lat="45.25441" lon="2.89594">
        <ele>1068.805689</ele>
        <time>2021-07-08T10:54:02+0200</time>
      </trkpt>
      <trkpt lat="45.25445" lon="2.89587">
        <ele>1068.413888</ele>
        <time>2021-07-08T10:54:03+0200</time>
      </trkpt>
      <trkpt lat="45.2545" lon="2.89581">
        <ele>1068.21928</ele>
        <time>2021-07-08T10:54:04+0200</time>
      </trkpt>
      <trkpt lat="45.25454" lon="2.89575">
        <ele>1068.30804</ele>
        <time>2021-07-08T10:54:05+0200</time>
      </trkpt>
      <trkpt lat="45.25458" lon="2.89567">
        <ele>1068.6624</ele>
        <time>2021-07-08T10:54:06+0200</time>
      </trkpt>
      <trkpt lat="45.25462" lon="2.89562">
        <ele>1068.511309</ele>
        <time>2021-07-08T10:54:07+0200</time>
      </trkpt>
      <trkpt lat="45.25466" lon="2.89556">
        <ele>1068.1217</ele>
        <time>2021-07-08T10:54:08+0200</time>
      </trkpt>
      <trkpt lat="45.2547" lon="2.8955">
        <ele>1068.027281</ele>
        <time>2021-07-08T10:54:09+0200</time>
      </trkpt>
      <trkpt lat="45.25473" lon="2.89543">
        <ele>1067.404511</ele>
        <time>2021-07-08T10:54:10+0200</time>
      </trkpt>
      <trkpt lat="45.25478" lon="2.89538">
        <ele>1067.328973</ele>
        <time>2021-07-08T10:54:11+0200</time>
      </trkpt>
      <trkpt lat="45.25482" lon="2.89533">
        <ele>1067.107191</ele>
        <time>2021-07-08T10:54:12+0200</time>
      </trkpt>
      <trkpt lat="45.25485" lon="2.89528">
        <ele>1067.294416</ele>
        <time>2021-07-08T10:54:13+0200</time>
      </trkpt>
      <trkpt lat="45.25489" lon="2.89523">
        <ele>1066.89176</ele>
        <time>2021-07-08T10:54:14+0200</time>
      </trkpt>
      <trkpt lat="45.25494" lon="2.8952">
        <ele>1066.468998</ele>
        <time>2021-07-08T10:54:15+0200</time>
      </trkpt>
      <trkpt lat="45.25498" lon="2.89517">
        <ele>1066.229559</ele>
        <time>2021-07-08T10:54:16+0200</time>
      </trkpt>
      <trkpt lat="45.25502" lon="2.89511">
        <ele>1065.843155</ele>
        <time>2021-07-08T10:54:18+0200</time>
      </trkpt>
      <trkpt lat="45.25501" lon="2.89503">
        <ele>1066.049216</ele>
        <time>2021-07-08T10:54:20+0200</time>
      </trkpt>
      <trkpt lat="45.25494" lon="2.89503">
        <ele>1065.536673</ele>
        <time>2021-07-08T10:54:22+0200</time>
      </trkpt>
      <trkpt lat="45.25488" lon="2.89506">
        <ele>1065.14355</ele>
        <time>2021-07-08T10:54:24+0200</time>
      </trkpt>
      <trkpt lat="45.25481" lon="2.89508">
        <ele>1064.578762</ele>
        <time>2021-07-08T10:54:26+0200</time>
      </trkpt>
      <trkpt lat="45.25473" lon="2.89509">
        <ele>1064.091103</ele>
        <time>2021-07-08T10:54:28+0200</time>
      </trkpt>
      <trkpt lat="45.25466" lon="2.89511">
        <ele>1063.987891</ele>
        <time>2021-07-08T10:54:30+0200</time>
      </trkpt>
      <trkpt lat="45.25458" lon="2.89514">
        <ele>1063.714004</ele>
        <time>2021-07-08T10:54:32+0200</time>
      </trkpt>
      <trkpt lat="45.2545" lon="2.89516">
        <ele>1063.592079</ele>
        <time>2021-07-08T10:54:34+0200</time>
      </trkpt>
      <trkpt lat="45.25445" lon="2.89518">
        <ele>1063.924745</ele>
        <time>2021-07-08T10:54:35+0200</time>
      </trkpt>
      <trkpt lat="45.2544" lon="2.8952">
        <ele>1063.806627</ele>
        <time>2021-07-08T10:54:36+0200</time>
      </trkpt>
      <trkpt lat="45.25435" lon="2.89522">
        <ele>1063.489849</ele>
        <time>2021-07-08T10:54:37+0200</time>
      </trkpt>
      <trkpt lat="45.25429" lon="2.89523">
        <ele>1063.117086</ele>
        <time>2021-07-08T10:54:38+0200</time>
      </trkpt>
      <trkpt lat="45.25422" lon="2.89524">
        <ele>1062.994239</ele>
        <time>2021-07-08T10:54:39+0200</time>
      </trkpt>
      <trkpt lat="45.25416" lon="2.89526">
        <ele>1062.892348</ele>
        <time>2021-07-08T10:54:40+0200</time>
      </trkpt>
      <trkpt lat="45.2541" lon="2.89526">
        <ele>1062.948811</ele>
        <time>2021-07-08T10:54:41+0200</time>
      </trkpt>
      <trkpt lat="45.25404" lon="2.89528">
        <ele>1062.862986</ele>
        <time>2021-07-08T10:54:42+0200</time>
      </trkpt>
      <trkpt lat="45.25397" lon="2.89528">
        <ele>1062.536759</ele>
        <time>2021-07-08T10:54:43+0200</time>
      </trkpt>
      <trkpt lat="45.25391" lon="2.8953">
        <ele>1062.22934</ele>
        <time>2021-07-08T10:54:44+0200</time>
      </trkpt>
      <trkpt lat="45.25384" lon="2.89531">
        <ele>1062.089753</ele>
        <time>2021-07-08T10:54:45+0200</time>
      </trkpt>
      <trkpt lat="45.25378" lon="2.89531">
        <ele>1061.907005</ele>
        <time>2021-07-08T10:54:46+0200</time>
      </trkpt>
      <trkpt lat="45.25371" lon="2.8953">
        <ele>1061.721845</ele>
        <time>2021-07-08T10:54:47+0200</time>
      </trkpt>
      <trkpt lat="45.25364" lon="2.89529">
        <ele>1061.546302</ele>
        <time>2021-07-08T10:54:48+0200</time>
      </trkpt>
      <trkpt lat="45.25357" lon="2.89529">
        <ele>1061.348278</ele>
        <time>2021-07-08T10:54:49+0200</time>
      </trkpt>
      <trkpt lat="45.25351" lon="2.89529">
        <ele>1060.982779</ele>
        <time>2021-07-08T10:54:50+0200</time>
      </trkpt>
      <trkpt lat="45.25344" lon="2.89527">
        <ele>1060.761911</ele>
        <time>2021-07-08T10:54:51+0200</time>
      </trkpt>
      <trkpt lat="45.25337" lon="2.89524">
        <ele>1060.500245</ele>
        <time>2021-07-08T10:54:52+0200</time>
      </trkpt>
      <trkpt lat="45.2533" lon="2.89522">
        <ele>1060.405353</ele>
        <time>2021-07-08T10:54:53+0200</time>
      </trkpt>
      <trkpt lat="45.25323" lon="2.89521">
        <ele>1060.406554</ele>
        <time>2021-07-08T10:54:54+0200</time>
      </trkpt>
      <trkpt lat="45.25317" lon="2.89519">
        <ele>1060.150537</ele>
        <time>2021-07-08T10:54:55+0200</time>
      </trkpt>
      <trkpt lat="45.2531" lon="2.89517">
        <ele>1059.999999</ele>
        <time>2021-07-08T10:54:56+0200</time>
      </trkpt>
      <trkpt lat="45.25303" lon="2.89516">
        <ele>1059.938531</ele>
        <time>2021-07-08T10:54:57+0200</time>
      </trkpt>
      <trkpt lat="45.25297" lon="2.89516">
        <ele>1059.357178</ele>
        <time>2021-07-08T10:54:58+0200</time>
      </trkpt>
      <trkpt lat="45.2529" lon="2.89516">
        <ele>1059.200707</ele>
        <time>2021-07-08T10:54:59+0200</time>
      </trkpt>
      <trkpt lat="45.25284" lon="2.89516">
        <ele>1058.821847</ele>
        <time>2021-07-08T10:55:00+0200</time>
      </trkpt>
      <trkpt lat="45.25278" lon="2.89517">
        <ele>1058.64514</ele>
        <time>2021-07-08T10:55:01+0200</time>
      </trkpt>
      <trkpt lat="45.25271" lon="2.89519">
        <ele>1058.578188</ele>
        <time>2021-07-08T10:55:02+0200</time>
      </trkpt>
      <trkpt lat="45.25265" lon="2.8952">
        <ele>1058.382557</ele>
        <time>2021-07-08T10:55:03+0200</time>
      </trkpt>
      <trkpt lat="45.25257" lon="2.89521">
        <ele>1058.388055</ele>
        <time>2021-07-08T10:55:04+0200</time>
      </trkpt>
      <trkpt lat="45.25251" lon="2.89523">
        <ele>1058.020136</ele>
        <time>2021-07-08T10:55:05+0200</time>
      </trkpt>
      <trkpt lat="45.25244" lon="2.89525">
        <ele>1057.874721</ele>
        <time>2021-07-08T10:55:06+0200</time>
      </trkpt>
      <trkpt lat="45.25238" lon="2.89527">
        <ele>1057.661323</ele>
        <time>2021-07-08T10:55:07+0200</time>
      </trkpt>
      <trkpt lat="45.2523" lon="2.89529">
        <ele>1057.398149</ele>
        <time>2021-07-08T10:55:08+0200</time>
      </trkpt>
      <trkpt lat="45.25224" lon="2.89532">
        <ele>1057.200229</ele>
        <time>2021-07-08T10:55:09+0200</time>
      </trkpt>
      <trkpt lat="45.25217" lon="2.89535">
        <ele>1057.231169</ele>
        <time>2021-07-08T10:55:10+0200</time>
      </trkpt>
      <trkpt lat="45.25211" lon="2.89537">
        <ele>1056.898479</ele>
        <time>2021-07-08T10:55:11+0200</time>
      </trkpt>
      <trkpt lat="45.25204" lon="2.8954">
        <ele>1056.762972</ele>
        <time>2021-07-08T10:55:12+0200</time>
      </trkpt>
      <trkpt lat="45.25198" lon="2.89544">
        <ele>1056.706343</ele>
        <time>2021-07-08T10:55:13+0200</time>
      </trkpt>
      <trkpt lat="45.2519" lon="2.89547">
        <ele>1056.547571</ele>
        <time>2021-07-08T10:55:14+0200</time>
      </trkpt>
      <trkpt lat="45.25183" lon="2.89552">
        <ele>1056.53969</ele>
        <time>2021-07-08T10:55:15+0200</time>
      </trkpt>
      <trkpt lat="45.25176" lon="2.89555">
        <ele>1055.991456</ele>
        <time>2021-07-08T10:55:16+0200</time>
      </trkpt>
      <trkpt lat="45.2517" lon="2.89551">
        <ele>1055.528436</ele>
        <time>2021-07-08T10:55:17+0200</time>
      </trkpt>
      <trkpt lat="45.25164" lon="2.8955">
        <ele>1055.172348</ele>
        <time>2021-07-08T10:55:18+0200</time>
      </trkpt>
      <trkpt lat="45.25168" lon="2.89534">
        <ele>1056.339309</ele>
        <time>2021-07-08T10:55:19+0200</time>
      </trkpt>
      <trkpt lat="45.2517" lon="2.89526">
        <ele>1056.117731</ele>
        <time>2021-07-08T10:55:20+0200</time>
      </trkpt>
      <trkpt lat="45.25175" lon="2.89522">
        <ele>1055.835095</ele>
        <time>2021-07-08T10:55:21+0200</time>
      </trkpt>
      <trkpt lat="45.25181" lon="2.8952">
        <ele>1055.482966</ele>
        <time>2021-07-08T10:55:22+0200</time>
      </trkpt>
      <trkpt lat="45.25187" lon="2.8952">
        <ele>1055.262234</ele>
        <time>2021-07-08T10:55:23+0200</time>
      </trkpt>
      <trkpt lat="45.25192" lon="2.89519">
        <ele>1055.047666</ele>
        <time>2021-07-08T10:55:24+0200</time>
      </trkpt>
      <trkpt lat="45.25198" lon="2.89518">
        <ele>1054.871189</ele>
        <time>2021-07-08T10:55:25+0200</time>
      </trkpt>
      <trkpt lat="45.25203" lon="2.89517">
        <ele>1054.77232</ele>
        <time>2021-07-08T10:55:26+0200</time>
      </trkpt>
      <trkpt lat="45.25209" lon="2.89515">
        <ele>1054.644429</ele>
        <time>2021-07-08T10:55:27+0200</time>
      </trkpt>
      <trkpt lat="45.25214" lon="2.89513">
        <ele>1054.528804</ele>
        <time>2021-07-08T10:55:28+0200</time>
      </trkpt>
      <trkpt lat="45.2522" lon="2.89511">
        <ele>1054.476249</ele>
        <time>2021-07-08T10:55:29+0200</time>
      </trkpt>
      <trkpt lat="45.25226" lon="2.89508">
        <ele>1054.41031</ele>
        <time>2021-07-08T10:55:30+0200</time>
      </trkpt>
      <trkpt lat="45.25231" lon="2.89503">
        <ele>1054.279444</ele>
        <time>2021-07-08T10:55:31+0200</time>
      </trkpt>
      <trkpt lat="45.25237" lon="2.89499">
        <ele>1054.118979</ele>
        <time>2021-07-08T10:55:32+0200</time>
      </trkpt>
      <trkpt lat="45.25242" lon="2.89494">
        <ele>1053.962873</ele>
        <time>2021-07-08T10:55:33+0200</time>
      </trkpt>
      <trkpt lat="45.25247" lon="2.89489">
        <ele>1053.93166</ele>
        <time>2021-07-08T10:55:34+0200</time>
      </trkpt>
      <trkpt lat="45.25253" lon="2.89485">
        <ele>1053.950746</ele>
        <time>2021-07-08T10:55:35+0200</time>
      </trkpt>
      <trkpt lat="45.25258" lon="2.8948">
        <ele>1053.988492</ele>
        <time>2021-07-08T10:55:36+0200</time>
      </trkpt>
      <trkpt lat="45.25263" lon="2.89475">
        <ele>1053.995464</ele>
        <time>2021-07-08T10:55:37+0200</time>
      </trkpt>
      <trkpt lat="45.25269" lon="2.8947">
        <ele>1053.980997</ele>
        <time>2021-07-08T10:55:38+0200</time>
      </trkpt>
      <trkpt lat="45.25274" lon="2.89466">
        <ele>1054.006295</ele>
        <time>2021-07-08T10:55:39+0200</time>
      </trkpt>
      <trkpt lat="45.2528" lon="2.8946">
        <ele>1054.069654</ele>
        <time>2021-07-08T10:55:40+0200</time>
      </trkpt>
      <trkpt lat="45.25285" lon="2.89455">
        <ele>1054.220973</ele>
        <time>2021-07-08T10:55:41+0200</time>
      </trkpt>
      <trkpt lat="45.25291" lon="2.89449">
        <ele>1053.533989</ele>
        <time>2021-07-08T10:55:42+0200</time>
      </trkpt>
      <trkpt lat="45.25297" lon="2.89443">
        <ele>1053.230462</ele>
        <time>2021-07-08T10:55:43+0200</time>
      </trkpt>
      <trkpt lat="45.25302" lon="2.89437">
        <ele>1052.482025</ele>
        <time>2021-07-08T10:55:44+0200</time>
      </trkpt>
      <trkpt lat="45.25307" lon="2.89432">
        <ele>1052.103532</ele>
        <time>2021-07-08T10:55:45+0200</time>
      </trkpt>
      <trkpt lat="45.25312" lon="2.89424">
        <ele>1051.932995</ele>
        <time>2021-07-08T10:55:46+0200</time>
      </trkpt>
      <trkpt lat="45.25316" lon="2.89416">
        <ele>1051.776962</ele>
        <time>2021-07-08T10:55:47+0200</time>
      </trkpt>
      <trkpt lat="45.25321" lon="2.89409">
        <ele>1051.115313</ele>
        <time>2021-07-08T10:55:48+0200</time>
      </trkpt>
      <trkpt lat="45.25325" lon="2.89401">
        <ele>1050.569801</ele>
        <time>2021-07-08T10:55:49+0200</time>
      </trkpt>
      <trkpt lat="45.25329" lon="2.89392">
        <ele>1049.956377</ele>
        <time>2021-07-08T10:55:50+0200</time>
      </trkpt>
      <trkpt lat="45.25333" lon="2.89383">
        <ele>1049.467785</ele>
        <time>2021-07-08T10:55:51+0200</time>
      </trkpt>
      <trkpt lat="45.25337" lon="2.89374">
        <ele>1048.97183</ele>
        <time>2021-07-08T10:55:52+0200</time>
      </trkpt>
      <trkpt lat="45.2534" lon="2.89365">
        <ele>1048.866395</ele>
        <time>2021-07-08T10:55:53+0200</time>
      </trkpt>
      <trkpt lat="45.25343" lon="2.89356">
        <ele>1048.727029</ele>
        <time>2021-07-08T10:55:54+0200</time>
      </trkpt>
      <trkpt lat="45.25346" lon="2.89348">
        <ele>1048.479241</ele>
        <time>2021-07-08T10:55:55+0200</time>
      </trkpt>
      <trkpt lat="45.25349" lon="2.8934">
        <ele>1048.340748</ele>
        <time>2021-07-08T10:55:56+0200</time>
      </trkpt>
      <trkpt lat="45.25352" lon="2.89333">
        <ele>1048.520777</ele>
        <time>2021-07-08T10:55:57+0200</time>
      </trkpt>
      <trkpt lat="45.25355" lon="2.89327">
        <ele>1048.638966</ele>
        <time>2021-07-08T10:55:58+0200</time>
      </trkpt>
      <trkpt lat="45.25358" lon="2.89321">
        <ele>1048.876</ele>
        <time>2021-07-08T10:55:59+0200</time>
      </trkpt>
      <trkpt lat="45.25361" lon="2.89315">
        <ele>1048.912955</ele>
        <time>2021-07-08T10:56:00+0200</time>
      </trkpt>
      <trkpt lat="45.25363" lon="2.89309">
        <ele>1049.185175</ele>
        <time>2021-07-08T10:56:01+0200</time>
      </trkpt>
      <trkpt lat="45.25365" lon="2.89303">
        <ele>1049.457188</ele>
        <time>2021-07-08T10:56:02+0200</time>
      </trkpt>
      <trkpt lat="45.25368" lon="2.89297">
        <ele>1049.654554</ele>
        <time>2021-07-08T10:56:03+0200</time>
      </trkpt>
      <trkpt lat="45.2537" lon="2.89292">
        <ele>1049.911447</ele>
        <time>2021-07-08T10:56:04+0200</time>
      </trkpt>
      <trkpt lat="45.25374" lon="2.89286">
        <ele>1049.918312</ele>
        <time>2021-07-08T10:56:05+0200</time>
      </trkpt>
      <trkpt lat="45.25376" lon="2.8928">
        <ele>1050.078421</ele>
        <time>2021-07-08T10:56:06+0200</time>
      </trkpt>
      <trkpt lat="45.25379" lon="2.89274">
        <ele>1050.367208</ele>
        <time>2021-07-08T10:56:07+0200</time>
      </trkpt>
      <trkpt lat="45.25381" lon="2.89269">
        <ele>1050.938775</ele>
        <time>2021-07-08T10:56:08+0200</time>
      </trkpt>
      <trkpt lat="45.25386" lon="2.89258">
        <ele>1051.409084</ele>
        <time>2021-07-08T10:56:10+0200</time>
      </trkpt>
      <trkpt lat="45.25388" lon="2.89253">
        <ele>1051.665602</ele>
        <time>2021-07-08T10:56:11+0200</time>
      </trkpt>
      <trkpt lat="45.25393" lon="2.89242">
        <ele>1051.846482</ele>
        <time>2021-07-08T10:56:13+0200</time>
      </trkpt>
      <trkpt lat="45.25397" lon="2.89231">
        <ele>1052.249115</ele>
        <time>2021-07-08T10:56:15+0200</time>
      </trkpt>
      <trkpt lat="45.254" lon="2.89225">
        <ele>1052.628219</ele>
        <time>2021-07-08T10:56:16+0200</time>
      </trkpt>
      <trkpt lat="45.25404" lon="2.89214">
        <ele>1052.985126</ele>
        <time>2021-07-08T10:56:18+0200</time>
      </trkpt>
      <trkpt lat="45.25406" lon="2.89208">
        <ele>1053.212734</ele>
        <time>2021-07-08T10:56:19+0200</time>
      </trkpt>
      <trkpt lat="45.2541" lon="2.89198">
        <ele>1053.426006</ele>
        <time>2021-07-08T10:56:21+0200</time>
      </trkpt>
      <trkpt lat="45.25414" lon="2.89186">
        <ele>1053.524658</ele>
        <time>2021-07-08T10:56:23+0200</time>
      </trkpt>
      <trkpt lat="45.25419" lon="2.89177">
        <ele>1053.785036</ele>
        <time>2021-07-08T10:56:25+0200</time>
      </trkpt>
      <trkpt lat="45.25423" lon="2.89167">
        <ele>1053.694209</ele>
        <time>2021-07-08T10:56:27+0200</time>
      </trkpt>
      <trkpt lat="45.25427" lon="2.89157">
        <ele>1053.672669</ele>
        <time>2021-07-08T10:56:29+0200</time>
      </trkpt>
      <trkpt lat="45.25432" lon="2.89146">
        <ele>1053.947714</ele>
        <time>2021-07-08T10:56:31+0200</time>
      </trkpt>
      <trkpt lat="45.25436" lon="2.89136">
        <ele>1054.253451</ele>
        <time>2021-07-08T10:56:33+0200</time>
      </trkpt>
      <trkpt lat="45.2544" lon="2.89126">
        <ele>1054.629318</ele>
        <time>2021-07-08T10:56:35+0200</time>
      </trkpt>
      <trkpt lat="45.25444" lon="2.89116">
        <ele>1054.761395</ele>
        <time>2021-07-08T10:56:37+0200</time>
      </trkpt>
      <trkpt lat="45.25448" lon="2.89106">
        <ele>1054.833886</ele>
        <time>2021-07-08T10:56:39+0200</time>
      </trkpt>
      <trkpt lat="45.25453" lon="2.89097">
        <ele>1055.277479</ele>
        <time>2021-07-08T10:56:41+0200</time>
      </trkpt>
      <trkpt lat="45.25457" lon="2.89087">
        <ele>1055.649444</ele>
        <time>2021-07-08T10:56:43+0200</time>
      </trkpt>
      <trkpt lat="45.2546" lon="2.89078">
        <ele>1055.956527</ele>
        <time>2021-07-08T10:56:45+0200</time>
      </trkpt>
      <trkpt lat="45.25464" lon="2.89068">
        <ele>1056.251183</ele>
        <time>2021-07-08T10:56:47+0200</time>
      </trkpt>
      <trkpt lat="45.25468" lon="2.8906">
        <ele>1056.317046</ele>
        <time>2021-07-08T10:56:49+0200</time>
      </trkpt>
      <trkpt lat="45.25472" lon="2.89051">
        <ele>1056.724291</ele>
        <time>2021-07-08T10:56:51+0200</time>
      </trkpt>
      <trkpt lat="45.25476" lon="2.89041">
        <ele>1056.66261</ele>
        <time>2021-07-08T10:56:53+0200</time>
      </trkpt>
      <trkpt lat="45.2548" lon="2.89031">
        <ele>1056.821326</ele>
        <time>2021-07-08T10:56:55+0200</time>
      </trkpt>
      <trkpt lat="45.25484" lon="2.89021">
        <ele>1056.704136</ele>
        <time>2021-07-08T10:56:57+0200</time>
      </trkpt>
      <trkpt lat="45.25489" lon="2.8901">
        <ele>1056.769419</ele>
        <time>2021-07-08T10:56:59+0200</time>
      </trkpt>
      <trkpt lat="45.25493" lon="2.89">
        <ele>1057.110758</ele>
        <time>2021-07-08T10:57:01+0200</time>
      </trkpt>
      <trkpt lat="45.25497" lon="2.8899">
        <ele>1057.174537</ele>
        <time>2021-07-08T10:57:03+0200</time>
      </trkpt>
      <trkpt lat="45.25501" lon="2.88979">
        <ele>1057.101099</ele>
        <time>2021-07-08T10:57:05+0200</time>
      </trkpt>
      <trkpt lat="45.25506" lon="2.8897">
        <ele>1057.209462</ele>
        <time>2021-07-08T10:57:07+0200</time>
      </trkpt>
      <trkpt lat="45.2551" lon="2.88961">
        <ele>1057.730718</ele>
        <time>2021-07-08T10:57:09+0200</time>
      </trkpt>
      <trkpt lat="45.25515" lon="2.88954">
        <ele>1058.169335</ele>
        <time>2021-07-08T10:57:11+0200</time>
      </trkpt>
      <trkpt lat="45.2552" lon="2.88947">
        <ele>1058.424654</ele>
        <time>2021-07-08T10:57:13+0200</time>
      </trkpt>
      <trkpt lat="45.25525" lon="2.88942">
        <ele>1058.793286</ele>
        <time>2021-07-08T10:57:15+0200</time>
      </trkpt>
      <trkpt lat="45.2553" lon="2.88936">
        <ele>1058.864505</ele>
        <time>2021-07-08T10:57:17+0200</time>
      </trkpt>
      <trkpt lat="45.25535" lon="2.8893">
        <ele>1059.2587</ele>
        <time>2021-07-08T10:57:19+0200</time>
      </trkpt>
      <trkpt lat="45.25539" lon="2.88922">
        <ele>1059.474776</ele>
        <time>2021-07-08T10:57:21+0200</time>
      </trkpt>
      <trkpt lat="45.25544" lon="2.88916">
        <ele>1059.564582</ele>
        <time>2021-07-08T10:57:23+0200</time>
      </trkpt>
      <trkpt lat="45.25546" lon="2.88909">
        <ele>1059.20081</ele>
        <time>2021-07-08T10:57:25+0200</time>
      </trkpt>
      <trkpt lat="45.25548" lon="2.88901">
        <ele>1058.686596</ele>
        <time>2021-07-08T10:57:28+0200</time>
      </trkpt>
      <trkpt lat="45.25549" lon="2.88894">
        <ele>1058.756742</ele>
        <time>2021-07-08T10:57:31+0200</time>
      </trkpt>
      <trkpt lat="45.25546" lon="2.88889">
        <ele>1060.136412</ele>
        <time>2021-07-08T10:58:05+0200</time>
      </trkpt>
      <trkpt lat="45.25546" lon="2.88895">
        <ele>1060.398837</ele>
        <time>2021-07-08T10:59:34+0200</time>
      </trkpt>
      <trkpt lat="45.25548" lon="2.88901">
        <ele>1060.825838</ele>
        <time>2021-07-08T11:00:07+0200</time>
      </trkpt>
      <trkpt lat="45.25545" lon="2.88909">
        <ele>1059.415202</ele>
        <time>2021-07-08T11:00:15+0200</time>
      </trkpt>
      <trkpt lat="45.25543" lon="2.88915">
        <ele>1058.948114</ele>
        <time>2021-07-08T11:00:17+0200</time>
      </trkpt>
      <trkpt lat="45.2554" lon="2.88922">
        <ele>1058.737582</ele>
        <time>2021-07-08T11:00:19+0200</time>
      </trkpt>
      <trkpt lat="45.25537" lon="2.88929">
        <ele>1058.578165</ele>
        <time>2021-07-08T11:00:21+0200</time>
      </trkpt>
      <trkpt lat="45.25531" lon="2.88934">
        <ele>1058.39449</ele>
        <time>2021-07-08T11:00:23+0200</time>
      </trkpt>
      <trkpt lat="45.25526" lon="2.88939">
        <ele>1058.379987</ele>
        <time>2021-07-08T11:00:25+0200</time>
      </trkpt>
      <trkpt lat="45.25521" lon="2.88945">
        <ele>1058.3382</ele>
        <time>2021-07-08T11:00:27+0200</time>
      </trkpt>
      <trkpt lat="45.25516" lon="2.88953">
        <ele>1058.094414</ele>
        <time>2021-07-08T11:00:29+0200</time>
      </trkpt>
      <trkpt lat="45.25511" lon="2.88959">
        <ele>1057.785863</ele>
        <time>2021-07-08T11:00:31+0200</time>
      </trkpt>
      <trkpt lat="45.25507" lon="2.88964">
        <ele>1057.745324</ele>
        <time>2021-07-08T11:00:33+0200</time>
      </trkpt>
      <trkpt lat="45.25503" lon="2.8897">
        <ele>1057.735278</ele>
        <time>2021-07-08T11:00:35+0200</time>
      </trkpt>
      <trkpt lat="45.25501" lon="2.88978">
        <ele>1058.01348</ele>
        <time>2021-07-08T11:00:37+0200</time>
      </trkpt>
      <trkpt lat="45.25498" lon="2.88986">
        <ele>1057.841678</ele>
        <time>2021-07-08T11:00:39+0200</time>
      </trkpt>
      <trkpt lat="45.25494" lon="2.88994">
        <ele>1057.87196</ele>
        <time>2021-07-08T11:00:41+0200</time>
      </trkpt>
      <trkpt lat="45.25492" lon="2.89002">
        <ele>1057.478112</ele>
        <time>2021-07-08T11:00:43+0200</time>
      </trkpt>
      <trkpt lat="45.25488" lon="2.89009">
        <ele>1057.502067</ele>
        <time>2021-07-08T11:00:45+0200</time>
      </trkpt>
      <trkpt lat="45.25485" lon="2.89018">
        <ele>1057.345522</ele>
        <time>2021-07-08T11:00:47+0200</time>
      </trkpt>
      <trkpt lat="45.25482" lon="2.89027">
        <ele>1057.852692</ele>
        <time>2021-07-08T11:00:49+0200</time>
      </trkpt>
      <trkpt lat="45.25478" lon="2.89035">
        <ele>1057.795462</ele>
        <time>2021-07-08T11:00:51+0200</time>
      </trkpt>
      <trkpt lat="45.25475" lon="2.89043">
        <ele>1056.795816</ele>
        <time>2021-07-08T11:00:53+0200</time>
      </trkpt>
      <trkpt lat="45.25471" lon="2.89051">
        <ele>1056.946456</ele>
        <time>2021-07-08T11:00:55+0200</time>
      </trkpt>
      <trkpt lat="45.25468" lon="2.8906">
        <ele>1057.206688</ele>
        <time>2021-07-08T11:00:57+0200</time>
      </trkpt>
      <trkpt lat="45.25465" lon="2.89067">
        <ele>1057.135799</ele>
        <time>2021-07-08T11:00:59+0200</time>
      </trkpt>
      <trkpt lat="45.25462" lon="2.89077">
        <ele>1056.833581</ele>
        <time>2021-07-08T11:01:01+0200</time>
      </trkpt>
      <trkpt lat="45.25458" lon="2.89086">
        <ele>1056.728303</ele>
        <time>2021-07-08T11:01:03+0200</time>
      </trkpt>
      <trkpt lat="45.25453" lon="2.89095">
        <ele>1056.560067</ele>
        <time>2021-07-08T11:01:05+0200</time>
      </trkpt>
      <trkpt lat="45.2545" lon="2.89106">
        <ele>1056.123608</ele>
        <time>2021-07-08T11:01:07+0200</time>
      </trkpt>
      <trkpt lat="45.25447" lon="2.89112">
        <ele>1055.856487</ele>
        <time>2021-07-08T11:01:08+0200</time>
      </trkpt>
      <trkpt lat="45.25445" lon="2.89118">
        <ele>1055.721291</ele>
        <time>2021-07-08T11:01:09+0200</time>
      </trkpt>
      <trkpt lat="45.25441" lon="2.89127">
        <ele>1055.458305</ele>
        <time>2021-07-08T11:01:11+0200</time>
      </trkpt>
      <trkpt lat="45.25438" lon="2.89132">
        <ele>1055.627422</ele>
        <time>2021-07-08T11:01:12+0200</time>
      </trkpt>
      <trkpt lat="45.25435" lon="2.89136">
        <ele>1055.719149</ele>
        <time>2021-07-08T11:01:13+0200</time>
      </trkpt>
      <trkpt lat="45.25432" lon="2.89142">
        <ele>1055.495503</ele>
        <time>2021-07-08T11:01:14+0200</time>
      </trkpt>
      <trkpt lat="45.2543" lon="2.89147">
        <ele>1055.288972</ele>
        <time>2021-07-08T11:01:15+0200</time>
      </trkpt>
      <trkpt lat="45.25427" lon="2.89153">
        <ele>1055.180724</ele>
        <time>2021-07-08T11:01:16+0200</time>
      </trkpt>
      <trkpt lat="45.25424" lon="2.89159">
        <ele>1055.007468</ele>
        <time>2021-07-08T11:01:17+0200</time>
      </trkpt>
      <trkpt lat="45.25422" lon="2.89166">
        <ele>1054.990294</ele>
        <time>2021-07-08T11:01:18+0200</time>
      </trkpt>
      <trkpt lat="45.25419" lon="2.89171">
        <ele>1054.741438</ele>
        <time>2021-07-08T11:01:19+0200</time>
      </trkpt>
      <trkpt lat="45.25416" lon="2.89178">
        <ele>1054.500061</ele>
        <time>2021-07-08T11:01:20+0200</time>
      </trkpt>
      <trkpt lat="45.25414" lon="2.89185">
        <ele>1054.198088</ele>
        <time>2021-07-08T11:01:21+0200</time>
      </trkpt>
      <trkpt lat="45.25411" lon="2.89192">
        <ele>1053.837453</ele>
        <time>2021-07-08T11:01:22+0200</time>
      </trkpt>
      <trkpt lat="45.25408" lon="2.89199">
        <ele>1053.616441</ele>
        <time>2021-07-08T11:01:23+0200</time>
      </trkpt>
      <trkpt lat="45.25405" lon="2.89206">
        <ele>1053.536922</ele>
        <time>2021-07-08T11:01:24+0200</time>
      </trkpt>
      <trkpt lat="45.25403" lon="2.89214">
        <ele>1053.475153</ele>
        <time>2021-07-08T11:01:25+0200</time>
      </trkpt>
      <trkpt lat="45.254" lon="2.89221">
        <ele>1053.520544</ele>
        <time>2021-07-08T11:01:26+0200</time>
      </trkpt>
      <trkpt lat="45.25397" lon="2.89228">
        <ele>1053.588733</ele>
        <time>2021-07-08T11:01:27+0200</time>
      </trkpt>
      <trkpt lat="45.25393" lon="2.89236">
        <ele>1053.543765</ele>
        <time>2021-07-08T11:01:28+0200</time>
      </trkpt>
      <trkpt lat="45.2539" lon="2.89244">
        <ele>1053.358784</ele>
        <time>2021-07-08T11:01:29+0200</time>
      </trkpt>
      <trkpt lat="45.25387" lon="2.89252">
        <ele>1052.886024</ele>
        <time>2021-07-08T11:01:30+0200</time>
      </trkpt>
      <trkpt lat="45.25383" lon="2.8926">
        <ele>1052.832089</ele>
        <time>2021-07-08T11:01:31+0200</time>
      </trkpt>
      <trkpt lat="45.25379" lon="2.89267">
        <ele>1052.577331</ele>
        <time>2021-07-08T11:01:32+0200</time>
      </trkpt>
      <trkpt lat="45.25375" lon="2.89276">
        <ele>1052.298373</ele>
        <time>2021-07-08T11:01:33+0200</time>
      </trkpt>
      <trkpt lat="45.25372" lon="2.89285">
        <ele>1052.103999</ele>
        <time>2021-07-08T11:01:34+0200</time>
      </trkpt>
      <trkpt lat="45.25369" lon="2.89293">
        <ele>1051.619777</ele>
        <time>2021-07-08T11:01:35+0200</time>
      </trkpt>
      <trkpt lat="45.25364" lon="2.89302">
        <ele>1050.88049</ele>
        <time>2021-07-08T11:01:36+0200</time>
      </trkpt>
      <trkpt lat="45.25361" lon="2.8931">
        <ele>1050.691204</ele>
        <time>2021-07-08T11:01:37+0200</time>
      </trkpt>
      <trkpt lat="45.25357" lon="2.89319">
        <ele>1050.323721</ele>
        <time>2021-07-08T11:01:38+0200</time>
      </trkpt>
      <trkpt lat="45.25354" lon="2.89328">
        <ele>1049.969726</ele>
        <time>2021-07-08T11:01:39+0200</time>
      </trkpt>
      <trkpt lat="45.2535" lon="2.89336">
        <ele>1049.440474</ele>
        <time>2021-07-08T11:01:40+0200</time>
      </trkpt>
      <trkpt lat="45.25347" lon="2.89346">
        <ele>1049.069654</ele>
        <time>2021-07-08T11:01:41+0200</time>
      </trkpt>
      <trkpt lat="45.25343" lon="2.89355">
        <ele>1048.873387</ele>
        <time>2021-07-08T11:01:42+0200</time>
      </trkpt>
      <trkpt lat="45.25339" lon="2.89364">
        <ele>1048.48792</ele>
        <time>2021-07-08T11:01:43+0200</time>
      </trkpt>
      <trkpt lat="45.25335" lon="2.89373">
        <ele>1048.393639</ele>
        <time>2021-07-08T11:01:44+0200</time>
      </trkpt>
      <trkpt lat="45.25332" lon="2.89382">
        <ele>1048.515197</ele>
        <time>2021-07-08T11:01:45+0200</time>
      </trkpt>
      <trkpt lat="45.25328" lon="2.89391">
        <ele>1048.768898</ele>
        <time>2021-07-08T11:01:46+0200</time>
      </trkpt>
      <trkpt lat="45.25324" lon="2.894">
        <ele>1048.904783</ele>
        <time>2021-07-08T11:01:47+0200</time>
      </trkpt>
      <trkpt lat="45.25321" lon="2.89407">
        <ele>1049.202688</ele>
        <time>2021-07-08T11:01:48+0200</time>
      </trkpt>
      <trkpt lat="45.25317" lon="2.89413">
        <ele>1049.619028</ele>
        <time>2021-07-08T11:01:49+0200</time>
      </trkpt>
      <trkpt lat="45.25313" lon="2.89419">
        <ele>1050.051951</ele>
        <time>2021-07-08T11:01:50+0200</time>
      </trkpt>
      <trkpt lat="45.25309" lon="2.89425">
        <ele>1049.870139</ele>
        <time>2021-07-08T11:01:51+0200</time>
      </trkpt>
      <trkpt lat="45.25305" lon="2.89431">
        <ele>1050.155957</ele>
        <time>2021-07-08T11:01:52+0200</time>
      </trkpt>
      <trkpt lat="45.253" lon="2.89437">
        <ele>1050.611803</ele>
        <time>2021-07-08T11:01:53+0200</time>
      </trkpt>
      <trkpt lat="45.25294" lon="2.89443">
        <ele>1051.042207</ele>
        <time>2021-07-08T11:01:54+0200</time>
      </trkpt>
      <trkpt lat="45.25289" lon="2.89448">
        <ele>1051.371098</ele>
        <time>2021-07-08T11:01:55+0200</time>
      </trkpt>
      <trkpt lat="45.25286" lon="2.89453">
        <ele>1051.391612</ele>
        <time>2021-07-08T11:01:56+0200</time>
      </trkpt>
      <trkpt lat="45.25281" lon="2.89457">
        <ele>1051.731595</ele>
        <time>2021-07-08T11:01:57+0200</time>
      </trkpt>
      <trkpt lat="45.25276" lon="2.8946">
        <ele>1052.163198</ele>
        <time>2021-07-08T11:01:58+0200</time>
      </trkpt>
      <trkpt lat="45.25272" lon="2.89464">
        <ele>1052.427944</ele>
        <time>2021-07-08T11:01:59+0200</time>
      </trkpt>
      <trkpt lat="45.25268" lon="2.89467">
        <ele>1052.737793</ele>
        <time>2021-07-08T11:02:00+0200</time>
      </trkpt>
      <trkpt lat="45.25264" lon="2.8947">
        <ele>1052.965872</ele>
        <time>2021-07-08T11:02:01+0200</time>
      </trkpt>
      <trkpt lat="45.2526" lon="2.89474">
        <ele>1053.289801</ele>
        <time>2021-07-08T11:02:02+0200</time>
      </trkpt>
      <trkpt lat="45.25252" lon="2.8948">
        <ele>1053.446366</ele>
        <time>2021-07-08T11:02:04+0200</time>
      </trkpt>
      <trkpt lat="45.25245" lon="2.89486">
        <ele>1053.802923</ele>
        <time>2021-07-08T11:02:06+0200</time>
      </trkpt>
      <trkpt lat="45.2524" lon="2.89491">
        <ele>1053.840091</ele>
        <time>2021-07-08T11:02:08+0200</time>
      </trkpt>
      <trkpt lat="45.25235" lon="2.89495">
        <ele>1054.084043</ele>
        <time>2021-07-08T11:02:10+0200</time>
      </trkpt>
      <trkpt lat="45.2523" lon="2.89498">
        <ele>1054.358925</ele>
        <time>2021-07-08T11:02:13+0200</time>
      </trkpt>
      <trkpt lat="45.25226" lon="2.89503">
        <ele>1054.20022</ele>
        <time>2021-07-08T11:02:18+0200</time>
      </trkpt>
      <trkpt lat="45.2522" lon="2.89506">
        <ele>1053.837381</ele>
        <time>2021-07-08T11:02:36+0200</time>
      </trkpt>
      <trkpt lat="45.25214" lon="2.8951">
        <ele>1054.162771</ele>
        <time>2021-07-08T11:02:39+0200</time>
      </trkpt>
      <trkpt lat="45.25209" lon="2.89512">
        <ele>1054.313027</ele>
        <time>2021-07-08T11:02:41+0200</time>
      </trkpt>
      <trkpt lat="45.25204" lon="2.89514">
        <ele>1054.482995</ele>
        <time>2021-07-08T11:02:43+0200</time>
      </trkpt>
      <trkpt lat="45.25199" lon="2.89516">
        <ele>1054.7183</ele>
        <time>2021-07-08T11:02:45+0200</time>
      </trkpt>
      <trkpt lat="45.25193" lon="2.89517">
        <ele>1054.36336</ele>
        <time>2021-07-08T11:02:47+0200</time>
      </trkpt>
      <trkpt lat="45.25186" lon="2.89519">
        <ele>1054.035643</ele>
        <time>2021-07-08T11:02:49+0200</time>
      </trkpt>
      <trkpt lat="45.2518" lon="2.89522">
        <ele>1053.648597</ele>
        <time>2021-07-08T11:02:51+0200</time>
      </trkpt>
      <trkpt lat="45.25174" lon="2.89527">
        <ele>1053.316824</ele>
        <time>2021-07-08T11:02:54+0200</time>
      </trkpt>
      <trkpt lat="45.25171" lon="2.89532">
        <ele>1053.318197</ele>
        <time>2021-07-08T11:02:57+0200</time>
      </trkpt>
      <trkpt lat="45.25167" lon="2.89539">
        <ele>1053.529691</ele>
        <time>2021-07-08T11:03:00+0200</time>
      </trkpt>
      <trkpt lat="45.25166" lon="2.89546">
        <ele>1054.29289</ele>
        <time>2021-07-08T11:03:02+0200</time>
      </trkpt>
      <trkpt lat="45.25164" lon="2.89555">
        <ele>1054.604172</ele>
        <time>2021-07-08T11:03:04+0200</time>
      </trkpt>
      <trkpt lat="45.2516" lon="2.89561">
        <ele>1054.503396</ele>
        <time>2021-07-08T11:03:06+0200</time>
      </trkpt>
      <trkpt lat="45.25153" lon="2.89565">
        <ele>1054.730084</ele>
        <time>2021-07-08T11:03:08+0200</time>
      </trkpt>
      <trkpt lat="45.25149" lon="2.89567">
        <ele>1054.572706</ele>
        <time>2021-07-08T11:03:09+0200</time>
      </trkpt>
      <trkpt lat="45.2514" lon="2.8957">
        <ele>1054.331114</ele>
        <time>2021-07-08T11:03:11+0200</time>
      </trkpt>
      <trkpt lat="45.25136" lon="2.89573">
        <ele>1054.484694</ele>
        <time>2021-07-08T11:03:12+0200</time>
      </trkpt>
      <trkpt lat="45.25131" lon="2.89574">
        <ele>1054.4171</ele>
        <time>2021-07-08T11:03:13+0200</time>
      </trkpt>
      <trkpt lat="45.25126" lon="2.89576">
        <ele>1054.400387</ele>
        <time>2021-07-08T11:03:14+0200</time>
      </trkpt>
      <trkpt lat="45.25122" lon="2.89577">
        <ele>1054.475135</ele>
        <time>2021-07-08T11:03:15+0200</time>
      </trkpt>
      <trkpt lat="45.25117" lon="2.8958">
        <ele>1054.473333</ele>
        <time>2021-07-08T11:03:16+0200</time>
      </trkpt>
      <trkpt lat="45.25112" lon="2.89581">
        <ele>1054.583409</ele>
        <time>2021-07-08T11:03:17+0200</time>
      </trkpt>
      <trkpt lat="45.25106" lon="2.89584">
        <ele>1054.473074</ele>
        <time>2021-07-08T11:03:18+0200</time>
      </trkpt>
      <trkpt lat="45.251" lon="2.89587">
        <ele>1054.377401</ele>
        <time>2021-07-08T11:03:19+0200</time>
      </trkpt>
      <trkpt lat="45.25094" lon="2.89589">
        <ele>1054.468693</ele>
        <time>2021-07-08T11:03:20+0200</time>
      </trkpt>
      <trkpt lat="45.25088" lon="2.89592">
        <ele>1054.323392</ele>
        <time>2021-07-08T11:03:21+0200</time>
      </trkpt>
      <trkpt lat="45.25082" lon="2.89594">
        <ele>1054.374827</ele>
        <time>2021-07-08T11:03:22+0200</time>
      </trkpt>
      <trkpt lat="45.25076" lon="2.89597">
        <ele>1054.377774</ele>
        <time>2021-07-08T11:03:23+0200</time>
      </trkpt>
      <trkpt lat="45.25071" lon="2.896">
        <ele>1054.194441</ele>
        <time>2021-07-08T11:03:24+0200</time>
      </trkpt>
      <trkpt lat="45.25065" lon="2.89603">
        <ele>1054.023779</ele>
        <time>2021-07-08T11:03:25+0200</time>
      </trkpt>
      <trkpt lat="45.25059" lon="2.89605">
        <ele>1053.906244</ele>
        <time>2021-07-08T11:03:26+0200</time>
      </trkpt>
      <trkpt lat="45.25053" lon="2.89608">
        <ele>1053.423078</ele>
        <time>2021-07-08T11:03:27+0200</time>
      </trkpt>
      <trkpt lat="45.25047" lon="2.8961">
        <ele>1052.941002</ele>
        <time>2021-07-08T11:03:28+0200</time>
      </trkpt>
      <trkpt lat="45.25041" lon="2.89613">
        <ele>1052.67965</ele>
        <time>2021-07-08T11:03:29+0200</time>
      </trkpt>
      <trkpt lat="45.25035" lon="2.89616">
        <ele>1052.895051</ele>
        <time>2021-07-08T11:03:30+0200</time>
      </trkpt>
      <trkpt lat="45.25029" lon="2.89618">
        <ele>1052.694569</ele>
        <time>2021-07-08T11:03:31+0200</time>
      </trkpt>
      <trkpt lat="45.25022" lon="2.8962">
        <ele>1052.610019</ele>
        <time>2021-07-08T11:03:32+0200</time>
      </trkpt>
      <trkpt lat="45.25015" lon="2.89622">
        <ele>1052.611666</ele>
        <time>2021-07-08T11:03:33+0200</time>
      </trkpt>
      <trkpt lat="45.25008" lon="2.89625">
        <ele>1052.456127</ele>
        <time>2021-07-08T11:03:34+0200</time>
      </trkpt>
      <trkpt lat="45.25001" lon="2.89628">
        <ele>1052.604228</ele>
        <time>2021-07-08T11:03:35+0200</time>
      </trkpt>
      <trkpt lat="45.24994" lon="2.8963">
        <ele>1052.734078</ele>
        <time>2021-07-08T11:03:36+0200</time>
      </trkpt>
      <trkpt lat="45.24987" lon="2.89634">
        <ele>1052.989849</ele>
        <time>2021-07-08T11:03:37+0200</time>
      </trkpt>
      <trkpt lat="45.24979" lon="2.89637">
        <ele>1053.295269</ele>
        <time>2021-07-08T11:03:38+0200</time>
      </trkpt>
      <trkpt lat="45.24972" lon="2.89641">
        <ele>1053.474033</ele>
        <time>2021-07-08T11:03:39+0200</time>
      </trkpt>
      <trkpt lat="45.24965" lon="2.89645">
        <ele>1053.681699</ele>
        <time>2021-07-08T11:03:40+0200</time>
      </trkpt>
      <trkpt lat="45.24958" lon="2.8965">
        <ele>1053.773585</ele>
        <time>2021-07-08T11:03:41+0200</time>
      </trkpt>
      <trkpt lat="45.24951" lon="2.89655">
        <ele>1053.787719</ele>
        <time>2021-07-08T11:03:42+0200</time>
      </trkpt>
      <trkpt lat="45.24944" lon="2.89659">
        <ele>1053.85392</ele>
        <time>2021-07-08T11:03:43+0200</time>
      </trkpt>
      <trkpt lat="45.24938" lon="2.89665">
        <ele>1053.901256</ele>
        <time>2021-07-08T11:03:44+0200</time>
      </trkpt>
      <trkpt lat="45.24931" lon="2.89672">
        <ele>1053.912928</ele>
        <time>2021-07-08T11:03:45+0200</time>
      </trkpt>
      <trkpt lat="45.24925" lon="2.89678">
        <ele>1053.954165</ele>
        <time>2021-07-08T11:03:46+0200</time>
      </trkpt>
      <trkpt lat="45.24919" lon="2.89685">
        <ele>1053.573242</ele>
        <time>2021-07-08T11:03:47+0200</time>
      </trkpt>
      <trkpt lat="45.24914" lon="2.89692">
        <ele>1053.016616</ele>
        <time>2021-07-08T11:03:48+0200</time>
      </trkpt>
      <trkpt lat="45.24909" lon="2.897">
        <ele>1052.344007</ele>
        <time>2021-07-08T11:03:49+0200</time>
      </trkpt>
      <trkpt lat="45.24904" lon="2.89707">
        <ele>1051.690564</ele>
        <time>2021-07-08T11:03:50+0200</time>
      </trkpt>
      <trkpt lat="45.24899" lon="2.89716">
        <ele>1050.722718</ele>
        <time>2021-07-08T11:03:51+0200</time>
      </trkpt>
      <trkpt lat="45.24895" lon="2.89725">
        <ele>1049.938365</ele>
        <time>2021-07-08T11:03:52+0200</time>
      </trkpt>
      <trkpt lat="45.24891" lon="2.89735">
        <ele>1049.440206</ele>
        <time>2021-07-08T11:03:53+0200</time>
      </trkpt>
      <trkpt lat="45.24887" lon="2.89744">
        <ele>1048.869831</ele>
        <time>2021-07-08T11:03:54+0200</time>
      </trkpt>
      <trkpt lat="45.24884" lon="2.89753">
        <ele>1048.2028</ele>
        <time>2021-07-08T11:03:55+0200</time>
      </trkpt>
      <trkpt lat="45.2488" lon="2.89763">
        <ele>1047.684874</ele>
        <time>2021-07-08T11:03:56+0200</time>
      </trkpt>
      <trkpt lat="45.24877" lon="2.89774">
        <ele>1047.182732</ele>
        <time>2021-07-08T11:03:57+0200</time>
      </trkpt>
      <trkpt lat="45.24874" lon="2.89784">
        <ele>1046.78305</ele>
        <time>2021-07-08T11:03:58+0200</time>
      </trkpt>
      <trkpt lat="45.24871" lon="2.89795">
        <ele>1046.529639</ele>
        <time>2021-07-08T11:03:59+0200</time>
      </trkpt>
      <trkpt lat="45.24868" lon="2.89806">
        <ele>1046.25952</ele>
        <time>2021-07-08T11:04:00+0200</time>
      </trkpt>
      <trkpt lat="45.24865" lon="2.89817">
        <ele>1046.101579</ele>
        <time>2021-07-08T11:04:01+0200</time>
      </trkpt>
      <trkpt lat="45.24862" lon="2.89829">
        <ele>1045.920474</ele>
        <time>2021-07-08T11:04:02+0200</time>
      </trkpt>
      <trkpt lat="45.24859" lon="2.8984">
        <ele>1045.745535</ele>
        <time>2021-07-08T11:04:03+0200</time>
      </trkpt>
      <trkpt lat="45.24857" lon="2.89853">
        <ele>1045.98857</ele>
        <time>2021-07-08T11:04:04+0200</time>
      </trkpt>
      <trkpt lat="45.24854" lon="2.89864">
        <ele>1045.795149</ele>
        <time>2021-07-08T11:04:05+0200</time>
      </trkpt>
      <trkpt lat="45.24852" lon="2.89876">
        <ele>1045.725721</ele>
        <time>2021-07-08T11:04:06+0200</time>
      </trkpt>
      <trkpt lat="45.2485" lon="2.89888">
        <ele>1045.477319</ele>
        <time>2021-07-08T11:04:07+0200</time>
      </trkpt>
      <trkpt lat="45.24848" lon="2.899">
        <ele>1045.339543</ele>
        <time>2021-07-08T11:04:08+0200</time>
      </trkpt>
      <trkpt lat="45.24846" lon="2.89912">
        <ele>1045.197289</ele>
        <time>2021-07-08T11:04:09+0200</time>
      </trkpt>
      <trkpt lat="45.24844" lon="2.89924">
        <ele>1044.925776</ele>
        <time>2021-07-08T11:04:10+0200</time>
      </trkpt>
      <trkpt lat="45.24843" lon="2.89936">
        <ele>1044.731154</ele>
        <time>2021-07-08T11:04:11+0200</time>
      </trkpt>
      <trkpt lat="45.24841" lon="2.89948">
        <ele>1044.512519</ele>
        <time>2021-07-08T11:04:12+0200</time>
      </trkpt>
      <trkpt lat="45.2484" lon="2.8996">
        <ele>1044.330558</ele>
        <time>2021-07-08T11:04:13+0200</time>
      </trkpt>
      <trkpt lat="45.24838" lon="2.89972">
        <ele>1044.008742</ele>
        <time>2021-07-08T11:04:14+0200</time>
      </trkpt>
      <trkpt lat="45.24836" lon="2.89983">
        <ele>1043.917784</ele>
        <time>2021-07-08T11:04:15+0200</time>
      </trkpt>
      <trkpt lat="45.24833" lon="2.89995">
        <ele>1043.513295</ele>
        <time>2021-07-08T11:04:16+0200</time>
      </trkpt>
      <trkpt lat="45.24831" lon="2.90006">
        <ele>1043.292035</ele>
        <time>2021-07-08T11:04:17+0200</time>
      </trkpt>
      <trkpt lat="45.24828" lon="2.90018">
        <ele>1043.057991</ele>
        <time>2021-07-08T11:04:18+0200</time>
      </trkpt>
      <trkpt lat="45.24826" lon="2.90029">
        <ele>1042.88513</ele>
        <time>2021-07-08T11:04:19+0200</time>
      </trkpt>
      <trkpt lat="45.24823" lon="2.90041">
        <ele>1042.585418</ele>
        <time>2021-07-08T11:04:20+0200</time>
      </trkpt>
      <trkpt lat="45.2482" lon="2.90053">
        <ele>1042.48488</ele>
        <time>2021-07-08T11:04:21+0200</time>
      </trkpt>
      <trkpt lat="45.24817" lon="2.90066">
        <ele>1042.516845</ele>
        <time>2021-07-08T11:04:22+0200</time>
      </trkpt>
      <trkpt lat="45.24815" lon="2.90078">
        <ele>1042.385811</ele>
        <time>2021-07-08T11:04:23+0200</time>
      </trkpt>
      <trkpt lat="45.24813" lon="2.90091">
        <ele>1042.201402</ele>
        <time>2021-07-08T11:04:24+0200</time>
      </trkpt>
      <trkpt lat="45.24812" lon="2.90105">
        <ele>1041.71286</ele>
        <time>2021-07-08T11:04:25+0200</time>
      </trkpt>
      <trkpt lat="45.24813" lon="2.90118">
        <ele>1041.416235</ele>
        <time>2021-07-08T11:04:26+0200</time>
      </trkpt>
      <trkpt lat="45.24814" lon="2.90132">
        <ele>1041.103313</ele>
        <time>2021-07-08T11:04:27+0200</time>
      </trkpt>
      <trkpt lat="45.24816" lon="2.90146">
        <ele>1040.751442</ele>
        <time>2021-07-08T11:04:28+0200</time>
      </trkpt>
      <trkpt lat="45.24818" lon="2.90159">
        <ele>1040.238046</ele>
        <time>2021-07-08T11:04:29+0200</time>
      </trkpt>
      <trkpt lat="45.2482" lon="2.90172">
        <ele>1039.876212</ele>
        <time>2021-07-08T11:04:30+0200</time>
      </trkpt>
      <trkpt lat="45.24822" lon="2.90185">
        <ele>1039.617128</ele>
        <time>2021-07-08T11:04:31+0200</time>
      </trkpt>
      <trkpt lat="45.24823" lon="2.90198">
        <ele>1039.559991</ele>
        <time>2021-07-08T11:04:32+0200</time>
      </trkpt>
      <trkpt lat="45.24824" lon="2.9021">
        <ele>1039.328524</ele>
        <time>2021-07-08T11:04:33+0200</time>
      </trkpt>
      <trkpt lat="45.24826" lon="2.90222">
        <ele>1039.294526</ele>
        <time>2021-07-08T11:04:34+0200</time>
      </trkpt>
      <trkpt lat="45.24828" lon="2.90234">
        <ele>1038.932206</ele>
        <time>2021-07-08T11:04:35+0200</time>
      </trkpt>
      <trkpt lat="45.2483" lon="2.90246">
        <ele>1039.144648</ele>
        <time>2021-07-08T11:04:36+0200</time>
      </trkpt>
      <trkpt lat="45.24831" lon="2.90259">
        <ele>1039.036504</ele>
        <time>2021-07-08T11:04:37+0200</time>
      </trkpt>
      <trkpt lat="45.24831" lon="2.90272">
        <ele>1038.933097</ele>
        <time>2021-07-08T11:04:38+0200</time>
      </trkpt>
      <trkpt lat="45.24832" lon="2.90285">
        <ele>1038.685627</ele>
        <time>2021-07-08T11:04:39+0200</time>
      </trkpt>
      <trkpt lat="45.24831" lon="2.90298">
        <ele>1038.374102</ele>
        <time>2021-07-08T11:04:40+0200</time>
      </trkpt>
      <trkpt lat="45.24829" lon="2.90311">
        <ele>1037.696882</ele>
        <time>2021-07-08T11:04:41+0200</time>
      </trkpt>
      <trkpt lat="45.24826" lon="2.90324">
        <ele>1037.208699</ele>
        <time>2021-07-08T11:04:42+0200</time>
      </trkpt>
      <trkpt lat="45.24823" lon="2.90337">
        <ele>1036.751515</ele>
        <time>2021-07-08T11:04:43+0200</time>
      </trkpt>
      <trkpt lat="45.24819" lon="2.90349">
        <ele>1036.167982</ele>
        <time>2021-07-08T11:04:44+0200</time>
      </trkpt>
      <trkpt lat="45.24814" lon="2.9036">
        <ele>1036.112116</ele>
        <time>2021-07-08T11:04:45+0200</time>
      </trkpt>
      <trkpt lat="45.24808" lon="2.9037">
        <ele>1036.146182</ele>
        <time>2021-07-08T11:04:46+0200</time>
      </trkpt>
      <trkpt lat="45.24802" lon="2.90379">
        <ele>1036.131912</ele>
        <time>2021-07-08T11:04:47+0200</time>
      </trkpt>
      <trkpt lat="45.24795" lon="2.90388">
        <ele>1036.083525</ele>
        <time>2021-07-08T11:04:48+0200</time>
      </trkpt>
      <trkpt lat="45.24788" lon="2.90397">
        <ele>1035.978064</ele>
        <time>2021-07-08T11:04:49+0200</time>
      </trkpt>
      <trkpt lat="45.24781" lon="2.90406">
        <ele>1035.903759</ele>
        <time>2021-07-08T11:04:50+0200</time>
      </trkpt>
      <trkpt lat="45.24774" lon="2.90416">
        <ele>1036.002667</ele>
        <time>2021-07-08T11:04:51+0200</time>
      </trkpt>
      <trkpt lat="45.24767" lon="2.90425">
        <ele>1036.077205</ele>
        <time>2021-07-08T11:04:52+0200</time>
      </trkpt>
      <trkpt lat="45.2476" lon="2.90434">
        <ele>1035.910225</ele>
        <time>2021-07-08T11:04:53+0200</time>
      </trkpt>
      <trkpt lat="45.24753" lon="2.90444">
        <ele>1035.995592</ele>
        <time>2021-07-08T11:04:54+0200</time>
      </trkpt>
      <trkpt lat="45.24746" lon="2.90453">
        <ele>1036.105768</ele>
        <time>2021-07-08T11:04:55+0200</time>
      </trkpt>
      <trkpt lat="45.2474" lon="2.90462">
        <ele>1036.245936</ele>
        <time>2021-07-08T11:04:56+0200</time>
      </trkpt>
      <trkpt lat="45.24732" lon="2.90471">
        <ele>1035.67805</ele>
        <time>2021-07-08T11:04:57+0200</time>
      </trkpt>
      <trkpt lat="45.24726" lon="2.9048">
        <ele>1035.477431</ele>
        <time>2021-07-08T11:04:58+0200</time>
      </trkpt>
      <trkpt lat="45.24719" lon="2.9049">
        <ele>1035.077625</ele>
        <time>2021-07-08T11:04:59+0200</time>
      </trkpt>
      <trkpt lat="45.24713" lon="2.905">
        <ele>1034.791678</ele>
        <time>2021-07-08T11:05:00+0200</time>
      </trkpt>
      <trkpt lat="45.24707" lon="2.90511">
        <ele>1034.332821</ele>
        <time>2021-07-08T11:05:01+0200</time>
      </trkpt>
      <trkpt lat="45.24701" lon="2.90521">
        <ele>1033.651712</ele>
        <time>2021-07-08T11:05:02+0200</time>
      </trkpt>
      <trkpt lat="45.24695" lon="2.90532">
        <ele>1033.404598</ele>
        <time>2021-07-08T11:05:03+0200</time>
      </trkpt>
      <trkpt lat="45.24689" lon="2.90544">
        <ele>1033.151135</ele>
        <time>2021-07-08T11:05:04+0200</time>
      </trkpt>
      <trkpt lat="45.24684" lon="2.90555">
        <ele>1032.757939</ele>
        <time>2021-07-08T11:05:05+0200</time>
      </trkpt>
      <trkpt lat="45.24678" lon="2.90566">
        <ele>1032.285605</ele>
        <time>2021-07-08T11:05:06+0200</time>
      </trkpt>
      <trkpt lat="45.24673" lon="2.90578">
        <ele>1032.210601</ele>
        <time>2021-07-08T11:05:07+0200</time>
      </trkpt>
      <trkpt lat="45.24667" lon="2.9059">
        <ele>1032.184898</ele>
        <time>2021-07-08T11:05:08+0200</time>
      </trkpt>
      <trkpt lat="45.24662" lon="2.90602">
        <ele>1032.094983</ele>
        <time>2021-07-08T11:05:09+0200</time>
      </trkpt>
      <trkpt lat="45.24656" lon="2.90614">
        <ele>1031.842359</ele>
        <time>2021-07-08T11:05:10+0200</time>
      </trkpt>
      <trkpt lat="45.24651" lon="2.90626">
        <ele>1031.742425</ele>
        <time>2021-07-08T11:05:11+0200</time>
      </trkpt>
      <trkpt lat="45.24646" lon="2.90638">
        <ele>1031.597434</ele>
        <time>2021-07-08T11:05:12+0200</time>
      </trkpt>
      <trkpt lat="45.24641" lon="2.90651">
        <ele>1031.344363</ele>
        <time>2021-07-08T11:05:13+0200</time>
      </trkpt>
      <trkpt lat="45.24636" lon="2.90663">
        <ele>1031.334138</ele>
        <time>2021-07-08T11:05:14+0200</time>
      </trkpt>
      <trkpt lat="45.24632" lon="2.90677">
        <ele>1031.54228</ele>
        <time>2021-07-08T11:05:15+0200</time>
      </trkpt>
      <trkpt lat="45.24629" lon="2.9069">
        <ele>1031.650022</ele>
        <time>2021-07-08T11:05:16+0200</time>
      </trkpt>
      <trkpt lat="45.24626" lon="2.90704">
        <ele>1031.299908</ele>
        <time>2021-07-08T11:05:17+0200</time>
      </trkpt>
      <trkpt lat="45.24623" lon="2.90718">
        <ele>1030.964529</ele>
        <time>2021-07-08T11:05:18+0200</time>
      </trkpt>
      <trkpt lat="45.24621" lon="2.90732">
        <ele>1031.110983</ele>
        <time>2021-07-08T11:05:19+0200</time>
      </trkpt>
      <trkpt lat="45.24618" lon="2.90747">
        <ele>1030.906104</ele>
        <time>2021-07-08T11:05:20+0200</time>
      </trkpt>
      <trkpt lat="45.24616" lon="2.90762">
        <ele>1030.813559</ele>
        <time>2021-07-08T11:05:21+0200</time>
      </trkpt>
      <trkpt lat="45.24614" lon="2.90776">
        <ele>1030.568936</ele>
        <time>2021-07-08T11:05:22+0200</time>
      </trkpt>
      <trkpt lat="45.2461" lon="2.9079">
        <ele>1030.416538</ele>
        <time>2021-07-08T11:05:23+0200</time>
      </trkpt>
      <trkpt lat="45.24608" lon="2.90804">
        <ele>1030.47177</ele>
        <time>2021-07-08T11:05:24+0200</time>
      </trkpt>
      <trkpt lat="45.24604" lon="2.90818">
        <ele>1030.291274</ele>
        <time>2021-07-08T11:05:25+0200</time>
      </trkpt>
      <trkpt lat="45.24602" lon="2.90831">
        <ele>1029.983957</ele>
        <time>2021-07-08T11:05:26+0200</time>
      </trkpt>
      <trkpt lat="45.24599" lon="2.90844">
        <ele>1029.265623</ele>
        <time>2021-07-08T11:05:27+0200</time>
      </trkpt>
      <trkpt lat="45.24596" lon="2.90857">
        <ele>1028.354624</ele>
        <time>2021-07-08T11:05:28+0200</time>
      </trkpt>
      <trkpt lat="45.24592" lon="2.90871">
        <ele>1028.103371</ele>
        <time>2021-07-08T11:05:29+0200</time>
      </trkpt>
      <trkpt lat="45.24587" lon="2.90883">
        <ele>1027.689848</ele>
        <time>2021-07-08T11:05:30+0200</time>
      </trkpt>
      <trkpt lat="45.24583" lon="2.90896">
        <ele>1027.415855</ele>
        <time>2021-07-08T11:05:31+0200</time>
      </trkpt>
      <trkpt lat="45.24579" lon="2.90908">
        <ele>1027.207953</ele>
        <time>2021-07-08T11:05:32+0200</time>
      </trkpt>
      <trkpt lat="45.24574" lon="2.90919">
        <ele>1026.548791</ele>
        <time>2021-07-08T11:05:33+0200</time>
      </trkpt>
      <trkpt lat="45.24569" lon="2.9093">
        <ele>1026.342308</ele>
        <time>2021-07-08T11:05:34+0200</time>
      </trkpt>
      <trkpt lat="45.24564" lon="2.90941">
        <ele>1026.012618</ele>
        <time>2021-07-08T11:05:35+0200</time>
      </trkpt>
      <trkpt lat="45.24559" lon="2.90953">
        <ele>1025.82293</ele>
        <time>2021-07-08T11:05:36+0200</time>
      </trkpt>
      <trkpt lat="45.24554" lon="2.90965">
        <ele>1025.582424</ele>
        <time>2021-07-08T11:05:37+0200</time>
      </trkpt>
      <trkpt lat="45.24549" lon="2.90977">
        <ele>1025.496262</ele>
        <time>2021-07-08T11:05:38+0200</time>
      </trkpt>
      <trkpt lat="45.24544" lon="2.90989">
        <ele>1025.204463</ele>
        <time>2021-07-08T11:05:39+0200</time>
      </trkpt>
      <trkpt lat="45.24539" lon="2.91002">
        <ele>1025.14585</ele>
        <time>2021-07-08T11:05:40+0200</time>
      </trkpt>
      <trkpt lat="45.24535" lon="2.91014">
        <ele>1024.961474</ele>
        <time>2021-07-08T11:05:41+0200</time>
      </trkpt>
      <trkpt lat="45.24531" lon="2.91028">
        <ele>1024.502749</ele>
        <time>2021-07-08T11:05:42+0200</time>
      </trkpt>
      <trkpt lat="45.24527" lon="2.91042">
        <ele>1023.997152</ele>
        <time>2021-07-08T11:05:43+0200</time>
      </trkpt>
      <trkpt lat="45.24523" lon="2.91055">
        <ele>1023.823494</ele>
        <time>2021-07-08T11:05:44+0200</time>
      </trkpt>
      <trkpt lat="45.24519" lon="2.91068">
        <ele>1023.653166</ele>
        <time>2021-07-08T11:05:45+0200</time>
      </trkpt>
      <trkpt lat="45.24516" lon="2.91081">
        <ele>1023.513162</ele>
        <time>2021-07-08T11:05:46+0200</time>
      </trkpt>
      <trkpt lat="45.24514" lon="2.91094">
        <ele>1023.635373</ele>
        <time>2021-07-08T11:05:47+0200</time>
      </trkpt>
      <trkpt lat="45.24511" lon="2.91109">
        <ele>1023.166543</ele>
        <time>2021-07-08T11:05:48+0200</time>
      </trkpt>
      <trkpt lat="45.2451" lon="2.91122">
        <ele>1023.05649</ele>
        <time>2021-07-08T11:05:49+0200</time>
      </trkpt>
      <trkpt lat="45.24508" lon="2.91137">
        <ele>1022.641335</ele>
        <time>2021-07-08T11:05:50+0200</time>
      </trkpt>
      <trkpt lat="45.24507" lon="2.91151">
        <ele>1021.86861</ele>
        <time>2021-07-08T11:05:51+0200</time>
      </trkpt>
      <trkpt lat="45.24507" lon="2.91165">
        <ele>1021.405592</ele>
        <time>2021-07-08T11:05:52+0200</time>
      </trkpt>
      <trkpt lat="45.24506" lon="2.9118">
        <ele>1020.647531</ele>
        <time>2021-07-08T11:05:53+0200</time>
      </trkpt>
      <trkpt lat="45.24506" lon="2.91194">
        <ele>1020.146003</ele>
        <time>2021-07-08T11:05:54+0200</time>
      </trkpt>
      <trkpt lat="45.24506" lon="2.91208">
        <ele>1019.57497</ele>
        <time>2021-07-08T11:05:55+0200</time>
      </trkpt>
      <trkpt lat="45.24506" lon="2.91223">
        <ele>1019.195516</ele>
        <time>2021-07-08T11:05:56+0200</time>
      </trkpt>
      <trkpt lat="45.24508" lon="2.91237">
        <ele>1018.875561</ele>
        <time>2021-07-08T11:05:57+0200</time>
      </trkpt>
      <trkpt lat="45.2451" lon="2.91251">
        <ele>1018.483666</ele>
        <time>2021-07-08T11:05:58+0200</time>
      </trkpt>
      <trkpt lat="45.24511" lon="2.91265">
        <ele>1018.386208</ele>
        <time>2021-07-08T11:05:59+0200</time>
      </trkpt>
      <trkpt lat="45.24513" lon="2.91279">
        <ele>1018.091774</ele>
        <time>2021-07-08T11:06:00+0200</time>
      </trkpt>
      <trkpt lat="45.24516" lon="2.91292">
        <ele>1017.902938</ele>
        <time>2021-07-08T11:06:01+0200</time>
      </trkpt>
      <trkpt lat="45.24519" lon="2.91306">
        <ele>1017.63629</ele>
        <time>2021-07-08T11:06:02+0200</time>
      </trkpt>
      <trkpt lat="45.24522" lon="2.91319">
        <ele>1017.246325</ele>
        <time>2021-07-08T11:06:03+0200</time>
      </trkpt>
      <trkpt lat="45.24525" lon="2.91331">
        <ele>1016.95758</ele>
        <time>2021-07-08T11:06:04+0200</time>
      </trkpt>
      <trkpt lat="45.24529" lon="2.91344">
        <ele>1016.83627</ele>
        <time>2021-07-08T11:06:05+0200</time>
      </trkpt>
      <trkpt lat="45.24533" lon="2.91355">
        <ele>1016.584981</ele>
        <time>2021-07-08T11:06:06+0200</time>
      </trkpt>
      <trkpt lat="45.24537" lon="2.91366">
        <ele>1016.222696</ele>
        <time>2021-07-08T11:06:07+0200</time>
      </trkpt>
      <trkpt lat="45.24542" lon="2.91377">
        <ele>1015.8514</ele>
        <time>2021-07-08T11:06:08+0200</time>
      </trkpt>
      <trkpt lat="45.24546" lon="2.91387">
        <ele>1015.391139</ele>
        <time>2021-07-08T11:06:09+0200</time>
      </trkpt>
      <trkpt lat="45.24551" lon="2.91398">
        <ele>1015.189793</ele>
        <time>2021-07-08T11:06:10+0200</time>
      </trkpt>
      <trkpt lat="45.24556" lon="2.91409">
        <ele>1014.998162</ele>
        <time>2021-07-08T11:06:11+0200</time>
      </trkpt>
      <trkpt lat="45.24561" lon="2.9142">
        <ele>1014.602082</ele>
        <time>2021-07-08T11:06:12+0200</time>
      </trkpt>
      <trkpt lat="45.24566" lon="2.9143">
        <ele>1014.456772</ele>
        <time>2021-07-08T11:06:13+0200</time>
      </trkpt>
      <trkpt lat="45.2457" lon="2.91441">
        <ele>1014.074969</ele>
        <time>2021-07-08T11:06:14+0200</time>
      </trkpt>
      <trkpt lat="45.24575" lon="2.91451">
        <ele>1014.194593</ele>
        <time>2021-07-08T11:06:15+0200</time>
      </trkpt>
      <trkpt lat="45.24579" lon="2.91461">
        <ele>1014.248291</ele>
        <time>2021-07-08T11:06:16+0200</time>
      </trkpt>
      <trkpt lat="45.24583" lon="2.91472">
        <ele>1014.151731</ele>
        <time>2021-07-08T11:06:17+0200</time>
      </trkpt>
      <trkpt lat="45.24588" lon="2.91482">
        <ele>1014.167809</ele>
        <time>2021-07-08T11:06:18+0200</time>
      </trkpt>
      <trkpt lat="45.24592" lon="2.91492">
        <ele>1014.180849</ele>
        <time>2021-07-08T11:06:19+0200</time>
      </trkpt>
      <trkpt lat="45.24596" lon="2.91501">
        <ele>1014.21402</ele>
        <time>2021-07-08T11:06:20+0200</time>
      </trkpt>
      <trkpt lat="45.246" lon="2.9151">
        <ele>1014.141898</ele>
        <time>2021-07-08T11:06:21+0200</time>
      </trkpt>
      <trkpt lat="45.24604" lon="2.9152">
        <ele>1014.006277</ele>
        <time>2021-07-08T11:06:22+0200</time>
      </trkpt>
      <trkpt lat="45.24608" lon="2.91529">
        <ele>1013.631692</ele>
        <time>2021-07-08T11:06:23+0200</time>
      </trkpt>
      <trkpt lat="45.24612" lon="2.91538">
        <ele>1013.362079</ele>
        <time>2021-07-08T11:06:24+0200</time>
      </trkpt>
      <trkpt lat="45.24616" lon="2.91548">
        <ele>1013.22515</ele>
        <time>2021-07-08T11:06:25+0200</time>
      </trkpt>
      <trkpt lat="45.2462" lon="2.91556">
        <ele>1013.060418</ele>
        <time>2021-07-08T11:06:26+0200</time>
      </trkpt>
      <trkpt lat="45.24623" lon="2.91566">
        <ele>1012.953048</ele>
        <time>2021-07-08T11:06:27+0200</time>
      </trkpt>
      <trkpt lat="45.24628" lon="2.91575">
        <ele>1012.781761</ele>
        <time>2021-07-08T11:06:28+0200</time>
      </trkpt>
      <trkpt lat="45.24632" lon="2.91583">
        <ele>1012.602341</ele>
        <time>2021-07-08T11:06:29+0200</time>
      </trkpt>
      <trkpt lat="45.24636" lon="2.91592">
        <ele>1012.384034</ele>
        <time>2021-07-08T11:06:30+0200</time>
      </trkpt>
      <trkpt lat="45.24639" lon="2.916">
        <ele>1012.127223</ele>
        <time>2021-07-08T11:06:31+0200</time>
      </trkpt>
      <trkpt lat="45.24643" lon="2.9161">
        <ele>1011.823705</ele>
        <time>2021-07-08T11:06:32+0200</time>
      </trkpt>
      <trkpt lat="45.24647" lon="2.9162">
        <ele>1011.275526</ele>
        <time>2021-07-08T11:06:33+0200</time>
      </trkpt>
      <trkpt lat="45.24651" lon="2.91629">
        <ele>1011.174274</ele>
        <time>2021-07-08T11:06:34+0200</time>
      </trkpt>
      <trkpt lat="45.24655" lon="2.91639">
        <ele>1010.948705</ele>
        <time>2021-07-08T11:06:35+0200</time>
      </trkpt>
      <trkpt lat="45.2466" lon="2.91649">
        <ele>1010.856388</ele>
        <time>2021-07-08T11:06:36+0200</time>
      </trkpt>
      <trkpt lat="45.24664" lon="2.91659">
        <ele>1010.800418</ele>
        <time>2021-07-08T11:06:37+0200</time>
      </trkpt>
      <trkpt lat="45.24667" lon="2.91669">
        <ele>1010.61014</ele>
        <time>2021-07-08T11:06:38+0200</time>
      </trkpt>
      <trkpt lat="45.24672" lon="2.91679">
        <ele>1010.524131</ele>
        <time>2021-07-08T11:06:39+0200</time>
      </trkpt>
      <trkpt lat="45.24676" lon="2.91689">
        <ele>1010.387544</ele>
        <time>2021-07-08T11:06:40+0200</time>
      </trkpt>
      <trkpt lat="45.2468" lon="2.91698">
        <ele>1010.11924</ele>
        <time>2021-07-08T11:06:41+0200</time>
      </trkpt>
      <trkpt lat="45.24685" lon="2.91708">
        <ele>1009.744432</ele>
        <time>2021-07-08T11:06:42+0200</time>
      </trkpt>
      <trkpt lat="45.24689" lon="2.91718">
        <ele>1009.427072</ele>
        <time>2021-07-08T11:06:43+0200</time>
      </trkpt>
      <trkpt lat="45.24694" lon="2.91727">
        <ele>1008.996944</ele>
        <time>2021-07-08T11:06:44+0200</time>
      </trkpt>
      <trkpt lat="45.24698" lon="2.91737">
        <ele>1008.384133</ele>
        <time>2021-07-08T11:06:45+0200</time>
      </trkpt>
      <trkpt lat="45.24701" lon="2.91748">
        <ele>1007.988626</ele>
        <time>2021-07-08T11:06:46+0200</time>
      </trkpt>
      <trkpt lat="45.24705" lon="2.91759">
        <ele>1007.693692</ele>
        <time>2021-07-08T11:06:47+0200</time>
      </trkpt>
      <trkpt lat="45.24709" lon="2.91769">
        <ele>1007.553718</ele>
        <time>2021-07-08T11:06:48+0200</time>
      </trkpt>
      <trkpt lat="45.24712" lon="2.91781">
        <ele>1007.509124</ele>
        <time>2021-07-08T11:06:49+0200</time>
      </trkpt>
      <trkpt lat="45.24714" lon="2.91793">
        <ele>1007.562146</ele>
        <time>2021-07-08T11:06:50+0200</time>
      </trkpt>
      <trkpt lat="45.24715" lon="2.91806">
        <ele>1007.354101</ele>
        <time>2021-07-08T11:06:51+0200</time>
      </trkpt>
      <trkpt lat="45.24716" lon="2.91818">
        <ele>1007.458821</ele>
        <time>2021-07-08T11:06:52+0200</time>
      </trkpt>
      <trkpt lat="45.24716" lon="2.91831">
        <ele>1007.331107</ele>
        <time>2021-07-08T11:06:53+0200</time>
      </trkpt>
      <trkpt lat="45.24716" lon="2.91844">
        <ele>1007.164833</ele>
        <time>2021-07-08T11:06:54+0200</time>
      </trkpt>
      <trkpt lat="45.24716" lon="2.91857">
        <ele>1006.936319</ele>
        <time>2021-07-08T11:06:55+0200</time>
      </trkpt>
      <trkpt lat="45.24715" lon="2.9187">
        <ele>1006.921759</ele>
        <time>2021-07-08T11:06:56+0200</time>
      </trkpt>
      <trkpt lat="45.24712" lon="2.91884">
        <ele>1006.708807</ele>
        <time>2021-07-08T11:06:57+0200</time>
      </trkpt>
      <trkpt lat="45.2471" lon="2.91897">
        <ele>1006.355621</ele>
        <time>2021-07-08T11:06:58+0200</time>
      </trkpt>
      <trkpt lat="45.24707" lon="2.9191">
        <ele>1006.05436</ele>
        <time>2021-07-08T11:06:59+0200</time>
      </trkpt>
      <trkpt lat="45.24703" lon="2.91921">
        <ele>1005.717394</ele>
        <time>2021-07-08T11:07:00+0200</time>
      </trkpt>
      <trkpt lat="45.24699" lon="2.91933">
        <ele>1005.344793</ele>
        <time>2021-07-08T11:07:01+0200</time>
      </trkpt>
      <trkpt lat="45.24693" lon="2.91945">
        <ele>1004.840655</ele>
        <time>2021-07-08T11:07:02+0200</time>
      </trkpt>
      <trkpt lat="45.24687" lon="2.91955">
        <ele>1004.462096</ele>
        <time>2021-07-08T11:07:03+0200</time>
      </trkpt>
      <trkpt lat="45.24681" lon="2.91965">
        <ele>1004.112267</ele>
        <time>2021-07-08T11:07:04+0200</time>
      </trkpt>
      <trkpt lat="45.24674" lon="2.91974">
        <ele>1003.976502</ele>
        <time>2021-07-08T11:07:05+0200</time>
      </trkpt>
      <trkpt lat="45.24667" lon="2.91982">
        <ele>1004.070263</ele>
        <time>2021-07-08T11:07:06+0200</time>
      </trkpt>
      <trkpt lat="45.24659" lon="2.9199">
        <ele>1003.791989</ele>
        <time>2021-07-08T11:07:07+0200</time>
      </trkpt>
      <trkpt lat="45.24651" lon="2.91997">
        <ele>1003.526095</ele>
        <time>2021-07-08T11:07:08+0200</time>
      </trkpt>
      <trkpt lat="45.24643" lon="2.92003">
        <ele>1003.32776</ele>
        <time>2021-07-08T11:07:09+0200</time>
      </trkpt>
      <trkpt lat="45.24634" lon="2.92009">
        <ele>1003.24046</ele>
        <time>2021-07-08T11:07:10+0200</time>
      </trkpt>
      <trkpt lat="45.24626" lon="2.92015">
        <ele>1003.053905</ele>
        <time>2021-07-08T11:07:11+0200</time>
      </trkpt>
      <trkpt lat="45.24618" lon="2.9202">
        <ele>1002.897153</ele>
        <time>2021-07-08T11:07:12+0200</time>
      </trkpt>
      <trkpt lat="45.24609" lon="2.92026">
        <ele>1002.660506</ele>
        <time>2021-07-08T11:07:13+0200</time>
      </trkpt>
      <trkpt lat="45.24601" lon="2.92033">
        <ele>1002.447337</ele>
        <time>2021-07-08T11:07:14+0200</time>
      </trkpt>
      <trkpt lat="45.24593" lon="2.92039">
        <ele>1002.183585</ele>
        <time>2021-07-08T11:07:15+0200</time>
      </trkpt>
      <trkpt lat="45.24584" lon="2.92044">
        <ele>1002.150538</ele>
        <time>2021-07-08T11:07:16+0200</time>
      </trkpt>
      <trkpt lat="45.24576" lon="2.9205">
        <ele>1001.813563</ele>
        <time>2021-07-08T11:07:17+0200</time>
      </trkpt>
      <trkpt lat="45.24568" lon="2.92057">
        <ele>1001.586707</ele>
        <time>2021-07-08T11:07:18+0200</time>
      </trkpt>
      <trkpt lat="45.2456" lon="2.92064">
        <ele>1001.304472</ele>
        <time>2021-07-08T11:07:19+0200</time>
      </trkpt>
      <trkpt lat="45.24552" lon="2.92072">
        <ele>1001.070216</ele>
        <time>2021-07-08T11:07:20+0200</time>
      </trkpt>
      <trkpt lat="45.24544" lon="2.92078">
        <ele>1000.892566</ele>
        <time>2021-07-08T11:07:21+0200</time>
      </trkpt>
      <trkpt lat="45.24536" lon="2.92086">
        <ele>1000.586772</ele>
        <time>2021-07-08T11:07:22+0200</time>
      </trkpt>
      <trkpt lat="45.24529" lon="2.92092">
        <ele>1000.319987</ele>
        <time>2021-07-08T11:07:23+0200</time>
      </trkpt>
      <trkpt lat="45.24521" lon="2.921">
        <ele>999.868</ele>
        <time>2021-07-08T11:07:24+0200</time>
      </trkpt>
      <trkpt lat="45.24514" lon="2.92108">
        <ele>999.626804</ele>
        <time>2021-07-08T11:07:25+0200</time>
      </trkpt>
      <trkpt lat="45.24506" lon="2.92114">
        <ele>999.363471</ele>
        <time>2021-07-08T11:07:26+0200</time>
      </trkpt>
      <trkpt lat="45.24499" lon="2.92121">
        <ele>999.046465</ele>
        <time>2021-07-08T11:07:27+0200</time>
      </trkpt>
      <trkpt lat="45.24492" lon="2.92128">
        <ele>999.143401</ele>
        <time>2021-07-08T11:07:28+0200</time>
      </trkpt>
      <trkpt lat="45.24485" lon="2.92137">
        <ele>998.915935</ele>
        <time>2021-07-08T11:07:29+0200</time>
      </trkpt>
      <trkpt lat="45.24479" lon="2.92147">
        <ele>998.858803</ele>
        <time>2021-07-08T11:07:30+0200</time>
      </trkpt>
      <trkpt lat="45.24474" lon="2.92157">
        <ele>998.7848</ele>
        <time>2021-07-08T11:07:31+0200</time>
      </trkpt>
      <trkpt lat="45.24469" lon="2.92168">
        <ele>998.662845</ele>
        <time>2021-07-08T11:07:32+0200</time>
      </trkpt>
      <trkpt lat="45.24465" lon="2.92179">
        <ele>998.564884</ele>
        <time>2021-07-08T11:07:33+0200</time>
      </trkpt>
      <trkpt lat="45.24463" lon="2.92192">
        <ele>998.485592</ele>
        <time>2021-07-08T11:07:34+0200</time>
      </trkpt>
      <trkpt lat="45.24459" lon="2.92205">
        <ele>998.715516</ele>
        <time>2021-07-08T11:07:35+0200</time>
      </trkpt>
      <trkpt lat="45.24456" lon="2.92217">
        <ele>998.648183</ele>
        <time>2021-07-08T11:07:36+0200</time>
      </trkpt>
      <trkpt lat="45.24453" lon="2.9223">
        <ele>998.553525</ele>
        <time>2021-07-08T11:07:37+0200</time>
      </trkpt>
      <trkpt lat="45.2445" lon="2.92243">
        <ele>998.37446</ele>
        <time>2021-07-08T11:07:38+0200</time>
      </trkpt>
      <trkpt lat="45.24447" lon="2.92255">
        <ele>998.326204</ele>
        <time>2021-07-08T11:07:39+0200</time>
      </trkpt>
      <trkpt lat="45.24444" lon="2.92269">
        <ele>998.172669</ele>
        <time>2021-07-08T11:07:40+0200</time>
      </trkpt>
      <trkpt lat="45.24441" lon="2.92281">
        <ele>997.683021</ele>
        <time>2021-07-08T11:07:41+0200</time>
      </trkpt>
      <trkpt lat="45.24438" lon="2.92295">
        <ele>997.600705</ele>
        <time>2021-07-08T11:07:42+0200</time>
      </trkpt>
      <trkpt lat="45.24434" lon="2.92308">
        <ele>997.255989</ele>
        <time>2021-07-08T11:07:43+0200</time>
      </trkpt>
      <trkpt lat="45.2443" lon="2.92321">
        <ele>996.795044</ele>
        <time>2021-07-08T11:07:44+0200</time>
      </trkpt>
      <trkpt lat="45.24426" lon="2.92333">
        <ele>996.545898</ele>
        <time>2021-07-08T11:07:45+0200</time>
      </trkpt>
      <trkpt lat="45.24421" lon="2.92345">
        <ele>996.308204</ele>
        <time>2021-07-08T11:07:46+0200</time>
      </trkpt>
      <trkpt lat="45.24416" lon="2.92356">
        <ele>995.872012</ele>
        <time>2021-07-08T11:07:47+0200</time>
      </trkpt>
      <trkpt lat="45.24411" lon="2.92368">
        <ele>995.435541</ele>
        <time>2021-07-08T11:07:48+0200</time>
      </trkpt>
      <trkpt lat="45.24405" lon="2.9238">
        <ele>995.11913</ele>
        <time>2021-07-08T11:07:49+0200</time>
      </trkpt>
      <trkpt lat="45.24398" lon="2.92391">
        <ele>994.691243</ele>
        <time>2021-07-08T11:07:50+0200</time>
      </trkpt>
      <trkpt lat="45.24392" lon="2.92402">
        <ele>994.234304</ele>
        <time>2021-07-08T11:07:51+0200</time>
      </trkpt>
      <trkpt lat="45.24386" lon="2.92412">
        <ele>994.424039</ele>
        <time>2021-07-08T11:07:52+0200</time>
      </trkpt>
      <trkpt lat="45.2438" lon="2.92422">
        <ele>993.876765</ele>
        <time>2021-07-08T11:07:53+0200</time>
      </trkpt>
      <trkpt lat="45.24373" lon="2.92432">
        <ele>993.557487</ele>
        <time>2021-07-08T11:07:54+0200</time>
      </trkpt>
      <trkpt lat="45.24366" lon="2.92442">
        <ele>993.235781</ele>
        <time>2021-07-08T11:07:55+0200</time>
      </trkpt>
      <trkpt lat="45.2436" lon="2.92451">
        <ele>992.820014</ele>
        <time>2021-07-08T11:07:56+0200</time>
      </trkpt>
      <trkpt lat="45.24353" lon="2.92461">
        <ele>992.870913</ele>
        <time>2021-07-08T11:07:57+0200</time>
      </trkpt>
      <trkpt lat="45.24346" lon="2.9247">
        <ele>992.522137</ele>
        <time>2021-07-08T11:07:58+0200</time>
      </trkpt>
      <trkpt lat="45.24339" lon="2.92479">
        <ele>992.403125</ele>
        <time>2021-07-08T11:07:59+0200</time>
      </trkpt>
      <trkpt lat="45.24333" lon="2.92488">
        <ele>992.238266</ele>
        <time>2021-07-08T11:08:00+0200</time>
      </trkpt>
      <trkpt lat="45.24327" lon="2.92497">
        <ele>992.100189</ele>
        <time>2021-07-08T11:08:01+0200</time>
      </trkpt>
      <trkpt lat="45.2432" lon="2.92506">
        <ele>991.963167</ele>
        <time>2021-07-08T11:08:02+0200</time>
      </trkpt>
      <trkpt lat="45.24314" lon="2.92515">
        <ele>991.825168</ele>
        <time>2021-07-08T11:08:03+0200</time>
      </trkpt>
      <trkpt lat="45.24308" lon="2.92525">
        <ele>991.78954</ele>
        <time>2021-07-08T11:08:04+0200</time>
      </trkpt>
      <trkpt lat="45.24301" lon="2.92534">
        <ele>991.669606</ele>
        <time>2021-07-08T11:08:05+0200</time>
      </trkpt>
      <trkpt lat="45.24295" lon="2.92542">
        <ele>991.544257</ele>
        <time>2021-07-08T11:08:06+0200</time>
      </trkpt>
      <trkpt lat="45.24289" lon="2.92551">
        <ele>991.504646</ele>
        <time>2021-07-08T11:08:07+0200</time>
      </trkpt>
      <trkpt lat="45.24282" lon="2.92559">
        <ele>991.204176</ele>
        <time>2021-07-08T11:08:08+0200</time>
      </trkpt>
      <trkpt lat="45.24276" lon="2.92568">
        <ele>991.152867</ele>
        <time>2021-07-08T11:08:09+0200</time>
      </trkpt>
      <trkpt lat="45.2427" lon="2.92576">
        <ele>991.154261</ele>
        <time>2021-07-08T11:08:10+0200</time>
      </trkpt>
      <trkpt lat="45.24264" lon="2.92585">
        <ele>991.172515</ele>
        <time>2021-07-08T11:08:11+0200</time>
      </trkpt>
      <trkpt lat="45.24258" lon="2.92593">
        <ele>991.050506</ele>
        <time>2021-07-08T11:08:12+0200</time>
      </trkpt>
      <trkpt lat="45.24253" lon="2.92602">
        <ele>991.174285</ele>
        <time>2021-07-08T11:08:13+0200</time>
      </trkpt>
      <trkpt lat="45.24247" lon="2.92609">
        <ele>991.231869</ele>
        <time>2021-07-08T11:08:14+0200</time>
      </trkpt>
      <trkpt lat="45.24241" lon="2.92617">
        <ele>991.157623</ele>
        <time>2021-07-08T11:08:15+0200</time>
      </trkpt>
      <trkpt lat="45.24236" lon="2.92625">
        <ele>991.280588</ele>
        <time>2021-07-08T11:08:16+0200</time>
      </trkpt>
      <trkpt lat="45.2423" lon="2.92633">
        <ele>991.336355</ele>
        <time>2021-07-08T11:08:17+0200</time>
      </trkpt>
      <trkpt lat="45.24225" lon="2.92641">
        <ele>991.315345</ele>
        <time>2021-07-08T11:08:18+0200</time>
      </trkpt>
      <trkpt lat="45.24219" lon="2.92648">
        <ele>991.199438</ele>
        <time>2021-07-08T11:08:19+0200</time>
      </trkpt>
      <trkpt lat="45.24213" lon="2.92655">
        <ele>991.231904</ele>
        <time>2021-07-08T11:08:20+0200</time>
      </trkpt>
      <trkpt lat="45.24208" lon="2.92663">
        <ele>991.242539</ele>
        <time>2021-07-08T11:08:21+0200</time>
      </trkpt>
      <trkpt lat="45.24203" lon="2.9267">
        <ele>991.363676</ele>
        <time>2021-07-08T11:08:22+0200</time>
      </trkpt>
      <trkpt lat="45.24197" lon="2.92677">
        <ele>991.418098</ele>
        <time>2021-07-08T11:08:23+0200</time>
      </trkpt>
      <trkpt lat="45.24192" lon="2.92685">
        <ele>991.532212</ele>
        <time>2021-07-08T11:08:24+0200</time>
      </trkpt>
      <trkpt lat="45.24187" lon="2.92692">
        <ele>991.658301</ele>
        <time>2021-07-08T11:08:25+0200</time>
      </trkpt>
      <trkpt lat="45.24182" lon="2.92699">
        <ele>991.523727</ele>
        <time>2021-07-08T11:08:26+0200</time>
      </trkpt>
      <trkpt lat="45.24177" lon="2.92706">
        <ele>991.009983</ele>
        <time>2021-07-08T11:08:27+0200</time>
      </trkpt>
      <trkpt lat="45.24172" lon="2.92712">
        <ele>990.433735</ele>
        <time>2021-07-08T11:08:28+0200</time>
      </trkpt>
      <trkpt lat="45.24167" lon="2.92719">
        <ele>990.281219</ele>
        <time>2021-07-08T11:08:29+0200</time>
      </trkpt>
      <trkpt lat="45.24163" lon="2.92726">
        <ele>990.657776</ele>
        <time>2021-07-08T11:08:30+0200</time>
      </trkpt>
      <trkpt lat="45.24158" lon="2.92732">
        <ele>990.404269</ele>
        <time>2021-07-08T11:08:31+0200</time>
      </trkpt>
      <trkpt lat="45.24154" lon="2.92739">
        <ele>990.553383</ele>
        <time>2021-07-08T11:08:32+0200</time>
      </trkpt>
      <trkpt lat="45.24149" lon="2.92745">
        <ele>990.435091</ele>
        <time>2021-07-08T11:08:33+0200</time>
      </trkpt>
      <trkpt lat="45.24144" lon="2.92752">
        <ele>990.425156</ele>
        <time>2021-07-08T11:08:34+0200</time>
      </trkpt>
      <trkpt lat="45.24139" lon="2.92759">
        <ele>990.434024</ele>
        <time>2021-07-08T11:08:35+0200</time>
      </trkpt>
      <trkpt lat="45.24135" lon="2.92766">
        <ele>990.62006</ele>
        <time>2021-07-08T11:08:36+0200</time>
      </trkpt>
      <trkpt lat="45.24131" lon="2.92773">
        <ele>990.145523</ele>
        <time>2021-07-08T11:08:37+0200</time>
      </trkpt>
      <trkpt lat="45.24126" lon="2.9278">
        <ele>989.679817</ele>
        <time>2021-07-08T11:08:38+0200</time>
      </trkpt>
      <trkpt lat="45.24122" lon="2.92787">
        <ele>989.452307</ele>
        <time>2021-07-08T11:08:39+0200</time>
      </trkpt>
      <trkpt lat="45.24117" lon="2.92793">
        <ele>989.368914</ele>
        <time>2021-07-08T11:08:40+0200</time>
      </trkpt>
      <trkpt lat="45.24112" lon="2.928">
        <ele>988.930061</ele>
        <time>2021-07-08T11:08:41+0200</time>
      </trkpt>
      <trkpt lat="45.24108" lon="2.92808">
        <ele>988.878863</ele>
        <time>2021-07-08T11:08:42+0200</time>
      </trkpt>
      <trkpt lat="45.24103" lon="2.92815">
        <ele>988.774313</ele>
        <time>2021-07-08T11:08:43+0200</time>
      </trkpt>
      <trkpt lat="45.24097" lon="2.92822">
        <ele>988.36961</ele>
        <time>2021-07-08T11:08:44+0200</time>
      </trkpt>
      <trkpt lat="45.24091" lon="2.92827">
        <ele>987.760981</ele>
        <time>2021-07-08T11:08:45+0200</time>
      </trkpt>
      <trkpt lat="45.24085" lon="2.92835">
        <ele>987.507032</ele>
        <time>2021-07-08T11:08:46+0200</time>
      </trkpt>
      <trkpt lat="45.2408" lon="2.92843">
        <ele>987.277886</ele>
        <time>2021-07-08T11:08:47+0200</time>
      </trkpt>
      <trkpt lat="45.24075" lon="2.9285">
        <ele>986.974327</ele>
        <time>2021-07-08T11:08:48+0200</time>
      </trkpt>
      <trkpt lat="45.24069" lon="2.92857">
        <ele>986.664602</ele>
        <time>2021-07-08T11:08:49+0200</time>
      </trkpt>
      <trkpt lat="45.24064" lon="2.92865">
        <ele>986.293952</ele>
        <time>2021-07-08T11:08:50+0200</time>
      </trkpt>
      <trkpt lat="45.24058" lon="2.92873">
        <ele>985.900262</ele>
        <time>2021-07-08T11:08:51+0200</time>
      </trkpt>
      <trkpt lat="45.24053" lon="2.9288">
        <ele>985.400695</ele>
        <time>2021-07-08T11:08:52+0200</time>
      </trkpt>
      <trkpt lat="45.24049" lon="2.92885">
        <ele>985.220904</ele>
        <time>2021-07-08T11:08:53+0200</time>
      </trkpt>
      <trkpt lat="45.24046" lon="2.92891">
        <ele>985.305561</ele>
        <time>2021-07-08T11:08:54+0200</time>
      </trkpt>
      <trkpt lat="45.2404" lon="2.92898">
        <ele>984.965467</ele>
        <time>2021-07-08T11:08:56+0200</time>
      </trkpt>
      <trkpt lat="45.24036" lon="2.92895">
        <ele>984.342255</ele>
        <time>2021-07-08T11:08:58+0200</time>
      </trkpt>
      <trkpt lat="45.2403" lon="2.92892">
        <ele>985.236447</ele>
        <time>2021-07-08T11:09:37+0200</time>
      </trkpt>
      <trkpt lat="45.24026" lon="2.92889">
        <ele>984.983086</ele>
        <time>2021-07-08T11:09:39+0200</time>
      </trkpt>
      <trkpt lat="45.24021" lon="2.92882">
        <ele>984.1423</ele>
        <time>2021-07-08T11:09:41+0200</time>
      </trkpt>
      <trkpt lat="45.24016" lon="2.92876">
        <ele>983.798084</ele>
        <time>2021-07-08T11:09:43+0200</time>
      </trkpt>
      <trkpt lat="45.24011" lon="2.92869">
        <ele>984.100136</ele>
        <time>2021-07-08T11:09:45+0200</time>
      </trkpt>
      <trkpt lat="45.24007" lon="2.92863">
        <ele>984.698467</ele>
        <time>2021-07-08T11:09:47+0200</time>
      </trkpt>
      <trkpt lat="45.24003" lon="2.92856">
        <ele>984.771225</ele>
        <time>2021-07-08T11:09:49+0200</time>
      </trkpt>
      <trkpt lat="45.24" lon="2.9285">
        <ele>984.762716</ele>
        <time>2021-07-08T11:09:51+0200</time>
      </trkpt>
      <trkpt lat="45.23998" lon="2.92844">
        <ele>985.755633</ele>
        <time>2021-07-08T11:09:53+0200</time>
      </trkpt>
      <trkpt lat="45.23995" lon="2.92838">
        <ele>986.455082</ele>
        <time>2021-07-08T11:09:55+0200</time>
      </trkpt>
      <trkpt lat="45.2399" lon="2.9283">
        <ele>986.19804</ele>
        <time>2021-07-08T11:09:57+0200</time>
      </trkpt>
      <trkpt lat="45.23985" lon="2.92822">
        <ele>986.592332</ele>
        <time>2021-07-08T11:09:59+0200</time>
      </trkpt>
      <trkpt lat="45.23981" lon="2.92816">
        <ele>986.614099</ele>
        <time>2021-07-08T11:10:00+0200</time>
      </trkpt>
      <trkpt lat="45.23979" lon="2.92809">
        <ele>986.331034</ele>
        <time>2021-07-08T11:10:01+0200</time>
      </trkpt>
      <trkpt lat="45.23978" lon="2.92803">
        <ele>985.992401</ele>
        <time>2021-07-08T11:10:02+0200</time>
      </trkpt>
      <trkpt lat="45.23975" lon="2.92796">
        <ele>985.795011</ele>
        <time>2021-07-08T11:10:03+0200</time>
      </trkpt>
      <trkpt lat="45.23973" lon="2.92788">
        <ele>984.23267</ele>
        <time>2021-07-08T11:10:04+0200</time>
      </trkpt>
      <trkpt lat="45.23972" lon="2.9278">
        <ele>984.118535</ele>
        <time>2021-07-08T11:10:05+0200</time>
      </trkpt>
      <trkpt lat="45.23972" lon="2.9277">
        <ele>984.17013</ele>
        <time>2021-07-08T11:10:06+0200</time>
      </trkpt>
      <trkpt lat="45.23967" lon="2.92761">
        <ele>984.233672</ele>
        <time>2021-07-08T11:10:07+0200</time>
      </trkpt>
      <trkpt lat="45.23961" lon="2.92758">
        <ele>983.723933</ele>
        <time>2021-07-08T11:10:08+0200</time>
      </trkpt>
      <trkpt lat="45.23954" lon="2.92759">
        <ele>984.228173</ele>
        <time>2021-07-08T11:10:09+0200</time>
      </trkpt>
      <trkpt lat="45.23948" lon="2.92762">
        <ele>984.1879</ele>
        <time>2021-07-08T11:10:10+0200</time>
      </trkpt>
      <trkpt lat="45.23943" lon="2.92766">
        <ele>984.10819</ele>
        <time>2021-07-08T11:10:11+0200</time>
      </trkpt>
      <trkpt lat="45.23937" lon="2.92768">
        <ele>983.852678</ele>
        <time>2021-07-08T11:10:12+0200</time>
      </trkpt>
      <trkpt lat="45.23932" lon="2.92771">
        <ele>983.708815</ele>
        <time>2021-07-08T11:10:13+0200</time>
      </trkpt>
      <trkpt lat="45.23927" lon="2.92773">
        <ele>983.268936</ele>
        <time>2021-07-08T11:10:14+0200</time>
      </trkpt>
      <trkpt lat="45.23923" lon="2.92775">
        <ele>983.576533</ele>
        <time>2021-07-08T11:10:15+0200</time>
      </trkpt>
      <trkpt lat="45.23918" lon="2.92777">
        <ele>983.469264</ele>
        <time>2021-07-08T11:10:16+0200</time>
      </trkpt>
      <trkpt lat="45.23913" lon="2.9278">
        <ele>982.979026</ele>
        <time>2021-07-08T11:10:17+0200</time>
      </trkpt>
      <trkpt lat="45.23909" lon="2.92782">
        <ele>982.559848</ele>
        <time>2021-07-08T11:10:18+0200</time>
      </trkpt>
      <trkpt lat="45.239" lon="2.92789">
        <ele>982.261814</ele>
        <time>2021-07-08T11:10:20+0200</time>
      </trkpt>
      <trkpt lat="45.23895" lon="2.92792">
        <ele>982.082102</ele>
        <time>2021-07-08T11:10:21+0200</time>
      </trkpt>
      <trkpt lat="45.2389" lon="2.92796">
        <ele>981.992291</ele>
        <time>2021-07-08T11:10:22+0200</time>
      </trkpt>
      <trkpt lat="45.23886" lon="2.92799">
        <ele>982.055943</ele>
        <time>2021-07-08T11:10:23+0200</time>
      </trkpt>
      <trkpt lat="45.23881" lon="2.92801">
        <ele>982.053997</ele>
        <time>2021-07-08T11:10:24+0200</time>
      </trkpt>
      <trkpt lat="45.23876" lon="2.92805">
        <ele>981.780887</ele>
        <time>2021-07-08T11:10:25+0200</time>
      </trkpt>
      <trkpt lat="45.23871" lon="2.92808">
        <ele>981.682109</ele>
        <time>2021-07-08T11:10:26+0200</time>
      </trkpt>
      <trkpt lat="45.23866" lon="2.92811">
        <ele>981.637346</ele>
        <time>2021-07-08T11:10:27+0200</time>
      </trkpt>
      <trkpt lat="45.23861" lon="2.92814">
        <ele>981.408207</ele>
        <time>2021-07-08T11:10:28+0200</time>
      </trkpt>
      <trkpt lat="45.23856" lon="2.92818">
        <ele>981.37514</ele>
        <time>2021-07-08T11:10:29+0200</time>
      </trkpt>
      <trkpt lat="45.23851" lon="2.92821">
        <ele>981.286109</ele>
        <time>2021-07-08T11:10:30+0200</time>
      </trkpt>
      <trkpt lat="45.23846" lon="2.92825">
        <ele>981.385137</ele>
        <time>2021-07-08T11:10:31+0200</time>
      </trkpt>
      <trkpt lat="45.23841" lon="2.92828">
        <ele>981.598308</ele>
        <time>2021-07-08T11:10:32+0200</time>
      </trkpt>
      <trkpt lat="45.23836" lon="2.92832">
        <ele>981.525845</ele>
        <time>2021-07-08T11:10:33+0200</time>
      </trkpt>
      <trkpt lat="45.23831" lon="2.92837">
        <ele>981.287552</ele>
        <time>2021-07-08T11:10:34+0200</time>
      </trkpt>
      <trkpt lat="45.23827" lon="2.9284">
        <ele>981.31996</ele>
        <time>2021-07-08T11:10:35+0200</time>
      </trkpt>
      <trkpt lat="45.23822" lon="2.92844">
        <ele>981.270977</ele>
        <time>2021-07-08T11:10:36+0200</time>
      </trkpt>
      <trkpt lat="45.23817" lon="2.92847">
        <ele>981.139351</ele>
        <time>2021-07-08T11:10:37+0200</time>
      </trkpt>
      <trkpt lat="45.23812" lon="2.92852">
        <ele>981.171503</ele>
        <time>2021-07-08T11:10:38+0200</time>
      </trkpt>
      <trkpt lat="45.23806" lon="2.92856">
        <ele>981.397864</ele>
        <time>2021-07-08T11:10:39+0200</time>
      </trkpt>
      <trkpt lat="45.23801" lon="2.92859">
        <ele>981.275566</ele>
        <time>2021-07-08T11:10:40+0200</time>
      </trkpt>
      <trkpt lat="45.23795" lon="2.92862">
        <ele>981.276338</ele>
        <time>2021-07-08T11:10:41+0200</time>
      </trkpt>
      <trkpt lat="45.2379" lon="2.92867">
        <ele>981.040967</ele>
        <time>2021-07-08T11:10:42+0200</time>
      </trkpt>
      <trkpt lat="45.23785" lon="2.92871">
        <ele>980.81763</ele>
        <time>2021-07-08T11:10:43+0200</time>
      </trkpt>
      <trkpt lat="45.23779" lon="2.92876">
        <ele>980.778133</ele>
        <time>2021-07-08T11:10:44+0200</time>
      </trkpt>
      <trkpt lat="45.23773" lon="2.92879">
        <ele>980.47542</ele>
        <time>2021-07-08T11:10:45+0200</time>
      </trkpt>
      <trkpt lat="45.23768" lon="2.92883">
        <ele>980.3557</ele>
        <time>2021-07-08T11:10:46+0200</time>
      </trkpt>
      <trkpt lat="45.23762" lon="2.92887">
        <ele>980.152592</ele>
        <time>2021-07-08T11:10:47+0200</time>
      </trkpt>
      <trkpt lat="45.23756" lon="2.9289">
        <ele>979.742223</ele>
        <time>2021-07-08T11:10:48+0200</time>
      </trkpt>
      <trkpt lat="45.2375" lon="2.92892">
        <ele>979.378564</ele>
        <time>2021-07-08T11:10:49+0200</time>
      </trkpt>
      <trkpt lat="45.23744" lon="2.92894">
        <ele>978.991024</ele>
        <time>2021-07-08T11:10:50+0200</time>
      </trkpt>
      <trkpt lat="45.23738" lon="2.92894">
        <ele>978.825738</ele>
        <time>2021-07-08T11:10:51+0200</time>
      </trkpt>
      <trkpt lat="45.23732" lon="2.92896">
        <ele>978.926422</ele>
        <time>2021-07-08T11:10:52+0200</time>
      </trkpt>
      <trkpt lat="45.23726" lon="2.92899">
        <ele>978.880097</ele>
        <time>2021-07-08T11:10:53+0200</time>
      </trkpt>
      <trkpt lat="45.2372" lon="2.92904">
        <ele>978.899623</ele>
        <time>2021-07-08T11:10:54+0200</time>
      </trkpt>
      <trkpt lat="45.23714" lon="2.9291">
        <ele>978.719421</ele>
        <time>2021-07-08T11:10:55+0200</time>
      </trkpt>
      <trkpt lat="45.2371" lon="2.92918">
        <ele>978.84592</ele>
        <time>2021-07-08T11:10:56+0200</time>
      </trkpt>
      <trkpt lat="45.23707" lon="2.92926">
        <ele>978.861526</ele>
        <time>2021-07-08T11:10:57+0200</time>
      </trkpt>
      <trkpt lat="45.23703" lon="2.92933">
        <ele>978.793516</ele>
        <time>2021-07-08T11:10:58+0200</time>
      </trkpt>
      <trkpt lat="45.237" lon="2.92941">
        <ele>978.574009</ele>
        <time>2021-07-08T11:10:59+0200</time>
      </trkpt>
      <trkpt lat="45.23694" lon="2.92947">
        <ele>977.954642</ele>
        <time>2021-07-08T11:11:00+0200</time>
      </trkpt>
      <trkpt lat="45.23688" lon="2.92949">
        <ele>977.888155</ele>
        <time>2021-07-08T11:11:01+0200</time>
      </trkpt>
      <trkpt lat="45.23683" lon="2.92948">
        <ele>977.882813</ele>
        <time>2021-07-08T11:11:02+0200</time>
      </trkpt>
      <trkpt lat="45.23677" lon="2.92945">
        <ele>978.249685</ele>
        <time>2021-07-08T11:11:03+0200</time>
      </trkpt>
      <trkpt lat="45.23672" lon="2.92946">
        <ele>978.589273</ele>
        <time>2021-07-08T11:11:04+0200</time>
      </trkpt>
      <trkpt lat="45.23668" lon="2.9295">
        <ele>978.575616</ele>
        <time>2021-07-08T11:11:05+0200</time>
      </trkpt>
      <trkpt lat="45.2366" lon="2.92959">
        <ele>978.69412</ele>
        <time>2021-07-08T11:11:07+0200</time>
      </trkpt>
      <trkpt lat="45.23654" lon="2.92967">
        <ele>978.548764</ele>
        <time>2021-07-08T11:11:09+0200</time>
      </trkpt>
      <trkpt lat="45.23649" lon="2.9297">
        <ele>978.210982</ele>
        <time>2021-07-08T11:11:10+0200</time>
      </trkpt>
      <trkpt lat="45.23644" lon="2.92972">
        <ele>978.438799</ele>
        <time>2021-07-08T11:11:11+0200</time>
      </trkpt>
      <trkpt lat="45.2364" lon="2.92975">
        <ele>978.30527</ele>
        <time>2021-07-08T11:11:12+0200</time>
      </trkpt>
      <trkpt lat="45.23635" lon="2.92976">
        <ele>978.491926</ele>
        <time>2021-07-08T11:11:13+0200</time>
      </trkpt>
      <trkpt lat="45.23627" lon="2.9298">
        <ele>979.100857</ele>
        <time>2021-07-08T11:11:15+0200</time>
      </trkpt>
      <trkpt lat="45.23622" lon="2.92981">
        <ele>979.200142</ele>
        <time>2021-07-08T11:11:16+0200</time>
      </trkpt>
      <trkpt lat="45.23616" lon="2.92982">
        <ele>979.672174</ele>
        <time>2021-07-08T11:11:17+0200</time>
      </trkpt>
      <trkpt lat="45.2361" lon="2.92984">
        <ele>979.389168</ele>
        <time>2021-07-08T11:11:18+0200</time>
      </trkpt>
      <trkpt lat="45.23605" lon="2.92986">
        <ele>979.597276</ele>
        <time>2021-07-08T11:11:19+0200</time>
      </trkpt>
      <trkpt lat="45.23599" lon="2.92987">
        <ele>979.626755</ele>
        <time>2021-07-08T11:11:20+0200</time>
      </trkpt>
      <trkpt lat="45.23594" lon="2.92989">
        <ele>979.553258</ele>
        <time>2021-07-08T11:11:21+0200</time>
      </trkpt>
      <trkpt lat="45.23588" lon="2.92992">
        <ele>979.510226</ele>
        <time>2021-07-08T11:11:22+0200</time>
      </trkpt>
      <trkpt lat="45.23583" lon="2.92995">
        <ele>979.681131</ele>
        <time>2021-07-08T11:11:23+0200</time>
      </trkpt>
      <trkpt lat="45.23577" lon="2.92998">
        <ele>979.805918</ele>
        <time>2021-07-08T11:11:24+0200</time>
      </trkpt>
      <trkpt lat="45.23571" lon="2.93001">
        <ele>979.989231</ele>
        <time>2021-07-08T11:11:25+0200</time>
      </trkpt>
      <trkpt lat="45.23566" lon="2.93006">
        <ele>979.880602</ele>
        <time>2021-07-08T11:11:26+0200</time>
      </trkpt>
      <trkpt lat="45.2356" lon="2.93011">
        <ele>979.340209</ele>
        <time>2021-07-08T11:11:27+0200</time>
      </trkpt>
      <trkpt lat="45.23555" lon="2.93016">
        <ele>979.1522</ele>
        <time>2021-07-08T11:11:28+0200</time>
      </trkpt>
      <trkpt lat="45.2355" lon="2.93021">
        <ele>978.913709</ele>
        <time>2021-07-08T11:11:29+0200</time>
      </trkpt>
      <trkpt lat="45.23545" lon="2.93025">
        <ele>978.811593</ele>
        <time>2021-07-08T11:11:30+0200</time>
      </trkpt>
      <trkpt lat="45.2354" lon="2.93028">
        <ele>978.701554</ele>
        <time>2021-07-08T11:11:31+0200</time>
      </trkpt>
      <trkpt lat="45.23536" lon="2.93031">
        <ele>978.457677</ele>
        <time>2021-07-08T11:11:32+0200</time>
      </trkpt>
      <trkpt lat="45.2353" lon="2.93034">
        <ele>978.417372</ele>
        <time>2021-07-08T11:11:33+0200</time>
      </trkpt>
      <trkpt lat="45.23524" lon="2.93036">
        <ele>978.46061</ele>
        <time>2021-07-08T11:11:34+0200</time>
      </trkpt>
      <trkpt lat="45.23519" lon="2.93039">
        <ele>978.45344</ele>
        <time>2021-07-08T11:11:35+0200</time>
      </trkpt>
      <trkpt lat="45.23513" lon="2.93041">
        <ele>977.734547</ele>
        <time>2021-07-08T11:11:36+0200</time>
      </trkpt>
      <trkpt lat="45.23507" lon="2.93044">
        <ele>977.953274</ele>
        <time>2021-07-08T11:11:37+0200</time>
      </trkpt>
      <trkpt lat="45.23501" lon="2.93046">
        <ele>977.719749</ele>
        <time>2021-07-08T11:11:38+0200</time>
      </trkpt>
      <trkpt lat="45.23494" lon="2.93049">
        <ele>977.719866</ele>
        <time>2021-07-08T11:11:39+0200</time>
      </trkpt>
      <trkpt lat="45.23489" lon="2.93051">
        <ele>977.990675</ele>
        <time>2021-07-08T11:11:40+0200</time>
      </trkpt>
      <trkpt lat="45.23483" lon="2.93054">
        <ele>978.11759</ele>
        <time>2021-07-08T11:11:41+0200</time>
      </trkpt>
      <trkpt lat="45.23476" lon="2.93057">
        <ele>978.272009</ele>
        <time>2021-07-08T11:11:42+0200</time>
      </trkpt>
      <trkpt lat="45.2347" lon="2.93059">
        <ele>978.152381</ele>
        <time>2021-07-08T11:11:43+0200</time>
      </trkpt>
      <trkpt lat="45.23464" lon="2.93061">
        <ele>978.184915</ele>
        <time>2021-07-08T11:11:44+0200</time>
      </trkpt>
      <trkpt lat="45.23458" lon="2.93064">
        <ele>977.897594</ele>
        <time>2021-07-08T11:11:45+0200</time>
      </trkpt>
      <trkpt lat="45.23452" lon="2.93067">
        <ele>977.721891</ele>
        <time>2021-07-08T11:11:46+0200</time>
      </trkpt>
      <trkpt lat="45.23446" lon="2.93071">
        <ele>977.434011</ele>
        <time>2021-07-08T11:11:47+0200</time>
      </trkpt>
      <trkpt lat="45.2344" lon="2.93076">
        <ele>977.128514</ele>
        <time>2021-07-08T11:11:48+0200</time>
      </trkpt>
      <trkpt lat="45.23434" lon="2.93081">
        <ele>976.864122</ele>
        <time>2021-07-08T11:11:49+0200</time>
      </trkpt>
      <trkpt lat="45.23429" lon="2.93086">
        <ele>976.477146</ele>
        <time>2021-07-08T11:11:50+0200</time>
      </trkpt>
      <trkpt lat="45.23423" lon="2.93091">
        <ele>976.240435</ele>
        <time>2021-07-08T11:11:51+0200</time>
      </trkpt>
      <trkpt lat="45.23417" lon="2.93096">
        <ele>975.953272</ele>
        <time>2021-07-08T11:11:52+0200</time>
      </trkpt>
      <trkpt lat="45.23412" lon="2.93102">
        <ele>975.649798</ele>
        <time>2021-07-08T11:11:53+0200</time>
      </trkpt>
      <trkpt lat="45.23407" lon="2.93108">
        <ele>975.38248</ele>
        <time>2021-07-08T11:11:54+0200</time>
      </trkpt>
      <trkpt lat="45.23403" lon="2.93116">
        <ele>975.17357</ele>
        <time>2021-07-08T11:11:55+0200</time>
      </trkpt>
      <trkpt lat="45.23398" lon="2.93122">
        <ele>975.066675</ele>
        <time>2021-07-08T11:11:56+0200</time>
      </trkpt>
      <trkpt lat="45.23394" lon="2.93128">
        <ele>975.111005</ele>
        <time>2021-07-08T11:11:57+0200</time>
      </trkpt>
      <trkpt lat="45.23389" lon="2.93133">
        <ele>975.061015</ele>
        <time>2021-07-08T11:11:58+0200</time>
      </trkpt>
      <trkpt lat="45.23384" lon="2.93138">
        <ele>975.100154</ele>
        <time>2021-07-08T11:11:59+0200</time>
      </trkpt>
      <trkpt lat="45.23379" lon="2.93143">
        <ele>975.088461</ele>
        <time>2021-07-08T11:12:00+0200</time>
      </trkpt>
      <trkpt lat="45.23373" lon="2.93148">
        <ele>974.922966</ele>
        <time>2021-07-08T11:12:01+0200</time>
      </trkpt>
      <trkpt lat="45.23367" lon="2.93151">
        <ele>974.824959</ele>
        <time>2021-07-08T11:12:02+0200</time>
      </trkpt>
      <trkpt lat="45.23361" lon="2.93153">
        <ele>974.877732</ele>
        <time>2021-07-08T11:12:03+0200</time>
      </trkpt>
      <trkpt lat="45.23355" lon="2.93153">
        <ele>974.926543</ele>
        <time>2021-07-08T11:12:04+0200</time>
      </trkpt>
      <trkpt lat="45.23348" lon="2.93153">
        <ele>974.964731</ele>
        <time>2021-07-08T11:12:05+0200</time>
      </trkpt>
      <trkpt lat="45.23342" lon="2.93153">
        <ele>975.264572</ele>
        <time>2021-07-08T11:12:06+0200</time>
      </trkpt>
      <trkpt lat="45.23336" lon="2.93152">
        <ele>975.193128</ele>
        <time>2021-07-08T11:12:07+0200</time>
      </trkpt>
      <trkpt lat="45.23329" lon="2.93152">
        <ele>975.069644</ele>
        <time>2021-07-08T11:12:08+0200</time>
      </trkpt>
      <trkpt lat="45.23323" lon="2.93153">
        <ele>975.129732</ele>
        <time>2021-07-08T11:12:09+0200</time>
      </trkpt>
      <trkpt lat="45.23316" lon="2.93153">
        <ele>975.401832</ele>
        <time>2021-07-08T11:12:10+0200</time>
      </trkpt>
      <trkpt lat="45.2331" lon="2.93153">
        <ele>975.305076</ele>
        <time>2021-07-08T11:12:11+0200</time>
      </trkpt>
      <trkpt lat="45.23303" lon="2.93153">
        <ele>975.399593</ele>
        <time>2021-07-08T11:12:12+0200</time>
      </trkpt>
      <trkpt lat="45.23297" lon="2.93153">
        <ele>975.269559</ele>
        <time>2021-07-08T11:12:13+0200</time>
      </trkpt>
      <trkpt lat="45.23291" lon="2.93153">
        <ele>975.070064</ele>
        <time>2021-07-08T11:12:14+0200</time>
      </trkpt>
      <trkpt lat="45.23283" lon="2.93153">
        <ele>974.814325</ele>
        <time>2021-07-08T11:12:15+0200</time>
      </trkpt>
      <trkpt lat="45.23276" lon="2.93151">
        <ele>974.910891</ele>
        <time>2021-07-08T11:12:16+0200</time>
      </trkpt>
      <trkpt lat="45.23269" lon="2.9315">
        <ele>974.854343</ele>
        <time>2021-07-08T11:12:17+0200</time>
      </trkpt>
      <trkpt lat="45.23262" lon="2.93149">
        <ele>974.586929</ele>
        <time>2021-07-08T11:12:18+0200</time>
      </trkpt>
      <trkpt lat="45.23255" lon="2.93147">
        <ele>974.772739</ele>
        <time>2021-07-08T11:12:19+0200</time>
      </trkpt>
      <trkpt lat="45.23247" lon="2.93147">
        <ele>974.527433</ele>
        <time>2021-07-08T11:12:20+0200</time>
      </trkpt>
      <trkpt lat="45.2324" lon="2.9315">
        <ele>974.509093</ele>
        <time>2021-07-08T11:12:21+0200</time>
      </trkpt>
      <trkpt lat="45.23233" lon="2.93154">
        <ele>974.524123</ele>
        <time>2021-07-08T11:12:22+0200</time>
      </trkpt>
      <trkpt lat="45.23227" lon="2.93159">
        <ele>974.704235</ele>
        <time>2021-07-08T11:12:23+0200</time>
      </trkpt>
      <trkpt lat="45.23221" lon="2.93164">
        <ele>974.811058</ele>
        <time>2021-07-08T11:12:24+0200</time>
      </trkpt>
      <trkpt lat="45.23215" lon="2.93169">
        <ele>974.793012</ele>
        <time>2021-07-08T11:12:25+0200</time>
      </trkpt>
      <trkpt lat="45.23209" lon="2.93173">
        <ele>974.724422</ele>
        <time>2021-07-08T11:12:26+0200</time>
      </trkpt>
      <trkpt lat="45.23203" lon="2.93177">
        <ele>974.554667</ele>
        <time>2021-07-08T11:12:27+0200</time>
      </trkpt>
      <trkpt lat="45.23196" lon="2.9318">
        <ele>974.735435</ele>
        <time>2021-07-08T11:12:28+0200</time>
      </trkpt>
      <trkpt lat="45.23189" lon="2.93182">
        <ele>974.973067</ele>
        <time>2021-07-08T11:12:29+0200</time>
      </trkpt>
      <trkpt lat="45.23182" lon="2.93184">
        <ele>974.953147</ele>
        <time>2021-07-08T11:12:30+0200</time>
      </trkpt>
      <trkpt lat="45.23176" lon="2.93184">
        <ele>974.938154</ele>
        <time>2021-07-08T11:12:31+0200</time>
      </trkpt>
      <trkpt lat="45.2317" lon="2.93184">
        <ele>974.99537</ele>
        <time>2021-07-08T11:12:32+0200</time>
      </trkpt>
      <trkpt lat="45.23163" lon="2.93184">
        <ele>975.192742</ele>
        <time>2021-07-08T11:12:33+0200</time>
      </trkpt>
      <trkpt lat="45.23156" lon="2.93181">
        <ele>974.619169</ele>
        <time>2021-07-08T11:12:34+0200</time>
      </trkpt>
      <trkpt lat="45.2315" lon="2.93178">
        <ele>974.608436</ele>
        <time>2021-07-08T11:12:35+0200</time>
      </trkpt>
      <trkpt lat="45.23144" lon="2.93174">
        <ele>974.350356</ele>
        <time>2021-07-08T11:12:36+0200</time>
      </trkpt>
      <trkpt lat="45.23138" lon="2.93172">
        <ele>974.287364</ele>
        <time>2021-07-08T11:12:37+0200</time>
      </trkpt>
      <trkpt lat="45.23132" lon="2.93168">
        <ele>974.310166</ele>
        <time>2021-07-08T11:12:38+0200</time>
      </trkpt>
      <trkpt lat="45.23126" lon="2.93164">
        <ele>974.467162</ele>
        <time>2021-07-08T11:12:39+0200</time>
      </trkpt>
      <trkpt lat="45.2312" lon="2.93161">
        <ele>974.440007</ele>
        <time>2021-07-08T11:12:40+0200</time>
      </trkpt>
      <trkpt lat="45.23115" lon="2.93158">
        <ele>974.574103</ele>
        <time>2021-07-08T11:12:41+0200</time>
      </trkpt>
      <trkpt lat="45.2311" lon="2.93155">
        <ele>974.692364</ele>
        <time>2021-07-08T11:12:42+0200</time>
      </trkpt>
      <trkpt lat="45.23104" lon="2.93153">
        <ele>974.825545</ele>
        <time>2021-07-08T11:12:43+0200</time>
      </trkpt>
      <trkpt lat="45.23098" lon="2.93152">
        <ele>974.959885</ele>
        <time>2021-07-08T11:12:44+0200</time>
      </trkpt>
      <trkpt lat="45.2309" lon="2.93153">
        <ele>975.545577</ele>
        <time>2021-07-08T11:12:46+0200</time>
      </trkpt>
      <trkpt lat="45.23084" lon="2.9316">
        <ele>976.350508</ele>
        <time>2021-07-08T11:12:48+0200</time>
      </trkpt>
      <trkpt lat="45.23082" lon="2.93171">
        <ele>977.291819</ele>
        <time>2021-07-08T11:12:50+0200</time>
      </trkpt>
      <trkpt lat="45.2308" lon="2.93181">
        <ele>976.935876</ele>
        <time>2021-07-08T11:12:52+0200</time>
      </trkpt>
      <trkpt lat="45.23078" lon="2.93191">
        <ele>977.747468</ele>
        <time>2021-07-08T11:12:54+0200</time>
      </trkpt>
      <trkpt lat="45.23075" lon="2.932">
        <ele>977.73896</ele>
        <time>2021-07-08T11:12:56+0200</time>
      </trkpt>
      <trkpt lat="45.23073" lon="2.93208">
        <ele>977.408535</ele>
        <time>2021-07-08T11:12:57+0200</time>
      </trkpt>
      <trkpt lat="45.23071" lon="2.93216">
        <ele>977.047321</ele>
        <time>2021-07-08T11:12:58+0200</time>
      </trkpt>
      <trkpt lat="45.2307" lon="2.93223">
        <ele>977.044241</ele>
        <time>2021-07-08T11:12:59+0200</time>
      </trkpt>
      <trkpt lat="45.23067" lon="2.9323">
        <ele>977.278157</ele>
        <time>2021-07-08T11:13:00+0200</time>
      </trkpt>
      <trkpt lat="45.23063" lon="2.93237">
        <ele>977.422283</ele>
        <time>2021-07-08T11:13:01+0200</time>
      </trkpt>
      <trkpt lat="45.2306" lon="2.93242">
        <ele>977.468756</ele>
        <time>2021-07-08T11:13:02+0200</time>
      </trkpt>
      <trkpt lat="45.23058" lon="2.93253">
        <ele>976.72948</ele>
        <time>2021-07-08T11:13:04+0200</time>
      </trkpt>
      <trkpt lat="45.23053" lon="2.93261">
        <ele>976.058755</ele>
        <time>2021-07-08T11:13:06+0200</time>
      </trkpt>
      <trkpt lat="45.23049" lon="2.93269">
        <ele>975.832767</ele>
        <time>2021-07-08T11:13:08+0200</time>
      </trkpt>
      <trkpt lat="45.23043" lon="2.93279">
        <ele>974.462825</ele>
        <time>2021-07-08T11:13:10+0200</time>
      </trkpt>
      <trkpt lat="45.23044" lon="2.9329">
        <ele>973.671857</ele>
        <time>2021-07-08T11:13:12+0200</time>
      </trkpt>
      <trkpt lat="45.23049" lon="2.93289">
        <ele>973.564313</ele>
        <time>2021-07-08T11:13:25+0200</time>
      </trkpt>
      <trkpt lat="45.23054" lon="2.93288">
        <ele>973.19004</ele>
        <time>2021-07-08T11:13:27+0200</time>
      </trkpt>
      <trkpt lat="45.23059" lon="2.93291">
        <ele>973.481184</ele>
        <time>2021-07-08T11:13:29+0200</time>
      </trkpt>
      <trkpt lat="45.23063" lon="2.93296">
        <ele>973.013434</ele>
        <time>2021-07-08T11:13:31+0200</time>
      </trkpt>
      <trkpt lat="45.23064" lon="2.93305">
        <ele>973.947347</ele>
        <time>2021-07-08T11:13:34+0200</time>
      </trkpt>
      <trkpt lat="45.23056" lon="2.93308">
        <ele>972.966488</ele>
        <time>2021-07-08T11:13:36+0200</time>
      </trkpt>
      <trkpt lat="45.2305" lon="2.93315">
        <ele>972.449522</ele>
        <time>2021-07-08T11:13:38+0200</time>
      </trkpt>
      <trkpt lat="45.23043" lon="2.93321">
        <ele>972.889558</ele>
        <time>2021-07-08T11:13:40+0200</time>
      </trkpt>
      <trkpt lat="45.23035" lon="2.93324">
        <ele>973.276718</ele>
        <time>2021-07-08T11:13:42+0200</time>
      </trkpt>
      <trkpt lat="45.23026" lon="2.9333">
        <ele>973.347097</ele>
        <time>2021-07-08T11:13:44+0200</time>
      </trkpt>
      <trkpt lat="45.23022" lon="2.93333">
        <ele>973.428988</ele>
        <time>2021-07-08T11:13:45+0200</time>
      </trkpt>
      <trkpt lat="45.23014" lon="2.93335">
        <ele>974.507272</ele>
        <time>2021-07-08T11:13:47+0200</time>
      </trkpt>
      <trkpt lat="45.23006" lon="2.93339">
        <ele>974.869589</ele>
        <time>2021-07-08T11:13:49+0200</time>
      </trkpt>
      <trkpt lat="45.22997" lon="2.9334">
        <ele>975.687098</ele>
        <time>2021-07-08T11:13:51+0200</time>
      </trkpt>
      <trkpt lat="45.22993" lon="2.93341">
        <ele>975.990493</ele>
        <time>2021-07-08T11:13:52+0200</time>
      </trkpt>
      <trkpt lat="45.22982" lon="2.9334">
        <ele>975.778626</ele>
        <time>2021-07-08T11:13:54+0200</time>
      </trkpt>
      <trkpt lat="45.22976" lon="2.93338">
        <ele>975.030096</ele>
        <time>2021-07-08T11:13:55+0200</time>
      </trkpt>
      <trkpt lat="45.22971" lon="2.93336">
        <ele>974.707959</ele>
        <time>2021-07-08T11:13:56+0200</time>
      </trkpt>
      <trkpt lat="45.22967" lon="2.93333">
        <ele>974.952466</ele>
        <time>2021-07-08T11:13:57+0200</time>
      </trkpt>
      <trkpt lat="45.22959" lon="2.93327">
        <ele>974.22365</ele>
        <time>2021-07-08T11:13:59+0200</time>
      </trkpt>
      <trkpt lat="45.22951" lon="2.93322">
        <ele>973.582598</ele>
        <time>2021-07-08T11:14:01+0200</time>
      </trkpt>
      <trkpt lat="45.22944" lon="2.93318">
        <ele>972.707158</ele>
        <time>2021-07-08T11:14:03+0200</time>
      </trkpt>
      <trkpt lat="45.22937" lon="2.93312">
        <ele>971.793425</ele>
        <time>2021-07-08T11:14:05+0200</time>
      </trkpt>
      <trkpt lat="45.2293" lon="2.9331">
        <ele>971.199806</ele>
        <time>2021-07-08T11:14:07+0200</time>
      </trkpt>
      <trkpt lat="45.22923" lon="2.93308">
        <ele>970.874518</ele>
        <time>2021-07-08T11:14:09+0200</time>
      </trkpt>
      <trkpt lat="45.22915" lon="2.93309">
        <ele>970.5553</ele>
        <time>2021-07-08T11:14:11+0200</time>
      </trkpt>
      <trkpt lat="45.22908" lon="2.93312">
        <ele>970.463994</ele>
        <time>2021-07-08T11:14:13+0200</time>
      </trkpt>
      <trkpt lat="45.22899" lon="2.93316">
        <ele>971.50906</ele>
        <time>2021-07-08T11:14:15+0200</time>
      </trkpt>
      <trkpt lat="45.22895" lon="2.93316">
        <ele>972.194049</ele>
        <time>2021-07-08T11:14:16+0200</time>
      </trkpt>
      <trkpt lat="45.22887" lon="2.93318">
        <ele>972.552616</ele>
        <time>2021-07-08T11:14:18+0200</time>
      </trkpt>
      <trkpt lat="45.22879" lon="2.93321">
        <ele>972.826437</ele>
        <time>2021-07-08T11:14:20+0200</time>
      </trkpt>
      <trkpt lat="45.22871" lon="2.93322">
        <ele>973.608638</ele>
        <time>2021-07-08T11:14:22+0200</time>
      </trkpt>
      <trkpt lat="45.22863" lon="2.93324">
        <ele>973.315139</ele>
        <time>2021-07-08T11:14:24+0200</time>
      </trkpt>
      <trkpt lat="45.22855" lon="2.93322">
        <ele>972.522392</ele>
        <time>2021-07-08T11:14:26+0200</time>
      </trkpt>
      <trkpt lat="45.22847" lon="2.9332">
        <ele>972.106883</ele>
        <time>2021-07-08T11:14:28+0200</time>
      </trkpt>
      <trkpt lat="45.2284" lon="2.93318">
        <ele>971.595082</ele>
        <time>2021-07-08T11:14:30+0200</time>
      </trkpt>
      <trkpt lat="45.22831" lon="2.93315">
        <ele>970.453774</ele>
        <time>2021-07-08T11:14:32+0200</time>
      </trkpt>
      <trkpt lat="45.22824" lon="2.93317">
        <ele>970.758453</ele>
        <time>2021-07-08T11:14:34+0200</time>
      </trkpt>
      <trkpt lat="45.22815" lon="2.9332">
        <ele>970.511064</ele>
        <time>2021-07-08T11:14:36+0200</time>
      </trkpt>
      <trkpt lat="45.22811" lon="2.93323">
        <ele>970.089122</ele>
        <time>2021-07-08T11:14:37+0200</time>
      </trkpt>
      <trkpt lat="45.22806" lon="2.93325">
        <ele>970.329578</ele>
        <time>2021-07-08T11:14:38+0200</time>
      </trkpt>
      <trkpt lat="45.22798" lon="2.9333">
        <ele>970.608556</ele>
        <time>2021-07-08T11:14:40+0200</time>
      </trkpt>
      <trkpt lat="45.22794" lon="2.93334">
        <ele>971.094972</ele>
        <time>2021-07-08T11:14:41+0200</time>
      </trkpt>
      <trkpt lat="45.22788" lon="2.9334">
        <ele>970.993748</ele>
        <time>2021-07-08T11:14:43+0200</time>
      </trkpt>
      <trkpt lat="45.22786" lon="2.93347">
        <ele>971.481462</ele>
        <time>2021-07-08T11:14:45+0200</time>
      </trkpt>
      <trkpt lat="45.22783" lon="2.93353">
        <ele>972.645173</ele>
        <time>2021-07-08T11:14:48+0200</time>
      </trkpt>
      <trkpt lat="45.22783" lon="2.93359">
        <ele>972.41424</ele>
        <time>2021-07-08T11:14:53+0200</time>
      </trkpt>
      <trkpt lat="45.22778" lon="2.93354">
        <ele>971.202506</ele>
        <time>2021-07-08T11:14:55+0200</time>
      </trkpt>
      <trkpt lat="45.22773" lon="2.93356">
        <ele>970.495775</ele>
        <time>2021-07-08T11:14:56+0200</time>
      </trkpt>
      <trkpt lat="45.22765" lon="2.93369">
        <ele>970.284724</ele>
        <time>2021-07-08T11:14:58+0200</time>
      </trkpt>
      <trkpt lat="45.22762" lon="2.93378">
        <ele>969.323133</ele>
        <time>2021-07-08T11:15:00+0200</time>
      </trkpt>
      <trkpt lat="45.22761" lon="2.93385">
        <ele>970.302393</ele>
        <time>2021-07-08T11:15:02+0200</time>
      </trkpt>
      <trkpt lat="45.22757" lon="2.93389">
        <ele>970.876468</ele>
        <time>2021-07-08T11:15:04+0200</time>
      </trkpt>
      <trkpt lat="45.22757" lon="2.93382">
        <ele>971.272807</ele>
        <time>2021-07-08T11:15:07+0200</time>
      </trkpt>
      <trkpt lat="45.22755" lon="2.93374">
        <ele>971.314613</ele>
        <time>2021-07-08T11:15:09+0200</time>
      </trkpt>
      <trkpt lat="45.22752" lon="2.93366">
        <ele>970.892576</ele>
        <time>2021-07-08T11:15:11+0200</time>
      </trkpt>
      <trkpt lat="45.22751" lon="2.93358">
        <ele>970.438532</ele>
        <time>2021-07-08T11:15:13+0200</time>
      </trkpt>
      <trkpt lat="45.2275" lon="2.93351">
        <ele>970.295676</ele>
        <time>2021-07-08T11:15:15+0200</time>
      </trkpt>
      <trkpt lat="45.22747" lon="2.93344">
        <ele>970.788098</ele>
        <time>2021-07-08T11:15:17+0200</time>
      </trkpt>
      <trkpt lat="45.22741" lon="2.9334">
        <ele>970.830112</ele>
        <time>2021-07-08T11:15:19+0200</time>
      </trkpt>
      <trkpt lat="45.22733" lon="2.93336">
        <ele>969.933004</ele>
        <time>2021-07-08T11:15:21+0200</time>
      </trkpt>
      <trkpt lat="45.22729" lon="2.93335">
        <ele>969.620453</ele>
        <time>2021-07-08T11:15:22+0200</time>
      </trkpt>
      <trkpt lat="45.2272" lon="2.93334">
        <ele>971.055226</ele>
        <time>2021-07-08T11:15:24+0200</time>
      </trkpt>
      <trkpt lat="45.22712" lon="2.93334">
        <ele>972.020738</ele>
        <time>2021-07-08T11:15:26+0200</time>
      </trkpt>
      <trkpt lat="45.22706" lon="2.93336">
        <ele>972.436915</ele>
        <time>2021-07-08T11:15:28+0200</time>
      </trkpt>
      <trkpt lat="45.22699" lon="2.93338">
        <ele>973.132955</ele>
        <time>2021-07-08T11:15:30+0200</time>
      </trkpt>
      <trkpt lat="45.22691" lon="2.9334">
        <ele>974.030876</ele>
        <time>2021-07-08T11:15:32+0200</time>
      </trkpt>
      <trkpt lat="45.22684" lon="2.93342">
        <ele>974.708715</ele>
        <time>2021-07-08T11:15:34+0200</time>
      </trkpt>
      <trkpt lat="45.22679" lon="2.93344">
        <ele>974.945095</ele>
        <time>2021-07-08T11:15:35+0200</time>
      </trkpt>
      <trkpt lat="45.22672" lon="2.93347">
        <ele>974.182315</ele>
        <time>2021-07-08T11:15:37+0200</time>
      </trkpt>
      <trkpt lat="45.22664" lon="2.93346">
        <ele>973.570904</ele>
        <time>2021-07-08T11:15:39+0200</time>
      </trkpt>
      <trkpt lat="45.22656" lon="2.93346">
        <ele>975.19696</ele>
        <time>2021-07-08T11:15:41+0200</time>
      </trkpt>
      <trkpt lat="45.22649" lon="2.93349">
        <ele>975.528052</ele>
        <time>2021-07-08T11:15:43+0200</time>
      </trkpt>
      <trkpt lat="45.22642" lon="2.93351">
        <ele>976.519277</ele>
        <time>2021-07-08T11:15:45+0200</time>
      </trkpt>
      <trkpt lat="45.22635" lon="2.93353">
        <ele>977.110992</ele>
        <time>2021-07-08T11:15:47+0200</time>
      </trkpt>
      <trkpt lat="45.22627" lon="2.93354">
        <ele>977.127948</ele>
        <time>2021-07-08T11:15:49+0200</time>
      </trkpt>
      <trkpt lat="45.22622" lon="2.93354">
        <ele>976.862579</ele>
        <time>2021-07-08T11:15:50+0200</time>
      </trkpt>
      <trkpt lat="45.22617" lon="2.93352">
        <ele>977.08482</ele>
        <time>2021-07-08T11:15:51+0200</time>
      </trkpt>
      <trkpt lat="45.22611" lon="2.93353">
        <ele>976.943862</ele>
        <time>2021-07-08T11:15:52+0200</time>
      </trkpt>
      <trkpt lat="45.22606" lon="2.93356">
        <ele>976.741742</ele>
        <time>2021-07-08T11:15:53+0200</time>
      </trkpt>
      <trkpt lat="45.226" lon="2.93357">
        <ele>976.075414</ele>
        <time>2021-07-08T11:15:54+0200</time>
      </trkpt>
      <trkpt lat="45.22592" lon="2.93356">
        <ele>975.352757</ele>
        <time>2021-07-08T11:15:56+0200</time>
      </trkpt>
      <trkpt lat="45.22587" lon="2.9336">
        <ele>975.697019</ele>
        <time>2021-07-08T11:15:57+0200</time>
      </trkpt>
      <trkpt lat="45.22578" lon="2.93359">
        <ele>975.081269</ele>
        <time>2021-07-08T11:15:59+0200</time>
      </trkpt>
      <trkpt lat="45.22569" lon="2.93359">
        <ele>975.387625</ele>
        <time>2021-07-08T11:16:01+0200</time>
      </trkpt>
      <trkpt lat="45.22563" lon="2.9336">
        <ele>975.579959</ele>
        <time>2021-07-08T11:16:02+0200</time>
      </trkpt>
      <trkpt lat="45.22558" lon="2.93359">
        <ele>975.506941</ele>
        <time>2021-07-08T11:16:03+0200</time>
      </trkpt>
      <trkpt lat="45.22553" lon="2.93359">
        <ele>975.411169</ele>
        <time>2021-07-08T11:16:04+0200</time>
      </trkpt>
      <trkpt lat="45.22548" lon="2.93356">
        <ele>974.64474</ele>
        <time>2021-07-08T11:16:05+0200</time>
      </trkpt>
      <trkpt lat="45.22544" lon="2.93354">
        <ele>974.330976</ele>
        <time>2021-07-08T11:16:06+0200</time>
      </trkpt>
      <trkpt lat="45.22539" lon="2.93354">
        <ele>974.193707</ele>
        <time>2021-07-08T11:16:07+0200</time>
      </trkpt>
      <trkpt lat="45.22533" lon="2.93353">
        <ele>974.019438</ele>
        <time>2021-07-08T11:16:08+0200</time>
      </trkpt>
      <trkpt lat="45.22528" lon="2.9335">
        <ele>973.921672</ele>
        <time>2021-07-08T11:16:09+0200</time>
      </trkpt>
      <trkpt lat="45.22524" lon="2.93348">
        <ele>973.957033</ele>
        <time>2021-07-08T11:16:10+0200</time>
      </trkpt>
      <trkpt lat="45.2252" lon="2.93344">
        <ele>973.855709</ele>
        <time>2021-07-08T11:16:11+0200</time>
      </trkpt>
      <trkpt lat="45.22515" lon="2.9334">
        <ele>973.69877</ele>
        <time>2021-07-08T11:16:12+0200</time>
      </trkpt>
      <trkpt lat="45.22511" lon="2.93336">
        <ele>973.423074</ele>
        <time>2021-07-08T11:16:13+0200</time>
      </trkpt>
      <trkpt lat="45.22506" lon="2.93333">
        <ele>973.68116</ele>
        <time>2021-07-08T11:16:14+0200</time>
      </trkpt>
      <trkpt lat="45.22502" lon="2.93329">
        <ele>973.817643</ele>
        <time>2021-07-08T11:16:15+0200</time>
      </trkpt>
      <trkpt lat="45.22498" lon="2.93326">
        <ele>973.704701</ele>
        <time>2021-07-08T11:16:16+0200</time>
      </trkpt>
      <trkpt lat="45.22494" lon="2.93323">
        <ele>973.635807</ele>
        <time>2021-07-08T11:16:17+0200</time>
      </trkpt>
      <trkpt lat="45.22489" lon="2.9332">
        <ele>973.863778</ele>
        <time>2021-07-08T11:16:18+0200</time>
      </trkpt>
      <trkpt lat="45.22485" lon="2.93316">
        <ele>973.793917</ele>
        <time>2021-07-08T11:16:19+0200</time>
      </trkpt>
      <trkpt lat="45.22477" lon="2.9331">
        <ele>973.907974</ele>
        <time>2021-07-08T11:16:21+0200</time>
      </trkpt>
      <trkpt lat="45.22472" lon="2.93307">
        <ele>974.281781</ele>
        <time>2021-07-08T11:16:22+0200</time>
      </trkpt>
      <trkpt lat="45.22468" lon="2.93304">
        <ele>974.438674</ele>
        <time>2021-07-08T11:16:23+0200</time>
      </trkpt>
      <trkpt lat="45.22463" lon="2.93301">
        <ele>974.987366</ele>
        <time>2021-07-08T11:16:24+0200</time>
      </trkpt>
      <trkpt lat="45.22459" lon="2.93298">
        <ele>975.240998</ele>
        <time>2021-07-08T11:16:25+0200</time>
      </trkpt>
      <trkpt lat="45.22455" lon="2.93294">
        <ele>975.335373</ele>
        <time>2021-07-08T11:16:26+0200</time>
      </trkpt>
      <trkpt lat="45.2245" lon="2.93291">
        <ele>975.162577</ele>
        <time>2021-07-08T11:16:27+0200</time>
      </trkpt>
      <trkpt lat="45.22446" lon="2.93288">
        <ele>974.867879</ele>
        <time>2021-07-08T11:16:28+0200</time>
      </trkpt>
      <trkpt lat="45.22442" lon="2.93285">
        <ele>975.188871</ele>
        <time>2021-07-08T11:16:29+0200</time>
      </trkpt>
      <trkpt lat="45.22437" lon="2.93282">
        <ele>975.468705</ele>
        <time>2021-07-08T11:16:30+0200</time>
      </trkpt>
      <trkpt lat="45.22433" lon="2.93278">
        <ele>975.453673</ele>
        <time>2021-07-08T11:16:31+0200</time>
      </trkpt>
      <trkpt lat="45.22429" lon="2.93276">
        <ele>975.642983</ele>
        <time>2021-07-08T11:16:32+0200</time>
      </trkpt>
      <trkpt lat="45.2242" lon="2.93271">
        <ele>976.144175</ele>
        <time>2021-07-08T11:16:34+0200</time>
      </trkpt>
      <trkpt lat="45.22413" lon="2.93267">
        <ele>976.163892</ele>
        <time>2021-07-08T11:16:36+0200</time>
      </trkpt>
      <trkpt lat="45.22405" lon="2.93264">
        <ele>976.709828</ele>
        <time>2021-07-08T11:16:38+0200</time>
      </trkpt>
      <trkpt lat="45.22398" lon="2.93261">
        <ele>977.31536</ele>
        <time>2021-07-08T11:16:40+0200</time>
      </trkpt>
      <trkpt lat="45.2239" lon="2.93258">
        <ele>977.379165</ele>
        <time>2021-07-08T11:16:42+0200</time>
      </trkpt>
      <trkpt lat="45.22383" lon="2.93252">
        <ele>977.844889</ele>
        <time>2021-07-08T11:16:44+0200</time>
      </trkpt>
      <trkpt lat="45.22377" lon="2.93246">
        <ele>978.598927</ele>
        <time>2021-07-08T11:16:46+0200</time>
      </trkpt>
      <trkpt lat="45.22371" lon="2.9324">
        <ele>979.173034</ele>
        <time>2021-07-08T11:16:48+0200</time>
      </trkpt>
      <trkpt lat="45.22367" lon="2.93234">
        <ele>978.93791</ele>
        <time>2021-07-08T11:16:50+0200</time>
      </trkpt>
      <trkpt lat="45.22361" lon="2.93228">
        <ele>978.814299</ele>
        <time>2021-07-08T11:16:52+0200</time>
      </trkpt>
      <trkpt lat="45.22354" lon="2.93222">
        <ele>978.548413</ele>
        <time>2021-07-08T11:16:54+0200</time>
      </trkpt>
      <trkpt lat="45.22347" lon="2.93216">
        <ele>978.715215</ele>
        <time>2021-07-08T11:16:56+0200</time>
      </trkpt>
      <trkpt lat="45.2234" lon="2.9321">
        <ele>979.247882</ele>
        <time>2021-07-08T11:16:58+0200</time>
      </trkpt>
      <trkpt lat="45.22333" lon="2.93203">
        <ele>979.517875</ele>
        <time>2021-07-08T11:17:00+0200</time>
      </trkpt>
      <trkpt lat="45.22325" lon="2.93198">
        <ele>979.216659</ele>
        <time>2021-07-08T11:17:02+0200</time>
      </trkpt>
      <trkpt lat="45.22321" lon="2.93195">
        <ele>979.344478</ele>
        <time>2021-07-08T11:17:03+0200</time>
      </trkpt>
      <trkpt lat="45.22317" lon="2.93191">
        <ele>979.306417</ele>
        <time>2021-07-08T11:17:04+0200</time>
      </trkpt>
      <trkpt lat="45.22313" lon="2.93187">
        <ele>979.333885</ele>
        <time>2021-07-08T11:17:05+0200</time>
      </trkpt>
      <trkpt lat="45.22308" lon="2.93184">
        <ele>979.266061</ele>
        <time>2021-07-08T11:17:06+0200</time>
      </trkpt>
      <trkpt lat="45.22304" lon="2.93181">
        <ele>978.870155</ele>
        <time>2021-07-08T11:17:07+0200</time>
      </trkpt>
      <trkpt lat="45.22299" lon="2.93177">
        <ele>979.051633</ele>
        <time>2021-07-08T11:17:08+0200</time>
      </trkpt>
      <trkpt lat="45.22295" lon="2.93173">
        <ele>979.29827</ele>
        <time>2021-07-08T11:17:09+0200</time>
      </trkpt>
      <trkpt lat="45.22291" lon="2.93169">
        <ele>979.377824</ele>
        <time>2021-07-08T11:17:10+0200</time>
      </trkpt>
      <trkpt lat="45.22287" lon="2.93164">
        <ele>979.349157</ele>
        <time>2021-07-08T11:17:11+0200</time>
      </trkpt>
      <trkpt lat="45.22283" lon="2.9316">
        <ele>979.07987</ele>
        <time>2021-07-08T11:17:12+0200</time>
      </trkpt>
      <trkpt lat="45.22277" lon="2.93152">
        <ele>979.179464</ele>
        <time>2021-07-08T11:17:14+0200</time>
      </trkpt>
      <trkpt lat="45.22274" lon="2.93142">
        <ele>979.180923</ele>
        <time>2021-07-08T11:17:16+0200</time>
      </trkpt>
      <trkpt lat="45.22269" lon="2.93134">
        <ele>978.938994</ele>
        <time>2021-07-08T11:17:18+0200</time>
      </trkpt>
      <trkpt lat="45.22265" lon="2.93126">
        <ele>978.580989</ele>
        <time>2021-07-08T11:17:20+0200</time>
      </trkpt>
      <trkpt lat="45.22261" lon="2.93119">
        <ele>978.152632</ele>
        <time>2021-07-08T11:17:22+0200</time>
      </trkpt>
      <trkpt lat="45.22259" lon="2.93112">
        <ele>978.164482</ele>
        <time>2021-07-08T11:17:24+0200</time>
      </trkpt>
      <trkpt lat="45.22257" lon="2.93105">
        <ele>977.860784</ele>
        <time>2021-07-08T11:17:26+0200</time>
      </trkpt>
      <trkpt lat="45.22255" lon="2.93098">
        <ele>978.541789</ele>
        <time>2021-07-08T11:17:29+0200</time>
      </trkpt>
      <trkpt lat="45.22252" lon="2.9309">
        <ele>978.731583</ele>
        <time>2021-07-08T11:17:33+0200</time>
      </trkpt>
      <trkpt lat="45.22248" lon="2.93094">
        <ele>978.806371</ele>
        <time>2021-07-08T11:17:35+0200</time>
      </trkpt>
      <trkpt lat="45.22245" lon="2.93103">
        <ele>978.438502</ele>
        <time>2021-07-08T11:17:37+0200</time>
      </trkpt>
      <trkpt lat="45.2224" lon="2.93112">
        <ele>978.60738</ele>
        <time>2021-07-08T11:17:39+0200</time>
      </trkpt>
      <trkpt lat="45.22234" lon="2.93122">
        <ele>978.640764</ele>
        <time>2021-07-08T11:17:41+0200</time>
      </trkpt>
      <trkpt lat="45.22228" lon="2.9313">
        <ele>979.015993</ele>
        <time>2021-07-08T11:17:43+0200</time>
      </trkpt>
      <trkpt lat="45.22223" lon="2.93137">
        <ele>979.535965</ele>
        <time>2021-07-08T11:17:45+0200</time>
      </trkpt>
      <trkpt lat="45.22217" lon="2.93144">
        <ele>980.137258</ele>
        <time>2021-07-08T11:17:47+0200</time>
      </trkpt>
      <trkpt lat="45.22213" lon="2.93151">
        <ele>980.558339</ele>
        <time>2021-07-08T11:17:49+0200</time>
      </trkpt>
      <trkpt lat="45.22209" lon="2.93158">
        <ele>981.310276</ele>
        <time>2021-07-08T11:17:51+0200</time>
      </trkpt>
      <trkpt lat="45.22203" lon="2.93165">
        <ele>981.62535</ele>
        <time>2021-07-08T11:17:53+0200</time>
      </trkpt>
      <trkpt lat="45.22197" lon="2.93173">
        <ele>981.932644</ele>
        <time>2021-07-08T11:17:55+0200</time>
      </trkpt>
      <trkpt lat="45.22191" lon="2.93181">
        <ele>982.309122</ele>
        <time>2021-07-08T11:17:57+0200</time>
      </trkpt>
      <trkpt lat="45.22185" lon="2.93188">
        <ele>982.379889</ele>
        <time>2021-07-08T11:17:59+0200</time>
      </trkpt>
      <trkpt lat="45.2218" lon="2.93195">
        <ele>982.653705</ele>
        <time>2021-07-08T11:18:01+0200</time>
      </trkpt>
      <trkpt lat="45.22175" lon="2.93203">
        <ele>982.911851</ele>
        <time>2021-07-08T11:18:03+0200</time>
      </trkpt>
      <trkpt lat="45.2217" lon="2.93211">
        <ele>983.200128</ele>
        <time>2021-07-08T11:18:05+0200</time>
      </trkpt>
      <trkpt lat="45.22165" lon="2.93217">
        <ele>983.5768</ele>
        <time>2021-07-08T11:18:07+0200</time>
      </trkpt>
      <trkpt lat="45.22159" lon="2.93225">
        <ele>983.787756</ele>
        <time>2021-07-08T11:18:09+0200</time>
      </trkpt>
      <trkpt lat="45.22152" lon="2.9323">
        <ele>984.632763</ele>
        <time>2021-07-08T11:18:11+0200</time>
      </trkpt>
      <trkpt lat="45.22145" lon="2.93233">
        <ele>985.472942</ele>
        <time>2021-07-08T11:18:13+0200</time>
      </trkpt>
      <trkpt lat="45.22139" lon="2.9323">
        <ele>986.61662</ele>
        <time>2021-07-08T11:18:15+0200</time>
      </trkpt>
      <trkpt lat="45.22133" lon="2.93225">
        <ele>986.778827</ele>
        <time>2021-07-08T11:18:17+0200</time>
      </trkpt>
      <trkpt lat="45.22128" lon="2.93219">
        <ele>987.912401</ele>
        <time>2021-07-08T11:18:19+0200</time>
      </trkpt>
      <trkpt lat="45.22122" lon="2.93215">
        <ele>988.42507</ele>
        <time>2021-07-08T11:18:21+0200</time>
      </trkpt>
      <trkpt lat="45.22116" lon="2.93211">
        <ele>989.022767</ele>
        <time>2021-07-08T11:18:23+0200</time>
      </trkpt>
      <trkpt lat="45.22111" lon="2.93206">
        <ele>988.941376</ele>
        <time>2021-07-08T11:18:25+0200</time>
      </trkpt>
      <trkpt lat="45.22105" lon="2.932">
        <ele>989.627954</ele>
        <time>2021-07-08T11:18:27+0200</time>
      </trkpt>
      <trkpt lat="45.221" lon="2.93195">
        <ele>989.849182</ele>
        <time>2021-07-08T11:18:29+0200</time>
      </trkpt>
      <trkpt lat="45.22094" lon="2.93191">
        <ele>990.188307</ele>
        <time>2021-07-08T11:18:31+0200</time>
      </trkpt>
      <trkpt lat="45.22087" lon="2.93183">
        <ele>989.522377</ele>
        <time>2021-07-08T11:18:33+0200</time>
      </trkpt>
      <trkpt lat="45.22079" lon="2.93176">
        <ele>989.527115</ele>
        <time>2021-07-08T11:18:35+0200</time>
      </trkpt>
      <trkpt lat="45.22075" lon="2.93172">
        <ele>989.33089</ele>
        <time>2021-07-08T11:18:36+0200</time>
      </trkpt>
      <trkpt lat="45.22071" lon="2.93168">
        <ele>989.040801</ele>
        <time>2021-07-08T11:18:37+0200</time>
      </trkpt>
      <trkpt lat="45.22063" lon="2.93162">
        <ele>989.121179</ele>
        <time>2021-07-08T11:18:39+0200</time>
      </trkpt>
      <trkpt lat="45.22057" lon="2.93155">
        <ele>989.880584</ele>
        <time>2021-07-08T11:18:41+0200</time>
      </trkpt>
      <trkpt lat="45.22049" lon="2.9315">
        <ele>990.159219</ele>
        <time>2021-07-08T11:18:43+0200</time>
      </trkpt>
      <trkpt lat="45.22043" lon="2.93147">
        <ele>990.187631</ele>
        <time>2021-07-08T11:18:45+0200</time>
      </trkpt>
      <trkpt lat="45.22039" lon="2.93146">
        <ele>991.013996</ele>
        <time>2021-07-08T11:18:47+0200</time>
      </trkpt>
      <trkpt lat="45.22034" lon="2.9314">
        <ele>991.624459</ele>
        <time>2021-07-08T11:18:50+0200</time>
      </trkpt>
      <trkpt lat="45.22028" lon="2.9314">
        <ele>992.283963</ele>
        <time>2021-07-08T11:18:56+0200</time>
      </trkpt>
      <trkpt lat="45.2203" lon="2.93147">
        <ele>992.221093</ele>
        <time>2021-07-08T11:19:52+0200</time>
      </trkpt>
      <trkpt lat="45.22032" lon="2.93153">
        <ele>992.445056</ele>
        <time>2021-07-08T11:19:56+0200</time>
      </trkpt>
      <trkpt lat="45.22029" lon="2.9316">
        <ele>991.243287</ele>
        <time>2021-07-08T11:20:00+0200</time>
      </trkpt>
      <trkpt lat="45.22026" lon="2.93165">
        <ele>988.890598</ele>
        <time>2021-07-08T11:20:06+0200</time>
      </trkpt>
      <trkpt lat="45.22023" lon="2.93172">
        <ele>988.060674</ele>
        <time>2021-07-08T11:20:10+0200</time>
      </trkpt>
      <trkpt lat="45.22021" lon="2.9318">
        <ele>987.967433</ele>
        <time>2021-07-08T11:20:13+0200</time>
      </trkpt>
      <trkpt lat="45.22017" lon="2.93185">
        <ele>987.655191</ele>
        <time>2021-07-08T11:20:16+0200</time>
      </trkpt>
      <trkpt lat="45.22017" lon="2.93192">
        <ele>986.654636</ele>
        <time>2021-07-08T11:20:18+0200</time>
      </trkpt>
      <trkpt lat="45.22016" lon="2.93203">
        <ele>985.969393</ele>
        <time>2021-07-08T11:20:20+0200</time>
      </trkpt>
      <trkpt lat="45.22014" lon="2.93209">
        <ele>985.763209</ele>
        <time>2021-07-08T11:20:21+0200</time>
      </trkpt>
      <trkpt lat="45.22013" lon="2.93216">
        <ele>985.454202</ele>
        <time>2021-07-08T11:20:22+0200</time>
      </trkpt>
      <trkpt lat="45.22012" lon="2.93224">
        <ele>984.906001</ele>
        <time>2021-07-08T11:20:23+0200</time>
      </trkpt>
      <trkpt lat="45.22011" lon="2.93234">
        <ele>984.382977</ele>
        <time>2021-07-08T11:20:24+0200</time>
      </trkpt>
      <trkpt lat="45.22009" lon="2.93245">
        <ele>983.822523</ele>
        <time>2021-07-08T11:20:25+0200</time>
      </trkpt>
      <trkpt lat="45.22008" lon="2.93256">
        <ele>983.124094</ele>
        <time>2021-07-08T11:20:26+0200</time>
      </trkpt>
      <trkpt lat="45.22006" lon="2.93268">
        <ele>982.450049</ele>
        <time>2021-07-08T11:20:27+0200</time>
      </trkpt>
      <trkpt lat="45.22006" lon="2.93281">
        <ele>981.592489</ele>
        <time>2021-07-08T11:20:28+0200</time>
      </trkpt>
      <trkpt lat="45.22005" lon="2.93295">
        <ele>980.468353</ele>
        <time>2021-07-08T11:20:29+0200</time>
      </trkpt>
      <trkpt lat="45.22003" lon="2.93306">
        <ele>979.612761</ele>
        <time>2021-07-08T11:20:30+0200</time>
      </trkpt>
      <trkpt lat="45.22003" lon="2.93317">
        <ele>978.420082</ele>
        <time>2021-07-08T11:20:31+0200</time>
      </trkpt>
      <trkpt lat="45.22004" lon="2.93326">
        <ele>977.703713</ele>
        <time>2021-07-08T11:20:32+0200</time>
      </trkpt>
      <trkpt lat="45.22006" lon="2.93335">
        <ele>977.045441</ele>
        <time>2021-07-08T11:20:33+0200</time>
      </trkpt>
      <trkpt lat="45.22007" lon="2.93342">
        <ele>975.842742</ele>
        <time>2021-07-08T11:20:34+0200</time>
      </trkpt>
      <trkpt lat="45.22006" lon="2.93351">
        <ele>974.37781</ele>
        <time>2021-07-08T11:20:35+0200</time>
      </trkpt>
      <trkpt lat="45.22002" lon="2.93357">
        <ele>973.348327</ele>
        <time>2021-07-08T11:20:36+0200</time>
      </trkpt>
      <trkpt lat="45.21996" lon="2.93357">
        <ele>974.848634</ele>
        <time>2021-07-08T11:20:37+0200</time>
      </trkpt>
      <trkpt lat="45.21986" lon="2.9336">
        <ele>973.433853</ele>
        <time>2021-07-08T11:20:38+0200</time>
      </trkpt>
      <trkpt lat="45.21977" lon="2.93361">
        <ele>972.185928</ele>
        <time>2021-07-08T11:20:39+0200</time>
      </trkpt>
      <trkpt lat="45.21968" lon="2.93364">
        <ele>970.959162</ele>
        <time>2021-07-08T11:20:40+0200</time>
      </trkpt>
      <trkpt lat="45.21958" lon="2.93369">
        <ele>969.841315</ele>
        <time>2021-07-08T11:20:41+0200</time>
      </trkpt>
      <trkpt lat="45.21948" lon="2.93375">
        <ele>968.858359</ele>
        <time>2021-07-08T11:20:42+0200</time>
      </trkpt>
      <trkpt lat="45.21937" lon="2.93376">
        <ele>967.919453</ele>
        <time>2021-07-08T11:20:43+0200</time>
      </trkpt>
      <trkpt lat="45.21926" lon="2.93378">
        <ele>967.699112</ele>
        <time>2021-07-08T11:20:44+0200</time>
      </trkpt>
      <trkpt lat="45.21914" lon="2.93378">
        <ele>967.229593</ele>
        <time>2021-07-08T11:20:45+0200</time>
      </trkpt>
      <trkpt lat="45.21904" lon="2.93379">
        <ele>966.890438</ele>
        <time>2021-07-08T11:20:46+0200</time>
      </trkpt>
      <trkpt lat="45.21893" lon="2.9338">
        <ele>966.558575</ele>
        <time>2021-07-08T11:20:47+0200</time>
      </trkpt>
      <trkpt lat="45.21883" lon="2.9338">
        <ele>966.301574</ele>
        <time>2021-07-08T11:20:48+0200</time>
      </trkpt>
      <trkpt lat="45.21873" lon="2.93381">
        <ele>966.161186</ele>
        <time>2021-07-08T11:20:49+0200</time>
      </trkpt>
      <trkpt lat="45.21863" lon="2.93382">
        <ele>966.017827</ele>
        <time>2021-07-08T11:20:50+0200</time>
      </trkpt>
      <trkpt lat="45.21854" lon="2.93385">
        <ele>965.8881</ele>
        <time>2021-07-08T11:20:51+0200</time>
      </trkpt>
      <trkpt lat="45.21845" lon="2.9339">
        <ele>965.796934</ele>
        <time>2021-07-08T11:20:52+0200</time>
      </trkpt>
      <trkpt lat="45.21837" lon="2.93395">
        <ele>965.350625</ele>
        <time>2021-07-08T11:20:53+0200</time>
      </trkpt>
      <trkpt lat="45.21828" lon="2.93397">
        <ele>964.763068</ele>
        <time>2021-07-08T11:20:54+0200</time>
      </trkpt>
      <trkpt lat="45.21818" lon="2.93397">
        <ele>964.050301</ele>
        <time>2021-07-08T11:20:55+0200</time>
      </trkpt>
      <trkpt lat="45.21808" lon="2.93398">
        <ele>963.285744</ele>
        <time>2021-07-08T11:20:56+0200</time>
      </trkpt>
      <trkpt lat="45.21796" lon="2.93399">
        <ele>960.491699</ele>
        <time>2021-07-08T11:20:57+0200</time>
      </trkpt>
      <trkpt lat="45.21786" lon="2.93399">
        <ele>959.949742</ele>
        <time>2021-07-08T11:20:58+0200</time>
      </trkpt>
      <trkpt lat="45.21776" lon="2.93399">
        <ele>960.11173</ele>
        <time>2021-07-08T11:20:59+0200</time>
      </trkpt>
      <trkpt lat="45.21766" lon="2.93398">
        <ele>959.887415</ele>
        <time>2021-07-08T11:21:00+0200</time>
      </trkpt>
      <trkpt lat="45.21756" lon="2.93398">
        <ele>959.548126</ele>
        <time>2021-07-08T11:21:01+0200</time>
      </trkpt>
      <trkpt lat="45.21747" lon="2.93398">
        <ele>959.422531</ele>
        <time>2021-07-08T11:21:02+0200</time>
      </trkpt>
      <trkpt lat="45.21738" lon="2.93398">
        <ele>959.425129</ele>
        <time>2021-07-08T11:21:03+0200</time>
      </trkpt>
      <trkpt lat="45.21729" lon="2.93398">
        <ele>959.694459</ele>
        <time>2021-07-08T11:21:04+0200</time>
      </trkpt>
      <trkpt lat="45.2172" lon="2.93398">
        <ele>959.677809</ele>
        <time>2021-07-08T11:21:05+0200</time>
      </trkpt>
      <trkpt lat="45.21711" lon="2.93397">
        <ele>959.701614</ele>
        <time>2021-07-08T11:21:06+0200</time>
      </trkpt>
      <trkpt lat="45.21703" lon="2.93396">
        <ele>959.755192</ele>
        <time>2021-07-08T11:21:07+0200</time>
      </trkpt>
      <trkpt lat="45.21695" lon="2.93397">
        <ele>959.895926</ele>
        <time>2021-07-08T11:21:08+0200</time>
      </trkpt>
      <trkpt lat="45.21687" lon="2.93396">
        <ele>960.031129</ele>
        <time>2021-07-08T11:21:09+0200</time>
      </trkpt>
      <trkpt lat="45.21679" lon="2.93395">
        <ele>960.397112</ele>
        <time>2021-07-08T11:21:10+0200</time>
      </trkpt>
      <trkpt lat="45.21672" lon="2.93395">
        <ele>960.651833</ele>
        <time>2021-07-08T11:21:11+0200</time>
      </trkpt>
      <trkpt lat="45.21665" lon="2.93394">
        <ele>960.251231</ele>
        <time>2021-07-08T11:21:12+0200</time>
      </trkpt>
      <trkpt lat="45.21659" lon="2.93395">
        <ele>960.198972</ele>
        <time>2021-07-08T11:21:13+0200</time>
      </trkpt>
      <trkpt lat="45.21653" lon="2.93395">
        <ele>960.878103</ele>
        <time>2021-07-08T11:21:14+0200</time>
      </trkpt>
      <trkpt lat="45.21647" lon="2.93395">
        <ele>960.80251</ele>
        <time>2021-07-08T11:21:15+0200</time>
      </trkpt>
      <trkpt lat="45.21641" lon="2.93395">
        <ele>961.09774</ele>
        <time>2021-07-08T11:21:16+0200</time>
      </trkpt>
      <trkpt lat="45.21634" lon="2.93396">
        <ele>961.117661</ele>
        <time>2021-07-08T11:21:17+0200</time>
      </trkpt>
      <trkpt lat="45.21629" lon="2.93397">
        <ele>961.331442</ele>
        <time>2021-07-08T11:21:18+0200</time>
      </trkpt>
      <trkpt lat="45.21623" lon="2.93397">
        <ele>961.229603</ele>
        <time>2021-07-08T11:21:19+0200</time>
      </trkpt>
      <trkpt lat="45.21616" lon="2.93399">
        <ele>961.24481</ele>
        <time>2021-07-08T11:21:20+0200</time>
      </trkpt>
      <trkpt lat="45.2161" lon="2.934">
        <ele>961.322857</ele>
        <time>2021-07-08T11:21:21+0200</time>
      </trkpt>
      <trkpt lat="45.21603" lon="2.93401">
        <ele>961.234694</ele>
        <time>2021-07-08T11:21:22+0200</time>
      </trkpt>
      <trkpt lat="45.21597" lon="2.93401">
        <ele>961.154593</ele>
        <time>2021-07-08T11:21:23+0200</time>
      </trkpt>
      <trkpt lat="45.21591" lon="2.93401">
        <ele>961.160771</ele>
        <time>2021-07-08T11:21:24+0200</time>
      </trkpt>
      <trkpt lat="45.21584" lon="2.93402">
        <ele>961.066276</ele>
        <time>2021-07-08T11:21:25+0200</time>
      </trkpt>
      <trkpt lat="45.21577" lon="2.93401">
        <ele>961.00775</ele>
        <time>2021-07-08T11:21:26+0200</time>
      </trkpt>
      <trkpt lat="45.21571" lon="2.93401">
        <ele>961.056844</ele>
        <time>2021-07-08T11:21:27+0200</time>
      </trkpt>
      <trkpt lat="45.21564" lon="2.93402">
        <ele>961.077898</ele>
        <time>2021-07-08T11:21:28+0200</time>
      </trkpt>
      <trkpt lat="45.21557" lon="2.93402">
        <ele>961.06199</ele>
        <time>2021-07-08T11:21:29+0200</time>
      </trkpt>
      <trkpt lat="45.2155" lon="2.93401">
        <ele>961.095883</ele>
        <time>2021-07-08T11:21:30+0200</time>
      </trkpt>
      <trkpt lat="45.21544" lon="2.93402">
        <ele>961.200455</ele>
        <time>2021-07-08T11:21:31+0200</time>
      </trkpt>
      <trkpt lat="45.21538" lon="2.93401">
        <ele>961.043389</ele>
        <time>2021-07-08T11:21:32+0200</time>
      </trkpt>
      <trkpt lat="45.21531" lon="2.93401">
        <ele>961.104119</ele>
        <time>2021-07-08T11:21:33+0200</time>
      </trkpt>
      <trkpt lat="45.21525" lon="2.93401">
        <ele>961.156591</ele>
        <time>2021-07-08T11:21:34+0200</time>
      </trkpt>
      <trkpt lat="45.21518" lon="2.93401">
        <ele>961.083169</ele>
        <time>2021-07-08T11:21:35+0200</time>
      </trkpt>
      <trkpt lat="45.21511" lon="2.93401">
        <ele>960.872288</ele>
        <time>2021-07-08T11:21:36+0200</time>
      </trkpt>
      <trkpt lat="45.21505" lon="2.93401">
        <ele>960.683627</ele>
        <time>2021-07-08T11:21:37+0200</time>
      </trkpt>
      <trkpt lat="45.21498" lon="2.93401">
        <ele>960.420744</ele>
        <time>2021-07-08T11:21:38+0200</time>
      </trkpt>
      <trkpt lat="45.21491" lon="2.934">
        <ele>960.154526</ele>
        <time>2021-07-08T11:21:39+0200</time>
      </trkpt>
      <trkpt lat="45.21484" lon="2.934">
        <ele>960.133195</ele>
        <time>2021-07-08T11:21:40+0200</time>
      </trkpt>
      <trkpt lat="45.21477" lon="2.93399">
        <ele>960.026399</ele>
        <time>2021-07-08T11:21:41+0200</time>
      </trkpt>
      <trkpt lat="45.21471" lon="2.93398">
        <ele>959.85755</ele>
        <time>2021-07-08T11:21:42+0200</time>
      </trkpt>
      <trkpt lat="45.21465" lon="2.93398">
        <ele>960.086817</ele>
        <time>2021-07-08T11:21:43+0200</time>
      </trkpt>
      <trkpt lat="45.21457" lon="2.93398">
        <ele>959.883895</ele>
        <time>2021-07-08T11:21:44+0200</time>
      </trkpt>
      <trkpt lat="45.2145" lon="2.93399">
        <ele>959.80658</ele>
        <time>2021-07-08T11:21:45+0200</time>
      </trkpt>
      <trkpt lat="45.21443" lon="2.93398">
        <ele>959.557364</ele>
        <time>2021-07-08T11:21:46+0200</time>
      </trkpt>
      <trkpt lat="45.21436" lon="2.93398">
        <ele>959.249915</ele>
        <time>2021-07-08T11:21:47+0200</time>
      </trkpt>
      <trkpt lat="45.21429" lon="2.93398">
        <ele>959.064337</ele>
        <time>2021-07-08T11:21:48+0200</time>
      </trkpt>
      <trkpt lat="45.21421" lon="2.93398">
        <ele>958.566691</ele>
        <time>2021-07-08T11:21:49+0200</time>
      </trkpt>
      <trkpt lat="45.21413" lon="2.93398">
        <ele>958.562051</ele>
        <time>2021-07-08T11:21:50+0200</time>
      </trkpt>
      <trkpt lat="45.21405" lon="2.93398">
        <ele>958.715977</ele>
        <time>2021-07-08T11:21:51+0200</time>
      </trkpt>
      <trkpt lat="45.21398" lon="2.93398">
        <ele>958.796352</ele>
        <time>2021-07-08T11:21:52+0200</time>
      </trkpt>
      <trkpt lat="45.2139" lon="2.93398">
        <ele>958.900855</ele>
        <time>2021-07-08T11:21:53+0200</time>
      </trkpt>
      <trkpt lat="45.21383" lon="2.93397">
        <ele>958.799615</ele>
        <time>2021-07-08T11:21:54+0200</time>
      </trkpt>
      <trkpt lat="45.21375" lon="2.93398">
        <ele>959.019695</ele>
        <time>2021-07-08T11:21:55+0200</time>
      </trkpt>
      <trkpt lat="45.21367" lon="2.93397">
        <ele>958.998782</ele>
        <time>2021-07-08T11:21:56+0200</time>
      </trkpt>
      <trkpt lat="45.2136" lon="2.93397">
        <ele>958.945232</ele>
        <time>2021-07-08T11:21:57+0200</time>
      </trkpt>
      <trkpt lat="45.21352" lon="2.93398">
        <ele>959.263199</ele>
        <time>2021-07-08T11:21:58+0200</time>
      </trkpt>
      <trkpt lat="45.21345" lon="2.93398">
        <ele>959.402042</ele>
        <time>2021-07-08T11:21:59+0200</time>
      </trkpt>
      <trkpt lat="45.21339" lon="2.93398">
        <ele>959.434973</ele>
        <time>2021-07-08T11:22:00+0200</time>
      </trkpt>
      <trkpt lat="45.21333" lon="2.93398">
        <ele>959.782433</ele>
        <time>2021-07-08T11:22:01+0200</time>
      </trkpt>
      <trkpt lat="45.21327" lon="2.93397">
        <ele>959.505864</ele>
        <time>2021-07-08T11:22:02+0200</time>
      </trkpt>
      <trkpt lat="45.21321" lon="2.93397">
        <ele>959.38226</ele>
        <time>2021-07-08T11:22:03+0200</time>
      </trkpt>
      <trkpt lat="45.21315" lon="2.93397">
        <ele>959.559893</ele>
        <time>2021-07-08T11:22:04+0200</time>
      </trkpt>
      <trkpt lat="45.21308" lon="2.93398">
        <ele>959.585074</ele>
        <time>2021-07-08T11:22:05+0200</time>
      </trkpt>
      <trkpt lat="45.21302" lon="2.93399">
        <ele>960.01549</ele>
        <time>2021-07-08T11:22:06+0200</time>
      </trkpt>
      <trkpt lat="45.21295" lon="2.93399">
        <ele>959.62799</ele>
        <time>2021-07-08T11:22:07+0200</time>
      </trkpt>
      <trkpt lat="45.21288" lon="2.934">
        <ele>959.182756</ele>
        <time>2021-07-08T11:22:08+0200</time>
      </trkpt>
      <trkpt lat="45.21281" lon="2.93401">
        <ele>958.842715</ele>
        <time>2021-07-08T11:22:09+0200</time>
      </trkpt>
      <trkpt lat="45.21273" lon="2.93402">
        <ele>958.192065</ele>
        <time>2021-07-08T11:22:10+0200</time>
      </trkpt>
      <trkpt lat="45.21266" lon="2.93404">
        <ele>957.758858</ele>
        <time>2021-07-08T11:22:11+0200</time>
      </trkpt>
      <trkpt lat="45.21259" lon="2.93408">
        <ele>956.909094</ele>
        <time>2021-07-08T11:22:12+0200</time>
      </trkpt>
      <trkpt lat="45.21251" lon="2.93412">
        <ele>956.229316</ele>
        <time>2021-07-08T11:22:13+0200</time>
      </trkpt>
      <trkpt lat="45.21243" lon="2.93418">
        <ele>955.632166</ele>
        <time>2021-07-08T11:22:14+0200</time>
      </trkpt>
      <trkpt lat="45.21235" lon="2.93424">
        <ele>954.771752</ele>
        <time>2021-07-08T11:22:15+0200</time>
      </trkpt>
      <trkpt lat="45.21227" lon="2.9343">
        <ele>954.015168</ele>
        <time>2021-07-08T11:22:16+0200</time>
      </trkpt>
      <trkpt lat="45.21218" lon="2.93433">
        <ele>953.662742</ele>
        <time>2021-07-08T11:22:17+0200</time>
      </trkpt>
      <trkpt lat="45.21209" lon="2.93433">
        <ele>953.93746</ele>
        <time>2021-07-08T11:22:18+0200</time>
      </trkpt>
      <trkpt lat="45.21201" lon="2.93434">
        <ele>954.020414</ele>
        <time>2021-07-08T11:22:19+0200</time>
      </trkpt>
      <trkpt lat="45.21194" lon="2.93435">
        <ele>954.020388</ele>
        <time>2021-07-08T11:22:20+0200</time>
      </trkpt>
      <trkpt lat="45.21186" lon="2.93436">
        <ele>953.800338</ele>
        <time>2021-07-08T11:22:21+0200</time>
      </trkpt>
      <trkpt lat="45.21179" lon="2.9344">
        <ele>953.411423</ele>
        <time>2021-07-08T11:22:22+0200</time>
      </trkpt>
      <trkpt lat="45.21172" lon="2.93444">
        <ele>952.866721</ele>
        <time>2021-07-08T11:22:23+0200</time>
      </trkpt>
      <trkpt lat="45.21164" lon="2.93449">
        <ele>952.418638</ele>
        <time>2021-07-08T11:22:24+0200</time>
      </trkpt>
      <trkpt lat="45.21157" lon="2.93454">
        <ele>952.035477</ele>
        <time>2021-07-08T11:22:25+0200</time>
      </trkpt>
      <trkpt lat="45.2115" lon="2.93459">
        <ele>951.564518</ele>
        <time>2021-07-08T11:22:26+0200</time>
      </trkpt>
      <trkpt lat="45.21142" lon="2.93464">
        <ele>951.194421</ele>
        <time>2021-07-08T11:22:27+0200</time>
      </trkpt>
      <trkpt lat="45.21133" lon="2.93468">
        <ele>950.887983</ele>
        <time>2021-07-08T11:22:28+0200</time>
      </trkpt>
      <trkpt lat="45.21126" lon="2.93471">
        <ele>950.355794</ele>
        <time>2021-07-08T11:22:29+0200</time>
      </trkpt>
      <trkpt lat="45.21118" lon="2.93474">
        <ele>950.120023</ele>
        <time>2021-07-08T11:22:30+0200</time>
      </trkpt>
      <trkpt lat="45.2111" lon="2.93476">
        <ele>949.634831</ele>
        <time>2021-07-08T11:22:31+0200</time>
      </trkpt>
      <trkpt lat="45.21103" lon="2.93478">
        <ele>949.616335</ele>
        <time>2021-07-08T11:22:32+0200</time>
      </trkpt>
      <trkpt lat="45.21094" lon="2.93481">
        <ele>949.721958</ele>
        <time>2021-07-08T11:22:33+0200</time>
      </trkpt>
      <trkpt lat="45.21087" lon="2.93485">
        <ele>949.889527</ele>
        <time>2021-07-08T11:22:34+0200</time>
      </trkpt>
      <trkpt lat="45.2108" lon="2.93488">
        <ele>950.428251</ele>
        <time>2021-07-08T11:22:35+0200</time>
      </trkpt>
      <trkpt lat="45.21073" lon="2.93492">
        <ele>950.145739</ele>
        <time>2021-07-08T11:22:36+0200</time>
      </trkpt>
      <trkpt lat="45.21066" lon="2.93494">
        <ele>950.448178</ele>
        <time>2021-07-08T11:22:37+0200</time>
      </trkpt>
      <trkpt lat="45.21059" lon="2.93496">
        <ele>950.383595</ele>
        <time>2021-07-08T11:22:38+0200</time>
      </trkpt>
      <trkpt lat="45.21051" lon="2.93498">
        <ele>950.14416</ele>
        <time>2021-07-08T11:22:39+0200</time>
      </trkpt>
      <trkpt lat="45.21044" lon="2.935">
        <ele>949.832445</ele>
        <time>2021-07-08T11:22:40+0200</time>
      </trkpt>
      <trkpt lat="45.21037" lon="2.93499">
        <ele>949.890319</ele>
        <time>2021-07-08T11:22:41+0200</time>
      </trkpt>
      <trkpt lat="45.21029" lon="2.93499">
        <ele>949.861193</ele>
        <time>2021-07-08T11:22:42+0200</time>
      </trkpt>
      <trkpt lat="45.21022" lon="2.935">
        <ele>949.793667</ele>
        <time>2021-07-08T11:22:43+0200</time>
      </trkpt>
      <trkpt lat="45.21015" lon="2.935">
        <ele>949.480453</ele>
        <time>2021-07-08T11:22:44+0200</time>
      </trkpt>
      <trkpt lat="45.21008" lon="2.93499">
        <ele>949.271595</ele>
        <time>2021-07-08T11:22:45+0200</time>
      </trkpt>
      <trkpt lat="45.21001" lon="2.93496">
        <ele>949.434594</ele>
        <time>2021-07-08T11:22:46+0200</time>
      </trkpt>
      <trkpt lat="45.20993" lon="2.93494">
        <ele>949.163311</ele>
        <time>2021-07-08T11:22:47+0200</time>
      </trkpt>
      <trkpt lat="45.20986" lon="2.93491">
        <ele>949.393979</ele>
        <time>2021-07-08T11:22:48+0200</time>
      </trkpt>
      <trkpt lat="45.2098" lon="2.93489">
        <ele>949.491501</ele>
        <time>2021-07-08T11:22:49+0200</time>
      </trkpt>
      <trkpt lat="45.20973" lon="2.93486">
        <ele>949.373761</ele>
        <time>2021-07-08T11:22:50+0200</time>
      </trkpt>
      <trkpt lat="45.20966" lon="2.93483">
        <ele>949.477516</ele>
        <time>2021-07-08T11:22:51+0200</time>
      </trkpt>
      <trkpt lat="45.2096" lon="2.93481">
        <ele>949.393354</ele>
        <time>2021-07-08T11:22:52+0200</time>
      </trkpt>
      <trkpt lat="45.20955" lon="2.93478">
        <ele>949.178405</ele>
        <time>2021-07-08T11:22:53+0200</time>
      </trkpt>
      <trkpt lat="45.20949" lon="2.93476">
        <ele>948.855431</ele>
        <time>2021-07-08T11:22:54+0200</time>
      </trkpt>
      <trkpt lat="45.20944" lon="2.93474">
        <ele>948.779481</ele>
        <time>2021-07-08T11:22:55+0200</time>
      </trkpt>
      <trkpt lat="45.20938" lon="2.9347">
        <ele>948.650484</ele>
        <time>2021-07-08T11:22:56+0200</time>
      </trkpt>
      <trkpt lat="45.20932" lon="2.93468">
        <ele>948.86923</ele>
        <time>2021-07-08T11:22:57+0200</time>
      </trkpt>
      <trkpt lat="45.20928" lon="2.93465">
        <ele>948.65544</ele>
        <time>2021-07-08T11:22:58+0200</time>
      </trkpt>
      <trkpt lat="45.20922" lon="2.93462">
        <ele>948.454212</ele>
        <time>2021-07-08T11:22:59+0200</time>
      </trkpt>
      <trkpt lat="45.20917" lon="2.9346">
        <ele>948.464539</ele>
        <time>2021-07-08T11:23:00+0200</time>
      </trkpt>
      <trkpt lat="45.20911" lon="2.93457">
        <ele>948.552983</ele>
        <time>2021-07-08T11:23:01+0200</time>
      </trkpt>
      <trkpt lat="45.20907" lon="2.93453">
        <ele>948.646615</ele>
        <time>2021-07-08T11:23:02+0200</time>
      </trkpt>
      <trkpt lat="45.20901" lon="2.9345">
        <ele>948.794208</ele>
        <time>2021-07-08T11:23:03+0200</time>
      </trkpt>
      <trkpt lat="45.20897" lon="2.93446">
        <ele>948.981927</ele>
        <time>2021-07-08T11:23:04+0200</time>
      </trkpt>
      <trkpt lat="45.20892" lon="2.93444">
        <ele>949.258562</ele>
        <time>2021-07-08T11:23:05+0200</time>
      </trkpt>
      <trkpt lat="45.20887" lon="2.93441">
        <ele>949.284664</ele>
        <time>2021-07-08T11:23:06+0200</time>
      </trkpt>
      <trkpt lat="45.20882" lon="2.93437">
        <ele>949.93992</ele>
        <time>2021-07-08T11:23:07+0200</time>
      </trkpt>
      <trkpt lat="45.20877" lon="2.93433">
        <ele>950.276208</ele>
        <time>2021-07-08T11:23:08+0200</time>
      </trkpt>
      <trkpt lat="45.20872" lon="2.9343">
        <ele>950.492674</ele>
        <time>2021-07-08T11:23:09+0200</time>
      </trkpt>
      <trkpt lat="45.20868" lon="2.93426">
        <ele>950.741915</ele>
        <time>2021-07-08T11:23:10+0200</time>
      </trkpt>
      <trkpt lat="45.20863" lon="2.93423">
        <ele>950.710812</ele>
        <time>2021-07-08T11:23:11+0200</time>
      </trkpt>
      <trkpt lat="45.20858" lon="2.9342">
        <ele>950.942768</ele>
        <time>2021-07-08T11:23:12+0200</time>
      </trkpt>
      <trkpt lat="45.20854" lon="2.93416">
        <ele>950.436986</ele>
        <time>2021-07-08T11:23:13+0200</time>
      </trkpt>
      <trkpt lat="45.2085" lon="2.93412">
        <ele>950.486936</ele>
        <time>2021-07-08T11:23:14+0200</time>
      </trkpt>
      <trkpt lat="45.20846" lon="2.93408">
        <ele>950.589141</ele>
        <time>2021-07-08T11:23:15+0200</time>
      </trkpt>
      <trkpt lat="45.20841" lon="2.93405">
        <ele>950.918222</ele>
        <time>2021-07-08T11:23:16+0200</time>
      </trkpt>
      <trkpt lat="45.20836" lon="2.93401">
        <ele>951.084341</ele>
        <time>2021-07-08T11:23:17+0200</time>
      </trkpt>
      <trkpt lat="45.20831" lon="2.93397">
        <ele>951.142758</ele>
        <time>2021-07-08T11:23:18+0200</time>
      </trkpt>
      <trkpt lat="45.20827" lon="2.93393">
        <ele>951.27135</ele>
        <time>2021-07-08T11:23:19+0200</time>
      </trkpt>
      <trkpt lat="45.20822" lon="2.93389">
        <ele>951.330207</ele>
        <time>2021-07-08T11:23:20+0200</time>
      </trkpt>
      <trkpt lat="45.20817" lon="2.93386">
        <ele>951.290422</ele>
        <time>2021-07-08T11:23:21+0200</time>
      </trkpt>
      <trkpt lat="45.20813" lon="2.93383">
        <ele>951.224796</ele>
        <time>2021-07-08T11:23:22+0200</time>
      </trkpt>
      <trkpt lat="45.20807" lon="2.9338">
        <ele>951.250889</ele>
        <time>2021-07-08T11:23:23+0200</time>
      </trkpt>
      <trkpt lat="45.20803" lon="2.93377">
        <ele>951.359067</ele>
        <time>2021-07-08T11:23:24+0200</time>
      </trkpt>
      <trkpt lat="45.20797" lon="2.93374">
        <ele>951.38477</ele>
        <time>2021-07-08T11:23:25+0200</time>
      </trkpt>
      <trkpt lat="45.20792" lon="2.9337">
        <ele>951.29481</ele>
        <time>2021-07-08T11:23:26+0200</time>
      </trkpt>
      <trkpt lat="45.20786" lon="2.93369">
        <ele>951.518618</ele>
        <time>2021-07-08T11:23:27+0200</time>
      </trkpt>
      <trkpt lat="45.20781" lon="2.93366">
        <ele>951.202105</ele>
        <time>2021-07-08T11:23:28+0200</time>
      </trkpt>
      <trkpt lat="45.20775" lon="2.93364">
        <ele>950.714183</ele>
        <time>2021-07-08T11:23:29+0200</time>
      </trkpt>
      <trkpt lat="45.20768" lon="2.93361">
        <ele>950.418146</ele>
        <time>2021-07-08T11:23:30+0200</time>
      </trkpt>
      <trkpt lat="45.20762" lon="2.93359">
        <ele>950.219234</ele>
        <time>2021-07-08T11:23:31+0200</time>
      </trkpt>
      <trkpt lat="45.20756" lon="2.93356">
        <ele>950.628309</ele>
        <time>2021-07-08T11:23:32+0200</time>
      </trkpt>
      <trkpt lat="45.20749" lon="2.93354">
        <ele>950.322672</ele>
        <time>2021-07-08T11:23:33+0200</time>
      </trkpt>
      <trkpt lat="45.20742" lon="2.93352">
        <ele>950.374013</ele>
        <time>2021-07-08T11:23:34+0200</time>
      </trkpt>
      <trkpt lat="45.20735" lon="2.9335">
        <ele>950.26448</ele>
        <time>2021-07-08T11:23:35+0200</time>
      </trkpt>
      <trkpt lat="45.20727" lon="2.93347">
        <ele>949.714088</ele>
        <time>2021-07-08T11:23:36+0200</time>
      </trkpt>
      <trkpt lat="45.2072" lon="2.93345">
        <ele>950.028834</ele>
        <time>2021-07-08T11:23:37+0200</time>
      </trkpt>
      <trkpt lat="45.20712" lon="2.93343">
        <ele>949.86199</ele>
        <time>2021-07-08T11:23:38+0200</time>
      </trkpt>
      <trkpt lat="45.20703" lon="2.93342">
        <ele>949.507154</ele>
        <time>2021-07-08T11:23:39+0200</time>
      </trkpt>
      <trkpt lat="45.20696" lon="2.9334">
        <ele>949.164416</ele>
        <time>2021-07-08T11:23:40+0200</time>
      </trkpt>
      <trkpt lat="45.20688" lon="2.93338">
        <ele>948.798288</ele>
        <time>2021-07-08T11:23:41+0200</time>
      </trkpt>
      <trkpt lat="45.20681" lon="2.93337">
        <ele>948.726492</ele>
        <time>2021-07-08T11:23:42+0200</time>
      </trkpt>
      <trkpt lat="45.20673" lon="2.93335">
        <ele>948.547659</ele>
        <time>2021-07-08T11:23:43+0200</time>
      </trkpt>
      <trkpt lat="45.20665" lon="2.93334">
        <ele>948.316393</ele>
        <time>2021-07-08T11:23:44+0200</time>
      </trkpt>
      <trkpt lat="45.20657" lon="2.93333">
        <ele>947.84437</ele>
        <time>2021-07-08T11:23:45+0200</time>
      </trkpt>
      <trkpt lat="45.20649" lon="2.93332">
        <ele>947.433965</ele>
        <time>2021-07-08T11:23:46+0200</time>
      </trkpt>
      <trkpt lat="45.2064" lon="2.9333">
        <ele>947.117014</ele>
        <time>2021-07-08T11:23:47+0200</time>
      </trkpt>
      <trkpt lat="45.20633" lon="2.93329">
        <ele>946.721981</ele>
        <time>2021-07-08T11:23:48+0200</time>
      </trkpt>
      <trkpt lat="45.20625" lon="2.93328">
        <ele>946.393208</ele>
        <time>2021-07-08T11:23:49+0200</time>
      </trkpt>
      <trkpt lat="45.20617" lon="2.93327">
        <ele>946.282551</ele>
        <time>2021-07-08T11:23:50+0200</time>
      </trkpt>
      <trkpt lat="45.2061" lon="2.93325">
        <ele>946.258424</ele>
        <time>2021-07-08T11:23:51+0200</time>
      </trkpt>
      <trkpt lat="45.20603" lon="2.93323">
        <ele>946.712683</ele>
        <time>2021-07-08T11:23:52+0200</time>
      </trkpt>
      <trkpt lat="45.20596" lon="2.93321">
        <ele>947.328036</ele>
        <time>2021-07-08T11:23:53+0200</time>
      </trkpt>
      <trkpt lat="45.20588" lon="2.9332">
        <ele>947.429043</ele>
        <time>2021-07-08T11:23:54+0200</time>
      </trkpt>
      <trkpt lat="45.20581" lon="2.93319">
        <ele>947.706384</ele>
        <time>2021-07-08T11:23:55+0200</time>
      </trkpt>
      <trkpt lat="45.20574" lon="2.93317">
        <ele>947.915048</ele>
        <time>2021-07-08T11:23:56+0200</time>
      </trkpt>
      <trkpt lat="45.20568" lon="2.93315">
        <ele>948.027656</ele>
        <time>2021-07-08T11:23:57+0200</time>
      </trkpt>
      <trkpt lat="45.20562" lon="2.93314">
        <ele>948.278421</ele>
        <time>2021-07-08T11:23:58+0200</time>
      </trkpt>
      <trkpt lat="45.20556" lon="2.93312">
        <ele>948.45037</ele>
        <time>2021-07-08T11:23:59+0200</time>
      </trkpt>
      <trkpt lat="45.20551" lon="2.93311">
        <ele>948.568932</ele>
        <time>2021-07-08T11:24:00+0200</time>
      </trkpt>
      <trkpt lat="45.20547" lon="2.9331">
        <ele>949.270207</ele>
        <time>2021-07-08T11:24:01+0200</time>
      </trkpt>
      <trkpt lat="45.20538" lon="2.93309">
        <ele>950.081295</ele>
        <time>2021-07-08T11:24:03+0200</time>
      </trkpt>
      <trkpt lat="45.20532" lon="2.93305">
        <ele>950.366797</ele>
        <time>2021-07-08T11:24:05+0200</time>
      </trkpt>
      <trkpt lat="45.20526" lon="2.93301">
        <ele>951.617485</ele>
        <time>2021-07-08T11:24:07+0200</time>
      </trkpt>
      <trkpt lat="45.20521" lon="2.93295">
        <ele>952.401458</ele>
        <time>2021-07-08T11:24:09+0200</time>
      </trkpt>
      <trkpt lat="45.20515" lon="2.9329">
        <ele>952.802718</ele>
        <time>2021-07-08T11:24:11+0200</time>
      </trkpt>
      <trkpt lat="45.2051" lon="2.93282">
        <ele>953.167729</ele>
        <time>2021-07-08T11:24:13+0200</time>
      </trkpt>
      <trkpt lat="45.20506" lon="2.93277">
        <ele>952.785849</ele>
        <time>2021-07-08T11:24:15+0200</time>
      </trkpt>
      <trkpt lat="45.20502" lon="2.93273">
        <ele>952.575738</ele>
        <time>2021-07-08T11:24:17+0200</time>
      </trkpt>
      <trkpt lat="45.20499" lon="2.93266">
        <ele>953.734558</ele>
        <time>2021-07-08T11:24:20+0200</time>
      </trkpt>
      <trkpt lat="45.205" lon="2.93271">
        <ele>957.72</ele>
        <time>2021-07-08T09:24:25.000Z</time>
      </trkpt>
      <trkpt lat="45.205" lon="2.93271">
        <ele>957.72</ele>
        <time>2021-07-08T09:24:25.000Z</time>
      </trkpt>
      <trkpt lat="45.20505" lon="2.93246">
        <ele>958.26</ele>
        <time>2021-07-08T09:24:31.054Z</time>
      </trkpt>
      <trkpt lat="45.20532" lon="2.93183">
        <ele>960.22</ele>
        <time>2021-07-08T09:24:50.213Z</time>
      </trkpt>
      <trkpt lat="45.2054" lon="2.93159">
        <ele>962.45</ele>
        <time>2021-07-08T09:25:04.656Z</time>
      </trkpt>
      <trkpt lat="45.20537" lon="2.93126">
        <ele>964.57</ele>
        <time>2021-07-08T09:25:18.114Z</time>
      </trkpt>
      <trkpt lat="45.20528" lon="2.93105">
        <ele>965.3</ele>
        <time>2021-07-08T09:25:24.922Z</time>
      </trkpt>
      <trkpt lat="45.20519" lon="2.93049">
        <ele>967.18</ele>
        <time>2021-07-08T09:25:41.611Z</time>
      </trkpt>
      <trkpt lat="45.20513" lon="2.93049">
        <ele>968.45</ele>
        <time>2021-07-08T09:25:47.197Z</time>
      </trkpt>
      <trkpt lat="45.20493" lon="2.93076">
        <ele>970.42</ele>
        <time>2021-07-08T09:26:00.741Z</time>
      </trkpt>
      <trkpt lat="45.20483" lon="2.93155">
        <ele>971.25</ele>
        <time>2021-07-08T09:26:16.508Z</time>
      </trkpt>
      <trkpt lat="45.20468" lon="2.93183">
        <ele>971.92</ele>
        <time>2021-07-08T09:26:24.458Z</time>
      </trkpt>
      <trkpt lat="45.20433" lon="2.93228">
        <ele>972.73</ele>
        <time>2021-07-08T09:26:37.979Z</time>
      </trkpt>
      <trkpt lat="45.20407" lon="2.93244">
        <ele>976.35</ele>
        <time>2021-07-08T09:27:02.352Z</time>
      </trkpt>
      <trkpt lat="45.20374" lon="2.93257">
        <ele>976.69</ele>
        <time>2021-07-08T09:27:11.444Z</time>
      </trkpt>
      <trkpt lat="45.20301" lon="2.93265">
        <ele>982.29</ele>
        <time>2021-07-08T09:27:48.827Z</time>
      </trkpt>
      <trkpt lat="45.20231" lon="2.93263">
        <ele>993.09</ele>
        <time>2021-07-08T09:28:54.000Z</time>
      </trkpt>
      <trkpt lat="45.20116" lon="2.9325">
        <ele>1004.25</ele>
        <time>2021-07-08T09:30:04.169Z</time>
      </trkpt>
      <trkpt lat="45.20084" lon="2.93218">
        <ele>1013.74</ele>
        <time>2021-07-08T09:30:40.607Z</time>
      </trkpt>
      <trkpt lat="45.20009" lon="2.93212">
        <ele>1023.7</ele>
        <time>2021-07-08T09:31:49.689Z</time>
      </trkpt>
      <trkpt lat="45.1996" lon="2.93244">
        <ele>1029.63</ele>
        <time>2021-07-08T09:32:27.169Z</time>
      </trkpt>
      <trkpt lat="45.19792" lon="2.93319">
        <ele>1033.18</ele>
        <time>2021-07-08T09:33:19.296Z</time>
      </trkpt>
      <trkpt lat="45.19743" lon="2.93308">
        <ele>1036.57</ele>
        <time>2021-07-08T09:33:43.088Z</time>
      </trkpt>
      <trkpt lat="45.19703" lon="2.93292">
        <ele>1040.4</ele>
        <time>2021-07-08T09:34:07.318Z</time>
      </trkpt>
      <trkpt lat="45.1954" lon="2.9317">
        <ele>1047.29</ele>
        <time>2021-07-08T09:35:14.954Z</time>
      </trkpt>
      <trkpt lat="45.19428" lon="2.93127">
        <ele>1052.39</ele>
        <time>2021-07-08T09:36:01.827Z</time>
      </trkpt>
      <trkpt lat="45.19378" lon="2.93104">
        <ele>1053.32</ele>
        <time>2021-07-08T09:36:16.965Z</time>
      </trkpt>
      <trkpt lat="45.19257" lon="2.93038">
        <ele>1053.05</ele>
        <time>2021-07-08T09:36:47.281Z</time>
      </trkpt>
      <trkpt lat="45.19226" lon="2.93022">
        <ele>1051.17</ele>
        <time>2021-07-08T09:36:50.668Z</time>
      </trkpt>
      <trkpt lat="45.19157" lon="2.92999">
        <ele>1046.71</ele>
        <time>2021-07-08T09:36:57.607Z</time>
      </trkpt>
      <trkpt lat="45.19147" lon="2.92998">
        <ele>1043.88</ele>
        <time>2021-07-08T09:36:58.648Z</time>
      </trkpt>
      <trkpt lat="45.19089" lon="2.92989">
        <ele>1041.7</ele>
        <time>2021-07-08T09:37:05.783Z</time>
      </trkpt>
      <trkpt lat="45.19068" lon="2.92989">
        <ele>1040.86</ele>
        <time>2021-07-08T09:37:08.286Z</time>
      </trkpt>
      <trkpt lat="45.19061" lon="2.92993">
        <ele>1040.15</ele>
        <time>2021-07-08T09:37:09.070Z</time>
      </trkpt>
      <trkpt lat="45.19056" lon="2.93002">
        <ele>1040.71</ele>
        <time>2021-07-08T09:37:12.972Z</time>
      </trkpt>
      <trkpt lat="45.19042" lon="2.9304">
        <ele>1040.94</ele>
        <time>2021-07-08T09:37:20.812Z</time>
      </trkpt>
      <trkpt lat="45.1905" lon="2.93053">
        <ele>1041.29</ele>
        <time>2021-07-08T09:37:24.798Z</time>
      </trkpt>
      <trkpt lat="45.19064" lon="2.93093">
        <ele>1041.73</ele>
        <time>2021-07-08T09:37:33.509Z</time>
      </trkpt>
      <trkpt lat="45.19066" lon="2.93146">
        <ele>1042.27</ele>
        <time>2021-07-08T09:37:43.912Z</time>
      </trkpt>
      <trkpt lat="45.19064" lon="2.93263">
        <ele>1043.3</ele>
        <time>2021-07-08T09:38:06.387Z</time>
      </trkpt>
      <trkpt lat="45.19066" lon="2.93296">
        <ele>1044.65</ele>
        <time>2021-07-08T09:38:16.770Z</time>
      </trkpt>
      <trkpt lat="45.1908" lon="2.93362">
        <ele>1046.24</ele>
        <time>2021-07-08T09:38:33.513Z</time>
      </trkpt>
      <trkpt lat="45.19105" lon="2.93448">
        <ele>1048.23</ele>
        <time>2021-07-08T09:38:55.428Z</time>
      </trkpt>
      <trkpt lat="45.1912" lon="2.9349">
        <ele>1049.47</ele>
        <time>2021-07-08T09:39:07.603Z</time>
      </trkpt>
      <trkpt lat="45.19129" lon="2.9352">
        <ele>1049.93</ele>
        <time>2021-07-08T09:39:14.394Z</time>
      </trkpt>
      <trkpt lat="45.19197" lon="2.93643">
        <ele>1050.39</ele>
        <time>2021-07-08T09:39:42.039Z</time>
      </trkpt>
      <trkpt lat="45.19209" lon="2.93699">
        <ele>1051.83</ele>
        <time>2021-07-08T09:39:56.673Z</time>
      </trkpt>
      <trkpt lat="45.19211" lon="2.93752">
        <ele>1053.62</ele>
        <time>2021-07-08T09:40:12.238Z</time>
      </trkpt>
      <trkpt lat="45.19206" lon="2.9381">
        <ele>1056.52</ele>
        <time>2021-07-08T09:40:32.300Z</time>
      </trkpt>
      <trkpt lat="45.19201" lon="2.93842">
        <ele>1059.65</ele>
        <time>2021-07-08T09:40:53.801Z</time>
      </trkpt>
      <trkpt lat="45.19191" lon="2.93875">
        <ele>1062.23</ele>
        <time>2021-07-08T09:41:09.991Z</time>
      </trkpt>
      <trkpt lat="45.19166" lon="2.93927">
        <ele>1064.22</ele>
        <time>2021-07-08T09:41:28.100Z</time>
      </trkpt>
      <trkpt lat="45.19101" lon="2.9403">
        <ele>1065.45</ele>
        <time>2021-07-08T09:41:54.689Z</time>
      </trkpt>
      <trkpt lat="45.19075" lon="2.94052">
        <ele>1066.82</ele>
        <time>2021-07-08T09:42:07.078Z</time>
      </trkpt>
      <trkpt lat="45.19039" lon="2.94094">
        <ele>1067.84</ele>
        <time>2021-07-08T09:42:21.146Z</time>
      </trkpt>
      <trkpt lat="45.19009" lon="2.94123">
        <ele>1068.17</ele>
        <time>2021-07-08T09:42:30.702Z</time>
      </trkpt>
      <trkpt lat="45.18979" lon="2.94142">
        <ele>1068.06</ele>
        <time>2021-07-08T09:42:38.244Z</time>
      </trkpt>
      <trkpt lat="45.18917" lon="2.94171">
        <ele>1067.52</ele>
        <time>2021-07-08T09:42:49.385Z</time>
      </trkpt>
      <trkpt lat="45.18773" lon="2.94214">
        <ele>1067.71</ele>
        <time>2021-07-08T09:43:25.322Z</time>
      </trkpt>
      <trkpt lat="45.18681" lon="2.94293">
        <ele>1067.4</ele>
        <time>2021-07-08T09:43:50.176Z</time>
      </trkpt>
      <trkpt lat="45.18662" lon="2.943">
        <ele>1068.39</ele>
        <time>2021-07-08T09:43:58.484Z</time>
      </trkpt>
      <trkpt lat="45.18639" lon="2.94298">
        <ele>1069.59</ele>
        <time>2021-07-08T09:44:08.341Z</time>
      </trkpt>
      <trkpt lat="45.18574" lon="2.94284">
        <ele>1072.2</ele>
        <time>2021-07-08T09:44:33.274Z</time>
      </trkpt>
      <trkpt lat="45.18543" lon="2.94279">
        <ele>1073.3</ele>
        <time>2021-07-08T09:44:44.395Z</time>
      </trkpt>
      <trkpt lat="45.18505" lon="2.9427">
        <ele>1074.87</ele>
        <time>2021-07-08T09:44:59.230Z</time>
      </trkpt>
      <trkpt lat="45.1847" lon="2.94277">
        <ele>1075.68</ele>
        <time>2021-07-08T09:45:10.026Z</time>
      </trkpt>
      <trkpt lat="45.18451" lon="2.94271">
        <ele>1076.25</ele>
        <time>2021-07-08T09:45:16.445Z</time>
      </trkpt>
      <trkpt lat="45.18422" lon="2.94255">
        <ele>1075.59</ele>
        <time>2021-07-08T09:45:20.961Z</time>
      </trkpt>
      <trkpt lat="45.18387" lon="2.94244">
        <ele>1074.39</ele>
        <time>2021-07-08T09:45:25.517Z</time>
      </trkpt>
      <trkpt lat="45.18308" lon="2.94165">
        <ele>1072.18</ele>
        <time>2021-07-08T09:45:39.281Z</time>
      </trkpt>
      <trkpt lat="45.18281" lon="2.94103">
        <ele>1070.17</ele>
        <time>2021-07-08T09:45:45.456Z</time>
      </trkpt>
      <trkpt lat="45.18256" lon="2.94024">
        <ele>1066.73</ele>
        <time>2021-07-08T09:45:51.754Z</time>
      </trkpt>
      <trkpt lat="45.18249" lon="2.93924">
        <ele>1063.67</ele>
        <time>2021-07-08T09:45:59.950Z</time>
      </trkpt>
      <trkpt lat="45.18239" lon="2.9383">
        <ele>1060.65</ele>
        <time>2021-07-08T09:46:07.572Z</time>
      </trkpt>
      <trkpt lat="45.18228" lon="2.93758">
        <ele>1058.31</ele>
        <time>2021-07-08T09:46:13.478Z</time>
      </trkpt>
      <trkpt lat="45.18206" lon="2.93717">
        <ele>1056.04</ele>
        <time>2021-07-08T09:46:17.046Z</time>
      </trkpt>
      <trkpt lat="45.18193" lon="2.93679">
        <ele>1055.26</ele>
        <time>2021-07-08T09:46:21.131Z</time>
      </trkpt>
      <trkpt lat="45.18183" lon="2.93669">
        <ele>1054.2</ele>
        <time>2021-07-08T09:46:22.402Z</time>
      </trkpt>
      <trkpt lat="45.18152" lon="2.93658">
        <ele>1053.82</ele>
        <time>2021-07-08T09:46:27.599Z</time>
      </trkpt>
      <trkpt lat="45.18097" lon="2.93618">
        <ele>1053.72</ele>
        <time>2021-07-08T09:46:42.154Z</time>
      </trkpt>
      <trkpt lat="45.18075" lon="2.93594">
        <ele>1053.96</ele>
        <time>2021-07-08T09:46:49.428Z</time>
      </trkpt>
      <trkpt lat="45.18003" lon="2.93552">
        <ele>1053.89</ele>
        <time>2021-07-08T09:47:07.960Z</time>
      </trkpt>
      <trkpt lat="45.17992" lon="2.93545">
        <ele>1053.97</ele>
        <time>2021-07-08T09:47:11.057Z</time>
      </trkpt>
      <trkpt lat="45.18002" lon="2.93535">
        <ele>1053.98</ele>
        <time>2021-07-08T09:47:14.032Z</time>
      </trkpt>
      <trkpt lat="45.18054" lon="2.93497">
        <ele>1054.13</ele>
        <time>2021-07-08T09:47:28.488Z</time>
      </trkpt>
      <trkpt lat="45.18065" lon="2.93479">
        <ele>1053.33</ele>
        <time>2021-07-08T09:47:30.354Z</time>
      </trkpt>
      <trkpt lat="45.18078" lon="2.93445">
        <ele>1052.79</ele>
        <time>2021-07-08T09:47:34.377Z</time>
      </trkpt>
      <trkpt lat="45.18096" lon="2.93376">
        <ele>1051.68</ele>
        <time>2021-07-08T09:47:41.886Z</time>
      </trkpt>
      <trkpt lat="45.18108" lon="2.9335">
        <ele>1050.33</ele>
        <time>2021-07-08T09:47:44.053Z</time>
      </trkpt>
      <trkpt lat="45.18108" lon="2.9334">
        <ele>1048.93</ele>
        <time>2021-07-08T09:47:44.785Z</time>
      </trkpt>
      <trkpt lat="45.18102" lon="2.93338">
        <ele>1048.32</ele>
        <time>2021-07-08T09:47:45.425Z</time>
      </trkpt>
      <trkpt lat="45.18056" lon="2.93394">
        <ele>1047.71</ele>
        <time>2021-07-08T09:47:55.523Z</time>
      </trkpt>
      <trkpt lat="45.18039" lon="2.93406">
        <ele>1046.69</ele>
        <time>2021-07-08T09:47:57.526Z</time>
      </trkpt>
      <trkpt lat="45.18019" lon="2.93414">
        <ele>1045.54</ele>
        <time>2021-07-08T09:47:59.688Z</time>
      </trkpt>
      <trkpt lat="45.17995" lon="2.9341">
        <ele>1043.94</ele>
        <time>2021-07-08T09:48:01.995Z</time>
      </trkpt>
      <trkpt lat="45.18023" lon="2.93366">
        <ele>1042.94</ele>
        <time>2021-07-08T09:48:07.874Z</time>
      </trkpt>
      <trkpt lat="45.1804" lon="2.93322">
        <ele>1041.71</ele>
        <time>2021-07-08T09:48:12.311Z</time>
      </trkpt>
      <trkpt lat="45.1804" lon="2.93264">
        <ele>1041.7</ele>
        <time>2021-07-08T09:48:22.140Z</time>
      </trkpt>
      <trkpt lat="45.18037" lon="2.93208">
        <ele>1042.66</ele>
        <time>2021-07-08T09:48:34.422Z</time>
      </trkpt>
      <trkpt lat="45.18028" lon="2.9318">
        <ele>1043.35</ele>
        <time>2021-07-08T09:48:41.809Z</time>
      </trkpt>
      <trkpt lat="45.18006" lon="2.93142">
        <ele>1041.58</ele>
        <time>2021-07-08T09:48:45.548Z</time>
      </trkpt>
      <trkpt lat="45.17938" lon="2.93074">
        <ele>1038.97</ele>
        <time>2021-07-08T09:48:56.353Z</time>
      </trkpt>
      <trkpt lat="45.17911" lon="2.93042">
        <ele>1035.59</ele>
        <time>2021-07-08T09:49:00.006Z</time>
      </trkpt>
      <trkpt lat="45.17898" lon="2.93019">
        <ele>1031.58</ele>
        <time>2021-07-08T09:49:02.164Z</time>
      </trkpt>
      <trkpt lat="45.17884" lon="2.92972">
        <ele>1028.53</ele>
        <time>2021-07-08T09:49:05.899Z</time>
      </trkpt>
      <trkpt lat="45.17845" lon="2.92913">
        <ele>1027.21</ele>
        <time>2021-07-08T09:49:13.991Z</time>
      </trkpt>
      <trkpt lat="45.17825" lon="2.92894">
        <ele>1027.35</ele>
        <time>2021-07-08T09:49:20.127Z</time>
      </trkpt>
      <trkpt lat="45.17769" lon="2.92743">
        <ele>1028.98</ele>
        <time>2021-07-08T09:49:53.266Z</time>
      </trkpt>
      <trkpt lat="45.17759" lon="2.92727">
        <ele>1030.84</ele>
        <time>2021-07-08T09:50:05.520Z</time>
      </trkpt>
      <trkpt lat="45.17709" lon="2.9269">
        <ele>1033.37</ele>
        <time>2021-07-08T09:50:28.542Z</time>
      </trkpt>
      <trkpt lat="45.17698" lon="2.92642">
        <ele>1036.15</ele>
        <time>2021-07-08T09:50:46.949Z</time>
      </trkpt>
      <trkpt lat="45.17658" lon="2.92514">
        <ele>1039.39</ele>
        <time>2021-07-08T09:51:21.009Z</time>
      </trkpt>
      <trkpt lat="45.17652" lon="2.92451">
        <ele>1041.59</ele>
        <time>2021-07-08T09:51:39.808Z</time>
      </trkpt>
      <trkpt lat="45.17627" lon="2.92365">
        <ele>1043.97</ele>
        <time>2021-07-08T09:52:03.515Z</time>
      </trkpt>
      <trkpt lat="45.17613" lon="2.92326">
        <ele>1046.54</ele>
        <time>2021-07-08T09:52:20.167Z</time>
      </trkpt>
      <trkpt lat="45.1761" lon="2.92311">
        <ele>1048.53</ele>
        <time>2021-07-08T09:52:30.398Z</time>
      </trkpt>
      <trkpt lat="45.1761" lon="2.92252">
        <ele>1049.35</ele>
        <time>2021-07-08T09:52:42.647Z</time>
      </trkpt>
      <trkpt lat="45.17622" lon="2.92183">
        <ele>1050.39</ele>
        <time>2021-07-08T09:52:57.576Z</time>
      </trkpt>
      <trkpt lat="45.17634" lon="2.92008">
        <ele>1052.91</ele>
        <time>2021-07-08T09:53:34.333Z</time>
      </trkpt>
      <trkpt lat="45.17595" lon="2.91823">
        <ele>1055.46</ele>
        <time>2021-07-08T09:54:13.987Z</time>
      </trkpt>
      <trkpt lat="45.17578" lon="2.91749">
        <ele>1057.44</ele>
        <time>2021-07-08T09:54:33.766Z</time>
      </trkpt>
      <trkpt lat="45.17467" lon="2.91642">
        <ele>1062.44</ele>
        <time>2021-07-08T09:55:22.932Z</time>
      </trkpt>
      <trkpt lat="45.17416" lon="2.91566">
        <ele>1067.91</ele>
        <time>2021-07-08T09:55:59.955Z</time>
      </trkpt>
      <trkpt lat="45.17383" lon="2.91549">
        <ele>1072.26</ele>
        <time>2021-07-08T09:56:28.678Z</time>
      </trkpt>
      <trkpt lat="45.17342" lon="2.9155">
        <ele>1076.36</ele>
        <time>2021-07-08T09:56:54.409Z</time>
      </trkpt>
      <trkpt lat="45.17288" lon="2.916">
        <ele>1083.81</ele>
        <time>2021-07-08T09:57:42.095Z</time>
      </trkpt>
      <trkpt lat="45.17306" lon="2.9182">
        <ele>1090.44</ele>
        <time>2021-07-08T09:58:43.760Z</time>
      </trkpt>
      <trkpt lat="45.17195" lon="2.91853">
        <ele>1097.36</ele>
        <time>2021-07-08T09:59:35.340Z</time>
      </trkpt>
      <trkpt lat="45.17163" lon="2.91838">
        <ele>1103.82</ele>
        <time>2021-07-08T10:00:06.712Z</time>
      </trkpt>
      <trkpt lat="45.17131" lon="2.9181">
        <ele>1109.39</ele>
        <time>2021-07-08T10:00:41.710Z</time>
      </trkpt>
      <trkpt lat="45.17079" lon="2.91722">
        <ele>1112.51</ele>
        <time>2021-07-08T10:01:11.906Z</time>
      </trkpt>
      <trkpt lat="45.17051" lon="2.91664">
        <ele>1114.43</ele>
        <time>2021-07-08T10:01:30.445Z</time>
      </trkpt>
      <trkpt lat="45.17009" lon="2.91587">
        <ele>1115.8</ele>
        <time>2021-07-08T10:01:50.715Z</time>
      </trkpt>
      <trkpt lat="45.16995" lon="2.91501">
        <ele>1117.1</ele>
        <time>2021-07-08T10:02:09.285Z</time>
      </trkpt>
      <trkpt lat="45.16965" lon="2.91435">
        <ele>1119.05</ele>
        <time>2021-07-08T10:02:29.010Z</time>
      </trkpt>
      <trkpt lat="45.1691" lon="2.9139">
        <ele>1122.6</ele>
        <time>2021-07-08T10:02:56.882Z</time>
      </trkpt>
      <trkpt lat="45.16834" lon="2.91284">
        <ele>1126.86</ele>
        <time>2021-07-08T10:03:37.460Z</time>
      </trkpt>
      <trkpt lat="45.16632" lon="2.91261">
        <ele>1131.02</ele>
        <time>2021-07-08T10:04:37.691Z</time>
      </trkpt>
      <trkpt lat="45.16531" lon="2.91192">
        <ele>1133.88</ele>
        <time>2021-07-08T10:05:12.996Z</time>
      </trkpt>
      <trkpt lat="45.16523" lon="2.91239">
        <ele>1136.35</ele>
        <time>2021-07-08T10:05:29.862Z</time>
      </trkpt>
      <trkpt lat="45.16524" lon="2.91313">
        <ele>1137.29</ele>
        <time>2021-07-08T10:05:44.945Z</time>
      </trkpt>
      <trkpt lat="45.16521" lon="2.91348">
        <ele>1137.16</ele>
        <time>2021-07-08T10:05:50.499Z</time>
      </trkpt>
      <trkpt lat="45.16509" lon="2.91415">
        <ele>1136.76</ele>
        <time>2021-07-08T10:05:58.824Z</time>
      </trkpt>
      <trkpt lat="45.16504" lon="2.91472">
        <ele>1137.43</ele>
        <time>2021-07-08T10:06:10.343Z</time>
      </trkpt>
      <trkpt lat="45.16499" lon="2.91495">
        <ele>1137.58</ele>
        <time>2021-07-08T10:06:14.799Z</time>
      </trkpt>
      <trkpt lat="45.16494" lon="2.91512">
        <ele>1138.04</ele>
        <time>2021-07-08T10:06:19.439Z</time>
      </trkpt>
      <trkpt lat="45.16492" lon="2.91547">
        <ele>1138.3</ele>
        <time>2021-07-08T10:06:26.050Z</time>
      </trkpt>
      <trkpt lat="45.16488" lon="2.91578">
        <ele>1138.43</ele>
        <time>2021-07-08T10:06:31.716Z</time>
      </trkpt>
      <trkpt lat="45.16487" lon="2.91601">
        <ele>1138.7</ele>
        <time>2021-07-08T10:06:36.341Z</time>
      </trkpt>
      <trkpt lat="45.16493" lon="2.91631">
        <ele>1139.2</ele>
        <time>2021-07-08T10:06:43.043Z</time>
      </trkpt>
      <trkpt lat="45.16505" lon="2.91667">
        <ele>1139.54</ele>
        <time>2021-07-08T10:06:50.664Z</time>
      </trkpt>
      <trkpt lat="45.16521" lon="2.917">
        <ele>1139.92</ele>
        <time>2021-07-08T10:06:58.436Z</time>
      </trkpt>
      <trkpt lat="45.16537" lon="2.91729">
        <ele>1140.31</ele>
        <time>2021-07-08T10:07:05.702Z</time>
      </trkpt>
      <trkpt lat="45.16545" lon="2.91743">
        <ele>1140.59</ele>
        <time>2021-07-08T10:07:09.543Z</time>
      </trkpt>
      <trkpt lat="45.16554" lon="2.9177">
        <ele>1140.78</ele>
        <time>2021-07-08T10:07:15.083Z</time>
      </trkpt>
      <trkpt lat="45.16558" lon="2.91793">
        <ele>1141.06</ele>
        <time>2021-07-08T10:07:19.845Z</time>
      </trkpt>
      <trkpt lat="45.16557" lon="2.91839">
        <ele>1140.96</ele>
        <time>2021-07-08T10:07:27.323Z</time>
      </trkpt>
      <trkpt lat="45.16549" lon="2.9186">
        <ele>1140.9</ele>
        <time>2021-07-08T10:07:31.174Z</time>
      </trkpt>
      <trkpt lat="45.16524" lon="2.91906">
        <ele>1140.52</ele>
        <time>2021-07-08T10:07:38.068Z</time>
      </trkpt>
      <trkpt lat="45.16475" lon="2.91943">
        <ele>1140.22</ele>
        <time>2021-07-08T10:07:50.440Z</time>
      </trkpt>
      <trkpt lat="45.16441" lon="2.91956">
        <ele>1139.51</ele>
        <time>2021-07-08T10:07:55.613Z</time>
      </trkpt>
      <trkpt lat="45.16433" lon="2.91964">
        <ele>1139.34</ele>
        <time>2021-07-08T10:07:57.100Z</time>
      </trkpt>
      <trkpt lat="45.16426" lon="2.91974">
        <ele>1138.54</ele>
        <time>2021-07-08T10:07:58.131Z</time>
      </trkpt>
      <trkpt lat="45.1642" lon="2.91992">
        <ele>1137.96</ele>
        <time>2021-07-08T10:07:59.784Z</time>
      </trkpt>
      <trkpt lat="45.16413" lon="2.92006">
        <ele>1137.6</ele>
        <time>2021-07-08T10:08:01.383Z</time>
      </trkpt>
      <trkpt lat="45.16408" lon="2.9201">
        <ele>1136.78</ele>
        <time>2021-07-08T10:08:01.979Z</time>
      </trkpt>
      <trkpt lat="45.16404" lon="2.9202">
        <ele>1135.59</ele>
        <time>2021-07-08T10:08:02.821Z</time>
      </trkpt>
      <trkpt lat="45.16373" lon="2.92034">
        <ele>1134.63</ele>
        <time>2021-07-08T10:08:07.129Z</time>
      </trkpt>
      <trkpt lat="45.16311" lon="2.92076">
        <ele>1133.38</ele>
        <time>2021-07-08T10:08:17.461Z</time>
      </trkpt>
      <trkpt lat="45.16287" lon="2.92098">
        <ele>1131.25</ele>
        <time>2021-07-08T10:08:20.428Z</time>
      </trkpt>
      <trkpt lat="45.16251" lon="2.92126">
        <ele>1129.52</ele>
        <time>2021-07-08T10:08:25.226Z</time>
      </trkpt>
      <trkpt lat="45.1623" lon="2.92149">
        <ele>1128.05</ele>
        <time>2021-07-08T10:08:27.986Z</time>
      </trkpt>
      <trkpt lat="45.162" lon="2.92198">
        <ele>1126.27</ele>
        <time>2021-07-08T10:08:33.498Z</time>
      </trkpt>
      <trkpt lat="45.16168" lon="2.92261">
        <ele>1123.89</ele>
        <time>2021-07-08T10:08:39.817Z</time>
      </trkpt>
      <trkpt lat="45.1615" lon="2.92301">
        <ele>1121.33</ele>
        <time>2021-07-08T10:08:43.291Z</time>
      </trkpt>
      <trkpt lat="45.16144" lon="2.92332">
        <ele>1118.6</ele>
        <time>2021-07-08T10:08:45.645Z</time>
      </trkpt>
      <trkpt lat="45.16142" lon="2.92384">
        <ele>1115.74</ele>
        <time>2021-07-08T10:08:49.458Z</time>
      </trkpt>
      <trkpt lat="45.16131" lon="2.92429">
        <ele>1112.68</ele>
        <time>2021-07-08T10:08:52.945Z</time>
      </trkpt>
      <trkpt lat="45.1613" lon="2.92504">
        <ele>1110.41</ele>
        <time>2021-07-08T10:08:59.081Z</time>
      </trkpt>
      <trkpt lat="45.16114" lon="2.9255">
        <ele>1108.37</ele>
        <time>2021-07-08T10:09:02.812Z</time>
      </trkpt>
      <trkpt lat="45.16111" lon="2.92566">
        <ele>1106.83</ele>
        <time>2021-07-08T10:09:04.024Z</time>
      </trkpt>
      <trkpt lat="45.16097" lon="2.92604">
        <ele>1104.74</ele>
        <time>2021-07-08T10:09:07.163Z</time>
      </trkpt>
      <trkpt lat="45.16084" lon="2.92665">
        <ele>1102.95</ele>
        <time>2021-07-08T10:09:12.529Z</time>
      </trkpt>
      <trkpt lat="45.16016" lon="2.92825">
        <ele>1100.32</ele>
        <time>2021-07-08T10:09:31.925Z</time>
      </trkpt>
      <trkpt lat="45.15971" lon="2.9296">
        <ele>1097.36</ele>
        <time>2021-07-08T10:09:46.077Z</time>
      </trkpt>
      <trkpt lat="45.15963" lon="2.92967">
        <ele>1094.28</ele>
        <time>2021-07-08T10:09:47.053Z</time>
      </trkpt>
      <trkpt lat="45.15955" lon="2.92969">
        <ele>1092.11</ele>
        <time>2021-07-08T10:09:47.896Z</time>
      </trkpt>
      <trkpt lat="45.15919" lon="2.92939">
        <ele>1090.69</ele>
        <time>2021-07-08T10:09:53.175Z</time>
      </trkpt>
      <trkpt lat="45.15889" lon="2.92924">
        <ele>1090.79</ele>
        <time>2021-07-08T10:10:01.079Z</time>
      </trkpt>
      <trkpt lat="45.15779" lon="2.92907">
        <ele>1091.51</ele>
        <time>2021-07-08T10:10:29.475Z</time>
      </trkpt>
      <trkpt lat="45.15645" lon="2.92835">
        <ele>1092.16</ele>
        <time>2021-07-08T10:11:05.556Z</time>
      </trkpt>
      <trkpt lat="45.15496" lon="2.92945">
        <ele>1090.48</ele>
        <time>2021-07-08T10:11:33.565Z</time>
      </trkpt>
      <trkpt lat="45.15511" lon="2.93151">
        <ele>1086.97</ele>
        <time>2021-07-08T10:11:54.090Z</time>
      </trkpt>
      <trkpt lat="45.15496" lon="2.92945">
        <ele>1082.16</ele>
        <time>2021-07-08T10:12:12.754Z</time>
      </trkpt>
      <trkpt lat="45.15448" lon="2.92824">
        <ele>1082.7</ele>
        <time>2021-07-08T10:12:37.638Z</time>
      </trkpt>
      <trkpt lat="45.15437" lon="2.9279">
        <ele>1082.92</ele>
        <time>2021-07-08T10:12:44.531Z</time>
      </trkpt>
      <trkpt lat="45.1543" lon="2.92736">
        <ele>1083.03</ele>
        <time>2021-07-08T10:12:54.124Z</time>
      </trkpt>
      <trkpt lat="45.1543" lon="2.92722">
        <ele>1083.16</ele>
        <time>2021-07-08T10:12:56.834Z</time>
      </trkpt>
      <trkpt lat="45.15433" lon="2.92685">
        <ele>1083.19</ele>
        <time>2021-07-08T10:13:03.239Z</time>
      </trkpt>
      <trkpt lat="45.15441" lon="2.92656">
        <ele>1083.17</ele>
        <time>2021-07-08T10:13:08.466Z</time>
      </trkpt>
      <trkpt lat="45.15459" lon="2.92623">
        <ele>1083.56</ele>
        <time>2021-07-08T10:13:16.547Z</time>
      </trkpt>
      <trkpt lat="45.15473" lon="2.92596">
        <ele>1084.42</ele>
        <time>2021-07-08T10:13:25.102Z</time>
      </trkpt>
      <trkpt lat="45.15474" lon="2.92548">
        <ele>1085.4</ele>
        <time>2021-07-08T10:13:36.222Z</time>
      </trkpt>
      <trkpt lat="45.15482" lon="2.92427">
        <ele>1087.41</ele>
        <time>2021-07-08T10:14:02.564Z</time>
      </trkpt>
      <trkpt lat="45.1547" lon="2.92358">
        <ele>1090.04</ele>
        <time>2021-07-08T10:14:24.061Z</time>
      </trkpt>
      <trkpt lat="45.15469" lon="2.92334">
        <ele>1092.33</ele>
        <time>2021-07-08T10:14:39.842Z</time>
      </trkpt>
      <trkpt lat="45.15468" lon="2.92279">
        <ele>1094.73</ele>
        <time>2021-07-08T10:14:57.594Z</time>
      </trkpt>
      <trkpt lat="45.15473" lon="2.9226">
        <ele>1097.47</ele>
        <time>2021-07-08T10:15:10.906Z</time>
      </trkpt>
      <trkpt lat="45.15481" lon="2.92203">
        <ele>1100.18</ele>
        <time>2021-07-08T10:15:30.243Z</time>
      </trkpt>
      <trkpt lat="45.15484" lon="2.92183">
        <ele>1102.07</ele>
        <time>2021-07-08T10:15:43.223Z</time>
      </trkpt>
      <trkpt lat="45.15486" lon="2.92129">
        <ele>1104.28</ele>
        <time>2021-07-08T10:16:00.199Z</time>
      </trkpt>
      <trkpt lat="45.15499" lon="2.92085">
        <ele>1105.64</ele>
        <time>2021-07-08T10:16:13.092Z</time>
      </trkpt>
      <trkpt lat="45.15515" lon="2.9199">
        <ele>1106.02</ele>
        <time>2021-07-08T10:16:30.599Z</time>
      </trkpt>
      <trkpt lat="45.1553" lon="2.91905">
        <ele>1105.9</ele>
        <time>2021-07-08T10:16:45.079Z</time>
      </trkpt>
      <trkpt lat="45.15532" lon="2.91867">
        <ele>1106.05</ele>
        <time>2021-07-08T10:16:51.914Z</time>
      </trkpt>
      <trkpt lat="45.15531" lon="2.91824">
        <ele>1105.05</ele>
        <time>2021-07-08T10:16:55.790Z</time>
      </trkpt>
      <trkpt lat="45.15533" lon="2.91792">
        <ele>1104.62</ele>
        <time>2021-07-08T10:16:59.165Z</time>
      </trkpt>
      <trkpt lat="45.15532" lon="2.91717">
        <ele>1105.42</ele>
        <time>2021-07-08T10:17:13.984Z</time>
      </trkpt>
      <trkpt lat="45.15538" lon="2.91662">
        <ele>1106.48</ele>
        <time>2021-07-08T10:17:26.569Z</time>
      </trkpt>
      <trkpt lat="45.15544" lon="2.916">
        <ele>1107.5</ele>
        <time>2021-07-08T10:17:40.079Z</time>
      </trkpt>
      <trkpt lat="45.15542" lon="2.91537">
        <ele>1109.19</ele>
        <time>2021-07-08T10:17:56.542Z</time>
      </trkpt>
      <trkpt lat="45.15546" lon="2.91499">
        <ele>1110.98</ele>
        <time>2021-07-08T10:18:09.320Z</time>
      </trkpt>
      <trkpt lat="45.1555" lon="2.91481">
        <ele>1111.95</ele>
        <time>2021-07-08T10:18:15.927Z</time>
      </trkpt>
      <trkpt lat="45.15557" lon="2.9146">
        <ele>1111.59</ele>
        <time>2021-07-08T10:18:18.283Z</time>
      </trkpt>
      <trkpt lat="45.15572" lon="2.91353">
        <ele>1110.21</ele>
        <time>2021-07-08T10:18:29.887Z</time>
      </trkpt>
      <trkpt lat="45.15585" lon="2.91266">
        <ele>1107.88</ele>
        <time>2021-07-08T10:18:37.572Z</time>
      </trkpt>
      <trkpt lat="45.15587" lon="2.91229">
        <ele>1105.05</ele>
        <time>2021-07-08T10:18:40.289Z</time>
      </trkpt>
      <trkpt lat="45.15581" lon="2.91195">
        <ele>1101.96</ele>
        <time>2021-07-08T10:18:42.855Z</time>
      </trkpt>
      <trkpt lat="45.15586" lon="2.91157">
        <ele>1099.21</ele>
        <time>2021-07-08T10:18:45.686Z</time>
      </trkpt>
      <trkpt lat="45.1558" lon="2.91098">
        <ele>1098.93</ele>
        <time>2021-07-08T10:18:54.891Z</time>
      </trkpt>
      <trkpt lat="45.1558" lon="2.91039">
        <ele>1100.06</ele>
        <time>2021-07-08T10:19:08.257Z</time>
      </trkpt>
      <trkpt lat="45.15581" lon="2.90989">
        <ele>1101.45</ele>
        <time>2021-07-08T10:19:21.577Z</time>
      </trkpt>
      <trkpt lat="45.15576" lon="2.90971">
        <ele>1103.29</ele>
        <time>2021-07-08T10:19:34.276Z</time>
      </trkpt>
      <trkpt lat="45.15581" lon="2.90929">
        <ele>1105.71</ele>
        <time>2021-07-08T10:19:50.126Z</time>
      </trkpt>
      <trkpt lat="45.15584" lon="2.9091">
        <ele>1106.75</ele>
        <time>2021-07-08T10:19:57.095Z</time>
      </trkpt>
      <trkpt lat="45.15611" lon="2.90842">
        <ele>1107.99</ele>
        <time>2021-07-08T10:20:13.830Z</time>
      </trkpt>
      <trkpt lat="45.15624" lon="2.9082">
        <ele>1109.44</ele>
        <time>2021-07-08T10:20:23.782Z</time>
      </trkpt>
      <trkpt lat="45.1563" lon="2.90794">
        <ele>1111.25</ele>
        <time>2021-07-08T10:20:35.201Z</time>
      </trkpt>
      <trkpt lat="45.15641" lon="2.90724">
        <ele>1113.39</ele>
        <time>2021-07-08T10:20:55.131Z</time>
      </trkpt>
      <trkpt lat="45.15636" lon="2.9071">
        <ele>1115.47</ele>
        <time>2021-07-08T10:21:05.432Z</time>
      </trkpt>
      <trkpt lat="45.15597" lon="2.907">
        <ele>1117.48</ele>
        <time>2021-07-08T10:21:22.235Z</time>
      </trkpt>
      <trkpt lat="45.15553" lon="2.90694">
        <ele>1119.33</ele>
        <time>2021-07-08T10:21:39.534Z</time>
      </trkpt>
      <trkpt lat="45.15528" lon="2.90708">
        <ele>1120.66</ele>
        <time>2021-07-08T10:21:50.838Z</time>
      </trkpt>
      <trkpt lat="45.15505" lon="2.90714">
        <ele>1121.48</ele>
        <time>2021-07-08T10:21:59.152Z</time>
      </trkpt>
      <trkpt lat="45.15487" lon="2.90714">
        <ele>1122.46</ele>
        <time>2021-07-08T10:22:06.975Z</time>
      </trkpt>
      <trkpt lat="45.15467" lon="2.90712">
        <ele>1122.58</ele>
        <time>2021-07-08T10:22:12.095Z</time>
      </trkpt>
      <trkpt lat="45.15443" lon="2.90703">
        <ele>1122.29</ele>
        <time>2021-07-08T10:22:16.144Z</time>
      </trkpt>
      <trkpt lat="45.15401" lon="2.90718">
        <ele>1121.18</ele>
        <time>2021-07-08T10:22:22.124Z</time>
      </trkpt>
      <trkpt lat="45.15352" lon="2.90735">
        <ele>1119.24</ele>
        <time>2021-07-08T10:22:28.227Z</time>
      </trkpt>
      <trkpt lat="45.15308" lon="2.90779">
        <ele>1116.81</ele>
        <time>2021-07-08T10:22:34.348Z</time>
      </trkpt>
      <trkpt lat="45.15304" lon="2.90776">
        <ele>1114.43</ele>
        <time>2021-07-08T10:22:34.818Z</time>
      </trkpt>
      <trkpt lat="45.15287" lon="2.908">
        <ele>1112.27</ele>
        <time>2021-07-08T10:22:37.309Z</time>
      </trkpt>
      <trkpt lat="45.15258" lon="2.9083">
        <ele>1110.79</ele>
        <time>2021-07-08T10:22:41.539Z</time>
      </trkpt>
      <trkpt lat="45.15238" lon="2.90856">
        <ele>1110.04</ele>
        <time>2021-07-08T10:22:45.204Z</time>
      </trkpt>
      <trkpt lat="45.15187" lon="2.90895">
        <ele>1109.69</ele>
        <time>2021-07-08T10:22:58.003Z</time>
      </trkpt>
      <trkpt lat="45.15168" lon="2.90914">
        <ele>1109.59</ele>
        <time>2021-07-08T10:23:03.267Z</time>
      </trkpt>
      <trkpt lat="45.15127" lon="2.90943">
        <ele>1109.39</ele>
        <time>2021-07-08T10:23:13.631Z</time>
      </trkpt>
      <trkpt lat="45.1508" lon="2.90967">
        <ele>1109.3</ele>
        <time>2021-07-08T10:23:25.363Z</time>
      </trkpt>
      <trkpt lat="45.1502" lon="2.91">
        <ele>1107.55</ele>
        <time>2021-07-08T10:23:34.099Z</time>
      </trkpt>
      <trkpt lat="45.15005" lon="2.91005">
        <ele>1105.04</ele>
        <time>2021-07-08T10:23:35.699Z</time>
      </trkpt>
      <trkpt lat="45.14953" lon="2.91027">
        <ele>1102.55</ele>
        <time>2021-07-08T10:23:41.826Z</time>
      </trkpt>
      <trkpt lat="45.14922" lon="2.91041">
        <ele>1098.91</ele>
        <time>2021-07-08T10:23:45.204Z</time>
      </trkpt>
      <trkpt lat="45.14904" lon="2.91051">
        <ele>1094.7</ele>
        <time>2021-07-08T10:23:47.211Z</time>
      </trkpt>
      <trkpt lat="45.14888" lon="2.91061">
        <ele>1093.03</ele>
        <time>2021-07-08T10:23:49.027Z</time>
      </trkpt>
      <trkpt lat="45.14873" lon="2.91074">
        <ele>1091.52</ele>
        <time>2021-07-08T10:23:50.852Z</time>
      </trkpt>
      <trkpt lat="45.14852" lon="2.91082">
        <ele>1089.6</ele>
        <time>2021-07-08T10:23:53.110Z</time>
      </trkpt>
      <trkpt lat="45.1483" lon="2.91083">
        <ele>1088.76</ele>
        <time>2021-07-08T10:23:55.781Z</time>
      </trkpt>
      <trkpt lat="45.14802" lon="2.91075">
        <ele>1088.28</ele>
        <time>2021-07-08T10:24:00.149Z</time>
      </trkpt>
      <trkpt lat="45.14765" lon="2.91067">
        <ele>1086.44</ele>
        <time>2021-07-08T10:24:04.254Z</time>
      </trkpt>
      <trkpt lat="45.14732" lon="2.91032">
        <ele>1085.21</ele>
        <time>2021-07-08T10:24:09.692Z</time>
      </trkpt>
      <trkpt lat="45.14724" lon="2.91018">
        <ele>1084.35</ele>
        <time>2021-07-08T10:24:11.011Z</time>
      </trkpt>
      <trkpt lat="45.14708" lon="2.90999">
        <ele>1083.91</ele>
        <time>2021-07-08T10:24:14.045Z</time>
      </trkpt>
      <trkpt lat="45.14681" lon="2.90973">
        <ele>1083.77</ele>
        <time>2021-07-08T10:24:21.436Z</time>
      </trkpt>
      <trkpt lat="45.14666" lon="2.90956">
        <ele>1084.17</ele>
        <time>2021-07-08T10:24:27.163Z</time>
      </trkpt>
      <trkpt lat="45.14657" lon="2.90951">
        <ele>1084.57</ele>
        <time>2021-07-08T10:24:30.919Z</time>
      </trkpt>
      <trkpt lat="45.14667" lon="2.90936">
        <ele>1085.06</ele>
        <time>2021-07-08T10:24:35.998Z</time>
      </trkpt>
      <trkpt lat="45.14679" lon="2.90923">
        <ele>1085.37</ele>
        <time>2021-07-08T10:24:40.487Z</time>
      </trkpt>
      <trkpt lat="45.14686" lon="2.90897">
        <ele>1085.66</ele>
        <time>2021-07-08T10:24:45.965Z</time>
      </trkpt>
      <trkpt lat="45.147" lon="2.90869">
        <ele>1085.95</ele>
        <time>2021-07-08T10:24:52.527Z</time>
      </trkpt>
      <trkpt lat="45.14696" lon="2.90853">
        <ele>1086.35</ele>
        <time>2021-07-08T10:24:56.691Z</time>
      </trkpt>
      <trkpt lat="45.14693" lon="2.90813">
        <ele>1086.79</ele>
        <time>2021-07-08T10:25:04.671Z</time>
      </trkpt>
      <trkpt lat="45.14692" lon="2.90798">
        <ele>1087.29</ele>
        <time>2021-07-08T10:25:09.070Z</time>
      </trkpt>
      <trkpt lat="45.14696" lon="2.90769">
        <ele>1087.72</ele>
        <time>2021-07-08T10:25:15.272Z</time>
      </trkpt>
      <trkpt lat="45.14701" lon="2.90701">
        <ele>1088.25</ele>
        <time>2021-07-08T10:25:28.211Z</time>
      </trkpt>
      <trkpt lat="45.14705" lon="2.9067">
        <ele>1088.81</ele>
        <time>2021-07-08T10:25:35.185Z</time>
      </trkpt>
      <trkpt lat="45.14707" lon="2.90619">
        <ele>1089.37</ele>
        <time>2021-07-08T10:25:45.322Z</time>
      </trkpt>
      <trkpt lat="45.14715" lon="2.90549">
        <ele>1089.88</ele>
        <time>2021-07-08T10:25:58.636Z</time>
      </trkpt>
      <trkpt lat="45.14713" lon="2.90497">
        <ele>1090.2</ele>
        <time>2021-07-08T10:26:08.268Z</time>
      </trkpt>
      <trkpt lat="45.14712" lon="2.90405">
        <ele>1090.64</ele>
        <time>2021-07-08T10:26:24.966Z</time>
      </trkpt>
      <trkpt lat="45.14711" lon="2.90364">
        <ele>1091.07</ele>
        <time>2021-07-08T10:26:33.049Z</time>
      </trkpt>
      <trkpt lat="45.14718" lon="2.90302">
        <ele>1091.64</ele>
        <time>2021-07-08T10:26:45.165Z</time>
      </trkpt>
      <trkpt lat="45.14723" lon="2.90254">
        <ele>1092.56</ele>
        <time>2021-07-08T10:26:56.121Z</time>
      </trkpt>
      <trkpt lat="45.14727" lon="2.90229">
        <ele>1093.89</ele>
        <time>2021-07-08T10:27:05.144Z</time>
      </trkpt>
      <trkpt lat="45.14732" lon="2.90163">
        <ele>1095.4</ele>
        <time>2021-07-08T10:27:21.180Z</time>
      </trkpt>
      <trkpt lat="45.14737" lon="2.90116">
        <ele>1097.05</ele>
        <time>2021-07-08T10:27:35.254Z</time>
      </trkpt>
      <trkpt lat="45.14744" lon="2.90092">
        <ele>1098.41</ele>
        <time>2021-07-08T10:27:44.443Z</time>
      </trkpt>
      <trkpt lat="45.14769" lon="2.90056">
        <ele>1099.73</ele>
        <time>2021-07-08T10:27:57.459Z</time>
      </trkpt>
      <trkpt lat="45.14785" lon="2.90033">
        <ele>1100.48</ele>
        <time>2021-07-08T10:28:05.331Z</time>
      </trkpt>
      <trkpt lat="45.14796" lon="2.89998">
        <ele>1101.18</ele>
        <time>2021-07-08T10:28:13.882Z</time>
      </trkpt>
      <trkpt lat="45.14803" lon="2.89979">
        <ele>1101.04</ele>
        <time>2021-07-08T10:28:16.427Z</time>
      </trkpt>
      <trkpt lat="45.14808" lon="2.89962">
        <ele>1101.09</ele>
        <time>2021-07-08T10:28:19.677Z</time>
      </trkpt>
      <trkpt lat="45.14803" lon="2.89917">
        <ele>1100.8</ele>
        <time>2021-07-08T10:28:25.105Z</time>
      </trkpt>
      <trkpt lat="45.14811" lon="2.89897">
        <ele>1101.09</ele>
        <time>2021-07-08T10:28:29.785Z</time>
      </trkpt>
      <trkpt lat="45.14835" lon="2.89855">
        <ele>1101.52</ele>
        <time>2021-07-08T10:28:40.045Z</time>
      </trkpt>
      <trkpt lat="45.14864" lon="2.8976">
        <ele>1102.86</ele>
        <time>2021-07-08T10:29:01.225Z</time>
      </trkpt>
      <trkpt lat="45.14905" lon="2.89718">
        <ele>1104.32</ele>
        <time>2021-07-08T10:29:17.819Z</time>
      </trkpt>
      <trkpt lat="45.14921" lon="2.89687">
        <ele>1105</ele>
        <time>2021-07-08T10:29:26.309Z</time>
      </trkpt>
      <trkpt lat="45.14939" lon="2.89642">
        <ele>1104.69</ele>
        <time>2021-07-08T10:29:32.517Z</time>
      </trkpt>
      <trkpt lat="45.14944" lon="2.89618">
        <ele>1104.32</ele>
        <time>2021-07-08T10:29:35.085Z</time>
      </trkpt>
      <trkpt lat="45.1496" lon="2.89591">
        <ele>1102.72</ele>
        <time>2021-07-08T10:29:37.494Z</time>
      </trkpt>
      <trkpt lat="45.14987" lon="2.89567">
        <ele>1100.88</ele>
        <time>2021-07-08T10:29:40.745Z</time>
      </trkpt>
      <trkpt lat="45.15004" lon="2.89549">
        <ele>1099.57</ele>
        <time>2021-07-08T10:29:42.842Z</time>
      </trkpt>
      <trkpt lat="45.15016" lon="2.89534">
        <ele>1098.83</ele>
        <time>2021-07-08T10:29:44.642Z</time>
      </trkpt>
      <trkpt lat="45.15009" lon="2.89516">
        <ele>1097.9</ele>
        <time>2021-07-08T10:29:46.048Z</time>
      </trkpt>
      <trkpt lat="45.1499" lon="2.89499">
        <ele>1097.13</ele>
        <time>2021-07-08T10:29:48.880Z</time>
      </trkpt>
      <trkpt lat="45.14975" lon="2.89467">
        <ele>1095.79</ele>
        <time>2021-07-08T10:29:51.845Z</time>
      </trkpt>
      <trkpt lat="45.14962" lon="2.89448">
        <ele>1094.42</ele>
        <time>2021-07-08T10:29:53.784Z</time>
      </trkpt>
      <trkpt lat="45.1493" lon="2.8942">
        <ele>1092.48</ele>
        <time>2021-07-08T10:29:57.822Z</time>
      </trkpt>
      <trkpt lat="45.14906" lon="2.89403">
        <ele>1090.11</ele>
        <time>2021-07-08T10:30:00.608Z</time>
      </trkpt>
      <trkpt lat="45.14887" lon="2.89331">
        <ele>1086.17</ele>
        <time>2021-07-08T10:30:06.238Z</time>
      </trkpt>
      <trkpt lat="45.14857" lon="2.89305">
        <ele>1082.79</ele>
        <time>2021-07-08T10:30:09.888Z</time>
      </trkpt>
      <trkpt lat="45.14845" lon="2.89291">
        <ele>1079.37</ele>
        <time>2021-07-08T10:30:11.502Z</time>
      </trkpt>
      <trkpt lat="45.14832" lon="2.89261">
        <ele>1076.6</ele>
        <time>2021-07-08T10:30:14.081Z</time>
      </trkpt>
      <trkpt lat="45.14832" lon="2.89248">
        <ele>1074.02</ele>
        <time>2021-07-08T10:30:15.033Z</time>
      </trkpt>
      <trkpt lat="45.14823" lon="2.89232">
        <ele>1073.33</ele>
        <time>2021-07-08T10:30:16.635Z</time>
      </trkpt>
      <trkpt lat="45.14817" lon="2.89225">
        <ele>1072.72</ele>
        <time>2021-07-08T10:30:17.442Z</time>
      </trkpt>
      <trkpt lat="45.14809" lon="2.89214">
        <ele>1072.13</ele>
        <time>2021-07-08T10:30:18.625Z</time>
      </trkpt>
      <trkpt lat="45.14801" lon="2.89214">
        <ele>1071.12</ele>
        <time>2021-07-08T10:30:19.455Z</time>
      </trkpt>
      <trkpt lat="45.14788" lon="2.89218">
        <ele>1070.66</ele>
        <time>2021-07-08T10:30:21.128Z</time>
      </trkpt>
      <trkpt lat="45.14775" lon="2.89229">
        <ele>1070.23</ele>
        <time>2021-07-08T10:30:23.156Z</time>
      </trkpt>
      <trkpt lat="45.14763" lon="2.89224">
        <ele>1069.82</ele>
        <time>2021-07-08T10:30:24.757Z</time>
      </trkpt>
      <trkpt lat="45.14745" lon="2.89204">
        <ele>1069.1</ele>
        <time>2021-07-08T10:30:27.723Z</time>
      </trkpt>
      <trkpt lat="45.14731" lon="2.89194">
        <ele>1068.53</ele>
        <time>2021-07-08T10:30:29.659Z</time>
      </trkpt>
      <trkpt lat="45.14715" lon="2.89191">
        <ele>1067.2</ele>
        <time>2021-07-08T10:30:31.335Z</time>
      </trkpt>
      <trkpt lat="45.14695" lon="2.89166">
        <ele>1066.36</ele>
        <time>2021-07-08T10:30:34.793Z</time>
      </trkpt>
      <trkpt lat="45.14669" lon="2.89135">
        <ele>1065.67</ele>
        <time>2021-07-08T10:30:39.775Z</time>
      </trkpt>
      <trkpt lat="45.14665" lon="2.89129">
        <ele>1065.7</ele>
        <time>2021-07-08T10:30:41.250Z</time>
      </trkpt>
      <trkpt lat="45.14638" lon="2.89103">
        <ele>1065.8</ele>
        <time>2021-07-08T10:30:49.354Z</time>
      </trkpt>
      <trkpt lat="45.14615" lon="2.89073">
        <ele>1066.15</ele>
        <time>2021-07-08T10:30:57.758Z</time>
      </trkpt>
      <trkpt lat="45.14599" lon="2.8903">
        <ele>1066.92</ele>
        <time>2021-07-08T10:31:08.176Z</time>
      </trkpt>
      <trkpt lat="45.14583" lon="2.89011">
        <ele>1068.53</ele>
        <time>2021-07-08T10:31:18.888Z</time>
      </trkpt>
      <trkpt lat="45.14569" lon="2.8899">
        <ele>1069.44</ele>
        <time>2021-07-08T10:31:27.197Z</time>
      </trkpt>
      <trkpt lat="45.14553" lon="2.88983">
        <ele>1072.35</ele>
        <time>2021-07-08T10:31:42.783Z</time>
      </trkpt>
      <trkpt lat="45.14545" lon="2.88971">
        <ele>1074.65</ele>
        <time>2021-07-08T10:31:53.624Z</time>
      </trkpt>
      <trkpt lat="45.14559" lon="2.88962">
        <ele>1075.61</ele>
        <time>2021-07-08T10:32:00.687Z</time>
      </trkpt>
      <trkpt lat="45.1459" lon="2.88946">
        <ele>1076.44</ele>
        <time>2021-07-08T10:32:11.033Z</time>
      </trkpt>
      <trkpt lat="45.14621" lon="2.88941">
        <ele>1077.83</ele>
        <time>2021-07-08T10:32:23.745Z</time>
      </trkpt>
      <trkpt lat="45.14637" lon="2.88933">
        <ele>1077.07</ele>
        <time>2021-07-08T10:32:25.679Z</time>
      </trkpt>
      <trkpt lat="45.14651" lon="2.88923">
        <ele>1076.59</ele>
        <time>2021-07-08T10:32:27.731Z</time>
      </trkpt>
      <trkpt lat="45.14665" lon="2.88899">
        <ele>1077.74</ele>
        <time>2021-07-08T10:32:37.146Z</time>
      </trkpt>
      <trkpt lat="45.14674" lon="2.88865">
        <ele>1078.19</ele>
        <time>2021-07-08T10:32:44.512Z</time>
      </trkpt>
      <trkpt lat="45.14678" lon="2.8885">
        <ele>1078.81</ele>
        <time>2021-07-08T10:32:49.441Z</time>
      </trkpt>
      <trkpt lat="45.14697" lon="2.88815">
        <ele>1079.97</ele>
        <time>2021-07-08T10:33:00.850Z</time>
      </trkpt>
      <trkpt lat="45.14702" lon="2.88779">
        <ele>1082.72</ele>
        <time>2021-07-08T10:33:18.147Z</time>
      </trkpt>
      <trkpt lat="45.14729" lon="2.8873">
        <ele>1084.59</ele>
        <time>2021-07-08T10:33:35.513Z</time>
      </trkpt>
      <trkpt lat="45.14754" lon="2.88692">
        <ele>1086.66</ele>
        <time>2021-07-08T10:33:51.665Z</time>
      </trkpt>
      <trkpt lat="45.14757" lon="2.88671">
        <ele>1089.05</ele>
        <time>2021-07-08T10:34:05.732Z</time>
      </trkpt>
      <trkpt lat="45.14765" lon="2.88644">
        <ele>1091.41</ele>
        <time>2021-07-08T10:34:20.786Z</time>
      </trkpt>
      <trkpt lat="45.14784" lon="2.8859">
        <ele>1092.6</ele>
        <time>2021-07-08T10:34:34.593Z</time>
      </trkpt>
      <trkpt lat="45.148" lon="2.88542">
        <ele>1093.97</ele>
        <time>2021-07-08T10:34:48.185Z</time>
      </trkpt>
      <trkpt lat="45.14817" lon="2.88517">
        <ele>1094.28</ele>
        <time>2021-07-08T10:34:54.871Z</time>
      </trkpt>
      <trkpt lat="45.14837" lon="2.885">
        <ele>1093.99</ele>
        <time>2021-07-08T10:34:58.637Z</time>
      </trkpt>
      <trkpt lat="45.14854" lon="2.88491">
        <ele>1093.55</ele>
        <time>2021-07-08T10:35:01.181Z</time>
      </trkpt>
      <trkpt lat="45.14869" lon="2.88452">
        <ele>1092.67</ele>
        <time>2021-07-08T10:35:05.393Z</time>
      </trkpt>
      <trkpt lat="45.14881" lon="2.88426">
        <ele>1091.26</ele>
        <time>2021-07-08T10:35:07.515Z</time>
      </trkpt>
      <trkpt lat="45.14902" lon="2.88409">
        <ele>1090</ele>
        <time>2021-07-08T10:35:10.100Z</time>
      </trkpt>
      <trkpt lat="45.14927" lon="2.88393">
        <ele>1088.65</ele>
        <time>2021-07-08T10:35:13.107Z</time>
      </trkpt>
      <trkpt lat="45.14968" lon="2.88358">
        <ele>1086.09</ele>
        <time>2021-07-08T10:35:18.165Z</time>
      </trkpt>
      <trkpt lat="45.14994" lon="2.88311">
        <ele>1083.36</ele>
        <time>2021-07-08T10:35:22.230Z</time>
      </trkpt>
      <trkpt lat="45.15005" lon="2.88282">
        <ele>1081.49</ele>
        <time>2021-07-08T10:35:24.641Z</time>
      </trkpt>
      <trkpt lat="45.15013" lon="2.88245">
        <ele>1079.8</ele>
        <time>2021-07-08T10:35:27.334Z</time>
      </trkpt>
      <trkpt lat="45.15016" lon="2.88227">
        <ele>1078.82</ele>
        <time>2021-07-08T10:35:28.689Z</time>
      </trkpt>
      <trkpt lat="45.1502" lon="2.88207">
        <ele>1078.81</ele>
        <time>2021-07-08T10:35:32.190Z</time>
      </trkpt>
      <trkpt lat="45.15028" lon="2.88176">
        <ele>1078.9</ele>
        <time>2021-07-08T10:35:38.015Z</time>
      </trkpt>
      <trkpt lat="45.15038" lon="2.8816">
        <ele>1078.83</ele>
        <time>2021-07-08T10:35:41.412Z</time>
      </trkpt>
      <trkpt lat="45.1505" lon="2.88139">
        <ele>1078.56</ele>
        <time>2021-07-08T10:35:44.423Z</time>
      </trkpt>
      <trkpt lat="45.15037" lon="2.88143">
        <ele>1078.13</ele>
        <time>2021-07-08T10:35:46.134Z</time>
      </trkpt>
      <trkpt lat="45.15015" lon="2.88153">
        <ele>1078.44</ele>
        <time>2021-07-08T10:35:52.491Z</time>
      </trkpt>
      <trkpt lat="45.14973" lon="2.88165">
        <ele>1079.97</ele>
        <time>2021-07-08T10:36:07.857Z</time>
      </trkpt>
      <trkpt lat="45.14935" lon="2.88184">
        <ele>1081.79</ele>
        <time>2021-07-08T10:36:24.338Z</time>
      </trkpt>
      <trkpt lat="45.14912" lon="2.88208">
        <ele>1084.93</ele>
        <time>2021-07-08T10:36:44.185Z</time>
      </trkpt>
      <trkpt lat="45.14904" lon="2.88216">
        <ele>1086.74</ele>
        <time>2021-07-08T10:36:53.297Z</time>
      </trkpt>
      <trkpt lat="45.14885" lon="2.88228">
        <ele>1088.72</ele>
        <time>2021-07-08T10:37:05.767Z</time>
      </trkpt>
      <trkpt lat="45.14867" lon="2.88228">
        <ele>1090.31</ele>
        <time>2021-07-08T10:37:15.910Z</time>
      </trkpt>
      <trkpt lat="45.14852" lon="2.88224">
        <ele>1090.96</ele>
        <time>2021-07-08T10:37:21.949Z</time>
      </trkpt>
      <trkpt lat="45.14847" lon="2.88214">
        <ele>1092.6</ele>
        <time>2021-07-08T10:37:29.997Z</time>
      </trkpt>
      <trkpt lat="45.14849" lon="2.88197">
        <ele>1093.92</ele>
        <time>2021-07-08T10:37:38.322Z</time>
      </trkpt>
      <trkpt lat="45.14857" lon="2.88182">
        <ele>1095.91</ele>
        <time>2021-07-08T10:37:50.669Z</time>
      </trkpt>
      <trkpt lat="45.14855" lon="2.88167">
        <ele>1097.05</ele>
        <time>2021-07-08T10:37:57.836Z</time>
      </trkpt>
      <trkpt lat="45.1483" lon="2.88134">
        <ele>1099.96</ele>
        <time>2021-07-08T10:38:16.570Z</time>
      </trkpt>
      <trkpt lat="45.1482" lon="2.88126">
        <ele>1101.93</ele>
        <time>2021-07-08T10:38:27.258Z</time>
      </trkpt>
      <trkpt lat="45.14788" lon="2.88118">
        <ele>1106.59</ele>
        <time>2021-07-08T10:38:57.504Z</time>
      </trkpt>
      <trkpt lat="45.14769" lon="2.88104">
        <ele>1110.28</ele>
        <time>2021-07-08T10:39:17.436Z</time>
      </trkpt>
      <trkpt lat="45.14759" lon="2.88088">
        <ele>1114.93</ele>
        <time>2021-07-08T10:39:31.471Z</time>
      </trkpt>
      <trkpt lat="45.14752" lon="2.88071">
        <ele>1118.79</ele>
        <time>2021-07-08T10:39:44.395Z</time>
      </trkpt>
      <trkpt lat="45.14742" lon="2.88038">
        <ele>1122.72</ele>
        <time>2021-07-08T10:40:07.974Z</time>
      </trkpt>
      <trkpt lat="45.14732" lon="2.88026">
        <ele>1125.04</ele>
        <time>2021-07-08T10:40:20.169Z</time>
      </trkpt>
      <trkpt lat="45.14715" lon="2.88018">
        <ele>1127.38</ele>
        <time>2021-07-08T10:40:36.195Z</time>
      </trkpt>
      <trkpt lat="45.14688" lon="2.88001">
        <ele>1130.21</ele>
        <time>2021-07-08T10:40:54.005Z</time>
      </trkpt>
      <trkpt lat="45.14666" lon="2.87984">
        <ele>1133.71</ele>
        <time>2021-07-08T10:41:17.328Z</time>
      </trkpt>
      <trkpt lat="45.14634" lon="2.87975">
        <ele>1136.71</ele>
        <time>2021-07-08T10:41:36.314Z</time>
      </trkpt>
      <trkpt lat="45.14614" lon="2.87986">
        <ele>1141.21</ele>
        <time>2021-07-08T10:41:56.282Z</time>
      </trkpt>
      <trkpt lat="45.14599" lon="2.88002">
        <ele>1145.81</ele>
        <time>2021-07-08T10:42:13.755Z</time>
      </trkpt>
      <trkpt lat="45.1458" lon="2.88025">
        <ele>1150.67</ele>
        <time>2021-07-08T10:42:37.011Z</time>
      </trkpt>
      <trkpt lat="45.14586" lon="2.8804">
        <ele>1153.72</ele>
        <time>2021-07-08T10:42:48.332Z</time>
      </trkpt>
      <trkpt lat="45.14584" lon="2.88055">
        <ele>1156.53</ele>
        <time>2021-07-08T10:42:58.354Z</time>
      </trkpt>
      <trkpt lat="45.14574" lon="2.88077">
        <ele>1157.31</ele>
        <time>2021-07-08T10:43:05.622Z</time>
      </trkpt>
      <trkpt lat="45.14558" lon="2.88086">
        <ele>1158.57</ele>
        <time>2021-07-08T10:43:14.188Z</time>
      </trkpt>
      <trkpt lat="45.14549" lon="2.88084">
        <ele>1158.24</ele>
        <time>2021-07-08T10:43:15.314Z</time>
      </trkpt>
      <trkpt lat="45.14542" lon="2.88087">
        <ele>1159.47</ele>
        <time>2021-07-08T10:43:22.121Z</time>
      </trkpt>
      <trkpt lat="45.14525" lon="2.88088">
        <ele>1160.14</ele>
        <time>2021-07-08T10:43:28.544Z</time>
      </trkpt>
      <trkpt lat="45.14508" lon="2.88102">
        <ele>1162.84</ele>
        <time>2021-07-08T10:43:46.844Z</time>
      </trkpt>
      <trkpt lat="45.14499" lon="2.88132">
        <ele>1165.1</ele>
        <time>2021-07-08T10:44:01.038Z</time>
      </trkpt>
      <trkpt lat="45.14496" lon="2.88174">
        <ele>1166.2</ele>
        <time>2021-07-08T10:44:11.899Z</time>
      </trkpt>
      <trkpt lat="45.14498" lon="2.88199">
        <ele>1166.93</ele>
        <time>2021-07-08T10:44:18.771Z</time>
      </trkpt>
      <trkpt lat="45.14486" lon="2.88219">
        <ele>1168.19</ele>
        <time>2021-07-08T10:44:27.633Z</time>
      </trkpt>
      <trkpt lat="45.14469" lon="2.88225">
        <ele>1168.06</ele>
        <time>2021-07-08T10:44:30.658Z</time>
      </trkpt>
      <trkpt lat="45.14462" lon="2.8823">
        <ele>1168.5</ele>
        <time>2021-07-08T10:44:34.104Z</time>
      </trkpt>
      <trkpt lat="45.14454" lon="2.88231">
        <ele>1170.19</ele>
        <time>2021-07-08T10:44:41.580Z</time>
      </trkpt>
      <trkpt lat="45.14458" lon="2.88225">
        <ele>1171.15</ele>
        <time>2021-07-08T10:44:47.000Z</time>
      </trkpt>
      <trkpt lat="45.14477" lon="2.88221">
        <ele>1178.735067</ele>
        <time>2021-07-08T12:44:52+0200</time>
      </trkpt>
      <trkpt lat="45.14477" lon="2.88221">
        <ele>1178.735067</ele>
        <time>2021-07-08T12:44:52+0200</time>
      </trkpt>
      <trkpt lat="45.14473" lon="2.88223">
        <ele>1170.076484</ele>
        <time>2021-07-08T12:45:11+0200</time>
      </trkpt>
      <trkpt lat="45.14468" lon="2.88222">
        <ele>1171.638267</ele>
        <time>2021-07-08T12:45:20+0200</time>
      </trkpt>
      <trkpt lat="45.14472" lon="2.8822">
        <ele>1167.462444</ele>
        <time>2021-07-08T12:45:48+0200</time>
      </trkpt>
      <trkpt lat="45.1447" lon="2.88226">
        <ele>1167.412855</ele>
        <time>2021-07-08T12:46:12+0200</time>
      </trkpt>
      <trkpt lat="45.14467" lon="2.88231">
        <ele>1168.670227</ele>
        <time>2021-07-08T12:46:16+0200</time>
      </trkpt>
      <trkpt lat="45.14462" lon="2.88228">
        <ele>1170.866276</ele>
        <time>2021-07-08T12:46:18+0200</time>
      </trkpt>
      <trkpt lat="45.14462" lon="2.88222">
        <ele>1172.793151</ele>
        <time>2021-07-08T12:46:21+0200</time>
      </trkpt>
      <trkpt lat="45.1446" lon="2.88215">
        <ele>1174.394239</ele>
        <time>2021-07-08T12:46:24+0200</time>
      </trkpt>
      <trkpt lat="45.14456" lon="2.88208">
        <ele>1175.461722</ele>
        <time>2021-07-08T12:46:27+0200</time>
      </trkpt>
      <trkpt lat="45.14451" lon="2.88201">
        <ele>1177.536911</ele>
        <time>2021-07-08T12:46:30+0200</time>
      </trkpt>
      <trkpt lat="45.1445" lon="2.88195">
        <ele>1177.490231</ele>
        <time>2021-07-08T12:46:32+0200</time>
      </trkpt>
      <trkpt lat="45.14448" lon="2.88187">
        <ele>1178.439585</ele>
        <time>2021-07-08T12:46:35+0200</time>
      </trkpt>
      <trkpt lat="45.14447" lon="2.88179">
        <ele>1181.677556</ele>
        <time>2021-07-08T12:46:38+0200</time>
      </trkpt>
      <trkpt lat="45.14445" lon="2.8817">
        <ele>1183.355182</ele>
        <time>2021-07-08T12:46:41+0200</time>
      </trkpt>
      <trkpt lat="45.14445" lon="2.88163">
        <ele>1185.411211</ele>
        <time>2021-07-08T12:46:43+0200</time>
      </trkpt>
      <trkpt lat="45.14444" lon="2.88156">
        <ele>1185.859955</ele>
        <time>2021-07-08T12:46:45+0200</time>
      </trkpt>
      <trkpt lat="45.14443" lon="2.88149">
        <ele>1185.850894</ele>
        <time>2021-07-08T12:46:47+0200</time>
      </trkpt>
      <trkpt lat="45.1444" lon="2.88144">
        <ele>1186.209023</ele>
        <time>2021-07-08T12:46:50+0200</time>
      </trkpt>
      <trkpt lat="45.1444" lon="2.88137">
        <ele>1186.893765</ele>
        <time>2021-07-08T12:46:52+0200</time>
      </trkpt>
      <trkpt lat="45.14438" lon="2.88127">
        <ele>1187.162784</ele>
        <time>2021-07-08T12:46:54+0200</time>
      </trkpt>
      <trkpt lat="45.14438" lon="2.88118">
        <ele>1185.322151</ele>
        <time>2021-07-08T12:46:57+0200</time>
      </trkpt>
      <trkpt lat="45.14438" lon="2.88112">
        <ele>1184.376019</ele>
        <time>2021-07-08T12:46:59+0200</time>
      </trkpt>
      <trkpt lat="45.14439" lon="2.88104">
        <ele>1185.400986</ele>
        <time>2021-07-08T12:47:01+0200</time>
      </trkpt>
      <trkpt lat="45.14438" lon="2.88097">
        <ele>1184.649033</ele>
        <time>2021-07-08T12:47:03+0200</time>
      </trkpt>
      <trkpt lat="45.1444" lon="2.8809">
        <ele>1185.668696</ele>
        <time>2021-07-08T12:47:07+0200</time>
      </trkpt>
      <trkpt lat="45.14436" lon="2.88086">
        <ele>1179.652074</ele>
        <time>2021-07-08T12:47:12+0200</time>
      </trkpt>
      <trkpt lat="45.14437" lon="2.88078">
        <ele>1180.522862</ele>
        <time>2021-07-08T12:47:34+0200</time>
      </trkpt>
      <trkpt lat="45.14437" lon="2.88069">
        <ele>1183.805472</ele>
        <time>2021-07-08T12:47:39+0200</time>
      </trkpt>
      <trkpt lat="45.14438" lon="2.88063">
        <ele>1189.8519</ele>
        <time>2021-07-08T12:47:43+0200</time>
      </trkpt>
      <trkpt lat="45.14437" lon="2.88056">
        <ele>1191.768242</ele>
        <time>2021-07-08T12:47:46+0200</time>
      </trkpt>
      <trkpt lat="45.14435" lon="2.8805">
        <ele>1196.570793</ele>
        <time>2021-07-08T12:47:50+0200</time>
      </trkpt>
      <trkpt lat="45.14434" lon="2.88043">
        <ele>1199.225975</ele>
        <time>2021-07-08T12:47:53+0200</time>
      </trkpt>
      <trkpt lat="45.14434" lon="2.88036">
        <ele>1201.959219</ele>
        <time>2021-07-08T12:47:56+0200</time>
      </trkpt>
      <trkpt lat="45.14433" lon="2.88027">
        <ele>1203.139572</ele>
        <time>2021-07-08T12:48:00+0200</time>
      </trkpt>
      <trkpt lat="45.1443" lon="2.8802">
        <ele>1203.781676</ele>
        <time>2021-07-08T12:48:03+0200</time>
      </trkpt>
      <trkpt lat="45.14427" lon="2.88014">
        <ele>1201.504219</ele>
        <time>2021-07-08T12:48:06+0200</time>
      </trkpt>
      <trkpt lat="45.14424" lon="2.8801">
        <ele>1200.637903</ele>
        <time>2021-07-08T12:48:08+0200</time>
      </trkpt>
      <trkpt lat="45.14421" lon="2.88004">
        <ele>1200.934847</ele>
        <time>2021-07-08T12:48:11+0200</time>
      </trkpt>
      <trkpt lat="45.14419" lon="2.87998">
        <ele>1202.091115</ele>
        <time>2021-07-08T12:48:14+0200</time>
      </trkpt>
      <trkpt lat="45.14417" lon="2.8799">
        <ele>1202.091933</ele>
        <time>2021-07-08T12:48:17+0200</time>
      </trkpt>
      <trkpt lat="45.14415" lon="2.87984">
        <ele>1200.629866</ele>
        <time>2021-07-08T12:48:20+0200</time>
      </trkpt>
      <trkpt lat="45.14414" lon="2.87976">
        <ele>1201.356688</ele>
        <time>2021-07-08T12:48:24+0200</time>
      </trkpt>
      <trkpt lat="45.14412" lon="2.8797">
        <ele>1203.075356</ele>
        <time>2021-07-08T12:48:27+0200</time>
      </trkpt>
      <trkpt lat="45.14409" lon="2.87964">
        <ele>1202.097683</ele>
        <time>2021-07-08T12:48:30+0200</time>
      </trkpt>
      <trkpt lat="45.14406" lon="2.87959">
        <ele>1201.377476</ele>
        <time>2021-07-08T12:48:33+0200</time>
      </trkpt>
      <trkpt lat="45.14402" lon="2.87953">
        <ele>1202.148922</ele>
        <time>2021-07-08T12:48:37+0200</time>
      </trkpt>
      <trkpt lat="45.14397" lon="2.87947">
        <ele>1202.86786</ele>
        <time>2021-07-08T12:48:42+0200</time>
      </trkpt>
      <trkpt lat="45.14392" lon="2.87943">
        <ele>1201.92334</ele>
        <time>2021-07-08T12:48:45+0200</time>
      </trkpt>
      <trkpt lat="45.14387" lon="2.87938">
        <ele>1201.137621</ele>
        <time>2021-07-08T12:48:48+0200</time>
      </trkpt>
      <trkpt lat="45.14383" lon="2.87934">
        <ele>1199.960012</ele>
        <time>2021-07-08T12:48:50+0200</time>
      </trkpt>
      <trkpt lat="45.14379" lon="2.8793">
        <ele>1199.224268</ele>
        <time>2021-07-08T12:48:52+0200</time>
      </trkpt>
      <trkpt lat="45.14375" lon="2.87923">
        <ele>1199.480447</ele>
        <time>2021-07-08T12:48:56+0200</time>
      </trkpt>
      <trkpt lat="45.1437" lon="2.87919">
        <ele>1201.091469</ele>
        <time>2021-07-08T12:48:58+0200</time>
      </trkpt>
      <trkpt lat="45.14365" lon="2.87914">
        <ele>1203.246355</ele>
        <time>2021-07-08T12:49:01+0200</time>
      </trkpt>
      <trkpt lat="45.14361" lon="2.87909">
        <ele>1206.363267</ele>
        <time>2021-07-08T12:49:04+0200</time>
      </trkpt>
      <trkpt lat="45.14359" lon="2.87902">
        <ele>1206.469532</ele>
        <time>2021-07-08T12:49:07+0200</time>
      </trkpt>
      <trkpt lat="45.14356" lon="2.87894">
        <ele>1208.82497</ele>
        <time>2021-07-08T12:49:10+0200</time>
      </trkpt>
      <trkpt lat="45.14352" lon="2.87886">
        <ele>1210.9715</ele>
        <time>2021-07-08T12:49:13+0200</time>
      </trkpt>
      <trkpt lat="45.14346" lon="2.87883">
        <ele>1211.452342</ele>
        <time>2021-07-08T12:49:16+0200</time>
      </trkpt>
      <trkpt lat="45.14341" lon="2.87878">
        <ele>1208.654678</ele>
        <time>2021-07-08T12:49:19+0200</time>
      </trkpt>
      <trkpt lat="45.14338" lon="2.87873">
        <ele>1207.458549</ele>
        <time>2021-07-08T12:49:21+0200</time>
      </trkpt>
      <trkpt lat="45.14334" lon="2.87869">
        <ele>1208.736581</ele>
        <time>2021-07-08T12:49:23+0200</time>
      </trkpt>
      <trkpt lat="45.1433" lon="2.87863">
        <ele>1210.257269</ele>
        <time>2021-07-08T12:49:26+0200</time>
      </trkpt>
      <trkpt lat="45.14328" lon="2.87856">
        <ele>1210.06173</ele>
        <time>2021-07-08T12:49:29+0200</time>
      </trkpt>
      <trkpt lat="45.14324" lon="2.87851">
        <ele>1210.804585</ele>
        <time>2021-07-08T12:49:32+0200</time>
      </trkpt>
      <trkpt lat="45.14319" lon="2.87843">
        <ele>1211.930024</ele>
        <time>2021-07-08T12:49:35+0200</time>
      </trkpt>
      <trkpt lat="45.14317" lon="2.87837">
        <ele>1212.470106</ele>
        <time>2021-07-08T12:49:38+0200</time>
      </trkpt>
      <trkpt lat="45.14313" lon="2.87831">
        <ele>1209.629243</ele>
        <time>2021-07-08T12:49:40+0200</time>
      </trkpt>
      <trkpt lat="45.14312" lon="2.87825">
        <ele>1209.063587</ele>
        <time>2021-07-08T12:50:02+0200</time>
      </trkpt>
      <trkpt lat="45.14311" lon="2.87817">
        <ele>1211.095877</ele>
        <time>2021-07-08T12:50:23+0200</time>
      </trkpt>
      <trkpt lat="45.14308" lon="2.87808">
        <ele>1210.125934</ele>
        <time>2021-07-08T12:50:26+0200</time>
      </trkpt>
      <trkpt lat="45.14304" lon="2.87802">
        <ele>1208.179883</ele>
        <time>2021-07-08T12:50:28+0200</time>
      </trkpt>
      <trkpt lat="45.143" lon="2.87796">
        <ele>1208.483393</ele>
        <time>2021-07-08T12:50:30+0200</time>
      </trkpt>
      <trkpt lat="45.14297" lon="2.87791">
        <ele>1208.266123</ele>
        <time>2021-07-08T12:50:32+0200</time>
      </trkpt>
      <trkpt lat="45.14291" lon="2.87783">
        <ele>1204.912153</ele>
        <time>2021-07-08T12:50:35+0200</time>
      </trkpt>
      <trkpt lat="45.14289" lon="2.87776">
        <ele>1206.357714</ele>
        <time>2021-07-08T12:50:37+0200</time>
      </trkpt>
      <trkpt lat="45.14287" lon="2.87769">
        <ele>1206.76586</ele>
        <time>2021-07-08T12:50:40+0200</time>
      </trkpt>
      <trkpt lat="45.14285" lon="2.87763">
        <ele>1206.98612</ele>
        <time>2021-07-08T12:50:42+0200</time>
      </trkpt>
      <trkpt lat="45.14284" lon="2.87756">
        <ele>1209.031729</ele>
        <time>2021-07-08T12:50:44+0200</time>
      </trkpt>
      <trkpt lat="45.14287" lon="2.87749">
        <ele>1212.823876</ele>
        <time>2021-07-08T12:50:46+0200</time>
      </trkpt>
      <trkpt lat="45.14287" lon="2.8774">
        <ele>1214.698814</ele>
        <time>2021-07-08T12:50:48+0200</time>
      </trkpt>
      <trkpt lat="45.14289" lon="2.87733">
        <ele>1214.219813</ele>
        <time>2021-07-08T12:50:50+0200</time>
      </trkpt>
      <trkpt lat="45.1429" lon="2.87726">
        <ele>1213.437219</ele>
        <time>2021-07-08T12:50:53+0200</time>
      </trkpt>
      <trkpt lat="45.14292" lon="2.8772">
        <ele>1214.004598</ele>
        <time>2021-07-08T12:50:56+0200</time>
      </trkpt>
      <trkpt lat="45.14294" lon="2.87712">
        <ele>1214.80852</ele>
        <time>2021-07-08T12:51:01+0200</time>
      </trkpt>
      <trkpt lat="45.14296" lon="2.87706">
        <ele>1217.063651</ele>
        <time>2021-07-08T12:51:05+0200</time>
      </trkpt>
      <trkpt lat="45.14298" lon="2.87699">
        <ele>1219.998868</ele>
        <time>2021-07-08T12:51:09+0200</time>
      </trkpt>
      <trkpt lat="45.14299" lon="2.87692">
        <ele>1221.403095</ele>
        <time>2021-07-08T12:51:10+0200</time>
      </trkpt>
      <trkpt lat="45.14298" lon="2.87685">
        <ele>1220.761313</ele>
        <time>2021-07-08T12:51:12+0200</time>
      </trkpt>
      <trkpt lat="45.143" lon="2.87677">
        <ele>1222.348389</ele>
        <time>2021-07-08T12:51:14+0200</time>
      </trkpt>
      <trkpt lat="45.143" lon="2.87668">
        <ele>1224.771479</ele>
        <time>2021-07-08T12:51:16+0200</time>
      </trkpt>
      <trkpt lat="45.14303" lon="2.8766">
        <ele>1226.114379</ele>
        <time>2021-07-08T12:51:18+0200</time>
      </trkpt>
      <trkpt lat="45.14302" lon="2.87652">
        <ele>1225.156281</ele>
        <time>2021-07-08T12:51:20+0200</time>
      </trkpt>
      <trkpt lat="45.14305" lon="2.87643">
        <ele>1225.422844</ele>
        <time>2021-07-08T12:51:22+0200</time>
      </trkpt>
      <trkpt lat="45.14309" lon="2.87634">
        <ele>1224.786326</ele>
        <time>2021-07-08T12:51:24+0200</time>
      </trkpt>
      <trkpt lat="45.14311" lon="2.87627">
        <ele>1223.941764</ele>
        <time>2021-07-08T12:51:26+0200</time>
      </trkpt>
      <trkpt lat="45.14311" lon="2.87618">
        <ele>1221.254259</ele>
        <time>2021-07-08T12:51:28+0200</time>
      </trkpt>
      <trkpt lat="45.14313" lon="2.87609">
        <ele>1219.781762</ele>
        <time>2021-07-08T12:51:30+0200</time>
      </trkpt>
      <trkpt lat="45.14314" lon="2.87599">
        <ele>1219.626546</ele>
        <time>2021-07-08T12:51:32+0200</time>
      </trkpt>
      <trkpt lat="45.14313" lon="2.87587">
        <ele>1221.043448</ele>
        <time>2021-07-08T12:51:34+0200</time>
      </trkpt>
      <trkpt lat="45.14313" lon="2.8758">
        <ele>1220.347974</ele>
        <time>2021-07-08T12:51:36+0200</time>
      </trkpt>
      <trkpt lat="45.14315" lon="2.8757">
        <ele>1218.792711</ele>
        <time>2021-07-08T12:51:38+0200</time>
      </trkpt>
      <trkpt lat="45.14317" lon="2.8756">
        <ele>1217.199154</ele>
        <time>2021-07-08T12:51:40+0200</time>
      </trkpt>
      <trkpt lat="45.14319" lon="2.87552">
        <ele>1214.907422</ele>
        <time>2021-07-08T12:51:42+0200</time>
      </trkpt>
      <trkpt lat="45.14319" lon="2.87545">
        <ele>1213.690966</ele>
        <time>2021-07-08T12:51:44+0200</time>
      </trkpt>
      <trkpt lat="45.1432" lon="2.87539">
        <ele>1214.08787</ele>
        <time>2021-07-08T12:51:46+0200</time>
      </trkpt>
      <trkpt lat="45.1432" lon="2.8753">
        <ele>1215.990958</ele>
        <time>2021-07-08T12:51:49+0200</time>
      </trkpt>
      <trkpt lat="45.1432" lon="2.87523">
        <ele>1217.795002</ele>
        <time>2021-07-08T12:51:51+0200</time>
      </trkpt>
      <trkpt lat="45.14319" lon="2.87515">
        <ele>1217.96778</ele>
        <time>2021-07-08T12:51:54+0200</time>
      </trkpt>
      <trkpt lat="45.14321" lon="2.87506">
        <ele>1217.229837</ele>
        <time>2021-07-08T12:51:57+0200</time>
      </trkpt>
      <trkpt lat="45.14323" lon="2.875">
        <ele>1216.878667</ele>
        <time>2021-07-08T12:51:59+0200</time>
      </trkpt>
      <trkpt lat="45.14324" lon="2.87491">
        <ele>1217.638922</ele>
        <time>2021-07-08T12:52:02+0200</time>
      </trkpt>
      <trkpt lat="45.14326" lon="2.87483">
        <ele>1217.375135</ele>
        <time>2021-07-08T12:52:05+0200</time>
      </trkpt>
      <trkpt lat="45.14326" lon="2.87475">
        <ele>1216.980443</ele>
        <time>2021-07-08T12:52:08+0200</time>
      </trkpt>
      <trkpt lat="45.14325" lon="2.87468">
        <ele>1217.712923</ele>
        <time>2021-07-08T12:52:12+0200</time>
      </trkpt>
      <trkpt lat="45.14325" lon="2.8746">
        <ele>1218.155892</ele>
        <time>2021-07-08T12:52:15+0200</time>
      </trkpt>
      <trkpt lat="45.14325" lon="2.87452">
        <ele>1220.688491</ele>
        <time>2021-07-08T12:52:19+0200</time>
      </trkpt>
      <trkpt lat="45.14323" lon="2.87445">
        <ele>1225.466415</ele>
        <time>2021-07-08T12:52:25+0200</time>
      </trkpt>
      <trkpt lat="45.14321" lon="2.87437">
        <ele>1228.133268</ele>
        <time>2021-07-08T12:52:30+0200</time>
      </trkpt>
      <trkpt lat="45.14319" lon="2.87431">
        <ele>1227.639582</ele>
        <time>2021-07-08T12:52:33+0200</time>
      </trkpt>
      <trkpt lat="45.14317" lon="2.87424">
        <ele>1225.451744</ele>
        <time>2021-07-08T12:52:36+0200</time>
      </trkpt>
      <trkpt lat="45.14315" lon="2.87417">
        <ele>1223.605755</ele>
        <time>2021-07-08T12:52:40+0200</time>
      </trkpt>
      <trkpt lat="45.14311" lon="2.87412">
        <ele>1222.701349</ele>
        <time>2021-07-08T12:52:44+0200</time>
      </trkpt>
      <trkpt lat="45.14308" lon="2.87406">
        <ele>1223.600276</ele>
        <time>2021-07-08T12:52:48+0200</time>
      </trkpt>
      <trkpt lat="45.14305" lon="2.87401">
        <ele>1223.641586</ele>
        <time>2021-07-08T12:52:51+0200</time>
      </trkpt>
      <trkpt lat="45.14303" lon="2.87396">
        <ele>1222.65167</ele>
        <time>2021-07-08T12:52:55+0200</time>
      </trkpt>
      <trkpt lat="45.14301" lon="2.87388">
        <ele>1224.014594</ele>
        <time>2021-07-08T12:52:59+0200</time>
      </trkpt>
      <trkpt lat="45.14299" lon="2.87382">
        <ele>1225.71869</ele>
        <time>2021-07-08T12:53:03+0200</time>
      </trkpt>
      <trkpt lat="45.14296" lon="2.87377">
        <ele>1229.100683</ele>
        <time>2021-07-08T12:53:09+0200</time>
      </trkpt>
      <trkpt lat="45.14295" lon="2.8737">
        <ele>1230.070857</ele>
        <time>2021-07-08T12:53:14+0200</time>
      </trkpt>
      <trkpt lat="45.14291" lon="2.87365">
        <ele>1229.353512</ele>
        <time>2021-07-08T12:53:18+0200</time>
      </trkpt>
      <trkpt lat="45.14288" lon="2.87359">
        <ele>1228.814801</ele>
        <time>2021-07-08T12:53:21+0200</time>
      </trkpt>
      <trkpt lat="45.14285" lon="2.87351">
        <ele>1230.438628</ele>
        <time>2021-07-08T12:53:25+0200</time>
      </trkpt>
      <trkpt lat="45.14282" lon="2.87346">
        <ele>1231.760302</ele>
        <time>2021-07-08T12:53:29+0200</time>
      </trkpt>
      <trkpt lat="45.14285" lon="2.87339">
        <ele>1228.245986</ele>
        <time>2021-07-08T12:54:13+0200</time>
      </trkpt>
      <trkpt lat="45.14287" lon="2.8733">
        <ele>1230.520677</ele>
        <time>2021-07-08T12:54:16+0200</time>
      </trkpt>
      <trkpt lat="45.14286" lon="2.87323">
        <ele>1231.623863</ele>
        <time>2021-07-08T12:54:19+0200</time>
      </trkpt>
      <trkpt lat="45.14288" lon="2.87315">
        <ele>1234.447584</ele>
        <time>2021-07-08T12:54:22+0200</time>
      </trkpt>
      <trkpt lat="45.14288" lon="2.87306">
        <ele>1235.767866</ele>
        <time>2021-07-08T12:54:25+0200</time>
      </trkpt>
      <trkpt lat="45.14289" lon="2.87299">
        <ele>1236.38056</ele>
        <time>2021-07-08T12:54:27+0200</time>
      </trkpt>
      <trkpt lat="45.14288" lon="2.87291">
        <ele>1238.361067</ele>
        <time>2021-07-08T12:54:30+0200</time>
      </trkpt>
      <trkpt lat="45.14287" lon="2.87284">
        <ele>1239.272487</ele>
        <time>2021-07-08T12:54:32+0200</time>
      </trkpt>
      <trkpt lat="45.14288" lon="2.87276">
        <ele>1240.393126</ele>
        <time>2021-07-08T12:54:34+0200</time>
      </trkpt>
      <trkpt lat="45.14288" lon="2.87267">
        <ele>1240.352064</ele>
        <time>2021-07-08T12:54:36+0200</time>
      </trkpt>
      <trkpt lat="45.14289" lon="2.87256">
        <ele>1237.777835</ele>
        <time>2021-07-08T12:54:38+0200</time>
      </trkpt>
      <trkpt lat="45.1429" lon="2.87248">
        <ele>1236.426716</ele>
        <time>2021-07-08T12:54:39+0200</time>
      </trkpt>
      <trkpt lat="45.14292" lon="2.87241">
        <ele>1235.140501</ele>
        <time>2021-07-08T12:54:40+0200</time>
      </trkpt>
      <trkpt lat="45.14295" lon="2.87235">
        <ele>1234.457202</ele>
        <time>2021-07-08T12:54:41+0200</time>
      </trkpt>
      <trkpt lat="45.14298" lon="2.87229">
        <ele>1232.638314</ele>
        <time>2021-07-08T12:54:42+0200</time>
      </trkpt>
      <trkpt lat="45.14302" lon="2.8722">
        <ele>1231.011587</ele>
        <time>2021-07-08T12:54:43+0200</time>
      </trkpt>
      <trkpt lat="45.14305" lon="2.87214">
        <ele>1229.767696</ele>
        <time>2021-07-08T12:54:44+0200</time>
      </trkpt>
      <trkpt lat="45.14306" lon="2.87208">
        <ele>1228.687347</ele>
        <time>2021-07-08T12:54:45+0200</time>
      </trkpt>
      <trkpt lat="45.14309" lon="2.87201">
        <ele>1228.035869</ele>
        <time>2021-07-08T12:54:46+0200</time>
      </trkpt>
      <trkpt lat="45.14311" lon="2.87195">
        <ele>1227.839758</ele>
        <time>2021-07-08T12:54:47+0200</time>
      </trkpt>
      <trkpt lat="45.14307" lon="2.87184">
        <ele>1228.685116</ele>
        <time>2021-07-08T12:54:49+0200</time>
      </trkpt>
      <trkpt lat="45.14308" lon="2.87176">
        <ele>1229.145736</ele>
        <time>2021-07-08T12:54:52+0200</time>
      </trkpt>
      <trkpt lat="45.14306" lon="2.87169">
        <ele>1229.579321</ele>
        <time>2021-07-08T12:54:55+0200</time>
      </trkpt>
      <trkpt lat="45.14307" lon="2.87162">
        <ele>1232.817301</ele>
        <time>2021-07-08T12:54:57+0200</time>
      </trkpt>
      <trkpt lat="45.14306" lon="2.87153">
        <ele>1235.536656</ele>
        <time>2021-07-08T12:55:00+0200</time>
      </trkpt>
      <trkpt lat="45.14305" lon="2.87145">
        <ele>1237.265748</ele>
        <time>2021-07-08T12:55:03+0200</time>
      </trkpt>
      <trkpt lat="45.14305" lon="2.87136">
        <ele>1237.399639</ele>
        <time>2021-07-08T12:55:06+0200</time>
      </trkpt>
      <trkpt lat="45.14307" lon="2.87129">
        <ele>1238.921703</ele>
        <time>2021-07-08T12:55:08+0200</time>
      </trkpt>
      <trkpt lat="45.14308" lon="2.87123">
        <ele>1238.200549</ele>
        <time>2021-07-08T12:55:10+0200</time>
      </trkpt>
      <trkpt lat="45.14306" lon="2.87116">
        <ele>1237.662709</ele>
        <time>2021-07-08T12:55:13+0200</time>
      </trkpt>
      <trkpt lat="45.14308" lon="2.87106">
        <ele>1237.145295</ele>
        <time>2021-07-08T12:55:16+0200</time>
      </trkpt>
      <trkpt lat="45.14307" lon="2.87099">
        <ele>1237.057098</ele>
        <time>2021-07-08T12:55:18+0200</time>
      </trkpt>
      <trkpt lat="45.14309" lon="2.87092">
        <ele>1237.762093</ele>
        <time>2021-07-08T12:55:20+0200</time>
      </trkpt>
      <trkpt lat="45.14313" lon="2.87086">
        <ele>1237.080152</ele>
        <time>2021-07-08T12:55:21+0200</time>
      </trkpt>
      <trkpt lat="45.14316" lon="2.8708">
        <ele>1234.680895</ele>
        <time>2021-07-08T12:55:23+0200</time>
      </trkpt>
      <trkpt lat="45.1432" lon="2.87075">
        <ele>1234.893654</ele>
        <time>2021-07-08T12:55:25+0200</time>
      </trkpt>
      <trkpt lat="45.1432" lon="2.87068">
        <ele>1235.866544</ele>
        <time>2021-07-08T12:55:27+0200</time>
      </trkpt>
      <trkpt lat="45.1432" lon="2.87061">
        <ele>1234.908661</ele>
        <time>2021-07-08T12:55:29+0200</time>
      </trkpt>
      <trkpt lat="45.14322" lon="2.87053">
        <ele>1236.606056</ele>
        <time>2021-07-08T12:55:31+0200</time>
      </trkpt>
      <trkpt lat="45.14322" lon="2.87045">
        <ele>1237.72838</ele>
        <time>2021-07-08T12:55:34+0200</time>
      </trkpt>
      <trkpt lat="45.14322" lon="2.87038">
        <ele>1238.846998</ele>
        <time>2021-07-08T12:55:37+0200</time>
      </trkpt>
      <trkpt lat="45.1432" lon="2.87032">
        <ele>1239.528204</ele>
        <time>2021-07-08T12:55:40+0200</time>
      </trkpt>
      <trkpt lat="45.1432" lon="2.87022">
        <ele>1235.089334</ele>
        <time>2021-07-08T12:55:44+0200</time>
      </trkpt>
      <trkpt lat="45.14318" lon="2.87015">
        <ele>1232.350853</ele>
        <time>2021-07-08T12:55:47+0200</time>
      </trkpt>
      <trkpt lat="45.14321" lon="2.87008">
        <ele>1235.751556</ele>
        <time>2021-07-08T12:55:51+0200</time>
      </trkpt>
      <trkpt lat="45.14322" lon="2.87">
        <ele>1238.038979</ele>
        <time>2021-07-08T12:55:55+0200</time>
      </trkpt>
      <trkpt lat="45.14322" lon="2.86993">
        <ele>1236.774528</ele>
        <time>2021-07-08T12:55:58+0200</time>
      </trkpt>
      <trkpt lat="45.14321" lon="2.86986">
        <ele>1236.035324</ele>
        <time>2021-07-08T12:56:00+0200</time>
      </trkpt>
      <trkpt lat="45.1432" lon="2.86978">
        <ele>1236.842951</ele>
        <time>2021-07-08T12:56:04+0200</time>
      </trkpt>
      <trkpt lat="45.14322" lon="2.86969">
        <ele>1236.481303</ele>
        <time>2021-07-08T12:56:07+0200</time>
      </trkpt>
      <trkpt lat="45.14323" lon="2.86961">
        <ele>1236.254281</ele>
        <time>2021-07-08T12:56:10+0200</time>
      </trkpt>
      <trkpt lat="45.14327" lon="2.86955">
        <ele>1238.040889</ele>
        <time>2021-07-08T12:56:13+0200</time>
      </trkpt>
      <trkpt lat="45.14331" lon="2.8695">
        <ele>1240.629272</ele>
        <time>2021-07-08T12:56:16+0200</time>
      </trkpt>
      <trkpt lat="45.14334" lon="2.86945">
        <ele>1244.073124</ele>
        <time>2021-07-08T12:56:20+0200</time>
      </trkpt>
      <trkpt lat="45.14337" lon="2.8694">
        <ele>1244.408121</ele>
        <time>2021-07-08T12:56:24+0200</time>
      </trkpt>
      <trkpt lat="45.14339" lon="2.86934">
        <ele>1245.779831</ele>
        <time>2021-07-08T12:56:30+0200</time>
      </trkpt>
      <trkpt lat="45.14343" lon="2.86931">
        <ele>1238.865133</ele>
        <time>2021-07-08T12:56:38+0200</time>
      </trkpt>
      <trkpt lat="45.1434" lon="2.86927">
        <ele>1241.220674</ele>
        <time>2021-07-08T12:56:41+0200</time>
      </trkpt>
      <trkpt lat="45.14341" lon="2.8692">
        <ele>1243.600764</ele>
        <time>2021-07-08T12:56:45+0200</time>
      </trkpt>
      <trkpt lat="45.14342" lon="2.86912">
        <ele>1244.452454</ele>
        <time>2021-07-08T12:56:49+0200</time>
      </trkpt>
      <trkpt lat="45.14344" lon="2.86903">
        <ele>1243.025266</ele>
        <time>2021-07-08T12:56:52+0200</time>
      </trkpt>
      <trkpt lat="45.14348" lon="2.86896">
        <ele>1246.518931</ele>
        <time>2021-07-08T12:56:56+0200</time>
      </trkpt>
      <trkpt lat="45.14346" lon="2.86889">
        <ele>1241.244319</ele>
        <time>2021-07-08T12:57:02+0200</time>
      </trkpt>
      <trkpt lat="45.14343" lon="2.86883">
        <ele>1240.349574</ele>
        <time>2021-07-08T12:57:06+0200</time>
      </trkpt>
      <trkpt lat="45.14339" lon="2.86878">
        <ele>1240.476078</ele>
        <time>2021-07-08T12:57:10+0200</time>
      </trkpt>
      <trkpt lat="45.14337" lon="2.86872">
        <ele>1241.480834</ele>
        <time>2021-07-08T12:57:13+0200</time>
      </trkpt>
      <trkpt lat="45.14336" lon="2.86866">
        <ele>1242.669216</ele>
        <time>2021-07-08T12:57:16+0200</time>
      </trkpt>
      <trkpt lat="45.14335" lon="2.86859">
        <ele>1243.206705</ele>
        <time>2021-07-08T12:57:23+0200</time>
      </trkpt>
      <trkpt lat="45.14335" lon="2.86852">
        <ele>1238.253069</ele>
        <time>2021-07-08T12:57:27+0200</time>
      </trkpt>
      <trkpt lat="45.14335" lon="2.86845">
        <ele>1237.860049</ele>
        <time>2021-07-08T12:57:30+0200</time>
      </trkpt>
      <trkpt lat="45.14336" lon="2.86836">
        <ele>1237.834865</ele>
        <time>2021-07-08T12:57:34+0200</time>
      </trkpt>
      <trkpt lat="45.14338" lon="2.8683">
        <ele>1240.142791</ele>
        <time>2021-07-08T12:57:37+0200</time>
      </trkpt>
      <trkpt lat="45.14337" lon="2.86821">
        <ele>1238.081845</ele>
        <time>2021-07-08T12:57:41+0200</time>
      </trkpt>
      <trkpt lat="45.14338" lon="2.86814">
        <ele>1240.152056</ele>
        <time>2021-07-08T12:57:45+0200</time>
      </trkpt>
      <trkpt lat="45.1434" lon="2.86807">
        <ele>1241.614854</ele>
        <time>2021-07-08T12:57:48+0200</time>
      </trkpt>
      <trkpt lat="45.1434" lon="2.86801">
        <ele>1242.182839</ele>
        <time>2021-07-08T12:57:50+0200</time>
      </trkpt>
      <trkpt lat="45.14339" lon="2.86794">
        <ele>1242.174618</ele>
        <time>2021-07-08T12:57:53+0200</time>
      </trkpt>
      <trkpt lat="45.14337" lon="2.86787">
        <ele>1239.842568</ele>
        <time>2021-07-08T12:57:55+0200</time>
      </trkpt>
      <trkpt lat="45.14335" lon="2.86779">
        <ele>1237.453219</ele>
        <time>2021-07-08T12:57:58+0200</time>
      </trkpt>
      <trkpt lat="45.1433" lon="2.86773">
        <ele>1236.36179</ele>
        <time>2021-07-08T12:58:01+0200</time>
      </trkpt>
      <trkpt lat="45.14329" lon="2.86766">
        <ele>1236.919466</ele>
        <time>2021-07-08T12:58:04+0200</time>
      </trkpt>
      <trkpt lat="45.14332" lon="2.8676">
        <ele>1238.367409</ele>
        <time>2021-07-08T12:58:06+0200</time>
      </trkpt>
      <trkpt lat="45.14333" lon="2.86752">
        <ele>1238.693407</ele>
        <time>2021-07-08T12:58:09+0200</time>
      </trkpt>
      <trkpt lat="45.14336" lon="2.86746">
        <ele>1240.647809</ele>
        <time>2021-07-08T12:58:12+0200</time>
      </trkpt>
      <trkpt lat="45.1434" lon="2.86742">
        <ele>1241.632485</ele>
        <time>2021-07-08T12:58:14+0200</time>
      </trkpt>
      <trkpt lat="45.14343" lon="2.86738">
        <ele>1239.73186</ele>
        <time>2021-07-08T12:58:17+0200</time>
      </trkpt>
      <trkpt lat="45.14347" lon="2.86733">
        <ele>1238.282727</ele>
        <time>2021-07-08T12:58:20+0200</time>
      </trkpt>
      <trkpt lat="45.14352" lon="2.86728">
        <ele>1239.54189</ele>
        <time>2021-07-08T12:58:23+0200</time>
      </trkpt>
      <trkpt lat="45.14352" lon="2.86721">
        <ele>1241.237056</ele>
        <time>2021-07-08T12:58:27+0200</time>
      </trkpt>
      <trkpt lat="45.14349" lon="2.86716">
        <ele>1241.586717</ele>
        <time>2021-07-08T12:58:30+0200</time>
      </trkpt>
      <trkpt lat="45.14346" lon="2.86709">
        <ele>1239.996177</ele>
        <time>2021-07-08T12:58:33+0200</time>
      </trkpt>
      <trkpt lat="45.14344" lon="2.867">
        <ele>1241.102955</ele>
        <time>2021-07-08T12:58:38+0200</time>
      </trkpt>
      <trkpt lat="45.14342" lon="2.86694">
        <ele>1241.588313</ele>
        <time>2021-07-08T12:58:41+0200</time>
      </trkpt>
      <trkpt lat="45.14338" lon="2.86687">
        <ele>1242.081617</ele>
        <time>2021-07-08T12:58:44+0200</time>
      </trkpt>
      <trkpt lat="45.14333" lon="2.86684">
        <ele>1242.167358</ele>
        <time>2021-07-08T12:58:49+0200</time>
      </trkpt>
      <trkpt lat="45.14327" lon="2.86679">
        <ele>1240.29749</ele>
        <time>2021-07-08T12:58:53+0200</time>
      </trkpt>
      <trkpt lat="45.14324" lon="2.86674">
        <ele>1242.743429</ele>
        <time>2021-07-08T12:58:58+0200</time>
      </trkpt>
      <trkpt lat="45.14321" lon="2.86667">
        <ele>1240.815111</ele>
        <time>2021-07-08T12:59:02+0200</time>
      </trkpt>
      <trkpt lat="45.14319" lon="2.86661">
        <ele>1242.588361</ele>
        <time>2021-07-08T12:59:05+0200</time>
      </trkpt>
      <trkpt lat="45.14318" lon="2.86654">
        <ele>1240.808416</ele>
        <time>2021-07-08T12:59:10+0200</time>
      </trkpt>
      <trkpt lat="45.14315" lon="2.86647">
        <ele>1240.624246</ele>
        <time>2021-07-08T12:59:13+0200</time>
      </trkpt>
      <trkpt lat="45.1431" lon="2.86639">
        <ele>1240.666661</ele>
        <time>2021-07-08T12:59:17+0200</time>
      </trkpt>
      <trkpt lat="45.14308" lon="2.86633">
        <ele>1239.8219</ele>
        <time>2021-07-08T12:59:21+0200</time>
      </trkpt>
      <trkpt lat="45.14308" lon="2.86626">
        <ele>1242.101951</ele>
        <time>2021-07-08T12:59:26+0200</time>
      </trkpt>
      <trkpt lat="45.14307" lon="2.86617">
        <ele>1242.565247</ele>
        <time>2021-07-08T12:59:29+0200</time>
      </trkpt>
      <trkpt lat="45.14304" lon="2.8661">
        <ele>1241.349992</ele>
        <time>2021-07-08T12:59:31+0200</time>
      </trkpt>
      <trkpt lat="45.14301" lon="2.86603">
        <ele>1239.84494</ele>
        <time>2021-07-08T12:59:33+0200</time>
      </trkpt>
      <trkpt lat="45.14299" lon="2.86596">
        <ele>1238.794122</ele>
        <time>2021-07-08T12:59:34+0200</time>
      </trkpt>
      <trkpt lat="45.14299" lon="2.86589">
        <ele>1239.986841</ele>
        <time>2021-07-08T12:59:37+0200</time>
      </trkpt>
      <trkpt lat="45.143" lon="2.86582">
        <ele>1241.379126</ele>
        <time>2021-07-08T12:59:40+0200</time>
      </trkpt>
      <trkpt lat="45.143" lon="2.86574">
        <ele>1241.814155</ele>
        <time>2021-07-08T12:59:43+0200</time>
      </trkpt>
      <trkpt lat="45.14298" lon="2.86567">
        <ele>1240.942582</ele>
        <time>2021-07-08T12:59:46+0200</time>
      </trkpt>
      <trkpt lat="45.143" lon="2.86561">
        <ele>1241.689309</ele>
        <time>2021-07-08T12:59:48+0200</time>
      </trkpt>
      <trkpt lat="45.14299" lon="2.86554">
        <ele>1240.522549</ele>
        <time>2021-07-08T12:59:52+0200</time>
      </trkpt>
      <trkpt lat="45.14296" lon="2.86549">
        <ele>1227.057976</ele>
        <time>2021-07-08T13:00:34+0200</time>
      </trkpt>
      <trkpt lat="45.14297" lon="2.86542">
        <ele>1237.07069</ele>
        <time>2021-07-08T13:01:11+0200</time>
      </trkpt>
      <trkpt lat="45.14297" lon="2.86535">
        <ele>1238.659353</ele>
        <time>2021-07-08T13:01:15+0200</time>
      </trkpt>
      <trkpt lat="45.14296" lon="2.86528">
        <ele>1238.844308</ele>
        <time>2021-07-08T13:01:17+0200</time>
      </trkpt>
      <trkpt lat="45.14296" lon="2.8652">
        <ele>1239.429231</ele>
        <time>2021-07-08T13:01:20+0200</time>
      </trkpt>
      <trkpt lat="45.14297" lon="2.86514">
        <ele>1239.459693</ele>
        <time>2021-07-08T13:01:22+0200</time>
      </trkpt>
      <trkpt lat="45.14299" lon="2.86507">
        <ele>1240.568961</ele>
        <time>2021-07-08T13:01:24+0200</time>
      </trkpt>
      <trkpt lat="45.14299" lon="2.86501">
        <ele>1241.158835</ele>
        <time>2021-07-08T13:01:27+0200</time>
      </trkpt>
      <trkpt lat="45.14299" lon="2.86493">
        <ele>1239.748429</ele>
        <time>2021-07-08T13:01:31+0200</time>
      </trkpt>
      <trkpt lat="45.14299" lon="2.86486">
        <ele>1242.398903</ele>
        <time>2021-07-08T13:01:40+0200</time>
      </trkpt>
      <trkpt lat="45.14301" lon="2.86478">
        <ele>1240.875129</ele>
        <time>2021-07-08T13:02:02+0200</time>
      </trkpt>
      <trkpt lat="45.143" lon="2.86471">
        <ele>1241.581242</ele>
        <time>2021-07-08T13:02:04+0200</time>
      </trkpt>
      <trkpt lat="45.14301" lon="2.86463">
        <ele>1243.148734</ele>
        <time>2021-07-08T13:02:07+0200</time>
      </trkpt>
      <trkpt lat="45.14301" lon="2.86457">
        <ele>1243.43098</ele>
        <time>2021-07-08T13:02:09+0200</time>
      </trkpt>
      <trkpt lat="45.14302" lon="2.86449">
        <ele>1245.300751</ele>
        <time>2021-07-08T13:02:12+0200</time>
      </trkpt>
      <trkpt lat="45.14302" lon="2.86441">
        <ele>1245.287201</ele>
        <time>2021-07-08T13:02:14+0200</time>
      </trkpt>
      <trkpt lat="45.14302" lon="2.86434">
        <ele>1244.876603</ele>
        <time>2021-07-08T13:02:16+0200</time>
      </trkpt>
      <trkpt lat="45.14301" lon="2.86427">
        <ele>1243.630671</ele>
        <time>2021-07-08T13:02:18+0200</time>
      </trkpt>
      <trkpt lat="45.143" lon="2.86421">
        <ele>1243.98507</ele>
        <time>2021-07-08T13:02:20+0200</time>
      </trkpt>
      <trkpt lat="45.14298" lon="2.86414">
        <ele>1242.774582</ele>
        <time>2021-07-08T13:02:22+0200</time>
      </trkpt>
      <trkpt lat="45.14297" lon="2.86406">
        <ele>1241.489138</ele>
        <time>2021-07-08T13:02:24+0200</time>
      </trkpt>
      <trkpt lat="45.14297" lon="2.86399">
        <ele>1242.13424</ele>
        <time>2021-07-08T13:02:27+0200</time>
      </trkpt>
      <trkpt lat="45.14296" lon="2.86391">
        <ele>1243.535603</ele>
        <time>2021-07-08T13:02:30+0200</time>
      </trkpt>
      <trkpt lat="45.14296" lon="2.8638">
        <ele>1244.790672</ele>
        <time>2021-07-08T13:02:33+0200</time>
      </trkpt>
      <trkpt lat="45.14293" lon="2.86373">
        <ele>1244.506657</ele>
        <time>2021-07-08T13:02:36+0200</time>
      </trkpt>
      <trkpt lat="45.14291" lon="2.86364">
        <ele>1244.215897</ele>
        <time>2021-07-08T13:02:38+0200</time>
      </trkpt>
      <trkpt lat="45.14288" lon="2.86356">
        <ele>1242.371017</ele>
        <time>2021-07-08T13:02:40+0200</time>
      </trkpt>
      <trkpt lat="45.14285" lon="2.86348">
        <ele>1242.608613</ele>
        <time>2021-07-08T13:02:43+0200</time>
      </trkpt>
      <trkpt lat="45.14283" lon="2.86342">
        <ele>1242.81796</ele>
        <time>2021-07-08T13:02:46+0200</time>
      </trkpt>
      <trkpt lat="45.1428" lon="2.86334">
        <ele>1242.573149</ele>
        <time>2021-07-08T13:02:49+0200</time>
      </trkpt>
      <trkpt lat="45.14277" lon="2.86327">
        <ele>1243.148385</ele>
        <time>2021-07-08T13:02:52+0200</time>
      </trkpt>
      <trkpt lat="45.14274" lon="2.86321">
        <ele>1243.214603</ele>
        <time>2021-07-08T13:02:56+0200</time>
      </trkpt>
      <trkpt lat="45.1427" lon="2.86315">
        <ele>1243.96372</ele>
        <time>2021-07-08T13:02:59+0200</time>
      </trkpt>
      <trkpt lat="45.14267" lon="2.86308">
        <ele>1244.768344</ele>
        <time>2021-07-08T13:03:02+0200</time>
      </trkpt>
      <trkpt lat="45.14264" lon="2.86302">
        <ele>1243.739072</ele>
        <time>2021-07-08T13:03:05+0200</time>
      </trkpt>
      <trkpt lat="45.14259" lon="2.86296">
        <ele>1243.483978</ele>
        <time>2021-07-08T13:03:08+0200</time>
      </trkpt>
      <trkpt lat="45.14254" lon="2.86291">
        <ele>1243.231415</ele>
        <time>2021-07-08T13:03:11+0200</time>
      </trkpt>
      <trkpt lat="45.1425" lon="2.86287">
        <ele>1242.51003</ele>
        <time>2021-07-08T13:03:13+0200</time>
      </trkpt>
      <trkpt lat="45.14245" lon="2.86283">
        <ele>1241.510772</ele>
        <time>2021-07-08T13:03:16+0200</time>
      </trkpt>
      <trkpt lat="45.14241" lon="2.8628">
        <ele>1241.044893</ele>
        <time>2021-07-08T13:03:18+0200</time>
      </trkpt>
      <trkpt lat="45.14237" lon="2.86278">
        <ele>1240.23494</ele>
        <time>2021-07-08T13:03:22+0200</time>
      </trkpt>
      <trkpt lat="45.14231" lon="2.86273">
        <ele>1239.510407</ele>
        <time>2021-07-08T13:03:25+0200</time>
      </trkpt>
      <trkpt lat="45.14226" lon="2.8627">
        <ele>1238.8111</ele>
        <time>2021-07-08T13:03:27+0200</time>
      </trkpt>
      <trkpt lat="45.1422" lon="2.86268">
        <ele>1238.461325</ele>
        <time>2021-07-08T13:03:29+0200</time>
      </trkpt>
      <trkpt lat="45.14212" lon="2.86265">
        <ele>1237.526101</ele>
        <time>2021-07-08T13:03:31+0200</time>
      </trkpt>
      <trkpt lat="45.14205" lon="2.86257">
        <ele>1237.482659</ele>
        <time>2021-07-08T13:03:33+0200</time>
      </trkpt>
      <trkpt lat="45.14199" lon="2.8625">
        <ele>1237.355452</ele>
        <time>2021-07-08T13:03:35+0200</time>
      </trkpt>
      <trkpt lat="45.14194" lon="2.86242">
        <ele>1237.519361</ele>
        <time>2021-07-08T13:03:38+0200</time>
      </trkpt>
      <trkpt lat="45.1419" lon="2.86235">
        <ele>1237.90546</ele>
        <time>2021-07-08T13:03:40+0200</time>
      </trkpt>
      <trkpt lat="45.14185" lon="2.86229">
        <ele>1238.761804</ele>
        <time>2021-07-08T13:03:42+0200</time>
      </trkpt>
      <trkpt lat="45.14181" lon="2.86222">
        <ele>1239.52967</ele>
        <time>2021-07-08T13:03:43+0200</time>
      </trkpt>
      <trkpt lat="45.14178" lon="2.86215">
        <ele>1240.10773</ele>
        <time>2021-07-08T13:03:45+0200</time>
      </trkpt>
      <trkpt lat="45.14175" lon="2.86208">
        <ele>1239.942254</ele>
        <time>2021-07-08T13:03:47+0200</time>
      </trkpt>
      <trkpt lat="45.14172" lon="2.862">
        <ele>1239.022166</ele>
        <time>2021-07-08T13:03:49+0200</time>
      </trkpt>
      <trkpt lat="45.14169" lon="2.86194">
        <ele>1238.498926</ele>
        <time>2021-07-08T13:03:51+0200</time>
      </trkpt>
      <trkpt lat="45.14165" lon="2.86187">
        <ele>1238.695775</ele>
        <time>2021-07-08T13:03:54+0200</time>
      </trkpt>
      <trkpt lat="45.14161" lon="2.86179">
        <ele>1238.384154</ele>
        <time>2021-07-08T13:03:56+0200</time>
      </trkpt>
      <trkpt lat="45.14156" lon="2.86171">
        <ele>1238.104096</ele>
        <time>2021-07-08T13:03:58+0200</time>
      </trkpt>
      <trkpt lat="45.1415" lon="2.86162">
        <ele>1236.944154</ele>
        <time>2021-07-08T13:04:00+0200</time>
      </trkpt>
      <trkpt lat="45.14147" lon="2.86157">
        <ele>1236.272401</ele>
        <time>2021-07-08T13:04:01+0200</time>
      </trkpt>
      <trkpt lat="45.14144" lon="2.86152">
        <ele>1235.89933</ele>
        <time>2021-07-08T13:04:02+0200</time>
      </trkpt>
      <trkpt lat="45.1414" lon="2.86146">
        <ele>1235.207726</ele>
        <time>2021-07-08T13:04:03+0200</time>
      </trkpt>
      <trkpt lat="45.14136" lon="2.86141">
        <ele>1234.725412</ele>
        <time>2021-07-08T13:04:04+0200</time>
      </trkpt>
      <trkpt lat="45.14133" lon="2.86136">
        <ele>1234.481998</ele>
        <time>2021-07-08T13:04:05+0200</time>
      </trkpt>
      <trkpt lat="45.14127" lon="2.86127">
        <ele>1233.96793</ele>
        <time>2021-07-08T13:04:07+0200</time>
      </trkpt>
      <trkpt lat="45.14122" lon="2.86118">
        <ele>1233.066743</ele>
        <time>2021-07-08T13:04:09+0200</time>
      </trkpt>
      <trkpt lat="45.14117" lon="2.86114">
        <ele>1233.009982</ele>
        <time>2021-07-08T13:04:11+0200</time>
      </trkpt>
      <trkpt lat="45.14113" lon="2.86109">
        <ele>1232.495583</ele>
        <time>2021-07-08T13:04:13+0200</time>
      </trkpt>
      <trkpt lat="45.14109" lon="2.86104">
        <ele>1232.699343</ele>
        <time>2021-07-08T13:04:15+0200</time>
      </trkpt>
      <trkpt lat="45.14105" lon="2.861">
        <ele>1233.647001</ele>
        <time>2021-07-08T13:04:17+0200</time>
      </trkpt>
      <trkpt lat="45.14099" lon="2.86095">
        <ele>1233.769524</ele>
        <time>2021-07-08T13:04:19+0200</time>
      </trkpt>
      <trkpt lat="45.14096" lon="2.8609">
        <ele>1233.942049</ele>
        <time>2021-07-08T13:04:21+0200</time>
      </trkpt>
      <trkpt lat="45.14092" lon="2.86085">
        <ele>1234.499389</ele>
        <time>2021-07-08T13:04:23+0200</time>
      </trkpt>
      <trkpt lat="45.14087" lon="2.86081">
        <ele>1234.983707</ele>
        <time>2021-07-08T13:04:25+0200</time>
      </trkpt>
      <trkpt lat="45.14083" lon="2.86075">
        <ele>1234.901406</ele>
        <time>2021-07-08T13:04:27+0200</time>
      </trkpt>
      <trkpt lat="45.1408" lon="2.8607">
        <ele>1234.566123</ele>
        <time>2021-07-08T13:04:29+0200</time>
      </trkpt>
      <trkpt lat="45.14075" lon="2.86064">
        <ele>1234.649267</ele>
        <time>2021-07-08T13:04:32+0200</time>
      </trkpt>
      <trkpt lat="45.14071" lon="2.8606">
        <ele>1234.918408</ele>
        <time>2021-07-08T13:04:34+0200</time>
      </trkpt>
      <trkpt lat="45.14068" lon="2.86054">
        <ele>1235.119794</ele>
        <time>2021-07-08T13:04:36+0200</time>
      </trkpt>
      <trkpt lat="45.14064" lon="2.86049">
        <ele>1235.021232</ele>
        <time>2021-07-08T13:04:38+0200</time>
      </trkpt>
      <trkpt lat="45.14061" lon="2.86044">
        <ele>1235.345328</ele>
        <time>2021-07-08T13:04:40+0200</time>
      </trkpt>
      <trkpt lat="45.14056" lon="2.86036">
        <ele>1235.284507</ele>
        <time>2021-07-08T13:04:43+0200</time>
      </trkpt>
      <trkpt lat="45.14052" lon="2.86029">
        <ele>1235.674087</ele>
        <time>2021-07-08T13:04:47+0200</time>
      </trkpt>
      <trkpt lat="45.14049" lon="2.86022">
        <ele>1235.5428</ele>
        <time>2021-07-08T13:04:49+0200</time>
      </trkpt>
      <trkpt lat="45.14049" lon="2.86014">
        <ele>1236.788337</ele>
        <time>2021-07-08T13:04:52+0200</time>
      </trkpt>
      <trkpt lat="45.1405" lon="2.86007">
        <ele>1238.703505</ele>
        <time>2021-07-08T13:04:55+0200</time>
      </trkpt>
      <trkpt lat="45.14051" lon="2.85999">
        <ele>1239.318318</ele>
        <time>2021-07-08T13:04:58+0200</time>
      </trkpt>
      <trkpt lat="45.14052" lon="2.85991">
        <ele>1238.81973</ele>
        <time>2021-07-08T13:05:01+0200</time>
      </trkpt>
      <trkpt lat="45.14052" lon="2.85984">
        <ele>1239.062994</ele>
        <time>2021-07-08T13:05:03+0200</time>
      </trkpt>
      <trkpt lat="45.14053" lon="2.85978">
        <ele>1239.2394</ele>
        <time>2021-07-08T13:05:05+0200</time>
      </trkpt>
      <trkpt lat="45.14055" lon="2.8597">
        <ele>1240.074294</ele>
        <time>2021-07-08T13:05:07+0200</time>
      </trkpt>
      <trkpt lat="45.14057" lon="2.85962">
        <ele>1239.525293</ele>
        <time>2021-07-08T13:05:09+0200</time>
      </trkpt>
      <trkpt lat="45.1406" lon="2.85952">
        <ele>1238.741558</ele>
        <time>2021-07-08T13:05:11+0200</time>
      </trkpt>
      <trkpt lat="45.14061" lon="2.85943">
        <ele>1238.051275</ele>
        <time>2021-07-08T13:05:13+0200</time>
      </trkpt>
      <trkpt lat="45.14064" lon="2.8593">
        <ele>1236.000508</ele>
        <time>2021-07-08T13:05:15+0200</time>
      </trkpt>
      <trkpt lat="45.14066" lon="2.85918">
        <ele>1235.112429</ele>
        <time>2021-07-08T13:05:17+0200</time>
      </trkpt>
      <trkpt lat="45.14067" lon="2.85906">
        <ele>1233.741227</ele>
        <time>2021-07-08T13:05:19+0200</time>
      </trkpt>
      <trkpt lat="45.1407" lon="2.85894">
        <ele>1232.771123</ele>
        <time>2021-07-08T13:05:21+0200</time>
      </trkpt>
      <trkpt lat="45.14071" lon="2.85887">
        <ele>1232.018098</ele>
        <time>2021-07-08T13:05:22+0200</time>
      </trkpt>
      <trkpt lat="45.14072" lon="2.85881">
        <ele>1231.892831</ele>
        <time>2021-07-08T13:05:23+0200</time>
      </trkpt>
      <trkpt lat="45.14075" lon="2.85869">
        <ele>1231.653294</ele>
        <time>2021-07-08T13:05:25+0200</time>
      </trkpt>
      <trkpt lat="45.14077" lon="2.85862">
        <ele>1230.936839</ele>
        <time>2021-07-08T13:05:26+0200</time>
      </trkpt>
      <trkpt lat="45.14078" lon="2.85856">
        <ele>1230.540373</ele>
        <time>2021-07-08T13:05:27+0200</time>
      </trkpt>
      <trkpt lat="45.14079" lon="2.85849">
        <ele>1230.107975</ele>
        <time>2021-07-08T13:05:28+0200</time>
      </trkpt>
      <trkpt lat="45.14082" lon="2.85837">
        <ele>1229.29129</ele>
        <time>2021-07-08T13:05:30+0200</time>
      </trkpt>
      <trkpt lat="45.14084" lon="2.85827">
        <ele>1229.580735</ele>
        <time>2021-07-08T13:05:32+0200</time>
      </trkpt>
      <trkpt lat="45.14086" lon="2.85816">
        <ele>1228.97204</ele>
        <time>2021-07-08T13:05:34+0200</time>
      </trkpt>
      <trkpt lat="45.14089" lon="2.85805">
        <ele>1228.830911</ele>
        <time>2021-07-08T13:05:36+0200</time>
      </trkpt>
      <trkpt lat="45.14091" lon="2.85795">
        <ele>1228.180614</ele>
        <time>2021-07-08T13:05:38+0200</time>
      </trkpt>
      <trkpt lat="45.14093" lon="2.85783">
        <ele>1227.371935</ele>
        <time>2021-07-08T13:05:40+0200</time>
      </trkpt>
      <trkpt lat="45.14095" lon="2.85777">
        <ele>1226.916901</ele>
        <time>2021-07-08T13:05:41+0200</time>
      </trkpt>
      <trkpt lat="45.14099" lon="2.85765">
        <ele>1224.649544</ele>
        <time>2021-07-08T13:05:44+0200</time>
      </trkpt>
      <trkpt lat="45.14102" lon="2.85759">
        <ele>1224.07194</ele>
        <time>2021-07-08T13:05:45+0200</time>
      </trkpt>
      <trkpt lat="45.14106" lon="2.85753">
        <ele>1223.631618</ele>
        <time>2021-07-08T13:05:46+0200</time>
      </trkpt>
      <trkpt lat="45.14109" lon="2.85747">
        <ele>1223.579008</ele>
        <time>2021-07-08T13:05:47+0200</time>
      </trkpt>
      <trkpt lat="45.14114" lon="2.85742">
        <ele>1223.675632</ele>
        <time>2021-07-08T13:05:48+0200</time>
      </trkpt>
      <trkpt lat="45.14118" lon="2.85737">
        <ele>1222.879247</ele>
        <time>2021-07-08T13:05:49+0200</time>
      </trkpt>
      <trkpt lat="45.14122" lon="2.85732">
        <ele>1222.496554</ele>
        <time>2021-07-08T13:05:50+0200</time>
      </trkpt>
      <trkpt lat="45.14125" lon="2.85725">
        <ele>1221.359647</ele>
        <time>2021-07-08T13:05:51+0200</time>
      </trkpt>
      <trkpt lat="45.14125" lon="2.85714">
        <ele>1221.237587</ele>
        <time>2021-07-08T13:05:53+0200</time>
      </trkpt>
      <trkpt lat="45.14127" lon="2.85705">
        <ele>1219.963539</ele>
        <time>2021-07-08T13:05:55+0200</time>
      </trkpt>
      <trkpt lat="45.14129" lon="2.85698">
        <ele>1220.059157</ele>
        <time>2021-07-08T13:05:56+0200</time>
      </trkpt>
      <trkpt lat="45.1413" lon="2.8569">
        <ele>1219.733948</ele>
        <time>2021-07-08T13:05:58+0200</time>
      </trkpt>
      <trkpt lat="45.14129" lon="2.85683">
        <ele>1219.658071</ele>
        <time>2021-07-08T13:06:00+0200</time>
      </trkpt>
      <trkpt lat="45.14127" lon="2.85676">
        <ele>1219.655729</ele>
        <time>2021-07-08T13:06:03+0200</time>
      </trkpt>
      <trkpt lat="45.14128" lon="2.8567">
        <ele>1220.192622</ele>
        <time>2021-07-08T13:06:05+0200</time>
      </trkpt>
      <trkpt lat="45.14131" lon="2.85662">
        <ele>1220.782584</ele>
        <time>2021-07-08T13:06:08+0200</time>
      </trkpt>
      <trkpt lat="45.14134" lon="2.85655">
        <ele>1221.99549</ele>
        <time>2021-07-08T13:06:10+0200</time>
      </trkpt>
      <trkpt lat="45.14137" lon="2.85649">
        <ele>1222.920928</ele>
        <time>2021-07-08T13:06:12+0200</time>
      </trkpt>
      <trkpt lat="45.1414" lon="2.85642">
        <ele>1222.572211</ele>
        <time>2021-07-08T13:06:14+0200</time>
      </trkpt>
      <trkpt lat="45.14142" lon="2.85636">
        <ele>1221.966728</ele>
        <time>2021-07-08T13:06:16+0200</time>
      </trkpt>
      <trkpt lat="45.14145" lon="2.85631">
        <ele>1222.457855</ele>
        <time>2021-07-08T13:06:18+0200</time>
      </trkpt>
      <trkpt lat="45.14148" lon="2.85625">
        <ele>1221.575148</ele>
        <time>2021-07-08T13:06:21+0200</time>
      </trkpt>
      <trkpt lat="45.14146" lon="2.85619">
        <ele>1219.167882</ele>
        <time>2021-07-08T13:06:30+0200</time>
      </trkpt>
      <trkpt lat="45.14147" lon="2.85611">
        <ele>1218.234085</ele>
        <time>2021-07-08T13:07:10+0200</time>
      </trkpt>
      <trkpt lat="45.14148" lon="2.85604">
        <ele>1218.62197</ele>
        <time>2021-07-08T13:07:13+0200</time>
      </trkpt>
      <trkpt lat="45.14149" lon="2.85598">
        <ele>1219.770832</ele>
        <time>2021-07-08T13:07:15+0200</time>
      </trkpt>
      <trkpt lat="45.14149" lon="2.8559">
        <ele>1219.928251</ele>
        <time>2021-07-08T13:07:17+0200</time>
      </trkpt>
      <trkpt lat="45.1415" lon="2.85581">
        <ele>1219.861456</ele>
        <time>2021-07-08T13:07:19+0200</time>
      </trkpt>
      <trkpt lat="45.14151" lon="2.85573">
        <ele>1220.027344</ele>
        <time>2021-07-08T13:07:21+0200</time>
      </trkpt>
      <trkpt lat="45.14152" lon="2.85564">
        <ele>1220.298605</ele>
        <time>2021-07-08T13:07:23+0200</time>
      </trkpt>
      <trkpt lat="45.14153" lon="2.85556">
        <ele>1220.784476</ele>
        <time>2021-07-08T13:07:25+0200</time>
      </trkpt>
      <trkpt lat="45.14153" lon="2.85547">
        <ele>1221.19546</ele>
        <time>2021-07-08T13:07:27+0200</time>
      </trkpt>
      <trkpt lat="45.14154" lon="2.8554">
        <ele>1222.206305</ele>
        <time>2021-07-08T13:07:28+0200</time>
      </trkpt>
      <trkpt lat="45.14153" lon="2.85532">
        <ele>1221.617205</ele>
        <time>2021-07-08T13:07:30+0200</time>
      </trkpt>
      <trkpt lat="45.14151" lon="2.85524">
        <ele>1221.532952</ele>
        <time>2021-07-08T13:07:32+0200</time>
      </trkpt>
      <trkpt lat="45.1415" lon="2.85516">
        <ele>1221.674016</ele>
        <time>2021-07-08T13:07:34+0200</time>
      </trkpt>
      <trkpt lat="45.14148" lon="2.85507">
        <ele>1221.250409</ele>
        <time>2021-07-08T13:07:36+0200</time>
      </trkpt>
      <trkpt lat="45.14147" lon="2.85499">
        <ele>1220.920009</ele>
        <time>2021-07-08T13:07:38+0200</time>
      </trkpt>
      <trkpt lat="45.14145" lon="2.8549">
        <ele>1220.595956</ele>
        <time>2021-07-08T13:07:40+0200</time>
      </trkpt>
      <trkpt lat="45.14143" lon="2.85483">
        <ele>1220.182806</ele>
        <time>2021-07-08T13:07:42+0200</time>
      </trkpt>
      <trkpt lat="45.1414" lon="2.85475">
        <ele>1220.229722</ele>
        <time>2021-07-08T13:07:44+0200</time>
      </trkpt>
      <trkpt lat="45.14138" lon="2.85466">
        <ele>1219.31623</ele>
        <time>2021-07-08T13:07:46+0200</time>
      </trkpt>
      <trkpt lat="45.14135" lon="2.85458">
        <ele>1218.760253</ele>
        <time>2021-07-08T13:07:49+0200</time>
      </trkpt>
      <trkpt lat="45.14133" lon="2.85451">
        <ele>1218.248753</ele>
        <time>2021-07-08T13:07:51+0200</time>
      </trkpt>
      <trkpt lat="45.14131" lon="2.85443">
        <ele>1218.481822</ele>
        <time>2021-07-08T13:07:53+0200</time>
      </trkpt>
      <trkpt lat="45.14127" lon="2.85437">
        <ele>1218.652261</ele>
        <time>2021-07-08T13:07:55+0200</time>
      </trkpt>
      <trkpt lat="45.14123" lon="2.85431">
        <ele>1218.581825</ele>
        <time>2021-07-08T13:07:57+0200</time>
      </trkpt>
      <trkpt lat="45.14119" lon="2.85426">
        <ele>1219.346555</ele>
        <time>2021-07-08T13:07:58+0200</time>
      </trkpt>
      <trkpt lat="45.14114" lon="2.85423">
        <ele>1219.524204</ele>
        <time>2021-07-08T13:08:01+0200</time>
      </trkpt>
      <trkpt lat="45.1411" lon="2.85415">
        <ele>1219.799779</ele>
        <time>2021-07-08T13:08:04+0200</time>
      </trkpt>
      <trkpt lat="45.14109" lon="2.85408">
        <ele>1219.664944</ele>
        <time>2021-07-08T13:08:06+0200</time>
      </trkpt>
      <trkpt lat="45.14107" lon="2.85398">
        <ele>1219.296008</ele>
        <time>2021-07-08T13:08:08+0200</time>
      </trkpt>
      <trkpt lat="45.14103" lon="2.85389">
        <ele>1218.500493</ele>
        <time>2021-07-08T13:08:10+0200</time>
      </trkpt>
      <trkpt lat="45.141" lon="2.85382">
        <ele>1217.845227</ele>
        <time>2021-07-08T13:08:12+0200</time>
      </trkpt>
      <trkpt lat="45.14097" lon="2.85373">
        <ele>1217.88285</ele>
        <time>2021-07-08T13:08:14+0200</time>
      </trkpt>
      <trkpt lat="45.14093" lon="2.85365">
        <ele>1218.019652</ele>
        <time>2021-07-08T13:08:16+0200</time>
      </trkpt>
      <trkpt lat="45.14088" lon="2.85359">
        <ele>1218.542806</ele>
        <time>2021-07-08T13:08:18+0200</time>
      </trkpt>
      <trkpt lat="45.14084" lon="2.85355">
        <ele>1219.506722</ele>
        <time>2021-07-08T13:08:20+0200</time>
      </trkpt>
      <trkpt lat="45.14079" lon="2.85355">
        <ele>1218.901757</ele>
        <time>2021-07-08T13:08:23+0200</time>
      </trkpt>
      <trkpt lat="45.14076" lon="2.85347">
        <ele>1216.290395</ele>
        <time>2021-07-08T13:08:37+0200</time>
      </trkpt>
      <trkpt lat="45.14072" lon="2.85343">
        <ele>1215.936664</ele>
        <time>2021-07-08T13:09:21+0200</time>
      </trkpt>
      <trkpt lat="45.14067" lon="2.85336">
        <ele>1215.353304</ele>
        <time>2021-07-08T13:09:23+0200</time>
      </trkpt>
      <trkpt lat="45.14061" lon="2.85329">
        <ele>1214.700358</ele>
        <time>2021-07-08T13:09:25+0200</time>
      </trkpt>
      <trkpt lat="45.14055" lon="2.85326">
        <ele>1215.287604</ele>
        <time>2021-07-08T13:09:26+0200</time>
      </trkpt>
      <trkpt lat="45.14048" lon="2.85324">
        <ele>1214.624429</ele>
        <time>2021-07-08T13:09:27+0200</time>
      </trkpt>
      <trkpt lat="45.14041" lon="2.85323">
        <ele>1213.519682</ele>
        <time>2021-07-08T13:09:28+0200</time>
      </trkpt>
      <trkpt lat="45.14036" lon="2.85323">
        <ele>1212.965843</ele>
        <time>2021-07-08T13:09:29+0200</time>
      </trkpt>
      <trkpt lat="45.14031" lon="2.85325">
        <ele>1213.030917</ele>
        <time>2021-07-08T13:09:30+0200</time>
      </trkpt>
      <trkpt lat="45.14026" lon="2.85327">
        <ele>1212.530136</ele>
        <time>2021-07-08T13:09:31+0200</time>
      </trkpt>
      <trkpt lat="45.1402" lon="2.85327">
        <ele>1212.203198</ele>
        <time>2021-07-08T13:09:32+0200</time>
      </trkpt>
      <trkpt lat="45.14014" lon="2.85328">
        <ele>1211.662304</ele>
        <time>2021-07-08T13:09:33+0200</time>
      </trkpt>
      <trkpt lat="45.14008" lon="2.85331">
        <ele>1211.134426</ele>
        <time>2021-07-08T13:09:34+0200</time>
      </trkpt>
      <trkpt lat="45.14001" lon="2.85335">
        <ele>1209.956521</ele>
        <time>2021-07-08T13:09:35+0200</time>
      </trkpt>
      <trkpt lat="45.13995" lon="2.85338">
        <ele>1209.635456</ele>
        <time>2021-07-08T13:09:36+0200</time>
      </trkpt>
      <trkpt lat="45.13989" lon="2.8534">
        <ele>1209.864542</ele>
        <time>2021-07-08T13:09:37+0200</time>
      </trkpt>
      <trkpt lat="45.13982" lon="2.85338">
        <ele>1210.41087</ele>
        <time>2021-07-08T13:09:38+0200</time>
      </trkpt>
      <trkpt lat="45.13974" lon="2.85337">
        <ele>1209.891612</ele>
        <time>2021-07-08T13:09:39+0200</time>
      </trkpt>
      <trkpt lat="45.13967" lon="2.85338">
        <ele>1210.28173</ele>
        <time>2021-07-08T13:09:40+0200</time>
      </trkpt>
      <trkpt lat="45.13962" lon="2.85342">
        <ele>1208.818566</ele>
        <time>2021-07-08T13:09:41+0200</time>
      </trkpt>
      <trkpt lat="45.13956" lon="2.85346">
        <ele>1207.546858</ele>
        <time>2021-07-08T13:09:43+0200</time>
      </trkpt>
      <trkpt lat="45.13955" lon="2.85338">
        <ele>1207.128652</ele>
        <time>2021-07-08T13:09:45+0200</time>
      </trkpt>
      <trkpt lat="45.13958" lon="2.85334">
        <ele>1208.141366</ele>
        <time>2021-07-08T13:09:46+0200</time>
      </trkpt>
      <trkpt lat="45.13963" lon="2.85331">
        <ele>1208.964152</ele>
        <time>2021-07-08T13:09:47+0200</time>
      </trkpt>
      <trkpt lat="45.1397" lon="2.85326">
        <ele>1208.488738</ele>
        <time>2021-07-08T13:09:49+0200</time>
      </trkpt>
      <trkpt lat="45.13975" lon="2.85324">
        <ele>1208.630565</ele>
        <time>2021-07-08T13:09:50+0200</time>
      </trkpt>
      <trkpt lat="45.13979" lon="2.85321">
        <ele>1208.203511</ele>
        <time>2021-07-08T13:09:51+0200</time>
      </trkpt>
      <trkpt lat="45.13984" lon="2.85319">
        <ele>1209.010661</ele>
        <time>2021-07-08T13:09:52+0200</time>
      </trkpt>
      <trkpt lat="45.13988" lon="2.85314">
        <ele>1209.529645</ele>
        <time>2021-07-08T13:09:53+0200</time>
      </trkpt>
      <trkpt lat="45.13991" lon="2.85309">
        <ele>1209.591213</ele>
        <time>2021-07-08T13:09:54+0200</time>
      </trkpt>
      <trkpt lat="45.13995" lon="2.85305">
        <ele>1209.955648</ele>
        <time>2021-07-08T13:09:55+0200</time>
      </trkpt>
      <trkpt lat="45.13997" lon="2.85296">
        <ele>1209.469523</ele>
        <time>2021-07-08T13:09:56+0200</time>
      </trkpt>
      <trkpt lat="45.13998" lon="2.85288">
        <ele>1208.684457</ele>
        <time>2021-07-08T13:09:57+0200</time>
      </trkpt>
      <trkpt lat="45.13998" lon="2.8528">
        <ele>1207.098648</ele>
        <time>2021-07-08T13:09:58+0200</time>
      </trkpt>
      <trkpt lat="45.13998" lon="2.8527">
        <ele>1206.439146</ele>
        <time>2021-07-08T13:09:59+0200</time>
      </trkpt>
      <trkpt lat="45.13999" lon="2.85259">
        <ele>1205.631746</ele>
        <time>2021-07-08T13:10:00+0200</time>
      </trkpt>
      <trkpt lat="45.14001" lon="2.8525">
        <ele>1205.316362</ele>
        <time>2021-07-08T13:10:01+0200</time>
      </trkpt>
      <trkpt lat="45.14002" lon="2.85239">
        <ele>1204.56216</ele>
        <time>2021-07-08T13:10:02+0200</time>
      </trkpt>
      <trkpt lat="45.14003" lon="2.85231">
        <ele>1203.798811</ele>
        <time>2021-07-08T13:10:03+0200</time>
      </trkpt>
      <trkpt lat="45.14003" lon="2.85224">
        <ele>1202.963266</ele>
        <time>2021-07-08T13:10:04+0200</time>
      </trkpt>
      <trkpt lat="45.13998" lon="2.85214">
        <ele>1200.93555</ele>
        <time>2021-07-08T13:10:06+0200</time>
      </trkpt>
      <trkpt lat="45.13991" lon="2.85211">
        <ele>1200.333685</ele>
        <time>2021-07-08T13:10:08+0200</time>
      </trkpt>
      <trkpt lat="45.13982" lon="2.85217">
        <ele>1199.463964</ele>
        <time>2021-07-08T13:10:10+0200</time>
      </trkpt>
      <trkpt lat="45.13977" lon="2.85223">
        <ele>1198.661772</ele>
        <time>2021-07-08T13:10:11+0200</time>
      </trkpt>
      <trkpt lat="45.13972" lon="2.8523">
        <ele>1197.76293</ele>
        <time>2021-07-08T13:10:12+0200</time>
      </trkpt>
      <trkpt lat="45.13964" lon="2.85236">
        <ele>1196.995462</ele>
        <time>2021-07-08T13:10:13+0200</time>
      </trkpt>
      <trkpt lat="45.13956" lon="2.85239">
        <ele>1195.310395</ele>
        <time>2021-07-08T13:10:14+0200</time>
      </trkpt>
      <trkpt lat="45.13948" lon="2.85241">
        <ele>1194.027918</ele>
        <time>2021-07-08T13:10:15+0200</time>
      </trkpt>
      <trkpt lat="45.1394" lon="2.85243">
        <ele>1192.851901</ele>
        <time>2021-07-08T13:10:16+0200</time>
      </trkpt>
      <trkpt lat="45.1393" lon="2.85243">
        <ele>1192.111427</ele>
        <time>2021-07-08T13:10:17+0200</time>
      </trkpt>
      <trkpt lat="45.13921" lon="2.85247">
        <ele>1189.983027</ele>
        <time>2021-07-08T13:10:18+0200</time>
      </trkpt>
      <trkpt lat="45.13912" lon="2.85252">
        <ele>1188.14553</ele>
        <time>2021-07-08T13:10:19+0200</time>
      </trkpt>
      <trkpt lat="45.13902" lon="2.85258">
        <ele>1186.200819</ele>
        <time>2021-07-08T13:10:20+0200</time>
      </trkpt>
      <trkpt lat="45.13893" lon="2.85265">
        <ele>1184.432773</ele>
        <time>2021-07-08T13:10:21+0200</time>
      </trkpt>
      <trkpt lat="45.13884" lon="2.85271">
        <ele>1181.69995</ele>
        <time>2021-07-08T13:10:22+0200</time>
      </trkpt>
      <trkpt lat="45.13875" lon="2.85279">
        <ele>1180.106399</ele>
        <time>2021-07-08T13:10:23+0200</time>
      </trkpt>
      <trkpt lat="45.13865" lon="2.85286">
        <ele>1178.104441</ele>
        <time>2021-07-08T13:10:24+0200</time>
      </trkpt>
      <trkpt lat="45.13856" lon="2.85294">
        <ele>1176.401771</ele>
        <time>2021-07-08T13:10:25+0200</time>
      </trkpt>
      <trkpt lat="45.13848" lon="2.85302">
        <ele>1174.551329</ele>
        <time>2021-07-08T13:10:26+0200</time>
      </trkpt>
      <trkpt lat="45.13841" lon="2.85308">
        <ele>1173.213201</ele>
        <time>2021-07-08T13:10:27+0200</time>
      </trkpt>
      <trkpt lat="45.13835" lon="2.85314">
        <ele>1171.603666</ele>
        <time>2021-07-08T13:10:28+0200</time>
      </trkpt>
      <trkpt lat="45.13829" lon="2.85316">
        <ele>1170.323365</ele>
        <time>2021-07-08T13:10:29+0200</time>
      </trkpt>
      <trkpt lat="45.13824" lon="2.85314">
        <ele>1169.074225</ele>
        <time>2021-07-08T13:10:31+0200</time>
      </trkpt>
      <trkpt lat="45.13821" lon="2.85307">
        <ele>1171.24251</ele>
        <time>2021-07-08T13:10:33+0200</time>
      </trkpt>
      <trkpt lat="45.13823" lon="2.85297">
        <ele>1171.057322</ele>
        <time>2021-07-08T13:10:35+0200</time>
      </trkpt>
      <trkpt lat="45.13823" lon="2.85289">
        <ele>1170.289344</ele>
        <time>2021-07-08T13:10:37+0200</time>
      </trkpt>
      <trkpt lat="45.13821" lon="2.85278">
        <ele>1169.724152</ele>
        <time>2021-07-08T13:10:39+0200</time>
      </trkpt>
      <trkpt lat="45.1382" lon="2.85271">
        <ele>1168.798476</ele>
        <time>2021-07-08T13:10:40+0200</time>
      </trkpt>
      <trkpt lat="45.13817" lon="2.85261">
        <ele>1167.600926</ele>
        <time>2021-07-08T13:10:41+0200</time>
      </trkpt>
      <trkpt lat="45.13814" lon="2.85254">
        <ele>1165.801065</ele>
        <time>2021-07-08T13:10:42+0200</time>
      </trkpt>
      <trkpt lat="45.1381" lon="2.85247">
        <ele>1164.358368</ele>
        <time>2021-07-08T13:10:43+0200</time>
      </trkpt>
      <trkpt lat="45.13806" lon="2.8524">
        <ele>1162.484546</ele>
        <time>2021-07-08T13:10:44+0200</time>
      </trkpt>
      <trkpt lat="45.13801" lon="2.85231">
        <ele>1161.210169</ele>
        <time>2021-07-08T13:10:45+0200</time>
      </trkpt>
      <trkpt lat="45.13794" lon="2.85222">
        <ele>1160.599192</ele>
        <time>2021-07-08T13:10:46+0200</time>
      </trkpt>
      <trkpt lat="45.13789" lon="2.85212">
        <ele>1159.21102</ele>
        <time>2021-07-08T13:10:47+0200</time>
      </trkpt>
      <trkpt lat="45.13782" lon="2.85201">
        <ele>1157.78874</ele>
        <time>2021-07-08T13:10:48+0200</time>
      </trkpt>
      <trkpt lat="45.13776" lon="2.8519">
        <ele>1156.479542</ele>
        <time>2021-07-08T13:10:49+0200</time>
      </trkpt>
      <trkpt lat="45.13769" lon="2.85179">
        <ele>1155.35547</ele>
        <time>2021-07-08T13:10:50+0200</time>
      </trkpt>
      <trkpt lat="45.13764" lon="2.85167">
        <ele>1154.176662</ele>
        <time>2021-07-08T13:10:51+0200</time>
      </trkpt>
      <trkpt lat="45.1376" lon="2.85153">
        <ele>1152.882772</ele>
        <time>2021-07-08T13:10:52+0200</time>
      </trkpt>
      <trkpt lat="45.13758" lon="2.85139">
        <ele>1152.73039</ele>
        <time>2021-07-08T13:10:53+0200</time>
      </trkpt>
      <trkpt lat="45.13758" lon="2.85127">
        <ele>1152.935003</ele>
        <time>2021-07-08T13:10:54+0200</time>
      </trkpt>
      <trkpt lat="45.13759" lon="2.85115">
        <ele>1154.491147</ele>
        <time>2021-07-08T13:10:55+0200</time>
      </trkpt>
      <trkpt lat="45.13757" lon="2.85104">
        <ele>1154.318588</ele>
        <time>2021-07-08T13:10:56+0200</time>
      </trkpt>
      <trkpt lat="45.13757" lon="2.85094">
        <ele>1155.644654</ele>
        <time>2021-07-08T13:10:57+0200</time>
      </trkpt>
      <trkpt lat="45.13757" lon="2.85084">
        <ele>1156.139567</ele>
        <time>2021-07-08T13:10:58+0200</time>
      </trkpt>
      <trkpt lat="45.13757" lon="2.85075">
        <ele>1155.217711</ele>
        <time>2021-07-08T13:10:59+0200</time>
      </trkpt>
      <trkpt lat="45.13756" lon="2.85066">
        <ele>1155.329966</ele>
        <time>2021-07-08T13:11:00+0200</time>
      </trkpt>
      <trkpt lat="45.13756" lon="2.85056">
        <ele>1154.996778</ele>
        <time>2021-07-08T13:11:01+0200</time>
      </trkpt>
      <trkpt lat="45.13755" lon="2.85048">
        <ele>1155.233346</ele>
        <time>2021-07-08T13:11:02+0200</time>
      </trkpt>
      <trkpt lat="45.13751" lon="2.85042">
        <ele>1155.283845</ele>
        <time>2021-07-08T13:11:03+0200</time>
      </trkpt>
      <trkpt lat="45.13747" lon="2.85038">
        <ele>1155.524664</ele>
        <time>2021-07-08T13:11:04+0200</time>
      </trkpt>
      <trkpt lat="45.13739" lon="2.85033">
        <ele>1155.52321</ele>
        <time>2021-07-08T13:11:06+0200</time>
      </trkpt>
      <trkpt lat="45.13733" lon="2.85036">
        <ele>1155.075249</ele>
        <time>2021-07-08T13:11:08+0200</time>
      </trkpt>
      <trkpt lat="45.13727" lon="2.85034">
        <ele>1156.154861</ele>
        <time>2021-07-08T13:11:11+0200</time>
      </trkpt>
      <trkpt lat="45.13721" lon="2.85033">
        <ele>1156.8407</ele>
        <time>2021-07-08T13:11:14+0200</time>
      </trkpt>
      <trkpt lat="45.13716" lon="2.8503">
        <ele>1157.393493</ele>
        <time>2021-07-08T13:11:16+0200</time>
      </trkpt>
      <trkpt lat="45.13709" lon="2.85028">
        <ele>1158.368009</ele>
        <time>2021-07-08T13:11:19+0200</time>
      </trkpt>
      <trkpt lat="45.13704" lon="2.85026">
        <ele>1158.607892</ele>
        <time>2021-07-08T13:11:21+0200</time>
      </trkpt>
      <trkpt lat="45.13699" lon="2.85024">
        <ele>1158.033376</ele>
        <time>2021-07-08T13:11:23+0200</time>
      </trkpt>
      <trkpt lat="45.13694" lon="2.85022">
        <ele>1157.549109</ele>
        <time>2021-07-08T13:11:25+0200</time>
      </trkpt>
      <trkpt lat="45.13688" lon="2.8502">
        <ele>1157.388309</ele>
        <time>2021-07-08T13:11:27+0200</time>
      </trkpt>
      <trkpt lat="45.13682" lon="2.85018">
        <ele>1157.710568</ele>
        <time>2021-07-08T13:11:29+0200</time>
      </trkpt>
      <trkpt lat="45.13677" lon="2.85017">
        <ele>1158.103217</ele>
        <time>2021-07-08T13:11:31+0200</time>
      </trkpt>
      <trkpt lat="45.13671" lon="2.85017">
        <ele>1158.108594</ele>
        <time>2021-07-08T13:11:33+0200</time>
      </trkpt>
      <trkpt lat="45.13666" lon="2.85019">
        <ele>1157.863983</ele>
        <time>2021-07-08T13:11:35+0200</time>
      </trkpt>
      <trkpt lat="45.13659" lon="2.85017">
        <ele>1157.96369</ele>
        <time>2021-07-08T13:11:37+0200</time>
      </trkpt>
      <trkpt lat="45.13653" lon="2.85018">
        <ele>1157.777828</ele>
        <time>2021-07-08T13:11:39+0200</time>
      </trkpt>
      <trkpt lat="45.13647" lon="2.85019">
        <ele>1157.487713</ele>
        <time>2021-07-08T13:11:41+0200</time>
      </trkpt>
      <trkpt lat="45.1364" lon="2.8502">
        <ele>1157.598608</ele>
        <time>2021-07-08T13:11:43+0200</time>
      </trkpt>
      <trkpt lat="45.13633" lon="2.85022">
        <ele>1157.630521</ele>
        <time>2021-07-08T13:11:45+0200</time>
      </trkpt>
      <trkpt lat="45.13627" lon="2.85026">
        <ele>1158.097226</ele>
        <time>2021-07-08T13:11:47+0200</time>
      </trkpt>
      <trkpt lat="45.13621" lon="2.85027">
        <ele>1158.315115</ele>
        <time>2021-07-08T13:11:49+0200</time>
      </trkpt>
      <trkpt lat="45.13616" lon="2.85024">
        <ele>1158.691505</ele>
        <time>2021-07-08T13:11:51+0200</time>
      </trkpt>
      <trkpt lat="45.13616" lon="2.85017">
        <ele>1159.25831</ele>
        <time>2021-07-08T13:11:54+0200</time>
      </trkpt>
      <trkpt lat="45.13618" lon="2.85025">
        <ele>1162.748017</ele>
        <time>2021-07-08T13:12:06+0200</time>
      </trkpt>
      <trkpt lat="45.13618" lon="2.85033">
        <ele>1162.143488</ele>
        <time>2021-07-08T13:12:08+0200</time>
      </trkpt>
      <trkpt lat="45.13613" lon="2.85038">
        <ele>1162.564444</ele>
        <time>2021-07-08T13:12:10+0200</time>
      </trkpt>
      <trkpt lat="45.13605" lon="2.85042">
        <ele>1162.89952</ele>
        <time>2021-07-08T13:12:12+0200</time>
      </trkpt>
      <trkpt lat="45.13597" lon="2.85041">
        <ele>1162.052581</ele>
        <time>2021-07-08T13:12:14+0200</time>
      </trkpt>
      <trkpt lat="45.13593" lon="2.85039">
        <ele>1161.429127</ele>
        <time>2021-07-08T13:12:15+0200</time>
      </trkpt>
      <trkpt lat="45.13585" lon="2.85034">
        <ele>1160.466086</ele>
        <time>2021-07-08T13:12:17+0200</time>
      </trkpt>
      <trkpt lat="45.13576" lon="2.8503">
        <ele>1159.830141</ele>
        <time>2021-07-08T13:12:19+0200</time>
      </trkpt>
      <trkpt lat="45.13571" lon="2.85029">
        <ele>1159.685218</ele>
        <time>2021-07-08T13:12:20+0200</time>
      </trkpt>
      <trkpt lat="45.13566" lon="2.85028">
        <ele>1158.99384</ele>
        <time>2021-07-08T13:12:21+0200</time>
      </trkpt>
      <trkpt lat="45.13561" lon="2.85028">
        <ele>1159.058563</ele>
        <time>2021-07-08T13:12:23+0200</time>
      </trkpt>
      <trkpt lat="45.13556" lon="2.85027">
        <ele>1157.371717</ele>
        <time>2021-07-08T13:12:26+0200</time>
      </trkpt>
      <trkpt lat="45.13551" lon="2.85025">
        <ele>1156.665113</ele>
        <time>2021-07-08T13:12:28+0200</time>
      </trkpt>
      <trkpt lat="45.13543" lon="2.85023">
        <ele>1155.403906</ele>
        <time>2021-07-08T13:12:30+0200</time>
      </trkpt>
      <trkpt lat="45.13539" lon="2.8502">
        <ele>1153.989192</ele>
        <time>2021-07-08T13:12:31+0200</time>
      </trkpt>
      <trkpt lat="45.13535" lon="2.85018">
        <ele>1153.35157</ele>
        <time>2021-07-08T13:12:32+0200</time>
      </trkpt>
      <trkpt lat="45.1353" lon="2.85014">
        <ele>1153.213874</ele>
        <time>2021-07-08T13:12:33+0200</time>
      </trkpt>
      <trkpt lat="45.13525" lon="2.85007">
        <ele>1153.467611</ele>
        <time>2021-07-08T13:12:34+0200</time>
      </trkpt>
      <trkpt lat="45.13521" lon="2.85002">
        <ele>1153.72354</ele>
        <time>2021-07-08T13:12:35+0200</time>
      </trkpt>
      <trkpt lat="45.13512" lon="2.85001">
        <ele>1153.640879</ele>
        <time>2021-07-08T13:12:37+0200</time>
      </trkpt>
      <trkpt lat="45.13507" lon="2.85005">
        <ele>1153.702408</ele>
        <time>2021-07-08T13:12:38+0200</time>
      </trkpt>
      <trkpt lat="45.13503" lon="2.85009">
        <ele>1152.852086</ele>
        <time>2021-07-08T13:12:39+0200</time>
      </trkpt>
      <trkpt lat="45.13498" lon="2.85019">
        <ele>1150.948977</ele>
        <time>2021-07-08T13:12:41+0200</time>
      </trkpt>
      <trkpt lat="45.13498" lon="2.8503">
        <ele>1151.388099</ele>
        <time>2021-07-08T13:12:42+0200</time>
      </trkpt>
      <trkpt lat="45.13496" lon="2.8504">
        <ele>1150.832127</ele>
        <time>2021-07-08T13:12:43+0200</time>
      </trkpt>
      <trkpt lat="45.13491" lon="2.85048">
        <ele>1149.741215</ele>
        <time>2021-07-08T13:12:44+0200</time>
      </trkpt>
      <trkpt lat="45.13483" lon="2.85052">
        <ele>1147.632801</ele>
        <time>2021-07-08T13:12:45+0200</time>
      </trkpt>
      <trkpt lat="45.13478" lon="2.85058">
        <ele>1146.815896</ele>
        <time>2021-07-08T13:12:46+0200</time>
      </trkpt>
      <trkpt lat="45.13463" lon="2.85052">
        <ele>1141.373273</ele>
        <time>2021-07-08T13:12:47+0200</time>
      </trkpt>
      <trkpt lat="45.13454" lon="2.85051">
        <ele>1139.960757</ele>
        <time>2021-07-08T13:12:48+0200</time>
      </trkpt>
      <trkpt lat="45.13444" lon="2.8505">
        <ele>1138.030956</ele>
        <time>2021-07-08T13:12:49+0200</time>
      </trkpt>
      <trkpt lat="45.13432" lon="2.85049">
        <ele>1136.996993</ele>
        <time>2021-07-08T13:12:50+0200</time>
      </trkpt>
      <trkpt lat="45.13421" lon="2.85048">
        <ele>1136.492926</ele>
        <time>2021-07-08T13:12:51+0200</time>
      </trkpt>
      <trkpt lat="45.1341" lon="2.85046">
        <ele>1136.057355</ele>
        <time>2021-07-08T13:12:52+0200</time>
      </trkpt>
      <trkpt lat="45.13399" lon="2.85046">
        <ele>1135.263878</ele>
        <time>2021-07-08T13:12:53+0200</time>
      </trkpt>
      <trkpt lat="45.13388" lon="2.85047">
        <ele>1134.665287</ele>
        <time>2021-07-08T13:12:54+0200</time>
      </trkpt>
      <trkpt lat="45.13377" lon="2.85049">
        <ele>1134.170089</ele>
        <time>2021-07-08T13:12:55+0200</time>
      </trkpt>
      <trkpt lat="45.13366" lon="2.85052">
        <ele>1133.701979</ele>
        <time>2021-07-08T13:12:56+0200</time>
      </trkpt>
      <trkpt lat="45.13355" lon="2.85054">
        <ele>1133.274587</ele>
        <time>2021-07-08T13:12:57+0200</time>
      </trkpt>
      <trkpt lat="45.13343" lon="2.85058">
        <ele>1132.66629</ele>
        <time>2021-07-08T13:12:58+0200</time>
      </trkpt>
      <trkpt lat="45.13332" lon="2.85062">
        <ele>1132.760904</ele>
        <time>2021-07-08T13:12:59+0200</time>
      </trkpt>
      <trkpt lat="45.13321" lon="2.85067">
        <ele>1132.57977</ele>
        <time>2021-07-08T13:13:00+0200</time>
      </trkpt>
      <trkpt lat="45.13311" lon="2.85073">
        <ele>1132.440044</ele>
        <time>2021-07-08T13:13:01+0200</time>
      </trkpt>
      <trkpt lat="45.13301" lon="2.8508">
        <ele>1132.2305</ele>
        <time>2021-07-08T13:13:02+0200</time>
      </trkpt>
      <trkpt lat="45.13291" lon="2.85085">
        <ele>1132.335307</ele>
        <time>2021-07-08T13:13:03+0200</time>
      </trkpt>
      <trkpt lat="45.13281" lon="2.85088">
        <ele>1132.56072</ele>
        <time>2021-07-08T13:13:04+0200</time>
      </trkpt>
      <trkpt lat="45.13271" lon="2.8509">
        <ele>1133.186999</ele>
        <time>2021-07-08T13:13:05+0200</time>
      </trkpt>
      <trkpt lat="45.13263" lon="2.85091">
        <ele>1133.09089</ele>
        <time>2021-07-08T13:13:06+0200</time>
      </trkpt>
      <trkpt lat="45.13256" lon="2.85093">
        <ele>1133.996289</ele>
        <time>2021-07-08T13:13:07+0200</time>
      </trkpt>
      <trkpt lat="45.1325" lon="2.85094">
        <ele>1135.460059</ele>
        <time>2021-07-08T13:13:08+0200</time>
      </trkpt>
      <trkpt lat="45.13244" lon="2.85096">
        <ele>1136.532923</ele>
        <time>2021-07-08T13:13:09+0200</time>
      </trkpt>
      <trkpt lat="45.1324" lon="2.85097">
        <ele>1137.022106</ele>
        <time>2021-07-08T13:13:10+0200</time>
      </trkpt>
      <trkpt lat="45.13233" lon="2.851">
        <ele>1138.446715</ele>
        <time>2021-07-08T13:13:12+0200</time>
      </trkpt>
      <trkpt lat="45.13227" lon="2.85103">
        <ele>1139.797309</ele>
        <time>2021-07-08T13:13:14+0200</time>
      </trkpt>
      <trkpt lat="45.1322" lon="2.85105">
        <ele>1139.761906</ele>
        <time>2021-07-08T13:13:16+0200</time>
      </trkpt>
      <trkpt lat="45.13213" lon="2.85105">
        <ele>1140.277948</ele>
        <time>2021-07-08T13:13:18+0200</time>
      </trkpt>
      <trkpt lat="45.13206" lon="2.85106">
        <ele>1141.825036</ele>
        <time>2021-07-08T13:13:20+0200</time>
      </trkpt>
      <trkpt lat="45.132" lon="2.85105">
        <ele>1143.416885</ele>
        <time>2021-07-08T13:13:22+0200</time>
      </trkpt>
      <trkpt lat="45.13192" lon="2.85104">
        <ele>1143.904158</ele>
        <time>2021-07-08T13:13:24+0200</time>
      </trkpt>
      <trkpt lat="45.13186" lon="2.85103">
        <ele>1144.832438</ele>
        <time>2021-07-08T13:13:26+0200</time>
      </trkpt>
      <trkpt lat="45.13181" lon="2.85107">
        <ele>1145.368882</ele>
        <time>2021-07-08T13:13:28+0200</time>
      </trkpt>
      <trkpt lat="45.13177" lon="2.85111">
        <ele>1146.133477</ele>
        <time>2021-07-08T13:13:30+0200</time>
      </trkpt>
      <trkpt lat="45.13172" lon="2.85114">
        <ele>1148.704372</ele>
        <time>2021-07-08T13:13:32+0200</time>
      </trkpt>
      <trkpt lat="45.13167" lon="2.85117">
        <ele>1149.661205</ele>
        <time>2021-07-08T13:13:34+0200</time>
      </trkpt>
      <trkpt lat="45.13163" lon="2.8512">
        <ele>1149.248918</ele>
        <time>2021-07-08T13:13:36+0200</time>
      </trkpt>
      <trkpt lat="45.13158" lon="2.85126">
        <ele>1150.125212</ele>
        <time>2021-07-08T13:13:39+0200</time>
      </trkpt>
      <trkpt lat="45.13153" lon="2.85133">
        <ele>1151.041033</ele>
        <time>2021-07-08T13:13:42+0200</time>
      </trkpt>
      <trkpt lat="45.1315" lon="2.85138">
        <ele>1151.744406</ele>
        <time>2021-07-08T13:13:44+0200</time>
      </trkpt>
      <trkpt lat="45.13146" lon="2.85143">
        <ele>1152.591099</ele>
        <time>2021-07-08T13:13:46+0200</time>
      </trkpt>
      <trkpt lat="45.13144" lon="2.85149">
        <ele>1153.747417</ele>
        <time>2021-07-08T13:13:48+0200</time>
      </trkpt>
      <trkpt lat="45.13142" lon="2.85155">
        <ele>1154.553939</ele>
        <time>2021-07-08T13:13:50+0200</time>
      </trkpt>
      <trkpt lat="45.13138" lon="2.85163">
        <ele>1154.983404</ele>
        <time>2021-07-08T13:13:53+0200</time>
      </trkpt>
      <trkpt lat="45.13134" lon="2.85169">
        <ele>1155.840589</ele>
        <time>2021-07-08T13:13:55+0200</time>
      </trkpt>
      <trkpt lat="45.13131" lon="2.85176">
        <ele>1156.548833</ele>
        <time>2021-07-08T13:13:57+0200</time>
      </trkpt>
      <trkpt lat="45.13128" lon="2.85183">
        <ele>1156.947175</ele>
        <time>2021-07-08T13:13:59+0200</time>
      </trkpt>
      <trkpt lat="45.13124" lon="2.85189">
        <ele>1156.844071</ele>
        <time>2021-07-08T13:14:01+0200</time>
      </trkpt>
      <trkpt lat="45.13119" lon="2.85195">
        <ele>1157.64743</ele>
        <time>2021-07-08T13:14:03+0200</time>
      </trkpt>
      <trkpt lat="45.13116" lon="2.852">
        <ele>1156.889237</ele>
        <time>2021-07-08T13:14:05+0200</time>
      </trkpt>
      <trkpt lat="45.13112" lon="2.85206">
        <ele>1156.535765</ele>
        <time>2021-07-08T13:14:07+0200</time>
      </trkpt>
      <trkpt lat="45.13109" lon="2.85212">
        <ele>1156.074882</ele>
        <time>2021-07-08T13:14:09+0200</time>
      </trkpt>
      <trkpt lat="45.13104" lon="2.85218">
        <ele>1156.284051</ele>
        <time>2021-07-08T13:14:11+0200</time>
      </trkpt>
      <trkpt lat="45.13099" lon="2.85225">
        <ele>1156.526363</ele>
        <time>2021-07-08T13:14:13+0200</time>
      </trkpt>
      <trkpt lat="45.13094" lon="2.85231">
        <ele>1156.555761</ele>
        <time>2021-07-08T13:14:15+0200</time>
      </trkpt>
      <trkpt lat="45.1309" lon="2.85237">
        <ele>1156.228993</ele>
        <time>2021-07-08T13:14:17+0200</time>
      </trkpt>
      <trkpt lat="45.13085" lon="2.85243">
        <ele>1155.724829</ele>
        <time>2021-07-08T13:14:19+0200</time>
      </trkpt>
      <trkpt lat="45.1308" lon="2.8525">
        <ele>1155.460541</ele>
        <time>2021-07-08T13:14:21+0200</time>
      </trkpt>
      <trkpt lat="45.13074" lon="2.85255">
        <ele>1154.993876</ele>
        <time>2021-07-08T13:14:23+0200</time>
      </trkpt>
      <trkpt lat="45.13068" lon="2.85262">
        <ele>1154.586287</ele>
        <time>2021-07-08T13:14:25+0200</time>
      </trkpt>
      <trkpt lat="45.13063" lon="2.85269">
        <ele>1154.743595</ele>
        <time>2021-07-08T13:14:27+0200</time>
      </trkpt>
      <trkpt lat="45.13056" lon="2.85276">
        <ele>1154.939034</ele>
        <time>2021-07-08T13:14:29+0200</time>
      </trkpt>
      <trkpt lat="45.13049" lon="2.85282">
        <ele>1155.453552</ele>
        <time>2021-07-08T13:14:31+0200</time>
      </trkpt>
      <trkpt lat="45.13043" lon="2.85289">
        <ele>1155.591146</ele>
        <time>2021-07-08T13:14:33+0200</time>
      </trkpt>
      <trkpt lat="45.13036" lon="2.85296">
        <ele>1155.69731</ele>
        <time>2021-07-08T13:14:35+0200</time>
      </trkpt>
      <trkpt lat="45.13029" lon="2.85301">
        <ele>1156.217759</ele>
        <time>2021-07-08T13:14:37+0200</time>
      </trkpt>
      <trkpt lat="45.13023" lon="2.85308">
        <ele>1156.546322</ele>
        <time>2021-07-08T13:14:39+0200</time>
      </trkpt>
      <trkpt lat="45.13017" lon="2.85315">
        <ele>1156.053582</ele>
        <time>2021-07-08T13:14:41+0200</time>
      </trkpt>
      <trkpt lat="45.13011" lon="2.85324">
        <ele>1155.605697</ele>
        <time>2021-07-08T13:14:43+0200</time>
      </trkpt>
      <trkpt lat="45.13006" lon="2.85333">
        <ele>1155.952858</ele>
        <time>2021-07-08T13:14:45+0200</time>
      </trkpt>
      <trkpt lat="45.12999" lon="2.85342">
        <ele>1155.802882</ele>
        <time>2021-07-08T13:14:47+0200</time>
      </trkpt>
      <trkpt lat="45.12995" lon="2.85346">
        <ele>1155.644786</ele>
        <time>2021-07-08T13:14:48+0200</time>
      </trkpt>
      <trkpt lat="45.12988" lon="2.85354">
        <ele>1155.710492</ele>
        <time>2021-07-08T13:14:50+0200</time>
      </trkpt>
      <trkpt lat="45.12984" lon="2.85358">
        <ele>1155.633536</ele>
        <time>2021-07-08T13:14:51+0200</time>
      </trkpt>
      <trkpt lat="45.1298" lon="2.85362">
        <ele>1155.3166</ele>
        <time>2021-07-08T13:14:52+0200</time>
      </trkpt>
      <trkpt lat="45.12976" lon="2.85366">
        <ele>1155.160318</ele>
        <time>2021-07-08T13:14:53+0200</time>
      </trkpt>
      <trkpt lat="45.12972" lon="2.85372">
        <ele>1154.779356</ele>
        <time>2021-07-08T13:14:54+0200</time>
      </trkpt>
      <trkpt lat="45.12967" lon="2.85376">
        <ele>1154.713101</ele>
        <time>2021-07-08T13:14:55+0200</time>
      </trkpt>
      <trkpt lat="45.12963" lon="2.8538">
        <ele>1154.657056</ele>
        <time>2021-07-08T13:14:56+0200</time>
      </trkpt>
      <trkpt lat="45.12959" lon="2.85385">
        <ele>1154.843069</ele>
        <time>2021-07-08T13:14:57+0200</time>
      </trkpt>
      <trkpt lat="45.12954" lon="2.8539">
        <ele>1154.41876</ele>
        <time>2021-07-08T13:14:58+0200</time>
      </trkpt>
      <trkpt lat="45.1295" lon="2.85393">
        <ele>1154.254793</ele>
        <time>2021-07-08T13:14:59+0200</time>
      </trkpt>
      <trkpt lat="45.12946" lon="2.85398">
        <ele>1154.440118</ele>
        <time>2021-07-08T13:15:00+0200</time>
      </trkpt>
      <trkpt lat="45.12941" lon="2.85402">
        <ele>1154.483668</ele>
        <time>2021-07-08T13:15:01+0200</time>
      </trkpt>
      <trkpt lat="45.12937" lon="2.85407">
        <ele>1154.467148</ele>
        <time>2021-07-08T13:15:02+0200</time>
      </trkpt>
      <trkpt lat="45.12932" lon="2.85411">
        <ele>1154.410078</ele>
        <time>2021-07-08T13:15:03+0200</time>
      </trkpt>
      <trkpt lat="45.12927" lon="2.85416">
        <ele>1154.093037</ele>
        <time>2021-07-08T13:15:04+0200</time>
      </trkpt>
      <trkpt lat="45.12922" lon="2.85421">
        <ele>1153.935003</ele>
        <time>2021-07-08T13:15:05+0200</time>
      </trkpt>
      <trkpt lat="45.12917" lon="2.85426">
        <ele>1152.893645</ele>
        <time>2021-07-08T13:15:06+0200</time>
      </trkpt>
      <trkpt lat="45.12912" lon="2.85432">
        <ele>1152.79418</ele>
        <time>2021-07-08T13:15:07+0200</time>
      </trkpt>
      <trkpt lat="45.12907" lon="2.85437">
        <ele>1152.659463</ele>
        <time>2021-07-08T13:15:08+0200</time>
      </trkpt>
      <trkpt lat="45.12903" lon="2.85442">
        <ele>1152.475668</ele>
        <time>2021-07-08T13:15:09+0200</time>
      </trkpt>
      <trkpt lat="45.12898" lon="2.85447">
        <ele>1152.416099</ele>
        <time>2021-07-08T13:15:10+0200</time>
      </trkpt>
      <trkpt lat="45.12892" lon="2.85453">
        <ele>1152.535871</ele>
        <time>2021-07-08T13:15:11+0200</time>
      </trkpt>
      <trkpt lat="45.12887" lon="2.85458">
        <ele>1152.958744</ele>
        <time>2021-07-08T13:15:12+0200</time>
      </trkpt>
      <trkpt lat="45.12883" lon="2.85463">
        <ele>1153.251805</ele>
        <time>2021-07-08T13:15:13+0200</time>
      </trkpt>
      <trkpt lat="45.12878" lon="2.85468">
        <ele>1153.327291</ele>
        <time>2021-07-08T13:15:14+0200</time>
      </trkpt>
      <trkpt lat="45.12873" lon="2.85472">
        <ele>1153.531111</ele>
        <time>2021-07-08T13:15:15+0200</time>
      </trkpt>
      <trkpt lat="45.12868" lon="2.85475">
        <ele>1153.626944</ele>
        <time>2021-07-08T13:15:16+0200</time>
      </trkpt>
      <trkpt lat="45.12863" lon="2.85477">
        <ele>1153.982737</ele>
        <time>2021-07-08T13:15:17+0200</time>
      </trkpt>
      <trkpt lat="45.12859" lon="2.8548">
        <ele>1154.296557</ele>
        <time>2021-07-08T13:15:18+0200</time>
      </trkpt>
      <trkpt lat="45.12854" lon="2.85483">
        <ele>1154.220178</ele>
        <time>2021-07-08T13:15:19+0200</time>
      </trkpt>
      <trkpt lat="45.12849" lon="2.85488">
        <ele>1154.11243</ele>
        <time>2021-07-08T13:15:20+0200</time>
      </trkpt>
      <trkpt lat="45.12845" lon="2.85491">
        <ele>1153.806408</ele>
        <time>2021-07-08T13:15:21+0200</time>
      </trkpt>
      <trkpt lat="45.12838" lon="2.85498">
        <ele>1153.811322</ele>
        <time>2021-07-08T13:15:23+0200</time>
      </trkpt>
      <trkpt lat="45.1283" lon="2.85503">
        <ele>1153.711758</ele>
        <time>2021-07-08T13:15:25+0200</time>
      </trkpt>
      <trkpt lat="45.12823" lon="2.85508">
        <ele>1153.419599</ele>
        <time>2021-07-08T13:15:27+0200</time>
      </trkpt>
      <trkpt lat="45.12816" lon="2.85511">
        <ele>1154.48713</ele>
        <time>2021-07-08T13:15:29+0200</time>
      </trkpt>
      <trkpt lat="45.1281" lon="2.85515">
        <ele>1153.957924</ele>
        <time>2021-07-08T13:15:31+0200</time>
      </trkpt>
      <trkpt lat="45.12807" lon="2.85521">
        <ele>1154.214912</ele>
        <time>2021-07-08T13:15:33+0200</time>
      </trkpt>
      <trkpt lat="45.12803" lon="2.85527">
        <ele>1154.884778</ele>
        <time>2021-07-08T13:15:35+0200</time>
      </trkpt>
      <trkpt lat="45.12797" lon="2.85532">
        <ele>1154.486483</ele>
        <time>2021-07-08T13:15:37+0200</time>
      </trkpt>
      <trkpt lat="45.12789" lon="2.85538">
        <ele>1155.063112</ele>
        <time>2021-07-08T13:15:39+0200</time>
      </trkpt>
      <trkpt lat="45.12786" lon="2.85542">
        <ele>1154.701956</ele>
        <time>2021-07-08T13:15:40+0200</time>
      </trkpt>
      <trkpt lat="45.12779" lon="2.85548">
        <ele>1152.556634</ele>
        <time>2021-07-08T13:15:42+0200</time>
      </trkpt>
      <trkpt lat="45.12775" lon="2.85551">
        <ele>1152.047106</ele>
        <time>2021-07-08T13:15:43+0200</time>
      </trkpt>
      <trkpt lat="45.12769" lon="2.85554">
        <ele>1152.45916</ele>
        <time>2021-07-08T13:15:44+0200</time>
      </trkpt>
      <trkpt lat="45.12764" lon="2.85557">
        <ele>1151.561259</ele>
        <time>2021-07-08T13:15:45+0200</time>
      </trkpt>
      <trkpt lat="45.12758" lon="2.8556">
        <ele>1150.986587</ele>
        <time>2021-07-08T13:15:46+0200</time>
      </trkpt>
      <trkpt lat="45.12752" lon="2.85564">
        <ele>1149.171394</ele>
        <time>2021-07-08T13:15:47+0200</time>
      </trkpt>
      <trkpt lat="45.12746" lon="2.85567">
        <ele>1148.917959</ele>
        <time>2021-07-08T13:15:48+0200</time>
      </trkpt>
      <trkpt lat="45.12739" lon="2.85571">
        <ele>1148.033122</ele>
        <time>2021-07-08T13:15:49+0200</time>
      </trkpt>
      <trkpt lat="45.12733" lon="2.85573">
        <ele>1147.252525</ele>
        <time>2021-07-08T13:15:50+0200</time>
      </trkpt>
      <trkpt lat="45.12728" lon="2.85579">
        <ele>1147.163097</ele>
        <time>2021-07-08T13:15:51+0200</time>
      </trkpt>
      <trkpt lat="45.12724" lon="2.85586">
        <ele>1146.94829</ele>
        <time>2021-07-08T13:15:52+0200</time>
      </trkpt>
      <trkpt lat="45.12722" lon="2.85594">
        <ele>1146.698827</ele>
        <time>2021-07-08T13:15:53+0200</time>
      </trkpt>
      <trkpt lat="45.1272" lon="2.85602">
        <ele>1146.778243</ele>
        <time>2021-07-08T13:15:54+0200</time>
      </trkpt>
      <trkpt lat="45.12718" lon="2.85609">
        <ele>1146.077871</ele>
        <time>2021-07-08T13:15:55+0200</time>
      </trkpt>
      <trkpt lat="45.12717" lon="2.85616">
        <ele>1145.871556</ele>
        <time>2021-07-08T13:15:56+0200</time>
      </trkpt>
      <trkpt lat="45.12716" lon="2.85622">
        <ele>1145.836158</ele>
        <time>2021-07-08T13:15:57+0200</time>
      </trkpt>
      <trkpt lat="45.12712" lon="2.85631">
        <ele>1146.031654</ele>
        <time>2021-07-08T13:15:59+0200</time>
      </trkpt>
      <trkpt lat="45.12705" lon="2.85642">
        <ele>1144.022457</ele>
        <time>2021-07-08T13:16:01+0200</time>
      </trkpt>
      <trkpt lat="45.12697" lon="2.8565">
        <ele>1142.772608</ele>
        <time>2021-07-08T13:16:03+0200</time>
      </trkpt>
      <trkpt lat="45.12694" lon="2.85657">
        <ele>1141.322864</ele>
        <time>2021-07-08T13:16:04+0200</time>
      </trkpt>
      <trkpt lat="45.12692" lon="2.85665">
        <ele>1140.797238</ele>
        <time>2021-07-08T13:16:05+0200</time>
      </trkpt>
      <trkpt lat="45.12689" lon="2.85672">
        <ele>1140.85793</ele>
        <time>2021-07-08T13:16:06+0200</time>
      </trkpt>
      <trkpt lat="45.12687" lon="2.8568">
        <ele>1141.08852</ele>
        <time>2021-07-08T13:16:07+0200</time>
      </trkpt>
      <trkpt lat="45.12684" lon="2.85687">
        <ele>1141.645513</ele>
        <time>2021-07-08T13:16:08+0200</time>
      </trkpt>
      <trkpt lat="45.1268" lon="2.85695">
        <ele>1141.467349</ele>
        <time>2021-07-08T13:16:09+0200</time>
      </trkpt>
      <trkpt lat="45.12675" lon="2.85703">
        <ele>1140.935166</ele>
        <time>2021-07-08T13:16:10+0200</time>
      </trkpt>
      <trkpt lat="45.12671" lon="2.85713">
        <ele>1141.808385</ele>
        <time>2021-07-08T13:16:11+0200</time>
      </trkpt>
      <trkpt lat="45.12666" lon="2.85722">
        <ele>1142.265212</ele>
        <time>2021-07-08T13:16:12+0200</time>
      </trkpt>
      <trkpt lat="45.12661" lon="2.85731">
        <ele>1140.923037</ele>
        <time>2021-07-08T13:16:13+0200</time>
      </trkpt>
      <trkpt lat="45.12655" lon="2.85739">
        <ele>1140.542203</ele>
        <time>2021-07-08T13:16:14+0200</time>
      </trkpt>
      <trkpt lat="45.12648" lon="2.85744">
        <ele>1139.092822</ele>
        <time>2021-07-08T13:16:15+0200</time>
      </trkpt>
      <trkpt lat="45.12642" lon="2.85751">
        <ele>1138.474062</ele>
        <time>2021-07-08T13:16:16+0200</time>
      </trkpt>
      <trkpt lat="45.12636" lon="2.85757">
        <ele>1138.315757</ele>
        <time>2021-07-08T13:16:17+0200</time>
      </trkpt>
      <trkpt lat="45.12631" lon="2.85764">
        <ele>1138.915374</ele>
        <time>2021-07-08T13:16:18+0200</time>
      </trkpt>
      <trkpt lat="45.12627" lon="2.85773">
        <ele>1138.500152</ele>
        <time>2021-07-08T13:16:19+0200</time>
      </trkpt>
      <trkpt lat="45.12622" lon="2.85781">
        <ele>1137.442566</ele>
        <time>2021-07-08T13:16:20+0200</time>
      </trkpt>
      <trkpt lat="45.12617" lon="2.85787">
        <ele>1137.522377</ele>
        <time>2021-07-08T13:16:21+0200</time>
      </trkpt>
      <trkpt lat="45.12613" lon="2.85788">
        <ele>1137.714591</ele>
        <time>2021-07-08T13:16:22+0200</time>
      </trkpt>
      <trkpt lat="45.12608" lon="2.85786">
        <ele>1137.249903</ele>
        <time>2021-07-08T13:16:23+0200</time>
      </trkpt>
      <trkpt lat="45.12603" lon="2.85785">
        <ele>1136.462331</ele>
        <time>2021-07-08T13:16:24+0200</time>
      </trkpt>
      <trkpt lat="45.12597" lon="2.85786">
        <ele>1135.739517</ele>
        <time>2021-07-08T13:16:25+0200</time>
      </trkpt>
      <trkpt lat="45.1259" lon="2.85789">
        <ele>1135.687494</ele>
        <time>2021-07-08T13:16:26+0200</time>
      </trkpt>
      <trkpt lat="45.12585" lon="2.85793">
        <ele>1134.505538</ele>
        <time>2021-07-08T13:16:27+0200</time>
      </trkpt>
      <trkpt lat="45.12577" lon="2.85795">
        <ele>1132.575651</ele>
        <time>2021-07-08T13:16:28+0200</time>
      </trkpt>
      <trkpt lat="45.12571" lon="2.85796">
        <ele>1130.841167</ele>
        <time>2021-07-08T13:16:29+0200</time>
      </trkpt>
      <trkpt lat="45.12565" lon="2.85797">
        <ele>1130.363929</ele>
        <time>2021-07-08T13:16:30+0200</time>
      </trkpt>
      <trkpt lat="45.12559" lon="2.85799">
        <ele>1129.156055</ele>
        <time>2021-07-08T13:16:31+0200</time>
      </trkpt>
      <trkpt lat="45.12553" lon="2.85798">
        <ele>1129.095584</ele>
        <time>2021-07-08T13:16:32+0200</time>
      </trkpt>
      <trkpt lat="45.12548" lon="2.85794">
        <ele>1128.865842</ele>
        <time>2021-07-08T13:16:33+0200</time>
      </trkpt>
      <trkpt lat="45.12543" lon="2.85792">
        <ele>1129.714693</ele>
        <time>2021-07-08T13:16:34+0200</time>
      </trkpt>
      <trkpt lat="45.12535" lon="2.8579">
        <ele>1129.249429</ele>
        <time>2021-07-08T13:16:35+0200</time>
      </trkpt>
      <trkpt lat="45.12527" lon="2.85789">
        <ele>1129.9584</ele>
        <time>2021-07-08T13:16:36+0200</time>
      </trkpt>
      <trkpt lat="45.12519" lon="2.85791">
        <ele>1128.745014</ele>
        <time>2021-07-08T13:16:37+0200</time>
      </trkpt>
      <trkpt lat="45.12511" lon="2.85792">
        <ele>1127.44403</ele>
        <time>2021-07-08T13:16:38+0200</time>
      </trkpt>
      <trkpt lat="45.12505" lon="2.85792">
        <ele>1125.625432</ele>
        <time>2021-07-08T13:16:39+0200</time>
      </trkpt>
      <trkpt lat="45.12502" lon="2.85785">
        <ele>1127.285835</ele>
        <time>2021-07-08T13:16:42+0200</time>
      </trkpt>
      <trkpt lat="45.12501" lon="2.85777">
        <ele>1127.099516</ele>
        <time>2021-07-08T13:17:34+0200</time>
      </trkpt>
      <trkpt lat="45.12498" lon="2.8577">
        <ele>1126.662127</ele>
        <time>2021-07-08T13:17:36+0200</time>
      </trkpt>
      <trkpt lat="45.12494" lon="2.8576">
        <ele>1125.649562</ele>
        <time>2021-07-08T13:17:38+0200</time>
      </trkpt>
      <trkpt lat="45.12492" lon="2.85753">
        <ele>1124.76845</ele>
        <time>2021-07-08T13:17:39+0200</time>
      </trkpt>
      <trkpt lat="45.12489" lon="2.85748">
        <ele>1124.246913</ele>
        <time>2021-07-08T13:17:40+0200</time>
      </trkpt>
      <trkpt lat="45.12486" lon="2.85741">
        <ele>1124.224316</ele>
        <time>2021-07-08T13:17:41+0200</time>
      </trkpt>
      <trkpt lat="45.12483" lon="2.85735">
        <ele>1124.404718</ele>
        <time>2021-07-08T13:17:42+0200</time>
      </trkpt>
      <trkpt lat="45.12479" lon="2.85728">
        <ele>1124.224646</ele>
        <time>2021-07-08T13:17:43+0200</time>
      </trkpt>
      <trkpt lat="45.12476" lon="2.85721">
        <ele>1123.454382</ele>
        <time>2021-07-08T13:17:44+0200</time>
      </trkpt>
      <trkpt lat="45.12471" lon="2.85717">
        <ele>1123.479177</ele>
        <time>2021-07-08T13:17:45+0200</time>
      </trkpt>
      <trkpt lat="45.12466" lon="2.85718">
        <ele>1123.300611</ele>
        <time>2021-07-08T13:17:46+0200</time>
      </trkpt>
      <trkpt lat="45.1246" lon="2.85722">
        <ele>1122.914003</ele>
        <time>2021-07-08T13:17:47+0200</time>
      </trkpt>
      <trkpt lat="45.12455" lon="2.85728">
        <ele>1121.715468</ele>
        <time>2021-07-08T13:17:48+0200</time>
      </trkpt>
      <trkpt lat="45.12449" lon="2.85733">
        <ele>1120.673914</ele>
        <time>2021-07-08T13:17:49+0200</time>
      </trkpt>
      <trkpt lat="45.12444" lon="2.8574">
        <ele>1119.736011</ele>
        <time>2021-07-08T13:17:50+0200</time>
      </trkpt>
      <trkpt lat="45.12439" lon="2.85749">
        <ele>1119.127122</ele>
        <time>2021-07-08T13:17:51+0200</time>
      </trkpt>
      <trkpt lat="45.12435" lon="2.85759">
        <ele>1118.344689</ele>
        <time>2021-07-08T13:17:52+0200</time>
      </trkpt>
      <trkpt lat="45.12432" lon="2.85769">
        <ele>1117.597422</ele>
        <time>2021-07-08T13:17:53+0200</time>
      </trkpt>
      <trkpt lat="45.12428" lon="2.85778">
        <ele>1117.027867</ele>
        <time>2021-07-08T13:17:54+0200</time>
      </trkpt>
      <trkpt lat="45.12422" lon="2.85786">
        <ele>1115.505999</ele>
        <time>2021-07-08T13:17:55+0200</time>
      </trkpt>
      <trkpt lat="45.12415" lon="2.85793">
        <ele>1114.072838</ele>
        <time>2021-07-08T13:17:56+0200</time>
      </trkpt>
      <trkpt lat="45.12408" lon="2.85797">
        <ele>1113.630921</ele>
        <time>2021-07-08T13:17:57+0200</time>
      </trkpt>
      <trkpt lat="45.12403" lon="2.85793">
        <ele>1116.523582</ele>
        <time>2021-07-08T13:17:58+0200</time>
      </trkpt>
      <trkpt lat="45.124" lon="2.85786">
        <ele>1116.478453</ele>
        <time>2021-07-08T13:18:00+0200</time>
      </trkpt>
      <trkpt lat="45.12398" lon="2.85777">
        <ele>1116.489953</ele>
        <time>2021-07-08T13:18:01+0200</time>
      </trkpt>
      <trkpt lat="45.12394" lon="2.85767">
        <ele>1117.671228</ele>
        <time>2021-07-08T13:18:03+0200</time>
      </trkpt>
      <trkpt lat="45.1239" lon="2.85762">
        <ele>1118.060865</ele>
        <time>2021-07-08T13:18:06+0200</time>
      </trkpt>
      <trkpt lat="45.12386" lon="2.85758">
        <ele>1117.695673</ele>
        <time>2021-07-08T13:18:09+0200</time>
      </trkpt>
      <trkpt lat="45.12381" lon="2.85754">
        <ele>1117.318944</ele>
        <time>2021-07-08T13:18:12+0200</time>
      </trkpt>
      <trkpt lat="45.12375" lon="2.85751">
        <ele>1116.474997</ele>
        <time>2021-07-08T13:18:15+0200</time>
      </trkpt>
      <trkpt lat="45.12369" lon="2.85748">
        <ele>1116.892518</ele>
        <time>2021-07-08T13:18:18+0200</time>
      </trkpt>
      <trkpt lat="45.12364" lon="2.85743">
        <ele>1115.971568</ele>
        <time>2021-07-08T13:18:20+0200</time>
      </trkpt>
      <trkpt lat="45.12359" lon="2.85741">
        <ele>1115.237141</ele>
        <time>2021-07-08T13:18:22+0200</time>
      </trkpt>
      <trkpt lat="45.12353" lon="2.85737">
        <ele>1114.119083</ele>
        <time>2021-07-08T13:18:24+0200</time>
      </trkpt>
      <trkpt lat="45.12345" lon="2.85732">
        <ele>1114.345155</ele>
        <time>2021-07-08T13:18:26+0200</time>
      </trkpt>
      <trkpt lat="45.12341" lon="2.8573">
        <ele>1114.256064</ele>
        <time>2021-07-08T13:18:27+0200</time>
      </trkpt>
      <trkpt lat="45.12336" lon="2.85728">
        <ele>1114.390756</ele>
        <time>2021-07-08T13:18:28+0200</time>
      </trkpt>
      <trkpt lat="45.12329" lon="2.85722">
        <ele>1114.018884</ele>
        <time>2021-07-08T13:18:30+0200</time>
      </trkpt>
      <trkpt lat="45.12322" lon="2.85718">
        <ele>1113.780314</ele>
        <time>2021-07-08T13:18:32+0200</time>
      </trkpt>
      <trkpt lat="45.12314" lon="2.85714">
        <ele>1113.308308</ele>
        <time>2021-07-08T13:18:34+0200</time>
      </trkpt>
      <trkpt lat="45.12307" lon="2.85709">
        <ele>1113.125795</ele>
        <time>2021-07-08T13:18:36+0200</time>
      </trkpt>
      <trkpt lat="45.12299" lon="2.85702">
        <ele>1112.253413</ele>
        <time>2021-07-08T13:18:38+0200</time>
      </trkpt>
      <trkpt lat="45.12291" lon="2.85696">
        <ele>1111.62441</ele>
        <time>2021-07-08T13:18:40+0200</time>
      </trkpt>
      <trkpt lat="45.12287" lon="2.85689">
        <ele>1111.504543</ele>
        <time>2021-07-08T13:18:41+0200</time>
      </trkpt>
      <trkpt lat="45.12283" lon="2.85685">
        <ele>1110.985545</ele>
        <time>2021-07-08T13:18:42+0200</time>
      </trkpt>
      <trkpt lat="45.12277" lon="2.85681">
        <ele>1110.733362</ele>
        <time>2021-07-08T13:18:43+0200</time>
      </trkpt>
      <trkpt lat="45.1227" lon="2.85678">
        <ele>1109.903964</ele>
        <time>2021-07-08T13:18:44+0200</time>
      </trkpt>
      <trkpt lat="45.12264" lon="2.85675">
        <ele>1109.950008</ele>
        <time>2021-07-08T13:18:45+0200</time>
      </trkpt>
      <trkpt lat="45.12257" lon="2.85672">
        <ele>1110.036095</ele>
        <time>2021-07-08T13:18:46+0200</time>
      </trkpt>
      <trkpt lat="45.12251" lon="2.85667">
        <ele>1110.046848</ele>
        <time>2021-07-08T13:18:47+0200</time>
      </trkpt>
      <trkpt lat="45.12244" lon="2.85663">
        <ele>1109.24837</ele>
        <time>2021-07-08T13:18:48+0200</time>
      </trkpt>
      <trkpt lat="45.12236" lon="2.8566">
        <ele>1108.213606</ele>
        <time>2021-07-08T13:18:49+0200</time>
      </trkpt>
      <trkpt lat="45.12229" lon="2.85657">
        <ele>1106.186039</ele>
        <time>2021-07-08T13:18:50+0200</time>
      </trkpt>
      <trkpt lat="45.12222" lon="2.85654">
        <ele>1105.474984</ele>
        <time>2021-07-08T13:18:51+0200</time>
      </trkpt>
      <trkpt lat="45.12215" lon="2.85651">
        <ele>1104.935875</ele>
        <time>2021-07-08T13:18:52+0200</time>
      </trkpt>
      <trkpt lat="45.12207" lon="2.85648">
        <ele>1103.431211</ele>
        <time>2021-07-08T13:18:53+0200</time>
      </trkpt>
      <trkpt lat="45.122" lon="2.85646">
        <ele>1103.051142</ele>
        <time>2021-07-08T13:18:54+0200</time>
      </trkpt>
      <trkpt lat="45.12192" lon="2.85647">
        <ele>1102.283915</ele>
        <time>2021-07-08T13:18:55+0200</time>
      </trkpt>
      <trkpt lat="45.12184" lon="2.85649">
        <ele>1101.129138</ele>
        <time>2021-07-08T13:18:56+0200</time>
      </trkpt>
      <trkpt lat="45.12177" lon="2.85649">
        <ele>1100.372826</ele>
        <time>2021-07-08T13:18:57+0200</time>
      </trkpt>
      <trkpt lat="45.1217" lon="2.85649">
        <ele>1099.783167</ele>
        <time>2021-07-08T13:18:58+0200</time>
      </trkpt>
      <trkpt lat="45.12162" lon="2.85647">
        <ele>1098.27054</ele>
        <time>2021-07-08T13:18:59+0200</time>
      </trkpt>
      <trkpt lat="45.12154" lon="2.85647">
        <ele>1098.657842</ele>
        <time>2021-07-08T13:19:00+0200</time>
      </trkpt>
      <trkpt lat="45.12147" lon="2.85645">
        <ele>1097.951105</ele>
        <time>2021-07-08T13:19:01+0200</time>
      </trkpt>
      <trkpt lat="45.12141" lon="2.8564">
        <ele>1098.132895</ele>
        <time>2021-07-08T13:19:02+0200</time>
      </trkpt>
      <trkpt lat="45.12135" lon="2.85635">
        <ele>1098.527666</ele>
        <time>2021-07-08T13:19:03+0200</time>
      </trkpt>
      <trkpt lat="45.12128" lon="2.8563">
        <ele>1098.990466</ele>
        <time>2021-07-08T13:19:04+0200</time>
      </trkpt>
      <trkpt lat="45.12121" lon="2.85623">
        <ele>1098.77071</ele>
        <time>2021-07-08T13:19:05+0200</time>
      </trkpt>
      <trkpt lat="45.12116" lon="2.85615">
        <ele>1099.021246</ele>
        <time>2021-07-08T13:19:06+0200</time>
      </trkpt>
      <trkpt lat="45.12111" lon="2.85606">
        <ele>1099.162582</ele>
        <time>2021-07-08T13:19:07+0200</time>
      </trkpt>
      <trkpt lat="45.12105" lon="2.85595">
        <ele>1097.209041</ele>
        <time>2021-07-08T13:19:08+0200</time>
      </trkpt>
      <trkpt lat="45.121" lon="2.85584">
        <ele>1096.353397</ele>
        <time>2021-07-08T13:19:09+0200</time>
      </trkpt>
      <trkpt lat="45.12093" lon="2.85573">
        <ele>1094.465059</ele>
        <time>2021-07-08T13:19:10+0200</time>
      </trkpt>
      <trkpt lat="45.12089" lon="2.85562">
        <ele>1094.068745</ele>
        <time>2021-07-08T13:19:11+0200</time>
      </trkpt>
      <trkpt lat="45.12084" lon="2.8555">
        <ele>1093.031988</ele>
        <time>2021-07-08T13:19:14+0200</time>
      </trkpt>
      <trkpt lat="45.12088" lon="2.85554">
        <ele>1091.265604</ele>
        <time>2021-07-08T13:19:15+0200</time>
      </trkpt>
      <trkpt lat="45.12085" lon="2.85547">
        <ele>1088.808638</ele>
        <time>2021-07-08T13:19:18+0200</time>
      </trkpt>
      <trkpt lat="45.12081" lon="2.85545">
        <ele>1087.427342</ele>
        <time>2021-07-08T13:19:20+0200</time>
      </trkpt>
      <trkpt lat="45.1208" lon="2.85551">
        <ele>1086.130534</ele>
        <time>2021-07-08T13:19:22+0200</time>
      </trkpt>
      <trkpt lat="45.12081" lon="2.85558">
        <ele>1091.339843</ele>
        <time>2021-07-08T13:19:46+0200</time>
      </trkpt>
      <trkpt lat="45.12078" lon="2.85567">
        <ele>1091.239067</ele>
        <time>2021-07-08T13:19:49+0200</time>
      </trkpt>
      <trkpt lat="45.12076" lon="2.85576">
        <ele>1092.223548</ele>
        <time>2021-07-08T13:19:51+0200</time>
      </trkpt>
      <trkpt lat="45.12074" lon="2.85583">
        <ele>1091.469594</ele>
        <time>2021-07-08T13:19:52+0200</time>
      </trkpt>
      <trkpt lat="45.12071" lon="2.85591">
        <ele>1091.404549</ele>
        <time>2021-07-08T13:19:53+0200</time>
      </trkpt>
      <trkpt lat="45.12068" lon="2.85599">
        <ele>1091.165564</ele>
        <time>2021-07-08T13:19:54+0200</time>
      </trkpt>
      <trkpt lat="45.12066" lon="2.85607">
        <ele>1091.438563</ele>
        <time>2021-07-08T13:19:55+0200</time>
      </trkpt>
      <trkpt lat="45.12063" lon="2.85616">
        <ele>1091.772362</ele>
        <time>2021-07-08T13:19:56+0200</time>
      </trkpt>
      <trkpt lat="45.12061" lon="2.85625">
        <ele>1091.307631</ele>
        <time>2021-07-08T13:19:57+0200</time>
      </trkpt>
      <trkpt lat="45.12059" lon="2.85636">
        <ele>1089.398674</ele>
        <time>2021-07-08T13:19:58+0200</time>
      </trkpt>
      <trkpt lat="45.12057" lon="2.85645">
        <ele>1087.380599</ele>
        <time>2021-07-08T13:19:59+0200</time>
      </trkpt>
      <trkpt lat="45.12055" lon="2.85657">
        <ele>1084.985108</ele>
        <time>2021-07-08T13:20:00+0200</time>
      </trkpt>
      <trkpt lat="45.12052" lon="2.85669">
        <ele>1082.856085</ele>
        <time>2021-07-08T13:20:01+0200</time>
      </trkpt>
      <trkpt lat="45.1205" lon="2.85679">
        <ele>1081.194933</ele>
        <time>2021-07-08T13:20:02+0200</time>
      </trkpt>
      <trkpt lat="45.12046" lon="2.85688">
        <ele>1080.307853</ele>
        <time>2021-07-08T13:20:03+0200</time>
      </trkpt>
      <trkpt lat="45.12041" lon="2.85697">
        <ele>1078.544872</ele>
        <time>2021-07-08T13:20:04+0200</time>
      </trkpt>
      <trkpt lat="45.12037" lon="2.85706">
        <ele>1077.207692</ele>
        <time>2021-07-08T13:20:05+0200</time>
      </trkpt>
      <trkpt lat="45.12033" lon="2.85714">
        <ele>1076.292864</ele>
        <time>2021-07-08T13:20:06+0200</time>
      </trkpt>
      <trkpt lat="45.12028" lon="2.85721">
        <ele>1075.723195</ele>
        <time>2021-07-08T13:20:07+0200</time>
      </trkpt>
      <trkpt lat="45.12024" lon="2.85728">
        <ele>1075.134641</ele>
        <time>2021-07-08T13:20:08+0200</time>
      </trkpt>
      <trkpt lat="45.12021" lon="2.85735">
        <ele>1073.953248</ele>
        <time>2021-07-08T13:20:09+0200</time>
      </trkpt>
      <trkpt lat="45.12018" lon="2.85743">
        <ele>1074.12202</ele>
        <time>2021-07-08T13:20:10+0200</time>
      </trkpt>
      <trkpt lat="45.12016" lon="2.85751">
        <ele>1073.779985</ele>
        <time>2021-07-08T13:20:11+0200</time>
      </trkpt>
      <trkpt lat="45.12014" lon="2.85758">
        <ele>1073.527531</ele>
        <time>2021-07-08T13:20:12+0200</time>
      </trkpt>
      <trkpt lat="45.12011" lon="2.85765">
        <ele>1073.060878</ele>
        <time>2021-07-08T13:20:13+0200</time>
      </trkpt>
      <trkpt lat="45.12009" lon="2.85772">
        <ele>1072.511673</ele>
        <time>2021-07-08T13:20:14+0200</time>
      </trkpt>
      <trkpt lat="45.12005" lon="2.85777">
        <ele>1072.175236</ele>
        <time>2021-07-08T13:20:15+0200</time>
      </trkpt>
      <trkpt lat="45.12001" lon="2.85782">
        <ele>1072.253553</ele>
        <time>2021-07-08T13:20:16+0200</time>
      </trkpt>
      <trkpt lat="45.11998" lon="2.85787">
        <ele>1072.465464</ele>
        <time>2021-07-08T13:20:17+0200</time>
      </trkpt>
      <trkpt lat="45.11995" lon="2.85792">
        <ele>1072.661993</ele>
        <time>2021-07-08T13:20:18+0200</time>
      </trkpt>
      <trkpt lat="45.11988" lon="2.85802">
        <ele>1072.923087</ele>
        <time>2021-07-08T13:20:20+0200</time>
      </trkpt>
      <trkpt lat="45.11984" lon="2.85808">
        <ele>1072.970634</ele>
        <time>2021-07-08T13:20:21+0200</time>
      </trkpt>
      <trkpt lat="45.11981" lon="2.85814">
        <ele>1072.84297</ele>
        <time>2021-07-08T13:20:22+0200</time>
      </trkpt>
      <trkpt lat="45.11977" lon="2.85821">
        <ele>1072.807211</ele>
        <time>2021-07-08T13:20:23+0200</time>
      </trkpt>
      <trkpt lat="45.11974" lon="2.85828">
        <ele>1072.797832</ele>
        <time>2021-07-08T13:20:24+0200</time>
      </trkpt>
      <trkpt lat="45.1197" lon="2.85833">
        <ele>1072.375626</ele>
        <time>2021-07-08T13:20:25+0200</time>
      </trkpt>
      <trkpt lat="45.11966" lon="2.85838">
        <ele>1071.133342</ele>
        <time>2021-07-08T13:20:26+0200</time>
      </trkpt>
      <trkpt lat="45.11962" lon="2.85842">
        <ele>1071.081552</ele>
        <time>2021-07-08T13:20:27+0200</time>
      </trkpt>
      <trkpt lat="45.11959" lon="2.85847">
        <ele>1071.115523</ele>
        <time>2021-07-08T13:20:28+0200</time>
      </trkpt>
      <trkpt lat="45.11956" lon="2.85852">
        <ele>1071.206121</ele>
        <time>2021-07-08T13:20:29+0200</time>
      </trkpt>
      <trkpt lat="45.11953" lon="2.85857">
        <ele>1071.339895</ele>
        <time>2021-07-08T13:20:30+0200</time>
      </trkpt>
      <trkpt lat="45.11951" lon="2.85863">
        <ele>1070.777389</ele>
        <time>2021-07-08T13:20:30+0200</time>
      </trkpt>
      <trkpt lat="45.11947" lon="2.85873">
        <ele>1070.97671</ele>
        <time>2021-07-08T13:20:32+0200</time>
      </trkpt>
      <trkpt lat="45.11943" lon="2.85884">
        <ele>1070.484929</ele>
        <time>2021-07-08T13:20:34+0200</time>
      </trkpt>
      <trkpt lat="45.11939" lon="2.85892">
        <ele>1071.413486</ele>
        <time>2021-07-08T13:20:36+0200</time>
      </trkpt>
      <trkpt lat="45.11937" lon="2.85899">
        <ele>1073.273259</ele>
        <time>2021-07-08T13:20:38+0200</time>
      </trkpt>
      <trkpt lat="45.11931" lon="2.85908">
        <ele>1074.725295</ele>
        <time>2021-07-08T13:20:40+0200</time>
      </trkpt>
      <trkpt lat="45.11926" lon="2.85909">
        <ele>1074.330446</ele>
        <time>2021-07-08T13:20:42+0200</time>
      </trkpt>
      <trkpt lat="45.11921" lon="2.85907">
        <ele>1071.910027</ele>
        <time>2021-07-08T13:20:49+0200</time>
      </trkpt>
      <trkpt lat="45.11915" lon="2.85905">
        <ele>1071.606432</ele>
        <time>2021-07-08T13:21:00+0200</time>
      </trkpt>
      <trkpt lat="45.11911" lon="2.85905">
        <ele>1069.6575</ele>
        <time>2021-07-08T13:21:16+0200</time>
      </trkpt>
      <trkpt lat="45.11906" lon="2.85908">
        <ele>1068.880151</ele>
        <time>2021-07-08T13:21:19+0200</time>
      </trkpt>
      <trkpt lat="45.11898" lon="2.85914">
        <ele>1069.100884</ele>
        <time>2021-07-08T13:21:21+0200</time>
      </trkpt>
      <trkpt lat="45.1189" lon="2.85921">
        <ele>1069.349175</ele>
        <time>2021-07-08T13:21:23+0200</time>
      </trkpt>
      <trkpt lat="45.11886" lon="2.85925">
        <ele>1068.986937</ele>
        <time>2021-07-08T13:21:24+0200</time>
      </trkpt>
      <trkpt lat="45.11877" lon="2.85933">
        <ele>1068.475046</ele>
        <time>2021-07-08T13:21:26+0200</time>
      </trkpt>
      <trkpt lat="45.11874" lon="2.85937">
        <ele>1068.973316</ele>
        <time>2021-07-08T13:21:27+0200</time>
      </trkpt>
      <trkpt lat="45.11868" lon="2.85941">
        <ele>1068.801878</ele>
        <time>2021-07-08T13:21:28+0200</time>
      </trkpt>
      <trkpt lat="45.11863" lon="2.85943">
        <ele>1068.416944</ele>
        <time>2021-07-08T13:21:29+0200</time>
      </trkpt>
      <trkpt lat="45.11853" lon="2.85949">
        <ele>1066.945631</ele>
        <time>2021-07-08T13:21:31+0200</time>
      </trkpt>
      <trkpt lat="45.11848" lon="2.85951">
        <ele>1066.395895</ele>
        <time>2021-07-08T13:21:32+0200</time>
      </trkpt>
      <trkpt lat="45.11842" lon="2.85953">
        <ele>1066.189753</ele>
        <time>2021-07-08T13:21:33+0200</time>
      </trkpt>
      <trkpt lat="45.11834" lon="2.85955">
        <ele>1065.391833</ele>
        <time>2021-07-08T13:21:34+0200</time>
      </trkpt>
      <trkpt lat="45.11827" lon="2.85954">
        <ele>1064.928962</ele>
        <time>2021-07-08T13:21:35+0200</time>
      </trkpt>
      <trkpt lat="45.11821" lon="2.85953">
        <ele>1065.088387</ele>
        <time>2021-07-08T13:21:36+0200</time>
      </trkpt>
      <trkpt lat="45.11813" lon="2.85962">
        <ele>1064.184817</ele>
        <time>2021-07-08T13:21:38+0200</time>
      </trkpt>
      <trkpt lat="45.1181" lon="2.85969">
        <ele>1064.310932</ele>
        <time>2021-07-08T13:21:39+0200</time>
      </trkpt>
      <trkpt lat="45.11807" lon="2.85974">
        <ele>1065.11938</ele>
        <time>2021-07-08T13:21:40+0200</time>
      </trkpt>
      <trkpt lat="45.11804" lon="2.8598">
        <ele>1064.894618</ele>
        <time>2021-07-08T13:21:41+0200</time>
      </trkpt>
      <trkpt lat="45.118" lon="2.85985">
        <ele>1064.427193</ele>
        <time>2021-07-08T13:21:42+0200</time>
      </trkpt>
      <trkpt lat="45.11796" lon="2.85991">
        <ele>1063.950974</ele>
        <time>2021-07-08T13:21:43+0200</time>
      </trkpt>
      <trkpt lat="45.11793" lon="2.85996">
        <ele>1064.639413</ele>
        <time>2021-07-08T13:21:44+0200</time>
      </trkpt>
      <trkpt lat="45.11789" lon="2.86002">
        <ele>1063.568867</ele>
        <time>2021-07-08T13:21:45+0200</time>
      </trkpt>
      <trkpt lat="45.11782" lon="2.86011">
        <ele>1063.533111</ele>
        <time>2021-07-08T13:21:47+0200</time>
      </trkpt>
      <trkpt lat="45.11776" lon="2.86013">
        <ele>1060.992234</ele>
        <time>2021-07-08T13:21:50+0200</time>
      </trkpt>
      <trkpt lat="45.11771" lon="2.86009">
        <ele>1057.764297</ele>
        <time>2021-07-08T13:22:07+0200</time>
      </trkpt>
      <trkpt lat="45.11767" lon="2.86005">
        <ele>1057.037933</ele>
        <time>2021-07-08T13:22:16+0200</time>
      </trkpt>
      <trkpt lat="45.11762" lon="2.86007">
        <ele>1056.414874</ele>
        <time>2021-07-08T13:22:18+0200</time>
      </trkpt>
      <trkpt lat="45.11756" lon="2.86003">
        <ele>1055.587872</ele>
        <time>2021-07-08T13:22:22+0200</time>
      </trkpt>
      <trkpt lat="45.11752" lon="2.85999">
        <ele>1054.689575</ele>
        <time>2021-07-08T13:22:26+0200</time>
      </trkpt>
      <trkpt lat="45.11746" lon="2.85997">
        <ele>1053.732822</ele>
        <time>2021-07-08T13:22:28+0200</time>
      </trkpt>
      <trkpt lat="45.1174" lon="2.85988">
        <ele>1052.768838</ele>
        <time>2021-07-08T13:22:30+0200</time>
      </trkpt>
      <trkpt lat="45.11739" lon="2.85977">
        <ele>1053.257604</ele>
        <time>2021-07-08T13:22:32+0200</time>
      </trkpt>
      <trkpt lat="45.11741" lon="2.85963">
        <ele>1052.089619</ele>
        <time>2021-07-08T13:22:34+0200</time>
      </trkpt>
      <trkpt lat="45.11742" lon="2.85953">
        <ele>1051.794911</ele>
        <time>2021-07-08T13:22:35+0200</time>
      </trkpt>
      <trkpt lat="45.11744" lon="2.85942">
        <ele>1050.984723</ele>
        <time>2021-07-08T13:22:36+0200</time>
      </trkpt>
      <trkpt lat="45.11746" lon="2.8593">
        <ele>1048.47852</ele>
        <time>2021-07-08T13:22:37+0200</time>
      </trkpt>
      <trkpt lat="45.1175" lon="2.85918">
        <ele>1046.227935</ele>
        <time>2021-07-08T13:22:38+0200</time>
      </trkpt>
      <trkpt lat="45.11754" lon="2.85904">
        <ele>1043.014425</ele>
        <time>2021-07-08T13:22:38+0200</time>
      </trkpt>
      <trkpt lat="45.11758" lon="2.8589">
        <ele>1040.604616</ele>
        <time>2021-07-08T13:22:40+0200</time>
      </trkpt>
      <trkpt lat="45.11761" lon="2.85876">
        <ele>1039.668575</ele>
        <time>2021-07-08T13:22:41+0200</time>
      </trkpt>
      <trkpt lat="45.11763" lon="2.85865">
        <ele>1038.582648</ele>
        <time>2021-07-08T13:22:42+0200</time>
      </trkpt>
      <trkpt lat="45.11765" lon="2.85855">
        <ele>1037.145752</ele>
        <time>2021-07-08T13:22:43+0200</time>
      </trkpt>
      <trkpt lat="45.11767" lon="2.85846">
        <ele>1036.641965</ele>
        <time>2021-07-08T13:22:44+0200</time>
      </trkpt>
      <trkpt lat="45.11764" lon="2.8584">
        <ele>1035.991954</ele>
        <time>2021-07-08T13:22:46+0200</time>
      </trkpt>
      <trkpt lat="45.11759" lon="2.85839">
        <ele>1035.147397</ele>
        <time>2021-07-08T13:22:49+0200</time>
      </trkpt>
      <trkpt lat="45.11755" lon="2.85843">
        <ele>1035.428283</ele>
        <time>2021-07-08T13:22:52+0200</time>
      </trkpt>
      <trkpt lat="45.11749" lon="2.85847">
        <ele>1034.396777</ele>
        <time>2021-07-08T13:22:54+0200</time>
      </trkpt>
      <trkpt lat="45.11745" lon="2.85851">
        <ele>1036.832588</ele>
        <time>2021-07-08T13:23:05+0200</time>
      </trkpt>
      <trkpt lat="45.1174" lon="2.85861">
        <ele>1034.707803</ele>
        <time>2021-07-08T13:23:07+0200</time>
      </trkpt>
      <trkpt lat="45.11736" lon="2.85866">
        <ele>1034.236705</ele>
        <time>2021-07-08T13:23:08+0200</time>
      </trkpt>
      <trkpt lat="45.1173" lon="2.85871">
        <ele>1033.360185</ele>
        <time>2021-07-08T13:23:09+0200</time>
      </trkpt>
      <trkpt lat="45.11724" lon="2.85874">
        <ele>1032.265831</ele>
        <time>2021-07-08T13:23:10+0200</time>
      </trkpt>
      <trkpt lat="45.11717" lon="2.85878">
        <ele>1031.953805</ele>
        <time>2021-07-08T13:23:11+0200</time>
      </trkpt>
      <trkpt lat="45.11712" lon="2.85882">
        <ele>1030.532502</ele>
        <time>2021-07-08T13:23:12+0200</time>
      </trkpt>
      <trkpt lat="45.11708" lon="2.85885">
        <ele>1028.616895</ele>
        <time>2021-07-08T13:23:13+0200</time>
      </trkpt>
      <trkpt lat="45.11701" lon="2.85891">
        <ele>1027.999613</ele>
        <time>2021-07-08T13:23:15+0200</time>
      </trkpt>
      <trkpt lat="45.11697" lon="2.85896">
        <ele>1028.362853</ele>
        <time>2021-07-08T13:23:27+0200</time>
      </trkpt>
      <trkpt lat="45.11693" lon="2.85899">
        <ele>1026.711849</ele>
        <time>2021-07-08T13:23:35+0200</time>
      </trkpt>
      <trkpt lat="45.11688" lon="2.85902">
        <ele>1027.15854</ele>
        <time>2021-07-08T13:23:37+0200</time>
      </trkpt>
      <trkpt lat="45.11683" lon="2.85904">
        <ele>1024.065211</ele>
        <time>2021-07-08T13:23:38+0200</time>
      </trkpt>
      <trkpt lat="45.11677" lon="2.85901">
        <ele>1019.435065</ele>
        <time>2021-07-08T13:23:40+0200</time>
      </trkpt>
      <trkpt lat="45.1167" lon="2.85898">
        <ele>1018.155614</ele>
        <time>2021-07-08T13:23:42+0200</time>
      </trkpt>
      <trkpt lat="45.11666" lon="2.8589">
        <ele>1019.253246</ele>
        <time>2021-07-08T13:23:44+0200</time>
      </trkpt>
      <trkpt lat="45.11661" lon="2.85885">
        <ele>1016.227135</ele>
        <time>2021-07-08T13:23:49+0200</time>
      </trkpt>
      <trkpt lat="45.11657" lon="2.85888">
        <ele>1015.039676</ele>
        <time>2021-07-08T13:23:51+0200</time>
      </trkpt>
      <trkpt lat="45.11656" lon="2.85896">
        <ele>1013.74341</ele>
        <time>2021-07-08T13:23:53+0200</time>
      </trkpt>
      <trkpt lat="45.11653" lon="2.85904">
        <ele>1014.462393</ele>
        <time>2021-07-08T13:23:55+0200</time>
      </trkpt>
      <trkpt lat="45.11651" lon="2.85916">
        <ele>1014.783836</ele>
        <time>2021-07-08T13:23:57+0200</time>
      </trkpt>
      <trkpt lat="45.11646" lon="2.85916">
        <ele>1015.19963</ele>
        <time>2021-07-08T13:23:59+0200</time>
      </trkpt>
      <trkpt lat="45.11646" lon="2.85907">
        <ele>1014.399853</ele>
        <time>2021-07-08T13:24:02+0200</time>
      </trkpt>
      <trkpt lat="45.1165" lon="2.85902">
        <ele>1013.76405</ele>
        <time>2021-07-08T13:24:05+0200</time>
      </trkpt>
      <trkpt lat="45.11646" lon="2.8589">
        <ele>1011.571064</ele>
        <time>2021-07-08T13:24:13+0200</time>
      </trkpt>
      <trkpt lat="45.11643" lon="2.85885">
        <ele>1011.207159</ele>
        <time>2021-07-08T13:24:14+0200</time>
      </trkpt>
      <trkpt lat="45.11637" lon="2.85883">
        <ele>1012.152325</ele>
        <time>2021-07-08T13:24:16+0200</time>
      </trkpt>
      <trkpt lat="45.11632" lon="2.85888">
        <ele>1010.550905</ele>
        <time>2021-07-08T13:24:18+0200</time>
      </trkpt>
      <trkpt lat="45.11629" lon="2.85894">
        <ele>1009.953935</ele>
        <time>2021-07-08T13:24:19+0200</time>
      </trkpt>
      <trkpt lat="45.11627" lon="2.859">
        <ele>1011.332758</ele>
        <time>2021-07-08T13:24:20+0200</time>
      </trkpt>
      <trkpt lat="45.11624" lon="2.85906">
        <ele>1011.432613</ele>
        <time>2021-07-08T13:24:21+0200</time>
      </trkpt>
      <trkpt lat="45.11622" lon="2.85913">
        <ele>1010.745145</ele>
        <time>2021-07-08T13:24:22+0200</time>
      </trkpt>
      <trkpt lat="45.1162" lon="2.85921">
        <ele>1010.772939</ele>
        <time>2021-07-08T13:24:23+0200</time>
      </trkpt>
      <trkpt lat="45.11618" lon="2.85929">
        <ele>1010.881273</ele>
        <time>2021-07-08T13:24:24+0200</time>
      </trkpt>
      <trkpt lat="45.11615" lon="2.85937">
        <ele>1010.930478</ele>
        <time>2021-07-08T13:24:25+0200</time>
      </trkpt>
      <trkpt lat="45.11612" lon="2.85944">
        <ele>1011.351705</ele>
        <time>2021-07-08T13:24:26+0200</time>
      </trkpt>
      <trkpt lat="45.11609" lon="2.8595">
        <ele>1010.108725</ele>
        <time>2021-07-08T13:24:27+0200</time>
      </trkpt>
      <trkpt lat="45.11605" lon="2.85957">
        <ele>1008.605052</ele>
        <time>2021-07-08T13:24:28+0200</time>
      </trkpt>
      <trkpt lat="45.11602" lon="2.85962">
        <ele>1007.690945</ele>
        <time>2021-07-08T13:24:29+0200</time>
      </trkpt>
      <trkpt lat="45.11597" lon="2.85964">
        <ele>1007.123472</ele>
        <time>2021-07-08T13:24:30+0200</time>
      </trkpt>
      <trkpt lat="45.11591" lon="2.85966">
        <ele>1006.655163</ele>
        <time>2021-07-08T13:24:31+0200</time>
      </trkpt>
      <trkpt lat="45.11585" lon="2.85968">
        <ele>1005.073245</ele>
        <time>2021-07-08T13:24:32+0200</time>
      </trkpt>
      <trkpt lat="45.11578" lon="2.8597">
        <ele>1003.624682</ele>
        <time>2021-07-08T13:24:33+0200</time>
      </trkpt>
      <trkpt lat="45.11571" lon="2.85967">
        <ele>1002.545377</ele>
        <time>2021-07-08T13:24:34+0200</time>
      </trkpt>
      <trkpt lat="45.11564" lon="2.85965">
        <ele>1001.558634</ele>
        <time>2021-07-08T13:24:35+0200</time>
      </trkpt>
      <trkpt lat="45.11556" lon="2.85965">
        <ele>1000.117754</ele>
        <time>2021-07-08T13:24:36+0200</time>
      </trkpt>
      <trkpt lat="45.11549" lon="2.85965">
        <ele>996.603361</ele>
        <time>2021-07-08T13:24:37+0200</time>
      </trkpt>
      <trkpt lat="45.11543" lon="2.85965">
        <ele>995.416216</ele>
        <time>2021-07-08T13:24:38+0200</time>
      </trkpt>
      <trkpt lat="45.11536" lon="2.85964">
        <ele>994.670451</ele>
        <time>2021-07-08T13:24:39+0200</time>
      </trkpt>
      <trkpt lat="45.1153" lon="2.85961">
        <ele>994.246741</ele>
        <time>2021-07-08T13:24:40+0200</time>
      </trkpt>
      <trkpt lat="45.11524" lon="2.85958">
        <ele>993.719169</ele>
        <time>2021-07-08T13:24:41+0200</time>
      </trkpt>
      <trkpt lat="45.11516" lon="2.85955">
        <ele>991.905336</ele>
        <time>2021-07-08T13:24:42+0200</time>
      </trkpt>
      <trkpt lat="45.11508" lon="2.85953">
        <ele>988.914941</ele>
        <time>2021-07-08T13:24:43+0200</time>
      </trkpt>
      <trkpt lat="45.11498" lon="2.85954">
        <ele>986.697561</ele>
        <time>2021-07-08T13:24:44+0200</time>
      </trkpt>
      <trkpt lat="45.1149" lon="2.85956">
        <ele>986.157259</ele>
        <time>2021-07-08T13:24:44+0200</time>
      </trkpt>
      <trkpt lat="45.11485" lon="2.85959">
        <ele>986.102331</ele>
        <time>2021-07-08T13:24:45+0200</time>
      </trkpt>
      <trkpt lat="45.11482" lon="2.85964">
        <ele>987.009286</ele>
        <time>2021-07-08T13:24:47+0200</time>
      </trkpt>
      <trkpt lat="45.11479" lon="2.85972">
        <ele>988.308345</ele>
        <time>2021-07-08T13:24:49+0200</time>
      </trkpt>
      <trkpt lat="45.11478" lon="2.85981">
        <ele>988.096125</ele>
        <time>2021-07-08T13:24:51+0200</time>
      </trkpt>
      <trkpt lat="45.11478" lon="2.85991">
        <ele>988.702556</ele>
        <time>2021-07-08T13:24:53+0200</time>
      </trkpt>
      <trkpt lat="45.11476" lon="2.86001">
        <ele>989.81629</ele>
        <time>2021-07-08T13:24:55+0200</time>
      </trkpt>
      <trkpt lat="45.11475" lon="2.8601">
        <ele>990.447687</ele>
        <time>2021-07-08T13:24:57+0200</time>
      </trkpt>
      <trkpt lat="45.11474" lon="2.86019">
        <ele>990.284979</ele>
        <time>2021-07-08T13:25:00+0200</time>
      </trkpt>
      <trkpt lat="45.11472" lon="2.86027">
        <ele>990.40091</ele>
        <time>2021-07-08T13:25:02+0200</time>
      </trkpt>
      <trkpt lat="45.11466" lon="2.86034">
        <ele>991.023054</ele>
        <time>2021-07-08T13:25:04+0200</time>
      </trkpt>
      <trkpt lat="45.11461" lon="2.86039">
        <ele>991.487137</ele>
        <time>2021-07-08T13:25:06+0200</time>
      </trkpt>
      <trkpt lat="45.11453" lon="2.86047">
        <ele>991.763063</ele>
        <time>2021-07-08T13:25:08+0200</time>
      </trkpt>
      <trkpt lat="45.11446" lon="2.86056">
        <ele>991.887658</ele>
        <time>2021-07-08T13:25:10+0200</time>
      </trkpt>
      <trkpt lat="45.11442" lon="2.8606">
        <ele>991.499467</ele>
        <time>2021-07-08T13:25:11+0200</time>
      </trkpt>
      <trkpt lat="45.11438" lon="2.86065">
        <ele>991.4992</ele>
        <time>2021-07-08T13:25:12+0200</time>
      </trkpt>
      <trkpt lat="45.11435" lon="2.8607">
        <ele>990.747968</ele>
        <time>2021-07-08T13:25:13+0200</time>
      </trkpt>
      <trkpt lat="45.11432" lon="2.86075">
        <ele>990.09286</ele>
        <time>2021-07-08T13:25:14+0200</time>
      </trkpt>
      <trkpt lat="45.11428" lon="2.86079">
        <ele>989.869733</ele>
        <time>2021-07-08T13:25:15+0200</time>
      </trkpt>
      <trkpt lat="45.11424" lon="2.86083">
        <ele>989.812338</ele>
        <time>2021-07-08T13:25:16+0200</time>
      </trkpt>
      <trkpt lat="45.11421" lon="2.86089">
        <ele>989.299687</ele>
        <time>2021-07-08T13:25:17+0200</time>
      </trkpt>
      <trkpt lat="45.11418" lon="2.86095">
        <ele>989.016167</ele>
        <time>2021-07-08T13:25:18+0200</time>
      </trkpt>
      <trkpt lat="45.11418" lon="2.86102">
        <ele>988.686717</ele>
        <time>2021-07-08T13:25:19+0200</time>
      </trkpt>
      <trkpt lat="45.11417" lon="2.86114">
        <ele>989.820781</ele>
        <time>2021-07-08T13:25:21+0200</time>
      </trkpt>
      <trkpt lat="45.11418" lon="2.86126">
        <ele>989.823535</ele>
        <time>2021-07-08T13:25:23+0200</time>
      </trkpt>
      <trkpt lat="45.1142" lon="2.86137">
        <ele>988.701311</ele>
        <time>2021-07-08T13:25:25+0200</time>
      </trkpt>
      <trkpt lat="45.1142" lon="2.86149">
        <ele>988.229153</ele>
        <time>2021-07-08T13:25:27+0200</time>
      </trkpt>
      <trkpt lat="45.11422" lon="2.86161">
        <ele>988.210915</ele>
        <time>2021-07-08T13:25:29+0200</time>
      </trkpt>
      <trkpt lat="45.11423" lon="2.86168">
        <ele>987.882049</ele>
        <time>2021-07-08T13:25:30+0200</time>
      </trkpt>
      <trkpt lat="45.11425" lon="2.86179">
        <ele>987.907147</ele>
        <time>2021-07-08T13:25:32+0200</time>
      </trkpt>
      <trkpt lat="45.11427" lon="2.86191">
        <ele>987.405151</ele>
        <time>2021-07-08T13:25:34+0200</time>
      </trkpt>
      <trkpt lat="45.11428" lon="2.86197">
        <ele>987.482003</ele>
        <time>2021-07-08T13:25:35+0200</time>
      </trkpt>
      <trkpt lat="45.1143" lon="2.86208">
        <ele>987.207012</ele>
        <time>2021-07-08T13:25:37+0200</time>
      </trkpt>
      <trkpt lat="45.11433" lon="2.8622">
        <ele>987.220651</ele>
        <time>2021-07-08T13:25:39+0200</time>
      </trkpt>
      <trkpt lat="45.11437" lon="2.86229">
        <ele>987.483092</ele>
        <time>2021-07-08T13:25:41+0200</time>
      </trkpt>
      <trkpt lat="45.11439" lon="2.86238">
        <ele>988.632426</ele>
        <time>2021-07-08T13:25:43+0200</time>
      </trkpt>
      <trkpt lat="45.11441" lon="2.86245">
        <ele>988.945968</ele>
        <time>2021-07-08T13:25:45+0200</time>
      </trkpt>
      <trkpt lat="45.11438" lon="2.8625">
        <ele>990.133883</ele>
        <time>2021-07-08T13:25:47+0200</time>
      </trkpt>
      <trkpt lat="45.11432" lon="2.86256">
        <ele>990.515969</ele>
        <time>2021-07-08T13:25:49+0200</time>
      </trkpt>
      <trkpt lat="45.11428" lon="2.86263">
        <ele>990.896165</ele>
        <time>2021-07-08T13:25:51+0200</time>
      </trkpt>
      <trkpt lat="45.11421" lon="2.86268">
        <ele>991.163146</ele>
        <time>2021-07-08T13:25:53+0200</time>
      </trkpt>
      <trkpt lat="45.11415" lon="2.86273">
        <ele>990.801059</ele>
        <time>2021-07-08T13:25:55+0200</time>
      </trkpt>
      <trkpt lat="45.11409" lon="2.86279">
        <ele>989.757298</ele>
        <time>2021-07-08T13:25:57+0200</time>
      </trkpt>
      <trkpt lat="45.11404" lon="2.86286">
        <ele>989.471008</ele>
        <time>2021-07-08T13:25:59+0200</time>
      </trkpt>
      <trkpt lat="45.11399" lon="2.86292">
        <ele>988.801875</ele>
        <time>2021-07-08T13:26:01+0200</time>
      </trkpt>
      <trkpt lat="45.11396" lon="2.86298">
        <ele>988.60512</ele>
        <time>2021-07-08T13:26:03+0200</time>
      </trkpt>
      <trkpt lat="45.11391" lon="2.863">
        <ele>988.593599</ele>
        <time>2021-07-08T13:26:05+0200</time>
      </trkpt>
      <trkpt lat="45.11384" lon="2.86298">
        <ele>987.049573</ele>
        <time>2021-07-08T13:26:07+0200</time>
      </trkpt>
      <trkpt lat="45.11379" lon="2.86302">
        <ele>986.384357</ele>
        <time>2021-07-08T13:26:09+0200</time>
      </trkpt>
      <trkpt lat="45.11375" lon="2.86308">
        <ele>986.828983</ele>
        <time>2021-07-08T13:26:12+0200</time>
      </trkpt>
      <trkpt lat="45.11378" lon="2.86314">
        <ele>985.853699</ele>
        <time>2021-07-08T13:26:14+0200</time>
      </trkpt>
      <trkpt lat="45.11384" lon="2.8632">
        <ele>984.218992</ele>
        <time>2021-07-08T13:26:17+0200</time>
      </trkpt>
      <trkpt lat="45.11387" lon="2.86325">
        <ele>983.362005</ele>
        <time>2021-07-08T13:26:18+0200</time>
      </trkpt>
      <trkpt lat="45.1139" lon="2.86332">
        <ele>982.489205</ele>
        <time>2021-07-08T13:26:19+0200</time>
      </trkpt>
      <trkpt lat="45.11391" lon="2.8634">
        <ele>982.128375</ele>
        <time>2021-07-08T13:26:20+0200</time>
      </trkpt>
      <trkpt lat="45.11392" lon="2.86346">
        <ele>981.607675</ele>
        <time>2021-07-08T13:26:21+0200</time>
      </trkpt>
      <trkpt lat="45.11392" lon="2.86355">
        <ele>980.977582</ele>
        <time>2021-07-08T13:26:22+0200</time>
      </trkpt>
      <trkpt lat="45.11392" lon="2.86365">
        <ele>980.265495</ele>
        <time>2021-07-08T13:26:23+0200</time>
      </trkpt>
      <trkpt lat="45.11393" lon="2.86374">
        <ele>979.590416</ele>
        <time>2021-07-08T13:26:24+0200</time>
      </trkpt>
      <trkpt lat="45.11395" lon="2.86385">
        <ele>978.267861</ele>
        <time>2021-07-08T13:26:26+0200</time>
      </trkpt>
      <trkpt lat="45.11399" lon="2.86392">
        <ele>978.548837</ele>
        <time>2021-07-08T13:26:27+0200</time>
      </trkpt>
      <trkpt lat="45.11401" lon="2.86399">
        <ele>978.942709</ele>
        <time>2021-07-08T13:26:28+0200</time>
      </trkpt>
      <trkpt lat="45.11404" lon="2.86407">
        <ele>978.482575</ele>
        <time>2021-07-08T13:26:29+0200</time>
      </trkpt>
      <trkpt lat="45.11404" lon="2.86416">
        <ele>977.730616</ele>
        <time>2021-07-08T13:26:30+0200</time>
      </trkpt>
      <trkpt lat="45.11404" lon="2.86427">
        <ele>976.781647</ele>
        <time>2021-07-08T13:26:31+0200</time>
      </trkpt>
      <trkpt lat="45.11403" lon="2.86437">
        <ele>975.999135</ele>
        <time>2021-07-08T13:26:32+0200</time>
      </trkpt>
      <trkpt lat="45.11402" lon="2.86449">
        <ele>975.709203</ele>
        <time>2021-07-08T13:26:33+0200</time>
      </trkpt>
      <trkpt lat="45.11403" lon="2.86459">
        <ele>975.986793</ele>
        <time>2021-07-08T13:26:34+0200</time>
      </trkpt>
      <trkpt lat="45.11404" lon="2.86469">
        <ele>975.870767</ele>
        <time>2021-07-08T13:26:35+0200</time>
      </trkpt>
      <trkpt lat="45.11404" lon="2.86481">
        <ele>974.490782</ele>
        <time>2021-07-08T13:26:36+0200</time>
      </trkpt>
      <trkpt lat="45.11402" lon="2.86493">
        <ele>973.226166</ele>
        <time>2021-07-08T13:26:37+0200</time>
      </trkpt>
      <trkpt lat="45.114" lon="2.86503">
        <ele>972.124781</ele>
        <time>2021-07-08T13:26:38+0200</time>
      </trkpt>
      <trkpt lat="45.11396" lon="2.86513">
        <ele>971.561886</ele>
        <time>2021-07-08T13:26:39+0200</time>
      </trkpt>
      <trkpt lat="45.11393" lon="2.86522">
        <ele>972.122999</ele>
        <time>2021-07-08T13:26:40+0200</time>
      </trkpt>
      <trkpt lat="45.1139" lon="2.8653">
        <ele>972.666972</ele>
        <time>2021-07-08T13:26:41+0200</time>
      </trkpt>
      <trkpt lat="45.11388" lon="2.8654">
        <ele>972.951549</ele>
        <time>2021-07-08T13:26:42+0200</time>
      </trkpt>
      <trkpt lat="45.11385" lon="2.8655">
        <ele>974.350596</ele>
        <time>2021-07-08T13:26:43+0200</time>
      </trkpt>
      <trkpt lat="45.11383" lon="2.86559">
        <ele>973.351233</ele>
        <time>2021-07-08T13:26:44+0200</time>
      </trkpt>
      <trkpt lat="45.1138" lon="2.8657">
        <ele>972.52527</ele>
        <time>2021-07-08T13:26:45+0200</time>
      </trkpt>
      <trkpt lat="45.11377" lon="2.86582">
        <ele>972.30786</ele>
        <time>2021-07-08T13:26:46+0200</time>
      </trkpt>
      <trkpt lat="45.11376" lon="2.86593">
        <ele>972.715397</ele>
        <time>2021-07-08T13:26:47+0200</time>
      </trkpt>
      <trkpt lat="45.11372" lon="2.86603">
        <ele>974.795494</ele>
        <time>2021-07-08T13:26:48+0200</time>
      </trkpt>
      <trkpt lat="45.11369" lon="2.86614">
        <ele>974.242017</ele>
        <time>2021-07-08T13:26:49+0200</time>
      </trkpt>
      <trkpt lat="45.11366" lon="2.86628">
        <ele>974.027845</ele>
        <time>2021-07-08T13:26:50+0200</time>
      </trkpt>
      <trkpt lat="45.11363" lon="2.86638">
        <ele>973.415082</ele>
        <time>2021-07-08T13:26:51+0200</time>
      </trkpt>
      <trkpt lat="45.11363" lon="2.86645">
        <ele>972.736497</ele>
        <time>2021-07-08T13:26:52+0200</time>
      </trkpt>
      <trkpt lat="45.1136" lon="2.86651">
        <ele>972.043825</ele>
        <time>2021-07-08T13:26:55+0200</time>
      </trkpt>
      <trkpt lat="45.11356" lon="2.86656">
        <ele>965.241608</ele>
        <time>2021-07-08T13:27:43+0200</time>
      </trkpt>
      <trkpt lat="45.11354" lon="2.86661">
        <ele>965.737746</ele>
        <time>2021-07-08T13:27:45+0200</time>
      </trkpt>
      <trkpt lat="45.11347" lon="2.86668">
        <ele>965.735144</ele>
        <time>2021-07-08T13:27:47+0200</time>
      </trkpt>
      <trkpt lat="45.11342" lon="2.86673">
        <ele>965.500205</ele>
        <time>2021-07-08T13:27:48+0200</time>
      </trkpt>
      <trkpt lat="45.11336" lon="2.86678">
        <ele>964.836275</ele>
        <time>2021-07-08T13:27:49+0200</time>
      </trkpt>
      <trkpt lat="45.11331" lon="2.86684">
        <ele>963.738949</ele>
        <time>2021-07-08T13:27:50+0200</time>
      </trkpt>
      <trkpt lat="45.11325" lon="2.8669">
        <ele>963.50012</ele>
        <time>2021-07-08T13:27:51+0200</time>
      </trkpt>
      <trkpt lat="45.11318" lon="2.86697">
        <ele>962.911417</ele>
        <time>2021-07-08T13:27:52+0200</time>
      </trkpt>
      <trkpt lat="45.11309" lon="2.867">
        <ele>962.046658</ele>
        <time>2021-07-08T13:27:53+0200</time>
      </trkpt>
      <trkpt lat="45.11301" lon="2.86703">
        <ele>960.954975</ele>
        <time>2021-07-08T13:27:54+0200</time>
      </trkpt>
      <trkpt lat="45.11291" lon="2.86704">
        <ele>960.13012</ele>
        <time>2021-07-08T13:27:55+0200</time>
      </trkpt>
      <trkpt lat="45.11282" lon="2.86702">
        <ele>958.982998</ele>
        <time>2021-07-08T13:27:56+0200</time>
      </trkpt>
      <trkpt lat="45.11276" lon="2.86704">
        <ele>957.976857</ele>
        <time>2021-07-08T13:27:57+0200</time>
      </trkpt>
      <trkpt lat="45.11271" lon="2.86709">
        <ele>956.852168</ele>
        <time>2021-07-08T13:27:58+0200</time>
      </trkpt>
      <trkpt lat="45.11269" lon="2.86716">
        <ele>952.947053</ele>
        <time>2021-07-08T13:28:00+0200</time>
      </trkpt>
      <trkpt lat="45.11274" lon="2.86724">
        <ele>951.386885</ele>
        <time>2021-07-08T13:28:02+0200</time>
      </trkpt>
      <trkpt lat="45.1128" lon="2.86735">
        <ele>950.715874</ele>
        <time>2021-07-08T13:28:04+0200</time>
      </trkpt>
      <trkpt lat="45.1128" lon="2.86743">
        <ele>951.417668</ele>
        <time>2021-07-08T13:28:06+0200</time>
      </trkpt>
      <trkpt lat="45.11275" lon="2.86745">
        <ele>951.699121</ele>
        <time>2021-07-08T13:28:07+0200</time>
      </trkpt>
      <trkpt lat="45.11274" lon="2.86755">
        <ele>950.854253</ele>
        <time>2021-07-08T13:28:09+0200</time>
      </trkpt>
      <trkpt lat="45.1127" lon="2.86761">
        <ele>950.910509</ele>
        <time>2021-07-08T13:28:10+0200</time>
      </trkpt>
      <trkpt lat="45.11265" lon="2.86759">
        <ele>951.008603</ele>
        <time>2021-07-08T13:28:17+0200</time>
      </trkpt>
      <trkpt lat="45.11257" lon="2.86756">
        <ele>948.784535</ele>
        <time>2021-07-08T13:28:20+0200</time>
      </trkpt>
      <trkpt lat="45.11249" lon="2.86754">
        <ele>946.397302</ele>
        <time>2021-07-08T13:28:22+0200</time>
      </trkpt>
      <trkpt lat="45.11242" lon="2.86756">
        <ele>944.306127</ele>
        <time>2021-07-08T13:28:24+0200</time>
      </trkpt>
      <trkpt lat="45.11234" lon="2.86763">
        <ele>943.564395</ele>
        <time>2021-07-08T13:28:25+0200</time>
      </trkpt>
      <trkpt lat="45.11229" lon="2.86766">
        <ele>941.916288</ele>
        <time>2021-07-08T13:28:26+0200</time>
      </trkpt>
      <trkpt lat="45.11226" lon="2.86771">
        <ele>940.457421</ele>
        <time>2021-07-08T13:28:27+0200</time>
      </trkpt>
      <trkpt lat="45.1122" lon="2.86782">
        <ele>938.755253</ele>
        <time>2021-07-08T13:28:29+0200</time>
      </trkpt>
      <trkpt lat="45.11216" lon="2.86788">
        <ele>937.572425</ele>
        <time>2021-07-08T13:28:30+0200</time>
      </trkpt>
      <trkpt lat="45.11213" lon="2.86793">
        <ele>936.305305</ele>
        <time>2021-07-08T13:28:31+0200</time>
      </trkpt>
      <trkpt lat="45.11208" lon="2.86794">
        <ele>934.262605</ele>
        <time>2021-07-08T13:28:33+0200</time>
      </trkpt>
      <trkpt lat="45.11203" lon="2.8679">
        <ele>932.935563</ele>
        <time>2021-07-08T13:28:35+0200</time>
      </trkpt>
      <trkpt lat="45.11201" lon="2.86796">
        <ele>932.446289</ele>
        <time>2021-07-08T13:28:38+0200</time>
      </trkpt>
      <trkpt lat="45.11198" lon="2.86804">
        <ele>934.044539</ele>
        <time>2021-07-08T13:28:48+0200</time>
      </trkpt>
      <trkpt lat="45.11192" lon="2.86806">
        <ele>934.455041</ele>
        <time>2021-07-08T13:28:49+0200</time>
      </trkpt>
      <trkpt lat="45.11187" lon="2.86814">
        <ele>931.864142</ele>
        <time>2021-07-08T13:28:53+0200</time>
      </trkpt>
      <trkpt lat="45.11183" lon="2.86823">
        <ele>931.859052</ele>
        <time>2021-07-08T13:28:55+0200</time>
      </trkpt>
      <trkpt lat="45.11178" lon="2.8683">
        <ele>931.246727</ele>
        <time>2021-07-08T13:28:57+0200</time>
      </trkpt>
      <trkpt lat="45.11171" lon="2.86828">
        <ele>931.35079</ele>
        <time>2021-07-08T13:29:00+0200</time>
      </trkpt>
      <trkpt lat="45.11166" lon="2.86825">
        <ele>930.61325</ele>
        <time>2021-07-08T13:29:02+0200</time>
      </trkpt>
      <trkpt lat="45.11158" lon="2.8682">
        <ele>928.388346</ele>
        <time>2021-07-08T13:29:06+0200</time>
      </trkpt>
      <trkpt lat="45.11151" lon="2.86817">
        <ele>926.612865</ele>
        <time>2021-07-08T13:29:09+0200</time>
      </trkpt>
      <trkpt lat="45.11146" lon="2.86815">
        <ele>925.253911</ele>
        <time>2021-07-08T13:29:11+0200</time>
      </trkpt>
      <trkpt lat="45.11144" lon="2.86808">
        <ele>923.378356</ele>
        <time>2021-07-08T13:29:16+0200</time>
      </trkpt>
      <trkpt lat="45.1114" lon="2.86813">
        <ele>923.894049</ele>
        <time>2021-07-08T13:29:18+0200</time>
      </trkpt>
      <trkpt lat="45.11139" lon="2.8682">
        <ele>923.87021</ele>
        <time>2021-07-08T13:29:19+0200</time>
      </trkpt>
      <trkpt lat="45.11136" lon="2.86828">
        <ele>923.186628</ele>
        <time>2021-07-08T13:29:20+0200</time>
      </trkpt>
      <trkpt lat="45.11133" lon="2.86834">
        <ele>923.246637</ele>
        <time>2021-07-08T13:29:21+0200</time>
      </trkpt>
      <trkpt lat="45.11131" lon="2.86842">
        <ele>922.945825</ele>
        <time>2021-07-08T13:29:22+0200</time>
      </trkpt>
      <trkpt lat="45.11128" lon="2.86851">
        <ele>921.985065</ele>
        <time>2021-07-08T13:29:23+0200</time>
      </trkpt>
      <trkpt lat="45.11124" lon="2.86859">
        <ele>921.381716</ele>
        <time>2021-07-08T13:29:24+0200</time>
      </trkpt>
      <trkpt lat="45.11119" lon="2.86866">
        <ele>920.875053</ele>
        <time>2021-07-08T13:29:25+0200</time>
      </trkpt>
      <trkpt lat="45.11115" lon="2.86872">
        <ele>920.013003</ele>
        <time>2021-07-08T13:29:26+0200</time>
      </trkpt>
      <trkpt lat="45.11113" lon="2.86879">
        <ele>918.640325</ele>
        <time>2021-07-08T13:29:27+0200</time>
      </trkpt>
      <trkpt lat="45.11109" lon="2.86889">
        <ele>917.750266</ele>
        <time>2021-07-08T13:29:29+0200</time>
      </trkpt>
      <trkpt lat="45.11106" lon="2.86896">
        <ele>917.238697</ele>
        <time>2021-07-08T13:29:30+0200</time>
      </trkpt>
      <trkpt lat="45.11104" lon="2.86904">
        <ele>916.777644</ele>
        <time>2021-07-08T13:29:31+0200</time>
      </trkpt>
      <trkpt lat="45.11099" lon="2.86914">
        <ele>915.214005</ele>
        <time>2021-07-08T13:29:33+0200</time>
      </trkpt>
      <trkpt lat="45.11098" lon="2.86921">
        <ele>915.526958</ele>
        <time>2021-07-08T13:29:35+0200</time>
      </trkpt>
      <trkpt lat="45.11097" lon="2.86928">
        <ele>916.813874</ele>
        <time>2021-07-08T13:29:37+0200</time>
      </trkpt>
      <trkpt lat="45.11093" lon="2.86932">
        <ele>916.436465</ele>
        <time>2021-07-08T13:29:58+0200</time>
      </trkpt>
      <trkpt lat="45.11069" lon="2.86914">
        <ele>911.876652</ele>
        <time>2021-07-08T14:31:57+0200</time>
      </trkpt>
      <trkpt lat="45.1107" lon="2.8692">
        <ele>912.214344</ele>
        <time>2021-07-08T14:32:22+0200</time>
      </trkpt>
      <trkpt lat="45.11066" lon="2.86919">
        <ele>912.182183</ele>
        <time>2021-07-08T14:32:24+0200</time>
      </trkpt>
      <trkpt lat="45.11061" lon="2.86918">
        <ele>912.062877</ele>
        <time>2021-07-08T14:32:29+0200</time>
      </trkpt>
      <trkpt lat="45.11055" lon="2.86918">
        <ele>910.195572</ele>
        <time>2021-07-08T14:32:41+0200</time>
      </trkpt>
      <trkpt lat="45.1105" lon="2.86914">
        <ele>909.76123</ele>
        <time>2021-07-08T14:32:43+0200</time>
      </trkpt>
      <trkpt lat="45.11043" lon="2.86915">
        <ele>909.607007</ele>
        <time>2021-07-08T14:32:45+0200</time>
      </trkpt>
      <trkpt lat="45.11033" lon="2.86914">
        <ele>908.233525</ele>
        <time>2021-07-08T14:32:47+0200</time>
      </trkpt>
      <trkpt lat="45.11026" lon="2.86916">
        <ele>907.508937</ele>
        <time>2021-07-08T14:32:48+0200</time>
      </trkpt>
      <trkpt lat="45.11018" lon="2.86918">
        <ele>905.700664</ele>
        <time>2021-07-08T14:32:49+0200</time>
      </trkpt>
      <trkpt lat="45.1101" lon="2.86916">
        <ele>906.048348</ele>
        <time>2021-07-08T14:32:50+0200</time>
      </trkpt>
      <trkpt lat="45.11001" lon="2.86916">
        <ele>904.566291</ele>
        <time>2021-07-08T14:32:51+0200</time>
      </trkpt>
      <trkpt lat="45.10992" lon="2.86918">
        <ele>903.560928</ele>
        <time>2021-07-08T14:32:52+0200</time>
      </trkpt>
      <trkpt lat="45.10982" lon="2.86919">
        <ele>902.523385</ele>
        <time>2021-07-08T14:32:53+0200</time>
      </trkpt>
      <trkpt lat="45.10973" lon="2.86921">
        <ele>901.552725</ele>
        <time>2021-07-08T14:32:54+0200</time>
      </trkpt>
      <trkpt lat="45.10965" lon="2.86923">
        <ele>901.337081</ele>
        <time>2021-07-08T14:32:55+0200</time>
      </trkpt>
      <trkpt lat="45.1096" lon="2.86924">
        <ele>901.092437</ele>
        <time>2021-07-08T14:32:56+0200</time>
      </trkpt>
      <trkpt lat="45.10956" lon="2.86927">
        <ele>902.477583</ele>
        <time>2021-07-08T14:33:13+0200</time>
      </trkpt>
      <trkpt lat="45.10953" lon="2.86934">
        <ele>902.778187</ele>
        <time>2021-07-08T14:33:16+0200</time>
      </trkpt>
      <trkpt lat="45.10953" lon="2.86943">
        <ele>901.867569</ele>
        <time>2021-07-08T14:33:18+0200</time>
      </trkpt>
      <trkpt lat="45.10953" lon="2.86953">
        <ele>904.087962</ele>
        <time>2021-07-08T14:33:20+0200</time>
      </trkpt>
      <trkpt lat="45.10956" lon="2.86963">
        <ele>904.22767</ele>
        <time>2021-07-08T14:33:22+0200</time>
      </trkpt>
      <trkpt lat="45.10956" lon="2.86976">
        <ele>903.59831</ele>
        <time>2021-07-08T14:33:24+0200</time>
      </trkpt>
      <trkpt lat="45.10955" lon="2.86982">
        <ele>903.130598</ele>
        <time>2021-07-08T14:33:25+0200</time>
      </trkpt>
      <trkpt lat="45.10952" lon="2.86989">
        <ele>903.404582</ele>
        <time>2021-07-08T14:33:26+0200</time>
      </trkpt>
      <trkpt lat="45.1095" lon="2.86997">
        <ele>903.415306</ele>
        <time>2021-07-08T14:33:27+0200</time>
      </trkpt>
      <trkpt lat="45.10947" lon="2.87003">
        <ele>902.478072</ele>
        <time>2021-07-08T14:33:28+0200</time>
      </trkpt>
      <trkpt lat="45.10944" lon="2.87009">
        <ele>901.739055</ele>
        <time>2021-07-08T14:33:29+0200</time>
      </trkpt>
      <trkpt lat="45.10942" lon="2.87018">
        <ele>901.316347</ele>
        <time>2021-07-08T14:33:30+0200</time>
      </trkpt>
      <trkpt lat="45.10939" lon="2.87024">
        <ele>901.347874</ele>
        <time>2021-07-08T14:33:31+0200</time>
      </trkpt>
      <trkpt lat="45.10936" lon="2.87032">
        <ele>901.105867</ele>
        <time>2021-07-08T14:33:32+0200</time>
      </trkpt>
      <trkpt lat="45.10934" lon="2.87039">
        <ele>900.918971</ele>
        <time>2021-07-08T14:33:33+0200</time>
      </trkpt>
      <trkpt lat="45.10931" lon="2.87046">
        <ele>900.93904</ele>
        <time>2021-07-08T14:33:34+0200</time>
      </trkpt>
      <trkpt lat="45.10929" lon="2.87052">
        <ele>900.736487</ele>
        <time>2021-07-08T14:33:35+0200</time>
      </trkpt>
      <trkpt lat="45.10926" lon="2.87062">
        <ele>900.222858</ele>
        <time>2021-07-08T14:33:37+0200</time>
      </trkpt>
      <trkpt lat="45.10925" lon="2.8707">
        <ele>899.960455</ele>
        <time>2021-07-08T14:33:38+0200</time>
      </trkpt>
      <trkpt lat="45.10926" lon="2.87078">
        <ele>899.819094</ele>
        <time>2021-07-08T14:33:39+0200</time>
      </trkpt>
      <trkpt lat="45.10927" lon="2.87085">
        <ele>900.003704</ele>
        <time>2021-07-08T14:33:40+0200</time>
      </trkpt>
      <trkpt lat="45.10928" lon="2.87095">
        <ele>900.179082</ele>
        <time>2021-07-08T14:33:42+0200</time>
      </trkpt>
      <trkpt lat="45.1093" lon="2.87101">
        <ele>900.679328</ele>
        <time>2021-07-08T14:33:43+0200</time>
      </trkpt>
      <trkpt lat="45.10931" lon="2.87112">
        <ele>901.257106</ele>
        <time>2021-07-08T14:33:45+0200</time>
      </trkpt>
      <trkpt lat="45.10931" lon="2.87122">
        <ele>901.418171</ele>
        <time>2021-07-08T14:33:47+0200</time>
      </trkpt>
      <trkpt lat="45.10931" lon="2.87132">
        <ele>901.831274</ele>
        <time>2021-07-08T14:33:49+0200</time>
      </trkpt>
      <trkpt lat="45.10932" lon="2.8714">
        <ele>901.572815</ele>
        <time>2021-07-08T14:33:51+0200</time>
      </trkpt>
      <trkpt lat="45.10934" lon="2.8715">
        <ele>901.426782</ele>
        <time>2021-07-08T14:33:53+0200</time>
      </trkpt>
      <trkpt lat="45.10935" lon="2.87158">
        <ele>901.327979</ele>
        <time>2021-07-08T14:33:55+0200</time>
      </trkpt>
      <trkpt lat="45.10936" lon="2.8717">
        <ele>901.108476</ele>
        <time>2021-07-08T14:33:58+0200</time>
      </trkpt>
      <trkpt lat="45.10936" lon="2.8718">
        <ele>901.681185</ele>
        <time>2021-07-08T14:34:00+0200</time>
      </trkpt>
      <trkpt lat="45.10935" lon="2.87189">
        <ele>901.828191</ele>
        <time>2021-07-08T14:34:02+0200</time>
      </trkpt>
      <trkpt lat="45.10933" lon="2.87198">
        <ele>902.212119</ele>
        <time>2021-07-08T14:34:04+0200</time>
      </trkpt>
      <trkpt lat="45.10929" lon="2.87204">
        <ele>901.989857</ele>
        <time>2021-07-08T14:34:06+0200</time>
      </trkpt>
      <trkpt lat="45.10921" lon="2.8721">
        <ele>901.943748</ele>
        <time>2021-07-08T14:34:08+0200</time>
      </trkpt>
      <trkpt lat="45.10917" lon="2.87212">
        <ele>901.552819</ele>
        <time>2021-07-08T14:34:09+0200</time>
      </trkpt>
      <trkpt lat="45.10912" lon="2.87213">
        <ele>900.766918</ele>
        <time>2021-07-08T14:34:11+0200</time>
      </trkpt>
      <trkpt lat="45.10909" lon="2.87204">
        <ele>901.153376</ele>
        <time>2021-07-08T14:34:13+0200</time>
      </trkpt>
      <trkpt lat="45.10914" lon="2.87199">
        <ele>901.024592</ele>
        <time>2021-07-08T14:34:15+0200</time>
      </trkpt>
      <trkpt lat="45.10909" lon="2.87201">
        <ele>901.68438</ele>
        <time>2021-07-08T14:35:12+0200</time>
      </trkpt>
      <trkpt lat="45.1091" lon="2.87208">
        <ele>901.537898</ele>
        <time>2021-07-08T14:35:14+0200</time>
      </trkpt>
      <trkpt lat="45.10911" lon="2.87215">
        <ele>900.410276</ele>
        <time>2021-07-08T14:35:18+0200</time>
      </trkpt>
      <trkpt lat="45.10907" lon="2.87222">
        <ele>900.017034</ele>
        <time>2021-07-08T14:35:20+0200</time>
      </trkpt>
      <trkpt lat="45.109" lon="2.87228">
        <ele>900.572768</ele>
        <time>2021-07-08T14:35:22+0200</time>
      </trkpt>
      <trkpt lat="45.10894" lon="2.87234">
        <ele>902.770708</ele>
        <time>2021-07-08T14:35:24+0200</time>
      </trkpt>
      <trkpt lat="45.1089" lon="2.87238">
        <ele>902.93354</ele>
        <time>2021-07-08T14:35:25+0200</time>
      </trkpt>
      <trkpt lat="45.10885" lon="2.87241">
        <ele>903.298413</ele>
        <time>2021-07-08T14:35:26+0200</time>
      </trkpt>
      <trkpt lat="45.10882" lon="2.87249">
        <ele>903.117668</ele>
        <time>2021-07-08T14:35:27+0200</time>
      </trkpt>
      <trkpt lat="45.10878" lon="2.87254">
        <ele>902.983315</ele>
        <time>2021-07-08T14:35:28+0200</time>
      </trkpt>
      <trkpt lat="45.10872" lon="2.87259">
        <ele>902.622061</ele>
        <time>2021-07-08T14:35:29+0200</time>
      </trkpt>
      <trkpt lat="45.10865" lon="2.87263">
        <ele>902.146931</ele>
        <time>2021-07-08T14:35:30+0200</time>
      </trkpt>
      <trkpt lat="45.10859" lon="2.8727">
        <ele>900.87229</ele>
        <time>2021-07-08T14:35:31+0200</time>
      </trkpt>
      <trkpt lat="45.10853" lon="2.87275">
        <ele>900.105297</ele>
        <time>2021-07-08T14:35:32+0200</time>
      </trkpt>
      <trkpt lat="45.10846" lon="2.87279">
        <ele>899.608536</ele>
        <time>2021-07-08T14:35:33+0200</time>
      </trkpt>
      <trkpt lat="45.10835" lon="2.87288">
        <ele>897.69205</ele>
        <time>2021-07-08T14:35:35+0200</time>
      </trkpt>
      <trkpt lat="45.10826" lon="2.87295">
        <ele>897.377407</ele>
        <time>2021-07-08T14:35:36+0200</time>
      </trkpt>
      <trkpt lat="45.10819" lon="2.873">
        <ele>897.192201</ele>
        <time>2021-07-08T14:35:37+0200</time>
      </trkpt>
      <trkpt lat="45.10805" lon="2.87313">
        <ele>896.572611</ele>
        <time>2021-07-08T14:35:39+0200</time>
      </trkpt>
      <trkpt lat="45.10798" lon="2.87319">
        <ele>896.070996</ele>
        <time>2021-07-08T14:35:40+0200</time>
      </trkpt>
      <trkpt lat="45.1079" lon="2.87325">
        <ele>895.83987</ele>
        <time>2021-07-08T14:35:41+0200</time>
      </trkpt>
      <trkpt lat="45.10782" lon="2.87331">
        <ele>895.321753</ele>
        <time>2021-07-08T14:35:42+0200</time>
      </trkpt>
      <trkpt lat="45.10774" lon="2.87336">
        <ele>894.504427</ele>
        <time>2021-07-08T14:35:43+0200</time>
      </trkpt>
      <trkpt lat="45.10765" lon="2.87342">
        <ele>894.031551</ele>
        <time>2021-07-08T14:35:44+0200</time>
      </trkpt>
      <trkpt lat="45.10754" lon="2.87343">
        <ele>892.883465</ele>
        <time>2021-07-08T14:35:45+0200</time>
      </trkpt>
      <trkpt lat="45.10744" lon="2.87347">
        <ele>891.48173</ele>
        <time>2021-07-08T14:35:46+0200</time>
      </trkpt>
      <trkpt lat="45.10735" lon="2.8735">
        <ele>891.479172</ele>
        <time>2021-07-08T14:35:47+0200</time>
      </trkpt>
      <trkpt lat="45.10726" lon="2.87354">
        <ele>891.44225</ele>
        <time>2021-07-08T14:35:48+0200</time>
      </trkpt>
      <trkpt lat="45.10718" lon="2.87356">
        <ele>890.860662</ele>
        <time>2021-07-08T14:35:49+0200</time>
      </trkpt>
      <trkpt lat="45.10706" lon="2.87358">
        <ele>890.25428</ele>
        <time>2021-07-08T14:35:50+0200</time>
      </trkpt>
      <trkpt lat="45.10697" lon="2.87358">
        <ele>889.74988</ele>
        <time>2021-07-08T14:35:51+0200</time>
      </trkpt>
      <trkpt lat="45.1069" lon="2.87358">
        <ele>889.302141</ele>
        <time>2021-07-08T14:35:52+0200</time>
      </trkpt>
      <trkpt lat="45.10677" lon="2.87354">
        <ele>888.510007</ele>
        <time>2021-07-08T14:35:53+0200</time>
      </trkpt>
      <trkpt lat="45.10666" lon="2.8735">
        <ele>887.444126</ele>
        <time>2021-07-08T14:35:54+0200</time>
      </trkpt>
      <trkpt lat="45.10657" lon="2.87345">
        <ele>886.471119</ele>
        <time>2021-07-08T14:35:55+0200</time>
      </trkpt>
      <trkpt lat="45.10647" lon="2.87337">
        <ele>885.709964</ele>
        <time>2021-07-08T14:35:56+0200</time>
      </trkpt>
      <trkpt lat="45.1064" lon="2.87327">
        <ele>884.655092</ele>
        <time>2021-07-08T14:35:57+0200</time>
      </trkpt>
      <trkpt lat="45.10633" lon="2.87318">
        <ele>884.457656</ele>
        <time>2021-07-08T14:35:58+0200</time>
      </trkpt>
      <trkpt lat="45.10624" lon="2.87307">
        <ele>884.602282</ele>
        <time>2021-07-08T14:35:59+0200</time>
      </trkpt>
      <trkpt lat="45.10617" lon="2.87298">
        <ele>884.535792</ele>
        <time>2021-07-08T14:36:00+0200</time>
      </trkpt>
      <trkpt lat="45.10609" lon="2.87288">
        <ele>884.610981</ele>
        <time>2021-07-08T14:36:01+0200</time>
      </trkpt>
      <trkpt lat="45.10602" lon="2.87279">
        <ele>884.968766</ele>
        <time>2021-07-08T14:36:02+0200</time>
      </trkpt>
      <trkpt lat="45.10595" lon="2.87272">
        <ele>884.909665</ele>
        <time>2021-07-08T14:36:03+0200</time>
      </trkpt>
      <trkpt lat="45.10588" lon="2.87265">
        <ele>885.255635</ele>
        <time>2021-07-08T14:36:04+0200</time>
      </trkpt>
      <trkpt lat="45.1058" lon="2.87261">
        <ele>884.912137</ele>
        <time>2021-07-08T14:36:05+0200</time>
      </trkpt>
      <trkpt lat="45.10574" lon="2.87259">
        <ele>884.863844</ele>
        <time>2021-07-08T14:36:06+0200</time>
      </trkpt>
      <trkpt lat="45.10553" lon="2.87258">
        <ele>884.30581</ele>
        <time>2021-07-08T14:36:08+0200</time>
      </trkpt>
      <trkpt lat="45.10545" lon="2.87258">
        <ele>884.425052</ele>
        <time>2021-07-08T14:36:09+0200</time>
      </trkpt>
      <trkpt lat="45.1054" lon="2.87258">
        <ele>884.26176</ele>
        <time>2021-07-08T14:36:10+0200</time>
      </trkpt>
      <trkpt lat="45.10534" lon="2.87259">
        <ele>884.016479</ele>
        <time>2021-07-08T14:36:11+0200</time>
      </trkpt>
      <trkpt lat="45.10527" lon="2.87261">
        <ele>883.800093</ele>
        <time>2021-07-08T14:36:12+0200</time>
      </trkpt>
      <trkpt lat="45.10521" lon="2.87265">
        <ele>884.218933</ele>
        <time>2021-07-08T14:36:13+0200</time>
      </trkpt>
      <trkpt lat="45.10507" lon="2.87284">
        <ele>883.55912</ele>
        <time>2021-07-08T14:36:15+0200</time>
      </trkpt>
      <trkpt lat="45.10503" lon="2.87293">
        <ele>883.237748</ele>
        <time>2021-07-08T14:36:16+0200</time>
      </trkpt>
      <trkpt lat="45.10499" lon="2.87304">
        <ele>882.70508</ele>
        <time>2021-07-08T14:36:17+0200</time>
      </trkpt>
      <trkpt lat="45.10497" lon="2.87314">
        <ele>882.200148</ele>
        <time>2021-07-08T14:36:18+0200</time>
      </trkpt>
      <trkpt lat="45.10495" lon="2.87324">
        <ele>881.860768</ele>
        <time>2021-07-08T14:36:19+0200</time>
      </trkpt>
      <trkpt lat="45.10493" lon="2.87334">
        <ele>881.672598</ele>
        <time>2021-07-08T14:36:20+0200</time>
      </trkpt>
      <trkpt lat="45.1049" lon="2.87345">
        <ele>881.483306</ele>
        <time>2021-07-08T14:36:21+0200</time>
      </trkpt>
      <trkpt lat="45.10488" lon="2.87354">
        <ele>881.014832</ele>
        <time>2021-07-08T14:36:22+0200</time>
      </trkpt>
      <trkpt lat="45.10486" lon="2.87364">
        <ele>881.106137</ele>
        <time>2021-07-08T14:36:23+0200</time>
      </trkpt>
      <trkpt lat="45.10484" lon="2.87375">
        <ele>881.345783</ele>
        <time>2021-07-08T14:36:24+0200</time>
      </trkpt>
      <trkpt lat="45.10482" lon="2.87385">
        <ele>881.233552</ele>
        <time>2021-07-08T14:36:25+0200</time>
      </trkpt>
      <trkpt lat="45.1048" lon="2.87394">
        <ele>882.870762</ele>
        <time>2021-07-08T14:36:26+0200</time>
      </trkpt>
      <trkpt lat="45.10478" lon="2.87404">
        <ele>883.608614</ele>
        <time>2021-07-08T14:36:27+0200</time>
      </trkpt>
      <trkpt lat="45.10476" lon="2.87413">
        <ele>883.99481</ele>
        <time>2021-07-08T14:36:28+0200</time>
      </trkpt>
      <trkpt lat="45.10474" lon="2.87422">
        <ele>884.235043</ele>
        <time>2021-07-08T14:36:29+0200</time>
      </trkpt>
      <trkpt lat="45.10473" lon="2.8743">
        <ele>884.030494</ele>
        <time>2021-07-08T14:36:30+0200</time>
      </trkpt>
      <trkpt lat="45.10472" lon="2.87438">
        <ele>883.784686</ele>
        <time>2021-07-08T14:36:31+0200</time>
      </trkpt>
      <trkpt lat="45.1047" lon="2.87446">
        <ele>883.841151</ele>
        <time>2021-07-08T14:36:32+0200</time>
      </trkpt>
      <trkpt lat="45.10469" lon="2.87454">
        <ele>883.961701</ele>
        <time>2021-07-08T14:36:33+0200</time>
      </trkpt>
      <trkpt lat="45.10468" lon="2.87463">
        <ele>883.809631</ele>
        <time>2021-07-08T14:36:34+0200</time>
      </trkpt>
      <trkpt lat="45.10466" lon="2.87472">
        <ele>884.105413</ele>
        <time>2021-07-08T14:36:35+0200</time>
      </trkpt>
      <trkpt lat="45.10465" lon="2.8748">
        <ele>883.666494</ele>
        <time>2021-07-08T14:36:36+0200</time>
      </trkpt>
      <trkpt lat="45.10465" lon="2.87487">
        <ele>884.025741</ele>
        <time>2021-07-08T14:36:37+0200</time>
      </trkpt>
      <trkpt lat="45.10463" lon="2.87497">
        <ele>884.12131</ele>
        <time>2021-07-08T14:36:38+0200</time>
      </trkpt>
      <trkpt lat="45.10462" lon="2.87504">
        <ele>884.064078</ele>
        <time>2021-07-08T14:36:39+0200</time>
      </trkpt>
      <trkpt lat="45.1046" lon="2.87511">
        <ele>884.237743</ele>
        <time>2021-07-08T14:36:40+0200</time>
      </trkpt>
      <trkpt lat="45.10456" lon="2.87525">
        <ele>884.376951</ele>
        <time>2021-07-08T14:36:42+0200</time>
      </trkpt>
      <trkpt lat="45.10455" lon="2.87532">
        <ele>884.308907</ele>
        <time>2021-07-08T14:36:43+0200</time>
      </trkpt>
      <trkpt lat="45.10452" lon="2.87539">
        <ele>884.27313</ele>
        <time>2021-07-08T14:36:44+0200</time>
      </trkpt>
      <trkpt lat="45.1045" lon="2.87547">
        <ele>884.505912</ele>
        <time>2021-07-08T14:36:45+0200</time>
      </trkpt>
      <trkpt lat="45.10447" lon="2.87554">
        <ele>884.564108</ele>
        <time>2021-07-08T14:36:46+0200</time>
      </trkpt>
      <trkpt lat="45.10444" lon="2.87561">
        <ele>884.877436</ele>
        <time>2021-07-08T14:36:47+0200</time>
      </trkpt>
      <trkpt lat="45.10441" lon="2.87567">
        <ele>885.154755</ele>
        <time>2021-07-08T14:36:48+0200</time>
      </trkpt>
      <trkpt lat="45.10438" lon="2.87573">
        <ele>885.355796</ele>
        <time>2021-07-08T14:36:49+0200</time>
      </trkpt>
      <trkpt lat="45.10434" lon="2.87579">
        <ele>885.619899</ele>
        <time>2021-07-08T14:36:50+0200</time>
      </trkpt>
      <trkpt lat="45.1043" lon="2.87584">
        <ele>885.742801</ele>
        <time>2021-07-08T14:36:51+0200</time>
      </trkpt>
      <trkpt lat="45.10425" lon="2.87589">
        <ele>885.743591</ele>
        <time>2021-07-08T14:36:52+0200</time>
      </trkpt>
      <trkpt lat="45.10421" lon="2.87594">
        <ele>885.632024</ele>
        <time>2021-07-08T14:36:53+0200</time>
      </trkpt>
      <trkpt lat="45.10417" lon="2.87599">
        <ele>885.744803</ele>
        <time>2021-07-08T14:36:54+0200</time>
      </trkpt>
      <trkpt lat="45.10412" lon="2.87602">
        <ele>885.605551</ele>
        <time>2021-07-08T14:36:55+0200</time>
      </trkpt>
      <trkpt lat="45.10407" lon="2.87606">
        <ele>885.691306</ele>
        <time>2021-07-08T14:36:56+0200</time>
      </trkpt>
      <trkpt lat="45.10402" lon="2.8761">
        <ele>886.006787</ele>
        <time>2021-07-08T14:36:57+0200</time>
      </trkpt>
      <trkpt lat="45.10397" lon="2.87614">
        <ele>886.094349</ele>
        <time>2021-07-08T14:36:58+0200</time>
      </trkpt>
      <trkpt lat="45.10392" lon="2.87617">
        <ele>886.15803</ele>
        <time>2021-07-08T14:36:59+0200</time>
      </trkpt>
      <trkpt lat="45.10386" lon="2.87621">
        <ele>886.457105</ele>
        <time>2021-07-08T14:37:00+0200</time>
      </trkpt>
      <trkpt lat="45.10381" lon="2.87625">
        <ele>886.613363</ele>
        <time>2021-07-08T14:37:01+0200</time>
      </trkpt>
      <trkpt lat="45.10375" lon="2.87629">
        <ele>886.689355</ele>
        <time>2021-07-08T14:37:02+0200</time>
      </trkpt>
      <trkpt lat="45.10369" lon="2.87634">
        <ele>886.686207</ele>
        <time>2021-07-08T14:37:03+0200</time>
      </trkpt>
      <trkpt lat="45.10365" lon="2.87639">
        <ele>886.407974</ele>
        <time>2021-07-08T14:37:04+0200</time>
      </trkpt>
      <trkpt lat="45.1036" lon="2.87643">
        <ele>886.059393</ele>
        <time>2021-07-08T14:37:05+0200</time>
      </trkpt>
      <trkpt lat="45.10351" lon="2.87653">
        <ele>885.788642</ele>
        <time>2021-07-08T14:37:07+0200</time>
      </trkpt>
      <trkpt lat="45.10346" lon="2.87659">
        <ele>885.513576</ele>
        <time>2021-07-08T14:37:08+0200</time>
      </trkpt>
      <trkpt lat="45.10341" lon="2.87664">
        <ele>885.281294</ele>
        <time>2021-07-08T14:37:09+0200</time>
      </trkpt>
      <trkpt lat="45.10335" lon="2.87671">
        <ele>885.025902</ele>
        <time>2021-07-08T14:37:10+0200</time>
      </trkpt>
      <trkpt lat="45.1033" lon="2.87677">
        <ele>884.687766</ele>
        <time>2021-07-08T14:37:11+0200</time>
      </trkpt>
      <trkpt lat="45.10326" lon="2.87683">
        <ele>884.846272</ele>
        <time>2021-07-08T14:37:12+0200</time>
      </trkpt>
      <trkpt lat="45.10322" lon="2.8769">
        <ele>884.758363</ele>
        <time>2021-07-08T14:37:13+0200</time>
      </trkpt>
      <trkpt lat="45.10318" lon="2.87697">
        <ele>884.779972</ele>
        <time>2021-07-08T14:37:14+0200</time>
      </trkpt>
      <trkpt lat="45.10315" lon="2.87704">
        <ele>884.846189</ele>
        <time>2021-07-08T14:37:15+0200</time>
      </trkpt>
      <trkpt lat="45.10311" lon="2.87711">
        <ele>884.840636</ele>
        <time>2021-07-08T14:37:16+0200</time>
      </trkpt>
      <trkpt lat="45.10308" lon="2.87717">
        <ele>884.920087</ele>
        <time>2021-07-08T14:37:17+0200</time>
      </trkpt>
      <trkpt lat="45.10304" lon="2.87724">
        <ele>884.805399</ele>
        <time>2021-07-08T14:37:18+0200</time>
      </trkpt>
      <trkpt lat="45.103" lon="2.8773">
        <ele>884.936652</ele>
        <time>2021-07-08T14:37:19+0200</time>
      </trkpt>
      <trkpt lat="45.10297" lon="2.87737">
        <ele>885.096525</ele>
        <time>2021-07-08T14:37:20+0200</time>
      </trkpt>
      <trkpt lat="45.10294" lon="2.87744">
        <ele>885.402391</ele>
        <time>2021-07-08T14:37:21+0200</time>
      </trkpt>
      <trkpt lat="45.10291" lon="2.8775">
        <ele>885.496923</ele>
        <time>2021-07-08T14:37:22+0200</time>
      </trkpt>
      <trkpt lat="45.10287" lon="2.87757">
        <ele>885.818712</ele>
        <time>2021-07-08T14:37:23+0200</time>
      </trkpt>
      <trkpt lat="45.10284" lon="2.87763">
        <ele>885.994737</ele>
        <time>2021-07-08T14:37:24+0200</time>
      </trkpt>
      <trkpt lat="45.10281" lon="2.87768">
        <ele>886.245304</ele>
        <time>2021-07-08T14:37:25+0200</time>
      </trkpt>
      <trkpt lat="45.10278" lon="2.87774">
        <ele>886.232992</ele>
        <time>2021-07-08T14:37:26+0200</time>
      </trkpt>
      <trkpt lat="45.10275" lon="2.8778">
        <ele>886.428555</ele>
        <time>2021-07-08T14:37:27+0200</time>
      </trkpt>
      <trkpt lat="45.1027" lon="2.8779">
        <ele>886.368987</ele>
        <time>2021-07-08T14:37:29+0200</time>
      </trkpt>
      <trkpt lat="45.10267" lon="2.87796">
        <ele>886.607477</ele>
        <time>2021-07-08T14:37:30+0200</time>
      </trkpt>
      <trkpt lat="45.10262" lon="2.87806">
        <ele>886.916202</ele>
        <time>2021-07-08T14:37:32+0200</time>
      </trkpt>
      <trkpt lat="45.10259" lon="2.87811">
        <ele>887.29261</ele>
        <time>2021-07-08T14:37:33+0200</time>
      </trkpt>
      <trkpt lat="45.10255" lon="2.87822">
        <ele>888.068362</ele>
        <time>2021-07-08T14:37:35+0200</time>
      </trkpt>
      <trkpt lat="45.10249" lon="2.87831">
        <ele>888.576735</ele>
        <time>2021-07-08T14:37:37+0200</time>
      </trkpt>
      <trkpt lat="45.10244" lon="2.87841">
        <ele>889.13169</ele>
        <time>2021-07-08T14:37:39+0200</time>
      </trkpt>
      <trkpt lat="45.10239" lon="2.8785">
        <ele>889.913027</ele>
        <time>2021-07-08T14:37:41+0200</time>
      </trkpt>
      <trkpt lat="45.10235" lon="2.8786">
        <ele>890.833832</ele>
        <time>2021-07-08T14:37:43+0200</time>
      </trkpt>
      <trkpt lat="45.10231" lon="2.8787">
        <ele>891.191917</ele>
        <time>2021-07-08T14:37:45+0200</time>
      </trkpt>
      <trkpt lat="45.10225" lon="2.87878">
        <ele>891.056817</ele>
        <time>2021-07-08T14:37:47+0200</time>
      </trkpt>
      <trkpt lat="45.10218" lon="2.87879">
        <ele>890.930906</ele>
        <time>2021-07-08T14:37:49+0200</time>
      </trkpt>
      <trkpt lat="45.10213" lon="2.87878">
        <ele>890.426691</ele>
        <time>2021-07-08T14:37:51+0200</time>
      </trkpt>
      <trkpt lat="45.10208" lon="2.87879">
        <ele>891.706536</ele>
        <time>2021-07-08T14:37:53+0200</time>
      </trkpt>
      <trkpt lat="45.10201" lon="2.87879">
        <ele>893.09387</ele>
        <time>2021-07-08T14:37:56+0200</time>
      </trkpt>
      <trkpt lat="45.10196" lon="2.87879">
        <ele>893.261835</ele>
        <time>2021-07-08T14:37:58+0200</time>
      </trkpt>
      <trkpt lat="45.10191" lon="2.87875">
        <ele>894.194216</ele>
        <time>2021-07-08T14:38:01+0200</time>
      </trkpt>
      <trkpt lat="45.1019" lon="2.87866">
        <ele>895.539836</ele>
        <time>2021-07-08T14:38:05+0200</time>
      </trkpt>
      <trkpt lat="45.10193" lon="2.87858">
        <ele>896.225004</ele>
        <time>2021-07-08T14:38:08+0200</time>
      </trkpt>
      <trkpt lat="45.10195" lon="2.87852">
        <ele>895.729466</ele>
        <time>2021-07-08T14:38:10+0200</time>
      </trkpt>
      <trkpt lat="45.10198" lon="2.87844">
        <ele>895.781666</ele>
        <time>2021-07-08T14:38:13+0200</time>
      </trkpt>
      <trkpt lat="45.10201" lon="2.87836">
        <ele>896.053796</ele>
        <time>2021-07-08T14:38:16+0200</time>
      </trkpt>
      <trkpt lat="45.10202" lon="2.87827">
        <ele>895.915694</ele>
        <time>2021-07-08T14:38:19+0200</time>
      </trkpt>
      <trkpt lat="45.10202" lon="2.8782">
        <ele>895.856947</ele>
        <time>2021-07-08T14:38:21+0200</time>
      </trkpt>
      <trkpt lat="45.10203" lon="2.87814">
        <ele>896.05426</ele>
        <time>2021-07-08T14:38:23+0200</time>
      </trkpt>
      <trkpt lat="45.10203" lon="2.87806">
        <ele>895.893959</ele>
        <time>2021-07-08T14:38:25+0200</time>
      </trkpt>
      <trkpt lat="45.10203" lon="2.87799">
        <ele>896.257456</ele>
        <time>2021-07-08T14:38:27+0200</time>
      </trkpt>
      <trkpt lat="45.10203" lon="2.87792">
        <ele>896.636007</ele>
        <time>2021-07-08T14:38:29+0200</time>
      </trkpt>
      <trkpt lat="45.10203" lon="2.87785">
        <ele>896.907278</ele>
        <time>2021-07-08T14:38:31+0200</time>
      </trkpt>
      <trkpt lat="45.10203" lon="2.87776">
        <ele>896.599903</ele>
        <time>2021-07-08T14:38:33+0200</time>
      </trkpt>
      <trkpt lat="45.10204" lon="2.87769">
        <ele>896.933653</ele>
        <time>2021-07-08T14:38:35+0200</time>
      </trkpt>
      <trkpt lat="45.10204" lon="2.87763">
        <ele>896.862759</ele>
        <time>2021-07-08T14:38:37+0200</time>
      </trkpt>
      <trkpt lat="45.10204" lon="2.87756">
        <ele>896.901174</ele>
        <time>2021-07-08T14:38:39+0200</time>
      </trkpt>
      <trkpt lat="45.10204" lon="2.8775">
        <ele>896.986945</ele>
        <time>2021-07-08T14:38:41+0200</time>
      </trkpt>
      <trkpt lat="45.10204" lon="2.87743">
        <ele>897.150103</ele>
        <time>2021-07-08T14:38:43+0200</time>
      </trkpt>
      <trkpt lat="45.10204" lon="2.87736">
        <ele>897.733373</ele>
        <time>2021-07-08T14:38:45+0200</time>
      </trkpt>
      <trkpt lat="45.10204" lon="2.87728">
        <ele>898.419569</ele>
        <time>2021-07-08T14:38:47+0200</time>
      </trkpt>
      <trkpt lat="45.10204" lon="2.8772">
        <ele>898.79281</ele>
        <time>2021-07-08T14:38:49+0200</time>
      </trkpt>
      <trkpt lat="45.10203" lon="2.87712">
        <ele>899.716906</ele>
        <time>2021-07-08T14:38:51+0200</time>
      </trkpt>
      <trkpt lat="45.10203" lon="2.87703">
        <ele>900.154587</ele>
        <time>2021-07-08T14:38:53+0200</time>
      </trkpt>
      <trkpt lat="45.10204" lon="2.87696">
        <ele>900.407072</ele>
        <time>2021-07-08T14:38:55+0200</time>
      </trkpt>
      <trkpt lat="45.10203" lon="2.87689">
        <ele>900.838703</ele>
        <time>2021-07-08T14:38:57+0200</time>
      </trkpt>
      <trkpt lat="45.10203" lon="2.87682">
        <ele>901.071698</ele>
        <time>2021-07-08T14:38:59+0200</time>
      </trkpt>
      <trkpt lat="45.10203" lon="2.87673">
        <ele>901.286067</ele>
        <time>2021-07-08T14:39:02+0200</time>
      </trkpt>
      <trkpt lat="45.10203" lon="2.87663">
        <ele>902.262662</ele>
        <time>2021-07-08T14:39:05+0200</time>
      </trkpt>
      <trkpt lat="45.10203" lon="2.87656">
        <ele>903.410455</ele>
        <time>2021-07-08T14:39:07+0200</time>
      </trkpt>
      <trkpt lat="45.10203" lon="2.87649">
        <ele>904.006704</ele>
        <time>2021-07-08T14:39:09+0200</time>
      </trkpt>
      <trkpt lat="45.10202" lon="2.8764">
        <ele>905.077305</ele>
        <time>2021-07-08T14:39:11+0200</time>
      </trkpt>
      <trkpt lat="45.10202" lon="2.87634">
        <ele>905.097109</ele>
        <time>2021-07-08T14:39:13+0200</time>
      </trkpt>
      <trkpt lat="45.10203" lon="2.87624">
        <ele>905.890142</ele>
        <time>2021-07-08T14:39:16+0200</time>
      </trkpt>
      <trkpt lat="45.10204" lon="2.87617">
        <ele>905.98613</ele>
        <time>2021-07-08T14:39:18+0200</time>
      </trkpt>
      <trkpt lat="45.10204" lon="2.8761">
        <ele>905.99648</ele>
        <time>2021-07-08T14:39:20+0200</time>
      </trkpt>
      <trkpt lat="45.10204" lon="2.87603">
        <ele>906.348366</ele>
        <time>2021-07-08T14:39:22+0200</time>
      </trkpt>
      <trkpt lat="45.10204" lon="2.87594">
        <ele>907.501106</ele>
        <time>2021-07-08T14:39:25+0200</time>
      </trkpt>
      <trkpt lat="45.10202" lon="2.87586">
        <ele>908.48274</ele>
        <time>2021-07-08T14:39:28+0200</time>
      </trkpt>
      <trkpt lat="45.10199" lon="2.87577">
        <ele>909.399492</ele>
        <time>2021-07-08T14:39:31+0200</time>
      </trkpt>
      <trkpt lat="45.10196" lon="2.87571">
        <ele>910.0339</ele>
        <time>2021-07-08T14:39:33+0200</time>
      </trkpt>
      <trkpt lat="45.10192" lon="2.87567">
        <ele>910.50118</ele>
        <time>2021-07-08T14:39:35+0200</time>
      </trkpt>
      <trkpt lat="45.10188" lon="2.87562">
        <ele>910.911919</ele>
        <time>2021-07-08T14:39:37+0200</time>
      </trkpt>
      <trkpt lat="45.10185" lon="2.87558">
        <ele>911.450025</ele>
        <time>2021-07-08T14:39:39+0200</time>
      </trkpt>
      <trkpt lat="45.1018" lon="2.87553">
        <ele>911.592623</ele>
        <time>2021-07-08T14:39:41+0200</time>
      </trkpt>
      <trkpt lat="45.10176" lon="2.87547">
        <ele>911.511088</ele>
        <time>2021-07-08T14:39:43+0200</time>
      </trkpt>
      <trkpt lat="45.1017" lon="2.87541">
        <ele>911.748174</ele>
        <time>2021-07-08T14:39:45+0200</time>
      </trkpt>
      <trkpt lat="45.10165" lon="2.87535">
        <ele>911.497827</ele>
        <time>2021-07-08T14:39:47+0200</time>
      </trkpt>
      <trkpt lat="45.10161" lon="2.87531">
        <ele>912.19859</ele>
        <time>2021-07-08T14:39:49+0200</time>
      </trkpt>
      <trkpt lat="45.10156" lon="2.87525">
        <ele>912.551292</ele>
        <time>2021-07-08T14:39:51+0200</time>
      </trkpt>
      <trkpt lat="45.10151" lon="2.87518">
        <ele>913.228278</ele>
        <time>2021-07-08T14:39:53+0200</time>
      </trkpt>
      <trkpt lat="45.10145" lon="2.87509">
        <ele>913.008416</ele>
        <time>2021-07-08T14:39:55+0200</time>
      </trkpt>
      <trkpt lat="45.10139" lon="2.87501">
        <ele>913.17856</ele>
        <time>2021-07-08T14:39:57+0200</time>
      </trkpt>
      <trkpt lat="45.10133" lon="2.87494">
        <ele>913.400714</ele>
        <time>2021-07-08T14:39:59+0200</time>
      </trkpt>
      <trkpt lat="45.10129" lon="2.87489">
        <ele>914.308842</ele>
        <time>2021-07-08T14:40:01+0200</time>
      </trkpt>
      <trkpt lat="45.10124" lon="2.87486">
        <ele>915.998848</ele>
        <time>2021-07-08T14:40:03+0200</time>
      </trkpt>
      <trkpt lat="45.10118" lon="2.87482">
        <ele>915.532638</ele>
        <time>2021-07-08T14:40:06+0200</time>
      </trkpt>
      <trkpt lat="45.10113" lon="2.8748">
        <ele>915.162642</ele>
        <time>2021-07-08T14:40:08+0200</time>
      </trkpt>
      <trkpt lat="45.10109" lon="2.87477">
        <ele>914.967822</ele>
        <time>2021-07-08T14:40:10+0200</time>
      </trkpt>
      <trkpt lat="45.10105" lon="2.87473">
        <ele>915.034085</ele>
        <time>2021-07-08T14:40:12+0200</time>
      </trkpt>
      <trkpt lat="45.10101" lon="2.87468">
        <ele>914.788555</ele>
        <time>2021-07-08T14:40:14+0200</time>
      </trkpt>
      <trkpt lat="45.10099" lon="2.87462">
        <ele>915.082052</ele>
        <time>2021-07-08T14:40:16+0200</time>
      </trkpt>
      <trkpt lat="45.10096" lon="2.87455">
        <ele>916.73703</ele>
        <time>2021-07-08T14:40:18+0200</time>
      </trkpt>
      <trkpt lat="45.10093" lon="2.87449">
        <ele>917.709711</ele>
        <time>2021-07-08T14:40:20+0200</time>
      </trkpt>
      <trkpt lat="45.10091" lon="2.87442">
        <ele>918.57643</ele>
        <time>2021-07-08T14:40:22+0200</time>
      </trkpt>
      <trkpt lat="45.1009" lon="2.87433">
        <ele>919.367562</ele>
        <time>2021-07-08T14:40:25+0200</time>
      </trkpt>
      <trkpt lat="45.10091" lon="2.87425">
        <ele>919.290896</ele>
        <time>2021-07-08T14:40:27+0200</time>
      </trkpt>
      <trkpt lat="45.1009" lon="2.87417">
        <ele>919.56517</ele>
        <time>2021-07-08T14:40:30+0200</time>
      </trkpt>
      <trkpt lat="45.1009" lon="2.87409">
        <ele>920.675898</ele>
        <time>2021-07-08T14:40:33+0200</time>
      </trkpt>
      <trkpt lat="45.10088" lon="2.87402">
        <ele>921.118337</ele>
        <time>2021-07-08T14:40:36+0200</time>
      </trkpt>
      <trkpt lat="45.10088" lon="2.87395">
        <ele>922.327407</ele>
        <time>2021-07-08T14:40:38+0200</time>
      </trkpt>
      <trkpt lat="45.10087" lon="2.87388">
        <ele>923.137671</ele>
        <time>2021-07-08T14:40:40+0200</time>
      </trkpt>
      <trkpt lat="45.10085" lon="2.87382">
        <ele>923.924117</ele>
        <time>2021-07-08T14:40:43+0200</time>
      </trkpt>
      <trkpt lat="45.10083" lon="2.87376">
        <ele>924.162126</ele>
        <time>2021-07-08T14:40:46+0200</time>
      </trkpt>
      <trkpt lat="45.10081" lon="2.87369">
        <ele>924.452915</ele>
        <time>2021-07-08T14:40:48+0200</time>
      </trkpt>
      <trkpt lat="45.10079" lon="2.87362">
        <ele>924.877283</ele>
        <time>2021-07-08T14:40:51+0200</time>
      </trkpt>
      <trkpt lat="45.10077" lon="2.87354">
        <ele>925.726487</ele>
        <time>2021-07-08T14:40:54+0200</time>
      </trkpt>
      <trkpt lat="45.10074" lon="2.87347">
        <ele>927.015343</ele>
        <time>2021-07-08T14:40:58+0200</time>
      </trkpt>
      <trkpt lat="45.10072" lon="2.87341">
        <ele>927.679405</ele>
        <time>2021-07-08T14:41:02+0200</time>
      </trkpt>
      <trkpt lat="45.1007" lon="2.87335">
        <ele>927.804592</ele>
        <time>2021-07-08T14:41:05+0200</time>
      </trkpt>
      <trkpt lat="45.10068" lon="2.87328">
        <ele>929.165944</ele>
        <time>2021-07-08T14:41:08+0200</time>
      </trkpt>
      <trkpt lat="45.10065" lon="2.8732">
        <ele>930.744606</ele>
        <time>2021-07-08T14:41:12+0200</time>
      </trkpt>
      <trkpt lat="45.10062" lon="2.8731">
        <ele>930.834805</ele>
        <time>2021-07-08T14:41:15+0200</time>
      </trkpt>
      <trkpt lat="45.1006" lon="2.87304">
        <ele>931.460278</ele>
        <time>2021-07-08T14:41:18+0200</time>
      </trkpt>
      <trkpt lat="45.10059" lon="2.87296">
        <ele>931.725621</ele>
        <time>2021-07-08T14:41:22+0200</time>
      </trkpt>
      <trkpt lat="45.10057" lon="2.87289">
        <ele>932.589026</ele>
        <time>2021-07-08T14:41:26+0200</time>
      </trkpt>
      <trkpt lat="45.10054" lon="2.87282">
        <ele>933.812804</ele>
        <time>2021-07-08T14:41:29+0200</time>
      </trkpt>
      <trkpt lat="45.1005" lon="2.87276">
        <ele>934.595863</ele>
        <time>2021-07-08T14:41:32+0200</time>
      </trkpt>
      <trkpt lat="45.10046" lon="2.8727">
        <ele>935.297277</ele>
        <time>2021-07-08T14:41:35+0200</time>
      </trkpt>
      <trkpt lat="45.10042" lon="2.87265">
        <ele>935.77669</ele>
        <time>2021-07-08T14:41:39+0200</time>
      </trkpt>
      <trkpt lat="45.10039" lon="2.87259">
        <ele>936.418532</ele>
        <time>2021-07-08T14:41:42+0200</time>
      </trkpt>
      <trkpt lat="45.10036" lon="2.87254">
        <ele>936.976727</ele>
        <time>2021-07-08T14:41:45+0200</time>
      </trkpt>
      <trkpt lat="45.10033" lon="2.87246">
        <ele>937.853451</ele>
        <time>2021-07-08T14:41:48+0200</time>
      </trkpt>
      <trkpt lat="45.1003" lon="2.87239">
        <ele>937.960559</ele>
        <time>2021-07-08T14:41:51+0200</time>
      </trkpt>
      <trkpt lat="45.10027" lon="2.87233">
        <ele>938.005708</ele>
        <time>2021-07-08T14:41:54+0200</time>
      </trkpt>
      <trkpt lat="45.10022" lon="2.87228">
        <ele>937.824994</ele>
        <time>2021-07-08T14:41:57+0200</time>
      </trkpt>
      <trkpt lat="45.10019" lon="2.87223">
        <ele>938.796726</ele>
        <time>2021-07-08T14:42:00+0200</time>
      </trkpt>
      <trkpt lat="45.10015" lon="2.87218">
        <ele>939.431953</ele>
        <time>2021-07-08T14:42:03+0200</time>
      </trkpt>
      <trkpt lat="45.10011" lon="2.87214">
        <ele>939.92549</ele>
        <time>2021-07-08T14:42:06+0200</time>
      </trkpt>
      <trkpt lat="45.10008" lon="2.87207">
        <ele>940.744779</ele>
        <time>2021-07-08T14:42:09+0200</time>
      </trkpt>
      <trkpt lat="45.10005" lon="2.87202">
        <ele>942.119569</ele>
        <time>2021-07-08T14:42:12+0200</time>
      </trkpt>
      <trkpt lat="45.1" lon="2.87196">
        <ele>943.42555</ele>
        <time>2021-07-08T14:42:16+0200</time>
      </trkpt>
      <trkpt lat="45.09997" lon="2.87189">
        <ele>944.38947</ele>
        <time>2021-07-08T14:42:20+0200</time>
      </trkpt>
      <trkpt lat="45.09998" lon="2.87181">
        <ele>945.257583</ele>
        <time>2021-07-08T14:42:23+0200</time>
      </trkpt>
      <trkpt lat="45.09999" lon="2.87173">
        <ele>945.316433</ele>
        <time>2021-07-08T14:42:26+0200</time>
      </trkpt>
      <trkpt lat="45.1" lon="2.87167">
        <ele>946.12704</ele>
        <time>2021-07-08T14:42:29+0200</time>
      </trkpt>
      <trkpt lat="45.10002" lon="2.87159">
        <ele>946.265001</ele>
        <time>2021-07-08T14:42:32+0200</time>
      </trkpt>
      <trkpt lat="45.10002" lon="2.87152">
        <ele>946.106062</ele>
        <time>2021-07-08T14:42:35+0200</time>
      </trkpt>
      <trkpt lat="45.10005" lon="2.87144">
        <ele>947.514286</ele>
        <time>2021-07-08T14:42:39+0200</time>
      </trkpt>
      <trkpt lat="45.10006" lon="2.87137">
        <ele>948.639314</ele>
        <time>2021-07-08T14:42:42+0200</time>
      </trkpt>
      <trkpt lat="45.10008" lon="2.87128">
        <ele>949.458826</ele>
        <time>2021-07-08T14:42:46+0200</time>
      </trkpt>
      <trkpt lat="45.1001" lon="2.87121">
        <ele>949.417272</ele>
        <time>2021-07-08T14:42:49+0200</time>
      </trkpt>
      <trkpt lat="45.10011" lon="2.87113">
        <ele>949.429645</ele>
        <time>2021-07-08T14:42:52+0200</time>
      </trkpt>
      <trkpt lat="45.10013" lon="2.87107">
        <ele>949.624494</ele>
        <time>2021-07-08T14:42:55+0200</time>
      </trkpt>
      <trkpt lat="45.10015" lon="2.87099">
        <ele>950.198657</ele>
        <time>2021-07-08T14:42:58+0200</time>
      </trkpt>
      <trkpt lat="45.10017" lon="2.87091">
        <ele>951.161995</ele>
        <time>2021-07-08T14:43:01+0200</time>
      </trkpt>
      <trkpt lat="45.10019" lon="2.87084">
        <ele>952.334983</ele>
        <time>2021-07-08T14:43:04+0200</time>
      </trkpt>
      <trkpt lat="45.10021" lon="2.87078">
        <ele>953.436445</ele>
        <time>2021-07-08T14:43:07+0200</time>
      </trkpt>
      <trkpt lat="45.10022" lon="2.8707">
        <ele>953.750485</ele>
        <time>2021-07-08T14:43:10+0200</time>
      </trkpt>
      <trkpt lat="45.10024" lon="2.87064">
        <ele>954.853252</ele>
        <time>2021-07-08T14:43:13+0200</time>
      </trkpt>
      <trkpt lat="45.10026" lon="2.87058">
        <ele>954.621647</ele>
        <time>2021-07-08T14:43:16+0200</time>
      </trkpt>
      <trkpt lat="45.10027" lon="2.87051">
        <ele>955.364954</ele>
        <time>2021-07-08T14:43:19+0200</time>
      </trkpt>
      <trkpt lat="45.10029" lon="2.87043">
        <ele>956.370352</ele>
        <time>2021-07-08T14:43:22+0200</time>
      </trkpt>
      <trkpt lat="45.10034" lon="2.87038">
        <ele>957.493596</ele>
        <time>2021-07-08T14:43:26+0200</time>
      </trkpt>
      <trkpt lat="45.10038" lon="2.87032">
        <ele>958.234533</ele>
        <time>2021-07-08T14:43:30+0200</time>
      </trkpt>
      <trkpt lat="45.10042" lon="2.87028">
        <ele>958.78048</ele>
        <time>2021-07-08T14:43:33+0200</time>
      </trkpt>
      <trkpt lat="45.10047" lon="2.87024">
        <ele>958.64187</ele>
        <time>2021-07-08T14:43:37+0200</time>
      </trkpt>
      <trkpt lat="45.10046" lon="2.87014">
        <ele>959.319211</ele>
        <time>2021-07-08T14:43:41+0200</time>
      </trkpt>
      <trkpt lat="45.10051" lon="2.87012">
        <ele>958.372168</ele>
        <time>2021-07-08T14:44:19+0200</time>
      </trkpt>
      <trkpt lat="45.10047" lon="2.87015">
        <ele>959.405425</ele>
        <time>2021-07-08T14:44:47+0200</time>
      </trkpt>
      <trkpt lat="45.10051" lon="2.87011">
        <ele>959.169466</ele>
        <time>2021-07-08T14:45:12+0200</time>
      </trkpt>
      <trkpt lat="45.10054" lon="2.87005">
        <ele>960.162569</ele>
        <time>2021-07-08T14:45:24+0200</time>
      </trkpt>
      <trkpt lat="45.10052" lon="2.86997">
        <ele>959.324434</ele>
        <time>2021-07-08T14:45:30+0200</time>
      </trkpt>
      <trkpt lat="45.10051" lon="2.86989">
        <ele>959.122841</ele>
        <time>2021-07-08T14:45:33+0200</time>
      </trkpt>
      <trkpt lat="45.10048" lon="2.86982">
        <ele>958.82353</ele>
        <time>2021-07-08T14:45:36+0200</time>
      </trkpt>
      <trkpt lat="45.10043" lon="2.86976">
        <ele>960.068321</ele>
        <time>2021-07-08T14:45:40+0200</time>
      </trkpt>
      <trkpt lat="45.1004" lon="2.8697">
        <ele>960.025944</ele>
        <time>2021-07-08T14:45:43+0200</time>
      </trkpt>
      <trkpt lat="45.10037" lon="2.86964">
        <ele>960.645954</ele>
        <time>2021-07-08T14:45:45+0200</time>
      </trkpt>
      <trkpt lat="45.10035" lon="2.86958">
        <ele>960.981148</ele>
        <time>2021-07-08T14:45:48+0200</time>
      </trkpt>
      <trkpt lat="45.10032" lon="2.86952">
        <ele>961.841066</ele>
        <time>2021-07-08T14:45:51+0200</time>
      </trkpt>
      <trkpt lat="45.10027" lon="2.86946">
        <ele>961.986823</ele>
        <time>2021-07-08T14:45:54+0200</time>
      </trkpt>
      <trkpt lat="45.10023" lon="2.8694">
        <ele>962.450444</ele>
        <time>2021-07-08T14:45:57+0200</time>
      </trkpt>
      <trkpt lat="45.10019" lon="2.86933">
        <ele>962.833511</ele>
        <time>2021-07-08T14:46:00+0200</time>
      </trkpt>
      <trkpt lat="45.10016" lon="2.86926">
        <ele>963.643441</ele>
        <time>2021-07-08T14:46:03+0200</time>
      </trkpt>
      <trkpt lat="45.10012" lon="2.8692">
        <ele>965.124637</ele>
        <time>2021-07-08T14:46:06+0200</time>
      </trkpt>
      <trkpt lat="45.10007" lon="2.86915">
        <ele>964.709718</ele>
        <time>2021-07-08T14:46:09+0200</time>
      </trkpt>
      <trkpt lat="45.10004" lon="2.86909">
        <ele>966.362751</ele>
        <time>2021-07-08T14:46:12+0200</time>
      </trkpt>
      <trkpt lat="45.1" lon="2.86904">
        <ele>967.08021</ele>
        <time>2021-07-08T14:46:15+0200</time>
      </trkpt>
      <trkpt lat="45.09995" lon="2.86897">
        <ele>967.098868</ele>
        <time>2021-07-08T14:46:18+0200</time>
      </trkpt>
      <trkpt lat="45.09992" lon="2.86889">
        <ele>966.35011</ele>
        <time>2021-07-08T14:46:21+0200</time>
      </trkpt>
      <trkpt lat="45.09989" lon="2.86884">
        <ele>966.097702</ele>
        <time>2021-07-08T14:46:23+0200</time>
      </trkpt>
      <trkpt lat="45.09985" lon="2.86879">
        <ele>966.14689</ele>
        <time>2021-07-08T14:46:25+0200</time>
      </trkpt>
      <trkpt lat="45.09982" lon="2.86872">
        <ele>966.191936</ele>
        <time>2021-07-08T14:46:27+0200</time>
      </trkpt>
      <trkpt lat="45.09977" lon="2.86866">
        <ele>965.489274</ele>
        <time>2021-07-08T14:46:29+0200</time>
      </trkpt>
      <trkpt lat="45.09972" lon="2.8686">
        <ele>964.943006</ele>
        <time>2021-07-08T14:46:31+0200</time>
      </trkpt>
      <trkpt lat="45.09968" lon="2.86852">
        <ele>964.192295</ele>
        <time>2021-07-08T14:46:33+0200</time>
      </trkpt>
      <trkpt lat="45.09964" lon="2.86844">
        <ele>964.435827</ele>
        <time>2021-07-08T14:46:35+0200</time>
      </trkpt>
      <trkpt lat="45.09961" lon="2.86837">
        <ele>964.205383</ele>
        <time>2021-07-08T14:46:37+0200</time>
      </trkpt>
      <trkpt lat="45.09957" lon="2.86832">
        <ele>964.011275</ele>
        <time>2021-07-08T14:46:39+0200</time>
      </trkpt>
      <trkpt lat="45.09954" lon="2.86826">
        <ele>964.234996</ele>
        <time>2021-07-08T14:46:41+0200</time>
      </trkpt>
      <trkpt lat="45.0995" lon="2.86819">
        <ele>964.818113</ele>
        <time>2021-07-08T14:46:43+0200</time>
      </trkpt>
      <trkpt lat="45.09946" lon="2.8681">
        <ele>965.029991</ele>
        <time>2021-07-08T14:46:45+0200</time>
      </trkpt>
      <trkpt lat="45.09943" lon="2.86804">
        <ele>965.92518</ele>
        <time>2021-07-08T14:46:47+0200</time>
      </trkpt>
      <trkpt lat="45.09938" lon="2.86797">
        <ele>966.433256</ele>
        <time>2021-07-08T14:46:50+0200</time>
      </trkpt>
      <trkpt lat="45.09933" lon="2.86791">
        <ele>966.459799</ele>
        <time>2021-07-08T14:46:52+0200</time>
      </trkpt>
      <trkpt lat="45.09929" lon="2.86787">
        <ele>966.808136</ele>
        <time>2021-07-08T14:46:54+0200</time>
      </trkpt>
      <trkpt lat="45.09925" lon="2.86782">
        <ele>967.614437</ele>
        <time>2021-07-08T14:46:56+0200</time>
      </trkpt>
      <trkpt lat="45.09921" lon="2.86778">
        <ele>967.701622</ele>
        <time>2021-07-08T14:46:58+0200</time>
      </trkpt>
      <trkpt lat="45.09916" lon="2.86773">
        <ele>968.03564</ele>
        <time>2021-07-08T14:47:00+0200</time>
      </trkpt>
      <trkpt lat="45.09912" lon="2.86767">
        <ele>968.363788</ele>
        <time>2021-07-08T14:47:03+0200</time>
      </trkpt>
      <trkpt lat="45.09908" lon="2.86761">
        <ele>968.382547</ele>
        <time>2021-07-08T14:47:05+0200</time>
      </trkpt>
      <trkpt lat="45.09904" lon="2.86757">
        <ele>968.24159</ele>
        <time>2021-07-08T14:47:07+0200</time>
      </trkpt>
      <trkpt lat="45.099" lon="2.86752">
        <ele>968.573782</ele>
        <time>2021-07-08T14:47:09+0200</time>
      </trkpt>
      <trkpt lat="45.09896" lon="2.86747">
        <ele>968.754622</ele>
        <time>2021-07-08T14:47:11+0200</time>
      </trkpt>
      <trkpt lat="45.09892" lon="2.86741">
        <ele>969.220707</ele>
        <time>2021-07-08T14:47:13+0200</time>
      </trkpt>
      <trkpt lat="45.09888" lon="2.86734">
        <ele>968.834792</ele>
        <time>2021-07-08T14:47:15+0200</time>
      </trkpt>
      <trkpt lat="45.09884" lon="2.86729">
        <ele>968.301284</ele>
        <time>2021-07-08T14:47:17+0200</time>
      </trkpt>
      <trkpt lat="45.09881" lon="2.86723">
        <ele>968.983287</ele>
        <time>2021-07-08T14:47:19+0200</time>
      </trkpt>
      <trkpt lat="45.09878" lon="2.86717">
        <ele>970.089032</ele>
        <time>2021-07-08T14:47:21+0200</time>
      </trkpt>
      <trkpt lat="45.09873" lon="2.86713">
        <ele>969.469281</ele>
        <time>2021-07-08T14:47:23+0200</time>
      </trkpt>
      <trkpt lat="45.09869" lon="2.86706">
        <ele>971.601474</ele>
        <time>2021-07-08T14:47:26+0200</time>
      </trkpt>
      <trkpt lat="45.09865" lon="2.86699">
        <ele>973.259586</ele>
        <time>2021-07-08T14:47:29+0200</time>
      </trkpt>
      <trkpt lat="45.09863" lon="2.8669">
        <ele>972.732872</ele>
        <time>2021-07-08T14:47:33+0200</time>
      </trkpt>
      <trkpt lat="45.0986" lon="2.86681">
        <ele>972.489461</ele>
        <time>2021-07-08T14:47:36+0200</time>
      </trkpt>
      <trkpt lat="45.09859" lon="2.86673">
        <ele>972.674858</ele>
        <time>2021-07-08T14:47:39+0200</time>
      </trkpt>
      <trkpt lat="45.09858" lon="2.86665">
        <ele>973.175617</ele>
        <time>2021-07-08T14:47:42+0200</time>
      </trkpt>
      <trkpt lat="45.09857" lon="2.86657">
        <ele>973.041881</ele>
        <time>2021-07-08T14:47:44+0200</time>
      </trkpt>
      <trkpt lat="45.09855" lon="2.86647">
        <ele>973.023776</ele>
        <time>2021-07-08T14:47:46+0200</time>
      </trkpt>
      <trkpt lat="45.09855" lon="2.8664">
        <ele>972.699667</ele>
        <time>2021-07-08T14:47:48+0200</time>
      </trkpt>
      <trkpt lat="45.09853" lon="2.86631">
        <ele>971.875239</ele>
        <time>2021-07-08T14:47:50+0200</time>
      </trkpt>
      <trkpt lat="45.09851" lon="2.86622">
        <ele>972.211364</ele>
        <time>2021-07-08T14:47:52+0200</time>
      </trkpt>
      <trkpt lat="45.0985" lon="2.86614">
        <ele>972.665765</ele>
        <time>2021-07-08T14:47:54+0200</time>
      </trkpt>
      <trkpt lat="45.0985" lon="2.86608">
        <ele>972.931202</ele>
        <time>2021-07-08T14:47:56+0200</time>
      </trkpt>
      <trkpt lat="45.09848" lon="2.86599">
        <ele>973.784299</ele>
        <time>2021-07-08T14:47:58+0200</time>
      </trkpt>
      <trkpt lat="45.09848" lon="2.8659">
        <ele>972.274154</ele>
        <time>2021-07-08T14:48:00+0200</time>
      </trkpt>
      <trkpt lat="45.09848" lon="2.86584">
        <ele>972.71618</ele>
        <time>2021-07-08T14:48:02+0200</time>
      </trkpt>
      <trkpt lat="45.09847" lon="2.86576">
        <ele>972.632929</ele>
        <time>2021-07-08T14:48:04+0200</time>
      </trkpt>
      <trkpt lat="45.09846" lon="2.86568">
        <ele>972.72586</ele>
        <time>2021-07-08T14:48:06+0200</time>
      </trkpt>
      <trkpt lat="45.09844" lon="2.8656">
        <ele>972.941573</ele>
        <time>2021-07-08T14:48:08+0200</time>
      </trkpt>
      <trkpt lat="45.09842" lon="2.86554">
        <ele>973.853779</ele>
        <time>2021-07-08T14:48:10+0200</time>
      </trkpt>
      <trkpt lat="45.09842" lon="2.86546">
        <ele>973.451959</ele>
        <time>2021-07-08T14:48:12+0200</time>
      </trkpt>
      <trkpt lat="45.09839" lon="2.86537">
        <ele>973.761832</ele>
        <time>2021-07-08T14:48:14+0200</time>
      </trkpt>
      <trkpt lat="45.09837" lon="2.8653">
        <ele>973.847497</ele>
        <time>2021-07-08T14:48:16+0200</time>
      </trkpt>
      <trkpt lat="45.09835" lon="2.86521">
        <ele>974.073764</ele>
        <time>2021-07-08T14:48:18+0200</time>
      </trkpt>
      <trkpt lat="45.09833" lon="2.86513">
        <ele>974.379622</ele>
        <time>2021-07-08T14:48:20+0200</time>
      </trkpt>
      <trkpt lat="45.0983" lon="2.86503">
        <ele>974.48954</ele>
        <time>2021-07-08T14:48:23+0200</time>
      </trkpt>
      <trkpt lat="45.09828" lon="2.86496">
        <ele>975.445673</ele>
        <time>2021-07-08T14:48:26+0200</time>
      </trkpt>
      <trkpt lat="45.09827" lon="2.86486">
        <ele>975.751539</ele>
        <time>2021-07-08T14:48:29+0200</time>
      </trkpt>
      <trkpt lat="45.09825" lon="2.86478">
        <ele>974.343827</ele>
        <time>2021-07-08T14:48:32+0200</time>
      </trkpt>
      <trkpt lat="45.09824" lon="2.8647">
        <ele>975.736751</ele>
        <time>2021-07-08T14:48:34+0200</time>
      </trkpt>
      <trkpt lat="45.09824" lon="2.86462">
        <ele>975.869466</ele>
        <time>2021-07-08T14:48:36+0200</time>
      </trkpt>
      <trkpt lat="45.09822" lon="2.86456">
        <ele>976.038033</ele>
        <time>2021-07-08T14:48:38+0200</time>
      </trkpt>
      <trkpt lat="45.09821" lon="2.86447">
        <ele>976.531292</ele>
        <time>2021-07-08T14:48:41+0200</time>
      </trkpt>
      <trkpt lat="45.09819" lon="2.8644">
        <ele>976.118419</ele>
        <time>2021-07-08T14:48:43+0200</time>
      </trkpt>
      <trkpt lat="45.09817" lon="2.86434">
        <ele>975.321841</ele>
        <time>2021-07-08T14:48:45+0200</time>
      </trkpt>
      <trkpt lat="45.09816" lon="2.86425">
        <ele>976.079007</ele>
        <time>2021-07-08T14:48:47+0200</time>
      </trkpt>
      <trkpt lat="45.09816" lon="2.86413">
        <ele>977.421972</ele>
        <time>2021-07-08T14:48:49+0200</time>
      </trkpt>
      <trkpt lat="45.09815" lon="2.864">
        <ele>977.674023</ele>
        <time>2021-07-08T14:48:51+0200</time>
      </trkpt>
      <trkpt lat="45.09815" lon="2.86393">
        <ele>978.092181</ele>
        <time>2021-07-08T14:48:52+0200</time>
      </trkpt>
      <trkpt lat="45.09816" lon="2.86387">
        <ele>977.915711</ele>
        <time>2021-07-08T14:48:53+0200</time>
      </trkpt>
      <trkpt lat="45.09818" lon="2.86379">
        <ele>978.164382</ele>
        <time>2021-07-08T14:48:54+0200</time>
      </trkpt>
      <trkpt lat="45.09819" lon="2.86373">
        <ele>976.962696</ele>
        <time>2021-07-08T14:48:55+0200</time>
      </trkpt>
      <trkpt lat="45.0982" lon="2.86365">
        <ele>977.187624</ele>
        <time>2021-07-08T14:48:56+0200</time>
      </trkpt>
      <trkpt lat="45.0982" lon="2.86357">
        <ele>977.394981</ele>
        <time>2021-07-08T14:48:57+0200</time>
      </trkpt>
      <trkpt lat="45.09821" lon="2.8635">
        <ele>977.610486</ele>
        <time>2021-07-08T14:48:58+0200</time>
      </trkpt>
      <trkpt lat="45.09819" lon="2.86342">
        <ele>977.328478</ele>
        <time>2021-07-08T14:48:59+0200</time>
      </trkpt>
      <trkpt lat="45.09818" lon="2.86332">
        <ele>977.167273</ele>
        <time>2021-07-08T14:49:01+0200</time>
      </trkpt>
      <trkpt lat="45.09817" lon="2.86323">
        <ele>976.763659</ele>
        <time>2021-07-08T14:49:03+0200</time>
      </trkpt>
      <trkpt lat="45.09816" lon="2.86315">
        <ele>974.963326</ele>
        <time>2021-07-08T14:49:05+0200</time>
      </trkpt>
      <trkpt lat="45.09815" lon="2.86309">
        <ele>975.091291</ele>
        <time>2021-07-08T14:49:08+0200</time>
      </trkpt>
      <trkpt lat="45.09814" lon="2.86301">
        <ele>975.806744</ele>
        <time>2021-07-08T14:49:10+0200</time>
      </trkpt>
      <trkpt lat="45.09813" lon="2.86292">
        <ele>976.60235</ele>
        <time>2021-07-08T14:49:12+0200</time>
      </trkpt>
      <trkpt lat="45.09812" lon="2.86284">
        <ele>976.471352</ele>
        <time>2021-07-08T14:49:14+0200</time>
      </trkpt>
      <trkpt lat="45.09811" lon="2.86274">
        <ele>976.897437</ele>
        <time>2021-07-08T14:49:16+0200</time>
      </trkpt>
      <trkpt lat="45.0981" lon="2.86266">
        <ele>974.166277</ele>
        <time>2021-07-08T14:49:18+0200</time>
      </trkpt>
      <trkpt lat="45.09809" lon="2.86258">
        <ele>972.809216</ele>
        <time>2021-07-08T14:49:20+0200</time>
      </trkpt>
      <trkpt lat="45.09808" lon="2.86251">
        <ele>973.610029</ele>
        <time>2021-07-08T14:49:22+0200</time>
      </trkpt>
      <trkpt lat="45.09806" lon="2.86244">
        <ele>973.552659</ele>
        <time>2021-07-08T14:49:24+0200</time>
      </trkpt>
      <trkpt lat="45.09805" lon="2.86237">
        <ele>973.662544</ele>
        <time>2021-07-08T14:49:26+0200</time>
      </trkpt>
      <trkpt lat="45.09806" lon="2.8623">
        <ele>973.818873</ele>
        <time>2021-07-08T14:49:28+0200</time>
      </trkpt>
      <trkpt lat="45.09804" lon="2.86223">
        <ele>975.357978</ele>
        <time>2021-07-08T14:49:30+0200</time>
      </trkpt>
      <trkpt lat="45.09803" lon="2.86216">
        <ele>977.276273</ele>
        <time>2021-07-08T14:49:33+0200</time>
      </trkpt>
      <trkpt lat="45.09802" lon="2.86208">
        <ele>976.993977</ele>
        <time>2021-07-08T14:50:21+0200</time>
      </trkpt>
      <trkpt lat="45.09802" lon="2.86201">
        <ele>976.030902</ele>
        <time>2021-07-08T14:50:23+0200</time>
      </trkpt>
      <trkpt lat="45.098" lon="2.86193">
        <ele>976.15538</ele>
        <time>2021-07-08T14:50:25+0200</time>
      </trkpt>
      <trkpt lat="45.09799" lon="2.86186">
        <ele>976.218674</ele>
        <time>2021-07-08T14:50:27+0200</time>
      </trkpt>
      <trkpt lat="45.09797" lon="2.86178">
        <ele>974.658567</ele>
        <time>2021-07-08T14:50:29+0200</time>
      </trkpt>
      <trkpt lat="45.09796" lon="2.8617">
        <ele>974.498493</ele>
        <time>2021-07-08T14:50:31+0200</time>
      </trkpt>
      <trkpt lat="45.09797" lon="2.8616">
        <ele>976.187623</ele>
        <time>2021-07-08T14:50:33+0200</time>
      </trkpt>
      <trkpt lat="45.09797" lon="2.86153">
        <ele>977.233775</ele>
        <time>2021-07-08T14:50:34+0200</time>
      </trkpt>
      <trkpt lat="45.09798" lon="2.86146">
        <ele>978.367206</ele>
        <time>2021-07-08T14:50:35+0200</time>
      </trkpt>
      <trkpt lat="45.09797" lon="2.86136">
        <ele>977.811102</ele>
        <time>2021-07-08T14:50:37+0200</time>
      </trkpt>
      <trkpt lat="45.09798" lon="2.86126">
        <ele>977.701969</ele>
        <time>2021-07-08T14:50:39+0200</time>
      </trkpt>
      <trkpt lat="45.09797" lon="2.86118">
        <ele>978.356959</ele>
        <time>2021-07-08T14:50:41+0200</time>
      </trkpt>
      <trkpt lat="45.09796" lon="2.86109">
        <ele>978.104426</ele>
        <time>2021-07-08T14:50:44+0200</time>
      </trkpt>
      <trkpt lat="45.09793" lon="2.86101">
        <ele>980.141884</ele>
        <time>2021-07-08T14:50:47+0200</time>
      </trkpt>
      <trkpt lat="45.09792" lon="2.86094">
        <ele>980.330225</ele>
        <time>2021-07-08T14:50:49+0200</time>
      </trkpt>
      <trkpt lat="45.0979" lon="2.86088">
        <ele>980.237107</ele>
        <time>2021-07-08T14:50:51+0200</time>
      </trkpt>
      <trkpt lat="45.09788" lon="2.8608">
        <ele>979.760788</ele>
        <time>2021-07-08T14:50:53+0200</time>
      </trkpt>
      <trkpt lat="45.09785" lon="2.86074">
        <ele>980.366058</ele>
        <time>2021-07-08T14:50:55+0200</time>
      </trkpt>
      <trkpt lat="45.09783" lon="2.86065">
        <ele>983.07586</ele>
        <time>2021-07-08T14:50:58+0200</time>
      </trkpt>
      <trkpt lat="45.09781" lon="2.86057">
        <ele>983.817201</ele>
        <time>2021-07-08T14:51:01+0200</time>
      </trkpt>
      <trkpt lat="45.09777" lon="2.86051">
        <ele>982.945859</ele>
        <time>2021-07-08T14:51:05+0200</time>
      </trkpt>
      <trkpt lat="45.09777" lon="2.86042">
        <ele>986.394827</ele>
        <time>2021-07-08T14:51:09+0200</time>
      </trkpt>
      <trkpt lat="45.09772" lon="2.86034">
        <ele>988.602361</ele>
        <time>2021-07-08T14:51:12+0200</time>
      </trkpt>
      <trkpt lat="45.09771" lon="2.86026">
        <ele>989.786291</ele>
        <time>2021-07-08T14:51:16+0200</time>
      </trkpt>
      <trkpt lat="45.0977" lon="2.86019">
        <ele>992.825369</ele>
        <time>2021-07-08T14:51:20+0200</time>
      </trkpt>
      <trkpt lat="45.09768" lon="2.86012">
        <ele>992.459767</ele>
        <time>2021-07-08T14:51:25+0200</time>
      </trkpt>
      <trkpt lat="45.09767" lon="2.86004">
        <ele>991.729841</ele>
        <time>2021-07-08T14:51:28+0200</time>
      </trkpt>
      <trkpt lat="45.09765" lon="2.85996">
        <ele>994.369491</ele>
        <time>2021-07-08T14:51:31+0200</time>
      </trkpt>
      <trkpt lat="45.09764" lon="2.8599">
        <ele>995.046919</ele>
        <time>2021-07-08T14:51:35+0200</time>
      </trkpt>
      <trkpt lat="45.09762" lon="2.85982">
        <ele>993.684421</ele>
        <time>2021-07-08T14:51:39+0200</time>
      </trkpt>
      <trkpt lat="45.0976" lon="2.85975">
        <ele>995.472657</ele>
        <time>2021-07-08T14:51:42+0200</time>
      </trkpt>
      <trkpt lat="45.09758" lon="2.85968">
        <ele>995.491828</ele>
        <time>2021-07-08T14:51:45+0200</time>
      </trkpt>
      <trkpt lat="45.09757" lon="2.8596">
        <ele>994.393117</ele>
        <time>2021-07-08T14:51:48+0200</time>
      </trkpt>
      <trkpt lat="45.09755" lon="2.85953">
        <ele>995.579298</ele>
        <time>2021-07-08T14:51:52+0200</time>
      </trkpt>
      <trkpt lat="45.09751" lon="2.85946">
        <ele>996.805769</ele>
        <time>2021-07-08T14:51:57+0200</time>
      </trkpt>
      <trkpt lat="45.09751" lon="2.85939">
        <ele>997.51515</ele>
        <time>2021-07-08T14:52:00+0200</time>
      </trkpt>
      <trkpt lat="45.09751" lon="2.85932">
        <ele>996.360431</ele>
        <time>2021-07-08T14:52:04+0200</time>
      </trkpt>
      <trkpt lat="45.0975" lon="2.85925">
        <ele>997.390799</ele>
        <time>2021-07-08T14:52:07+0200</time>
      </trkpt>
      <trkpt lat="45.09749" lon="2.85918">
        <ele>995.925208</ele>
        <time>2021-07-08T14:52:10+0200</time>
      </trkpt>
      <trkpt lat="45.0975" lon="2.8591">
        <ele>996.156293</ele>
        <time>2021-07-08T14:52:12+0200</time>
      </trkpt>
      <trkpt lat="45.0975" lon="2.85899">
        <ele>997.631417</ele>
        <time>2021-07-08T14:52:14+0200</time>
      </trkpt>
      <trkpt lat="45.0975" lon="2.85888">
        <ele>997.020029</ele>
        <time>2021-07-08T14:52:16+0200</time>
      </trkpt>
      <trkpt lat="45.0975" lon="2.85879">
        <ele>996.485733</ele>
        <time>2021-07-08T14:52:18+0200</time>
      </trkpt>
      <trkpt lat="45.0975" lon="2.85868">
        <ele>995.940576</ele>
        <time>2021-07-08T14:52:20+0200</time>
      </trkpt>
      <trkpt lat="45.0975" lon="2.85858">
        <ele>997.217943</ele>
        <time>2021-07-08T14:52:22+0200</time>
      </trkpt>
      <trkpt lat="45.0975" lon="2.85847">
        <ele>996.194334</ele>
        <time>2021-07-08T14:52:24+0200</time>
      </trkpt>
      <trkpt lat="45.0975" lon="2.85836">
        <ele>996.151583</ele>
        <time>2021-07-08T14:52:26+0200</time>
      </trkpt>
      <trkpt lat="45.0975" lon="2.85827">
        <ele>996.86184</ele>
        <time>2021-07-08T14:52:28+0200</time>
      </trkpt>
      <trkpt lat="45.09751" lon="2.85818">
        <ele>994.509003</ele>
        <time>2021-07-08T14:52:30+0200</time>
      </trkpt>
      <trkpt lat="45.09751" lon="2.85808">
        <ele>995.961203</ele>
        <time>2021-07-08T14:52:32+0200</time>
      </trkpt>
      <trkpt lat="45.09751" lon="2.85801">
        <ele>997.003546</ele>
        <time>2021-07-08T14:52:34+0200</time>
      </trkpt>
      <trkpt lat="45.0975" lon="2.85794">
        <ele>995.675404</ele>
        <time>2021-07-08T14:52:37+0200</time>
      </trkpt>
      <trkpt lat="45.0975" lon="2.85787">
        <ele>995.648291</ele>
        <time>2021-07-08T14:52:39+0200</time>
      </trkpt>
      <trkpt lat="45.09749" lon="2.85779">
        <ele>997.498135</ele>
        <time>2021-07-08T14:52:41+0200</time>
      </trkpt>
      <trkpt lat="45.09748" lon="2.85771">
        <ele>998.267782</ele>
        <time>2021-07-08T14:52:43+0200</time>
      </trkpt>
      <trkpt lat="45.09746" lon="2.85761">
        <ele>999.732724</ele>
        <time>2021-07-08T14:52:46+0200</time>
      </trkpt>
      <trkpt lat="45.09745" lon="2.85751">
        <ele>1000.810207</ele>
        <time>2021-07-08T14:52:49+0200</time>
      </trkpt>
      <trkpt lat="45.09742" lon="2.85741">
        <ele>1001.075978</ele>
        <time>2021-07-08T14:52:52+0200</time>
      </trkpt>
      <trkpt lat="45.0974" lon="2.85733">
        <ele>1001.4539</ele>
        <time>2021-07-08T14:52:54+0200</time>
      </trkpt>
      <trkpt lat="45.09737" lon="2.85726">
        <ele>999.629061</ele>
        <time>2021-07-08T14:52:56+0200</time>
      </trkpt>
      <trkpt lat="45.09734" lon="2.8572">
        <ele>998.325273</ele>
        <time>2021-07-08T14:52:58+0200</time>
      </trkpt>
      <trkpt lat="45.09731" lon="2.85713">
        <ele>998.434237</ele>
        <time>2021-07-08T14:53:00+0200</time>
      </trkpt>
      <trkpt lat="45.09729" lon="2.85706">
        <ele>999.747326</ele>
        <time>2021-07-08T14:53:02+0200</time>
      </trkpt>
      <trkpt lat="45.09726" lon="2.85699">
        <ele>1000.003437</ele>
        <time>2021-07-08T14:53:05+0200</time>
      </trkpt>
      <trkpt lat="45.09723" lon="2.8569">
        <ele>999.902744</ele>
        <time>2021-07-08T14:53:07+0200</time>
      </trkpt>
      <trkpt lat="45.09722" lon="2.85681">
        <ele>1000.155681</ele>
        <time>2021-07-08T14:53:09+0200</time>
      </trkpt>
      <trkpt lat="45.09722" lon="2.85672">
        <ele>999.358625</ele>
        <time>2021-07-08T14:53:11+0200</time>
      </trkpt>
      <trkpt lat="45.09721" lon="2.8566">
        <ele>996.728507</ele>
        <time>2021-07-08T14:53:13+0200</time>
      </trkpt>
      <trkpt lat="45.0972" lon="2.85646">
        <ele>996.457538</ele>
        <time>2021-07-08T14:53:15+0200</time>
      </trkpt>
      <trkpt lat="45.09718" lon="2.85637">
        <ele>996.630125</ele>
        <time>2021-07-08T14:53:16+0200</time>
      </trkpt>
      <trkpt lat="45.09716" lon="2.85626">
        <ele>996.993097</ele>
        <time>2021-07-08T14:53:18+0200</time>
      </trkpt>
      <trkpt lat="45.09713" lon="2.85616">
        <ele>999.286026</ele>
        <time>2021-07-08T14:53:21+0200</time>
      </trkpt>
      <trkpt lat="45.09711" lon="2.8561">
        <ele>998.894252</ele>
        <time>2021-07-08T14:53:23+0200</time>
      </trkpt>
      <trkpt lat="45.09709" lon="2.85602">
        <ele>999.366655</ele>
        <time>2021-07-08T14:53:25+0200</time>
      </trkpt>
      <trkpt lat="45.09706" lon="2.85591">
        <ele>997.651324</ele>
        <time>2021-07-08T14:53:27+0200</time>
      </trkpt>
      <trkpt lat="45.09705" lon="2.85584">
        <ele>998.278298</ele>
        <time>2021-07-08T14:53:28+0200</time>
      </trkpt>
      <trkpt lat="45.09703" lon="2.85578">
        <ele>997.389631</ele>
        <time>2021-07-08T14:53:29+0200</time>
      </trkpt>
      <trkpt lat="45.09701" lon="2.85565">
        <ele>998.579483</ele>
        <time>2021-07-08T14:53:31+0200</time>
      </trkpt>
      <trkpt lat="45.09699" lon="2.85557">
        <ele>999.103513</ele>
        <time>2021-07-08T14:53:32+0200</time>
      </trkpt>
      <trkpt lat="45.09697" lon="2.85549">
        <ele>999.601433</ele>
        <time>2021-07-08T14:53:33+0200</time>
      </trkpt>
      <trkpt lat="45.09695" lon="2.85541">
        <ele>999.586994</ele>
        <time>2021-07-08T14:53:34+0200</time>
      </trkpt>
      <trkpt lat="45.09694" lon="2.85531">
        <ele>1000.153077</ele>
        <time>2021-07-08T14:53:35+0200</time>
      </trkpt>
      <trkpt lat="45.09688" lon="2.85524">
        <ele>1000.048273</ele>
        <time>2021-07-08T14:53:36+0200</time>
      </trkpt>
      <trkpt lat="45.09686" lon="2.85516">
        <ele>999.790115</ele>
        <time>2021-07-08T14:53:37+0200</time>
      </trkpt>
      <trkpt lat="45.09685" lon="2.8551">
        <ele>999.183711</ele>
        <time>2021-07-08T14:53:38+0200</time>
      </trkpt>
      <trkpt lat="45.09683" lon="2.85503">
        <ele>999.538283</ele>
        <time>2021-07-08T14:53:39+0200</time>
      </trkpt>
      <trkpt lat="45.09682" lon="2.85496">
        <ele>999.823469</ele>
        <time>2021-07-08T14:53:40+0200</time>
      </trkpt>
      <trkpt lat="45.09679" lon="2.85487">
        <ele>1000.212748</ele>
        <time>2021-07-08T14:53:42+0200</time>
      </trkpt>
      <trkpt lat="45.09677" lon="2.85481">
        <ele>999.764957</ele>
        <time>2021-07-08T14:53:43+0200</time>
      </trkpt>
      <trkpt lat="45.09673" lon="2.85475">
        <ele>997.975083</ele>
        <time>2021-07-08T14:53:46+0200</time>
      </trkpt>
      <trkpt lat="45.0967" lon="2.85469">
        <ele>997.872261</ele>
        <time>2021-07-08T14:53:49+0200</time>
      </trkpt>
      <trkpt lat="45.09668" lon="2.85464">
        <ele>996.127383</ele>
        <time>2021-07-08T14:53:51+0200</time>
      </trkpt>
      <trkpt lat="45.09663" lon="2.85455">
        <ele>994.734904</ele>
        <time>2021-07-08T14:53:53+0200</time>
      </trkpt>
      <trkpt lat="45.09659" lon="2.85455">
        <ele>996.000512</ele>
        <time>2021-07-08T14:54:22+0200</time>
      </trkpt>
      <trkpt lat="45.0966" lon="2.85443">
        <ele>997.653823</ele>
        <time>2021-07-08T14:54:25+0200</time>
      </trkpt>
      <trkpt lat="45.09659" lon="2.85432">
        <ele>996.738487</ele>
        <time>2021-07-08T14:54:27+0200</time>
      </trkpt>
      <trkpt lat="45.09659" lon="2.85424">
        <ele>996.636987</ele>
        <time>2021-07-08T14:54:28+0200</time>
      </trkpt>
      <trkpt lat="45.09659" lon="2.85416">
        <ele>996.122201</ele>
        <time>2021-07-08T14:54:29+0200</time>
      </trkpt>
      <trkpt lat="45.09657" lon="2.85407">
        <ele>995.536611</ele>
        <time>2021-07-08T14:54:30+0200</time>
      </trkpt>
      <trkpt lat="45.09657" lon="2.85397">
        <ele>995.006785</ele>
        <time>2021-07-08T14:54:31+0200</time>
      </trkpt>
      <trkpt lat="45.09656" lon="2.85386">
        <ele>994.894803</ele>
        <time>2021-07-08T14:54:32+0200</time>
      </trkpt>
      <trkpt lat="45.09656" lon="2.85375">
        <ele>995.264035</ele>
        <time>2021-07-08T14:54:33+0200</time>
      </trkpt>
      <trkpt lat="45.09655" lon="2.85363">
        <ele>995.319839</ele>
        <time>2021-07-08T14:54:34+0200</time>
      </trkpt>
      <trkpt lat="45.09654" lon="2.85351">
        <ele>995.273807</ele>
        <time>2021-07-08T14:54:35+0200</time>
      </trkpt>
      <trkpt lat="45.09654" lon="2.85342">
        <ele>995.16204</ele>
        <time>2021-07-08T14:54:36+0200</time>
      </trkpt>
      <trkpt lat="45.09652" lon="2.85332">
        <ele>994.451387</ele>
        <time>2021-07-08T14:54:37+0200</time>
      </trkpt>
      <trkpt lat="45.09651" lon="2.85321">
        <ele>993.452846</ele>
        <time>2021-07-08T14:54:38+0200</time>
      </trkpt>
      <trkpt lat="45.09649" lon="2.85311">
        <ele>992.782461</ele>
        <time>2021-07-08T14:54:39+0200</time>
      </trkpt>
      <trkpt lat="45.09647" lon="2.853">
        <ele>992.056981</ele>
        <time>2021-07-08T14:54:40+0200</time>
      </trkpt>
      <trkpt lat="45.09644" lon="2.8529">
        <ele>992.040247</ele>
        <time>2021-07-08T14:54:41+0200</time>
      </trkpt>
      <trkpt lat="45.09642" lon="2.8528">
        <ele>991.833012</ele>
        <time>2021-07-08T14:54:42+0200</time>
      </trkpt>
      <trkpt lat="45.09639" lon="2.8527">
        <ele>991.770073</ele>
        <time>2021-07-08T14:54:43+0200</time>
      </trkpt>
      <trkpt lat="45.09637" lon="2.85261">
        <ele>990.479988</ele>
        <time>2021-07-08T14:54:44+0200</time>
      </trkpt>
      <trkpt lat="45.09635" lon="2.85252">
        <ele>990.552403</ele>
        <time>2021-07-08T14:54:45+0200</time>
      </trkpt>
      <trkpt lat="45.09633" lon="2.85245">
        <ele>990.64526</ele>
        <time>2021-07-08T14:54:46+0200</time>
      </trkpt>
      <trkpt lat="45.09632" lon="2.85237">
        <ele>990.44365</ele>
        <time>2021-07-08T14:54:47+0200</time>
      </trkpt>
      <trkpt lat="45.0963" lon="2.8523">
        <ele>991.113818</ele>
        <time>2021-07-08T14:54:48+0200</time>
      </trkpt>
      <trkpt lat="45.09628" lon="2.85219">
        <ele>990.813176</ele>
        <time>2021-07-08T14:54:50+0200</time>
      </trkpt>
      <trkpt lat="45.09626" lon="2.85209">
        <ele>990.698843</ele>
        <time>2021-07-08T14:54:52+0200</time>
      </trkpt>
      <trkpt lat="45.09623" lon="2.85198">
        <ele>989.881066</ele>
        <time>2021-07-08T14:54:54+0200</time>
      </trkpt>
      <trkpt lat="45.09622" lon="2.85189">
        <ele>990.404399</ele>
        <time>2021-07-08T14:54:56+0200</time>
      </trkpt>
      <trkpt lat="45.09619" lon="2.85177">
        <ele>989.830298</ele>
        <time>2021-07-08T14:54:58+0200</time>
      </trkpt>
      <trkpt lat="45.0962" lon="2.85168">
        <ele>990.843648</ele>
        <time>2021-07-08T14:54:59+0200</time>
      </trkpt>
      <trkpt lat="45.09618" lon="2.85161">
        <ele>991.597683</ele>
        <time>2021-07-08T14:55:00+0200</time>
      </trkpt>
      <trkpt lat="45.09616" lon="2.85155">
        <ele>992.064645</ele>
        <time>2021-07-08T14:55:01+0200</time>
      </trkpt>
      <trkpt lat="45.09615" lon="2.85148">
        <ele>992.29168</ele>
        <time>2021-07-08T14:55:02+0200</time>
      </trkpt>
      <trkpt lat="45.09613" lon="2.85141">
        <ele>992.618778</ele>
        <time>2021-07-08T14:55:03+0200</time>
      </trkpt>
      <trkpt lat="45.09612" lon="2.85135">
        <ele>989.815449</ele>
        <time>2021-07-08T14:55:04+0200</time>
      </trkpt>
      <trkpt lat="45.09609" lon="2.85125">
        <ele>989.486689</ele>
        <time>2021-07-08T14:55:06+0200</time>
      </trkpt>
      <trkpt lat="45.09607" lon="2.85119">
        <ele>989.216891</ele>
        <time>2021-07-08T14:55:07+0200</time>
      </trkpt>
      <trkpt lat="45.09605" lon="2.85113">
        <ele>989.871401</ele>
        <time>2021-07-08T14:55:08+0200</time>
      </trkpt>
      <trkpt lat="45.09603" lon="2.85107">
        <ele>990.258462</ele>
        <time>2021-07-08T14:55:09+0200</time>
      </trkpt>
      <trkpt lat="45.09599" lon="2.85097">
        <ele>989.916469</ele>
        <time>2021-07-08T14:55:11+0200</time>
      </trkpt>
      <trkpt lat="45.09597" lon="2.85091">
        <ele>989.651137</ele>
        <time>2021-07-08T14:55:12+0200</time>
      </trkpt>
      <trkpt lat="45.09594" lon="2.85079">
        <ele>989.75712</ele>
        <time>2021-07-08T14:55:14+0200</time>
      </trkpt>
      <trkpt lat="45.09592" lon="2.85072">
        <ele>989.816181</ele>
        <time>2021-07-08T14:55:15+0200</time>
      </trkpt>
      <trkpt lat="45.0959" lon="2.85065">
        <ele>990.998388</ele>
        <time>2021-07-08T14:55:16+0200</time>
      </trkpt>
      <trkpt lat="45.09588" lon="2.85054">
        <ele>992.505511</ele>
        <time>2021-07-08T14:55:18+0200</time>
      </trkpt>
      <trkpt lat="45.09583" lon="2.85043">
        <ele>992.003094</ele>
        <time>2021-07-08T14:55:20+0200</time>
      </trkpt>
      <trkpt lat="45.09578" lon="2.85033">
        <ele>992.677548</ele>
        <time>2021-07-08T14:55:22+0200</time>
      </trkpt>
      <trkpt lat="45.09575" lon="2.85024">
        <ele>992.981672</ele>
        <time>2021-07-08T14:55:24+0200</time>
      </trkpt>
      <trkpt lat="45.0957" lon="2.85014">
        <ele>992.659314</ele>
        <time>2021-07-08T14:55:26+0200</time>
      </trkpt>
      <trkpt lat="45.09567" lon="2.85009">
        <ele>991.648794</ele>
        <time>2021-07-08T14:55:27+0200</time>
      </trkpt>
      <trkpt lat="45.09564" lon="2.85003">
        <ele>990.77171</ele>
        <time>2021-07-08T14:55:28+0200</time>
      </trkpt>
      <trkpt lat="45.0956" lon="2.84999">
        <ele>989.161708</ele>
        <time>2021-07-08T14:55:29+0200</time>
      </trkpt>
      <trkpt lat="45.09556" lon="2.84995">
        <ele>988.251682</ele>
        <time>2021-07-08T14:55:30+0200</time>
      </trkpt>
      <trkpt lat="45.09552" lon="2.84991">
        <ele>986.548686</ele>
        <time>2021-07-08T14:55:31+0200</time>
      </trkpt>
      <trkpt lat="45.09547" lon="2.84988">
        <ele>986.036079</ele>
        <time>2021-07-08T14:55:32+0200</time>
      </trkpt>
      <trkpt lat="45.09539" lon="2.84982">
        <ele>985.173322</ele>
        <time>2021-07-08T14:55:34+0200</time>
      </trkpt>
      <trkpt lat="45.09534" lon="2.84977">
        <ele>986.091028</ele>
        <time>2021-07-08T14:55:36+0200</time>
      </trkpt>
      <trkpt lat="45.09527" lon="2.8497">
        <ele>986.24086</ele>
        <time>2021-07-08T14:55:38+0200</time>
      </trkpt>
      <trkpt lat="45.0952" lon="2.84963">
        <ele>984.843585</ele>
        <time>2021-07-08T14:55:40+0200</time>
      </trkpt>
      <trkpt lat="45.09513" lon="2.84955">
        <ele>983.630396</ele>
        <time>2021-07-08T14:55:42+0200</time>
      </trkpt>
      <trkpt lat="45.09509" lon="2.8495">
        <ele>983.527138</ele>
        <time>2021-07-08T14:55:43+0200</time>
      </trkpt>
      <trkpt lat="45.09504" lon="2.84946">
        <ele>983.949535</ele>
        <time>2021-07-08T14:55:44+0200</time>
      </trkpt>
      <trkpt lat="45.09501" lon="2.84942">
        <ele>985.196638</ele>
        <time>2021-07-08T14:55:45+0200</time>
      </trkpt>
      <trkpt lat="45.09498" lon="2.84936">
        <ele>985.990692</ele>
        <time>2021-07-08T14:55:46+0200</time>
      </trkpt>
      <trkpt lat="45.09494" lon="2.84932">
        <ele>987.43707</ele>
        <time>2021-07-08T14:55:47+0200</time>
      </trkpt>
      <trkpt lat="45.09491" lon="2.84926">
        <ele>986.812376</ele>
        <time>2021-07-08T14:55:48+0200</time>
      </trkpt>
      <trkpt lat="45.09487" lon="2.8492">
        <ele>987.220513</ele>
        <time>2021-07-08T14:55:49+0200</time>
      </trkpt>
      <trkpt lat="45.09483" lon="2.84916">
        <ele>987.254677</ele>
        <time>2021-07-08T14:55:50+0200</time>
      </trkpt>
      <trkpt lat="45.09479" lon="2.84912">
        <ele>987.100543</ele>
        <time>2021-07-08T14:55:51+0200</time>
      </trkpt>
      <trkpt lat="45.09473" lon="2.84905">
        <ele>989.12849</ele>
        <time>2021-07-08T14:55:53+0200</time>
      </trkpt>
      <trkpt lat="45.09467" lon="2.84902">
        <ele>990.371668</ele>
        <time>2021-07-08T14:55:55+0200</time>
      </trkpt>
      <trkpt lat="45.09461" lon="2.84898">
        <ele>990.133137</ele>
        <time>2021-07-08T14:55:57+0200</time>
      </trkpt>
      <trkpt lat="45.09455" lon="2.84894">
        <ele>989.986091</ele>
        <time>2021-07-08T14:55:59+0200</time>
      </trkpt>
      <trkpt lat="45.09451" lon="2.8489">
        <ele>989.50083</ele>
        <time>2021-07-08T14:56:00+0200</time>
      </trkpt>
      <trkpt lat="45.09447" lon="2.84889">
        <ele>989.532245</ele>
        <time>2021-07-08T14:56:01+0200</time>
      </trkpt>
      <trkpt lat="45.09441" lon="2.84884">
        <ele>989.183951</ele>
        <time>2021-07-08T14:56:03+0200</time>
      </trkpt>
      <trkpt lat="45.09435" lon="2.84877">
        <ele>990.230379</ele>
        <time>2021-07-08T14:56:05+0200</time>
      </trkpt>
      <trkpt lat="45.09429" lon="2.84872">
        <ele>993.088726</ele>
        <time>2021-07-08T14:56:07+0200</time>
      </trkpt>
      <trkpt lat="45.09422" lon="2.84867">
        <ele>991.557718</ele>
        <time>2021-07-08T14:56:09+0200</time>
      </trkpt>
      <trkpt lat="45.09416" lon="2.84859">
        <ele>991.182707</ele>
        <time>2021-07-08T14:56:11+0200</time>
      </trkpt>
      <trkpt lat="45.09412" lon="2.84854">
        <ele>991.944646</ele>
        <time>2021-07-08T14:56:12+0200</time>
      </trkpt>
      <trkpt lat="45.09406" lon="2.84846">
        <ele>992.796066</ele>
        <time>2021-07-08T14:56:14+0200</time>
      </trkpt>
      <trkpt lat="45.09402" lon="2.84842">
        <ele>992.060446</ele>
        <time>2021-07-08T14:56:15+0200</time>
      </trkpt>
      <trkpt lat="45.09396" lon="2.84837">
        <ele>992.916846</ele>
        <time>2021-07-08T14:56:17+0200</time>
      </trkpt>
      <trkpt lat="45.09391" lon="2.8483">
        <ele>993.726583</ele>
        <time>2021-07-08T14:56:19+0200</time>
      </trkpt>
      <trkpt lat="45.09386" lon="2.84823">
        <ele>992.732688</ele>
        <time>2021-07-08T14:56:21+0200</time>
      </trkpt>
      <trkpt lat="45.09383" lon="2.84818">
        <ele>990.875522</ele>
        <time>2021-07-08T14:56:22+0200</time>
      </trkpt>
      <trkpt lat="45.09378" lon="2.84815">
        <ele>990.284802</ele>
        <time>2021-07-08T14:56:23+0200</time>
      </trkpt>
      <trkpt lat="45.09372" lon="2.84809">
        <ele>990.398757</ele>
        <time>2021-07-08T14:56:25+0200</time>
      </trkpt>
      <trkpt lat="45.09365" lon="2.84804">
        <ele>991.136881</ele>
        <time>2021-07-08T14:56:27+0200</time>
      </trkpt>
      <trkpt lat="45.09359" lon="2.84799">
        <ele>989.979454</ele>
        <time>2021-07-08T14:56:29+0200</time>
      </trkpt>
      <trkpt lat="45.09352" lon="2.84791">
        <ele>989.326985</ele>
        <time>2021-07-08T14:56:31+0200</time>
      </trkpt>
      <trkpt lat="45.09348" lon="2.84784">
        <ele>990.015542</ele>
        <time>2021-07-08T14:56:33+0200</time>
      </trkpt>
      <trkpt lat="45.09343" lon="2.84775">
        <ele>991.850794</ele>
        <time>2021-07-08T14:56:35+0200</time>
      </trkpt>
      <trkpt lat="45.09339" lon="2.84763">
        <ele>993.19128</ele>
        <time>2021-07-08T14:56:37+0200</time>
      </trkpt>
      <trkpt lat="45.09337" lon="2.84757">
        <ele>995.233704</ele>
        <time>2021-07-08T14:56:38+0200</time>
      </trkpt>
      <trkpt lat="45.09337" lon="2.8475">
        <ele>997.241757</ele>
        <time>2021-07-08T14:56:39+0200</time>
      </trkpt>
      <trkpt lat="45.09334" lon="2.8474">
        <ele>1000.108798</ele>
        <time>2021-07-08T14:56:41+0200</time>
      </trkpt>
      <trkpt lat="45.0933" lon="2.84732">
        <ele>1000.281055</ele>
        <time>2021-07-08T14:56:43+0200</time>
      </trkpt>
      <trkpt lat="45.09324" lon="2.84722">
        <ele>999.240911</ele>
        <time>2021-07-08T14:56:45+0200</time>
      </trkpt>
      <trkpt lat="45.09322" lon="2.84716">
        <ele>999.871467</ele>
        <time>2021-07-08T14:56:46+0200</time>
      </trkpt>
      <trkpt lat="45.0932" lon="2.8471">
        <ele>1000.36508</ele>
        <time>2021-07-08T14:56:47+0200</time>
      </trkpt>
      <trkpt lat="45.09315" lon="2.84698">
        <ele>1001.882717</ele>
        <time>2021-07-08T14:56:49+0200</time>
      </trkpt>
      <trkpt lat="45.09313" lon="2.84691">
        <ele>1002.583062</ele>
        <time>2021-07-08T14:56:50+0200</time>
      </trkpt>
      <trkpt lat="45.09311" lon="2.84685">
        <ele>1003.86703</ele>
        <time>2021-07-08T14:56:51+0200</time>
      </trkpt>
      <trkpt lat="45.09309" lon="2.84678">
        <ele>1002.902099</ele>
        <time>2021-07-08T14:56:52+0200</time>
      </trkpt>
      <trkpt lat="45.09305" lon="2.84673">
        <ele>1002.135466</ele>
        <time>2021-07-08T14:56:53+0200</time>
      </trkpt>
      <trkpt lat="45.09301" lon="2.84668">
        <ele>1001.786353</ele>
        <time>2021-07-08T14:56:54+0200</time>
      </trkpt>
      <trkpt lat="45.09307" lon="2.84651">
        <ele>1002.587444</ele>
        <time>2021-07-08T14:56:56+0200</time>
      </trkpt>
      <trkpt lat="45.09302" lon="2.84638">
        <ele>1000.79465</ele>
        <time>2021-07-08T14:56:58+0200</time>
      </trkpt>
      <trkpt lat="45.09299" lon="2.84631">
        <ele>1002.211506</ele>
        <time>2021-07-08T14:56:59+0200</time>
      </trkpt>
      <trkpt lat="45.09297" lon="2.84624">
        <ele>1000.998186</ele>
        <time>2021-07-08T14:57:00+0200</time>
      </trkpt>
      <trkpt lat="45.09293" lon="2.84613">
        <ele>998.518181</ele>
        <time>2021-07-08T14:57:02+0200</time>
      </trkpt>
      <trkpt lat="45.0929" lon="2.84607">
        <ele>998.175206</ele>
        <time>2021-07-08T14:57:03+0200</time>
      </trkpt>
      <trkpt lat="45.09288" lon="2.84601">
        <ele>998.850535</ele>
        <time>2021-07-08T14:57:04+0200</time>
      </trkpt>
      <trkpt lat="45.09284" lon="2.84591">
        <ele>997.133671</ele>
        <time>2021-07-08T14:57:06+0200</time>
      </trkpt>
      <trkpt lat="45.09281" lon="2.84582">
        <ele>998.811373</ele>
        <time>2021-07-08T14:57:08+0200</time>
      </trkpt>
      <trkpt lat="45.09278" lon="2.84575">
        <ele>997.29562</ele>
        <time>2021-07-08T14:57:10+0200</time>
      </trkpt>
      <trkpt lat="45.09275" lon="2.84567">
        <ele>997.533465</ele>
        <time>2021-07-08T14:57:12+0200</time>
      </trkpt>
      <trkpt lat="45.09271" lon="2.84558">
        <ele>996.388033</ele>
        <time>2021-07-08T14:57:14+0200</time>
      </trkpt>
      <trkpt lat="45.09268" lon="2.84549">
        <ele>996.788521</ele>
        <time>2021-07-08T14:57:16+0200</time>
      </trkpt>
      <trkpt lat="45.09265" lon="2.84541">
        <ele>999.30337</ele>
        <time>2021-07-08T14:57:18+0200</time>
      </trkpt>
      <trkpt lat="45.09262" lon="2.84534">
        <ele>998.781301</ele>
        <time>2021-07-08T14:57:20+0200</time>
      </trkpt>
      <trkpt lat="45.0926" lon="2.84527">
        <ele>998.802007</ele>
        <time>2021-07-08T14:57:22+0200</time>
      </trkpt>
      <trkpt lat="45.09252" lon="2.84522">
        <ele>998.603479</ele>
        <time>2021-07-08T14:57:24+0200</time>
      </trkpt>
      <trkpt lat="45.09248" lon="2.84512">
        <ele>998.213942</ele>
        <time>2021-07-08T14:57:26+0200</time>
      </trkpt>
      <trkpt lat="45.09243" lon="2.84504">
        <ele>996.095085</ele>
        <time>2021-07-08T14:57:28+0200</time>
      </trkpt>
      <trkpt lat="45.09237" lon="2.84498">
        <ele>995.285269</ele>
        <time>2021-07-08T14:57:30+0200</time>
      </trkpt>
      <trkpt lat="45.0923" lon="2.84494">
        <ele>995.156805</ele>
        <time>2021-07-08T14:57:32+0200</time>
      </trkpt>
      <trkpt lat="45.09224" lon="2.8449">
        <ele>995.671001</ele>
        <time>2021-07-08T14:57:34+0200</time>
      </trkpt>
      <trkpt lat="45.0922" lon="2.84485">
        <ele>995.332631</ele>
        <time>2021-07-08T14:57:36+0200</time>
      </trkpt>
      <trkpt lat="45.09219" lon="2.84478">
        <ele>995.815178</ele>
        <time>2021-07-08T14:57:38+0200</time>
      </trkpt>
      <trkpt lat="45.09221" lon="2.84471">
        <ele>996.450454</ele>
        <time>2021-07-08T14:57:40+0200</time>
      </trkpt>
      <trkpt lat="45.09223" lon="2.84465">
        <ele>997.284555</ele>
        <time>2021-07-08T14:57:42+0200</time>
      </trkpt>
      <trkpt lat="45.09225" lon="2.84457">
        <ele>998.140378</ele>
        <time>2021-07-08T14:57:45+0200</time>
      </trkpt>
      <trkpt lat="45.09224" lon="2.8445">
        <ele>995.916759</ele>
        <time>2021-07-08T14:57:48+0200</time>
      </trkpt>
      <trkpt lat="45.09219" lon="2.84445">
        <ele>996.412999</ele>
        <time>2021-07-08T14:57:51+0200</time>
      </trkpt>
      <trkpt lat="45.09217" lon="2.8444">
        <ele>995.994195</ele>
        <time>2021-07-08T14:57:54+0200</time>
      </trkpt>
      <trkpt lat="45.09214" lon="2.84433">
        <ele>996.360052</ele>
        <time>2021-07-08T14:57:57+0200</time>
      </trkpt>
      <trkpt lat="45.09212" lon="2.84426">
        <ele>996.42476</ele>
        <time>2021-07-08T14:58:00+0200</time>
      </trkpt>
      <trkpt lat="45.09208" lon="2.84419">
        <ele>995.853169</ele>
        <time>2021-07-08T14:58:03+0200</time>
      </trkpt>
      <trkpt lat="45.09205" lon="2.84413">
        <ele>995.245949</ele>
        <time>2021-07-08T14:58:05+0200</time>
      </trkpt>
      <trkpt lat="45.09203" lon="2.84404">
        <ele>995.885715</ele>
        <time>2021-07-08T14:58:08+0200</time>
      </trkpt>
      <trkpt lat="45.09202" lon="2.84396">
        <ele>995.640623</ele>
        <time>2021-07-08T14:58:11+0200</time>
      </trkpt>
      <trkpt lat="45.09201" lon="2.84388">
        <ele>995.563034</ele>
        <time>2021-07-08T14:58:13+0200</time>
      </trkpt>
      <trkpt lat="45.092" lon="2.8438">
        <ele>996.357602</ele>
        <time>2021-07-08T14:58:14+0200</time>
      </trkpt>
      <trkpt lat="45.09199" lon="2.84371">
        <ele>996.96429</ele>
        <time>2021-07-08T14:58:15+0200</time>
      </trkpt>
      <trkpt lat="45.092" lon="2.84358">
        <ele>997.58171</ele>
        <time>2021-07-08T14:58:16+0200</time>
      </trkpt>
      <trkpt lat="45.09198" lon="2.84347">
        <ele>997.716265</ele>
        <time>2021-07-08T14:58:17+0200</time>
      </trkpt>
      <trkpt lat="45.09196" lon="2.84341">
        <ele>998.034157</ele>
        <time>2021-07-08T14:58:18+0200</time>
      </trkpt>
      <trkpt lat="45.09198" lon="2.84347">
        <ele>997.888539</ele>
        <time>2021-07-08T14:58:20+0200</time>
      </trkpt>
      <trkpt lat="45.092" lon="2.84339">
        <ele>997.588254</ele>
        <time>2021-07-08T14:58:35+0200</time>
      </trkpt>
      <trkpt lat="45.09205" lon="2.84337">
        <ele>997.393298</ele>
        <time>2021-07-08T14:58:38+0200</time>
      </trkpt>
      <trkpt lat="45.0921" lon="2.84334">
        <ele>995.827352</ele>
        <time>2021-07-08T14:58:42+0200</time>
      </trkpt>
      <trkpt lat="45.09216" lon="2.84332">
        <ele>996.715286</ele>
        <time>2021-07-08T14:58:47+0200</time>
      </trkpt>
      <trkpt lat="45.09222" lon="2.84328">
        <ele>1001.410767</ele>
        <time>2021-07-08T14:58:52+0200</time>
      </trkpt>
      <trkpt lat="45.09225" lon="2.84323">
        <ele>1003.069952</ele>
        <time>2021-07-08T14:58:57+0200</time>
      </trkpt>
      <trkpt lat="45.0923" lon="2.84319">
        <ele>1006.274269</ele>
        <time>2021-07-08T14:59:02+0200</time>
      </trkpt>
      <trkpt lat="45.09233" lon="2.84315">
        <ele>1006.258081</ele>
        <time>2021-07-08T14:59:04+0200</time>
      </trkpt>
      <trkpt lat="45.09238" lon="2.84311">
        <ele>1004.537128</ele>
        <time>2021-07-08T14:59:08+0200</time>
      </trkpt>
      <trkpt lat="45.09242" lon="2.84306">
        <ele>1003.656404</ele>
        <time>2021-07-08T14:59:12+0200</time>
      </trkpt>
      <trkpt lat="45.09245" lon="2.84301">
        <ele>1004.431347</ele>
        <time>2021-07-08T14:59:15+0200</time>
      </trkpt>
      <trkpt lat="45.09249" lon="2.84298">
        <ele>1006.338202</ele>
        <time>2021-07-08T14:59:20+0200</time>
      </trkpt>
      <trkpt lat="45.09254" lon="2.84298">
        <ele>1008.796481</ele>
        <time>2021-07-08T14:59:26+0200</time>
      </trkpt>
      <trkpt lat="45.09258" lon="2.84294">
        <ele>1009.56067</ele>
        <time>2021-07-08T14:59:28+0200</time>
      </trkpt>
      <trkpt lat="45.09262" lon="2.84289">
        <ele>1010.03347</ele>
        <time>2021-07-08T14:59:34+0200</time>
      </trkpt>
      <trkpt lat="45.09263" lon="2.84282">
        <ele>1009.094281</ele>
        <time>2021-07-08T14:59:40+0200</time>
      </trkpt>
      <trkpt lat="45.09266" lon="2.84278">
        <ele>1005.864599</ele>
        <time>2021-07-08T14:59:47+0200</time>
      </trkpt>
      <trkpt lat="45.09265" lon="2.84271">
        <ele>1008.877872</ele>
        <time>2021-07-08T15:00:02+0200</time>
      </trkpt>
      <trkpt lat="45.09264" lon="2.84278">
        <ele>1006.920916</ele>
        <time>2021-07-08T15:00:22+0200</time>
      </trkpt>
      <trkpt lat="45.09261" lon="2.84283">
        <ele>1000.646672</ele>
        <time>2021-07-08T15:00:34+0200</time>
      </trkpt>
      <trkpt lat="45.0926" lon="2.84276">
        <ele>1005.708256</ele>
        <time>2021-07-08T15:01:14+0200</time>
      </trkpt>
      <trkpt lat="45.09257" lon="2.8427">
        <ele>1009.376902</ele>
        <time>2021-07-08T15:01:17+0200</time>
      </trkpt>
      <trkpt lat="45.09255" lon="2.84264">
        <ele>1012.024541</ele>
        <time>2021-07-08T15:01:19+0200</time>
      </trkpt>
      <trkpt lat="45.09252" lon="2.84254">
        <ele>1012.93584</ele>
        <time>2021-07-08T15:01:21+0200</time>
      </trkpt>
      <trkpt lat="45.09248" lon="2.84248">
        <ele>1012.936948</ele>
        <time>2021-07-08T15:01:22+0200</time>
      </trkpt>
      <trkpt lat="45.09242" lon="2.84244">
        <ele>1013.665851</ele>
        <time>2021-07-08T15:01:23+0200</time>
      </trkpt>
      <trkpt lat="45.09236" lon="2.84241">
        <ele>1011.815152</ele>
        <time>2021-07-08T15:01:24+0200</time>
      </trkpt>
      <trkpt lat="45.09232" lon="2.84234">
        <ele>1011.270148</ele>
        <time>2021-07-08T15:01:25+0200</time>
      </trkpt>
      <trkpt lat="45.09226" lon="2.84231">
        <ele>1009.084892</ele>
        <time>2021-07-08T15:01:27+0200</time>
      </trkpt>
      <trkpt lat="45.09218" lon="2.84226">
        <ele>1008.362931</ele>
        <time>2021-07-08T15:01:29+0200</time>
      </trkpt>
      <trkpt lat="45.09212" lon="2.84221">
        <ele>1006.389167</ele>
        <time>2021-07-08T15:01:31+0200</time>
      </trkpt>
      <trkpt lat="45.09205" lon="2.84212">
        <ele>1005.223986</ele>
        <time>2021-07-08T15:01:33+0200</time>
      </trkpt>
      <trkpt lat="45.09201" lon="2.84206">
        <ele>1007.064393</ele>
        <time>2021-07-08T15:01:37+0200</time>
      </trkpt>
      <trkpt lat="45.09197" lon="2.84201">
        <ele>1008.05116</ele>
        <time>2021-07-08T15:01:39+0200</time>
      </trkpt>
      <trkpt lat="45.09194" lon="2.84195">
        <ele>1010.422681</ele>
        <time>2021-07-08T15:01:41+0200</time>
      </trkpt>
      <trkpt lat="45.0919" lon="2.8419">
        <ele>1012.454502</ele>
        <time>2021-07-08T15:01:43+0200</time>
      </trkpt>
      <trkpt lat="45.09186" lon="2.84183">
        <ele>1011.577098</ele>
        <time>2021-07-08T15:01:45+0200</time>
      </trkpt>
      <trkpt lat="45.09183" lon="2.84178">
        <ele>1012.631352</ele>
        <time>2021-07-08T15:01:47+0200</time>
      </trkpt>
      <trkpt lat="45.09177" lon="2.84169">
        <ele>1010.514217</ele>
        <time>2021-07-08T15:01:49+0200</time>
      </trkpt>
      <trkpt lat="45.09174" lon="2.84164">
        <ele>1010.986749</ele>
        <time>2021-07-08T15:01:51+0200</time>
      </trkpt>
      <trkpt lat="45.09169" lon="2.84157">
        <ele>1008.651926</ele>
        <time>2021-07-08T15:01:53+0200</time>
      </trkpt>
      <trkpt lat="45.09164" lon="2.84153">
        <ele>1007.985709</ele>
        <time>2021-07-08T15:01:55+0200</time>
      </trkpt>
      <trkpt lat="45.0916" lon="2.84149">
        <ele>1007.797647</ele>
        <time>2021-07-08T15:01:57+0200</time>
      </trkpt>
      <trkpt lat="45.09154" lon="2.84148">
        <ele>1007.183465</ele>
        <time>2021-07-08T15:01:59+0200</time>
      </trkpt>
      <trkpt lat="45.09149" lon="2.84146">
        <ele>1007.180606</ele>
        <time>2021-07-08T15:02:01+0200</time>
      </trkpt>
      <trkpt lat="45.09142" lon="2.84145">
        <ele>1005.404865</ele>
        <time>2021-07-08T15:02:03+0200</time>
      </trkpt>
      <trkpt lat="45.09135" lon="2.84144">
        <ele>1003.392991</ele>
        <time>2021-07-08T15:02:05+0200</time>
      </trkpt>
      <trkpt lat="45.09126" lon="2.84144">
        <ele>1002.089226</ele>
        <time>2021-07-08T15:02:07+0200</time>
      </trkpt>
      <trkpt lat="45.09121" lon="2.84145">
        <ele>1002.112777</ele>
        <time>2021-07-08T15:02:08+0200</time>
      </trkpt>
      <trkpt lat="45.09117" lon="2.84142">
        <ele>1002.344221</ele>
        <time>2021-07-08T15:02:09+0200</time>
      </trkpt>
      <trkpt lat="45.09112" lon="2.84141">
        <ele>1001.692095</ele>
        <time>2021-07-08T15:02:10+0200</time>
      </trkpt>
      <trkpt lat="45.09108" lon="2.84141">
        <ele>1001.699045</ele>
        <time>2021-07-08T15:02:11+0200</time>
      </trkpt>
      <trkpt lat="45.09103" lon="2.84139">
        <ele>1001.46843</ele>
        <time>2021-07-08T15:02:12+0200</time>
      </trkpt>
      <trkpt lat="45.09099" lon="2.84135">
        <ele>1002.103075</ele>
        <time>2021-07-08T15:02:13+0200</time>
      </trkpt>
      <trkpt lat="45.09095" lon="2.84131">
        <ele>1002.903931</ele>
        <time>2021-07-08T15:02:14+0200</time>
      </trkpt>
      <trkpt lat="45.09089" lon="2.84123">
        <ele>1004.761512</ele>
        <time>2021-07-08T15:02:16+0200</time>
      </trkpt>
      <trkpt lat="45.09084" lon="2.84118">
        <ele>1005.808053</ele>
        <time>2021-07-08T15:02:18+0200</time>
      </trkpt>
      <trkpt lat="45.09079" lon="2.84113">
        <ele>1004.755698</ele>
        <time>2021-07-08T15:02:20+0200</time>
      </trkpt>
      <trkpt lat="45.09072" lon="2.84105">
        <ele>1004.229853</ele>
        <time>2021-07-08T15:02:22+0200</time>
      </trkpt>
      <trkpt lat="45.09068" lon="2.84098">
        <ele>1005.245418</ele>
        <time>2021-07-08T15:02:24+0200</time>
      </trkpt>
      <trkpt lat="45.09063" lon="2.84093">
        <ele>1004.51389</ele>
        <time>2021-07-08T15:02:26+0200</time>
      </trkpt>
      <trkpt lat="45.09058" lon="2.84087">
        <ele>1003.970138</ele>
        <time>2021-07-08T15:02:28+0200</time>
      </trkpt>
      <trkpt lat="45.09053" lon="2.84082">
        <ele>1006.944421</ele>
        <time>2021-07-08T15:02:30+0200</time>
      </trkpt>
      <trkpt lat="45.09049" lon="2.84075">
        <ele>1008.04226</ele>
        <time>2021-07-08T15:02:32+0200</time>
      </trkpt>
      <trkpt lat="45.09044" lon="2.84071">
        <ele>1009.495499</ele>
        <time>2021-07-08T15:02:34+0200</time>
      </trkpt>
      <trkpt lat="45.09038" lon="2.84067">
        <ele>1011.594045</ele>
        <time>2021-07-08T15:02:36+0200</time>
      </trkpt>
      <trkpt lat="45.09033" lon="2.84062">
        <ele>1012.263315</ele>
        <time>2021-07-08T15:02:38+0200</time>
      </trkpt>
      <trkpt lat="45.09029" lon="2.84057">
        <ele>1011.942804</ele>
        <time>2021-07-08T15:02:39+0200</time>
      </trkpt>
      <trkpt lat="45.09022" lon="2.84051">
        <ele>1012.704737</ele>
        <time>2021-07-08T15:02:41+0200</time>
      </trkpt>
      <trkpt lat="45.09018" lon="2.84048">
        <ele>1013.048904</ele>
        <time>2021-07-08T15:02:42+0200</time>
      </trkpt>
      <trkpt lat="45.09014" lon="2.84044">
        <ele>1013.819496</ele>
        <time>2021-07-08T15:02:43+0200</time>
      </trkpt>
      <trkpt lat="45.09007" lon="2.84038">
        <ele>1013.524247</ele>
        <time>2021-07-08T15:02:45+0200</time>
      </trkpt>
      <trkpt lat="45.09003" lon="2.84034">
        <ele>1012.421247</ele>
        <time>2021-07-08T15:02:46+0200</time>
      </trkpt>
      <trkpt lat="45.08998" lon="2.84031">
        <ele>1011.575101</ele>
        <time>2021-07-08T15:02:47+0200</time>
      </trkpt>
      <trkpt lat="45.08991" lon="2.84025">
        <ele>1009.391641</ele>
        <time>2021-07-08T15:02:49+0200</time>
      </trkpt>
      <trkpt lat="45.08987" lon="2.84022">
        <ele>1009.940742</ele>
        <time>2021-07-08T15:02:50+0200</time>
      </trkpt>
      <trkpt lat="45.08983" lon="2.84018">
        <ele>1010.69939</ele>
        <time>2021-07-08T15:02:51+0200</time>
      </trkpt>
      <trkpt lat="45.08977" lon="2.84014">
        <ele>1011.354043</ele>
        <time>2021-07-08T15:02:53+0200</time>
      </trkpt>
      <trkpt lat="45.08972" lon="2.84011">
        <ele>1011.402283</ele>
        <time>2021-07-08T15:02:54+0200</time>
      </trkpt>
      <trkpt lat="45.08965" lon="2.84004">
        <ele>1009.240072</ele>
        <time>2021-07-08T15:02:56+0200</time>
      </trkpt>
      <trkpt lat="45.0896" lon="2.84">
        <ele>1009.9052</ele>
        <time>2021-07-08T15:02:58+0200</time>
      </trkpt>
      <trkpt lat="45.08954" lon="2.83994">
        <ele>1008.430393</ele>
        <time>2021-07-08T15:03:00+0200</time>
      </trkpt>
      <trkpt lat="45.08949" lon="2.83989">
        <ele>1008.897965</ele>
        <time>2021-07-08T15:03:02+0200</time>
      </trkpt>
      <trkpt lat="45.08944" lon="2.83985">
        <ele>1009.68656</ele>
        <time>2021-07-08T15:03:04+0200</time>
      </trkpt>
      <trkpt lat="45.08938" lon="2.83983">
        <ele>1008.941347</ele>
        <time>2021-07-08T15:03:06+0200</time>
      </trkpt>
      <trkpt lat="45.08932" lon="2.8398">
        <ele>1012.319232</ele>
        <time>2021-07-08T15:03:08+0200</time>
      </trkpt>
      <trkpt lat="45.08925" lon="2.83977">
        <ele>1013.700756</ele>
        <time>2021-07-08T15:03:10+0200</time>
      </trkpt>
      <trkpt lat="45.08917" lon="2.83975">
        <ele>1013.269933</ele>
        <time>2021-07-08T15:03:12+0200</time>
      </trkpt>
      <trkpt lat="45.08911" lon="2.83972">
        <ele>1012.497843</ele>
        <time>2021-07-08T15:03:14+0200</time>
      </trkpt>
      <trkpt lat="45.08905" lon="2.8397">
        <ele>1013.015044</ele>
        <time>2021-07-08T15:03:16+0200</time>
      </trkpt>
      <trkpt lat="45.08898" lon="2.83967">
        <ele>1013.417711</ele>
        <time>2021-07-08T15:03:18+0200</time>
      </trkpt>
      <trkpt lat="45.0889" lon="2.83962">
        <ele>1013.510879</ele>
        <time>2021-07-08T15:03:20+0200</time>
      </trkpt>
      <trkpt lat="45.08883" lon="2.83957">
        <ele>1012.018197</ele>
        <time>2021-07-08T15:03:22+0200</time>
      </trkpt>
      <trkpt lat="45.08878" lon="2.83953">
        <ele>1012.490161</ele>
        <time>2021-07-08T15:03:24+0200</time>
      </trkpt>
      <trkpt lat="45.08873" lon="2.83953">
        <ele>1012.731758</ele>
        <time>2021-07-08T15:03:25+0200</time>
      </trkpt>
      <trkpt lat="45.08868" lon="2.8395">
        <ele>1012.984086</ele>
        <time>2021-07-08T15:03:27+0200</time>
      </trkpt>
      <trkpt lat="45.08862" lon="2.83946">
        <ele>1012.164654</ele>
        <time>2021-07-08T15:03:29+0200</time>
      </trkpt>
      <trkpt lat="45.08857" lon="2.83942">
        <ele>1012.482288</ele>
        <time>2021-07-08T15:03:31+0200</time>
      </trkpt>
      <trkpt lat="45.08851" lon="2.83939">
        <ele>1012.02626</ele>
        <time>2021-07-08T15:03:33+0200</time>
      </trkpt>
      <trkpt lat="45.08847" lon="2.83935">
        <ele>1012.472275</ele>
        <time>2021-07-08T15:03:35+0200</time>
      </trkpt>
      <trkpt lat="45.08842" lon="2.83932">
        <ele>1016.282168</ele>
        <time>2021-07-08T15:03:37+0200</time>
      </trkpt>
      <trkpt lat="45.08836" lon="2.83929">
        <ele>1016.284492</ele>
        <time>2021-07-08T15:03:39+0200</time>
      </trkpt>
      <trkpt lat="45.0883" lon="2.83927">
        <ele>1017.140704</ele>
        <time>2021-07-08T15:03:41+0200</time>
      </trkpt>
      <trkpt lat="45.08824" lon="2.83924">
        <ele>1019.704212</ele>
        <time>2021-07-08T15:03:43+0200</time>
      </trkpt>
      <trkpt lat="45.08818" lon="2.83918">
        <ele>1018.457786</ele>
        <time>2021-07-08T15:03:45+0200</time>
      </trkpt>
      <trkpt lat="45.08811" lon="2.83914">
        <ele>1017.914203</ele>
        <time>2021-07-08T15:03:47+0200</time>
      </trkpt>
      <trkpt lat="45.08804" lon="2.8391">
        <ele>1018.386496</ele>
        <time>2021-07-08T15:03:49+0200</time>
      </trkpt>
      <trkpt lat="45.08798" lon="2.83909">
        <ele>1018.901022</ele>
        <time>2021-07-08T15:03:51+0200</time>
      </trkpt>
      <trkpt lat="45.08792" lon="2.83906">
        <ele>1019.561541</ele>
        <time>2021-07-08T15:03:53+0200</time>
      </trkpt>
      <trkpt lat="45.08784" lon="2.83903">
        <ele>1019.579151</ele>
        <time>2021-07-08T15:03:55+0200</time>
      </trkpt>
      <trkpt lat="45.08779" lon="2.83903">
        <ele>1020.094557</ele>
        <time>2021-07-08T15:03:56+0200</time>
      </trkpt>
      <trkpt lat="45.08772" lon="2.83897">
        <ele>1020.758481</ele>
        <time>2021-07-08T15:03:58+0200</time>
      </trkpt>
      <trkpt lat="45.08765" lon="2.83895">
        <ele>1021.295838</ele>
        <time>2021-07-08T15:04:00+0200</time>
      </trkpt>
      <trkpt lat="45.08755" lon="2.8389">
        <ele>1020.087817</ele>
        <time>2021-07-08T15:04:02+0200</time>
      </trkpt>
      <trkpt lat="45.08751" lon="2.83888">
        <ele>1020.028699</ele>
        <time>2021-07-08T15:04:03+0200</time>
      </trkpt>
      <trkpt lat="45.08743" lon="2.83885">
        <ele>1018.448777</ele>
        <time>2021-07-08T15:04:05+0200</time>
      </trkpt>
      <trkpt lat="45.08738" lon="2.83884">
        <ele>1017.479426</ele>
        <time>2021-07-08T15:04:06+0200</time>
      </trkpt>
      <trkpt lat="45.08734" lon="2.8388">
        <ele>1015.644495</ele>
        <time>2021-07-08T15:04:07+0200</time>
      </trkpt>
      <trkpt lat="45.08725" lon="2.83875">
        <ele>1015.591483</ele>
        <time>2021-07-08T15:04:09+0200</time>
      </trkpt>
      <trkpt lat="45.08719" lon="2.83871">
        <ele>1014.250102</ele>
        <time>2021-07-08T15:04:11+0200</time>
      </trkpt>
      <trkpt lat="45.08713" lon="2.8387">
        <ele>1014.071258</ele>
        <time>2021-07-08T15:04:13+0200</time>
      </trkpt>
      <trkpt lat="45.08708" lon="2.83865">
        <ele>1016.231886</ele>
        <time>2021-07-08T15:04:15+0200</time>
      </trkpt>
      <trkpt lat="45.08702" lon="2.83859">
        <ele>1015.875935</ele>
        <time>2021-07-08T15:04:17+0200</time>
      </trkpt>
      <trkpt lat="45.08696" lon="2.83854">
        <ele>1015.926694</ele>
        <time>2021-07-08T15:04:19+0200</time>
      </trkpt>
      <trkpt lat="45.0869" lon="2.8385">
        <ele>1015.045532</ele>
        <time>2021-07-08T15:04:21+0200</time>
      </trkpt>
      <trkpt lat="45.08685" lon="2.83845">
        <ele>1014.506294</ele>
        <time>2021-07-08T15:04:23+0200</time>
      </trkpt>
      <trkpt lat="45.08678" lon="2.8384">
        <ele>1015.573068</ele>
        <time>2021-07-08T15:04:25+0200</time>
      </trkpt>
      <trkpt lat="45.08674" lon="2.83833">
        <ele>1015.503249</ele>
        <time>2021-07-08T15:04:27+0200</time>
      </trkpt>
      <trkpt lat="45.08669" lon="2.83825">
        <ele>1015.035615</ele>
        <time>2021-07-08T15:04:29+0200</time>
      </trkpt>
      <trkpt lat="45.08664" lon="2.83819">
        <ele>1016.143763</ele>
        <time>2021-07-08T15:04:31+0200</time>
      </trkpt>
      <trkpt lat="45.08658" lon="2.83813">
        <ele>1018.150897</ele>
        <time>2021-07-08T15:04:33+0200</time>
      </trkpt>
      <trkpt lat="45.08652" lon="2.83807">
        <ele>1017.480141</ele>
        <time>2021-07-08T15:04:35+0200</time>
      </trkpt>
      <trkpt lat="45.08646" lon="2.83801">
        <ele>1017.625651</ele>
        <time>2021-07-08T15:04:37+0200</time>
      </trkpt>
      <trkpt lat="45.0864" lon="2.83796">
        <ele>1017.46325</ele>
        <time>2021-07-08T15:04:39+0200</time>
      </trkpt>
      <trkpt lat="45.08635" lon="2.83791">
        <ele>1017.358992</ele>
        <time>2021-07-08T15:04:41+0200</time>
      </trkpt>
      <trkpt lat="45.0863" lon="2.83786">
        <ele>1016.122982</ele>
        <time>2021-07-08T15:04:43+0200</time>
      </trkpt>
      <trkpt lat="45.08624" lon="2.83781">
        <ele>1016.277079</ele>
        <time>2021-07-08T15:04:45+0200</time>
      </trkpt>
      <trkpt lat="45.08617" lon="2.83776">
        <ele>1017.058105</ele>
        <time>2021-07-08T15:04:47+0200</time>
      </trkpt>
      <trkpt lat="45.08612" lon="2.83772">
        <ele>1017.2241</ele>
        <time>2021-07-08T15:04:49+0200</time>
      </trkpt>
      <trkpt lat="45.08605" lon="2.83767">
        <ele>1018.079952</ele>
        <time>2021-07-08T15:04:51+0200</time>
      </trkpt>
      <trkpt lat="45.08599" lon="2.83762">
        <ele>1018.787476</ele>
        <time>2021-07-08T15:04:53+0200</time>
      </trkpt>
      <trkpt lat="45.08592" lon="2.83757">
        <ele>1019.416921</ele>
        <time>2021-07-08T15:04:55+0200</time>
      </trkpt>
      <trkpt lat="45.08586" lon="2.83753">
        <ele>1019.170152</ele>
        <time>2021-07-08T15:04:57+0200</time>
      </trkpt>
      <trkpt lat="45.08579" lon="2.8375">
        <ele>1018.967816</ele>
        <time>2021-07-08T15:04:59+0200</time>
      </trkpt>
      <trkpt lat="45.08573" lon="2.83744">
        <ele>1018.959809</ele>
        <time>2021-07-08T15:05:01+0200</time>
      </trkpt>
      <trkpt lat="45.08568" lon="2.83738">
        <ele>1018.505054</ele>
        <time>2021-07-08T15:05:03+0200</time>
      </trkpt>
      <trkpt lat="45.08562" lon="2.83732">
        <ele>1018.068801</ele>
        <time>2021-07-08T15:05:05+0200</time>
      </trkpt>
      <trkpt lat="45.08556" lon="2.83726">
        <ele>1018.026752</ele>
        <time>2021-07-08T15:05:07+0200</time>
      </trkpt>
      <trkpt lat="45.0855" lon="2.83721">
        <ele>1017.300192</ele>
        <time>2021-07-08T15:05:09+0200</time>
      </trkpt>
      <trkpt lat="45.08546" lon="2.83715">
        <ele>1017.510807</ele>
        <time>2021-07-08T15:05:11+0200</time>
      </trkpt>
      <trkpt lat="45.08542" lon="2.83708">
        <ele>1018.280441</ele>
        <time>2021-07-08T15:05:13+0200</time>
      </trkpt>
      <trkpt lat="45.08536" lon="2.83704">
        <ele>1018.394063</ele>
        <time>2021-07-08T15:05:15+0200</time>
      </trkpt>
      <trkpt lat="45.0853" lon="2.83699">
        <ele>1018.284841</ele>
        <time>2021-07-08T15:05:17+0200</time>
      </trkpt>
      <trkpt lat="45.08524" lon="2.83694">
        <ele>1018.737766</ele>
        <time>2021-07-08T15:05:19+0200</time>
      </trkpt>
      <trkpt lat="45.08518" lon="2.83689">
        <ele>1018.516728</ele>
        <time>2021-07-08T15:05:21+0200</time>
      </trkpt>
      <trkpt lat="45.08512" lon="2.83684">
        <ele>1018.784462</ele>
        <time>2021-07-08T15:05:23+0200</time>
      </trkpt>
      <trkpt lat="45.08507" lon="2.83678">
        <ele>1018.272366</ele>
        <time>2021-07-08T15:05:25+0200</time>
      </trkpt>
      <trkpt lat="45.08502" lon="2.83672">
        <ele>1018.311388</ele>
        <time>2021-07-08T15:05:27+0200</time>
      </trkpt>
      <trkpt lat="45.08497" lon="2.83666">
        <ele>1018.318318</ele>
        <time>2021-07-08T15:05:29+0200</time>
      </trkpt>
      <trkpt lat="45.08492" lon="2.83659">
        <ele>1018.280726</ele>
        <time>2021-07-08T15:05:31+0200</time>
      </trkpt>
      <trkpt lat="45.08486" lon="2.83656">
        <ele>1019.345017</ele>
        <time>2021-07-08T15:05:33+0200</time>
      </trkpt>
      <trkpt lat="45.08481" lon="2.83649">
        <ele>1018.610095</ele>
        <time>2021-07-08T15:05:35+0200</time>
      </trkpt>
      <trkpt lat="45.08477" lon="2.83645">
        <ele>1018.697452</ele>
        <time>2021-07-08T15:05:37+0200</time>
      </trkpt>
      <trkpt lat="45.08471" lon="2.83643">
        <ele>1019.35301</ele>
        <time>2021-07-08T15:05:39+0200</time>
      </trkpt>
      <trkpt lat="45.08464" lon="2.83642">
        <ele>1019.648427</ele>
        <time>2021-07-08T15:05:41+0200</time>
      </trkpt>
      <trkpt lat="45.08455" lon="2.83642">
        <ele>1019.693467</ele>
        <time>2021-07-08T15:05:43+0200</time>
      </trkpt>
      <trkpt lat="45.08447" lon="2.83643">
        <ele>1020.982357</ele>
        <time>2021-07-08T15:05:45+0200</time>
      </trkpt>
      <trkpt lat="45.08443" lon="2.83644">
        <ele>1021.510901</ele>
        <time>2021-07-08T15:05:46+0200</time>
      </trkpt>
      <trkpt lat="45.08438" lon="2.83645">
        <ele>1021.280443</ele>
        <time>2021-07-08T15:05:47+0200</time>
      </trkpt>
      <trkpt lat="45.08432" lon="2.83644">
        <ele>1022.073809</ele>
        <time>2021-07-08T15:05:49+0200</time>
      </trkpt>
      <trkpt lat="45.08426" lon="2.83643">
        <ele>1023.311774</ele>
        <time>2021-07-08T15:05:51+0200</time>
      </trkpt>
      <trkpt lat="45.08419" lon="2.8364">
        <ele>1022.629558</ele>
        <time>2021-07-08T15:05:53+0200</time>
      </trkpt>
      <trkpt lat="45.08411" lon="2.83635">
        <ele>1020.370484</ele>
        <time>2021-07-08T15:05:55+0200</time>
      </trkpt>
      <trkpt lat="45.08407" lon="2.83632">
        <ele>1019.311768</ele>
        <time>2021-07-08T15:05:56+0200</time>
      </trkpt>
      <trkpt lat="45.08402" lon="2.83626">
        <ele>1019.258917</ele>
        <time>2021-07-08T15:05:58+0200</time>
      </trkpt>
      <trkpt lat="45.08396" lon="2.8362">
        <ele>1019.468748</ele>
        <time>2021-07-08T15:06:00+0200</time>
      </trkpt>
      <trkpt lat="45.08391" lon="2.83614">
        <ele>1020.196828</ele>
        <time>2021-07-08T15:06:02+0200</time>
      </trkpt>
      <trkpt lat="45.08387" lon="2.83609">
        <ele>1023.498305</ele>
        <time>2021-07-08T15:06:04+0200</time>
      </trkpt>
      <trkpt lat="45.08383" lon="2.83602">
        <ele>1024.669883</ele>
        <time>2021-07-08T15:06:06+0200</time>
      </trkpt>
      <trkpt lat="45.08379" lon="2.83596">
        <ele>1025.355009</ele>
        <time>2021-07-08T15:06:08+0200</time>
      </trkpt>
      <trkpt lat="45.08375" lon="2.83592">
        <ele>1026.622636</ele>
        <time>2021-07-08T15:06:10+0200</time>
      </trkpt>
      <trkpt lat="45.08371" lon="2.83587">
        <ele>1028.478516</ele>
        <time>2021-07-08T15:06:12+0200</time>
      </trkpt>
      <trkpt lat="45.08365" lon="2.83582">
        <ele>1029.571457</ele>
        <time>2021-07-08T15:06:14+0200</time>
      </trkpt>
      <trkpt lat="45.0836" lon="2.8358">
        <ele>1029.587423</ele>
        <time>2021-07-08T15:06:16+0200</time>
      </trkpt>
      <trkpt lat="45.08355" lon="2.83579">
        <ele>1030.646669</ele>
        <time>2021-07-08T15:06:18+0200</time>
      </trkpt>
      <trkpt lat="45.08349" lon="2.83579">
        <ele>1031.165367</ele>
        <time>2021-07-08T15:06:20+0200</time>
      </trkpt>
      <trkpt lat="45.08342" lon="2.83578">
        <ele>1031.211062</ele>
        <time>2021-07-08T15:06:22+0200</time>
      </trkpt>
      <trkpt lat="45.08336" lon="2.83577">
        <ele>1031.94846</ele>
        <time>2021-07-08T15:06:24+0200</time>
      </trkpt>
      <trkpt lat="45.08331" lon="2.83577">
        <ele>1031.203756</ele>
        <time>2021-07-08T15:06:26+0200</time>
      </trkpt>
      <trkpt lat="45.08324" lon="2.83578">
        <ele>1030.572871</ele>
        <time>2021-07-08T15:06:28+0200</time>
      </trkpt>
      <trkpt lat="45.08319" lon="2.83578">
        <ele>1031.396676</ele>
        <time>2021-07-08T15:06:30+0200</time>
      </trkpt>
      <trkpt lat="45.08315" lon="2.83576">
        <ele>1030.399356</ele>
        <time>2021-07-08T15:06:32+0200</time>
      </trkpt>
      <trkpt lat="45.0831" lon="2.83574">
        <ele>1030.946541</ele>
        <time>2021-07-08T15:06:34+0200</time>
      </trkpt>
      <trkpt lat="45.08305" lon="2.83573">
        <ele>1031.425202</ele>
        <time>2021-07-08T15:06:37+0200</time>
      </trkpt>
      <trkpt lat="45.083" lon="2.83571">
        <ele>1027.196881</ele>
        <time>2021-07-08T15:07:43+0200</time>
      </trkpt>
      <trkpt lat="45.08296" lon="2.83567">
        <ele>1027.627806</ele>
        <time>2021-07-08T15:07:46+0200</time>
      </trkpt>
      <trkpt lat="45.08293" lon="2.83562">
        <ele>1029.307084</ele>
        <time>2021-07-08T15:07:49+0200</time>
      </trkpt>
      <trkpt lat="45.08288" lon="2.83558">
        <ele>1029.289168</ele>
        <time>2021-07-08T15:07:51+0200</time>
      </trkpt>
      <trkpt lat="45.08284" lon="2.83553">
        <ele>1029.409597</ele>
        <time>2021-07-08T15:07:53+0200</time>
      </trkpt>
      <trkpt lat="45.0828" lon="2.83549">
        <ele>1029.312046</ele>
        <time>2021-07-08T15:07:55+0200</time>
      </trkpt>
      <trkpt lat="45.08276" lon="2.83545">
        <ele>1029.257867</ele>
        <time>2021-07-08T15:07:57+0200</time>
      </trkpt>
      <trkpt lat="45.08271" lon="2.8354">
        <ele>1029.424595</ele>
        <time>2021-07-08T15:07:59+0200</time>
      </trkpt>
      <trkpt lat="45.08266" lon="2.83535">
        <ele>1029.452706</ele>
        <time>2021-07-08T15:08:01+0200</time>
      </trkpt>
      <trkpt lat="45.08261" lon="2.83529">
        <ele>1029.487086</ele>
        <time>2021-07-08T15:08:03+0200</time>
      </trkpt>
      <trkpt lat="45.08256" lon="2.83524">
        <ele>1029.767437</ele>
        <time>2021-07-08T15:08:05+0200</time>
      </trkpt>
      <trkpt lat="45.08249" lon="2.83521">
        <ele>1027.980798</ele>
        <time>2021-07-08T15:08:07+0200</time>
      </trkpt>
      <trkpt lat="45.08244" lon="2.83516">
        <ele>1028.016329</ele>
        <time>2021-07-08T15:08:09+0200</time>
      </trkpt>
      <trkpt lat="45.08238" lon="2.8351">
        <ele>1028.30132</ele>
        <time>2021-07-08T15:08:11+0200</time>
      </trkpt>
      <trkpt lat="45.08233" lon="2.83506">
        <ele>1028.432691</ele>
        <time>2021-07-08T15:08:13+0200</time>
      </trkpt>
      <trkpt lat="45.08228" lon="2.83501">
        <ele>1028.758201</ele>
        <time>2021-07-08T15:08:15+0200</time>
      </trkpt>
      <trkpt lat="45.08223" lon="2.83495">
        <ele>1028.822569</ele>
        <time>2021-07-08T15:08:17+0200</time>
      </trkpt>
      <trkpt lat="45.08217" lon="2.8349">
        <ele>1029.238983</ele>
        <time>2021-07-08T15:08:19+0200</time>
      </trkpt>
      <trkpt lat="45.08212" lon="2.83486">
        <ele>1029.716808</ele>
        <time>2021-07-08T15:08:21+0200</time>
      </trkpt>
      <trkpt lat="45.08207" lon="2.8348">
        <ele>1029.809463</ele>
        <time>2021-07-08T15:08:23+0200</time>
      </trkpt>
      <trkpt lat="45.08202" lon="2.83475">
        <ele>1029.715037</ele>
        <time>2021-07-08T15:08:25+0200</time>
      </trkpt>
      <trkpt lat="45.08196" lon="2.8347">
        <ele>1029.537235</ele>
        <time>2021-07-08T15:08:27+0200</time>
      </trkpt>
      <trkpt lat="45.0819" lon="2.83465">
        <ele>1029.623512</ele>
        <time>2021-07-08T15:08:29+0200</time>
      </trkpt>
      <trkpt lat="45.08185" lon="2.8346">
        <ele>1029.667722</ele>
        <time>2021-07-08T15:08:31+0200</time>
      </trkpt>
      <trkpt lat="45.08179" lon="2.83455">
        <ele>1030.122228</ele>
        <time>2021-07-08T15:08:33+0200</time>
      </trkpt>
      <trkpt lat="45.08173" lon="2.8345">
        <ele>1030.064214</ele>
        <time>2021-07-08T15:08:35+0200</time>
      </trkpt>
      <trkpt lat="45.08167" lon="2.83445">
        <ele>1029.916368</ele>
        <time>2021-07-08T15:08:37+0200</time>
      </trkpt>
      <trkpt lat="45.08161" lon="2.83439">
        <ele>1031.118455</ele>
        <time>2021-07-08T15:08:39+0200</time>
      </trkpt>
      <trkpt lat="45.08155" lon="2.83434">
        <ele>1031.845814</ele>
        <time>2021-07-08T15:08:41+0200</time>
      </trkpt>
      <trkpt lat="45.08149" lon="2.83429">
        <ele>1032.332523</ele>
        <time>2021-07-08T15:08:43+0200</time>
      </trkpt>
      <trkpt lat="45.08143" lon="2.83424">
        <ele>1032.944754</ele>
        <time>2021-07-08T15:08:45+0200</time>
      </trkpt>
      <trkpt lat="45.08136" lon="2.8342">
        <ele>1033.250074</ele>
        <time>2021-07-08T15:08:47+0200</time>
      </trkpt>
      <trkpt lat="45.08131" lon="2.83415">
        <ele>1033.238951</ele>
        <time>2021-07-08T15:08:49+0200</time>
      </trkpt>
      <trkpt lat="45.08125" lon="2.83411">
        <ele>1031.868117</ele>
        <time>2021-07-08T15:08:51+0200</time>
      </trkpt>
      <trkpt lat="45.08119" lon="2.83407">
        <ele>1032.378043</ele>
        <time>2021-07-08T15:08:53+0200</time>
      </trkpt>
      <trkpt lat="45.08113" lon="2.83402">
        <ele>1032.971917</ele>
        <time>2021-07-08T15:08:55+0200</time>
      </trkpt>
      <trkpt lat="45.08108" lon="2.83398">
        <ele>1034.251612</ele>
        <time>2021-07-08T15:08:57+0200</time>
      </trkpt>
      <trkpt lat="45.08102" lon="2.83394">
        <ele>1034.850306</ele>
        <time>2021-07-08T15:08:59+0200</time>
      </trkpt>
      <trkpt lat="45.08096" lon="2.83389">
        <ele>1034.978863</ele>
        <time>2021-07-08T15:09:01+0200</time>
      </trkpt>
      <trkpt lat="45.08091" lon="2.83386">
        <ele>1035.220477</ele>
        <time>2021-07-08T15:09:03+0200</time>
      </trkpt>
      <trkpt lat="45.08085" lon="2.83383">
        <ele>1035.398998</ele>
        <time>2021-07-08T15:09:05+0200</time>
      </trkpt>
      <trkpt lat="45.08079" lon="2.83379">
        <ele>1035.4877</ele>
        <time>2021-07-08T15:09:07+0200</time>
      </trkpt>
      <trkpt lat="45.08074" lon="2.83376">
        <ele>1036.172052</ele>
        <time>2021-07-08T15:09:09+0200</time>
      </trkpt>
      <trkpt lat="45.08069" lon="2.83373">
        <ele>1038.084278</ele>
        <time>2021-07-08T15:09:11+0200</time>
      </trkpt>
      <trkpt lat="45.08064" lon="2.83368">
        <ele>1038.292509</ele>
        <time>2021-07-08T15:09:13+0200</time>
      </trkpt>
      <trkpt lat="45.08058" lon="2.83365">
        <ele>1038.48504</ele>
        <time>2021-07-08T15:09:15+0200</time>
      </trkpt>
      <trkpt lat="45.08053" lon="2.83362">
        <ele>1038.128959</ele>
        <time>2021-07-08T15:09:17+0200</time>
      </trkpt>
      <trkpt lat="45.08047" lon="2.83359">
        <ele>1038.799865</ele>
        <time>2021-07-08T15:09:19+0200</time>
      </trkpt>
      <trkpt lat="45.08042" lon="2.83356">
        <ele>1038.995456</ele>
        <time>2021-07-08T15:09:21+0200</time>
      </trkpt>
      <trkpt lat="45.08036" lon="2.83353">
        <ele>1039.82024</ele>
        <time>2021-07-08T15:09:23+0200</time>
      </trkpt>
      <trkpt lat="45.08031" lon="2.8335">
        <ele>1041.20601</ele>
        <time>2021-07-08T15:09:25+0200</time>
      </trkpt>
      <trkpt lat="45.08025" lon="2.83347">
        <ele>1041.071228</ele>
        <time>2021-07-08T15:09:27+0200</time>
      </trkpt>
      <trkpt lat="45.0802" lon="2.83344">
        <ele>1041.258327</ele>
        <time>2021-07-08T15:09:29+0200</time>
      </trkpt>
      <trkpt lat="45.08015" lon="2.8334">
        <ele>1041.177551</ele>
        <time>2021-07-08T15:09:31+0200</time>
      </trkpt>
      <trkpt lat="45.08009" lon="2.83337">
        <ele>1042.00401</ele>
        <time>2021-07-08T15:09:33+0200</time>
      </trkpt>
      <trkpt lat="45.08003" lon="2.83333">
        <ele>1042.588897</ele>
        <time>2021-07-08T15:09:35+0200</time>
      </trkpt>
      <trkpt lat="45.07997" lon="2.8333">
        <ele>1042.311404</ele>
        <time>2021-07-08T15:09:37+0200</time>
      </trkpt>
      <trkpt lat="45.07991" lon="2.83325">
        <ele>1042.909605</ele>
        <time>2021-07-08T15:09:39+0200</time>
      </trkpt>
      <trkpt lat="45.07985" lon="2.83321">
        <ele>1043.133293</ele>
        <time>2021-07-08T15:09:41+0200</time>
      </trkpt>
      <trkpt lat="45.07979" lon="2.83318">
        <ele>1043.354914</ele>
        <time>2021-07-08T15:09:43+0200</time>
      </trkpt>
      <trkpt lat="45.07973" lon="2.83312">
        <ele>1045.740298</ele>
        <time>2021-07-08T15:09:45+0200</time>
      </trkpt>
      <trkpt lat="45.07967" lon="2.83308">
        <ele>1045.320394</ele>
        <time>2021-07-08T15:09:47+0200</time>
      </trkpt>
      <trkpt lat="45.07961" lon="2.83304">
        <ele>1045.472127</ele>
        <time>2021-07-08T15:09:49+0200</time>
      </trkpt>
      <trkpt lat="45.07956" lon="2.83299">
        <ele>1045.223723</ele>
        <time>2021-07-08T15:09:51+0200</time>
      </trkpt>
      <trkpt lat="45.07949" lon="2.83296">
        <ele>1045.093854</ele>
        <time>2021-07-08T15:09:53+0200</time>
      </trkpt>
      <trkpt lat="45.07943" lon="2.83291">
        <ele>1045.233943</ele>
        <time>2021-07-08T15:09:55+0200</time>
      </trkpt>
      <trkpt lat="45.07937" lon="2.83288">
        <ele>1044.914193</ele>
        <time>2021-07-08T15:09:57+0200</time>
      </trkpt>
      <trkpt lat="45.0793" lon="2.83283">
        <ele>1045.196361</ele>
        <time>2021-07-08T15:09:59+0200</time>
      </trkpt>
      <trkpt lat="45.07924" lon="2.83278">
        <ele>1044.752484</ele>
        <time>2021-07-08T15:10:01+0200</time>
      </trkpt>
      <trkpt lat="45.07918" lon="2.83273">
        <ele>1045.568101</ele>
        <time>2021-07-08T15:10:03+0200</time>
      </trkpt>
      <trkpt lat="45.07911" lon="2.83268">
        <ele>1045.406708</ele>
        <time>2021-07-08T15:10:05+0200</time>
      </trkpt>
      <trkpt lat="45.07904" lon="2.83264">
        <ele>1045.866698</ele>
        <time>2021-07-08T15:10:07+0200</time>
      </trkpt>
      <trkpt lat="45.07897" lon="2.83259">
        <ele>1046.595706</ele>
        <time>2021-07-08T15:10:09+0200</time>
      </trkpt>
      <trkpt lat="45.07891" lon="2.83255">
        <ele>1046.455299</ele>
        <time>2021-07-08T15:10:11+0200</time>
      </trkpt>
      <trkpt lat="45.07884" lon="2.83251">
        <ele>1047.555405</ele>
        <time>2021-07-08T15:10:13+0200</time>
      </trkpt>
      <trkpt lat="45.07879" lon="2.83247">
        <ele>1047.85467</ele>
        <time>2021-07-08T15:10:15+0200</time>
      </trkpt>
      <trkpt lat="45.07873" lon="2.83244">
        <ele>1048.306266</ele>
        <time>2021-07-08T15:10:17+0200</time>
      </trkpt>
      <trkpt lat="45.07869" lon="2.83241">
        <ele>1047.585483</ele>
        <time>2021-07-08T15:10:18+0200</time>
      </trkpt>
      <trkpt lat="45.07862" lon="2.83236">
        <ele>1046.073461</ele>
        <time>2021-07-08T15:10:20+0200</time>
      </trkpt>
      <trkpt lat="45.07855" lon="2.83232">
        <ele>1046.124422</ele>
        <time>2021-07-08T15:10:22+0200</time>
      </trkpt>
      <trkpt lat="45.07849" lon="2.8323">
        <ele>1046.236267</ele>
        <time>2021-07-08T15:10:24+0200</time>
      </trkpt>
      <trkpt lat="45.07845" lon="2.83227">
        <ele>1046.485298</ele>
        <time>2021-07-08T15:10:26+0200</time>
      </trkpt>
      <trkpt lat="45.07839" lon="2.83225">
        <ele>1046.59139</ele>
        <time>2021-07-08T15:10:28+0200</time>
      </trkpt>
      <trkpt lat="45.07834" lon="2.83224">
        <ele>1048.561559</ele>
        <time>2021-07-08T15:10:30+0200</time>
      </trkpt>
      <trkpt lat="45.07826" lon="2.83223">
        <ele>1049.10523</ele>
        <time>2021-07-08T15:10:32+0200</time>
      </trkpt>
      <trkpt lat="45.07823" lon="2.83232">
        <ele>1049.435299</ele>
        <time>2021-07-08T15:10:34+0200</time>
      </trkpt>
      <trkpt lat="45.07821" lon="2.83241">
        <ele>1050.036187</ele>
        <time>2021-07-08T15:10:36+0200</time>
      </trkpt>
      <trkpt lat="45.07821" lon="2.83251">
        <ele>1049.480861</ele>
        <time>2021-07-08T15:10:38+0200</time>
      </trkpt>
      <trkpt lat="45.0782" lon="2.83263">
        <ele>1049.878189</ele>
        <time>2021-07-08T15:10:40+0200</time>
      </trkpt>
      <trkpt lat="45.07818" lon="2.8327">
        <ele>1049.323371</ele>
        <time>2021-07-08T15:10:41+0200</time>
      </trkpt>
      <trkpt lat="45.07815" lon="2.8328">
        <ele>1048.26854</ele>
        <time>2021-07-08T15:10:43+0200</time>
      </trkpt>
      <trkpt lat="45.07811" lon="2.83287">
        <ele>1046.252235</ele>
        <time>2021-07-08T15:10:45+0200</time>
      </trkpt>
      <trkpt lat="45.07804" lon="2.83288">
        <ele>1044.639743</ele>
        <time>2021-07-08T15:10:48+0200</time>
      </trkpt>
      <trkpt lat="45.078" lon="2.8329">
        <ele>1044.660057</ele>
        <time>2021-07-08T15:10:52+0200</time>
      </trkpt>
      <trkpt lat="45.07798" lon="2.83284">
        <ele>1044.079793</ele>
        <time>2021-07-08T15:10:54+0200</time>
      </trkpt>
      <trkpt lat="45.07798" lon="2.83277">
        <ele>1048.917898</ele>
        <time>2021-07-08T15:10:57+0200</time>
      </trkpt>
      <trkpt lat="45.07797" lon="2.83271">
        <ele>1047.713521</ele>
        <time>2021-07-08T15:11:03+0200</time>
      </trkpt>
      <trkpt lat="45.07796" lon="2.83264">
        <ele>1045.770111</ele>
        <time>2021-07-08T15:11:08+0200</time>
      </trkpt>
      <trkpt lat="45.07792" lon="2.83259">
        <ele>1045.028901</ele>
        <time>2021-07-08T15:11:12+0200</time>
      </trkpt>
      <trkpt lat="45.07788" lon="2.83257">
        <ele>1046.253667</ele>
        <time>2021-07-08T15:11:14+0200</time>
      </trkpt>
      <trkpt lat="45.07784" lon="2.83256">
        <ele>1046.141154</ele>
        <time>2021-07-08T15:11:15+0200</time>
      </trkpt>
      <trkpt lat="45.07778" lon="2.83254">
        <ele>1044.803474</ele>
        <time>2021-07-08T15:11:16+0200</time>
      </trkpt>
      <trkpt lat="45.07773" lon="2.83254">
        <ele>1045.493402</ele>
        <time>2021-07-08T15:11:17+0200</time>
      </trkpt>
      <trkpt lat="45.07768" lon="2.83255">
        <ele>1044.914288</ele>
        <time>2021-07-08T15:11:18+0200</time>
      </trkpt>
      <trkpt lat="45.07763" lon="2.83255">
        <ele>1045.642639</ele>
        <time>2021-07-08T15:11:19+0200</time>
      </trkpt>
      <trkpt lat="45.07756" lon="2.83257">
        <ele>1046.20711</ele>
        <time>2021-07-08T15:11:20+0200</time>
      </trkpt>
      <trkpt lat="45.0775" lon="2.8326">
        <ele>1045.063066</ele>
        <time>2021-07-08T15:11:21+0200</time>
      </trkpt>
      <trkpt lat="45.07744" lon="2.83264">
        <ele>1043.49105</ele>
        <time>2021-07-08T15:11:22+0200</time>
      </trkpt>
      <trkpt lat="45.0774" lon="2.83269">
        <ele>1042.815526</ele>
        <time>2021-07-08T15:11:23+0200</time>
      </trkpt>
      <trkpt lat="45.07737" lon="2.83276">
        <ele>1042.570483</ele>
        <time>2021-07-08T15:11:24+0200</time>
      </trkpt>
      <trkpt lat="45.07735" lon="2.83284">
        <ele>1041.787865</ele>
        <time>2021-07-08T15:11:25+0200</time>
      </trkpt>
      <trkpt lat="45.07733" lon="2.83291">
        <ele>1040.11801</ele>
        <time>2021-07-08T15:11:26+0200</time>
      </trkpt>
      <trkpt lat="45.07731" lon="2.83299">
        <ele>1038.780137</ele>
        <time>2021-07-08T15:11:27+0200</time>
      </trkpt>
      <trkpt lat="45.07728" lon="2.83308">
        <ele>1037.795285</ele>
        <time>2021-07-08T15:11:28+0200</time>
      </trkpt>
      <trkpt lat="45.07725" lon="2.83317">
        <ele>1037.446526</ele>
        <time>2021-07-08T15:11:29+0200</time>
      </trkpt>
      <trkpt lat="45.07722" lon="2.83327">
        <ele>1036.88014</ele>
        <time>2021-07-08T15:11:30+0200</time>
      </trkpt>
      <trkpt lat="45.07719" lon="2.83336">
        <ele>1035.828708</ele>
        <time>2021-07-08T15:11:31+0200</time>
      </trkpt>
      <trkpt lat="45.07716" lon="2.83346">
        <ele>1035.377308</ele>
        <time>2021-07-08T15:11:32+0200</time>
      </trkpt>
      <trkpt lat="45.07714" lon="2.83356">
        <ele>1034.740201</ele>
        <time>2021-07-08T15:11:33+0200</time>
      </trkpt>
      <trkpt lat="45.07712" lon="2.83367">
        <ele>1034.471506</ele>
        <time>2021-07-08T15:11:34+0200</time>
      </trkpt>
      <trkpt lat="45.07709" lon="2.83377">
        <ele>1033.70268</ele>
        <time>2021-07-08T15:11:35+0200</time>
      </trkpt>
      <trkpt lat="45.07706" lon="2.83389">
        <ele>1033.251461</ele>
        <time>2021-07-08T15:11:36+0200</time>
      </trkpt>
      <trkpt lat="45.07702" lon="2.83399">
        <ele>1031.910772</ele>
        <time>2021-07-08T15:11:37+0200</time>
      </trkpt>
      <trkpt lat="45.07699" lon="2.83409">
        <ele>1031.231893</ele>
        <time>2021-07-08T15:11:38+0200</time>
      </trkpt>
      <trkpt lat="45.07696" lon="2.83419">
        <ele>1030.031303</ele>
        <time>2021-07-08T15:11:39+0200</time>
      </trkpt>
      <trkpt lat="45.07693" lon="2.83428">
        <ele>1029.014106</ele>
        <time>2021-07-08T15:11:40+0200</time>
      </trkpt>
      <trkpt lat="45.07691" lon="2.83436">
        <ele>1028.115664</ele>
        <time>2021-07-08T15:11:41+0200</time>
      </trkpt>
      <trkpt lat="45.07688" lon="2.83444">
        <ele>1027.385038</ele>
        <time>2021-07-08T15:11:42+0200</time>
      </trkpt>
      <trkpt lat="45.07686" lon="2.83453">
        <ele>1026.755943</ele>
        <time>2021-07-08T15:11:43+0200</time>
      </trkpt>
      <trkpt lat="45.07683" lon="2.83463">
        <ele>1026.158061</ele>
        <time>2021-07-08T15:11:44+0200</time>
      </trkpt>
      <trkpt lat="45.07681" lon="2.83473">
        <ele>1025.359474</ele>
        <time>2021-07-08T15:11:45+0200</time>
      </trkpt>
      <trkpt lat="45.07678" lon="2.83483">
        <ele>1024.72945</ele>
        <time>2021-07-08T15:11:46+0200</time>
      </trkpt>
      <trkpt lat="45.07675" lon="2.83493">
        <ele>1023.680978</ele>
        <time>2021-07-08T15:11:47+0200</time>
      </trkpt>
      <trkpt lat="45.07672" lon="2.83503">
        <ele>1023.122085</ele>
        <time>2021-07-08T15:11:48+0200</time>
      </trkpt>
      <trkpt lat="45.07669" lon="2.83513">
        <ele>1022.512026</ele>
        <time>2021-07-08T15:11:49+0200</time>
      </trkpt>
      <trkpt lat="45.07664" lon="2.83521">
        <ele>1021.932147</ele>
        <time>2021-07-08T15:11:50+0200</time>
      </trkpt>
      <trkpt lat="45.07657" lon="2.83535">
        <ele>1021.03023</ele>
        <time>2021-07-08T15:11:52+0200</time>
      </trkpt>
      <trkpt lat="45.07653" lon="2.83556">
        <ele>1020.050716</ele>
        <time>2021-07-08T15:11:54+0200</time>
      </trkpt>
      <trkpt lat="45.0766" lon="2.83572">
        <ele>1021.557886</ele>
        <time>2021-07-08T15:11:57+0200</time>
      </trkpt>
      <trkpt lat="45.07661" lon="2.83582">
        <ele>1020.904553</ele>
        <time>2021-07-08T15:11:59+0200</time>
      </trkpt>
      <trkpt lat="45.07663" lon="2.83588">
        <ele>1020.854214</ele>
        <time>2021-07-08T15:12:01+0200</time>
      </trkpt>
      <trkpt lat="45.07667" lon="2.83594">
        <ele>1022.07928</ele>
        <time>2021-07-08T15:12:04+0200</time>
      </trkpt>
      <trkpt lat="45.0767" lon="2.83588">
        <ele>1026.916477</ele>
        <time>2021-07-08T15:12:07+0200</time>
      </trkpt>
      <trkpt lat="45.07667" lon="2.83581">
        <ele>1024.842145</ele>
        <time>2021-07-08T15:12:10+0200</time>
      </trkpt>
      <trkpt lat="45.07662" lon="2.83573">
        <ele>1023.737405</ele>
        <time>2021-07-08T15:12:12+0200</time>
      </trkpt>
      <trkpt lat="45.0766" lon="2.83564">
        <ele>1026.433094</ele>
        <time>2021-07-08T15:12:15+0200</time>
      </trkpt>
      <trkpt lat="45.07654" lon="2.83563">
        <ele>1027.032589</ele>
        <time>2021-07-08T15:12:19+0200</time>
      </trkpt>
      <trkpt lat="45.07648" lon="2.83556">
        <ele>1027.373041</ele>
        <time>2021-07-08T15:12:20+0200</time>
      </trkpt>
      <trkpt lat="45.07643" lon="2.83561">
        <ele>1027.452744</ele>
        <time>2021-07-08T15:12:22+0200</time>
      </trkpt>
      <trkpt lat="45.07635" lon="2.83564">
        <ele>1026.364129</ele>
        <time>2021-07-08T15:12:24+0200</time>
      </trkpt>
      <trkpt lat="45.0763" lon="2.83566">
        <ele>1026.120745</ele>
        <time>2021-07-08T15:12:25+0200</time>
      </trkpt>
      <trkpt lat="45.07622" lon="2.83567">
        <ele>1023.777097</ele>
        <time>2021-07-08T15:12:27+0200</time>
      </trkpt>
      <trkpt lat="45.07614" lon="2.83568">
        <ele>1022.775244</ele>
        <time>2021-07-08T15:12:29+0200</time>
      </trkpt>
      <trkpt lat="45.07607" lon="2.83568">
        <ele>1023.760286</ele>
        <time>2021-07-08T15:12:31+0200</time>
      </trkpt>
      <trkpt lat="45.07599" lon="2.83567">
        <ele>1023.620928</ele>
        <time>2021-07-08T15:12:33+0200</time>
      </trkpt>
      <trkpt lat="45.07591" lon="2.83565">
        <ele>1023.317202</ele>
        <time>2021-07-08T15:12:35+0200</time>
      </trkpt>
      <trkpt lat="45.07583" lon="2.83563">
        <ele>1023.616649</ele>
        <time>2021-07-08T15:12:37+0200</time>
      </trkpt>
      <trkpt lat="45.07576" lon="2.83562">
        <ele>1024.563222</ele>
        <time>2021-07-08T15:12:39+0200</time>
      </trkpt>
      <trkpt lat="45.0757" lon="2.8356">
        <ele>1025.164537</ele>
        <time>2021-07-08T15:12:41+0200</time>
      </trkpt>
      <trkpt lat="45.07565" lon="2.83557">
        <ele>1027.535277</ele>
        <time>2021-07-08T15:12:43+0200</time>
      </trkpt>
      <trkpt lat="45.07558" lon="2.83554">
        <ele>1027.578522</ele>
        <time>2021-07-08T15:12:45+0200</time>
      </trkpt>
      <trkpt lat="45.07552" lon="2.83554">
        <ele>1027.368033</ele>
        <time>2021-07-08T15:12:47+0200</time>
      </trkpt>
      <trkpt lat="45.07548" lon="2.83554">
        <ele>1027.793808</ele>
        <time>2021-07-08T15:12:49+0200</time>
      </trkpt>
      <trkpt lat="45.07542" lon="2.83557">
        <ele>1027.918979</ele>
        <time>2021-07-08T15:12:51+0200</time>
      </trkpt>
      <trkpt lat="45.07537" lon="2.83561">
        <ele>1028.515784</ele>
        <time>2021-07-08T15:12:53+0200</time>
      </trkpt>
      <trkpt lat="45.07531" lon="2.83563">
        <ele>1029.524529</ele>
        <time>2021-07-08T15:12:56+0200</time>
      </trkpt>
      <trkpt lat="45.07526" lon="2.83567">
        <ele>1030.63107</ele>
        <time>2021-07-08T15:13:00+0200</time>
      </trkpt>
      <trkpt lat="45.07522" lon="2.83568">
        <ele>1029.490125</ele>
        <time>2021-07-08T15:13:02+0200</time>
      </trkpt>
      <trkpt lat="45.07517" lon="2.8357">
        <ele>1029.345791</ele>
        <time>2021-07-08T15:13:04+0200</time>
      </trkpt>
      <trkpt lat="45.07511" lon="2.83574">
        <ele>1030.701707</ele>
        <time>2021-07-08T15:13:07+0200</time>
      </trkpt>
      <trkpt lat="45.07506" lon="2.83578">
        <ele>1032.977047</ele>
        <time>2021-07-08T15:13:10+0200</time>
      </trkpt>
      <trkpt lat="45.07502" lon="2.83581">
        <ele>1033.472382</ele>
        <time>2021-07-08T15:13:12+0200</time>
      </trkpt>
      <trkpt lat="45.07497" lon="2.83583">
        <ele>1034.876761</ele>
        <time>2021-07-08T15:13:15+0200</time>
      </trkpt>
      <trkpt lat="45.07492" lon="2.83584">
        <ele>1037.358246</ele>
        <time>2021-07-08T15:13:18+0200</time>
      </trkpt>
      <trkpt lat="45.07488" lon="2.83584">
        <ele>1038.195354</ele>
        <time>2021-07-08T15:13:20+0200</time>
      </trkpt>
      <trkpt lat="45.07483" lon="2.83582">
        <ele>1038.494507</ele>
        <time>2021-07-08T15:13:22+0200</time>
      </trkpt>
      <trkpt lat="45.07478" lon="2.83582">
        <ele>1037.746575</ele>
        <time>2021-07-08T15:13:26+0200</time>
      </trkpt>
      <trkpt lat="45.07473" lon="2.83581">
        <ele>1035.699613</ele>
        <time>2021-07-08T15:13:29+0200</time>
      </trkpt>
      <trkpt lat="45.07469" lon="2.83576">
        <ele>1036.944131</ele>
        <time>2021-07-08T15:13:32+0200</time>
      </trkpt>
      <trkpt lat="45.07464" lon="2.83573">
        <ele>1039.651148</ele>
        <time>2021-07-08T15:13:35+0200</time>
      </trkpt>
      <trkpt lat="45.07459" lon="2.8357">
        <ele>1039.674829</ele>
        <time>2021-07-08T15:13:38+0200</time>
      </trkpt>
      <trkpt lat="45.07454" lon="2.8357">
        <ele>1040.484438</ele>
        <time>2021-07-08T15:13:41+0200</time>
      </trkpt>
      <trkpt lat="45.0745" lon="2.83566">
        <ele>1043.038004</ele>
        <time>2021-07-08T15:13:45+0200</time>
      </trkpt>
      <trkpt lat="45.07445" lon="2.83563">
        <ele>1044.030305</ele>
        <time>2021-07-08T15:13:48+0200</time>
      </trkpt>
      <trkpt lat="45.07442" lon="2.83558">
        <ele>1044.684866</ele>
        <time>2021-07-08T15:13:52+0200</time>
      </trkpt>
      <trkpt lat="45.07436" lon="2.83558">
        <ele>1043.779526</ele>
        <time>2021-07-08T15:13:55+0200</time>
      </trkpt>
      <trkpt lat="45.07431" lon="2.83554">
        <ele>1042.81072</ele>
        <time>2021-07-08T15:13:58+0200</time>
      </trkpt>
      <trkpt lat="45.07425" lon="2.83552">
        <ele>1043.807476</ele>
        <time>2021-07-08T15:14:02+0200</time>
      </trkpt>
      <trkpt lat="45.0742" lon="2.83551">
        <ele>1043.389827</ele>
        <time>2021-07-08T15:14:05+0200</time>
      </trkpt>
      <trkpt lat="45.07415" lon="2.83554">
        <ele>1042.78703</ele>
        <time>2021-07-08T15:14:08+0200</time>
      </trkpt>
      <trkpt lat="45.0741" lon="2.83555">
        <ele>1043.780099</ele>
        <time>2021-07-08T15:14:12+0200</time>
      </trkpt>
      <trkpt lat="45.07405" lon="2.83557">
        <ele>1044.275302</ele>
        <time>2021-07-08T15:14:15+0200</time>
      </trkpt>
      <trkpt lat="45.074" lon="2.83556">
        <ele>1044.317198</ele>
        <time>2021-07-08T15:14:19+0200</time>
      </trkpt>
      <trkpt lat="45.07396" lon="2.83559">
        <ele>1044.973696</ele>
        <time>2021-07-08T15:14:22+0200</time>
      </trkpt>
      <trkpt lat="45.07391" lon="2.83559">
        <ele>1045.939714</ele>
        <time>2021-07-08T15:14:26+0200</time>
      </trkpt>
      <trkpt lat="45.07385" lon="2.83561">
        <ele>1046.030081</ele>
        <time>2021-07-08T15:14:29+0200</time>
      </trkpt>
      <trkpt lat="45.07379" lon="2.83562">
        <ele>1045.176766</ele>
        <time>2021-07-08T15:14:32+0200</time>
      </trkpt>
      <trkpt lat="45.07374" lon="2.83563">
        <ele>1045.887724</ele>
        <time>2021-07-08T15:14:34+0200</time>
      </trkpt>
      <trkpt lat="45.0737" lon="2.83565">
        <ele>1045.939999</ele>
        <time>2021-07-08T15:14:36+0200</time>
      </trkpt>
      <trkpt lat="45.07363" lon="2.83564">
        <ele>1046.629716</ele>
        <time>2021-07-08T15:14:39+0200</time>
      </trkpt>
      <trkpt lat="45.07357" lon="2.83562">
        <ele>1047.225372</ele>
        <time>2021-07-08T15:14:41+0200</time>
      </trkpt>
      <trkpt lat="45.07353" lon="2.83559">
        <ele>1047.431656</ele>
        <time>2021-07-08T15:14:43+0200</time>
      </trkpt>
      <trkpt lat="45.07348" lon="2.83555">
        <ele>1048.460329</ele>
        <time>2021-07-08T15:14:45+0200</time>
      </trkpt>
      <trkpt lat="45.07344" lon="2.8355">
        <ele>1049.883864</ele>
        <time>2021-07-08T15:14:47+0200</time>
      </trkpt>
      <trkpt lat="45.07339" lon="2.83546">
        <ele>1050.950982</ele>
        <time>2021-07-08T15:14:49+0200</time>
      </trkpt>
      <trkpt lat="45.07334" lon="2.83541">
        <ele>1050.652298</ele>
        <time>2021-07-08T15:14:51+0200</time>
      </trkpt>
      <trkpt lat="45.0733" lon="2.83537">
        <ele>1050.045697</ele>
        <time>2021-07-08T15:14:53+0200</time>
      </trkpt>
      <trkpt lat="45.07326" lon="2.83533">
        <ele>1049.636765</ele>
        <time>2021-07-08T15:14:55+0200</time>
      </trkpt>
      <trkpt lat="45.07322" lon="2.83529">
        <ele>1050.017826</ele>
        <time>2021-07-08T15:14:57+0200</time>
      </trkpt>
      <trkpt lat="45.07316" lon="2.83523">
        <ele>1050.522789</ele>
        <time>2021-07-08T15:15:00+0200</time>
      </trkpt>
      <trkpt lat="45.07312" lon="2.83518">
        <ele>1051.08284</ele>
        <time>2021-07-08T15:15:02+0200</time>
      </trkpt>
      <trkpt lat="45.07307" lon="2.83512">
        <ele>1053.50106</ele>
        <time>2021-07-08T15:15:05+0200</time>
      </trkpt>
      <trkpt lat="45.07304" lon="2.83506">
        <ele>1055.03142</ele>
        <time>2021-07-08T15:15:07+0200</time>
      </trkpt>
      <trkpt lat="45.073" lon="2.835">
        <ele>1055.643586</ele>
        <time>2021-07-08T15:15:09+0200</time>
      </trkpt>
      <trkpt lat="45.07297" lon="2.83494">
        <ele>1055.12846</ele>
        <time>2021-07-08T15:15:11+0200</time>
      </trkpt>
      <trkpt lat="45.07295" lon="2.83487">
        <ele>1055.438619</ele>
        <time>2021-07-08T15:15:13+0200</time>
      </trkpt>
      <trkpt lat="45.07291" lon="2.83481">
        <ele>1056.941308</ele>
        <time>2021-07-08T15:15:15+0200</time>
      </trkpt>
      <trkpt lat="45.07288" lon="2.83475">
        <ele>1057.624663</ele>
        <time>2021-07-08T15:15:17+0200</time>
      </trkpt>
      <trkpt lat="45.07285" lon="2.8347">
        <ele>1057.283038</ele>
        <time>2021-07-08T15:15:19+0200</time>
      </trkpt>
      <trkpt lat="45.07281" lon="2.83465">
        <ele>1055.746846</ele>
        <time>2021-07-08T15:15:21+0200</time>
      </trkpt>
      <trkpt lat="45.07278" lon="2.8346">
        <ele>1055.150742</ele>
        <time>2021-07-08T15:15:23+0200</time>
      </trkpt>
      <trkpt lat="45.07276" lon="2.83453">
        <ele>1056.440784</ele>
        <time>2021-07-08T15:15:25+0200</time>
      </trkpt>
      <trkpt lat="45.07273" lon="2.83449">
        <ele>1057.082683</ele>
        <time>2021-07-08T15:15:28+0200</time>
      </trkpt>
      <trkpt lat="45.07269" lon="2.83441">
        <ele>1057.410052</ele>
        <time>2021-07-08T15:15:31+0200</time>
      </trkpt>
      <trkpt lat="45.07265" lon="2.83435">
        <ele>1058.538927</ele>
        <time>2021-07-08T15:15:33+0200</time>
      </trkpt>
      <trkpt lat="45.07262" lon="2.83431">
        <ele>1058.685877</ele>
        <time>2021-07-08T15:15:35+0200</time>
      </trkpt>
      <trkpt lat="45.07259" lon="2.83426">
        <ele>1057.599537</ele>
        <time>2021-07-08T15:15:37+0200</time>
      </trkpt>
      <trkpt lat="45.07255" lon="2.8342">
        <ele>1058.526527</ele>
        <time>2021-07-08T15:15:39+0200</time>
      </trkpt>
      <trkpt lat="45.07252" lon="2.83413">
        <ele>1059.003676</ele>
        <time>2021-07-08T15:15:41+0200</time>
      </trkpt>
      <trkpt lat="45.0725" lon="2.83406">
        <ele>1060.986602</ele>
        <time>2021-07-08T15:15:43+0200</time>
      </trkpt>
      <trkpt lat="45.07246" lon="2.83399">
        <ele>1063.591788</ele>
        <time>2021-07-08T15:15:46+0200</time>
      </trkpt>
      <trkpt lat="45.07244" lon="2.83394">
        <ele>1063.739579</ele>
        <time>2021-07-08T15:15:48+0200</time>
      </trkpt>
      <trkpt lat="45.0724" lon="2.83386">
        <ele>1065.573452</ele>
        <time>2021-07-08T15:15:51+0200</time>
      </trkpt>
      <trkpt lat="45.07241" lon="2.83379">
        <ele>1066.282354</ele>
        <time>2021-07-08T15:15:53+0200</time>
      </trkpt>
      <trkpt lat="45.07241" lon="2.83369">
        <ele>1067.347914</ele>
        <time>2021-07-08T15:15:56+0200</time>
      </trkpt>
      <trkpt lat="45.07242" lon="2.83362">
        <ele>1068.304197</ele>
        <time>2021-07-08T15:15:59+0200</time>
      </trkpt>
      <trkpt lat="45.0724" lon="2.83356">
        <ele>1069.195925</ele>
        <time>2021-07-08T15:16:02+0200</time>
      </trkpt>
      <trkpt lat="45.07237" lon="2.83351">
        <ele>1065.928659</ele>
        <time>2021-07-08T15:16:08+0200</time>
      </trkpt>
      <trkpt lat="45.07235" lon="2.83357">
        <ele>1066.018005</ele>
        <time>2021-07-08T15:17:12+0200</time>
      </trkpt>
      <trkpt lat="45.07238" lon="2.83352">
        <ele>1069.750565</ele>
        <time>2021-07-08T15:17:42+0200</time>
      </trkpt>
      <trkpt lat="45.07235" lon="2.83348">
        <ele>1068.389063</ele>
        <time>2021-07-08T15:17:49+0200</time>
      </trkpt>
      <trkpt lat="45.0723" lon="2.83343">
        <ele>1068.120538</ele>
        <time>2021-07-08T15:17:53+0200</time>
      </trkpt>
      <trkpt lat="45.07226" lon="2.83339">
        <ele>1067.144994</ele>
        <time>2021-07-08T15:17:55+0200</time>
      </trkpt>
      <trkpt lat="45.07222" lon="2.83335">
        <ele>1066.016156</ele>
        <time>2021-07-08T15:17:57+0200</time>
      </trkpt>
      <trkpt lat="45.07218" lon="2.83331">
        <ele>1065.429955</ele>
        <time>2021-07-08T15:17:59+0200</time>
      </trkpt>
      <trkpt lat="45.07212" lon="2.83326">
        <ele>1065.265158</ele>
        <time>2021-07-08T15:18:02+0200</time>
      </trkpt>
      <trkpt lat="45.07207" lon="2.83323">
        <ele>1065.026926</ele>
        <time>2021-07-08T15:18:05+0200</time>
      </trkpt>
      <trkpt lat="45.07201" lon="2.83322">
        <ele>1064.707641</ele>
        <time>2021-07-08T15:18:07+0200</time>
      </trkpt>
      <trkpt lat="45.07195" lon="2.83322">
        <ele>1062.985894</ele>
        <time>2021-07-08T15:18:09+0200</time>
      </trkpt>
      <trkpt lat="45.07188" lon="2.83324">
        <ele>1061.92272</ele>
        <time>2021-07-08T15:18:11+0200</time>
      </trkpt>
      <trkpt lat="45.0718" lon="2.83326">
        <ele>1060.958818</ele>
        <time>2021-07-08T15:18:13+0200</time>
      </trkpt>
      <trkpt lat="45.07172" lon="2.83329">
        <ele>1060.581021</ele>
        <time>2021-07-08T15:18:15+0200</time>
      </trkpt>
      <trkpt lat="45.07166" lon="2.8333">
        <ele>1061.822183</ele>
        <time>2021-07-08T15:18:17+0200</time>
      </trkpt>
      <trkpt lat="45.07159" lon="2.83332">
        <ele>1063.346771</ele>
        <time>2021-07-08T15:18:19+0200</time>
      </trkpt>
      <trkpt lat="45.07153" lon="2.83335">
        <ele>1064.301369</ele>
        <time>2021-07-08T15:18:21+0200</time>
      </trkpt>
      <trkpt lat="45.07149" lon="2.83339">
        <ele>1064.604737</ele>
        <time>2021-07-08T15:18:23+0200</time>
      </trkpt>
      <trkpt lat="45.07144" lon="2.83349">
        <ele>1062.775756</ele>
        <time>2021-07-08T15:18:25+0200</time>
      </trkpt>
      <trkpt lat="45.07144" lon="2.83357">
        <ele>1062.616294</ele>
        <time>2021-07-08T15:18:27+0200</time>
      </trkpt>
      <trkpt lat="45.07143" lon="2.83365">
        <ele>1062.294418</ele>
        <time>2021-07-08T15:18:29+0200</time>
      </trkpt>
      <trkpt lat="45.07144" lon="2.83372">
        <ele>1062.148191</ele>
        <time>2021-07-08T15:18:31+0200</time>
      </trkpt>
      <trkpt lat="45.07144" lon="2.8338">
        <ele>1061.845651</ele>
        <time>2021-07-08T15:18:34+0200</time>
      </trkpt>
      <trkpt lat="45.07144" lon="2.83388">
        <ele>1061.801884</ele>
        <time>2021-07-08T15:18:37+0200</time>
      </trkpt>
      <trkpt lat="45.07144" lon="2.83397">
        <ele>1062.146711</ele>
        <time>2021-07-08T15:18:40+0200</time>
      </trkpt>
      <trkpt lat="45.07144" lon="2.83406">
        <ele>1063.514751</ele>
        <time>2021-07-08T15:18:43+0200</time>
      </trkpt>
      <trkpt lat="45.07146" lon="2.83413">
        <ele>1064.868065</ele>
        <time>2021-07-08T15:18:46+0200</time>
      </trkpt>
      <trkpt lat="45.07146" lon="2.83421">
        <ele>1064.989503</ele>
        <time>2021-07-08T15:18:49+0200</time>
      </trkpt>
      <trkpt lat="45.07144" lon="2.83429">
        <ele>1064.118306</ele>
        <time>2021-07-08T15:18:52+0200</time>
      </trkpt>
      <trkpt lat="45.07144" lon="2.83438">
        <ele>1064.403451</ele>
        <time>2021-07-08T15:18:55+0200</time>
      </trkpt>
      <trkpt lat="45.07144" lon="2.83447">
        <ele>1067.506827</ele>
        <time>2021-07-08T15:18:59+0200</time>
      </trkpt>
      <trkpt lat="45.07143" lon="2.83454">
        <ele>1066.929662</ele>
        <time>2021-07-08T15:19:02+0200</time>
      </trkpt>
      <trkpt lat="45.07144" lon="2.83461">
        <ele>1069.363619</ele>
        <time>2021-07-08T15:19:05+0200</time>
      </trkpt>
      <trkpt lat="45.07144" lon="2.83468">
        <ele>1073.320188</ele>
        <time>2021-07-08T15:19:09+0200</time>
      </trkpt>
      <trkpt lat="45.07144" lon="2.83475">
        <ele>1075.22805</ele>
        <time>2021-07-08T15:19:12+0200</time>
      </trkpt>
      <trkpt lat="45.07145" lon="2.83482">
        <ele>1075.739403</ele>
        <time>2021-07-08T15:19:15+0200</time>
      </trkpt>
      <trkpt lat="45.07146" lon="2.83488">
        <ele>1077.848671</ele>
        <time>2021-07-08T15:19:19+0200</time>
      </trkpt>
      <trkpt lat="45.07147" lon="2.83497">
        <ele>1078.612604</ele>
        <time>2021-07-08T15:19:23+0200</time>
      </trkpt>
      <trkpt lat="45.07149" lon="2.83504">
        <ele>1080.066163</ele>
        <time>2021-07-08T15:19:27+0200</time>
      </trkpt>
      <trkpt lat="45.07148" lon="2.83511">
        <ele>1081.282002</ele>
        <time>2021-07-08T15:19:31+0200</time>
      </trkpt>
      <trkpt lat="45.07147" lon="2.83518">
        <ele>1085.141247</ele>
        <time>2021-07-08T15:19:35+0200</time>
      </trkpt>
      <trkpt lat="45.07142" lon="2.8352">
        <ele>1089.32478</ele>
        <time>2021-07-08T15:19:40+0200</time>
      </trkpt>
      <trkpt lat="45.07137" lon="2.8352">
        <ele>1089.666079</ele>
        <time>2021-07-08T15:19:43+0200</time>
      </trkpt>
      <trkpt lat="45.07134" lon="2.83514">
        <ele>1095.207646</ele>
        <time>2021-07-08T15:19:48+0200</time>
      </trkpt>
      <trkpt lat="45.07129" lon="2.83512">
        <ele>1093.857647</ele>
        <time>2021-07-08T15:19:52+0200</time>
      </trkpt>
      <trkpt lat="45.07128" lon="2.83506">
        <ele>1101.123913</ele>
        <time>2021-07-08T15:19:57+0200</time>
      </trkpt>
      <trkpt lat="45.07125" lon="2.83499">
        <ele>1101.409171</ele>
        <time>2021-07-08T15:20:00+0200</time>
      </trkpt>
      <trkpt lat="45.07121" lon="2.83491">
        <ele>1102.67302</ele>
        <time>2021-07-08T15:20:03+0200</time>
      </trkpt>
      <trkpt lat="45.07119" lon="2.83486">
        <ele>1102.679192</ele>
        <time>2021-07-08T15:20:05+0200</time>
      </trkpt>
      <trkpt lat="45.07115" lon="2.83478">
        <ele>1102.386547</ele>
        <time>2021-07-08T15:20:07+0200</time>
      </trkpt>
      <trkpt lat="45.07112" lon="2.83472">
        <ele>1101.425452</ele>
        <time>2021-07-08T15:20:09+0200</time>
      </trkpt>
      <trkpt lat="45.07108" lon="2.83465">
        <ele>1101.297249</ele>
        <time>2021-07-08T15:20:11+0200</time>
      </trkpt>
      <trkpt lat="45.07104" lon="2.8346">
        <ele>1100.574874</ele>
        <time>2021-07-08T15:20:13+0200</time>
      </trkpt>
      <trkpt lat="45.07098" lon="2.8345">
        <ele>1098.969347</ele>
        <time>2021-07-08T15:20:15+0200</time>
      </trkpt>
      <trkpt lat="45.07096" lon="2.83442">
        <ele>1101.561535</ele>
        <time>2021-07-08T15:20:17+0200</time>
      </trkpt>
      <trkpt lat="45.07091" lon="2.83435">
        <ele>1103.137146</ele>
        <time>2021-07-08T15:20:19+0200</time>
      </trkpt>
      <trkpt lat="45.07086" lon="2.83429">
        <ele>1103.888823</ele>
        <time>2021-07-08T15:20:21+0200</time>
      </trkpt>
      <trkpt lat="45.07082" lon="2.83421">
        <ele>1103.408308</ele>
        <time>2021-07-08T15:20:23+0200</time>
      </trkpt>
      <trkpt lat="45.07079" lon="2.83412">
        <ele>1104.302432</ele>
        <time>2021-07-08T15:20:25+0200</time>
      </trkpt>
      <trkpt lat="45.07074" lon="2.83405">
        <ele>1102.729751</ele>
        <time>2021-07-08T15:20:27+0200</time>
      </trkpt>
      <trkpt lat="45.07071" lon="2.83396">
        <ele>1102.506732</ele>
        <time>2021-07-08T15:20:29+0200</time>
      </trkpt>
      <trkpt lat="45.07068" lon="2.83391">
        <ele>1103.00758</ele>
        <time>2021-07-08T15:20:30+0200</time>
      </trkpt>
      <trkpt lat="45.07065" lon="2.83384">
        <ele>1103.639224</ele>
        <time>2021-07-08T15:20:32+0200</time>
      </trkpt>
      <trkpt lat="45.07062" lon="2.83374">
        <ele>1103.783808</ele>
        <time>2021-07-08T15:20:34+0200</time>
      </trkpt>
      <trkpt lat="45.07057" lon="2.83367">
        <ele>1103.070882</ele>
        <time>2021-07-08T15:20:36+0200</time>
      </trkpt>
      <trkpt lat="45.07053" lon="2.8336">
        <ele>1106.535944</ele>
        <time>2021-07-08T15:20:38+0200</time>
      </trkpt>
      <trkpt lat="45.07049" lon="2.83353">
        <ele>1107.663821</ele>
        <time>2021-07-08T15:20:40+0200</time>
      </trkpt>
      <trkpt lat="45.07046" lon="2.83347">
        <ele>1108.909176</ele>
        <time>2021-07-08T15:20:42+0200</time>
      </trkpt>
      <trkpt lat="45.07043" lon="2.8334">
        <ele>1109.28193</ele>
        <time>2021-07-08T15:20:44+0200</time>
      </trkpt>
      <trkpt lat="45.07038" lon="2.83334">
        <ele>1109.070695</ele>
        <time>2021-07-08T15:20:46+0200</time>
      </trkpt>
      <trkpt lat="45.07031" lon="2.83328">
        <ele>1106.466773</ele>
        <time>2021-07-08T15:20:48+0200</time>
      </trkpt>
      <trkpt lat="45.07028" lon="2.8332">
        <ele>1105.986057</ele>
        <time>2021-07-08T15:20:50+0200</time>
      </trkpt>
      <trkpt lat="45.07027" lon="2.83313">
        <ele>1105.556999</ele>
        <time>2021-07-08T15:20:52+0200</time>
      </trkpt>
      <trkpt lat="45.07025" lon="2.83307">
        <ele>1108.06357</ele>
        <time>2021-07-08T15:20:54+0200</time>
      </trkpt>
      <trkpt lat="45.07025" lon="2.83299">
        <ele>1110.234415</ele>
        <time>2021-07-08T15:20:56+0200</time>
      </trkpt>
      <trkpt lat="45.07024" lon="2.83293">
        <ele>1110.04613</ele>
        <time>2021-07-08T15:20:58+0200</time>
      </trkpt>
      <trkpt lat="45.07021" lon="2.83287">
        <ele>1110.186637</ele>
        <time>2021-07-08T15:21:00+0200</time>
      </trkpt>
      <trkpt lat="45.07016" lon="2.83278">
        <ele>1105.76038</ele>
        <time>2021-07-08T15:21:02+0200</time>
      </trkpt>
      <trkpt lat="45.07013" lon="2.83272">
        <ele>1106.035374</ele>
        <time>2021-07-08T15:21:05+0200</time>
      </trkpt>
      <trkpt lat="45.07008" lon="2.83265">
        <ele>1102.23107</ele>
        <time>2021-07-08T15:21:08+0200</time>
      </trkpt>
      <trkpt lat="45.07004" lon="2.83259">
        <ele>1103.080838</ele>
        <time>2021-07-08T15:21:11+0200</time>
      </trkpt>
      <trkpt lat="45.07001" lon="2.83254">
        <ele>1102.336321</ele>
        <time>2021-07-08T15:21:13+0200</time>
      </trkpt>
      <trkpt lat="45.06997" lon="2.83248">
        <ele>1099.027038</ele>
        <time>2021-07-08T15:21:15+0200</time>
      </trkpt>
      <trkpt lat="45.06992" lon="2.83242">
        <ele>1095.982987</ele>
        <time>2021-07-08T15:21:17+0200</time>
      </trkpt>
      <trkpt lat="45.06988" lon="2.83238">
        <ele>1093.678356</ele>
        <time>2021-07-08T15:21:19+0200</time>
      </trkpt>
      <trkpt lat="45.06985" lon="2.83231">
        <ele>1096.632836</ele>
        <time>2021-07-08T15:21:22+0200</time>
      </trkpt>
      <trkpt lat="45.06981" lon="2.83224">
        <ele>1096.560333</ele>
        <time>2021-07-08T15:21:25+0200</time>
      </trkpt>
      <trkpt lat="45.06976" lon="2.83219">
        <ele>1095.426882</ele>
        <time>2021-07-08T15:21:27+0200</time>
      </trkpt>
      <trkpt lat="45.06972" lon="2.83214">
        <ele>1096.400419</ele>
        <time>2021-07-08T15:21:30+0200</time>
      </trkpt>
      <trkpt lat="45.0697" lon="2.83208">
        <ele>1096.900401</ele>
        <time>2021-07-08T15:21:32+0200</time>
      </trkpt>
      <trkpt lat="45.06969" lon="2.832">
        <ele>1099.574378</ele>
        <time>2021-07-08T15:21:36+0200</time>
      </trkpt>
      <trkpt lat="45.06967" lon="2.83194">
        <ele>1100.231269</ele>
        <time>2021-07-08T15:21:39+0200</time>
      </trkpt>
      <trkpt lat="45.06965" lon="2.83187">
        <ele>1101.295391</ele>
        <time>2021-07-08T15:21:42+0200</time>
      </trkpt>
      <trkpt lat="45.06962" lon="2.83182">
        <ele>1101.871113</ele>
        <time>2021-07-08T15:21:44+0200</time>
      </trkpt>
      <trkpt lat="45.06958" lon="2.83175">
        <ele>1102.116339</ele>
        <time>2021-07-08T15:21:47+0200</time>
      </trkpt>
      <trkpt lat="45.06953" lon="2.83168">
        <ele>1103.095468</ele>
        <time>2021-07-08T15:21:50+0200</time>
      </trkpt>
      <trkpt lat="45.0695" lon="2.8316">
        <ele>1102.982997</ele>
        <time>2021-07-08T15:21:53+0200</time>
      </trkpt>
      <trkpt lat="45.06949" lon="2.83152">
        <ele>1106.707854</ele>
        <time>2021-07-08T15:21:55+0200</time>
      </trkpt>
      <trkpt lat="45.06946" lon="2.83144">
        <ele>1110.824596</ele>
        <time>2021-07-08T15:21:58+0200</time>
      </trkpt>
      <trkpt lat="45.06941" lon="2.83136">
        <ele>1114.384593</ele>
        <time>2021-07-08T15:22:01+0200</time>
      </trkpt>
      <trkpt lat="45.06938" lon="2.83129">
        <ele>1113.828125</ele>
        <time>2021-07-08T15:22:04+0200</time>
      </trkpt>
      <trkpt lat="45.06934" lon="2.83121">
        <ele>1110.83076</ele>
        <time>2021-07-08T15:22:07+0200</time>
      </trkpt>
      <trkpt lat="45.06931" lon="2.83116">
        <ele>1109.053555</ele>
        <time>2021-07-08T15:22:09+0200</time>
      </trkpt>
      <trkpt lat="45.06927" lon="2.8311">
        <ele>1108.398168</ele>
        <time>2021-07-08T15:22:11+0200</time>
      </trkpt>
      <trkpt lat="45.06924" lon="2.83104">
        <ele>1108.730051</ele>
        <time>2021-07-08T15:22:13+0200</time>
      </trkpt>
      <trkpt lat="45.0692" lon="2.831">
        <ele>1108.393555</ele>
        <time>2021-07-08T15:22:15+0200</time>
      </trkpt>
      <trkpt lat="45.06916" lon="2.83095">
        <ele>1109.201897</ele>
        <time>2021-07-08T15:22:18+0200</time>
      </trkpt>
      <trkpt lat="45.06912" lon="2.83089">
        <ele>1109.207222</ele>
        <time>2021-07-08T15:22:21+0200</time>
      </trkpt>
      <trkpt lat="45.06908" lon="2.83084">
        <ele>1109.931195</ele>
        <time>2021-07-08T15:22:24+0200</time>
      </trkpt>
      <trkpt lat="45.06904" lon="2.8308">
        <ele>1108.803082</ele>
        <time>2021-07-08T15:22:26+0200</time>
      </trkpt>
      <trkpt lat="45.069" lon="2.83076">
        <ele>1108.955404</ele>
        <time>2021-07-08T15:22:29+0200</time>
      </trkpt>
      <trkpt lat="45.06895" lon="2.8307">
        <ele>1109.826349</ele>
        <time>2021-07-08T15:22:32+0200</time>
      </trkpt>
      <trkpt lat="45.06891" lon="2.83065">
        <ele>1109.820216</ele>
        <time>2021-07-08T15:22:34+0200</time>
      </trkpt>
      <trkpt lat="45.06888" lon="2.83059">
        <ele>1112.241789</ele>
        <time>2021-07-08T15:22:36+0200</time>
      </trkpt>
      <trkpt lat="45.06885" lon="2.83052">
        <ele>1116.30679</ele>
        <time>2021-07-08T15:22:39+0200</time>
      </trkpt>
      <trkpt lat="45.06881" lon="2.83046">
        <ele>1116.338823</ele>
        <time>2021-07-08T15:22:42+0200</time>
      </trkpt>
      <trkpt lat="45.06877" lon="2.8304">
        <ele>1116.558224</ele>
        <time>2021-07-08T15:22:47+0200</time>
      </trkpt>
      <trkpt lat="45.06873" lon="2.83036">
        <ele>1117.022353</ele>
        <time>2021-07-08T15:22:49+0200</time>
      </trkpt>
      <trkpt lat="45.0687" lon="2.83029">
        <ele>1119.239693</ele>
        <time>2021-07-08T15:22:52+0200</time>
      </trkpt>
      <trkpt lat="45.06867" lon="2.83023">
        <ele>1121.460251</ele>
        <time>2021-07-08T15:22:55+0200</time>
      </trkpt>
      <trkpt lat="45.06867" lon="2.83017">
        <ele>1125.450133</ele>
        <time>2021-07-08T15:22:58+0200</time>
      </trkpt>
      <trkpt lat="45.06863" lon="2.8301">
        <ele>1124.259602</ele>
        <time>2021-07-08T15:23:02+0200</time>
      </trkpt>
      <trkpt lat="45.06858" lon="2.83006">
        <ele>1121.739105</ele>
        <time>2021-07-08T15:23:06+0200</time>
      </trkpt>
      <trkpt lat="45.06853" lon="2.83004">
        <ele>1120.447884</ele>
        <time>2021-07-08T15:23:09+0200</time>
      </trkpt>
      <trkpt lat="45.06851" lon="2.82996">
        <ele>1123.744325</ele>
        <time>2021-07-08T15:23:13+0200</time>
      </trkpt>
      <trkpt lat="45.06847" lon="2.82993">
        <ele>1123.105187</ele>
        <time>2021-07-08T15:23:15+0200</time>
      </trkpt>
      <trkpt lat="45.06843" lon="2.82987">
        <ele>1124.657738</ele>
        <time>2021-07-08T15:23:18+0200</time>
      </trkpt>
      <trkpt lat="45.06841" lon="2.8298">
        <ele>1127.50263</ele>
        <time>2021-07-08T15:23:21+0200</time>
      </trkpt>
      <trkpt lat="45.06837" lon="2.82976">
        <ele>1130.614983</ele>
        <time>2021-07-08T15:23:25+0200</time>
      </trkpt>
      <trkpt lat="45.06834" lon="2.8297">
        <ele>1132.770553</ele>
        <time>2021-07-08T15:23:29+0200</time>
      </trkpt>
      <trkpt lat="45.06829" lon="2.82967">
        <ele>1134.631643</ele>
        <time>2021-07-08T15:23:33+0200</time>
      </trkpt>
      <trkpt lat="45.06826" lon="2.82972">
        <ele>1130.31384</ele>
        <time>2021-07-08T15:23:44+0200</time>
      </trkpt>
      <trkpt lat="45.06821" lon="2.82972">
        <ele>1126.252978</ele>
        <time>2021-07-08T15:24:11+0200</time>
      </trkpt>
      <trkpt lat="45.06818" lon="2.82977">
        <ele>1122.757234</ele>
        <time>2021-07-08T15:24:38+0200</time>
      </trkpt>
      <trkpt lat="45.06821" lon="2.82972">
        <ele>1129.969614</ele>
        <time>2021-07-08T15:25:13+0200</time>
      </trkpt>
      <trkpt lat="45.06824" lon="2.82966">
        <ele>1125.647488</ele>
        <time>2021-07-08T15:26:02+0200</time>
      </trkpt>
      <trkpt lat="45.0682" lon="2.8297">
        <ele>1128.176799</ele>
        <time>2021-07-08T15:26:23+0200</time>
      </trkpt>
      <trkpt lat="45.06818" lon="2.82976">
        <ele>1125.016743</ele>
        <time>2021-07-08T15:26:30+0200</time>
      </trkpt>
      <trkpt lat="45.06819" lon="2.82984">
        <ele>1126.095277</ele>
        <time>2021-07-08T15:26:33+0200</time>
      </trkpt>
      <trkpt lat="45.06822" lon="2.82989">
        <ele>1127.322852</ele>
        <time>2021-07-08T15:26:35+0200</time>
      </trkpt>
      <trkpt lat="45.06826" lon="2.82993">
        <ele>1129.475208</ele>
        <time>2021-07-08T15:26:37+0200</time>
      </trkpt>
      <trkpt lat="45.0683" lon="2.82997">
        <ele>1132.942289</ele>
        <time>2021-07-08T15:26:39+0200</time>
      </trkpt>
      <trkpt lat="45.06832" lon="2.83003">
        <ele>1135.457706</ele>
        <time>2021-07-08T15:26:42+0200</time>
      </trkpt>
      <trkpt lat="45.06836" lon="2.83009">
        <ele>1137.570452</ele>
        <time>2021-07-08T15:26:45+0200</time>
      </trkpt>
      <trkpt lat="45.06838" lon="2.83018">
        <ele>1139.116145</ele>
        <time>2021-07-08T15:26:48+0200</time>
      </trkpt>
      <trkpt lat="45.06839" lon="2.83024">
        <ele>1139.230886</ele>
        <time>2021-07-08T15:26:50+0200</time>
      </trkpt>
      <trkpt lat="45.06842" lon="2.83035">
        <ele>1136.877094</ele>
        <time>2021-07-08T15:26:53+0200</time>
      </trkpt>
      <trkpt lat="45.06847" lon="2.83043">
        <ele>1135.556051</ele>
        <time>2021-07-08T15:26:55+0200</time>
      </trkpt>
      <trkpt lat="45.06849" lon="2.83051">
        <ele>1134.108911</ele>
        <time>2021-07-08T15:26:57+0200</time>
      </trkpt>
      <trkpt lat="45.06851" lon="2.83059">
        <ele>1132.658512</ele>
        <time>2021-07-08T15:26:59+0200</time>
      </trkpt>
      <trkpt lat="45.06854" lon="2.83067">
        <ele>1132.779558</ele>
        <time>2021-07-08T15:27:01+0200</time>
      </trkpt>
      <trkpt lat="45.06857" lon="2.83075">
        <ele>1131.388676</ele>
        <time>2021-07-08T15:27:03+0200</time>
      </trkpt>
      <trkpt lat="45.06859" lon="2.83082">
        <ele>1129.929591</ele>
        <time>2021-07-08T15:27:05+0200</time>
      </trkpt>
      <trkpt lat="45.06861" lon="2.83091">
        <ele>1129.43101</ele>
        <time>2021-07-08T15:27:07+0200</time>
      </trkpt>
      <trkpt lat="45.06865" lon="2.83099">
        <ele>1130.313325</ele>
        <time>2021-07-08T15:27:09+0200</time>
      </trkpt>
      <trkpt lat="45.06866" lon="2.83106">
        <ele>1129.325127</ele>
        <time>2021-07-08T15:27:11+0200</time>
      </trkpt>
      <trkpt lat="45.0687" lon="2.83115">
        <ele>1129.419944</ele>
        <time>2021-07-08T15:27:13+0200</time>
      </trkpt>
      <trkpt lat="45.06873" lon="2.83122">
        <ele>1129.393181</ele>
        <time>2021-07-08T15:27:15+0200</time>
      </trkpt>
      <trkpt lat="45.06877" lon="2.83131">
        <ele>1129.971456</ele>
        <time>2021-07-08T15:27:17+0200</time>
      </trkpt>
      <trkpt lat="45.0688" lon="2.83139">
        <ele>1130.759168</ele>
        <time>2021-07-08T15:27:19+0200</time>
      </trkpt>
      <trkpt lat="45.06884" lon="2.83147">
        <ele>1130.315768</ele>
        <time>2021-07-08T15:27:21+0200</time>
      </trkpt>
      <trkpt lat="45.06887" lon="2.83155">
        <ele>1131.902497</ele>
        <time>2021-07-08T15:27:23+0200</time>
      </trkpt>
      <trkpt lat="45.06891" lon="2.83164">
        <ele>1133.479192</ele>
        <time>2021-07-08T15:27:25+0200</time>
      </trkpt>
      <trkpt lat="45.06893" lon="2.83173">
        <ele>1135.027446</ele>
        <time>2021-07-08T15:27:27+0200</time>
      </trkpt>
      <trkpt lat="45.06898" lon="2.83179">
        <ele>1135.861027</ele>
        <time>2021-07-08T15:27:28+0200</time>
      </trkpt>
      <trkpt lat="45.06901" lon="2.83188">
        <ele>1135.055953</ele>
        <time>2021-07-08T15:27:30+0200</time>
      </trkpt>
      <trkpt lat="45.06904" lon="2.83198">
        <ele>1134.239777</ele>
        <time>2021-07-08T15:27:32+0200</time>
      </trkpt>
      <trkpt lat="45.06907" lon="2.83208">
        <ele>1133.479683</ele>
        <time>2021-07-08T15:27:34+0200</time>
      </trkpt>
      <trkpt lat="45.06909" lon="2.83218">
        <ele>1133.997691</ele>
        <time>2021-07-08T15:27:36+0200</time>
      </trkpt>
      <trkpt lat="45.06914" lon="2.83226">
        <ele>1135.073154</ele>
        <time>2021-07-08T15:27:38+0200</time>
      </trkpt>
      <trkpt lat="45.06917" lon="2.83236">
        <ele>1135.075942</ele>
        <time>2021-07-08T15:27:40+0200</time>
      </trkpt>
      <trkpt lat="45.06922" lon="2.83245">
        <ele>1135.585323</ele>
        <time>2021-07-08T15:27:42+0200</time>
      </trkpt>
      <trkpt lat="45.06923" lon="2.83254">
        <ele>1134.66055</ele>
        <time>2021-07-08T15:27:44+0200</time>
      </trkpt>
      <trkpt lat="45.06926" lon="2.83264">
        <ele>1132.723315</ele>
        <time>2021-07-08T15:27:46+0200</time>
      </trkpt>
      <trkpt lat="45.06929" lon="2.83272">
        <ele>1132.262906</ele>
        <time>2021-07-08T15:27:48+0200</time>
      </trkpt>
      <trkpt lat="45.06931" lon="2.83281">
        <ele>1132.194338</ele>
        <time>2021-07-08T15:27:50+0200</time>
      </trkpt>
      <trkpt lat="45.06935" lon="2.83289">
        <ele>1133.32593</ele>
        <time>2021-07-08T15:27:52+0200</time>
      </trkpt>
      <trkpt lat="45.06939" lon="2.83296">
        <ele>1133.640492</ele>
        <time>2021-07-08T15:27:54+0200</time>
      </trkpt>
      <trkpt lat="45.06942" lon="2.83304">
        <ele>1133.394418</ele>
        <time>2021-07-08T15:27:56+0200</time>
      </trkpt>
      <trkpt lat="45.06943" lon="2.83311">
        <ele>1134.561103</ele>
        <time>2021-07-08T15:27:58+0200</time>
      </trkpt>
      <trkpt lat="45.06946" lon="2.83318">
        <ele>1135.014101</ele>
        <time>2021-07-08T15:28:00+0200</time>
      </trkpt>
      <trkpt lat="45.06948" lon="2.83327">
        <ele>1134.180289</ele>
        <time>2021-07-08T15:28:02+0200</time>
      </trkpt>
      <trkpt lat="45.0695" lon="2.83334">
        <ele>1135.663658</ele>
        <time>2021-07-08T15:28:04+0200</time>
      </trkpt>
      <trkpt lat="45.06953" lon="2.83341">
        <ele>1136.083006</ele>
        <time>2021-07-08T15:28:06+0200</time>
      </trkpt>
      <trkpt lat="45.06955" lon="2.83347">
        <ele>1138.964792</ele>
        <time>2021-07-08T15:28:08+0200</time>
      </trkpt>
      <trkpt lat="45.06959" lon="2.83354">
        <ele>1140.550318</ele>
        <time>2021-07-08T15:28:10+0200</time>
      </trkpt>
      <trkpt lat="45.06961" lon="2.83361">
        <ele>1140.709194</ele>
        <time>2021-07-08T15:28:12+0200</time>
      </trkpt>
      <trkpt lat="45.06964" lon="2.83368">
        <ele>1140.007388</ele>
        <time>2021-07-08T15:28:14+0200</time>
      </trkpt>
      <trkpt lat="45.06966" lon="2.83375">
        <ele>1140.172055</ele>
        <time>2021-07-08T15:28:16+0200</time>
      </trkpt>
      <trkpt lat="45.0697" lon="2.83379">
        <ele>1143.355305</ele>
        <time>2021-07-08T15:28:18+0200</time>
      </trkpt>
      <trkpt lat="45.06973" lon="2.83385">
        <ele>1145.382335</ele>
        <time>2021-07-08T15:28:20+0200</time>
      </trkpt>
      <trkpt lat="45.06975" lon="2.83393">
        <ele>1147.989491</ele>
        <time>2021-07-08T15:28:23+0200</time>
      </trkpt>
      <trkpt lat="45.06976" lon="2.834">
        <ele>1148.386661</ele>
        <time>2021-07-08T15:28:25+0200</time>
      </trkpt>
      <trkpt lat="45.06979" lon="2.83405">
        <ele>1149.665111</ele>
        <time>2021-07-08T15:28:27+0200</time>
      </trkpt>
      <trkpt lat="45.06982" lon="2.83413">
        <ele>1151.518963</ele>
        <time>2021-07-08T15:28:30+0200</time>
      </trkpt>
      <trkpt lat="45.06983" lon="2.8342">
        <ele>1152.246278</ele>
        <time>2021-07-08T15:28:32+0200</time>
      </trkpt>
      <trkpt lat="45.06985" lon="2.83427">
        <ele>1151.70964</ele>
        <time>2021-07-08T15:28:34+0200</time>
      </trkpt>
      <trkpt lat="45.06986" lon="2.83433">
        <ele>1152.284326</ele>
        <time>2021-07-08T15:28:36+0200</time>
      </trkpt>
      <trkpt lat="45.06988" lon="2.8344">
        <ele>1149.777128</ele>
        <time>2021-07-08T15:28:38+0200</time>
      </trkpt>
      <trkpt lat="45.06992" lon="2.83445">
        <ele>1148.36294</ele>
        <time>2021-07-08T15:28:40+0200</time>
      </trkpt>
      <trkpt lat="45.06995" lon="2.83452">
        <ele>1148.827065</ele>
        <time>2021-07-08T15:28:42+0200</time>
      </trkpt>
      <trkpt lat="45.06997" lon="2.83462">
        <ele>1150.276043</ele>
        <time>2021-07-08T15:28:45+0200</time>
      </trkpt>
      <trkpt lat="45.06999" lon="2.83468">
        <ele>1149.950554</ele>
        <time>2021-07-08T15:28:47+0200</time>
      </trkpt>
      <trkpt lat="45.07003" lon="2.83475">
        <ele>1150.407275</ele>
        <time>2021-07-08T15:28:49+0200</time>
      </trkpt>
      <trkpt lat="45.07008" lon="2.83482">
        <ele>1149.728619</ele>
        <time>2021-07-08T15:28:51+0200</time>
      </trkpt>
      <trkpt lat="45.0701" lon="2.8349">
        <ele>1151.560401</ele>
        <time>2021-07-08T15:28:54+0200</time>
      </trkpt>
      <trkpt lat="45.07011" lon="2.83498">
        <ele>1155.083534</ele>
        <time>2021-07-08T15:28:57+0200</time>
      </trkpt>
      <trkpt lat="45.07014" lon="2.83504">
        <ele>1156.236152</ele>
        <time>2021-07-08T15:28:59+0200</time>
      </trkpt>
      <trkpt lat="45.07016" lon="2.83512">
        <ele>1159.779503</ele>
        <time>2021-07-08T15:29:02+0200</time>
      </trkpt>
      <trkpt lat="45.07019" lon="2.8352">
        <ele>1162.574107</ele>
        <time>2021-07-08T15:29:05+0200</time>
      </trkpt>
      <trkpt lat="45.07022" lon="2.83526">
        <ele>1163.426065</ele>
        <time>2021-07-08T15:29:07+0200</time>
      </trkpt>
      <trkpt lat="45.07023" lon="2.83533">
        <ele>1163.750454</ele>
        <time>2021-07-08T15:29:09+0200</time>
      </trkpt>
      <trkpt lat="45.07026" lon="2.83539">
        <ele>1164.765216</ele>
        <time>2021-07-08T15:29:11+0200</time>
      </trkpt>
      <trkpt lat="45.07029" lon="2.83548">
        <ele>1166.441244</ele>
        <time>2021-07-08T15:29:14+0200</time>
      </trkpt>
      <trkpt lat="45.07031" lon="2.83556">
        <ele>1167.414598</ele>
        <time>2021-07-08T15:29:17+0200</time>
      </trkpt>
      <trkpt lat="45.07033" lon="2.83562">
        <ele>1167.204358</ele>
        <time>2021-07-08T15:29:19+0200</time>
      </trkpt>
      <trkpt lat="45.07034" lon="2.83572">
        <ele>1165.308205</ele>
        <time>2021-07-08T15:29:22+0200</time>
      </trkpt>
      <trkpt lat="45.07035" lon="2.83579">
        <ele>1163.768106</ele>
        <time>2021-07-08T15:29:24+0200</time>
      </trkpt>
      <trkpt lat="45.07038" lon="2.83587">
        <ele>1164.11447</ele>
        <time>2021-07-08T15:29:27+0200</time>
      </trkpt>
      <trkpt lat="45.07039" lon="2.83594">
        <ele>1165.381641</ele>
        <time>2021-07-08T15:29:30+0200</time>
      </trkpt>
      <trkpt lat="45.07042" lon="2.83602">
        <ele>1164.728619</ele>
        <time>2021-07-08T15:29:33+0200</time>
      </trkpt>
      <trkpt lat="45.07045" lon="2.8361">
        <ele>1167.256428</ele>
        <time>2021-07-08T15:29:36+0200</time>
      </trkpt>
      <trkpt lat="45.07048" lon="2.83618">
        <ele>1168.929161</ele>
        <time>2021-07-08T15:29:39+0200</time>
      </trkpt>
      <trkpt lat="45.07051" lon="2.83626">
        <ele>1167.68418</ele>
        <time>2021-07-08T15:29:41+0200</time>
      </trkpt>
      <trkpt lat="45.07053" lon="2.83633">
        <ele>1168.288615</ele>
        <time>2021-07-08T15:29:44+0200</time>
      </trkpt>
      <trkpt lat="45.07055" lon="2.8364">
        <ele>1168.448946</ele>
        <time>2021-07-08T15:29:47+0200</time>
      </trkpt>
      <trkpt lat="45.07055" lon="2.83647">
        <ele>1168.894567</ele>
        <time>2021-07-08T15:29:50+0200</time>
      </trkpt>
      <trkpt lat="45.07059" lon="2.83653">
        <ele>1170.090186</ele>
        <time>2021-07-08T15:29:53+0200</time>
      </trkpt>
      <trkpt lat="45.0706" lon="2.83659">
        <ele>1171.455629</ele>
        <time>2021-07-08T15:29:56+0200</time>
      </trkpt>
      <trkpt lat="45.0706" lon="2.83666">
        <ele>1169.035171</ele>
        <time>2021-07-08T15:29:59+0200</time>
      </trkpt>
      <trkpt lat="45.0706" lon="2.83676">
        <ele>1167.231502</ele>
        <time>2021-07-08T15:30:02+0200</time>
      </trkpt>
      <trkpt lat="45.07062" lon="2.83682">
        <ele>1166.517718</ele>
        <time>2021-07-08T15:30:04+0200</time>
      </trkpt>
      <trkpt lat="45.07062" lon="2.83689">
        <ele>1166.064904</ele>
        <time>2021-07-08T15:30:07+0200</time>
      </trkpt>
      <trkpt lat="45.07061" lon="2.83697">
        <ele>1167.894206</ele>
        <time>2021-07-08T15:30:11+0200</time>
      </trkpt>
      <trkpt lat="45.07061" lon="2.83705">
        <ele>1167.781</ele>
        <time>2021-07-08T15:30:14+0200</time>
      </trkpt>
      <trkpt lat="45.07059" lon="2.83711">
        <ele>1165.037422</ele>
        <time>2021-07-08T15:30:16+0200</time>
      </trkpt>
      <trkpt lat="45.07057" lon="2.83717">
        <ele>1164.771741</ele>
        <time>2021-07-08T15:30:19+0200</time>
      </trkpt>
      <trkpt lat="45.07052" lon="2.8372">
        <ele>1163.826724</ele>
        <time>2021-07-08T15:30:23+0200</time>
      </trkpt>
      <trkpt lat="45.07051" lon="2.83714">
        <ele>1167.613333</ele>
        <time>2021-07-08T15:30:27+0200</time>
      </trkpt>
      <trkpt lat="45.07051" lon="2.83707">
        <ele>1170.280499</ele>
        <time>2021-07-08T15:30:30+0200</time>
      </trkpt>
      <trkpt lat="45.07053" lon="2.83699">
        <ele>1171.656726</ele>
        <time>2021-07-08T15:30:34+0200</time>
      </trkpt>
      <trkpt lat="45.07051" lon="2.83692">
        <ele>1170.275365</ele>
        <time>2021-07-08T15:30:37+0200</time>
      </trkpt>
      <trkpt lat="45.07049" lon="2.83684">
        <ele>1171.349554</ele>
        <time>2021-07-08T15:30:40+0200</time>
      </trkpt>
      <trkpt lat="45.07049" lon="2.83677">
        <ele>1173.8818</ele>
        <time>2021-07-08T15:30:43+0200</time>
      </trkpt>
      <trkpt lat="45.07047" lon="2.8367">
        <ele>1175.421404</ele>
        <time>2021-07-08T15:30:46+0200</time>
      </trkpt>
      <trkpt lat="45.07044" lon="2.83665">
        <ele>1174.895105</ele>
        <time>2021-07-08T15:30:49+0200</time>
      </trkpt>
      <trkpt lat="45.0704" lon="2.83659">
        <ele>1173.766808</ele>
        <time>2021-07-08T15:30:52+0200</time>
      </trkpt>
      <trkpt lat="45.07037" lon="2.83651">
        <ele>1176.047303</ele>
        <time>2021-07-08T15:30:55+0200</time>
      </trkpt>
      <trkpt lat="45.07036" lon="2.83643">
        <ele>1179.313901</ele>
        <time>2021-07-08T15:30:58+0200</time>
      </trkpt>
      <trkpt lat="45.07031" lon="2.83635">
        <ele>1181.469468</ele>
        <time>2021-07-08T15:31:01+0200</time>
      </trkpt>
      <trkpt lat="45.07029" lon="2.83627">
        <ele>1183.43318</ele>
        <time>2021-07-08T15:31:04+0200</time>
      </trkpt>
      <trkpt lat="45.07026" lon="2.83621">
        <ele>1184.99169</ele>
        <time>2021-07-08T15:31:06+0200</time>
      </trkpt>
      <trkpt lat="45.07023" lon="2.83616">
        <ele>1186.35696</ele>
        <time>2021-07-08T15:31:09+0200</time>
      </trkpt>
      <trkpt lat="45.07019" lon="2.83609">
        <ele>1188.104601</ele>
        <time>2021-07-08T15:31:12+0200</time>
      </trkpt>
      <trkpt lat="45.07015" lon="2.83601">
        <ele>1189.124882</ele>
        <time>2021-07-08T15:31:15+0200</time>
      </trkpt>
      <trkpt lat="45.07012" lon="2.83596">
        <ele>1189.955632</ele>
        <time>2021-07-08T15:31:17+0200</time>
      </trkpt>
      <trkpt lat="45.07006" lon="2.83591">
        <ele>1189.554353</ele>
        <time>2021-07-08T15:31:19+0200</time>
      </trkpt>
      <trkpt lat="45.07002" lon="2.83585">
        <ele>1190.714377</ele>
        <time>2021-07-08T15:31:22+0200</time>
      </trkpt>
      <trkpt lat="45.07" lon="2.83578">
        <ele>1191.426692</ele>
        <time>2021-07-08T15:31:25+0200</time>
      </trkpt>
      <trkpt lat="45.06997" lon="2.83571">
        <ele>1191.968664</ele>
        <time>2021-07-08T15:31:28+0200</time>
      </trkpt>
      <trkpt lat="45.06994" lon="2.83565">
        <ele>1191.741471</ele>
        <time>2021-07-08T15:31:31+0200</time>
      </trkpt>
      <trkpt lat="45.06992" lon="2.83558">
        <ele>1191.9581</ele>
        <time>2021-07-08T15:31:34+0200</time>
      </trkpt>
      <trkpt lat="45.06991" lon="2.8355">
        <ele>1193.559387</ele>
        <time>2021-07-08T15:31:37+0200</time>
      </trkpt>
      <trkpt lat="45.06989" lon="2.83542">
        <ele>1196.12529</ele>
        <time>2021-07-08T15:31:40+0200</time>
      </trkpt>
      <trkpt lat="45.06985" lon="2.83536">
        <ele>1196.939835</ele>
        <time>2021-07-08T15:31:43+0200</time>
      </trkpt>
      <trkpt lat="45.0698" lon="2.83532">
        <ele>1196.895744</ele>
        <time>2021-07-08T15:31:45+0200</time>
      </trkpt>
      <trkpt lat="45.06977" lon="2.83526">
        <ele>1197.691564</ele>
        <time>2021-07-08T15:31:47+0200</time>
      </trkpt>
      <trkpt lat="45.06974" lon="2.8352">
        <ele>1196.538355</ele>
        <time>2021-07-08T15:31:49+0200</time>
      </trkpt>
      <trkpt lat="45.06971" lon="2.83513">
        <ele>1197.325577</ele>
        <time>2021-07-08T15:31:52+0200</time>
      </trkpt>
      <trkpt lat="45.06967" lon="2.83508">
        <ele>1197.134927</ele>
        <time>2021-07-08T15:31:54+0200</time>
      </trkpt>
      <trkpt lat="45.06962" lon="2.83503">
        <ele>1196.322536</ele>
        <time>2021-07-08T15:31:56+0200</time>
      </trkpt>
      <trkpt lat="45.06957" lon="2.83498">
        <ele>1195.340328</ele>
        <time>2021-07-08T15:31:58+0200</time>
      </trkpt>
      <trkpt lat="45.06952" lon="2.83492">
        <ele>1195.678966</ele>
        <time>2021-07-08T15:32:01+0200</time>
      </trkpt>
      <trkpt lat="45.06948" lon="2.83486">
        <ele>1195.704756</ele>
        <time>2021-07-08T15:32:03+0200</time>
      </trkpt>
      <trkpt lat="45.06944" lon="2.83479">
        <ele>1197.498497</ele>
        <time>2021-07-08T15:32:06+0200</time>
      </trkpt>
      <trkpt lat="45.06942" lon="2.83473">
        <ele>1198.835062</ele>
        <time>2021-07-08T15:32:09+0200</time>
      </trkpt>
      <trkpt lat="45.06939" lon="2.83465">
        <ele>1198.292725</ele>
        <time>2021-07-08T15:32:12+0200</time>
      </trkpt>
      <trkpt lat="45.06937" lon="2.83458">
        <ele>1198.578515</ele>
        <time>2021-07-08T15:32:14+0200</time>
      </trkpt>
      <trkpt lat="45.06935" lon="2.8345">
        <ele>1201.431094</ele>
        <time>2021-07-08T15:32:18+0200</time>
      </trkpt>
      <trkpt lat="45.06932" lon="2.83445">
        <ele>1201.833208</ele>
        <time>2021-07-08T15:32:20+0200</time>
      </trkpt>
      <trkpt lat="45.06928" lon="2.8344">
        <ele>1201.135534</ele>
        <time>2021-07-08T15:32:22+0200</time>
      </trkpt>
      <trkpt lat="45.06923" lon="2.83435">
        <ele>1199.393191</ele>
        <time>2021-07-08T15:32:24+0200</time>
      </trkpt>
      <trkpt lat="45.06918" lon="2.83428">
        <ele>1198.938189</ele>
        <time>2021-07-08T15:32:27+0200</time>
      </trkpt>
      <trkpt lat="45.06914" lon="2.83422">
        <ele>1198.768117</ele>
        <time>2021-07-08T15:32:29+0200</time>
      </trkpt>
      <trkpt lat="45.0691" lon="2.83416">
        <ele>1197.632823</ele>
        <time>2021-07-08T15:32:32+0200</time>
      </trkpt>
      <trkpt lat="45.06907" lon="2.83411">
        <ele>1198.870219</ele>
        <time>2021-07-08T15:32:34+0200</time>
      </trkpt>
      <trkpt lat="45.06903" lon="2.83405">
        <ele>1199.343917</ele>
        <time>2021-07-08T15:32:36+0200</time>
      </trkpt>
      <trkpt lat="45.06899" lon="2.83401">
        <ele>1199.375522</ele>
        <time>2021-07-08T15:32:38+0200</time>
      </trkpt>
      <trkpt lat="45.06895" lon="2.83395">
        <ele>1198.439695</ele>
        <time>2021-07-08T15:32:40+0200</time>
      </trkpt>
      <trkpt lat="45.06892" lon="2.83391">
        <ele>1198.887357</ele>
        <time>2021-07-08T15:32:42+0200</time>
      </trkpt>
      <trkpt lat="45.06889" lon="2.83384">
        <ele>1199.544094</ele>
        <time>2021-07-08T15:32:44+0200</time>
      </trkpt>
      <trkpt lat="45.06885" lon="2.83379">
        <ele>1199.650403</ele>
        <time>2021-07-08T15:32:46+0200</time>
      </trkpt>
      <trkpt lat="45.06883" lon="2.83373">
        <ele>1200.500243</ele>
        <time>2021-07-08T15:32:48+0200</time>
      </trkpt>
      <trkpt lat="45.06881" lon="2.83365">
        <ele>1202.833066</ele>
        <time>2021-07-08T15:32:50+0200</time>
      </trkpt>
      <trkpt lat="45.06879" lon="2.83359">
        <ele>1203.28832</ele>
        <time>2021-07-08T15:32:52+0200</time>
      </trkpt>
      <trkpt lat="45.06875" lon="2.8335">
        <ele>1202.888121</ele>
        <time>2021-07-08T15:32:54+0200</time>
      </trkpt>
      <trkpt lat="45.06869" lon="2.83344">
        <ele>1203.130362</ele>
        <time>2021-07-08T15:32:56+0200</time>
      </trkpt>
      <trkpt lat="45.06866" lon="2.83338">
        <ele>1204.080927</ele>
        <time>2021-07-08T15:32:58+0200</time>
      </trkpt>
      <trkpt lat="45.06863" lon="2.83331">
        <ele>1204.274518</ele>
        <time>2021-07-08T15:33:00+0200</time>
      </trkpt>
      <trkpt lat="45.06859" lon="2.83323">
        <ele>1204.296087</ele>
        <time>2021-07-08T15:33:02+0200</time>
      </trkpt>
      <trkpt lat="45.06855" lon="2.83315">
        <ele>1203.451983</ele>
        <time>2021-07-08T15:33:04+0200</time>
      </trkpt>
      <trkpt lat="45.06853" lon="2.83306">
        <ele>1204.145359</ele>
        <time>2021-07-08T15:33:06+0200</time>
      </trkpt>
      <trkpt lat="45.06852" lon="2.83297">
        <ele>1203.449399</ele>
        <time>2021-07-08T15:33:08+0200</time>
      </trkpt>
      <trkpt lat="45.06849" lon="2.8329">
        <ele>1203.453655</ele>
        <time>2021-07-08T15:33:10+0200</time>
      </trkpt>
      <trkpt lat="45.06845" lon="2.83281">
        <ele>1203.485952</ele>
        <time>2021-07-08T15:33:12+0200</time>
      </trkpt>
      <trkpt lat="45.0684" lon="2.83273">
        <ele>1203.276763</ele>
        <time>2021-07-08T15:33:14+0200</time>
      </trkpt>
      <trkpt lat="45.06836" lon="2.83263">
        <ele>1204.259107</ele>
        <time>2021-07-08T15:33:16+0200</time>
      </trkpt>
      <trkpt lat="45.06833" lon="2.83258">
        <ele>1205.085797</ele>
        <time>2021-07-08T15:33:17+0200</time>
      </trkpt>
      <trkpt lat="45.06831" lon="2.8325">
        <ele>1206.376587</ele>
        <time>2021-07-08T15:33:19+0200</time>
      </trkpt>
      <trkpt lat="45.06828" lon="2.8324">
        <ele>1207.946131</ele>
        <time>2021-07-08T15:33:21+0200</time>
      </trkpt>
      <trkpt lat="45.06825" lon="2.83231">
        <ele>1207.659183</ele>
        <time>2021-07-08T15:33:23+0200</time>
      </trkpt>
      <trkpt lat="45.06819" lon="2.83222">
        <ele>1208.437279</ele>
        <time>2021-07-08T15:33:25+0200</time>
      </trkpt>
      <trkpt lat="45.06813" lon="2.83217">
        <ele>1206.29119</ele>
        <time>2021-07-08T15:33:26+0200</time>
      </trkpt>
      <trkpt lat="45.06809" lon="2.8321">
        <ele>1206.604291</ele>
        <time>2021-07-08T15:33:28+0200</time>
      </trkpt>
      <trkpt lat="45.06804" lon="2.83202">
        <ele>1206.053034</ele>
        <time>2021-07-08T15:33:30+0200</time>
      </trkpt>
      <trkpt lat="45.06801" lon="2.83194">
        <ele>1206.562459</ele>
        <time>2021-07-08T15:33:32+0200</time>
      </trkpt>
      <trkpt lat="45.06799" lon="2.83184">
        <ele>1208.373155</ele>
        <time>2021-07-08T15:33:34+0200</time>
      </trkpt>
      <trkpt lat="45.06796" lon="2.83175">
        <ele>1208.240243</ele>
        <time>2021-07-08T15:33:36+0200</time>
      </trkpt>
      <trkpt lat="45.06792" lon="2.83169">
        <ele>1209.300126</ele>
        <time>2021-07-08T15:33:38+0200</time>
      </trkpt>
      <trkpt lat="45.06788" lon="2.83161">
        <ele>1210.361305</ele>
        <time>2021-07-08T15:33:40+0200</time>
      </trkpt>
      <trkpt lat="45.06782" lon="2.83152">
        <ele>1210.180573</ele>
        <time>2021-07-08T15:33:42+0200</time>
      </trkpt>
      <trkpt lat="45.06778" lon="2.83145">
        <ele>1209.754941</ele>
        <time>2021-07-08T15:33:44+0200</time>
      </trkpt>
      <trkpt lat="45.06772" lon="2.83138">
        <ele>1209.146261</ele>
        <time>2021-07-08T15:33:46+0200</time>
      </trkpt>
      <trkpt lat="45.0677" lon="2.83131">
        <ele>1207.736247</ele>
        <time>2021-07-08T15:33:48+0200</time>
      </trkpt>
      <trkpt lat="45.06765" lon="2.83124">
        <ele>1208.097495</ele>
        <time>2021-07-08T15:33:50+0200</time>
      </trkpt>
      <trkpt lat="45.06761" lon="2.83118">
        <ele>1208.043549</ele>
        <time>2021-07-08T15:33:52+0200</time>
      </trkpt>
      <trkpt lat="45.06757" lon="2.83115">
        <ele>1209.013441</ele>
        <time>2021-07-08T15:33:54+0200</time>
      </trkpt>
      <trkpt lat="45.06753" lon="2.83108">
        <ele>1210.112202</ele>
        <time>2021-07-08T15:33:56+0200</time>
      </trkpt>
      <trkpt lat="45.0675" lon="2.83102">
        <ele>1211.882522</ele>
        <time>2021-07-08T15:33:58+0200</time>
      </trkpt>
      <trkpt lat="45.06747" lon="2.83094">
        <ele>1213.32281</ele>
        <time>2021-07-08T15:34:00+0200</time>
      </trkpt>
      <trkpt lat="45.06743" lon="2.83089">
        <ele>1211.612765</ele>
        <time>2021-07-08T15:34:01+0200</time>
      </trkpt>
      <trkpt lat="45.0674" lon="2.83083">
        <ele>1211.467604</ele>
        <time>2021-07-08T15:34:02+0200</time>
      </trkpt>
      <trkpt lat="45.06739" lon="2.83074">
        <ele>1212.432188</ele>
        <time>2021-07-08T15:34:04+0200</time>
      </trkpt>
      <trkpt lat="45.06735" lon="2.83064">
        <ele>1215.050834</ele>
        <time>2021-07-08T15:34:06+0200</time>
      </trkpt>
      <trkpt lat="45.06732" lon="2.83059">
        <ele>1216.133371</ele>
        <time>2021-07-08T15:34:07+0200</time>
      </trkpt>
      <trkpt lat="45.06728" lon="2.83049">
        <ele>1215.645567</ele>
        <time>2021-07-08T15:34:09+0200</time>
      </trkpt>
      <trkpt lat="45.06725" lon="2.83039">
        <ele>1214.217431</ele>
        <time>2021-07-08T15:34:11+0200</time>
      </trkpt>
      <trkpt lat="45.06721" lon="2.8303">
        <ele>1213.531284</ele>
        <time>2021-07-08T15:34:13+0200</time>
      </trkpt>
      <trkpt lat="45.06716" lon="2.83023">
        <ele>1213.870332</ele>
        <time>2021-07-08T15:34:15+0200</time>
      </trkpt>
      <trkpt lat="45.0671" lon="2.83015">
        <ele>1212.641328</ele>
        <time>2021-07-08T15:34:17+0200</time>
      </trkpt>
      <trkpt lat="45.06705" lon="2.83008">
        <ele>1212.309856</ele>
        <time>2021-07-08T15:34:19+0200</time>
      </trkpt>
      <trkpt lat="45.06701" lon="2.83003">
        <ele>1212.17651</ele>
        <time>2021-07-08T15:34:20+0200</time>
      </trkpt>
      <trkpt lat="45.06696" lon="2.82996">
        <ele>1211.25696</ele>
        <time>2021-07-08T15:34:22+0200</time>
      </trkpt>
      <trkpt lat="45.06691" lon="2.8299">
        <ele>1209.917225</ele>
        <time>2021-07-08T15:34:24+0200</time>
      </trkpt>
      <trkpt lat="45.06687" lon="2.82985">
        <ele>1209.473908</ele>
        <time>2021-07-08T15:34:26+0200</time>
      </trkpt>
      <trkpt lat="45.06685" lon="2.82979">
        <ele>1209.549848</ele>
        <time>2021-07-08T15:34:28+0200</time>
      </trkpt>
      <trkpt lat="45.06681" lon="2.82974">
        <ele>1210.681907</ele>
        <time>2021-07-08T15:34:30+0200</time>
      </trkpt>
      <trkpt lat="45.06677" lon="2.82969">
        <ele>1210.024972</ele>
        <time>2021-07-08T15:34:32+0200</time>
      </trkpt>
      <trkpt lat="45.06673" lon="2.82965">
        <ele>1210.830578</ele>
        <time>2021-07-08T15:34:34+0200</time>
      </trkpt>
      <trkpt lat="45.06669" lon="2.82957">
        <ele>1211.577748</ele>
        <time>2021-07-08T15:34:37+0200</time>
      </trkpt>
      <trkpt lat="45.06665" lon="2.82953">
        <ele>1212.480493</ele>
        <time>2021-07-08T15:34:39+0200</time>
      </trkpt>
      <trkpt lat="45.0666" lon="2.82947">
        <ele>1212.132955</ele>
        <time>2021-07-08T15:34:41+0200</time>
      </trkpt>
      <trkpt lat="45.06656" lon="2.8294">
        <ele>1211.335385</ele>
        <time>2021-07-08T15:34:43+0200</time>
      </trkpt>
      <trkpt lat="45.06652" lon="2.82932">
        <ele>1209.068958</ele>
        <time>2021-07-08T15:34:45+0200</time>
      </trkpt>
      <trkpt lat="45.06649" lon="2.82927">
        <ele>1210.414934</ele>
        <time>2021-07-08T15:34:47+0200</time>
      </trkpt>
      <trkpt lat="45.06645" lon="2.82921">
        <ele>1211.560871</ele>
        <time>2021-07-08T15:34:50+0200</time>
      </trkpt>
      <trkpt lat="45.06642" lon="2.82915">
        <ele>1210.925406</ele>
        <time>2021-07-08T15:34:53+0200</time>
      </trkpt>
      <trkpt lat="45.06637" lon="2.8291">
        <ele>1211.892257</ele>
        <time>2021-07-08T15:34:56+0200</time>
      </trkpt>
      <trkpt lat="45.06632" lon="2.82905">
        <ele>1212.303874</ele>
        <time>2021-07-08T15:35:01+0200</time>
      </trkpt>
      <trkpt lat="45.06628" lon="2.829">
        <ele>1211.703041</ele>
        <time>2021-07-08T15:35:04+0200</time>
      </trkpt>
      <trkpt lat="45.06625" lon="2.82895">
        <ele>1211.124234</ele>
        <time>2021-07-08T15:35:06+0200</time>
      </trkpt>
      <trkpt lat="45.06619" lon="2.8289">
        <ele>1208.677351</ele>
        <time>2021-07-08T15:35:09+0200</time>
      </trkpt>
      <trkpt lat="45.06613" lon="2.82886">
        <ele>1207.811327</ele>
        <time>2021-07-08T15:35:12+0200</time>
      </trkpt>
      <trkpt lat="45.06608" lon="2.82881">
        <ele>1209.372622</ele>
        <time>2021-07-08T15:35:15+0200</time>
      </trkpt>
      <trkpt lat="45.06604" lon="2.82875">
        <ele>1211.27635</ele>
        <time>2021-07-08T15:35:18+0200</time>
      </trkpt>
      <trkpt lat="45.06599" lon="2.82871">
        <ele>1212.278738</ele>
        <time>2021-07-08T15:35:21+0200</time>
      </trkpt>
      <trkpt lat="45.06595" lon="2.82868">
        <ele>1212.254504</ele>
        <time>2021-07-08T15:35:24+0200</time>
      </trkpt>
      <trkpt lat="45.06589" lon="2.82865">
        <ele>1216.366549</ele>
        <time>2021-07-08T15:35:28+0200</time>
      </trkpt>
      <trkpt lat="45.06584" lon="2.82864">
        <ele>1218.557026</ele>
        <time>2021-07-08T15:35:31+0200</time>
      </trkpt>
      <trkpt lat="45.06578" lon="2.82861">
        <ele>1221.080796</ele>
        <time>2021-07-08T15:35:35+0200</time>
      </trkpt>
      <trkpt lat="45.06572" lon="2.82861">
        <ele>1222.269242</ele>
        <time>2021-07-08T15:35:38+0200</time>
      </trkpt>
      <trkpt lat="45.06567" lon="2.82857">
        <ele>1223.562982</ele>
        <time>2021-07-08T15:35:41+0200</time>
      </trkpt>
      <trkpt lat="45.06561" lon="2.82855">
        <ele>1225.534999</ele>
        <time>2021-07-08T15:35:44+0200</time>
      </trkpt>
      <trkpt lat="45.06556" lon="2.82852">
        <ele>1226.279096</ele>
        <time>2021-07-08T15:35:47+0200</time>
      </trkpt>
      <trkpt lat="45.06555" lon="2.82846">
        <ele>1228.232953</ele>
        <time>2021-07-08T15:36:01+0200</time>
      </trkpt>
      <trkpt lat="45.06551" lon="2.82841">
        <ele>1228.165088</ele>
        <time>2021-07-08T15:36:17+0200</time>
      </trkpt>
      <trkpt lat="45.06552" lon="2.82847">
        <ele>1222.15804</ele>
        <time>2021-07-08T15:36:43+0200</time>
      </trkpt>
      <trkpt lat="45.06555" lon="2.82841">
        <ele>1233.306814</ele>
        <time>2021-07-08T15:38:48+0200</time>
      </trkpt>
      <trkpt lat="45.06552" lon="2.82847">
        <ele>1220.630095</ele>
        <time>2021-07-08T15:39:04+0200</time>
      </trkpt>
      <trkpt lat="45.06548" lon="2.82845">
        <ele>1225.042132</ele>
        <time>2021-07-08T15:40:08+0200</time>
      </trkpt>
      <trkpt lat="45.06552" lon="2.8285">
        <ele>1221.281049</ele>
        <time>2021-07-08T15:40:25+0200</time>
      </trkpt>
      <trkpt lat="45.06549" lon="2.82855">
        <ele>1217.079759</ele>
        <time>2021-07-08T15:41:00+0200</time>
      </trkpt>
      <trkpt lat="45.06553" lon="2.82852">
        <ele>1222.180253</ele>
        <time>2021-07-08T15:41:14+0200</time>
      </trkpt>
      <trkpt lat="45.06555" lon="2.82844">
        <ele>1231.159388</ele>
        <time>2021-07-08T15:41:18+0200</time>
      </trkpt>
      <trkpt lat="45.06551" lon="2.82848">
        <ele>1225.998165</ele>
        <time>2021-07-08T15:41:33+0200</time>
      </trkpt>
      <trkpt lat="45.06546" lon="2.82844">
        <ele>1226.209856</ele>
        <time>2021-07-08T15:41:47+0200</time>
      </trkpt>
      <trkpt lat="45.06541" lon="2.82839">
        <ele>1228.417937</ele>
        <time>2021-07-08T15:41:50+0200</time>
      </trkpt>
      <trkpt lat="45.06538" lon="2.82834">
        <ele>1232.087886</ele>
        <time>2021-07-08T15:41:53+0200</time>
      </trkpt>
      <trkpt lat="45.06536" lon="2.82828">
        <ele>1235.297768</ele>
        <time>2021-07-08T15:41:57+0200</time>
      </trkpt>
      <trkpt lat="45.06532" lon="2.82823">
        <ele>1234.522959</ele>
        <time>2021-07-08T15:42:01+0200</time>
      </trkpt>
      <trkpt lat="45.06533" lon="2.82816">
        <ele>1235.776566</ele>
        <time>2021-07-08T15:42:03+0200</time>
      </trkpt>
      <trkpt lat="45.06531" lon="2.82809">
        <ele>1235.681208</ele>
        <time>2021-07-08T15:42:06+0200</time>
      </trkpt>
      <trkpt lat="45.06528" lon="2.82804">
        <ele>1235.872565</ele>
        <time>2021-07-08T15:42:08+0200</time>
      </trkpt>
      <trkpt lat="45.06523" lon="2.82798">
        <ele>1234.868145</ele>
        <time>2021-07-08T15:42:10+0200</time>
      </trkpt>
      <trkpt lat="45.0652" lon="2.82792">
        <ele>1234.548823</ele>
        <time>2021-07-08T15:42:12+0200</time>
      </trkpt>
      <trkpt lat="45.06518" lon="2.82784">
        <ele>1234.319833</ele>
        <time>2021-07-08T15:42:15+0200</time>
      </trkpt>
      <trkpt lat="45.06514" lon="2.82781">
        <ele>1233.00106</ele>
        <time>2021-07-08T15:42:17+0200</time>
      </trkpt>
      <trkpt lat="45.06509" lon="2.82776">
        <ele>1231.470132</ele>
        <time>2021-07-08T15:42:21+0200</time>
      </trkpt>
      <trkpt lat="45.06504" lon="2.8277">
        <ele>1233.242451</ele>
        <time>2021-07-08T15:42:24+0200</time>
      </trkpt>
      <trkpt lat="45.06501" lon="2.82766">
        <ele>1231.900596</ele>
        <time>2021-07-08T15:42:27+0200</time>
      </trkpt>
      <trkpt lat="45.06496" lon="2.82763">
        <ele>1230.421105</ele>
        <time>2021-07-08T15:42:30+0200</time>
      </trkpt>
      <trkpt lat="45.06493" lon="2.82757">
        <ele>1230.316824</ele>
        <time>2021-07-08T15:42:34+0200</time>
      </trkpt>
      <trkpt lat="45.06491" lon="2.8275">
        <ele>1231.344007</ele>
        <time>2021-07-08T15:42:37+0200</time>
      </trkpt>
      <trkpt lat="45.06487" lon="2.82744">
        <ele>1232.837785</ele>
        <time>2021-07-08T15:42:41+0200</time>
      </trkpt>
      <trkpt lat="45.06482" lon="2.8274">
        <ele>1235.613931</ele>
        <time>2021-07-08T15:42:45+0200</time>
      </trkpt>
      <trkpt lat="45.06478" lon="2.82734">
        <ele>1235.026598</ele>
        <time>2021-07-08T15:42:48+0200</time>
      </trkpt>
      <trkpt lat="45.06475" lon="2.82729">
        <ele>1237.421935</ele>
        <time>2021-07-08T15:42:51+0200</time>
      </trkpt>
      <trkpt lat="45.06472" lon="2.82723">
        <ele>1238.141107</ele>
        <time>2021-07-08T15:42:55+0200</time>
      </trkpt>
      <trkpt lat="45.06467" lon="2.82721">
        <ele>1235.968374</ele>
        <time>2021-07-08T15:42:58+0200</time>
      </trkpt>
      <trkpt lat="45.06463" lon="2.82717">
        <ele>1239.050762</ele>
        <time>2021-07-08T15:43:02+0200</time>
      </trkpt>
      <trkpt lat="45.06458" lon="2.82713">
        <ele>1238.9983</ele>
        <time>2021-07-08T15:43:05+0200</time>
      </trkpt>
      <trkpt lat="45.06454" lon="2.82709">
        <ele>1239.4108</ele>
        <time>2021-07-08T15:43:08+0200</time>
      </trkpt>
      <trkpt lat="45.06449" lon="2.82707">
        <ele>1240.25228</ele>
        <time>2021-07-08T15:43:11+0200</time>
      </trkpt>
      <trkpt lat="45.06446" lon="2.82702">
        <ele>1241.657807</ele>
        <time>2021-07-08T15:43:15+0200</time>
      </trkpt>
      <trkpt lat="45.06442" lon="2.82697">
        <ele>1241.65369</ele>
        <time>2021-07-08T15:43:18+0200</time>
      </trkpt>
      <trkpt lat="45.06438" lon="2.82692">
        <ele>1241.884226</ele>
        <time>2021-07-08T15:43:21+0200</time>
      </trkpt>
      <trkpt lat="45.06434" lon="2.82686">
        <ele>1241.053671</ele>
        <time>2021-07-08T15:43:24+0200</time>
      </trkpt>
      <trkpt lat="45.0643" lon="2.82681">
        <ele>1242.988817</ele>
        <time>2021-07-08T15:43:30+0200</time>
      </trkpt>
      <trkpt lat="45.06426" lon="2.82676">
        <ele>1245.852049</ele>
        <time>2021-07-08T15:43:34+0200</time>
      </trkpt>
      <trkpt lat="45.06422" lon="2.82671">
        <ele>1246.235855</ele>
        <time>2021-07-08T15:43:38+0200</time>
      </trkpt>
      <trkpt lat="45.06417" lon="2.82668">
        <ele>1246.018259</ele>
        <time>2021-07-08T15:43:41+0200</time>
      </trkpt>
      <trkpt lat="45.06414" lon="2.82662">
        <ele>1246.450364</ele>
        <time>2021-07-08T15:43:45+0200</time>
      </trkpt>
      <trkpt lat="45.0641" lon="2.82659">
        <ele>1246.903704</ele>
        <time>2021-07-08T15:43:48+0200</time>
      </trkpt>
      <trkpt lat="45.06406" lon="2.82654">
        <ele>1246.322091</ele>
        <time>2021-07-08T15:43:51+0200</time>
      </trkpt>
      <trkpt lat="45.06403" lon="2.82649">
        <ele>1247.281699</ele>
        <time>2021-07-08T15:43:54+0200</time>
      </trkpt>
      <trkpt lat="45.06398" lon="2.82646">
        <ele>1246.274117</ele>
        <time>2021-07-08T15:43:57+0200</time>
      </trkpt>
      <trkpt lat="45.06393" lon="2.82642">
        <ele>1245.804093</ele>
        <time>2021-07-08T15:44:00+0200</time>
      </trkpt>
      <trkpt lat="45.06389" lon="2.82638">
        <ele>1245.66727</ele>
        <time>2021-07-08T15:44:03+0200</time>
      </trkpt>
      <trkpt lat="45.06385" lon="2.82632">
        <ele>1245.719404</ele>
        <time>2021-07-08T15:44:08+0200</time>
      </trkpt>
      <trkpt lat="45.06381" lon="2.82627">
        <ele>1246.142313</ele>
        <time>2021-07-08T15:44:12+0200</time>
      </trkpt>
      <trkpt lat="45.06377" lon="2.82622">
        <ele>1248.3427</ele>
        <time>2021-07-08T15:44:15+0200</time>
      </trkpt>
      <trkpt lat="45.06374" lon="2.82618">
        <ele>1249.548456</ele>
        <time>2021-07-08T15:44:17+0200</time>
      </trkpt>
      <trkpt lat="45.0637" lon="2.82615">
        <ele>1251.421043</ele>
        <time>2021-07-08T15:44:20+0200</time>
      </trkpt>
      <trkpt lat="45.06367" lon="2.82607">
        <ele>1256.610321</ele>
        <time>2021-07-08T15:44:25+0200</time>
      </trkpt>
      <trkpt lat="45.06364" lon="2.82602">
        <ele>1258.671102</ele>
        <time>2021-07-08T15:44:28+0200</time>
      </trkpt>
      <trkpt lat="45.06359" lon="2.82599">
        <ele>1259.832726</ele>
        <time>2021-07-08T15:44:33+0200</time>
      </trkpt>
      <trkpt lat="45.06354" lon="2.82598">
        <ele>1258.37561</ele>
        <time>2021-07-08T15:44:38+0200</time>
      </trkpt>
      <trkpt lat="45.06349" lon="2.82594">
        <ele>1259.504106</ele>
        <time>2021-07-08T15:44:43+0200</time>
      </trkpt>
      <trkpt lat="45.06345" lon="2.82592">
        <ele>1260.687602</ele>
        <time>2021-07-08T15:44:47+0200</time>
      </trkpt>
      <trkpt lat="45.0634" lon="2.82587">
        <ele>1262.487238</ele>
        <time>2021-07-08T15:44:51+0200</time>
      </trkpt>
      <trkpt lat="45.06334" lon="2.82585">
        <ele>1263.816072</ele>
        <time>2021-07-08T15:44:55+0200</time>
      </trkpt>
      <trkpt lat="45.06331" lon="2.82582">
        <ele>1265.217974</ele>
        <time>2021-07-08T15:45:00+0200</time>
      </trkpt>
      <trkpt lat="45.06326" lon="2.82577">
        <ele>1263.664409</ele>
        <time>2021-07-08T15:45:04+0200</time>
      </trkpt>
      <trkpt lat="45.0632" lon="2.82574">
        <ele>1264.882067</ele>
        <time>2021-07-08T15:45:08+0200</time>
      </trkpt>
      <trkpt lat="45.06316" lon="2.82572">
        <ele>1267.363985</ele>
        <time>2021-07-08T15:45:12+0200</time>
      </trkpt>
      <trkpt lat="45.06311" lon="2.8257">
        <ele>1268.141286</ele>
        <time>2021-07-08T15:45:15+0200</time>
      </trkpt>
      <trkpt lat="45.06306" lon="2.82568">
        <ele>1269.71729</ele>
        <time>2021-07-08T15:45:22+0200</time>
      </trkpt>
      <trkpt lat="45.06302" lon="2.82565">
        <ele>1270.895144</ele>
        <time>2021-07-08T15:45:26+0200</time>
      </trkpt>
      <trkpt lat="45.06298" lon="2.82563">
        <ele>1270.991668</ele>
        <time>2021-07-08T15:45:29+0200</time>
      </trkpt>
      <trkpt lat="45.06292" lon="2.8256">
        <ele>1270.87904</ele>
        <time>2021-07-08T15:45:33+0200</time>
      </trkpt>
      <trkpt lat="45.06287" lon="2.82557">
        <ele>1271.95493</ele>
        <time>2021-07-08T15:45:36+0200</time>
      </trkpt>
      <trkpt lat="45.06282" lon="2.82554">
        <ele>1272.802715</ele>
        <time>2021-07-08T15:45:38+0200</time>
      </trkpt>
      <trkpt lat="45.06278" lon="2.82555">
        <ele>1272.014086</ele>
        <time>2021-07-08T15:45:41+0200</time>
      </trkpt>
      <trkpt lat="45.06272" lon="2.82554">
        <ele>1272.80196</ele>
        <time>2021-07-08T15:45:46+0200</time>
      </trkpt>
      <trkpt lat="45.06268" lon="2.82557">
        <ele>1268.445332</ele>
        <time>2021-07-08T15:45:58+0200</time>
      </trkpt>
      <trkpt lat="45.06264" lon="2.82553">
        <ele>1270.459278</ele>
        <time>2021-07-08T15:46:16+0200</time>
      </trkpt>
      <trkpt lat="45.06265" lon="2.82559">
        <ele>1264.804643</ele>
        <time>2021-07-08T15:46:29+0200</time>
      </trkpt>
      <trkpt lat="45.06269" lon="2.82565">
        <ele>1257.341814</ele>
        <time>2021-07-08T15:47:39+0200</time>
      </trkpt>
      <trkpt lat="45.06272" lon="2.82572">
        <ele>1259.610739</ele>
        <time>2021-07-08T15:47:42+0200</time>
      </trkpt>
      <trkpt lat="45.06276" lon="2.82575">
        <ele>1260.079618</ele>
        <time>2021-07-08T15:47:44+0200</time>
      </trkpt>
      <trkpt lat="45.0628" lon="2.82581">
        <ele>1262.241568</ele>
        <time>2021-07-08T15:47:47+0200</time>
      </trkpt>
      <trkpt lat="45.06282" lon="2.82589">
        <ele>1263.673163</ele>
        <time>2021-07-08T15:47:50+0200</time>
      </trkpt>
      <trkpt lat="45.06284" lon="2.82597">
        <ele>1263.902142</ele>
        <time>2021-07-08T15:47:54+0200</time>
      </trkpt>
      <trkpt lat="45.06285" lon="2.82606">
        <ele>1263.440553</ele>
        <time>2021-07-08T15:47:58+0200</time>
      </trkpt>
      <trkpt lat="45.06287" lon="2.82613">
        <ele>1265.914975</ele>
        <time>2021-07-08T15:48:02+0200</time>
      </trkpt>
      <trkpt lat="45.06287" lon="2.82622">
        <ele>1268.943899</ele>
        <time>2021-07-08T15:48:06+0200</time>
      </trkpt>
      <trkpt lat="45.0629" lon="2.8263">
        <ele>1270.536548</ele>
        <time>2021-07-08T15:48:10+0200</time>
      </trkpt>
      <trkpt lat="45.06291" lon="2.82637">
        <ele>1270.549029</ele>
        <time>2021-07-08T15:48:13+0200</time>
      </trkpt>
      <trkpt lat="45.06293" lon="2.82646">
        <ele>1270.759732</ele>
        <time>2021-07-08T15:48:16+0200</time>
      </trkpt>
      <trkpt lat="45.06294" lon="2.82653">
        <ele>1270.217946</ele>
        <time>2021-07-08T15:48:18+0200</time>
      </trkpt>
      <trkpt lat="45.06295" lon="2.82662">
        <ele>1271.682432</ele>
        <time>2021-07-08T15:48:21+0200</time>
      </trkpt>
      <trkpt lat="45.06296" lon="2.82669">
        <ele>1272.094081</ele>
        <time>2021-07-08T15:48:23+0200</time>
      </trkpt>
      <trkpt lat="45.06297" lon="2.82677">
        <ele>1271.247404</ele>
        <time>2021-07-08T15:48:26+0200</time>
      </trkpt>
      <trkpt lat="45.06297" lon="2.82685">
        <ele>1272.385794</ele>
        <time>2021-07-08T15:48:29+0200</time>
      </trkpt>
      <trkpt lat="45.06297" lon="2.82691">
        <ele>1272.373704</ele>
        <time>2021-07-08T15:48:32+0200</time>
      </trkpt>
      <trkpt lat="45.06298" lon="2.82699">
        <ele>1272.706794</ele>
        <time>2021-07-08T15:48:35+0200</time>
      </trkpt>
      <trkpt lat="45.06298" lon="2.82705">
        <ele>1274.582992</ele>
        <time>2021-07-08T15:48:37+0200</time>
      </trkpt>
      <trkpt lat="45.06299" lon="2.82712">
        <ele>1273.308569</ele>
        <time>2021-07-08T15:48:39+0200</time>
      </trkpt>
      <trkpt lat="45.063" lon="2.82719">
        <ele>1272.410666</ele>
        <time>2021-07-08T15:48:42+0200</time>
      </trkpt>
      <trkpt lat="45.06303" lon="2.82729">
        <ele>1271.78042</ele>
        <time>2021-07-08T15:48:45+0200</time>
      </trkpt>
      <trkpt lat="45.06307" lon="2.82736">
        <ele>1269.81161</ele>
        <time>2021-07-08T15:48:47+0200</time>
      </trkpt>
      <trkpt lat="45.0631" lon="2.82744">
        <ele>1268.655908</ele>
        <time>2021-07-08T15:48:49+0200</time>
      </trkpt>
      <trkpt lat="45.06315" lon="2.82754">
        <ele>1266.082205</ele>
        <time>2021-07-08T15:48:51+0200</time>
      </trkpt>
      <trkpt lat="45.06321" lon="2.8276">
        <ele>1266.786214</ele>
        <time>2021-07-08T15:48:53+0200</time>
      </trkpt>
      <trkpt lat="45.06326" lon="2.82766">
        <ele>1266.546625</ele>
        <time>2021-07-08T15:48:55+0200</time>
      </trkpt>
      <trkpt lat="45.06332" lon="2.82767">
        <ele>1268.790681</ele>
        <time>2021-07-08T15:48:57+0200</time>
      </trkpt>
      <trkpt lat="45.06337" lon="2.82771">
        <ele>1269.622724</ele>
        <time>2021-07-08T15:49:02+0200</time>
      </trkpt>
      <trkpt lat="45.06342" lon="2.82775">
        <ele>1270.29229</ele>
        <time>2021-07-08T15:49:05+0200</time>
      </trkpt>
      <trkpt lat="45.06346" lon="2.82778">
        <ele>1270.943535</ele>
        <time>2021-07-08T15:49:07+0200</time>
      </trkpt>
      <trkpt lat="45.06352" lon="2.82779">
        <ele>1275.132645</ele>
        <time>2021-07-08T15:49:11+0200</time>
      </trkpt>
      <trkpt lat="45.06357" lon="2.82781">
        <ele>1274.913262</ele>
        <time>2021-07-08T15:49:13+0200</time>
      </trkpt>
      <trkpt lat="45.06365" lon="2.82781">
        <ele>1273.453655</ele>
        <time>2021-07-08T15:49:15+0200</time>
      </trkpt>
      <trkpt lat="45.0637" lon="2.82783">
        <ele>1273.536121</ele>
        <time>2021-07-08T15:49:16+0200</time>
      </trkpt>
      <trkpt lat="45.06375" lon="2.82785">
        <ele>1272.849362</ele>
        <time>2021-07-08T15:49:17+0200</time>
      </trkpt>
      <trkpt lat="45.0638" lon="2.82788">
        <ele>1273.61263</ele>
        <time>2021-07-08T15:49:18+0200</time>
      </trkpt>
      <trkpt lat="45.06385" lon="2.8279">
        <ele>1273.464685</ele>
        <time>2021-07-08T15:49:19+0200</time>
      </trkpt>
      <trkpt lat="45.0639" lon="2.82793">
        <ele>1273.225966</ele>
        <time>2021-07-08T15:49:20+0200</time>
      </trkpt>
      <trkpt lat="45.06396" lon="2.82795">
        <ele>1274.411816</ele>
        <time>2021-07-08T15:49:21+0200</time>
      </trkpt>
      <trkpt lat="45.06401" lon="2.82798">
        <ele>1275.390671</ele>
        <time>2021-07-08T15:49:22+0200</time>
      </trkpt>
      <trkpt lat="45.06406" lon="2.82802">
        <ele>1275.801742</ele>
        <time>2021-07-08T15:49:23+0200</time>
      </trkpt>
      <trkpt lat="45.0641" lon="2.82808">
        <ele>1275.170781</ele>
        <time>2021-07-08T15:49:24+0200</time>
      </trkpt>
      <trkpt lat="45.06415" lon="2.82813">
        <ele>1273.980637</ele>
        <time>2021-07-08T15:49:25+0200</time>
      </trkpt>
      <trkpt lat="45.06419" lon="2.8282">
        <ele>1273.734342</ele>
        <time>2021-07-08T15:49:26+0200</time>
      </trkpt>
      <trkpt lat="45.06421" lon="2.82829">
        <ele>1272.28896</ele>
        <time>2021-07-08T15:49:27+0200</time>
      </trkpt>
      <trkpt lat="45.06425" lon="2.82836">
        <ele>1271.769506</ele>
        <time>2021-07-08T15:49:28+0200</time>
      </trkpt>
      <trkpt lat="45.06428" lon="2.82844">
        <ele>1271.323675</ele>
        <time>2021-07-08T15:49:29+0200</time>
      </trkpt>
      <trkpt lat="45.06433" lon="2.82852">
        <ele>1271.56763</ele>
        <time>2021-07-08T15:49:30+0200</time>
      </trkpt>
      <trkpt lat="45.06437" lon="2.82861">
        <ele>1270.558483</ele>
        <time>2021-07-08T15:49:31+0200</time>
      </trkpt>
      <trkpt lat="45.0644" lon="2.8287">
        <ele>1268.971532</ele>
        <time>2021-07-08T15:49:32+0200</time>
      </trkpt>
      <trkpt lat="45.06441" lon="2.82878">
        <ele>1266.716488</ele>
        <time>2021-07-08T15:49:33+0200</time>
      </trkpt>
      <trkpt lat="45.06442" lon="2.82886">
        <ele>1266.400958</ele>
        <time>2021-07-08T15:49:34+0200</time>
      </trkpt>
      <trkpt lat="45.06443" lon="2.82893">
        <ele>1264.674803</ele>
        <time>2021-07-08T15:49:35+0200</time>
      </trkpt>
      <trkpt lat="45.06444" lon="2.82906">
        <ele>1263.937854</ele>
        <time>2021-07-08T15:49:37+0200</time>
      </trkpt>
      <trkpt lat="45.06448" lon="2.8292">
        <ele>1262.757651</ele>
        <time>2021-07-08T15:49:39+0200</time>
      </trkpt>
      <trkpt lat="45.06451" lon="2.82927">
        <ele>1261.917944</ele>
        <time>2021-07-08T15:49:40+0200</time>
      </trkpt>
      <trkpt lat="45.06454" lon="2.82937">
        <ele>1261.079354</ele>
        <time>2021-07-08T15:49:42+0200</time>
      </trkpt>
      <trkpt lat="45.06456" lon="2.82943">
        <ele>1261.800619</ele>
        <time>2021-07-08T15:49:43+0200</time>
      </trkpt>
      <trkpt lat="45.06459" lon="2.82951">
        <ele>1264.247902</ele>
        <time>2021-07-08T15:49:45+0200</time>
      </trkpt>
      <trkpt lat="45.06463" lon="2.82955">
        <ele>1265.404793</ele>
        <time>2021-07-08T15:49:48+0200</time>
      </trkpt>
      <trkpt lat="45.06464" lon="2.82962">
        <ele>1263.018176</ele>
        <time>2021-07-08T15:49:50+0200</time>
      </trkpt>
      <trkpt lat="45.06467" lon="2.82968">
        <ele>1263.315892</ele>
        <time>2021-07-08T15:49:52+0200</time>
      </trkpt>
      <trkpt lat="45.06468" lon="2.82975">
        <ele>1262.436485</ele>
        <time>2021-07-08T15:49:54+0200</time>
      </trkpt>
      <trkpt lat="45.06472" lon="2.82982">
        <ele>1260.423004</ele>
        <time>2021-07-08T15:49:56+0200</time>
      </trkpt>
      <trkpt lat="45.06474" lon="2.82988">
        <ele>1259.988125</ele>
        <time>2021-07-08T15:49:58+0200</time>
      </trkpt>
      <trkpt lat="45.06475" lon="2.82995">
        <ele>1258.912318</ele>
        <time>2021-07-08T15:50:01+0200</time>
      </trkpt>
      <trkpt lat="45.06475" lon="2.83004">
        <ele>1260.84668</ele>
        <time>2021-07-08T15:50:05+0200</time>
      </trkpt>
      <trkpt lat="45.06475" lon="2.8301">
        <ele>1261.237806</ele>
        <time>2021-07-08T15:50:08+0200</time>
      </trkpt>
      <trkpt lat="45.06476" lon="2.83019">
        <ele>1261.045874</ele>
        <time>2021-07-08T15:50:11+0200</time>
      </trkpt>
      <trkpt lat="45.0648" lon="2.83023">
        <ele>1262.653022</ele>
        <time>2021-07-08T15:50:13+0200</time>
      </trkpt>
      <trkpt lat="45.06482" lon="2.8303">
        <ele>1263.964631</ele>
        <time>2021-07-08T15:50:16+0200</time>
      </trkpt>
      <trkpt lat="45.06483" lon="2.83036">
        <ele>1262.38359</ele>
        <time>2021-07-08T15:50:19+0200</time>
      </trkpt>
      <trkpt lat="45.06486" lon="2.83043">
        <ele>1261.680572</ele>
        <time>2021-07-08T15:50:22+0200</time>
      </trkpt>
      <trkpt lat="45.06489" lon="2.83048">
        <ele>1262.096861</ele>
        <time>2021-07-08T15:50:25+0200</time>
      </trkpt>
      <trkpt lat="45.06492" lon="2.83056">
        <ele>1262.70677</ele>
        <time>2021-07-08T15:50:29+0200</time>
      </trkpt>
      <trkpt lat="45.06495" lon="2.83062">
        <ele>1265.08189</ele>
        <time>2021-07-08T15:50:34+0200</time>
      </trkpt>
      <trkpt lat="45.06499" lon="2.83068">
        <ele>1265.550575</ele>
        <time>2021-07-08T15:50:38+0200</time>
      </trkpt>
      <trkpt lat="45.06503" lon="2.8307">
        <ele>1269.085765</ele>
        <time>2021-07-08T15:50:43+0200</time>
      </trkpt>
      <trkpt lat="45.06507" lon="2.83075">
        <ele>1271.905313</ele>
        <time>2021-07-08T15:50:49+0200</time>
      </trkpt>
      <trkpt lat="45.06513" lon="2.83075">
        <ele>1273.47672</ele>
        <time>2021-07-08T15:50:52+0200</time>
      </trkpt>
      <trkpt lat="45.06518" lon="2.83081">
        <ele>1272.091254</ele>
        <time>2021-07-08T15:50:55+0200</time>
      </trkpt>
      <trkpt lat="45.06522" lon="2.83084">
        <ele>1272.767909</ele>
        <time>2021-07-08T15:50:57+0200</time>
      </trkpt>
      <trkpt lat="45.06526" lon="2.8309">
        <ele>1273.639618</ele>
        <time>2021-07-08T15:50:59+0200</time>
      </trkpt>
      <trkpt lat="45.06531" lon="2.83098">
        <ele>1272.933642</ele>
        <time>2021-07-08T15:51:01+0200</time>
      </trkpt>
      <trkpt lat="45.06533" lon="2.83104">
        <ele>1271.961808</ele>
        <time>2021-07-08T15:51:02+0200</time>
      </trkpt>
      <trkpt lat="45.06538" lon="2.83114">
        <ele>1270.846814</ele>
        <time>2021-07-08T15:51:04+0200</time>
      </trkpt>
      <trkpt lat="45.06542" lon="2.8312">
        <ele>1270.652576</ele>
        <time>2021-07-08T15:51:06+0200</time>
      </trkpt>
      <trkpt lat="45.06546" lon="2.83127">
        <ele>1272.323751</ele>
        <time>2021-07-08T15:51:08+0200</time>
      </trkpt>
      <trkpt lat="45.0655" lon="2.83134">
        <ele>1272.022515</ele>
        <time>2021-07-08T15:51:10+0200</time>
      </trkpt>
      <trkpt lat="45.06553" lon="2.83143">
        <ele>1272.107024</ele>
        <time>2021-07-08T15:51:12+0200</time>
      </trkpt>
      <trkpt lat="45.06556" lon="2.83151">
        <ele>1271.184353</ele>
        <time>2021-07-08T15:51:14+0200</time>
      </trkpt>
      <trkpt lat="45.06559" lon="2.83159">
        <ele>1270.585781</ele>
        <time>2021-07-08T15:51:16+0200</time>
      </trkpt>
      <trkpt lat="45.06563" lon="2.83165">
        <ele>1271.418555</ele>
        <time>2021-07-08T15:51:18+0200</time>
      </trkpt>
      <trkpt lat="45.06567" lon="2.83173">
        <ele>1270.26755</ele>
        <time>2021-07-08T15:51:20+0200</time>
      </trkpt>
      <trkpt lat="45.06571" lon="2.83182">
        <ele>1270.403419</ele>
        <time>2021-07-08T15:51:22+0200</time>
      </trkpt>
      <trkpt lat="45.06574" lon="2.83186">
        <ele>1269.206949</ele>
        <time>2021-07-08T15:51:23+0200</time>
      </trkpt>
      <trkpt lat="45.06576" lon="2.83192">
        <ele>1269.228398</ele>
        <time>2021-07-08T15:51:24+0200</time>
      </trkpt>
      <trkpt lat="45.06578" lon="2.83202">
        <ele>1269.519572</ele>
        <time>2021-07-08T15:51:26+0200</time>
      </trkpt>
      <trkpt lat="45.06581" lon="2.83213">
        <ele>1268.287059</ele>
        <time>2021-07-08T15:51:28+0200</time>
      </trkpt>
      <trkpt lat="45.06583" lon="2.83221">
        <ele>1266.056799</ele>
        <time>2021-07-08T15:51:30+0200</time>
      </trkpt>
      <trkpt lat="45.06586" lon="2.83229">
        <ele>1265.899506</ele>
        <time>2021-07-08T15:51:32+0200</time>
      </trkpt>
      <trkpt lat="45.06588" lon="2.83235">
        <ele>1264.658796</ele>
        <time>2021-07-08T15:51:34+0200</time>
      </trkpt>
      <trkpt lat="45.06589" lon="2.83242">
        <ele>1263.098757</ele>
        <time>2021-07-08T15:51:36+0200</time>
      </trkpt>
      <trkpt lat="45.06593" lon="2.83251">
        <ele>1262.100658</ele>
        <time>2021-07-08T15:51:38+0200</time>
      </trkpt>
      <trkpt lat="45.06597" lon="2.83255">
        <ele>1261.627881</ele>
        <time>2021-07-08T15:51:39+0200</time>
      </trkpt>
      <trkpt lat="45.06602" lon="2.8326">
        <ele>1260.778912</ele>
        <time>2021-07-08T15:51:40+0200</time>
      </trkpt>
      <trkpt lat="45.06608" lon="2.83265">
        <ele>1260.309568</ele>
        <time>2021-07-08T15:51:41+0200</time>
      </trkpt>
      <trkpt lat="45.06616" lon="2.83274">
        <ele>1258.221266</ele>
        <time>2021-07-08T15:51:42+0200</time>
      </trkpt>
      <trkpt lat="45.06623" lon="2.83283">
        <ele>1256.771989</ele>
        <time>2021-07-08T15:51:43+0200</time>
      </trkpt>
      <trkpt lat="45.0663" lon="2.83292">
        <ele>1256.214265</ele>
        <time>2021-07-08T15:51:44+0200</time>
      </trkpt>
      <trkpt lat="45.06637" lon="2.83301">
        <ele>1254.258717</ele>
        <time>2021-07-08T15:51:45+0200</time>
      </trkpt>
      <trkpt lat="45.06643" lon="2.83311">
        <ele>1254.204595</ele>
        <time>2021-07-08T15:51:46+0200</time>
      </trkpt>
      <trkpt lat="45.06647" lon="2.83321">
        <ele>1253.549867</ele>
        <time>2021-07-08T15:51:47+0200</time>
      </trkpt>
      <trkpt lat="45.06652" lon="2.83333">
        <ele>1252.520938</ele>
        <time>2021-07-08T15:51:48+0200</time>
      </trkpt>
      <trkpt lat="45.06663" lon="2.83346">
        <ele>1250.72003</ele>
        <time>2021-07-08T15:51:49+0200</time>
      </trkpt>
      <trkpt lat="45.06667" lon="2.83351">
        <ele>1250.927021</ele>
        <time>2021-07-08T15:51:50+0200</time>
      </trkpt>
      <trkpt lat="45.06673" lon="2.83361">
        <ele>1250.180189</ele>
        <time>2021-07-08T15:51:51+0200</time>
      </trkpt>
      <trkpt lat="45.06677" lon="2.83368">
        <ele>1248.803803</ele>
        <time>2021-07-08T15:51:52+0200</time>
      </trkpt>
      <trkpt lat="45.06682" lon="2.83376">
        <ele>1248.859506</ele>
        <time>2021-07-08T15:51:53+0200</time>
      </trkpt>
      <trkpt lat="45.06686" lon="2.83384">
        <ele>1248.439149</ele>
        <time>2021-07-08T15:51:54+0200</time>
      </trkpt>
      <trkpt lat="45.0669" lon="2.83391">
        <ele>1248.368692</ele>
        <time>2021-07-08T15:51:55+0200</time>
      </trkpt>
      <trkpt lat="45.06693" lon="2.83397">
        <ele>1248.498268</ele>
        <time>2021-07-08T15:51:56+0200</time>
      </trkpt>
      <trkpt lat="45.06697" lon="2.83404">
        <ele>1248.028649</ele>
        <time>2021-07-08T15:51:57+0200</time>
      </trkpt>
      <trkpt lat="45.06702" lon="2.83412">
        <ele>1248.033808</ele>
        <time>2021-07-08T15:51:58+0200</time>
      </trkpt>
      <trkpt lat="45.06706" lon="2.8342">
        <ele>1246.894575</ele>
        <time>2021-07-08T15:51:59+0200</time>
      </trkpt>
      <trkpt lat="45.06711" lon="2.8343">
        <ele>1246.23255</ele>
        <time>2021-07-08T15:52:00+0200</time>
      </trkpt>
      <trkpt lat="45.06712" lon="2.83437">
        <ele>1245.578813</ele>
        <time>2021-07-08T15:52:01+0200</time>
      </trkpt>
      <trkpt lat="45.06713" lon="2.83452">
        <ele>1243.102348</ele>
        <time>2021-07-08T15:52:03+0200</time>
      </trkpt>
      <trkpt lat="45.06712" lon="2.83465">
        <ele>1243.1592</ele>
        <time>2021-07-08T15:52:05+0200</time>
      </trkpt>
      <trkpt lat="45.0671" lon="2.83475">
        <ele>1242.639703</ele>
        <time>2021-07-08T15:52:06+0200</time>
      </trkpt>
      <trkpt lat="45.06708" lon="2.83483">
        <ele>1243.266937</ele>
        <time>2021-07-08T15:52:07+0200</time>
      </trkpt>
      <trkpt lat="45.06705" lon="2.83494">
        <ele>1243.642144</ele>
        <time>2021-07-08T15:52:09+0200</time>
      </trkpt>
      <trkpt lat="45.06706" lon="2.83502">
        <ele>1242.808785</ele>
        <time>2021-07-08T15:52:10+0200</time>
      </trkpt>
      <trkpt lat="45.06705" lon="2.83509">
        <ele>1240.987513</ele>
        <time>2021-07-08T15:52:11+0200</time>
      </trkpt>
      <trkpt lat="45.067" lon="2.83516">
        <ele>1241.867934</ele>
        <time>2021-07-08T15:52:12+0200</time>
      </trkpt>
      <trkpt lat="45.06697" lon="2.83524">
        <ele>1241.826113</ele>
        <time>2021-07-08T15:52:13+0200</time>
      </trkpt>
      <trkpt lat="45.06695" lon="2.83534">
        <ele>1237.45096</ele>
        <time>2021-07-08T15:52:14+0200</time>
      </trkpt>
      <trkpt lat="45.06692" lon="2.83543">
        <ele>1236.388966</ele>
        <time>2021-07-08T15:52:15+0200</time>
      </trkpt>
      <trkpt lat="45.06691" lon="2.83549">
        <ele>1235.98683</ele>
        <time>2021-07-08T15:52:16+0200</time>
      </trkpt>
      <trkpt lat="45.06688" lon="2.83558">
        <ele>1236.09279</ele>
        <time>2021-07-08T15:52:18+0200</time>
      </trkpt>
      <trkpt lat="45.06686" lon="2.83565">
        <ele>1235.829057</ele>
        <time>2021-07-08T15:52:20+0200</time>
      </trkpt>
      <trkpt lat="45.06684" lon="2.83574">
        <ele>1237.717523</ele>
        <time>2021-07-08T15:52:23+0200</time>
      </trkpt>
      <trkpt lat="45.06683" lon="2.83582">
        <ele>1237.890806</ele>
        <time>2021-07-08T15:52:24+0200</time>
      </trkpt>
      <trkpt lat="45.06683" lon="2.8359">
        <ele>1236.981658</ele>
        <time>2021-07-08T15:52:26+0200</time>
      </trkpt>
      <trkpt lat="45.06684" lon="2.83608">
        <ele>1235.24118</ele>
        <time>2021-07-08T15:52:42+0200</time>
      </trkpt>
      <trkpt lat="45.06682" lon="2.83614">
        <ele>1235.555056</ele>
        <time>2021-07-08T15:52:50+0200</time>
      </trkpt>
      <trkpt lat="45.06687" lon="2.83615">
        <ele>1241.341926</ele>
        <time>2021-07-08T15:52:58+0200</time>
      </trkpt>
      <trkpt lat="45.06688" lon="2.83607">
        <ele>1241.053547</ele>
        <time>2021-07-08T15:53:11+0200</time>
      </trkpt>
      <trkpt lat="45.06693" lon="2.83609">
        <ele>1242.189024</ele>
        <time>2021-07-08T15:53:32+0200</time>
      </trkpt>
      <trkpt lat="45.06697" lon="2.83611">
        <ele>1248.285924</ele>
        <time>2021-07-08T15:54:05+0200</time>
      </trkpt>
      <trkpt lat="45.06701" lon="2.83616">
        <ele>1247.317538</ele>
        <time>2021-07-08T15:54:08+0200</time>
      </trkpt>
      <trkpt lat="45.06706" lon="2.83623">
        <ele>1248.138842</ele>
        <time>2021-07-08T15:54:11+0200</time>
      </trkpt>
      <trkpt lat="45.0671" lon="2.83629">
        <ele>1247.852144</ele>
        <time>2021-07-08T15:54:13+0200</time>
      </trkpt>
      <trkpt lat="45.06714" lon="2.83635">
        <ele>1247.827333</ele>
        <time>2021-07-08T15:54:15+0200</time>
      </trkpt>
      <trkpt lat="45.06717" lon="2.83643">
        <ele>1247.431838</ele>
        <time>2021-07-08T15:54:17+0200</time>
      </trkpt>
      <trkpt lat="45.06721" lon="2.83651">
        <ele>1246.302377</ele>
        <time>2021-07-08T15:54:20+0200</time>
      </trkpt>
      <trkpt lat="45.06726" lon="2.83657">
        <ele>1245.540949</ele>
        <time>2021-07-08T15:54:22+0200</time>
      </trkpt>
      <trkpt lat="45.06731" lon="2.83664">
        <ele>1245.056249</ele>
        <time>2021-07-08T15:54:24+0200</time>
      </trkpt>
      <trkpt lat="45.06736" lon="2.83669">
        <ele>1244.529567</ele>
        <time>2021-07-08T15:54:26+0200</time>
      </trkpt>
      <trkpt lat="45.06741" lon="2.83674">
        <ele>1244.772305</ele>
        <time>2021-07-08T15:54:28+0200</time>
      </trkpt>
      <trkpt lat="45.06747" lon="2.83679">
        <ele>1245.298165</ele>
        <time>2021-07-08T15:54:30+0200</time>
      </trkpt>
      <trkpt lat="45.06752" lon="2.83683">
        <ele>1245.997614</ele>
        <time>2021-07-08T15:54:32+0200</time>
      </trkpt>
      <trkpt lat="45.06758" lon="2.83688">
        <ele>1245.348696</ele>
        <time>2021-07-08T15:54:34+0200</time>
      </trkpt>
      <trkpt lat="45.06764" lon="2.83693">
        <ele>1244.302903</ele>
        <time>2021-07-08T15:54:36+0200</time>
      </trkpt>
      <trkpt lat="45.06769" lon="2.83696">
        <ele>1243.904262</ele>
        <time>2021-07-08T15:54:37+0200</time>
      </trkpt>
      <trkpt lat="45.06773" lon="2.83699">
        <ele>1243.533727</ele>
        <time>2021-07-08T15:54:38+0200</time>
      </trkpt>
      <trkpt lat="45.0678" lon="2.83705">
        <ele>1242.259349</ele>
        <time>2021-07-08T15:54:40+0200</time>
      </trkpt>
      <trkpt lat="45.06785" lon="2.83709">
        <ele>1241.388402</ele>
        <time>2021-07-08T15:54:41+0200</time>
      </trkpt>
      <trkpt lat="45.06791" lon="2.83713">
        <ele>1241.540987</ele>
        <time>2021-07-08T15:54:42+0200</time>
      </trkpt>
      <trkpt lat="45.06797" lon="2.83718">
        <ele>1241.293994</ele>
        <time>2021-07-08T15:54:43+0200</time>
      </trkpt>
      <trkpt lat="45.06805" lon="2.83715">
        <ele>1240.933024</ele>
        <time>2021-07-08T15:54:44+0200</time>
      </trkpt>
      <trkpt lat="45.06812" lon="2.83718">
        <ele>1240.128026</ele>
        <time>2021-07-08T15:54:45+0200</time>
      </trkpt>
      <trkpt lat="45.06818" lon="2.8372">
        <ele>1238.56752</ele>
        <time>2021-07-08T15:54:46+0200</time>
      </trkpt>
      <trkpt lat="45.06828" lon="2.83725">
        <ele>1237.476979</ele>
        <time>2021-07-08T15:54:47+0200</time>
      </trkpt>
      <trkpt lat="45.06834" lon="2.8373">
        <ele>1236.537415</ele>
        <time>2021-07-08T15:54:48+0200</time>
      </trkpt>
      <trkpt lat="45.06843" lon="2.8374">
        <ele>1234.543271</ele>
        <time>2021-07-08T15:54:49+0200</time>
      </trkpt>
      <trkpt lat="45.06851" lon="2.83751">
        <ele>1233.066931</ele>
        <time>2021-07-08T15:54:50+0200</time>
      </trkpt>
      <trkpt lat="45.06858" lon="2.8376">
        <ele>1232.330329</ele>
        <time>2021-07-08T15:54:51+0200</time>
      </trkpt>
      <trkpt lat="45.06865" lon="2.83771">
        <ele>1231.762193</ele>
        <time>2021-07-08T15:54:52+0200</time>
      </trkpt>
      <trkpt lat="45.06871" lon="2.83782">
        <ele>1231.088751</ele>
        <time>2021-07-08T15:54:53+0200</time>
      </trkpt>
      <trkpt lat="45.06877" lon="2.83793">
        <ele>1230.253059</ele>
        <time>2021-07-08T15:54:54+0200</time>
      </trkpt>
      <trkpt lat="45.06882" lon="2.83803">
        <ele>1229.323792</ele>
        <time>2021-07-08T15:54:55+0200</time>
      </trkpt>
      <trkpt lat="45.06888" lon="2.83814">
        <ele>1228.375756</ele>
        <time>2021-07-08T15:54:56+0200</time>
      </trkpt>
      <trkpt lat="45.06893" lon="2.83822">
        <ele>1227.93601</ele>
        <time>2021-07-08T15:54:57+0200</time>
      </trkpt>
      <trkpt lat="45.06899" lon="2.83831">
        <ele>1228.564812</ele>
        <time>2021-07-08T15:54:58+0200</time>
      </trkpt>
      <trkpt lat="45.06907" lon="2.83841">
        <ele>1228.040826</ele>
        <time>2021-07-08T15:54:59+0200</time>
      </trkpt>
      <trkpt lat="45.06911" lon="2.83846">
        <ele>1228.045731</ele>
        <time>2021-07-08T15:55:00+0200</time>
      </trkpt>
      <trkpt lat="45.06918" lon="2.83853">
        <ele>1228.019311</ele>
        <time>2021-07-08T15:55:01+0200</time>
      </trkpt>
      <trkpt lat="45.06924" lon="2.83858">
        <ele>1227.981853</ele>
        <time>2021-07-08T15:55:02+0200</time>
      </trkpt>
      <trkpt lat="45.06931" lon="2.83863">
        <ele>1227.64601</ele>
        <time>2021-07-08T15:55:03+0200</time>
      </trkpt>
      <trkpt lat="45.06937" lon="2.83868">
        <ele>1228.353184</ele>
        <time>2021-07-08T15:55:04+0200</time>
      </trkpt>
      <trkpt lat="45.06944" lon="2.83873">
        <ele>1228.68141</ele>
        <time>2021-07-08T15:55:05+0200</time>
      </trkpt>
      <trkpt lat="45.0695" lon="2.83878">
        <ele>1228.16204</ele>
        <time>2021-07-08T15:55:06+0200</time>
      </trkpt>
      <trkpt lat="45.06957" lon="2.83883">
        <ele>1228.253254</ele>
        <time>2021-07-08T15:55:07+0200</time>
      </trkpt>
      <trkpt lat="45.06985" lon="2.83919">
        <ele>1225.736812</ele>
        <time>2021-07-08T15:55:13+0200</time>
      </trkpt>
      <trkpt lat="45.0699" lon="2.8393">
        <ele>1226.82722</ele>
        <time>2021-07-08T15:55:15+0200</time>
      </trkpt>
      <trkpt lat="45.06996" lon="2.8394">
        <ele>1227.276588</ele>
        <time>2021-07-08T15:55:17+0200</time>
      </trkpt>
      <trkpt lat="45.06998" lon="2.83946">
        <ele>1227.655801</ele>
        <time>2021-07-08T15:55:18+0200</time>
      </trkpt>
      <trkpt lat="45.07" lon="2.83951">
        <ele>1227.854312</ele>
        <time>2021-07-08T15:55:19+0200</time>
      </trkpt>
      <trkpt lat="45.07005" lon="2.8396">
        <ele>1228.761863</ele>
        <time>2021-07-08T15:55:21+0200</time>
      </trkpt>
      <trkpt lat="45.07009" lon="2.83968">
        <ele>1229.328898</ele>
        <time>2021-07-08T15:55:23+0200</time>
      </trkpt>
      <trkpt lat="45.07013" lon="2.83974">
        <ele>1229.766989</ele>
        <time>2021-07-08T15:55:25+0200</time>
      </trkpt>
      <trkpt lat="45.07016" lon="2.8398">
        <ele>1230.126915</ele>
        <time>2021-07-08T15:55:27+0200</time>
      </trkpt>
      <trkpt lat="45.07019" lon="2.83985">
        <ele>1230.410531</ele>
        <time>2021-07-08T15:55:29+0200</time>
      </trkpt>
      <trkpt lat="45.07023" lon="2.8399">
        <ele>1230.755565</ele>
        <time>2021-07-08T15:55:31+0200</time>
      </trkpt>
      <trkpt lat="45.07025" lon="2.83997">
        <ele>1230.025011</ele>
        <time>2021-07-08T15:55:33+0200</time>
      </trkpt>
      <trkpt lat="45.07029" lon="2.84003">
        <ele>1230.213432</ele>
        <time>2021-07-08T15:55:35+0200</time>
      </trkpt>
      <trkpt lat="45.07033" lon="2.84008">
        <ele>1230.627749</ele>
        <time>2021-07-08T15:55:37+0200</time>
      </trkpt>
      <trkpt lat="45.07036" lon="2.84015">
        <ele>1230.571035</ele>
        <time>2021-07-08T15:55:39+0200</time>
      </trkpt>
      <trkpt lat="45.07037" lon="2.84023">
        <ele>1230.672174</ele>
        <time>2021-07-08T15:55:41+0200</time>
      </trkpt>
      <trkpt lat="45.0704" lon="2.8403">
        <ele>1230.626054</ele>
        <time>2021-07-08T15:55:43+0200</time>
      </trkpt>
      <trkpt lat="45.07042" lon="2.84037">
        <ele>1231.804974</ele>
        <time>2021-07-08T15:55:45+0200</time>
      </trkpt>
      <trkpt lat="45.07044" lon="2.84045">
        <ele>1231.792003</ele>
        <time>2021-07-08T15:55:47+0200</time>
      </trkpt>
      <trkpt lat="45.07044" lon="2.84054">
        <ele>1231.974559</ele>
        <time>2021-07-08T15:55:49+0200</time>
      </trkpt>
      <trkpt lat="45.07045" lon="2.84061">
        <ele>1232.415227</ele>
        <time>2021-07-08T15:55:51+0200</time>
      </trkpt>
      <trkpt lat="45.07045" lon="2.84069">
        <ele>1232.2825</ele>
        <time>2021-07-08T15:55:53+0200</time>
      </trkpt>
      <trkpt lat="45.07046" lon="2.84075">
        <ele>1232.452965</ele>
        <time>2021-07-08T15:55:55+0200</time>
      </trkpt>
      <trkpt lat="45.07047" lon="2.84083">
        <ele>1232.823334</ele>
        <time>2021-07-08T15:55:57+0200</time>
      </trkpt>
      <trkpt lat="45.07047" lon="2.84089">
        <ele>1233.022738</ele>
        <time>2021-07-08T15:55:59+0200</time>
      </trkpt>
      <trkpt lat="45.07049" lon="2.84096">
        <ele>1233.48465</ele>
        <time>2021-07-08T15:56:01+0200</time>
      </trkpt>
      <trkpt lat="45.07049" lon="2.84102">
        <ele>1232.563303</ele>
        <time>2021-07-08T15:56:03+0200</time>
      </trkpt>
      <trkpt lat="45.0705" lon="2.84112">
        <ele>1233.060963</ele>
        <time>2021-07-08T15:56:06+0200</time>
      </trkpt>
      <trkpt lat="45.07051" lon="2.84119">
        <ele>1233.232076</ele>
        <time>2021-07-08T15:56:08+0200</time>
      </trkpt>
      <trkpt lat="45.07051" lon="2.84125">
        <ele>1233.599832</ele>
        <time>2021-07-08T15:56:10+0200</time>
      </trkpt>
      <trkpt lat="45.07051" lon="2.84135">
        <ele>1235.652556</ele>
        <time>2021-07-08T15:56:13+0200</time>
      </trkpt>
      <trkpt lat="45.07052" lon="2.84142">
        <ele>1236.154759</ele>
        <time>2021-07-08T15:56:15+0200</time>
      </trkpt>
      <trkpt lat="45.07052" lon="2.84151">
        <ele>1238.836258</ele>
        <time>2021-07-08T15:56:18+0200</time>
      </trkpt>
      <trkpt lat="45.07052" lon="2.84161">
        <ele>1239.674663</ele>
        <time>2021-07-08T15:56:21+0200</time>
      </trkpt>
      <trkpt lat="45.07053" lon="2.84169">
        <ele>1238.997328</ele>
        <time>2021-07-08T15:56:23+0200</time>
      </trkpt>
      <trkpt lat="45.07054" lon="2.84178">
        <ele>1240.387704</ele>
        <time>2021-07-08T15:56:26+0200</time>
      </trkpt>
      <trkpt lat="45.07054" lon="2.84187">
        <ele>1241.936955</ele>
        <time>2021-07-08T15:56:29+0200</time>
      </trkpt>
      <trkpt lat="45.07055" lon="2.84193">
        <ele>1245.081361</ele>
        <time>2021-07-08T15:56:32+0200</time>
      </trkpt>
      <trkpt lat="45.07056" lon="2.842">
        <ele>1247.587776</ele>
        <time>2021-07-08T15:56:37+0200</time>
      </trkpt>
      <trkpt lat="45.07058" lon="2.84208">
        <ele>1248.336644</ele>
        <time>2021-07-08T15:56:43+0200</time>
      </trkpt>
      <trkpt lat="45.07059" lon="2.84216">
        <ele>1248.721943</ele>
        <time>2021-07-08T15:56:45+0200</time>
      </trkpt>
      <trkpt lat="45.0706" lon="2.84227">
        <ele>1246.906515</ele>
        <time>2021-07-08T15:56:47+0200</time>
      </trkpt>
      <trkpt lat="45.07062" lon="2.84234">
        <ele>1245.677088</ele>
        <time>2021-07-08T15:56:48+0200</time>
      </trkpt>
      <trkpt lat="45.07063" lon="2.84242">
        <ele>1244.355478</ele>
        <time>2021-07-08T15:56:49+0200</time>
      </trkpt>
      <trkpt lat="45.07064" lon="2.8425">
        <ele>1244.039134</ele>
        <time>2021-07-08T15:56:50+0200</time>
      </trkpt>
      <trkpt lat="45.07067" lon="2.84258">
        <ele>1244.120375</ele>
        <time>2021-07-08T15:56:51+0200</time>
      </trkpt>
      <trkpt lat="45.0707" lon="2.84267">
        <ele>1244.955665</ele>
        <time>2021-07-08T15:56:52+0200</time>
      </trkpt>
      <trkpt lat="45.07072" lon="2.84277">
        <ele>1244.53965</ele>
        <time>2021-07-08T15:56:53+0200</time>
      </trkpt>
      <trkpt lat="45.07074" lon="2.84287">
        <ele>1244.029491</ele>
        <time>2021-07-08T15:56:54+0200</time>
      </trkpt>
      <trkpt lat="45.07077" lon="2.84295">
        <ele>1242.982934</ele>
        <time>2021-07-08T15:56:55+0200</time>
      </trkpt>
      <trkpt lat="45.07079" lon="2.84302">
        <ele>1242.334654</ele>
        <time>2021-07-08T15:56:56+0200</time>
      </trkpt>
      <trkpt lat="45.07081" lon="2.84309">
        <ele>1242.15736</ele>
        <time>2021-07-08T15:56:57+0200</time>
      </trkpt>
      <trkpt lat="45.07083" lon="2.84317">
        <ele>1242.305746</ele>
        <time>2021-07-08T15:56:58+0200</time>
      </trkpt>
      <trkpt lat="45.07086" lon="2.84325">
        <ele>1240.90309</ele>
        <time>2021-07-08T15:56:59+0200</time>
      </trkpt>
      <trkpt lat="45.07088" lon="2.84334">
        <ele>1241.187224</ele>
        <time>2021-07-08T15:57:00+0200</time>
      </trkpt>
      <trkpt lat="45.07091" lon="2.8434">
        <ele>1242.085245</ele>
        <time>2021-07-08T15:57:01+0200</time>
      </trkpt>
      <trkpt lat="45.07093" lon="2.84346">
        <ele>1240.711717</ele>
        <time>2021-07-08T15:57:02+0200</time>
      </trkpt>
      <trkpt lat="45.07096" lon="2.84352">
        <ele>1239.261056</ele>
        <time>2021-07-08T15:57:03+0200</time>
      </trkpt>
      <trkpt lat="45.07099" lon="2.84357">
        <ele>1238.438004</ele>
        <time>2021-07-08T15:57:04+0200</time>
      </trkpt>
      <trkpt lat="45.07102" lon="2.84362">
        <ele>1237.66759</ele>
        <time>2021-07-08T15:57:05+0200</time>
      </trkpt>
      <trkpt lat="45.07105" lon="2.84368">
        <ele>1237.232123</ele>
        <time>2021-07-08T15:57:06+0200</time>
      </trkpt>
      <trkpt lat="45.07108" lon="2.84373">
        <ele>1236.512236</ele>
        <time>2021-07-08T15:57:07+0200</time>
      </trkpt>
      <trkpt lat="45.07111" lon="2.84378">
        <ele>1237.170982</ele>
        <time>2021-07-08T15:57:08+0200</time>
      </trkpt>
      <trkpt lat="45.07115" lon="2.84382">
        <ele>1237.171582</ele>
        <time>2021-07-08T15:57:09+0200</time>
      </trkpt>
      <trkpt lat="45.07119" lon="2.84385">
        <ele>1237.440773</ele>
        <time>2021-07-08T15:57:10+0200</time>
      </trkpt>
      <trkpt lat="45.07124" lon="2.84388">
        <ele>1238.685655</ele>
        <time>2021-07-08T15:57:11+0200</time>
      </trkpt>
      <trkpt lat="45.07128" lon="2.84392">
        <ele>1238.85129</ele>
        <time>2021-07-08T15:57:12+0200</time>
      </trkpt>
      <trkpt lat="45.07132" lon="2.84397">
        <ele>1238.650519</ele>
        <time>2021-07-08T15:57:13+0200</time>
      </trkpt>
      <trkpt lat="45.07136" lon="2.84402">
        <ele>1238.552756</ele>
        <time>2021-07-08T15:57:14+0200</time>
      </trkpt>
      <trkpt lat="45.07141" lon="2.84406">
        <ele>1238.527667</ele>
        <time>2021-07-08T15:57:15+0200</time>
      </trkpt>
      <trkpt lat="45.07146" lon="2.84411">
        <ele>1238.069684</ele>
        <time>2021-07-08T15:57:16+0200</time>
      </trkpt>
      <trkpt lat="45.07152" lon="2.84415">
        <ele>1237.805981</ele>
        <time>2021-07-08T15:57:17+0200</time>
      </trkpt>
      <trkpt lat="45.07157" lon="2.8442">
        <ele>1237.544058</ele>
        <time>2021-07-08T15:57:18+0200</time>
      </trkpt>
      <trkpt lat="45.07163" lon="2.84425">
        <ele>1238.039427</ele>
        <time>2021-07-08T15:57:19+0200</time>
      </trkpt>
      <trkpt lat="45.07167" lon="2.84431">
        <ele>1237.920198</ele>
        <time>2021-07-08T15:57:20+0200</time>
      </trkpt>
      <trkpt lat="45.07173" lon="2.84437">
        <ele>1237.680745</ele>
        <time>2021-07-08T15:57:21+0200</time>
      </trkpt>
      <trkpt lat="45.07178" lon="2.84444">
        <ele>1237.601527</ele>
        <time>2021-07-08T15:57:22+0200</time>
      </trkpt>
      <trkpt lat="45.07183" lon="2.8445">
        <ele>1236.639888</ele>
        <time>2021-07-08T15:57:23+0200</time>
      </trkpt>
      <trkpt lat="45.07189" lon="2.84457">
        <ele>1235.777676</ele>
        <time>2021-07-08T15:57:24+0200</time>
      </trkpt>
      <trkpt lat="45.07195" lon="2.84464">
        <ele>1235.277675</ele>
        <time>2021-07-08T15:57:25+0200</time>
      </trkpt>
      <trkpt lat="45.07201" lon="2.84472">
        <ele>1235.433432</ele>
        <time>2021-07-08T15:57:26+0200</time>
      </trkpt>
      <trkpt lat="45.07207" lon="2.84478">
        <ele>1235.232859</ele>
        <time>2021-07-08T15:57:27+0200</time>
      </trkpt>
      <trkpt lat="45.07213" lon="2.84484">
        <ele>1235.751389</ele>
        <time>2021-07-08T15:57:28+0200</time>
      </trkpt>
      <trkpt lat="45.07217" lon="2.84489">
        <ele>1236.437755</ele>
        <time>2021-07-08T15:57:29+0200</time>
      </trkpt>
      <trkpt lat="45.07222" lon="2.84493">
        <ele>1237.362996</ele>
        <time>2021-07-08T15:57:30+0200</time>
      </trkpt>
      <trkpt lat="45.07227" lon="2.84497">
        <ele>1237.469506</ele>
        <time>2021-07-08T15:57:31+0200</time>
      </trkpt>
      <trkpt lat="45.07232" lon="2.84502">
        <ele>1237.230438</ele>
        <time>2021-07-08T15:57:32+0200</time>
      </trkpt>
      <trkpt lat="45.07238" lon="2.84508">
        <ele>1236.508355</ele>
        <time>2021-07-08T15:57:33+0200</time>
      </trkpt>
      <trkpt lat="45.07244" lon="2.84515">
        <ele>1235.603966</ele>
        <time>2021-07-08T15:57:34+0200</time>
      </trkpt>
      <trkpt lat="45.07249" lon="2.84522">
        <ele>1234.743476</ele>
        <time>2021-07-08T15:57:35+0200</time>
      </trkpt>
      <trkpt lat="45.07255" lon="2.84529">
        <ele>1234.419569</ele>
        <time>2021-07-08T15:57:36+0200</time>
      </trkpt>
      <trkpt lat="45.0726" lon="2.84536">
        <ele>1233.576512</ele>
        <time>2021-07-08T15:57:37+0200</time>
      </trkpt>
      <trkpt lat="45.07264" lon="2.84545">
        <ele>1232.79538</ele>
        <time>2021-07-08T15:57:38+0200</time>
      </trkpt>
      <trkpt lat="45.07268" lon="2.84553">
        <ele>1231.894106</ele>
        <time>2021-07-08T15:57:39+0200</time>
      </trkpt>
      <trkpt lat="45.07272" lon="2.84562">
        <ele>1231.704962</ele>
        <time>2021-07-08T15:57:40+0200</time>
      </trkpt>
      <trkpt lat="45.07276" lon="2.8457">
        <ele>1231.424111</ele>
        <time>2021-07-08T15:57:41+0200</time>
      </trkpt>
      <trkpt lat="45.0728" lon="2.84579">
        <ele>1231.035215</ele>
        <time>2021-07-08T15:57:42+0200</time>
      </trkpt>
      <trkpt lat="45.07285" lon="2.84586">
        <ele>1231.341651</ele>
        <time>2021-07-08T15:57:43+0200</time>
      </trkpt>
      <trkpt lat="45.0729" lon="2.84592">
        <ele>1231.820797</ele>
        <time>2021-07-08T15:57:44+0200</time>
      </trkpt>
      <trkpt lat="45.07294" lon="2.84599">
        <ele>1231.387215</ele>
        <time>2021-07-08T15:57:45+0200</time>
      </trkpt>
      <trkpt lat="45.07299" lon="2.84605">
        <ele>1231.124478</ele>
        <time>2021-07-08T15:57:46+0200</time>
      </trkpt>
      <trkpt lat="45.07304" lon="2.84612">
        <ele>1231.03432</ele>
        <time>2021-07-08T15:57:47+0200</time>
      </trkpt>
      <trkpt lat="45.07309" lon="2.84618">
        <ele>1230.39276</ele>
        <time>2021-07-08T15:57:48+0200</time>
      </trkpt>
      <trkpt lat="45.07312" lon="2.84625">
        <ele>1230.059519</ele>
        <time>2021-07-08T15:57:49+0200</time>
      </trkpt>
      <trkpt lat="45.07315" lon="2.84631">
        <ele>1230.216844</ele>
        <time>2021-07-08T15:57:50+0200</time>
      </trkpt>
      <trkpt lat="45.07318" lon="2.84636">
        <ele>1230.318327</ele>
        <time>2021-07-08T15:57:51+0200</time>
      </trkpt>
      <trkpt lat="45.07324" lon="2.84644">
        <ele>1231.378669</ele>
        <time>2021-07-08T15:57:53+0200</time>
      </trkpt>
      <trkpt lat="45.07327" lon="2.8465">
        <ele>1231.491886</ele>
        <time>2021-07-08T15:57:54+0200</time>
      </trkpt>
      <trkpt lat="45.07331" lon="2.84655">
        <ele>1230.82865</ele>
        <time>2021-07-08T15:57:55+0200</time>
      </trkpt>
      <trkpt lat="45.07336" lon="2.84659">
        <ele>1231.364337</ele>
        <time>2021-07-08T15:57:56+0200</time>
      </trkpt>
      <trkpt lat="45.07341" lon="2.84664">
        <ele>1231.177576</ele>
        <time>2021-07-08T15:57:57+0200</time>
      </trkpt>
      <trkpt lat="45.07347" lon="2.84671">
        <ele>1230.827143</ele>
        <time>2021-07-08T15:57:58+0200</time>
      </trkpt>
      <trkpt lat="45.07352" lon="2.84677">
        <ele>1230.617497</ele>
        <time>2021-07-08T15:57:59+0200</time>
      </trkpt>
      <trkpt lat="45.07357" lon="2.84682">
        <ele>1229.772754</ele>
        <time>2021-07-08T15:58:00+0200</time>
      </trkpt>
      <trkpt lat="45.07363" lon="2.84688">
        <ele>1229.690407</ele>
        <time>2021-07-08T15:58:01+0200</time>
      </trkpt>
      <trkpt lat="45.07368" lon="2.84693">
        <ele>1229.605471</ele>
        <time>2021-07-08T15:58:02+0200</time>
      </trkpt>
      <trkpt lat="45.07374" lon="2.84698">
        <ele>1229.759958</ele>
        <time>2021-07-08T15:58:03+0200</time>
      </trkpt>
      <trkpt lat="45.07379" lon="2.84703">
        <ele>1229.850919</ele>
        <time>2021-07-08T15:58:04+0200</time>
      </trkpt>
      <trkpt lat="45.07385" lon="2.8471">
        <ele>1229.294362</ele>
        <time>2021-07-08T15:58:05+0200</time>
      </trkpt>
      <trkpt lat="45.0739" lon="2.84717">
        <ele>1229.02195</ele>
        <time>2021-07-08T15:58:06+0200</time>
      </trkpt>
      <trkpt lat="45.07394" lon="2.84723">
        <ele>1228.746074</ele>
        <time>2021-07-08T15:58:07+0200</time>
      </trkpt>
      <trkpt lat="45.07399" lon="2.8473">
        <ele>1228.990921</ele>
        <time>2021-07-08T15:58:08+0200</time>
      </trkpt>
      <trkpt lat="45.07403" lon="2.84735">
        <ele>1229.459753</ele>
        <time>2021-07-08T15:58:09+0200</time>
      </trkpt>
      <trkpt lat="45.07408" lon="2.8474">
        <ele>1230.033924</ele>
        <time>2021-07-08T15:58:10+0200</time>
      </trkpt>
      <trkpt lat="45.07412" lon="2.84743">
        <ele>1230.633184</ele>
        <time>2021-07-08T15:58:11+0200</time>
      </trkpt>
      <trkpt lat="45.07419" lon="2.8475">
        <ele>1231.41055</ele>
        <time>2021-07-08T15:58:13+0200</time>
      </trkpt>
      <trkpt lat="45.07424" lon="2.84752">
        <ele>1232.502578</ele>
        <time>2021-07-08T15:58:14+0200</time>
      </trkpt>
      <trkpt lat="45.07433" lon="2.84756">
        <ele>1231.781719</ele>
        <time>2021-07-08T15:58:16+0200</time>
      </trkpt>
      <trkpt lat="45.07441" lon="2.84762">
        <ele>1232.131302</ele>
        <time>2021-07-08T15:58:18+0200</time>
      </trkpt>
      <trkpt lat="45.07449" lon="2.84767">
        <ele>1231.512883</ele>
        <time>2021-07-08T15:58:20+0200</time>
      </trkpt>
      <trkpt lat="45.07453" lon="2.8477">
        <ele>1231.47024</ele>
        <time>2021-07-08T15:58:21+0200</time>
      </trkpt>
      <trkpt lat="45.07458" lon="2.84773">
        <ele>1231.109423</ele>
        <time>2021-07-08T15:58:22+0200</time>
      </trkpt>
      <trkpt lat="45.07462" lon="2.84777">
        <ele>1231.64257</ele>
        <time>2021-07-08T15:58:23+0200</time>
      </trkpt>
      <trkpt lat="45.07466" lon="2.84781">
        <ele>1232.07012</ele>
        <time>2021-07-08T15:58:24+0200</time>
      </trkpt>
      <trkpt lat="45.0747" lon="2.84787">
        <ele>1231.99896</ele>
        <time>2021-07-08T15:58:25+0200</time>
      </trkpt>
      <trkpt lat="45.07474" lon="2.84792">
        <ele>1231.360686</ele>
        <time>2021-07-08T15:58:26+0200</time>
      </trkpt>
      <trkpt lat="45.07477" lon="2.84798">
        <ele>1231.035034</ele>
        <time>2021-07-08T15:58:27+0200</time>
      </trkpt>
      <trkpt lat="45.07479" lon="2.84804">
        <ele>1230.444447</ele>
        <time>2021-07-08T15:58:28+0200</time>
      </trkpt>
      <trkpt lat="45.07482" lon="2.84813">
        <ele>1233.413081</ele>
        <time>2021-07-08T15:58:30+0200</time>
      </trkpt>
      <trkpt lat="45.07484" lon="2.84818">
        <ele>1234.250723</ele>
        <time>2021-07-08T15:58:32+0200</time>
      </trkpt>
      <trkpt lat="45.07486" lon="2.84824">
        <ele>1235.350897</ele>
        <time>2021-07-08T15:58:34+0200</time>
      </trkpt>
      <trkpt lat="45.07488" lon="2.8483">
        <ele>1236.253941</ele>
        <time>2021-07-08T15:58:36+0200</time>
      </trkpt>
      <trkpt lat="45.07491" lon="2.84838">
        <ele>1237.017995</ele>
        <time>2021-07-08T15:58:39+0200</time>
      </trkpt>
      <trkpt lat="45.07493" lon="2.84846">
        <ele>1236.933897</ele>
        <time>2021-07-08T15:58:42+0200</time>
      </trkpt>
      <trkpt lat="45.07497" lon="2.84851">
        <ele>1237.694532</ele>
        <time>2021-07-08T15:58:45+0200</time>
      </trkpt>
      <trkpt lat="45.075" lon="2.84858">
        <ele>1237.49162</ele>
        <time>2021-07-08T15:58:48+0200</time>
      </trkpt>
      <trkpt lat="45.07504" lon="2.84863">
        <ele>1237.715104</ele>
        <time>2021-07-08T15:58:50+0200</time>
      </trkpt>
      <trkpt lat="45.07507" lon="2.84869">
        <ele>1238.208313</ele>
        <time>2021-07-08T15:58:52+0200</time>
      </trkpt>
      <trkpt lat="45.0751" lon="2.84876">
        <ele>1238.769457</ele>
        <time>2021-07-08T15:58:54+0200</time>
      </trkpt>
      <trkpt lat="45.07513" lon="2.84884">
        <ele>1238.316582</ele>
        <time>2021-07-08T15:58:56+0200</time>
      </trkpt>
      <trkpt lat="45.07515" lon="2.84891">
        <ele>1238.03813</ele>
        <time>2021-07-08T15:58:58+0200</time>
      </trkpt>
      <trkpt lat="45.07518" lon="2.84899">
        <ele>1238.106485</ele>
        <time>2021-07-08T15:59:00+0200</time>
      </trkpt>
      <trkpt lat="45.07519" lon="2.84905">
        <ele>1238.571847</ele>
        <time>2021-07-08T15:59:02+0200</time>
      </trkpt>
      <trkpt lat="45.07521" lon="2.84912">
        <ele>1239.797572</ele>
        <time>2021-07-08T15:59:04+0200</time>
      </trkpt>
      <trkpt lat="45.07523" lon="2.8492">
        <ele>1241.682699</ele>
        <time>2021-07-08T15:59:07+0200</time>
      </trkpt>
      <trkpt lat="45.07524" lon="2.84927">
        <ele>1241.096033</ele>
        <time>2021-07-08T15:59:09+0200</time>
      </trkpt>
      <trkpt lat="45.07523" lon="2.84936">
        <ele>1240.86308</ele>
        <time>2021-07-08T15:59:12+0200</time>
      </trkpt>
      <trkpt lat="45.07524" lon="2.84944">
        <ele>1241.042522</ele>
        <time>2021-07-08T15:59:14+0200</time>
      </trkpt>
      <trkpt lat="45.07525" lon="2.84952">
        <ele>1242.288556</ele>
        <time>2021-07-08T15:59:17+0200</time>
      </trkpt>
      <trkpt lat="45.07527" lon="2.84961">
        <ele>1243.505727</ele>
        <time>2021-07-08T15:59:20+0200</time>
      </trkpt>
      <trkpt lat="45.07527" lon="2.84968">
        <ele>1245.31149</ele>
        <time>2021-07-08T15:59:23+0200</time>
      </trkpt>
      <trkpt lat="45.07528" lon="2.84977">
        <ele>1245.71786</ele>
        <time>2021-07-08T15:59:26+0200</time>
      </trkpt>
      <trkpt lat="45.07528" lon="2.84984">
        <ele>1246.241467</ele>
        <time>2021-07-08T15:59:28+0200</time>
      </trkpt>
      <trkpt lat="45.07529" lon="2.84991">
        <ele>1246.382681</ele>
        <time>2021-07-08T15:59:30+0200</time>
      </trkpt>
      <trkpt lat="45.0753" lon="2.84998">
        <ele>1246.868667</ele>
        <time>2021-07-08T15:59:32+0200</time>
      </trkpt>
      <trkpt lat="45.07532" lon="2.85005">
        <ele>1247.796336</ele>
        <time>2021-07-08T15:59:35+0200</time>
      </trkpt>
      <trkpt lat="45.07532" lon="2.85012">
        <ele>1246.906405</ele>
        <time>2021-07-08T15:59:38+0200</time>
      </trkpt>
      <trkpt lat="45.07534" lon="2.8502">
        <ele>1245.23315</ele>
        <time>2021-07-08T15:59:41+0200</time>
      </trkpt>
      <trkpt lat="45.07537" lon="2.85026">
        <ele>1245.437176</ele>
        <time>2021-07-08T15:59:43+0200</time>
      </trkpt>
      <trkpt lat="45.07539" lon="2.85033">
        <ele>1245.959017</ele>
        <time>2021-07-08T15:59:45+0200</time>
      </trkpt>
      <trkpt lat="45.07542" lon="2.8504">
        <ele>1247.207692</ele>
        <time>2021-07-08T15:59:47+0200</time>
      </trkpt>
      <trkpt lat="45.07546" lon="2.85049">
        <ele>1247.602919</ele>
        <time>2021-07-08T15:59:49+0200</time>
      </trkpt>
      <trkpt lat="45.07549" lon="2.85058">
        <ele>1248.868866</ele>
        <time>2021-07-08T15:59:51+0200</time>
      </trkpt>
      <trkpt lat="45.07552" lon="2.85068">
        <ele>1248.784391</ele>
        <time>2021-07-08T15:59:53+0200</time>
      </trkpt>
      <trkpt lat="45.07554" lon="2.85077">
        <ele>1249.42276</ele>
        <time>2021-07-08T15:59:55+0200</time>
      </trkpt>
      <trkpt lat="45.07555" lon="2.85086">
        <ele>1250.423359</ele>
        <time>2021-07-08T15:59:57+0200</time>
      </trkpt>
      <trkpt lat="45.07557" lon="2.85093">
        <ele>1251.079649</ele>
        <time>2021-07-08T15:59:59+0200</time>
      </trkpt>
      <trkpt lat="45.07558" lon="2.851">
        <ele>1251.281556</ele>
        <time>2021-07-08T16:00:01+0200</time>
      </trkpt>
      <trkpt lat="45.0756" lon="2.85109">
        <ele>1253.155273</ele>
        <time>2021-07-08T16:00:03+0200</time>
      </trkpt>
      <trkpt lat="45.0756" lon="2.85116">
        <ele>1254.616928</ele>
        <time>2021-07-08T16:00:05+0200</time>
      </trkpt>
      <trkpt lat="45.0756" lon="2.85124">
        <ele>1254.84467</ele>
        <time>2021-07-08T16:00:07+0200</time>
      </trkpt>
      <trkpt lat="45.07562" lon="2.85132">
        <ele>1256.117219</ele>
        <time>2021-07-08T16:00:09+0200</time>
      </trkpt>
      <trkpt lat="45.07564" lon="2.8514">
        <ele>1256.738274</ele>
        <time>2021-07-08T16:00:11+0200</time>
      </trkpt>
      <trkpt lat="45.07565" lon="2.85148">
        <ele>1258.562173</ele>
        <time>2021-07-08T16:00:13+0200</time>
      </trkpt>
      <trkpt lat="45.07567" lon="2.85158">
        <ele>1257.931106</ele>
        <time>2021-07-08T16:00:15+0200</time>
      </trkpt>
      <trkpt lat="45.0757" lon="2.85167">
        <ele>1257.93383</ele>
        <time>2021-07-08T16:00:17+0200</time>
      </trkpt>
      <trkpt lat="45.07572" lon="2.85176">
        <ele>1257.620813</ele>
        <time>2021-07-08T16:00:19+0200</time>
      </trkpt>
      <trkpt lat="45.07574" lon="2.85185">
        <ele>1257.762479</ele>
        <time>2021-07-08T16:00:21+0200</time>
      </trkpt>
      <trkpt lat="45.07577" lon="2.85195">
        <ele>1258.698544</ele>
        <time>2021-07-08T16:00:23+0200</time>
      </trkpt>
      <trkpt lat="45.07579" lon="2.85205">
        <ele>1259.732987</ele>
        <time>2021-07-08T16:00:25+0200</time>
      </trkpt>
      <trkpt lat="45.07581" lon="2.85213">
        <ele>1260.881298</ele>
        <time>2021-07-08T16:00:27+0200</time>
      </trkpt>
      <trkpt lat="45.07581" lon="2.85222">
        <ele>1261.968795</ele>
        <time>2021-07-08T16:00:29+0200</time>
      </trkpt>
      <trkpt lat="45.07581" lon="2.85232">
        <ele>1262.754959</ele>
        <time>2021-07-08T16:00:32+0200</time>
      </trkpt>
      <trkpt lat="45.07581" lon="2.8524">
        <ele>1263.00622</ele>
        <time>2021-07-08T16:00:34+0200</time>
      </trkpt>
      <trkpt lat="45.07581" lon="2.85247">
        <ele>1263.561334</ele>
        <time>2021-07-08T16:00:36+0200</time>
      </trkpt>
      <trkpt lat="45.0758" lon="2.85255">
        <ele>1263.259663</ele>
        <time>2021-07-08T16:00:38+0200</time>
      </trkpt>
      <trkpt lat="45.07579" lon="2.85262">
        <ele>1262.148367</ele>
        <time>2021-07-08T16:00:40+0200</time>
      </trkpt>
      <trkpt lat="45.07577" lon="2.85271">
        <ele>1262.42902</ele>
        <time>2021-07-08T16:00:42+0200</time>
      </trkpt>
      <trkpt lat="45.07576" lon="2.85278">
        <ele>1262.126543</ele>
        <time>2021-07-08T16:00:44+0200</time>
      </trkpt>
      <trkpt lat="45.07575" lon="2.85285">
        <ele>1262.198126</ele>
        <time>2021-07-08T16:00:46+0200</time>
      </trkpt>
      <trkpt lat="45.07575" lon="2.85292">
        <ele>1262.403795</ele>
        <time>2021-07-08T16:00:48+0200</time>
      </trkpt>
      <trkpt lat="45.07575" lon="2.853">
        <ele>1262.010604</ele>
        <time>2021-07-08T16:00:51+0200</time>
      </trkpt>
      <trkpt lat="45.07574" lon="2.85308">
        <ele>1260.303927</ele>
        <time>2021-07-08T16:00:54+0200</time>
      </trkpt>
      <trkpt lat="45.07574" lon="2.85318">
        <ele>1260.562654</ele>
        <time>2021-07-08T16:00:57+0200</time>
      </trkpt>
      <trkpt lat="45.07572" lon="2.85328">
        <ele>1260.038076</ele>
        <time>2021-07-08T16:01:00+0200</time>
      </trkpt>
      <trkpt lat="45.07571" lon="2.85335">
        <ele>1260.028143</ele>
        <time>2021-07-08T16:01:02+0200</time>
      </trkpt>
      <trkpt lat="45.07571" lon="2.85343">
        <ele>1259.589398</ele>
        <time>2021-07-08T16:01:04+0200</time>
      </trkpt>
      <trkpt lat="45.0757" lon="2.8535">
        <ele>1260.844125</ele>
        <time>2021-07-08T16:01:06+0200</time>
      </trkpt>
      <trkpt lat="45.07569" lon="2.85359">
        <ele>1261.603587</ele>
        <time>2021-07-08T16:01:08+0200</time>
      </trkpt>
      <trkpt lat="45.07567" lon="2.85368">
        <ele>1259.21962</ele>
        <time>2021-07-08T16:01:10+0200</time>
      </trkpt>
      <trkpt lat="45.07567" lon="2.8538">
        <ele>1256.089067</ele>
        <time>2021-07-08T16:01:12+0200</time>
      </trkpt>
      <trkpt lat="45.07566" lon="2.8539">
        <ele>1252.710504</ele>
        <time>2021-07-08T16:01:14+0200</time>
      </trkpt>
      <trkpt lat="45.07565" lon="2.85402">
        <ele>1250.410355</ele>
        <time>2021-07-08T16:01:16+0200</time>
      </trkpt>
      <trkpt lat="45.07562" lon="2.85412">
        <ele>1250.430121</ele>
        <time>2021-07-08T16:01:18+0200</time>
      </trkpt>
      <trkpt lat="45.0756" lon="2.85423">
        <ele>1249.942594</ele>
        <time>2021-07-08T16:01:20+0200</time>
      </trkpt>
      <trkpt lat="45.07558" lon="2.85436">
        <ele>1249.529841</ele>
        <time>2021-07-08T16:01:22+0200</time>
      </trkpt>
      <trkpt lat="45.07555" lon="2.85447">
        <ele>1250.857568</ele>
        <time>2021-07-08T16:01:24+0200</time>
      </trkpt>
      <trkpt lat="45.07554" lon="2.85453">
        <ele>1251.847997</ele>
        <time>2021-07-08T16:01:25+0200</time>
      </trkpt>
      <trkpt lat="45.07549" lon="2.85464">
        <ele>1253.224859</ele>
        <time>2021-07-08T16:01:27+0200</time>
      </trkpt>
      <trkpt lat="45.07547" lon="2.8547">
        <ele>1253.788397</ele>
        <time>2021-07-08T16:01:28+0200</time>
      </trkpt>
      <trkpt lat="45.07544" lon="2.85476">
        <ele>1252.996477</ele>
        <time>2021-07-08T16:01:29+0200</time>
      </trkpt>
      <trkpt lat="45.07541" lon="2.85481">
        <ele>1253.31154</ele>
        <time>2021-07-08T16:01:30+0200</time>
      </trkpt>
      <trkpt lat="45.07538" lon="2.85487">
        <ele>1254.176867</ele>
        <time>2021-07-08T16:01:31+0200</time>
      </trkpt>
      <trkpt lat="45.07535" lon="2.85492">
        <ele>1255.099024</ele>
        <time>2021-07-08T16:01:32+0200</time>
      </trkpt>
      <trkpt lat="45.07532" lon="2.85498">
        <ele>1255.493738</ele>
        <time>2021-07-08T16:01:33+0200</time>
      </trkpt>
      <trkpt lat="45.07528" lon="2.85503">
        <ele>1256.371136</ele>
        <time>2021-07-08T16:01:34+0200</time>
      </trkpt>
      <trkpt lat="45.07524" lon="2.85509">
        <ele>1256.798568</ele>
        <time>2021-07-08T16:01:35+0200</time>
      </trkpt>
      <trkpt lat="45.07521" lon="2.85516">
        <ele>1256.713487</ele>
        <time>2021-07-08T16:01:36+0200</time>
      </trkpt>
      <trkpt lat="45.07517" lon="2.85523">
        <ele>1256.850843</ele>
        <time>2021-07-08T16:01:37+0200</time>
      </trkpt>
      <trkpt lat="45.07514" lon="2.8553">
        <ele>1257.782751</ele>
        <time>2021-07-08T16:01:38+0200</time>
      </trkpt>
      <trkpt lat="45.0751" lon="2.85538">
        <ele>1257.957188</ele>
        <time>2021-07-08T16:01:39+0200</time>
      </trkpt>
      <trkpt lat="45.07507" lon="2.85546">
        <ele>1258.248841</ele>
        <time>2021-07-08T16:01:40+0200</time>
      </trkpt>
      <trkpt lat="45.07504" lon="2.85555">
        <ele>1258.489011</ele>
        <time>2021-07-08T16:01:41+0200</time>
      </trkpt>
      <trkpt lat="45.07499" lon="2.85564">
        <ele>1257.702156</ele>
        <time>2021-07-08T16:01:42+0200</time>
      </trkpt>
      <trkpt lat="45.07496" lon="2.85574">
        <ele>1256.762137</ele>
        <time>2021-07-08T16:01:43+0200</time>
      </trkpt>
      <trkpt lat="45.07492" lon="2.85582">
        <ele>1257.253256</ele>
        <time>2021-07-08T16:01:44+0200</time>
      </trkpt>
      <trkpt lat="45.07488" lon="2.85589">
        <ele>1257.637628</ele>
        <time>2021-07-08T16:01:45+0200</time>
      </trkpt>
      <trkpt lat="45.07483" lon="2.85593">
        <ele>1259.780703</ele>
        <time>2021-07-08T16:01:46+0200</time>
      </trkpt>
      <trkpt lat="45.0748" lon="2.85601">
        <ele>1260.261861</ele>
        <time>2021-07-08T16:01:47+0200</time>
      </trkpt>
      <trkpt lat="45.07476" lon="2.85608">
        <ele>1261.240819</ele>
        <time>2021-07-08T16:01:48+0200</time>
      </trkpt>
      <trkpt lat="45.07473" lon="2.85614">
        <ele>1262.874383</ele>
        <time>2021-07-08T16:01:49+0200</time>
      </trkpt>
      <trkpt lat="45.0747" lon="2.85621">
        <ele>1263.890395</ele>
        <time>2021-07-08T16:01:50+0200</time>
      </trkpt>
      <trkpt lat="45.07468" lon="2.85632">
        <ele>1263.79443</ele>
        <time>2021-07-08T16:01:52+0200</time>
      </trkpt>
      <trkpt lat="45.07466" lon="2.85641">
        <ele>1264.45775</ele>
        <time>2021-07-08T16:01:54+0200</time>
      </trkpt>
      <trkpt lat="45.07464" lon="2.85649">
        <ele>1265.142602</ele>
        <time>2021-07-08T16:01:56+0200</time>
      </trkpt>
      <trkpt lat="45.07462" lon="2.85657">
        <ele>1265.077029</ele>
        <time>2021-07-08T16:01:58+0200</time>
      </trkpt>
      <trkpt lat="45.07461" lon="2.85666">
        <ele>1264.916548</ele>
        <time>2021-07-08T16:02:00+0200</time>
      </trkpt>
      <trkpt lat="45.07458" lon="2.85676">
        <ele>1264.549559</ele>
        <time>2021-07-08T16:02:02+0200</time>
      </trkpt>
      <trkpt lat="45.07456" lon="2.85686">
        <ele>1263.21879</ele>
        <time>2021-07-08T16:02:04+0200</time>
      </trkpt>
      <trkpt lat="45.07457" lon="2.85693">
        <ele>1261.006425</ele>
        <time>2021-07-08T16:02:05+0200</time>
      </trkpt>
      <trkpt lat="45.07457" lon="2.85703">
        <ele>1260.680247</ele>
        <time>2021-07-08T16:02:07+0200</time>
      </trkpt>
      <trkpt lat="45.07457" lon="2.85711">
        <ele>1264.441688</ele>
        <time>2021-07-08T16:02:09+0200</time>
      </trkpt>
      <trkpt lat="45.07457" lon="2.85718">
        <ele>1266.533212</ele>
        <time>2021-07-08T16:02:11+0200</time>
      </trkpt>
      <trkpt lat="45.07457" lon="2.85727">
        <ele>1266.174318</ele>
        <time>2021-07-08T16:02:13+0200</time>
      </trkpt>
      <trkpt lat="45.07457" lon="2.85737">
        <ele>1265.40271</ele>
        <time>2021-07-08T16:02:15+0200</time>
      </trkpt>
      <trkpt lat="45.07457" lon="2.85746">
        <ele>1264.432993</ele>
        <time>2021-07-08T16:02:18+0200</time>
      </trkpt>
      <trkpt lat="45.07456" lon="2.85753">
        <ele>1265.019479</ele>
        <time>2021-07-08T16:02:21+0200</time>
      </trkpt>
      <trkpt lat="45.07452" lon="2.85759">
        <ele>1264.143028</ele>
        <time>2021-07-08T16:02:24+0200</time>
      </trkpt>
      <trkpt lat="45.0745" lon="2.85766">
        <ele>1264.129243</ele>
        <time>2021-07-08T16:02:26+0200</time>
      </trkpt>
      <trkpt lat="45.07445" lon="2.85776">
        <ele>1262.154456</ele>
        <time>2021-07-08T16:02:28+0200</time>
      </trkpt>
      <trkpt lat="45.0744" lon="2.85782">
        <ele>1260.794669</ele>
        <time>2021-07-08T16:02:30+0200</time>
      </trkpt>
      <trkpt lat="45.07434" lon="2.85785">
        <ele>1260.765679</ele>
        <time>2021-07-08T16:02:32+0200</time>
      </trkpt>
      <trkpt lat="45.07429" lon="2.8579">
        <ele>1261.570566</ele>
        <time>2021-07-08T16:02:34+0200</time>
      </trkpt>
      <trkpt lat="45.07425" lon="2.85795">
        <ele>1261.164595</ele>
        <time>2021-07-08T16:02:36+0200</time>
      </trkpt>
      <trkpt lat="45.0742" lon="2.858">
        <ele>1262.355064</ele>
        <time>2021-07-08T16:02:38+0200</time>
      </trkpt>
      <trkpt lat="45.07416" lon="2.85804">
        <ele>1262.898983</ele>
        <time>2021-07-08T16:02:40+0200</time>
      </trkpt>
      <trkpt lat="45.07412" lon="2.8581">
        <ele>1263.082782</ele>
        <time>2021-07-08T16:02:42+0200</time>
      </trkpt>
      <trkpt lat="45.07409" lon="2.85818">
        <ele>1262.518406</ele>
        <time>2021-07-08T16:02:44+0200</time>
      </trkpt>
      <trkpt lat="45.07406" lon="2.85824">
        <ele>1262.064549</ele>
        <time>2021-07-08T16:02:46+0200</time>
      </trkpt>
      <trkpt lat="45.07402" lon="2.85832">
        <ele>1261.752587</ele>
        <time>2021-07-08T16:02:48+0200</time>
      </trkpt>
      <trkpt lat="45.07398" lon="2.85838">
        <ele>1262.44008</ele>
        <time>2021-07-08T16:02:50+0200</time>
      </trkpt>
      <trkpt lat="45.07395" lon="2.85842">
        <ele>1263.854739</ele>
        <time>2021-07-08T16:02:52+0200</time>
      </trkpt>
      <trkpt lat="45.07392" lon="2.85847">
        <ele>1264.086359</ele>
        <time>2021-07-08T16:02:54+0200</time>
      </trkpt>
      <trkpt lat="45.07387" lon="2.85853">
        <ele>1263.619548</ele>
        <time>2021-07-08T16:02:56+0200</time>
      </trkpt>
      <trkpt lat="45.07384" lon="2.85862">
        <ele>1261.567026</ele>
        <time>2021-07-08T16:02:58+0200</time>
      </trkpt>
      <trkpt lat="45.07383" lon="2.8587">
        <ele>1263.214492</ele>
        <time>2021-07-08T16:03:00+0200</time>
      </trkpt>
      <trkpt lat="45.0738" lon="2.85881">
        <ele>1263.968012</ele>
        <time>2021-07-08T16:03:02+0200</time>
      </trkpt>
      <trkpt lat="45.07382" lon="2.8589">
        <ele>1265.938619</ele>
        <time>2021-07-08T16:03:04+0200</time>
      </trkpt>
      <trkpt lat="45.07384" lon="2.85899">
        <ele>1265.09342</ele>
        <time>2021-07-08T16:03:06+0200</time>
      </trkpt>
      <trkpt lat="45.07386" lon="2.85909">
        <ele>1263.414604</ele>
        <time>2021-07-08T16:03:08+0200</time>
      </trkpt>
      <trkpt lat="45.07387" lon="2.85918">
        <ele>1262.585345</ele>
        <time>2021-07-08T16:03:10+0200</time>
      </trkpt>
      <trkpt lat="45.07387" lon="2.85926">
        <ele>1263.091983</ele>
        <time>2021-07-08T16:03:12+0200</time>
      </trkpt>
      <trkpt lat="45.07387" lon="2.85933">
        <ele>1261.278918</ele>
        <time>2021-07-08T16:03:15+0200</time>
      </trkpt>
      <trkpt lat="45.07383" lon="2.85938">
        <ele>1254.338742</ele>
        <time>2021-07-08T16:03:22+0200</time>
      </trkpt>
      <trkpt lat="45.07379" lon="2.85939">
        <ele>1265.936176</ele>
        <time>2021-07-08T16:03:40+0200</time>
      </trkpt>
      <trkpt lat="45.07375" lon="2.85947">
        <ele>1258.910044</ele>
        <time>2021-07-08T16:03:55+0200</time>
      </trkpt>
      <trkpt lat="45.0737" lon="2.85952">
        <ele>1258.450195</ele>
        <time>2021-07-08T16:03:57+0200</time>
      </trkpt>
      <trkpt lat="45.07366" lon="2.85957">
        <ele>1258.463739</ele>
        <time>2021-07-08T16:03:59+0200</time>
      </trkpt>
      <trkpt lat="45.07359" lon="2.85961">
        <ele>1257.196332</ele>
        <time>2021-07-08T16:04:01+0200</time>
      </trkpt>
      <trkpt lat="45.07353" lon="2.85965">
        <ele>1257.367101</ele>
        <time>2021-07-08T16:04:03+0200</time>
      </trkpt>
      <trkpt lat="45.07347" lon="2.85971">
        <ele>1257.141291</ele>
        <time>2021-07-08T16:04:05+0200</time>
      </trkpt>
      <trkpt lat="45.07342" lon="2.85978">
        <ele>1258.229302</ele>
        <time>2021-07-08T16:04:07+0200</time>
      </trkpt>
      <trkpt lat="45.07339" lon="2.85985">
        <ele>1261.52871</ele>
        <time>2021-07-08T16:04:09+0200</time>
      </trkpt>
      <trkpt lat="45.07335" lon="2.85993">
        <ele>1262.231502</ele>
        <time>2021-07-08T16:04:11+0200</time>
      </trkpt>
      <trkpt lat="45.07329" lon="2.86002">
        <ele>1262.387139</ele>
        <time>2021-07-08T16:04:13+0200</time>
      </trkpt>
      <trkpt lat="45.07326" lon="2.86007">
        <ele>1260.888267</ele>
        <time>2021-07-08T16:04:14+0200</time>
      </trkpt>
      <trkpt lat="45.07323" lon="2.86012">
        <ele>1259.44134</ele>
        <time>2021-07-08T16:04:15+0200</time>
      </trkpt>
      <trkpt lat="45.07317" lon="2.86018">
        <ele>1258.112238</ele>
        <time>2021-07-08T16:04:17+0200</time>
      </trkpt>
      <trkpt lat="45.07311" lon="2.86025">
        <ele>1260.111613</ele>
        <time>2021-07-08T16:04:19+0200</time>
      </trkpt>
      <trkpt lat="45.07305" lon="2.8603">
        <ele>1261.783393</ele>
        <time>2021-07-08T16:04:21+0200</time>
      </trkpt>
      <trkpt lat="45.07299" lon="2.86034">
        <ele>1263.477388</ele>
        <time>2021-07-08T16:04:23+0200</time>
      </trkpt>
      <trkpt lat="45.07293" lon="2.86041">
        <ele>1263.059491</ele>
        <time>2021-07-08T16:04:25+0200</time>
      </trkpt>
      <trkpt lat="45.0729" lon="2.86046">
        <ele>1262.52987</ele>
        <time>2021-07-08T16:04:26+0200</time>
      </trkpt>
      <trkpt lat="45.07285" lon="2.86053">
        <ele>1262.530818</ele>
        <time>2021-07-08T16:04:28+0200</time>
      </trkpt>
      <trkpt lat="45.07279" lon="2.86061">
        <ele>1260.442538</ele>
        <time>2021-07-08T16:04:30+0200</time>
      </trkpt>
      <trkpt lat="45.07273" lon="2.86067">
        <ele>1260.59924</ele>
        <time>2021-07-08T16:04:32+0200</time>
      </trkpt>
      <trkpt lat="45.07268" lon="2.86072">
        <ele>1260.61337</ele>
        <time>2021-07-08T16:04:34+0200</time>
      </trkpt>
      <trkpt lat="45.07262" lon="2.86078">
        <ele>1259.570583</ele>
        <time>2021-07-08T16:04:36+0200</time>
      </trkpt>
      <trkpt lat="45.07256" lon="2.86086">
        <ele>1260.16579</ele>
        <time>2021-07-08T16:04:38+0200</time>
      </trkpt>
      <trkpt lat="45.07251" lon="2.86092">
        <ele>1257.868342</ele>
        <time>2021-07-08T16:04:40+0200</time>
      </trkpt>
      <trkpt lat="45.07247" lon="2.86097">
        <ele>1257.624694</ele>
        <time>2021-07-08T16:04:42+0200</time>
      </trkpt>
      <trkpt lat="45.07243" lon="2.86102">
        <ele>1257.942808</ele>
        <time>2021-07-08T16:04:44+0200</time>
      </trkpt>
      <trkpt lat="45.07239" lon="2.86105">
        <ele>1259.870803</ele>
        <time>2021-07-08T16:04:46+0200</time>
      </trkpt>
      <trkpt lat="45.07232" lon="2.86113">
        <ele>1262.285003</ele>
        <time>2021-07-08T16:04:48+0200</time>
      </trkpt>
      <trkpt lat="45.07227" lon="2.86121">
        <ele>1262.605566</ele>
        <time>2021-07-08T16:04:50+0200</time>
      </trkpt>
      <trkpt lat="45.07223" lon="2.86127">
        <ele>1264.551809</ele>
        <time>2021-07-08T16:04:52+0200</time>
      </trkpt>
      <trkpt lat="45.07219" lon="2.86133">
        <ele>1266.024627</ele>
        <time>2021-07-08T16:04:54+0200</time>
      </trkpt>
      <trkpt lat="45.07216" lon="2.8614">
        <ele>1267.508837</ele>
        <time>2021-07-08T16:04:56+0200</time>
      </trkpt>
      <trkpt lat="45.07211" lon="2.86147">
        <ele>1267.606376</ele>
        <time>2021-07-08T16:04:58+0200</time>
      </trkpt>
      <trkpt lat="45.07206" lon="2.86153">
        <ele>1268.259081</ele>
        <time>2021-07-08T16:05:00+0200</time>
      </trkpt>
      <trkpt lat="45.07199" lon="2.86159">
        <ele>1269.016615</ele>
        <time>2021-07-08T16:05:02+0200</time>
      </trkpt>
      <trkpt lat="45.07192" lon="2.86166">
        <ele>1270.414899</ele>
        <time>2021-07-08T16:05:04+0200</time>
      </trkpt>
      <trkpt lat="45.07188" lon="2.8617">
        <ele>1269.474771</ele>
        <time>2021-07-08T16:05:05+0200</time>
      </trkpt>
      <trkpt lat="45.07184" lon="2.86174">
        <ele>1270.070643</ele>
        <time>2021-07-08T16:05:06+0200</time>
      </trkpt>
      <trkpt lat="45.07181" lon="2.86179">
        <ele>1269.008661</ele>
        <time>2021-07-08T16:05:07+0200</time>
      </trkpt>
      <trkpt lat="45.07177" lon="2.86182">
        <ele>1269.979737</ele>
        <time>2021-07-08T16:05:08+0200</time>
      </trkpt>
      <trkpt lat="45.0717" lon="2.86192">
        <ele>1268.996705</ele>
        <time>2021-07-08T16:05:10+0200</time>
      </trkpt>
      <trkpt lat="45.07163" lon="2.862">
        <ele>1269.288219</ele>
        <time>2021-07-08T16:05:12+0200</time>
      </trkpt>
      <trkpt lat="45.07157" lon="2.86208">
        <ele>1267.68232</ele>
        <time>2021-07-08T16:05:14+0200</time>
      </trkpt>
      <trkpt lat="45.07153" lon="2.86215">
        <ele>1267.894355</ele>
        <time>2021-07-08T16:05:16+0200</time>
      </trkpt>
      <trkpt lat="45.07148" lon="2.86219">
        <ele>1266.504243</ele>
        <time>2021-07-08T16:05:17+0200</time>
      </trkpt>
      <trkpt lat="45.07143" lon="2.86226">
        <ele>1266.77255</ele>
        <time>2021-07-08T16:05:19+0200</time>
      </trkpt>
      <trkpt lat="45.07138" lon="2.86233">
        <ele>1266.290199</ele>
        <time>2021-07-08T16:05:21+0200</time>
      </trkpt>
      <trkpt lat="45.07133" lon="2.86241">
        <ele>1266.105685</ele>
        <time>2021-07-08T16:05:23+0200</time>
      </trkpt>
      <trkpt lat="45.07127" lon="2.86247">
        <ele>1264.984714</ele>
        <time>2021-07-08T16:05:25+0200</time>
      </trkpt>
      <trkpt lat="45.07123" lon="2.86253">
        <ele>1264.891368</ele>
        <time>2021-07-08T16:05:27+0200</time>
      </trkpt>
      <trkpt lat="45.07118" lon="2.8626">
        <ele>1263.698498</ele>
        <time>2021-07-08T16:05:29+0200</time>
      </trkpt>
      <trkpt lat="45.07116" lon="2.86269">
        <ele>1264.444182</ele>
        <time>2021-07-08T16:05:31+0200</time>
      </trkpt>
      <trkpt lat="45.07118" lon="2.86277">
        <ele>1265.709344</ele>
        <time>2021-07-08T16:05:33+0200</time>
      </trkpt>
      <trkpt lat="45.07123" lon="2.86286">
        <ele>1266.597851</ele>
        <time>2021-07-08T16:05:35+0200</time>
      </trkpt>
      <trkpt lat="45.07128" lon="2.86295">
        <ele>1266.069487</ele>
        <time>2021-07-08T16:05:37+0200</time>
      </trkpt>
      <trkpt lat="45.07133" lon="2.86303">
        <ele>1266.205643</ele>
        <time>2021-07-08T16:05:39+0200</time>
      </trkpt>
      <trkpt lat="45.07138" lon="2.86312">
        <ele>1266.52529</ele>
        <time>2021-07-08T16:05:41+0200</time>
      </trkpt>
      <trkpt lat="45.07141" lon="2.86322">
        <ele>1266.508398</ele>
        <time>2021-07-08T16:05:43+0200</time>
      </trkpt>
      <trkpt lat="45.07144" lon="2.86333">
        <ele>1266.25841</ele>
        <time>2021-07-08T16:05:45+0200</time>
      </trkpt>
      <trkpt lat="45.07147" lon="2.86338">
        <ele>1266.05576</ele>
        <time>2021-07-08T16:05:46+0200</time>
      </trkpt>
      <trkpt lat="45.07148" lon="2.86345">
        <ele>1265.218282</ele>
        <time>2021-07-08T16:05:47+0200</time>
      </trkpt>
      <trkpt lat="45.07148" lon="2.86352">
        <ele>1264.13748</ele>
        <time>2021-07-08T16:05:48+0200</time>
      </trkpt>
      <trkpt lat="45.07148" lon="2.86359">
        <ele>1262.848138</ele>
        <time>2021-07-08T16:05:49+0200</time>
      </trkpt>
      <trkpt lat="45.07145" lon="2.86369">
        <ele>1261.408005</ele>
        <time>2021-07-08T16:05:51+0200</time>
      </trkpt>
      <trkpt lat="45.07138" lon="2.86375">
        <ele>1261.626064</ele>
        <time>2021-07-08T16:05:53+0200</time>
      </trkpt>
      <trkpt lat="45.0713" lon="2.86381">
        <ele>1261.80724</ele>
        <time>2021-07-08T16:05:55+0200</time>
      </trkpt>
      <trkpt lat="45.07126" lon="2.86384">
        <ele>1262.146923</ele>
        <time>2021-07-08T16:05:56+0200</time>
      </trkpt>
      <trkpt lat="45.07122" lon="2.86386">
        <ele>1262.533808</ele>
        <time>2021-07-08T16:05:57+0200</time>
      </trkpt>
      <trkpt lat="45.07115" lon="2.86393">
        <ele>1263.398649</ele>
        <time>2021-07-08T16:05:59+0200</time>
      </trkpt>
      <trkpt lat="45.07108" lon="2.86398">
        <ele>1263.739306</ele>
        <time>2021-07-08T16:06:01+0200</time>
      </trkpt>
      <trkpt lat="45.07101" lon="2.86404">
        <ele>1263.87844</ele>
        <time>2021-07-08T16:06:03+0200</time>
      </trkpt>
      <trkpt lat="45.07094" lon="2.8641">
        <ele>1263.97253</ele>
        <time>2021-07-08T16:06:05+0200</time>
      </trkpt>
      <trkpt lat="45.07087" lon="2.86417">
        <ele>1264.114438</ele>
        <time>2021-07-08T16:06:07+0200</time>
      </trkpt>
      <trkpt lat="45.0708" lon="2.86423">
        <ele>1264.093131</ele>
        <time>2021-07-08T16:06:09+0200</time>
      </trkpt>
      <trkpt lat="45.07073" lon="2.8643">
        <ele>1263.849561</ele>
        <time>2021-07-08T16:06:11+0200</time>
      </trkpt>
      <trkpt lat="45.07066" lon="2.86437">
        <ele>1263.193226</ele>
        <time>2021-07-08T16:06:13+0200</time>
      </trkpt>
      <trkpt lat="45.07061" lon="2.86441">
        <ele>1263.081804</ele>
        <time>2021-07-08T16:06:14+0200</time>
      </trkpt>
      <trkpt lat="45.07057" lon="2.86446">
        <ele>1263.048081</ele>
        <time>2021-07-08T16:06:15+0200</time>
      </trkpt>
      <trkpt lat="45.07053" lon="2.86449">
        <ele>1262.982446</ele>
        <time>2021-07-08T16:06:16+0200</time>
      </trkpt>
      <trkpt lat="45.07048" lon="2.86454">
        <ele>1262.859311</ele>
        <time>2021-07-08T16:06:17+0200</time>
      </trkpt>
      <trkpt lat="45.07044" lon="2.86459">
        <ele>1263.063275</ele>
        <time>2021-07-08T16:06:18+0200</time>
      </trkpt>
      <trkpt lat="45.07039" lon="2.86463">
        <ele>1262.958025</ele>
        <time>2021-07-08T16:06:19+0200</time>
      </trkpt>
      <trkpt lat="45.07034" lon="2.86468">
        <ele>1262.775543</ele>
        <time>2021-07-08T16:06:20+0200</time>
      </trkpt>
      <trkpt lat="45.07029" lon="2.86472">
        <ele>1262.653492</ele>
        <time>2021-07-08T16:06:21+0200</time>
      </trkpt>
      <trkpt lat="45.07024" lon="2.86476">
        <ele>1262.736759</ele>
        <time>2021-07-08T16:06:22+0200</time>
      </trkpt>
      <trkpt lat="45.07018" lon="2.86481">
        <ele>1262.469566</ele>
        <time>2021-07-08T16:06:23+0200</time>
      </trkpt>
      <trkpt lat="45.07013" lon="2.86485">
        <ele>1261.912048</ele>
        <time>2021-07-08T16:06:24+0200</time>
      </trkpt>
      <trkpt lat="45.07008" lon="2.8649">
        <ele>1261.325406</ele>
        <time>2021-07-08T16:06:25+0200</time>
      </trkpt>
      <trkpt lat="45.07003" lon="2.86496">
        <ele>1260.394231</ele>
        <time>2021-07-08T16:06:26+0200</time>
      </trkpt>
      <trkpt lat="45.06997" lon="2.86501">
        <ele>1259.586684</ele>
        <time>2021-07-08T16:06:27+0200</time>
      </trkpt>
      <trkpt lat="45.06991" lon="2.86506">
        <ele>1259.202206</ele>
        <time>2021-07-08T16:06:28+0200</time>
      </trkpt>
      <trkpt lat="45.06984" lon="2.86511">
        <ele>1258.942599</ele>
        <time>2021-07-08T16:06:29+0200</time>
      </trkpt>
      <trkpt lat="45.06978" lon="2.86516">
        <ele>1258.411641</ele>
        <time>2021-07-08T16:06:30+0200</time>
      </trkpt>
      <trkpt lat="45.06972" lon="2.86523">
        <ele>1258.191988</ele>
        <time>2021-07-08T16:06:31+0200</time>
      </trkpt>
      <trkpt lat="45.06965" lon="2.86528">
        <ele>1258.16583</ele>
        <time>2021-07-08T16:06:32+0200</time>
      </trkpt>
      <trkpt lat="45.06959" lon="2.86533">
        <ele>1257.95492</ele>
        <time>2021-07-08T16:06:33+0200</time>
      </trkpt>
      <trkpt lat="45.06953" lon="2.86538">
        <ele>1257.916964</ele>
        <time>2021-07-08T16:06:34+0200</time>
      </trkpt>
      <trkpt lat="45.06946" lon="2.86544">
        <ele>1258.121448</ele>
        <time>2021-07-08T16:06:35+0200</time>
      </trkpt>
      <trkpt lat="45.0694" lon="2.86549">
        <ele>1258.512592</ele>
        <time>2021-07-08T16:06:36+0200</time>
      </trkpt>
      <trkpt lat="45.06934" lon="2.86553">
        <ele>1258.494278</ele>
        <time>2021-07-08T16:06:37+0200</time>
      </trkpt>
      <trkpt lat="45.06929" lon="2.86559">
        <ele>1258.420041</ele>
        <time>2021-07-08T16:06:38+0200</time>
      </trkpt>
      <trkpt lat="45.06923" lon="2.86565">
        <ele>1258.305317</ele>
        <time>2021-07-08T16:06:39+0200</time>
      </trkpt>
      <trkpt lat="45.06917" lon="2.86569">
        <ele>1258.168188</ele>
        <time>2021-07-08T16:06:40+0200</time>
      </trkpt>
      <trkpt lat="45.06911" lon="2.86574">
        <ele>1258.267682</ele>
        <time>2021-07-08T16:06:41+0200</time>
      </trkpt>
      <trkpt lat="45.06905" lon="2.86579">
        <ele>1258.056633</ele>
        <time>2021-07-08T16:06:42+0200</time>
      </trkpt>
      <trkpt lat="45.06899" lon="2.86584">
        <ele>1257.871907</ele>
        <time>2021-07-08T16:06:43+0200</time>
      </trkpt>
      <trkpt lat="45.06893" lon="2.8659">
        <ele>1257.515133</ele>
        <time>2021-07-08T16:06:44+0200</time>
      </trkpt>
      <trkpt lat="45.06888" lon="2.86595">
        <ele>1256.935157</ele>
        <time>2021-07-08T16:06:45+0200</time>
      </trkpt>
      <trkpt lat="45.06882" lon="2.866">
        <ele>1256.736802</ele>
        <time>2021-07-08T16:06:46+0200</time>
      </trkpt>
      <trkpt lat="45.06876" lon="2.86605">
        <ele>1256.277729</ele>
        <time>2021-07-08T16:06:47+0200</time>
      </trkpt>
      <trkpt lat="45.0687" lon="2.8661">
        <ele>1255.521432</ele>
        <time>2021-07-08T16:06:48+0200</time>
      </trkpt>
      <trkpt lat="45.06863" lon="2.86617">
        <ele>1255.126253</ele>
        <time>2021-07-08T16:06:49+0200</time>
      </trkpt>
      <trkpt lat="45.06856" lon="2.86622">
        <ele>1255.196312</ele>
        <time>2021-07-08T16:06:50+0200</time>
      </trkpt>
      <trkpt lat="45.06848" lon="2.86624">
        <ele>1255.458491</ele>
        <time>2021-07-08T16:06:51+0200</time>
      </trkpt>
      <trkpt lat="45.0684" lon="2.86622">
        <ele>1254.87343</ele>
        <time>2021-07-08T16:06:52+0200</time>
      </trkpt>
      <trkpt lat="45.06832" lon="2.86616">
        <ele>1254.649274</ele>
        <time>2021-07-08T16:06:53+0200</time>
      </trkpt>
      <trkpt lat="45.06824" lon="2.86608">
        <ele>1253.993977</ele>
        <time>2021-07-08T16:06:54+0200</time>
      </trkpt>
      <trkpt lat="45.06818" lon="2.86599">
        <ele>1253.702272</ele>
        <time>2021-07-08T16:06:55+0200</time>
      </trkpt>
      <trkpt lat="45.0681" lon="2.86593">
        <ele>1253.057936</ele>
        <time>2021-07-08T16:06:56+0200</time>
      </trkpt>
      <trkpt lat="45.06801" lon="2.86592">
        <ele>1252.559829</ele>
        <time>2021-07-08T16:06:57+0200</time>
      </trkpt>
      <trkpt lat="45.06792" lon="2.8659">
        <ele>1252.077441</ele>
        <time>2021-07-08T16:06:58+0200</time>
      </trkpt>
      <trkpt lat="45.06789" lon="2.86616">
        <ele>1252.24586</ele>
        <time>2021-07-08T16:06:59+0200</time>
      </trkpt>
      <trkpt lat="45.06784" lon="2.86625">
        <ele>1252.184016</ele>
        <time>2021-07-08T16:07:00+0200</time>
      </trkpt>
      <trkpt lat="45.06781" lon="2.86633">
        <ele>1252.822282</ele>
        <time>2021-07-08T16:07:01+0200</time>
      </trkpt>
      <trkpt lat="45.06778" lon="2.86642">
        <ele>1253.389812</ele>
        <time>2021-07-08T16:07:02+0200</time>
      </trkpt>
      <trkpt lat="45.06778" lon="2.86652">
        <ele>1252.734981</ele>
        <time>2021-07-08T16:07:03+0200</time>
      </trkpt>
      <trkpt lat="45.06779" lon="2.86661">
        <ele>1251.80001</ele>
        <time>2021-07-08T16:07:04+0200</time>
      </trkpt>
      <trkpt lat="45.06781" lon="2.86671">
        <ele>1251.709392</ele>
        <time>2021-07-08T16:07:05+0200</time>
      </trkpt>
      <trkpt lat="45.06785" lon="2.8668">
        <ele>1251.114225</ele>
        <time>2021-07-08T16:07:06+0200</time>
      </trkpt>
      <trkpt lat="45.06788" lon="2.8669">
        <ele>1250.450963</ele>
        <time>2021-07-08T16:07:07+0200</time>
      </trkpt>
      <trkpt lat="45.06792" lon="2.86701">
        <ele>1249.571508</ele>
        <time>2021-07-08T16:07:08+0200</time>
      </trkpt>
      <trkpt lat="45.06795" lon="2.86713">
        <ele>1248.60279</ele>
        <time>2021-07-08T16:07:09+0200</time>
      </trkpt>
      <trkpt lat="45.06797" lon="2.86726">
        <ele>1247.687225</ele>
        <time>2021-07-08T16:07:10+0200</time>
      </trkpt>
      <trkpt lat="45.06798" lon="2.86739">
        <ele>1246.735992</ele>
        <time>2021-07-08T16:07:11+0200</time>
      </trkpt>
      <trkpt lat="45.06798" lon="2.86753">
        <ele>1245.775887</ele>
        <time>2021-07-08T16:07:12+0200</time>
      </trkpt>
      <trkpt lat="45.06797" lon="2.86767">
        <ele>1244.971847</ele>
        <time>2021-07-08T16:07:13+0200</time>
      </trkpt>
      <trkpt lat="45.06795" lon="2.86782">
        <ele>1244.188116</ele>
        <time>2021-07-08T16:07:14+0200</time>
      </trkpt>
      <trkpt lat="45.06792" lon="2.86796">
        <ele>1243.437739</ele>
        <time>2021-07-08T16:07:15+0200</time>
      </trkpt>
      <trkpt lat="45.0679" lon="2.8681">
        <ele>1242.732852</ele>
        <time>2021-07-08T16:07:16+0200</time>
      </trkpt>
      <trkpt lat="45.06786" lon="2.86823">
        <ele>1242.21442</ele>
        <time>2021-07-08T16:07:17+0200</time>
      </trkpt>
      <trkpt lat="45.0678" lon="2.86836">
        <ele>1237.641226</ele>
        <time>2021-07-08T16:07:18+0200</time>
      </trkpt>
      <trkpt lat="45.06774" lon="2.86849">
        <ele>1237.631257</ele>
        <time>2021-07-08T16:07:19+0200</time>
      </trkpt>
      <trkpt lat="45.06766" lon="2.86859">
        <ele>1237.157301</ele>
        <time>2021-07-08T16:07:20+0200</time>
      </trkpt>
      <trkpt lat="45.06758" lon="2.86868">
        <ele>1236.891663</ele>
        <time>2021-07-08T16:07:21+0200</time>
      </trkpt>
      <trkpt lat="45.0675" lon="2.86876">
        <ele>1236.052688</ele>
        <time>2021-07-08T16:07:22+0200</time>
      </trkpt>
      <trkpt lat="45.06741" lon="2.86885">
        <ele>1234.76818</ele>
        <time>2021-07-08T16:07:23+0200</time>
      </trkpt>
      <trkpt lat="45.06733" lon="2.86893">
        <ele>1234.227965</ele>
        <time>2021-07-08T16:07:24+0200</time>
      </trkpt>
      <trkpt lat="45.06724" lon="2.86901">
        <ele>1233.867831</ele>
        <time>2021-07-08T16:07:25+0200</time>
      </trkpt>
      <trkpt lat="45.06715" lon="2.86908">
        <ele>1232.535623</ele>
        <time>2021-07-08T16:07:26+0200</time>
      </trkpt>
      <trkpt lat="45.06709" lon="2.86912">
        <ele>1231.921507</ele>
        <time>2021-07-08T16:07:27+0200</time>
      </trkpt>
      <trkpt lat="45.06705" lon="2.86916">
        <ele>1231.863764</ele>
        <time>2021-07-08T16:07:28+0200</time>
      </trkpt>
      <trkpt lat="45.067" lon="2.8692">
        <ele>1231.395809</ele>
        <time>2021-07-08T16:07:29+0200</time>
      </trkpt>
      <trkpt lat="45.06699" lon="2.86926">
        <ele>1230.961017</ele>
        <time>2021-07-08T16:07:30+0200</time>
      </trkpt>
      <trkpt lat="45.06701" lon="2.86932">
        <ele>1230.808594</ele>
        <time>2021-07-08T16:07:31+0200</time>
      </trkpt>
      <trkpt lat="45.06704" lon="2.86938">
        <ele>1231.690993</ele>
        <time>2021-07-08T16:07:32+0200</time>
      </trkpt>
      <trkpt lat="45.06708" lon="2.86942">
        <ele>1233.020755</ele>
        <time>2021-07-08T16:07:33+0200</time>
      </trkpt>
      <trkpt lat="45.06712" lon="2.86945">
        <ele>1232.742072</ele>
        <time>2021-07-08T16:07:34+0200</time>
      </trkpt>
      <trkpt lat="45.06718" lon="2.86951">
        <ele>1231.937231</ele>
        <time>2021-07-08T16:07:36+0200</time>
      </trkpt>
      <trkpt lat="45.06723" lon="2.86956">
        <ele>1232.349882</ele>
        <time>2021-07-08T16:07:38+0200</time>
      </trkpt>
      <trkpt lat="45.06729" lon="2.8696">
        <ele>1232.515943</ele>
        <time>2021-07-08T16:07:40+0200</time>
      </trkpt>
      <trkpt lat="45.06734" lon="2.86962">
        <ele>1233.299406</ele>
        <time>2021-07-08T16:07:42+0200</time>
      </trkpt>
      <trkpt lat="45.0674" lon="2.86968">
        <ele>1233.073857</ele>
        <time>2021-07-08T16:07:44+0200</time>
      </trkpt>
      <trkpt lat="45.06747" lon="2.86975">
        <ele>1232.75337</ele>
        <time>2021-07-08T16:07:46+0200</time>
      </trkpt>
      <trkpt lat="45.06753" lon="2.86982">
        <ele>1232.950385</ele>
        <time>2021-07-08T16:07:48+0200</time>
      </trkpt>
      <trkpt lat="45.06759" lon="2.86989">
        <ele>1232.862948</ele>
        <time>2021-07-08T16:07:50+0200</time>
      </trkpt>
      <trkpt lat="45.06766" lon="2.86995">
        <ele>1232.418143</ele>
        <time>2021-07-08T16:07:52+0200</time>
      </trkpt>
      <trkpt lat="45.06774" lon="2.87002">
        <ele>1232.212783</ele>
        <time>2021-07-08T16:07:54+0200</time>
      </trkpt>
      <trkpt lat="45.06781" lon="2.87008">
        <ele>1231.601528</ele>
        <time>2021-07-08T16:07:56+0200</time>
      </trkpt>
      <trkpt lat="45.06788" lon="2.87015">
        <ele>1231.321658</ele>
        <time>2021-07-08T16:07:58+0200</time>
      </trkpt>
      <trkpt lat="45.06792" lon="2.87018">
        <ele>1231.168501</ele>
        <time>2021-07-08T16:07:59+0200</time>
      </trkpt>
      <trkpt lat="45.06796" lon="2.87022">
        <ele>1231.130099</ele>
        <time>2021-07-08T16:08:00+0200</time>
      </trkpt>
      <trkpt lat="45.068" lon="2.87026">
        <ele>1230.789824</ele>
        <time>2021-07-08T16:08:01+0200</time>
      </trkpt>
      <trkpt lat="45.06804" lon="2.87029">
        <ele>1230.437301</ele>
        <time>2021-07-08T16:08:02+0200</time>
      </trkpt>
      <trkpt lat="45.06808" lon="2.87033">
        <ele>1230.655638</ele>
        <time>2021-07-08T16:08:03+0200</time>
      </trkpt>
      <trkpt lat="45.06811" lon="2.87037">
        <ele>1230.560079</ele>
        <time>2021-07-08T16:08:04+0200</time>
      </trkpt>
      <trkpt lat="45.06815" lon="2.87041">
        <ele>1230.505742</ele>
        <time>2021-07-08T16:08:05+0200</time>
      </trkpt>
      <trkpt lat="45.06819" lon="2.87045">
        <ele>1229.956475</ele>
        <time>2021-07-08T16:08:06+0200</time>
      </trkpt>
      <trkpt lat="45.06827" lon="2.87053">
        <ele>1230.44442</ele>
        <time>2021-07-08T16:08:08+0200</time>
      </trkpt>
      <trkpt lat="45.06831" lon="2.87057">
        <ele>1230.655041</ele>
        <time>2021-07-08T16:08:09+0200</time>
      </trkpt>
      <trkpt lat="45.06835" lon="2.87061">
        <ele>1230.00711</ele>
        <time>2021-07-08T16:08:10+0200</time>
      </trkpt>
      <trkpt lat="45.06838" lon="2.87066">
        <ele>1230.080619</ele>
        <time>2021-07-08T16:08:11+0200</time>
      </trkpt>
      <trkpt lat="45.06841" lon="2.87073">
        <ele>1229.599221</ele>
        <time>2021-07-08T16:08:12+0200</time>
      </trkpt>
      <trkpt lat="45.06845" lon="2.87079">
        <ele>1229.265412</ele>
        <time>2021-07-08T16:08:13+0200</time>
      </trkpt>
      <trkpt lat="45.06848" lon="2.87086">
        <ele>1229.023224</ele>
        <time>2021-07-08T16:08:14+0200</time>
      </trkpt>
      <trkpt lat="45.06851" lon="2.87093">
        <ele>1228.480281</ele>
        <time>2021-07-08T16:08:15+0200</time>
      </trkpt>
      <trkpt lat="45.06854" lon="2.871">
        <ele>1229.049879</ele>
        <time>2021-07-08T16:08:16+0200</time>
      </trkpt>
      <trkpt lat="45.06856" lon="2.87108">
        <ele>1228.86993</ele>
        <time>2021-07-08T16:08:17+0200</time>
      </trkpt>
      <trkpt lat="45.06857" lon="2.87117">
        <ele>1228.203486</ele>
        <time>2021-07-08T16:08:18+0200</time>
      </trkpt>
      <trkpt lat="45.06858" lon="2.87126">
        <ele>1227.694246</ele>
        <time>2021-07-08T16:08:19+0200</time>
      </trkpt>
      <trkpt lat="45.06859" lon="2.87135">
        <ele>1227.220263</ele>
        <time>2021-07-08T16:08:20+0200</time>
      </trkpt>
      <trkpt lat="45.0686" lon="2.87144">
        <ele>1227.30771</ele>
        <time>2021-07-08T16:08:21+0200</time>
      </trkpt>
      <trkpt lat="45.06861" lon="2.87154">
        <ele>1226.855807</ele>
        <time>2021-07-08T16:08:22+0200</time>
      </trkpt>
      <trkpt lat="45.06862" lon="2.87164">
        <ele>1226.905264</ele>
        <time>2021-07-08T16:08:23+0200</time>
      </trkpt>
      <trkpt lat="45.06864" lon="2.87174">
        <ele>1226.672458</ele>
        <time>2021-07-08T16:08:24+0200</time>
      </trkpt>
      <trkpt lat="45.06865" lon="2.87185">
        <ele>1226.092807</ele>
        <time>2021-07-08T16:08:25+0200</time>
      </trkpt>
      <trkpt lat="45.06866" lon="2.87196">
        <ele>1225.812518</ele>
        <time>2021-07-08T16:08:26+0200</time>
      </trkpt>
      <trkpt lat="45.06867" lon="2.87209">
        <ele>1224.904955</ele>
        <time>2021-07-08T16:08:27+0200</time>
      </trkpt>
      <trkpt lat="45.06868" lon="2.8722">
        <ele>1225.200804</ele>
        <time>2021-07-08T16:08:28+0200</time>
      </trkpt>
      <trkpt lat="45.06868" lon="2.87232">
        <ele>1224.748424</ele>
        <time>2021-07-08T16:08:29+0200</time>
      </trkpt>
      <trkpt lat="45.06867" lon="2.87243">
        <ele>1224.597662</ele>
        <time>2021-07-08T16:08:30+0200</time>
      </trkpt>
      <trkpt lat="45.06865" lon="2.87255">
        <ele>1223.928699</ele>
        <time>2021-07-08T16:08:31+0200</time>
      </trkpt>
      <trkpt lat="45.06864" lon="2.87268">
        <ele>1223.990916</ele>
        <time>2021-07-08T16:08:32+0200</time>
      </trkpt>
      <trkpt lat="45.06863" lon="2.8728">
        <ele>1223.97588</ele>
        <time>2021-07-08T16:08:33+0200</time>
      </trkpt>
      <trkpt lat="45.06862" lon="2.87292">
        <ele>1224.972013</ele>
        <time>2021-07-08T16:08:34+0200</time>
      </trkpt>
      <trkpt lat="45.06862" lon="2.87305">
        <ele>1225.155322</ele>
        <time>2021-07-08T16:08:35+0200</time>
      </trkpt>
      <trkpt lat="45.0686" lon="2.87316">
        <ele>1225.132471</ele>
        <time>2021-07-08T16:08:36+0200</time>
      </trkpt>
      <trkpt lat="45.06859" lon="2.87328">
        <ele>1225.163851</ele>
        <time>2021-07-08T16:08:37+0200</time>
      </trkpt>
      <trkpt lat="45.06858" lon="2.87341">
        <ele>1225.069445</ele>
        <time>2021-07-08T16:08:38+0200</time>
      </trkpt>
      <trkpt lat="45.06857" lon="2.87354">
        <ele>1225.151513</ele>
        <time>2021-07-08T16:08:39+0200</time>
      </trkpt>
      <trkpt lat="45.06856" lon="2.87366">
        <ele>1225.130129</ele>
        <time>2021-07-08T16:08:40+0200</time>
      </trkpt>
      <trkpt lat="45.06856" lon="2.87378">
        <ele>1225.255488</ele>
        <time>2021-07-08T16:08:41+0200</time>
      </trkpt>
      <trkpt lat="45.06856" lon="2.8739">
        <ele>1225.628955</ele>
        <time>2021-07-08T16:08:42+0200</time>
      </trkpt>
      <trkpt lat="45.06857" lon="2.87402">
        <ele>1225.20722</ele>
        <time>2021-07-08T16:08:43+0200</time>
      </trkpt>
      <trkpt lat="45.06857" lon="2.87414">
        <ele>1224.8977</ele>
        <time>2021-07-08T16:08:44+0200</time>
      </trkpt>
      <trkpt lat="45.06858" lon="2.87425">
        <ele>1224.339702</ele>
        <time>2021-07-08T16:08:45+0200</time>
      </trkpt>
      <trkpt lat="45.06859" lon="2.87437">
        <ele>1224.235307</ele>
        <time>2021-07-08T16:08:46+0200</time>
      </trkpt>
      <trkpt lat="45.06859" lon="2.87448">
        <ele>1223.947714</ele>
        <time>2021-07-08T16:08:47+0200</time>
      </trkpt>
      <trkpt lat="45.0686" lon="2.87459">
        <ele>1224.052669</ele>
        <time>2021-07-08T16:08:48+0200</time>
      </trkpt>
      <trkpt lat="45.0686" lon="2.87471">
        <ele>1224.73477</ele>
        <time>2021-07-08T16:08:49+0200</time>
      </trkpt>
      <trkpt lat="45.06859" lon="2.87482">
        <ele>1225.051823</ele>
        <time>2021-07-08T16:08:50+0200</time>
      </trkpt>
      <trkpt lat="45.06859" lon="2.87492">
        <ele>1225.486256</ele>
        <time>2021-07-08T16:08:51+0200</time>
      </trkpt>
      <trkpt lat="45.06859" lon="2.87502">
        <ele>1225.59605</ele>
        <time>2021-07-08T16:08:52+0200</time>
      </trkpt>
      <trkpt lat="45.06859" lon="2.87512">
        <ele>1225.661377</ele>
        <time>2021-07-08T16:08:53+0200</time>
      </trkpt>
      <trkpt lat="45.06858" lon="2.87521">
        <ele>1225.697643</ele>
        <time>2021-07-08T16:08:54+0200</time>
      </trkpt>
      <trkpt lat="45.06858" lon="2.8753">
        <ele>1225.869473</ele>
        <time>2021-07-08T16:08:55+0200</time>
      </trkpt>
      <trkpt lat="45.06858" lon="2.87539">
        <ele>1225.821703</ele>
        <time>2021-07-08T16:08:56+0200</time>
      </trkpt>
      <trkpt lat="45.06858" lon="2.87548">
        <ele>1226.009904</ele>
        <time>2021-07-08T16:08:57+0200</time>
      </trkpt>
      <trkpt lat="45.06858" lon="2.87556">
        <ele>1225.869273</ele>
        <time>2021-07-08T16:08:58+0200</time>
      </trkpt>
      <trkpt lat="45.06858" lon="2.87564">
        <ele>1225.919307</ele>
        <time>2021-07-08T16:08:59+0200</time>
      </trkpt>
      <trkpt lat="45.06858" lon="2.87573">
        <ele>1226.045769</ele>
        <time>2021-07-08T16:09:00+0200</time>
      </trkpt>
      <trkpt lat="45.06858" lon="2.87581">
        <ele>1225.985948</ele>
        <time>2021-07-08T16:09:01+0200</time>
      </trkpt>
      <trkpt lat="45.06859" lon="2.87589">
        <ele>1226.815361</ele>
        <time>2021-07-08T16:09:02+0200</time>
      </trkpt>
      <trkpt lat="45.06858" lon="2.87597">
        <ele>1226.994161</ele>
        <time>2021-07-08T16:09:03+0200</time>
      </trkpt>
      <trkpt lat="45.06858" lon="2.87606">
        <ele>1227.083017</ele>
        <time>2021-07-08T16:09:04+0200</time>
      </trkpt>
      <trkpt lat="45.06857" lon="2.87613">
        <ele>1227.420315</ele>
        <time>2021-07-08T16:09:05+0200</time>
      </trkpt>
      <trkpt lat="45.06857" lon="2.87621">
        <ele>1227.458773</ele>
        <time>2021-07-08T16:09:06+0200</time>
      </trkpt>
      <trkpt lat="45.06856" lon="2.87629">
        <ele>1226.492456</ele>
        <time>2021-07-08T16:09:07+0200</time>
      </trkpt>
      <trkpt lat="45.06856" lon="2.87637">
        <ele>1226.310303</ele>
        <time>2021-07-08T16:09:08+0200</time>
      </trkpt>
      <trkpt lat="45.06855" lon="2.87644">
        <ele>1226.292267</ele>
        <time>2021-07-08T16:09:09+0200</time>
      </trkpt>
      <trkpt lat="45.06853" lon="2.87652">
        <ele>1226.25825</ele>
        <time>2021-07-08T16:09:10+0200</time>
      </trkpt>
      <trkpt lat="45.06852" lon="2.8766">
        <ele>1226.28455</ele>
        <time>2021-07-08T16:09:11+0200</time>
      </trkpt>
      <trkpt lat="45.0685" lon="2.87668">
        <ele>1226.307298</ele>
        <time>2021-07-08T16:09:12+0200</time>
      </trkpt>
      <trkpt lat="45.06848" lon="2.87677">
        <ele>1226.221917</ele>
        <time>2021-07-08T16:09:13+0200</time>
      </trkpt>
      <trkpt lat="45.06847" lon="2.87685">
        <ele>1226.441566</ele>
        <time>2021-07-08T16:09:14+0200</time>
      </trkpt>
      <trkpt lat="45.06845" lon="2.87693">
        <ele>1226.356171</ele>
        <time>2021-07-08T16:09:15+0200</time>
      </trkpt>
      <trkpt lat="45.06843" lon="2.87702">
        <ele>1226.566561</ele>
        <time>2021-07-08T16:09:16+0200</time>
      </trkpt>
      <trkpt lat="45.06841" lon="2.87709">
        <ele>1226.790765</ele>
        <time>2021-07-08T16:09:17+0200</time>
      </trkpt>
      <trkpt lat="45.06838" lon="2.87716">
        <ele>1226.701321</ele>
        <time>2021-07-08T16:09:18+0200</time>
      </trkpt>
      <trkpt lat="45.06836" lon="2.87723">
        <ele>1226.507515</ele>
        <time>2021-07-08T16:09:19+0200</time>
      </trkpt>
      <trkpt lat="45.06835" lon="2.8773">
        <ele>1226.266947</ele>
        <time>2021-07-08T16:09:20+0200</time>
      </trkpt>
      <trkpt lat="45.06833" lon="2.87738">
        <ele>1226.263902</ele>
        <time>2021-07-08T16:09:21+0200</time>
      </trkpt>
      <trkpt lat="45.06831" lon="2.87745">
        <ele>1225.993707</ele>
        <time>2021-07-08T16:09:22+0200</time>
      </trkpt>
      <trkpt lat="45.0683" lon="2.87753">
        <ele>1225.842929</ele>
        <time>2021-07-08T16:09:23+0200</time>
      </trkpt>
      <trkpt lat="45.06829" lon="2.87761">
        <ele>1225.73971</ele>
        <time>2021-07-08T16:09:24+0200</time>
      </trkpt>
      <trkpt lat="45.06827" lon="2.87769">
        <ele>1225.893781</ele>
        <time>2021-07-08T16:09:25+0200</time>
      </trkpt>
      <trkpt lat="45.06826" lon="2.87776">
        <ele>1225.616136</ele>
        <time>2021-07-08T16:09:26+0200</time>
      </trkpt>
      <trkpt lat="45.06824" lon="2.87784">
        <ele>1225.394571</ele>
        <time>2021-07-08T16:09:27+0200</time>
      </trkpt>
      <trkpt lat="45.06823" lon="2.87792">
        <ele>1224.914313</ele>
        <time>2021-07-08T16:09:28+0200</time>
      </trkpt>
      <trkpt lat="45.06821" lon="2.878">
        <ele>1224.866134</ele>
        <time>2021-07-08T16:09:29+0200</time>
      </trkpt>
      <trkpt lat="45.06819" lon="2.87809">
        <ele>1224.859767</ele>
        <time>2021-07-08T16:09:30+0200</time>
      </trkpt>
      <trkpt lat="45.06817" lon="2.87817">
        <ele>1224.62072</ele>
        <time>2021-07-08T16:09:31+0200</time>
      </trkpt>
      <trkpt lat="45.06815" lon="2.87826">
        <ele>1224.530327</ele>
        <time>2021-07-08T16:09:32+0200</time>
      </trkpt>
      <trkpt lat="45.06813" lon="2.87835">
        <ele>1224.122282</ele>
        <time>2021-07-08T16:09:33+0200</time>
      </trkpt>
      <trkpt lat="45.06811" lon="2.87845">
        <ele>1223.695295</ele>
        <time>2021-07-08T16:09:34+0200</time>
      </trkpt>
      <trkpt lat="45.06809" lon="2.87854">
        <ele>1223.243692</ele>
        <time>2021-07-08T16:09:35+0200</time>
      </trkpt>
      <trkpt lat="45.06807" lon="2.87864">
        <ele>1223.191183</ele>
        <time>2021-07-08T16:09:36+0200</time>
      </trkpt>
      <trkpt lat="45.06805" lon="2.87873">
        <ele>1222.791766</ele>
        <time>2021-07-08T16:09:37+0200</time>
      </trkpt>
      <trkpt lat="45.06804" lon="2.87883">
        <ele>1222.794633</ele>
        <time>2021-07-08T16:09:38+0200</time>
      </trkpt>
      <trkpt lat="45.06802" lon="2.87894">
        <ele>1222.8795</ele>
        <time>2021-07-08T16:09:39+0200</time>
      </trkpt>
      <trkpt lat="45.06799" lon="2.87904">
        <ele>1222.078526</ele>
        <time>2021-07-08T16:09:40+0200</time>
      </trkpt>
      <trkpt lat="45.06797" lon="2.87915">
        <ele>1221.469368</ele>
        <time>2021-07-08T16:09:41+0200</time>
      </trkpt>
      <trkpt lat="45.06795" lon="2.87927">
        <ele>1220.548757</ele>
        <time>2021-07-08T16:09:42+0200</time>
      </trkpt>
      <trkpt lat="45.06792" lon="2.87939">
        <ele>1220.237319</ele>
        <time>2021-07-08T16:09:43+0200</time>
      </trkpt>
      <trkpt lat="45.0679" lon="2.8795">
        <ele>1219.781668</ele>
        <time>2021-07-08T16:09:44+0200</time>
      </trkpt>
      <trkpt lat="45.06787" lon="2.87962">
        <ele>1219.156274</ele>
        <time>2021-07-08T16:09:45+0200</time>
      </trkpt>
      <trkpt lat="45.06784" lon="2.87973">
        <ele>1218.805336</ele>
        <time>2021-07-08T16:09:46+0200</time>
      </trkpt>
      <trkpt lat="45.06781" lon="2.87984">
        <ele>1218.914999</ele>
        <time>2021-07-08T16:09:47+0200</time>
      </trkpt>
      <trkpt lat="45.06778" lon="2.87996">
        <ele>1218.129192</ele>
        <time>2021-07-08T16:09:48+0200</time>
      </trkpt>
      <trkpt lat="45.06774" lon="2.88008">
        <ele>1217.908224</ele>
        <time>2021-07-08T16:09:49+0200</time>
      </trkpt>
      <trkpt lat="45.06771" lon="2.88019">
        <ele>1217.73865</ele>
        <time>2021-07-08T16:09:50+0200</time>
      </trkpt>
      <trkpt lat="45.06767" lon="2.88031">
        <ele>1217.286388</ele>
        <time>2021-07-08T16:09:51+0200</time>
      </trkpt>
      <trkpt lat="45.06763" lon="2.88043">
        <ele>1216.834837</ele>
        <time>2021-07-08T16:09:52+0200</time>
      </trkpt>
      <trkpt lat="45.0676" lon="2.88055">
        <ele>1216.127175</ele>
        <time>2021-07-08T16:09:53+0200</time>
      </trkpt>
      <trkpt lat="45.06756" lon="2.88066">
        <ele>1215.627583</ele>
        <time>2021-07-08T16:09:54+0200</time>
      </trkpt>
      <trkpt lat="45.06752" lon="2.88079">
        <ele>1214.94535</ele>
        <time>2021-07-08T16:09:55+0200</time>
      </trkpt>
      <trkpt lat="45.06749" lon="2.88091">
        <ele>1214.150662</ele>
        <time>2021-07-08T16:09:56+0200</time>
      </trkpt>
      <trkpt lat="45.06746" lon="2.88103">
        <ele>1213.666856</ele>
        <time>2021-07-08T16:09:57+0200</time>
      </trkpt>
      <trkpt lat="45.06744" lon="2.88116">
        <ele>1212.718516</ele>
        <time>2021-07-08T16:09:58+0200</time>
      </trkpt>
      <trkpt lat="45.06743" lon="2.88131">
        <ele>1211.850469</ele>
        <time>2021-07-08T16:09:59+0200</time>
      </trkpt>
      <trkpt lat="45.06743" lon="2.88145">
        <ele>1211.198181</ele>
        <time>2021-07-08T16:10:00+0200</time>
      </trkpt>
      <trkpt lat="45.06743" lon="2.8816">
        <ele>1210.185011</ele>
        <time>2021-07-08T16:10:01+0200</time>
      </trkpt>
      <trkpt lat="45.06744" lon="2.88175">
        <ele>1209.008107</ele>
        <time>2021-07-08T16:10:02+0200</time>
      </trkpt>
      <trkpt lat="45.06745" lon="2.8819">
        <ele>1207.420373</ele>
        <time>2021-07-08T16:10:03+0200</time>
      </trkpt>
      <trkpt lat="45.06746" lon="2.88206">
        <ele>1206.132182</ele>
        <time>2021-07-08T16:10:04+0200</time>
      </trkpt>
      <trkpt lat="45.06747" lon="2.88224">
        <ele>1204.455633</ele>
        <time>2021-07-08T16:10:05+0200</time>
      </trkpt>
      <trkpt lat="45.0675" lon="2.88242">
        <ele>1202.335766</ele>
        <time>2021-07-08T16:10:06+0200</time>
      </trkpt>
      <trkpt lat="45.06752" lon="2.88261">
        <ele>1200.17169</ele>
        <time>2021-07-08T16:10:07+0200</time>
      </trkpt>
      <trkpt lat="45.06754" lon="2.8828">
        <ele>1198.08922</ele>
        <time>2021-07-08T16:10:08+0200</time>
      </trkpt>
      <trkpt lat="45.06756" lon="2.88298">
        <ele>1196.506176</ele>
        <time>2021-07-08T16:10:09+0200</time>
      </trkpt>
      <trkpt lat="45.06758" lon="2.88316">
        <ele>1195.315614</ele>
        <time>2021-07-08T16:10:10+0200</time>
      </trkpt>
      <trkpt lat="45.06758" lon="2.88334">
        <ele>1193.854588</ele>
        <time>2021-07-08T16:10:11+0200</time>
      </trkpt>
      <trkpt lat="45.06757" lon="2.88352">
        <ele>1192.932457</ele>
        <time>2021-07-08T16:10:12+0200</time>
      </trkpt>
      <trkpt lat="45.06753" lon="2.88371">
        <ele>1192.150203</ele>
        <time>2021-07-08T16:10:13+0200</time>
      </trkpt>
      <trkpt lat="45.06748" lon="2.88388">
        <ele>1191.165482</ele>
        <time>2021-07-08T16:10:14+0200</time>
      </trkpt>
      <trkpt lat="45.06741" lon="2.88404">
        <ele>1190.532411</ele>
        <time>2021-07-08T16:10:15+0200</time>
      </trkpt>
      <trkpt lat="45.06737" lon="2.88421">
        <ele>1189.861753</ele>
        <time>2021-07-08T16:10:16+0200</time>
      </trkpt>
      <trkpt lat="45.06733" lon="2.88437">
        <ele>1188.817189</ele>
        <time>2021-07-08T16:10:17+0200</time>
      </trkpt>
      <trkpt lat="45.06727" lon="2.88454">
        <ele>1187.724715</ele>
        <time>2021-07-08T16:10:18+0200</time>
      </trkpt>
      <trkpt lat="45.0672" lon="2.88467">
        <ele>1187.254199</ele>
        <time>2021-07-08T16:10:19+0200</time>
      </trkpt>
      <trkpt lat="45.06711" lon="2.8848">
        <ele>1187.357942</ele>
        <time>2021-07-08T16:10:20+0200</time>
      </trkpt>
      <trkpt lat="45.06702" lon="2.88491">
        <ele>1186.891109</ele>
        <time>2021-07-08T16:10:21+0200</time>
      </trkpt>
      <trkpt lat="45.06691" lon="2.88498">
        <ele>1186.577612</ele>
        <time>2021-07-08T16:10:22+0200</time>
      </trkpt>
      <trkpt lat="45.06681" lon="2.88506">
        <ele>1186.29632</ele>
        <time>2021-07-08T16:10:23+0200</time>
      </trkpt>
      <trkpt lat="45.06672" lon="2.88513">
        <ele>1186.020988</ele>
        <time>2021-07-08T16:10:24+0200</time>
      </trkpt>
      <trkpt lat="45.06665" lon="2.88525">
        <ele>1185.602729</ele>
        <time>2021-07-08T16:10:25+0200</time>
      </trkpt>
      <trkpt lat="45.06664" lon="2.88538">
        <ele>1186.74748</ele>
        <time>2021-07-08T16:10:26+0200</time>
      </trkpt>
      <trkpt lat="45.06663" lon="2.88551">
        <ele>1186.42302</ele>
        <time>2021-07-08T16:10:27+0200</time>
      </trkpt>
      <trkpt lat="45.06665" lon="2.88562">
        <ele>1186.722865</ele>
        <time>2021-07-08T16:10:28+0200</time>
      </trkpt>
      <trkpt lat="45.06667" lon="2.88574">
        <ele>1186.471592</ele>
        <time>2021-07-08T16:10:29+0200</time>
      </trkpt>
      <trkpt lat="45.06668" lon="2.88586">
        <ele>1186.183987</ele>
        <time>2021-07-08T16:10:30+0200</time>
      </trkpt>
      <trkpt lat="45.06668" lon="2.88597">
        <ele>1185.728059</ele>
        <time>2021-07-08T16:10:31+0200</time>
      </trkpt>
      <trkpt lat="45.06668" lon="2.88609">
        <ele>1185.261859</ele>
        <time>2021-07-08T16:10:32+0200</time>
      </trkpt>
      <trkpt lat="45.06668" lon="2.88621">
        <ele>1184.72663</ele>
        <time>2021-07-08T16:10:33+0200</time>
      </trkpt>
      <trkpt lat="45.06669" lon="2.88634">
        <ele>1184.068146</ele>
        <time>2021-07-08T16:10:34+0200</time>
      </trkpt>
      <trkpt lat="45.06671" lon="2.88646">
        <ele>1183.262144</ele>
        <time>2021-07-08T16:10:35+0200</time>
      </trkpt>
      <trkpt lat="45.06674" lon="2.88659">
        <ele>1182.513674</ele>
        <time>2021-07-08T16:10:36+0200</time>
      </trkpt>
      <trkpt lat="45.06678" lon="2.88673">
        <ele>1181.63383</ele>
        <time>2021-07-08T16:10:37+0200</time>
      </trkpt>
      <trkpt lat="45.06681" lon="2.88687">
        <ele>1180.821625</ele>
        <time>2021-07-08T16:10:38+0200</time>
      </trkpt>
      <trkpt lat="45.06685" lon="2.887">
        <ele>1180.190929</ele>
        <time>2021-07-08T16:10:39+0200</time>
      </trkpt>
      <trkpt lat="45.06689" lon="2.88713">
        <ele>1179.860829</ele>
        <time>2021-07-08T16:10:40+0200</time>
      </trkpt>
      <trkpt lat="45.06692" lon="2.88726">
        <ele>1179.485616</ele>
        <time>2021-07-08T16:10:41+0200</time>
      </trkpt>
      <trkpt lat="45.06696" lon="2.88739">
        <ele>1178.974409</ele>
        <time>2021-07-08T16:10:42+0200</time>
      </trkpt>
      <trkpt lat="45.06699" lon="2.88752">
        <ele>1178.389505</ele>
        <time>2021-07-08T16:10:43+0200</time>
      </trkpt>
      <trkpt lat="45.06703" lon="2.88766">
        <ele>1177.793034</ele>
        <time>2021-07-08T16:10:44+0200</time>
      </trkpt>
      <trkpt lat="45.06706" lon="2.88779">
        <ele>1177.364773</ele>
        <time>2021-07-08T16:10:45+0200</time>
      </trkpt>
      <trkpt lat="45.06711" lon="2.88792">
        <ele>1175.114263</ele>
        <time>2021-07-08T16:10:46+0200</time>
      </trkpt>
      <trkpt lat="45.06714" lon="2.88805">
        <ele>1174.696926</ele>
        <time>2021-07-08T16:10:47+0200</time>
      </trkpt>
      <trkpt lat="45.06717" lon="2.88818">
        <ele>1174.314928</ele>
        <time>2021-07-08T16:10:48+0200</time>
      </trkpt>
      <trkpt lat="45.0672" lon="2.8883">
        <ele>1173.906949</ele>
        <time>2021-07-08T16:10:49+0200</time>
      </trkpt>
      <trkpt lat="45.06723" lon="2.88842">
        <ele>1173.812206</ele>
        <time>2021-07-08T16:10:50+0200</time>
      </trkpt>
      <trkpt lat="45.06726" lon="2.88855">
        <ele>1173.464885</ele>
        <time>2021-07-08T16:10:51+0200</time>
      </trkpt>
      <trkpt lat="45.0673" lon="2.88867">
        <ele>1173.261441</ele>
        <time>2021-07-08T16:10:52+0200</time>
      </trkpt>
      <trkpt lat="45.06732" lon="2.88878">
        <ele>1173.409767</ele>
        <time>2021-07-08T16:10:53+0200</time>
      </trkpt>
      <trkpt lat="45.06735" lon="2.8889">
        <ele>1172.641564</ele>
        <time>2021-07-08T16:10:54+0200</time>
      </trkpt>
      <trkpt lat="45.06738" lon="2.889">
        <ele>1172.210763</ele>
        <time>2021-07-08T16:10:55+0200</time>
      </trkpt>
      <trkpt lat="45.06739" lon="2.88908">
        <ele>1171.731678</ele>
        <time>2021-07-08T16:10:56+0200</time>
      </trkpt>
      <trkpt lat="45.0674" lon="2.88918">
        <ele>1170.76217</ele>
        <time>2021-07-08T16:10:57+0200</time>
      </trkpt>
      <trkpt lat="45.06742" lon="2.88928">
        <ele>1171.212472</ele>
        <time>2021-07-08T16:10:58+0200</time>
      </trkpt>
      <trkpt lat="45.06746" lon="2.88937">
        <ele>1172.045256</ele>
        <time>2021-07-08T16:10:59+0200</time>
      </trkpt>
      <trkpt lat="45.06751" lon="2.88943">
        <ele>1173.114373</ele>
        <time>2021-07-08T16:11:00+0200</time>
      </trkpt>
      <trkpt lat="45.06756" lon="2.88946">
        <ele>1174.163171</ele>
        <time>2021-07-08T16:11:01+0200</time>
      </trkpt>
      <trkpt lat="45.06764" lon="2.8895">
        <ele>1175.43361</ele>
        <time>2021-07-08T16:11:03+0200</time>
      </trkpt>
      <trkpt lat="45.06772" lon="2.88952">
        <ele>1175.378311</ele>
        <time>2021-07-08T16:11:05+0200</time>
      </trkpt>
      <trkpt lat="45.06778" lon="2.88952">
        <ele>1175.965358</ele>
        <time>2021-07-08T16:11:07+0200</time>
      </trkpt>
      <trkpt lat="45.06784" lon="2.88952">
        <ele>1176.801042</ele>
        <time>2021-07-08T16:11:09+0200</time>
      </trkpt>
      <trkpt lat="45.0679" lon="2.88951">
        <ele>1177.587375</ele>
        <time>2021-07-08T16:11:12+0200</time>
      </trkpt>
      <trkpt lat="45.06795" lon="2.88947">
        <ele>1178.388551</ele>
        <time>2021-07-08T16:11:14+0200</time>
      </trkpt>
      <trkpt lat="45.068" lon="2.88944">
        <ele>1179.144734</ele>
        <time>2021-07-08T16:11:16+0200</time>
      </trkpt>
      <trkpt lat="45.06804" lon="2.8894">
        <ele>1179.5876</ele>
        <time>2021-07-08T16:11:18+0200</time>
      </trkpt>
      <trkpt lat="45.06808" lon="2.88936">
        <ele>1180.418026</ele>
        <time>2021-07-08T16:11:20+0200</time>
      </trkpt>
      <trkpt lat="45.06812" lon="2.88932">
        <ele>1180.931457</ele>
        <time>2021-07-08T16:11:22+0200</time>
      </trkpt>
      <trkpt lat="45.06816" lon="2.88928">
        <ele>1181.252264</ele>
        <time>2021-07-08T16:11:24+0200</time>
      </trkpt>
      <trkpt lat="45.0682" lon="2.88922">
        <ele>1181.675413</ele>
        <time>2021-07-08T16:11:26+0200</time>
      </trkpt>
      <trkpt lat="45.06824" lon="2.88917">
        <ele>1182.034455</ele>
        <time>2021-07-08T16:11:28+0200</time>
      </trkpt>
      <trkpt lat="45.06829" lon="2.88913">
        <ele>1182.395452</ele>
        <time>2021-07-08T16:11:30+0200</time>
      </trkpt>
      <trkpt lat="45.06833" lon="2.88906">
        <ele>1183.303477</ele>
        <time>2021-07-08T16:11:33+0200</time>
      </trkpt>
      <trkpt lat="45.06838" lon="2.88898">
        <ele>1183.749291</ele>
        <time>2021-07-08T16:11:36+0200</time>
      </trkpt>
      <trkpt lat="45.06842" lon="2.88893">
        <ele>1183.814708</ele>
        <time>2021-07-08T16:11:38+0200</time>
      </trkpt>
      <trkpt lat="45.06845" lon="2.88886">
        <ele>1184.301312</ele>
        <time>2021-07-08T16:11:40+0200</time>
      </trkpt>
      <trkpt lat="45.06849" lon="2.8888">
        <ele>1184.25762</ele>
        <time>2021-07-08T16:11:42+0200</time>
      </trkpt>
      <trkpt lat="45.06853" lon="2.88874">
        <ele>1184.243795</ele>
        <time>2021-07-08T16:11:44+0200</time>
      </trkpt>
      <trkpt lat="45.06857" lon="2.88869">
        <ele>1184.247104</ele>
        <time>2021-07-08T16:11:46+0200</time>
      </trkpt>
      <trkpt lat="45.0686" lon="2.88862">
        <ele>1184.231912</ele>
        <time>2021-07-08T16:11:48+0200</time>
      </trkpt>
      <trkpt lat="45.06865" lon="2.88857">
        <ele>1184.316724</ele>
        <time>2021-07-08T16:11:50+0200</time>
      </trkpt>
      <trkpt lat="45.06869" lon="2.88851">
        <ele>1184.514202</ele>
        <time>2021-07-08T16:11:52+0200</time>
      </trkpt>
      <trkpt lat="45.06873" lon="2.88845">
        <ele>1184.591436</ele>
        <time>2021-07-08T16:11:54+0200</time>
      </trkpt>
      <trkpt lat="45.06877" lon="2.88839">
        <ele>1184.615414</ele>
        <time>2021-07-08T16:11:56+0200</time>
      </trkpt>
      <trkpt lat="45.06882" lon="2.88834">
        <ele>1184.623269</ele>
        <time>2021-07-08T16:11:58+0200</time>
      </trkpt>
      <trkpt lat="45.06888" lon="2.8883">
        <ele>1185.273873</ele>
        <time>2021-07-08T16:12:00+0200</time>
      </trkpt>
      <trkpt lat="45.06894" lon="2.8883">
        <ele>1185.00904</ele>
        <time>2021-07-08T16:12:02+0200</time>
      </trkpt>
      <trkpt lat="45.06901" lon="2.88829">
        <ele>1184.854196</ele>
        <time>2021-07-08T16:12:04+0200</time>
      </trkpt>
      <trkpt lat="45.06909" lon="2.88827">
        <ele>1184.395449</ele>
        <time>2021-07-08T16:12:06+0200</time>
      </trkpt>
      <trkpt lat="45.06918" lon="2.88827">
        <ele>1183.884264</ele>
        <time>2021-07-08T16:12:08+0200</time>
      </trkpt>
      <trkpt lat="45.06923" lon="2.88828">
        <ele>1183.26953</ele>
        <time>2021-07-08T16:12:09+0200</time>
      </trkpt>
      <trkpt lat="45.06927" lon="2.88828">
        <ele>1182.855627</ele>
        <time>2021-07-08T16:12:10+0200</time>
      </trkpt>
      <trkpt lat="45.06933" lon="2.88828">
        <ele>1182.330368</ele>
        <time>2021-07-08T16:12:11+0200</time>
      </trkpt>
      <trkpt lat="45.06939" lon="2.88828">
        <ele>1181.91974</ele>
        <time>2021-07-08T16:12:12+0200</time>
      </trkpt>
      <trkpt lat="45.06944" lon="2.88829">
        <ele>1181.282637</ele>
        <time>2021-07-08T16:12:13+0200</time>
      </trkpt>
      <trkpt lat="45.0695" lon="2.88829">
        <ele>1180.760743</ele>
        <time>2021-07-08T16:12:14+0200</time>
      </trkpt>
      <trkpt lat="45.06957" lon="2.88829">
        <ele>1180.444886</ele>
        <time>2021-07-08T16:12:15+0200</time>
      </trkpt>
      <trkpt lat="45.06964" lon="2.88829">
        <ele>1180.086613</ele>
        <time>2021-07-08T16:12:16+0200</time>
      </trkpt>
      <trkpt lat="45.0697" lon="2.8883">
        <ele>1179.95441</ele>
        <time>2021-07-08T16:12:17+0200</time>
      </trkpt>
      <trkpt lat="45.06977" lon="2.8883">
        <ele>1179.589885</ele>
        <time>2021-07-08T16:12:18+0200</time>
      </trkpt>
      <trkpt lat="45.06984" lon="2.8883">
        <ele>1179.493882</ele>
        <time>2021-07-08T16:12:19+0200</time>
      </trkpt>
      <trkpt lat="45.0699" lon="2.8883">
        <ele>1179.327339</ele>
        <time>2021-07-08T16:12:20+0200</time>
      </trkpt>
      <trkpt lat="45.06997" lon="2.88831">
        <ele>1179.2088</ele>
        <time>2021-07-08T16:12:21+0200</time>
      </trkpt>
      <trkpt lat="45.07005" lon="2.88831">
        <ele>1179.125464</ele>
        <time>2021-07-08T16:12:22+0200</time>
      </trkpt>
      <trkpt lat="45.07011" lon="2.88832">
        <ele>1178.871223</ele>
        <time>2021-07-08T16:12:23+0200</time>
      </trkpt>
      <trkpt lat="45.07018" lon="2.88832">
        <ele>1178.762674</ele>
        <time>2021-07-08T16:12:24+0200</time>
      </trkpt>
      <trkpt lat="45.07025" lon="2.88833">
        <ele>1178.53245</ele>
        <time>2021-07-08T16:12:25+0200</time>
      </trkpt>
      <trkpt lat="45.07033" lon="2.88834">
        <ele>1178.363959</ele>
        <time>2021-07-08T16:12:26+0200</time>
      </trkpt>
      <trkpt lat="45.07039" lon="2.88834">
        <ele>1178.213658</ele>
        <time>2021-07-08T16:12:27+0200</time>
      </trkpt>
      <trkpt lat="45.07046" lon="2.88835">
        <ele>1177.972197</ele>
        <time>2021-07-08T16:12:28+0200</time>
      </trkpt>
      <trkpt lat="45.07052" lon="2.88836">
        <ele>1178.220521</ele>
        <time>2021-07-08T16:12:29+0200</time>
      </trkpt>
      <trkpt lat="45.07059" lon="2.88837">
        <ele>1178.209789</ele>
        <time>2021-07-08T16:12:30+0200</time>
      </trkpt>
      <trkpt lat="45.07066" lon="2.88837">
        <ele>1178.362524</ele>
        <time>2021-07-08T16:12:31+0200</time>
      </trkpt>
      <trkpt lat="45.07072" lon="2.88838">
        <ele>1178.078885</ele>
        <time>2021-07-08T16:12:32+0200</time>
      </trkpt>
      <trkpt lat="45.07078" lon="2.88838">
        <ele>1177.686132</ele>
        <time>2021-07-08T16:12:33+0200</time>
      </trkpt>
      <trkpt lat="45.07085" lon="2.88839">
        <ele>1177.707317</ele>
        <time>2021-07-08T16:12:34+0200</time>
      </trkpt>
      <trkpt lat="45.07091" lon="2.88841">
        <ele>1177.480886</ele>
        <time>2021-07-08T16:12:35+0200</time>
      </trkpt>
      <trkpt lat="45.07097" lon="2.88842">
        <ele>1177.220903</ele>
        <time>2021-07-08T16:12:36+0200</time>
      </trkpt>
      <trkpt lat="45.07103" lon="2.88843">
        <ele>1177.013398</ele>
        <time>2021-07-08T16:12:37+0200</time>
      </trkpt>
      <trkpt lat="45.07109" lon="2.88844">
        <ele>1176.389812</ele>
        <time>2021-07-08T16:12:38+0200</time>
      </trkpt>
      <trkpt lat="45.07115" lon="2.88845">
        <ele>1176.015861</ele>
        <time>2021-07-08T16:12:39+0200</time>
      </trkpt>
      <trkpt lat="45.07122" lon="2.88846">
        <ele>1175.887624</ele>
        <time>2021-07-08T16:12:40+0200</time>
      </trkpt>
      <trkpt lat="45.07129" lon="2.88848">
        <ele>1175.344912</ele>
        <time>2021-07-08T16:12:41+0200</time>
      </trkpt>
      <trkpt lat="45.07135" lon="2.88849">
        <ele>1174.63422</ele>
        <time>2021-07-08T16:12:42+0200</time>
      </trkpt>
      <trkpt lat="45.07141" lon="2.8885">
        <ele>1174.097212</ele>
        <time>2021-07-08T16:12:43+0200</time>
      </trkpt>
      <trkpt lat="45.07148" lon="2.88851">
        <ele>1173.44587</ele>
        <time>2021-07-08T16:12:44+0200</time>
      </trkpt>
      <trkpt lat="45.07154" lon="2.88852">
        <ele>1173.048291</ele>
        <time>2021-07-08T16:12:45+0200</time>
      </trkpt>
      <trkpt lat="45.07161" lon="2.88853">
        <ele>1172.660267</ele>
        <time>2021-07-08T16:12:46+0200</time>
      </trkpt>
      <trkpt lat="45.07168" lon="2.88854">
        <ele>1172.209799</ele>
        <time>2021-07-08T16:12:47+0200</time>
      </trkpt>
      <trkpt lat="45.07175" lon="2.88855">
        <ele>1171.813729</ele>
        <time>2021-07-08T16:12:48+0200</time>
      </trkpt>
      <trkpt lat="45.07182" lon="2.88856">
        <ele>1171.155848</ele>
        <time>2021-07-08T16:12:49+0200</time>
      </trkpt>
      <trkpt lat="45.07189" lon="2.88856">
        <ele>1170.576371</ele>
        <time>2021-07-08T16:12:50+0200</time>
      </trkpt>
      <trkpt lat="45.07196" lon="2.88857">
        <ele>1170.054116</ele>
        <time>2021-07-08T16:12:51+0200</time>
      </trkpt>
      <trkpt lat="45.07203" lon="2.88857">
        <ele>1169.622872</ele>
        <time>2021-07-08T16:12:52+0200</time>
      </trkpt>
      <trkpt lat="45.07211" lon="2.88859">
        <ele>1169.193662</ele>
        <time>2021-07-08T16:12:53+0200</time>
      </trkpt>
      <trkpt lat="45.07218" lon="2.8886">
        <ele>1168.535911</ele>
        <time>2021-07-08T16:12:54+0200</time>
      </trkpt>
      <trkpt lat="45.07225" lon="2.88862">
        <ele>1168.141814</ele>
        <time>2021-07-08T16:12:55+0200</time>
      </trkpt>
      <trkpt lat="45.07232" lon="2.88864">
        <ele>1167.767387</ele>
        <time>2021-07-08T16:12:56+0200</time>
      </trkpt>
      <trkpt lat="45.07239" lon="2.88867">
        <ele>1167.32071</ele>
        <time>2021-07-08T16:12:57+0200</time>
      </trkpt>
      <trkpt lat="45.07246" lon="2.88869">
        <ele>1166.534294</ele>
        <time>2021-07-08T16:12:58+0200</time>
      </trkpt>
      <trkpt lat="45.07252" lon="2.88872">
        <ele>1166.099845</ele>
        <time>2021-07-08T16:12:59+0200</time>
      </trkpt>
      <trkpt lat="45.07259" lon="2.88875">
        <ele>1165.43649</ele>
        <time>2021-07-08T16:13:00+0200</time>
      </trkpt>
      <trkpt lat="45.07266" lon="2.88878">
        <ele>1164.858411</ele>
        <time>2021-07-08T16:13:01+0200</time>
      </trkpt>
      <trkpt lat="45.07273" lon="2.88881">
        <ele>1164.615917</ele>
        <time>2021-07-08T16:13:02+0200</time>
      </trkpt>
      <trkpt lat="45.0728" lon="2.88885">
        <ele>1164.274921</ele>
        <time>2021-07-08T16:13:03+0200</time>
      </trkpt>
      <trkpt lat="45.07286" lon="2.88888">
        <ele>1164.019817</ele>
        <time>2021-07-08T16:13:04+0200</time>
      </trkpt>
      <trkpt lat="45.07293" lon="2.88891">
        <ele>1163.792609</ele>
        <time>2021-07-08T16:13:05+0200</time>
      </trkpt>
      <trkpt lat="45.073" lon="2.88892">
        <ele>1163.73846</ele>
        <time>2021-07-08T16:13:06+0200</time>
      </trkpt>
      <trkpt lat="45.07306" lon="2.88891">
        <ele>1164.167876</ele>
        <time>2021-07-08T16:13:07+0200</time>
      </trkpt>
      <trkpt lat="45.07311" lon="2.88891">
        <ele>1164.488989</ele>
        <time>2021-07-08T16:13:08+0200</time>
      </trkpt>
      <trkpt lat="45.07316" lon="2.88891">
        <ele>1164.500003</ele>
        <time>2021-07-08T16:13:09+0200</time>
      </trkpt>
      <trkpt lat="45.07322" lon="2.88891">
        <ele>1164.795637</ele>
        <time>2021-07-08T16:13:10+0200</time>
      </trkpt>
      <trkpt lat="45.07327" lon="2.88891">
        <ele>1165.001059</ele>
        <time>2021-07-08T16:13:11+0200</time>
      </trkpt>
      <trkpt lat="45.07334" lon="2.8889">
        <ele>1165.51682</ele>
        <time>2021-07-08T16:13:13+0200</time>
      </trkpt>
      <trkpt lat="45.0734" lon="2.8889">
        <ele>1165.589308</ele>
        <time>2021-07-08T16:13:15+0200</time>
      </trkpt>
      <trkpt lat="45.07347" lon="2.88889">
        <ele>1166.268648</ele>
        <time>2021-07-08T16:13:17+0200</time>
      </trkpt>
      <trkpt lat="45.07354" lon="2.88887">
        <ele>1167.319459</ele>
        <time>2021-07-08T16:13:19+0200</time>
      </trkpt>
      <trkpt lat="45.0736" lon="2.88885">
        <ele>1167.790484</ele>
        <time>2021-07-08T16:13:21+0200</time>
      </trkpt>
      <trkpt lat="45.07367" lon="2.88882">
        <ele>1168.572593</ele>
        <time>2021-07-08T16:13:23+0200</time>
      </trkpt>
      <trkpt lat="45.07374" lon="2.88881">
        <ele>1168.997314</ele>
        <time>2021-07-08T16:13:26+0200</time>
      </trkpt>
      <trkpt lat="45.0738" lon="2.8888">
        <ele>1168.719209</ele>
        <time>2021-07-08T16:13:28+0200</time>
      </trkpt>
      <trkpt lat="45.07387" lon="2.88878">
        <ele>1168.869389</ele>
        <time>2021-07-08T16:13:30+0200</time>
      </trkpt>
      <trkpt lat="45.07395" lon="2.88875">
        <ele>1168.726362</ele>
        <time>2021-07-08T16:13:32+0200</time>
      </trkpt>
      <trkpt lat="45.074" lon="2.88872">
        <ele>1168.335617</ele>
        <time>2021-07-08T16:13:34+0200</time>
      </trkpt>
      <trkpt lat="45.07406" lon="2.88871">
        <ele>1167.721236</ele>
        <time>2021-07-08T16:13:36+0200</time>
      </trkpt>
      <trkpt lat="45.07412" lon="2.88873">
        <ele>1166.904714</ele>
        <time>2021-07-08T16:13:38+0200</time>
      </trkpt>
      <trkpt lat="45.07415" lon="2.88883">
        <ele>1165.616562</ele>
        <time>2021-07-08T16:13:40+0200</time>
      </trkpt>
      <trkpt lat="45.07417" lon="2.88892">
        <ele>1164.745986</ele>
        <time>2021-07-08T16:13:42+0200</time>
      </trkpt>
      <trkpt lat="45.07418" lon="2.88903">
        <ele>1164.364282</ele>
        <time>2021-07-08T16:13:44+0200</time>
      </trkpt>
      <trkpt lat="45.0742" lon="2.88913">
        <ele>1164.59736</ele>
        <time>2021-07-08T16:13:46+0200</time>
      </trkpt>
      <trkpt lat="45.07421" lon="2.88925">
        <ele>1164.664082</ele>
        <time>2021-07-08T16:13:48+0200</time>
      </trkpt>
      <trkpt lat="45.07422" lon="2.88936">
        <ele>1163.618737</ele>
        <time>2021-07-08T16:13:50+0200</time>
      </trkpt>
      <trkpt lat="45.07422" lon="2.88946">
        <ele>1163.256963</ele>
        <time>2021-07-08T16:13:52+0200</time>
      </trkpt>
      <trkpt lat="45.07423" lon="2.88955">
        <ele>1163.904389</ele>
        <time>2021-07-08T16:13:54+0200</time>
      </trkpt>
      <trkpt lat="45.07424" lon="2.88966">
        <ele>1163.345518</ele>
        <time>2021-07-08T16:13:56+0200</time>
      </trkpt>
      <trkpt lat="45.07428" lon="2.88972">
        <ele>1163.698451</ele>
        <time>2021-07-08T16:13:58+0200</time>
      </trkpt>
      <trkpt lat="45.07432" lon="2.88978">
        <ele>1164.175955</ele>
        <time>2021-07-08T16:14:00+0200</time>
      </trkpt>
      <trkpt lat="45.07437" lon="2.88985">
        <ele>1163.60964</ele>
        <time>2021-07-08T16:14:02+0200</time>
      </trkpt>
      <trkpt lat="45.07441" lon="2.88993">
        <ele>1161.824318</ele>
        <time>2021-07-08T16:14:03+0200</time>
      </trkpt>
      <trkpt lat="45.07444" lon="2.89002">
        <ele>1162.315546</ele>
        <time>2021-07-08T16:14:05+0200</time>
      </trkpt>
      <trkpt lat="45.07448" lon="2.89011">
        <ele>1162.520806</ele>
        <time>2021-07-08T16:14:07+0200</time>
      </trkpt>
      <trkpt lat="45.07451" lon="2.89019">
        <ele>1162.466311</ele>
        <time>2021-07-08T16:14:09+0200</time>
      </trkpt>
      <trkpt lat="45.07454" lon="2.89027">
        <ele>1161.758866</ele>
        <time>2021-07-08T16:14:11+0200</time>
      </trkpt>
      <trkpt lat="45.07459" lon="2.89033">
        <ele>1162.706731</ele>
        <time>2021-07-08T16:14:13+0200</time>
      </trkpt>
      <trkpt lat="45.07464" lon="2.89035">
        <ele>1162.58318</ele>
        <time>2021-07-08T16:14:15+0200</time>
      </trkpt>
      <trkpt lat="45.07468" lon="2.89038">
        <ele>1164.428799</ele>
        <time>2021-07-08T16:14:17+0200</time>
      </trkpt>
      <trkpt lat="45.07473" lon="2.89038">
        <ele>1164.584774</ele>
        <time>2021-07-08T16:14:19+0200</time>
      </trkpt>
      <trkpt lat="45.07478" lon="2.89036">
        <ele>1165.072765</ele>
        <time>2021-07-08T16:14:21+0200</time>
      </trkpt>
      <trkpt lat="45.07483" lon="2.89033">
        <ele>1165.036025</ele>
        <time>2021-07-08T16:14:23+0200</time>
      </trkpt>
      <trkpt lat="45.07489" lon="2.89029">
        <ele>1164.720225</ele>
        <time>2021-07-08T16:14:25+0200</time>
      </trkpt>
      <trkpt lat="45.07496" lon="2.89026">
        <ele>1165.338247</ele>
        <time>2021-07-08T16:14:27+0200</time>
      </trkpt>
      <trkpt lat="45.07504" lon="2.89023">
        <ele>1165.281533</ele>
        <time>2021-07-08T16:14:29+0200</time>
      </trkpt>
      <trkpt lat="45.07511" lon="2.89023">
        <ele>1165.079233</ele>
        <time>2021-07-08T16:14:31+0200</time>
      </trkpt>
      <trkpt lat="45.07518" lon="2.89022">
        <ele>1164.900281</ele>
        <time>2021-07-08T16:14:33+0200</time>
      </trkpt>
      <trkpt lat="45.07525" lon="2.89019">
        <ele>1164.920004</ele>
        <time>2021-07-08T16:14:35+0200</time>
      </trkpt>
      <trkpt lat="45.07531" lon="2.89018">
        <ele>1165.295164</ele>
        <time>2021-07-08T16:14:37+0200</time>
      </trkpt>
      <trkpt lat="45.07538" lon="2.89016">
        <ele>1165.989115</ele>
        <time>2021-07-08T16:14:39+0200</time>
      </trkpt>
      <trkpt lat="45.07544" lon="2.89015">
        <ele>1166.768641</ele>
        <time>2021-07-08T16:14:41+0200</time>
      </trkpt>
      <trkpt lat="45.07549" lon="2.89013">
        <ele>1166.958156</ele>
        <time>2021-07-08T16:14:43+0200</time>
      </trkpt>
      <trkpt lat="45.07554" lon="2.89015">
        <ele>1166.375853</ele>
        <time>2021-07-08T16:14:46+0200</time>
      </trkpt>
      <trkpt lat="45.07553" lon="2.89022">
        <ele>1164.305844</ele>
        <time>2021-07-08T16:14:49+0200</time>
      </trkpt>
      <trkpt lat="45.07552" lon="2.89029">
        <ele>1163.948417</ele>
        <time>2021-07-08T16:14:51+0200</time>
      </trkpt>
      <trkpt lat="45.07551" lon="2.89039">
        <ele>1162.528365</ele>
        <time>2021-07-08T16:14:53+0200</time>
      </trkpt>
      <trkpt lat="45.07553" lon="2.89051">
        <ele>1160.272758</ele>
        <time>2021-07-08T16:14:55+0200</time>
      </trkpt>
      <trkpt lat="45.07553" lon="2.89058">
        <ele>1159.714736</ele>
        <time>2021-07-08T16:14:56+0200</time>
      </trkpt>
      <trkpt lat="45.07554" lon="2.89066">
        <ele>1158.89479</ele>
        <time>2021-07-08T16:14:57+0200</time>
      </trkpt>
      <trkpt lat="45.07556" lon="2.89073">
        <ele>1158.492746</ele>
        <time>2021-07-08T16:14:58+0200</time>
      </trkpt>
      <trkpt lat="45.07558" lon="2.89082">
        <ele>1158.514344</ele>
        <time>2021-07-08T16:14:59+0200</time>
      </trkpt>
      <trkpt lat="45.07561" lon="2.89091">
        <ele>1158.077564</ele>
        <time>2021-07-08T16:15:00+0200</time>
      </trkpt>
      <trkpt lat="45.07565" lon="2.89099">
        <ele>1157.098435</ele>
        <time>2021-07-08T16:15:01+0200</time>
      </trkpt>
      <trkpt lat="45.07568" lon="2.89108">
        <ele>1156.668692</ele>
        <time>2021-07-08T16:15:02+0200</time>
      </trkpt>
      <trkpt lat="45.07572" lon="2.8912">
        <ele>1154.250451</ele>
        <time>2021-07-08T16:15:03+0200</time>
      </trkpt>
      <trkpt lat="45.07574" lon="2.89131">
        <ele>1152.8561</ele>
        <time>2021-07-08T16:15:04+0200</time>
      </trkpt>
      <trkpt lat="45.07578" lon="2.89141">
        <ele>1152.057262</ele>
        <time>2021-07-08T16:15:05+0200</time>
      </trkpt>
      <trkpt lat="45.07581" lon="2.89153">
        <ele>1151.375205</ele>
        <time>2021-07-08T16:15:06+0200</time>
      </trkpt>
      <trkpt lat="45.07584" lon="2.89164">
        <ele>1150.239892</ele>
        <time>2021-07-08T16:15:07+0200</time>
      </trkpt>
      <trkpt lat="45.07587" lon="2.89175">
        <ele>1149.083086</ele>
        <time>2021-07-08T16:15:08+0200</time>
      </trkpt>
      <trkpt lat="45.07589" lon="2.89187">
        <ele>1148.687889</ele>
        <time>2021-07-08T16:15:09+0200</time>
      </trkpt>
      <trkpt lat="45.07592" lon="2.89201">
        <ele>1147.736898</ele>
        <time>2021-07-08T16:15:10+0200</time>
      </trkpt>
      <trkpt lat="45.07595" lon="2.89215">
        <ele>1146.962875</ele>
        <time>2021-07-08T16:15:11+0200</time>
      </trkpt>
      <trkpt lat="45.07598" lon="2.89229">
        <ele>1145.973896</ele>
        <time>2021-07-08T16:15:12+0200</time>
      </trkpt>
      <trkpt lat="45.076" lon="2.89244">
        <ele>1144.886457</ele>
        <time>2021-07-08T16:15:13+0200</time>
      </trkpt>
      <trkpt lat="45.07602" lon="2.89259">
        <ele>1143.391096</ele>
        <time>2021-07-08T16:15:14+0200</time>
      </trkpt>
      <trkpt lat="45.07603" lon="2.89274">
        <ele>1142.742923</ele>
        <time>2021-07-08T16:15:15+0200</time>
      </trkpt>
      <trkpt lat="45.07605" lon="2.89288">
        <ele>1142.17502</ele>
        <time>2021-07-08T16:15:16+0200</time>
      </trkpt>
      <trkpt lat="45.07605" lon="2.89303">
        <ele>1140.957062</ele>
        <time>2021-07-08T16:15:17+0200</time>
      </trkpt>
      <trkpt lat="45.07605" lon="2.89317">
        <ele>1140.404097</ele>
        <time>2021-07-08T16:15:18+0200</time>
      </trkpt>
      <trkpt lat="45.07605" lon="2.89331">
        <ele>1139.594366</ele>
        <time>2021-07-08T16:15:19+0200</time>
      </trkpt>
      <trkpt lat="45.07606" lon="2.89346">
        <ele>1139.102716</ele>
        <time>2021-07-08T16:15:20+0200</time>
      </trkpt>
      <trkpt lat="45.07605" lon="2.89361">
        <ele>1138.27791</ele>
        <time>2021-07-08T16:15:21+0200</time>
      </trkpt>
      <trkpt lat="45.07604" lon="2.89376">
        <ele>1137.184263</ele>
        <time>2021-07-08T16:15:22+0200</time>
      </trkpt>
      <trkpt lat="45.07603" lon="2.89391">
        <ele>1135.573651</ele>
        <time>2021-07-08T16:15:23+0200</time>
      </trkpt>
      <trkpt lat="45.07603" lon="2.89407">
        <ele>1134.061813</ele>
        <time>2021-07-08T16:15:24+0200</time>
      </trkpt>
      <trkpt lat="45.07602" lon="2.89422">
        <ele>1133.171816</ele>
        <time>2021-07-08T16:15:25+0200</time>
      </trkpt>
      <trkpt lat="45.07601" lon="2.89439">
        <ele>1132.201562</ele>
        <time>2021-07-08T16:15:26+0200</time>
      </trkpt>
      <trkpt lat="45.07599" lon="2.89455">
        <ele>1130.731402</ele>
        <time>2021-07-08T16:15:27+0200</time>
      </trkpt>
      <trkpt lat="45.07597" lon="2.89471">
        <ele>1129.337074</ele>
        <time>2021-07-08T16:15:28+0200</time>
      </trkpt>
      <trkpt lat="45.07593" lon="2.89487">
        <ele>1128.249213</ele>
        <time>2021-07-08T16:15:29+0200</time>
      </trkpt>
      <trkpt lat="45.0759" lon="2.89502">
        <ele>1127.517814</ele>
        <time>2021-07-08T16:15:30+0200</time>
      </trkpt>
      <trkpt lat="45.0759" lon="2.89516">
        <ele>1127.587493</ele>
        <time>2021-07-08T16:15:31+0200</time>
      </trkpt>
      <trkpt lat="45.07592" lon="2.8953">
        <ele>1127.988369</ele>
        <time>2021-07-08T16:15:32+0200</time>
      </trkpt>
      <trkpt lat="45.07595" lon="2.89543">
        <ele>1128.282028</ele>
        <time>2021-07-08T16:15:33+0200</time>
      </trkpt>
      <trkpt lat="45.07598" lon="2.89557">
        <ele>1127.616644</ele>
        <time>2021-07-08T16:15:34+0200</time>
      </trkpt>
      <trkpt lat="45.076" lon="2.8957">
        <ele>1127.176087</ele>
        <time>2021-07-08T16:15:35+0200</time>
      </trkpt>
      <trkpt lat="45.07602" lon="2.89584">
        <ele>1126.899548</ele>
        <time>2021-07-08T16:15:36+0200</time>
      </trkpt>
      <trkpt lat="45.07602" lon="2.89598">
        <ele>1126.645477</ele>
        <time>2021-07-08T16:15:37+0200</time>
      </trkpt>
      <trkpt lat="45.07603" lon="2.89612">
        <ele>1126.076383</ele>
        <time>2021-07-08T16:15:38+0200</time>
      </trkpt>
      <trkpt lat="45.07603" lon="2.89626">
        <ele>1125.479789</ele>
        <time>2021-07-08T16:15:39+0200</time>
      </trkpt>
      <trkpt lat="45.07602" lon="2.8964">
        <ele>1125.183104</ele>
        <time>2021-07-08T16:15:40+0200</time>
      </trkpt>
      <trkpt lat="45.07601" lon="2.89653">
        <ele>1125.419978</ele>
        <time>2021-07-08T16:15:41+0200</time>
      </trkpt>
      <trkpt lat="45.07603" lon="2.89666">
        <ele>1125.508109</ele>
        <time>2021-07-08T16:15:42+0200</time>
      </trkpt>
      <trkpt lat="45.07606" lon="2.89679">
        <ele>1125.259598</ele>
        <time>2021-07-08T16:15:43+0200</time>
      </trkpt>
      <trkpt lat="45.0761" lon="2.89691">
        <ele>1124.371141</ele>
        <time>2021-07-08T16:15:44+0200</time>
      </trkpt>
      <trkpt lat="45.07615" lon="2.89704">
        <ele>1123.472275</ele>
        <time>2021-07-08T16:15:45+0200</time>
      </trkpt>
      <trkpt lat="45.0762" lon="2.89716">
        <ele>1122.442498</ele>
        <time>2021-07-08T16:15:46+0200</time>
      </trkpt>
      <trkpt lat="45.07626" lon="2.89729">
        <ele>1121.557871</ele>
        <time>2021-07-08T16:15:47+0200</time>
      </trkpt>
      <trkpt lat="45.07631" lon="2.89743">
        <ele>1119.735918</ele>
        <time>2021-07-08T16:15:48+0200</time>
      </trkpt>
      <trkpt lat="45.07637" lon="2.89758">
        <ele>1117.722119</ele>
        <time>2021-07-08T16:15:49+0200</time>
      </trkpt>
      <trkpt lat="45.07644" lon="2.89773">
        <ele>1116.107832</ele>
        <time>2021-07-08T16:15:50+0200</time>
      </trkpt>
      <trkpt lat="45.07652" lon="2.89788">
        <ele>1115.243012</ele>
        <time>2021-07-08T16:15:51+0200</time>
      </trkpt>
      <trkpt lat="45.0766" lon="2.89804">
        <ele>1113.309941</ele>
        <time>2021-07-08T16:15:52+0200</time>
      </trkpt>
      <trkpt lat="45.07667" lon="2.89822">
        <ele>1111.585099</ele>
        <time>2021-07-08T16:15:53+0200</time>
      </trkpt>
      <trkpt lat="45.07671" lon="2.8984">
        <ele>1109.68428</ele>
        <time>2021-07-08T16:15:54+0200</time>
      </trkpt>
      <trkpt lat="45.07675" lon="2.89859">
        <ele>1108.246609</ele>
        <time>2021-07-08T16:15:55+0200</time>
      </trkpt>
      <trkpt lat="45.07681" lon="2.89877">
        <ele>1107.299443</ele>
        <time>2021-07-08T16:15:56+0200</time>
      </trkpt>
      <trkpt lat="45.07687" lon="2.89894">
        <ele>1105.760226</ele>
        <time>2021-07-08T16:15:57+0200</time>
      </trkpt>
      <trkpt lat="45.07694" lon="2.89907">
        <ele>1105.09578</ele>
        <time>2021-07-08T16:15:58+0200</time>
      </trkpt>
      <trkpt lat="45.07699" lon="2.89915">
        <ele>1104.229809</ele>
        <time>2021-07-08T16:15:59+0200</time>
      </trkpt>
      <trkpt lat="45.07703" lon="2.89919">
        <ele>1105.565741</ele>
        <time>2021-07-08T16:16:00+0200</time>
      </trkpt>
      <trkpt lat="45.07709" lon="2.89919">
        <ele>1104.034183</ele>
        <time>2021-07-08T16:16:18+0200</time>
      </trkpt>
      <trkpt lat="45.07714" lon="2.89923">
        <ele>1103.489249</ele>
        <time>2021-07-08T16:16:19+0200</time>
      </trkpt>
      <trkpt lat="45.07719" lon="2.8993">
        <ele>1102.818391</ele>
        <time>2021-07-08T16:16:20+0200</time>
      </trkpt>
      <trkpt lat="45.07724" lon="2.89937">
        <ele>1102.159109</ele>
        <time>2021-07-08T16:16:21+0200</time>
      </trkpt>
      <trkpt lat="45.07727" lon="2.89946">
        <ele>1098.199882</ele>
        <time>2021-07-08T16:16:22+0200</time>
      </trkpt>
      <trkpt lat="45.07732" lon="2.89955">
        <ele>1097.48402</ele>
        <time>2021-07-08T16:16:23+0200</time>
      </trkpt>
      <trkpt lat="45.07738" lon="2.89965">
        <ele>1096.810874</ele>
        <time>2021-07-08T16:16:24+0200</time>
      </trkpt>
      <trkpt lat="45.07744" lon="2.89976">
        <ele>1096.607044</ele>
        <time>2021-07-08T16:16:25+0200</time>
      </trkpt>
      <trkpt lat="45.07749" lon="2.89985">
        <ele>1096.46745</ele>
        <time>2021-07-08T16:16:26+0200</time>
      </trkpt>
      <trkpt lat="45.07755" lon="2.89995">
        <ele>1095.733281</ele>
        <time>2021-07-08T16:16:27+0200</time>
      </trkpt>
      <trkpt lat="45.07762" lon="2.90005">
        <ele>1094.515372</ele>
        <time>2021-07-08T16:16:28+0200</time>
      </trkpt>
      <trkpt lat="45.07767" lon="2.90016">
        <ele>1094.212504</ele>
        <time>2021-07-08T16:16:29+0200</time>
      </trkpt>
      <trkpt lat="45.07773" lon="2.90028">
        <ele>1093.478102</ele>
        <time>2021-07-08T16:16:30+0200</time>
      </trkpt>
      <trkpt lat="45.07779" lon="2.90039">
        <ele>1093.233446</ele>
        <time>2021-07-08T16:16:31+0200</time>
      </trkpt>
      <trkpt lat="45.07785" lon="2.9005">
        <ele>1093.165431</ele>
        <time>2021-07-08T16:16:32+0200</time>
      </trkpt>
      <trkpt lat="45.0779" lon="2.90062">
        <ele>1092.516905</ele>
        <time>2021-07-08T16:16:33+0200</time>
      </trkpt>
      <trkpt lat="45.07796" lon="2.90072">
        <ele>1092.703582</ele>
        <time>2021-07-08T16:16:34+0200</time>
      </trkpt>
      <trkpt lat="45.07802" lon="2.90084">
        <ele>1092.319431</ele>
        <time>2021-07-08T16:16:35+0200</time>
      </trkpt>
      <trkpt lat="45.07806" lon="2.90095">
        <ele>1092.119204</ele>
        <time>2021-07-08T16:16:36+0200</time>
      </trkpt>
      <trkpt lat="45.07811" lon="2.90106">
        <ele>1091.839375</ele>
        <time>2021-07-08T16:16:37+0200</time>
      </trkpt>
      <trkpt lat="45.07815" lon="2.90118">
        <ele>1091.992832</ele>
        <time>2021-07-08T16:16:38+0200</time>
      </trkpt>
      <trkpt lat="45.07819" lon="2.90129">
        <ele>1091.895731</ele>
        <time>2021-07-08T16:16:39+0200</time>
      </trkpt>
      <trkpt lat="45.07823" lon="2.9014">
        <ele>1091.497212</ele>
        <time>2021-07-08T16:16:40+0200</time>
      </trkpt>
      <trkpt lat="45.07826" lon="2.90151">
        <ele>1091.498656</ele>
        <time>2021-07-08T16:16:41+0200</time>
      </trkpt>
      <trkpt lat="45.0783" lon="2.90161">
        <ele>1091.496776</ele>
        <time>2021-07-08T16:16:42+0200</time>
      </trkpt>
      <trkpt lat="45.07834" lon="2.90172">
        <ele>1091.579597</ele>
        <time>2021-07-08T16:16:43+0200</time>
      </trkpt>
      <trkpt lat="45.07837" lon="2.90182">
        <ele>1091.281295</ele>
        <time>2021-07-08T16:16:44+0200</time>
      </trkpt>
      <trkpt lat="45.07839" lon="2.90192">
        <ele>1090.955274</ele>
        <time>2021-07-08T16:16:45+0200</time>
      </trkpt>
      <trkpt lat="45.07841" lon="2.90202">
        <ele>1090.709145</ele>
        <time>2021-07-08T16:16:46+0200</time>
      </trkpt>
      <trkpt lat="45.07843" lon="2.90212">
        <ele>1091.405389</ele>
        <time>2021-07-08T16:16:47+0200</time>
      </trkpt>
      <trkpt lat="45.07847" lon="2.90221">
        <ele>1091.420812</ele>
        <time>2021-07-08T16:16:48+0200</time>
      </trkpt>
      <trkpt lat="45.07851" lon="2.90229">
        <ele>1090.992316</ele>
        <time>2021-07-08T16:16:49+0200</time>
      </trkpt>
      <trkpt lat="45.07855" lon="2.90239">
        <ele>1089.727496</ele>
        <time>2021-07-08T16:16:50+0200</time>
      </trkpt>
      <trkpt lat="45.07859" lon="2.90249">
        <ele>1089.397905</ele>
        <time>2021-07-08T16:16:51+0200</time>
      </trkpt>
      <trkpt lat="45.07862" lon="2.90259">
        <ele>1088.48401</ele>
        <time>2021-07-08T16:16:52+0200</time>
      </trkpt>
      <trkpt lat="45.07866" lon="2.9027">
        <ele>1088.200221</ele>
        <time>2021-07-08T16:16:53+0200</time>
      </trkpt>
      <trkpt lat="45.0787" lon="2.90281">
        <ele>1087.811517</ele>
        <time>2021-07-08T16:16:54+0200</time>
      </trkpt>
      <trkpt lat="45.07874" lon="2.90292">
        <ele>1087.635584</ele>
        <time>2021-07-08T16:16:55+0200</time>
      </trkpt>
      <trkpt lat="45.07876" lon="2.90303">
        <ele>1087.578738</ele>
        <time>2021-07-08T16:16:56+0200</time>
      </trkpt>
      <trkpt lat="45.07877" lon="2.90314">
        <ele>1087.400184</ele>
        <time>2021-07-08T16:16:57+0200</time>
      </trkpt>
      <trkpt lat="45.0788" lon="2.90325">
        <ele>1087.151642</ele>
        <time>2021-07-08T16:16:58+0200</time>
      </trkpt>
      <trkpt lat="45.07883" lon="2.90335">
        <ele>1086.639386</ele>
        <time>2021-07-08T16:16:59+0200</time>
      </trkpt>
      <trkpt lat="45.07887" lon="2.90345">
        <ele>1086.342848</ele>
        <time>2021-07-08T16:17:00+0200</time>
      </trkpt>
      <trkpt lat="45.0789" lon="2.90355">
        <ele>1085.894067</ele>
        <time>2021-07-08T16:17:01+0200</time>
      </trkpt>
      <trkpt lat="45.07894" lon="2.90366">
        <ele>1085.721472</ele>
        <time>2021-07-08T16:17:02+0200</time>
      </trkpt>
      <trkpt lat="45.07899" lon="2.90375">
        <ele>1085.126067</ele>
        <time>2021-07-08T16:17:03+0200</time>
      </trkpt>
      <trkpt lat="45.07906" lon="2.9038">
        <ele>1084.210639</ele>
        <time>2021-07-08T16:17:04+0200</time>
      </trkpt>
      <trkpt lat="45.07914" lon="2.90383">
        <ele>1083.009462</ele>
        <time>2021-07-08T16:17:05+0200</time>
      </trkpt>
      <trkpt lat="45.07922" lon="2.90387">
        <ele>1082.103277</ele>
        <time>2021-07-08T16:17:06+0200</time>
      </trkpt>
      <trkpt lat="45.07931" lon="2.90388">
        <ele>1081.132645</ele>
        <time>2021-07-08T16:17:07+0200</time>
      </trkpt>
      <trkpt lat="45.07939" lon="2.90391">
        <ele>1080.398449</ele>
        <time>2021-07-08T16:17:08+0200</time>
      </trkpt>
      <trkpt lat="45.07949" lon="2.90394">
        <ele>1079.194232</ele>
        <time>2021-07-08T16:17:09+0200</time>
      </trkpt>
      <trkpt lat="45.07958" lon="2.904">
        <ele>1078.196537</ele>
        <time>2021-07-08T16:17:10+0200</time>
      </trkpt>
      <trkpt lat="45.07965" lon="2.90408">
        <ele>1077.776404</ele>
        <time>2021-07-08T16:17:11+0200</time>
      </trkpt>
      <trkpt lat="45.07973" lon="2.90416">
        <ele>1077.567729</ele>
        <time>2021-07-08T16:17:12+0200</time>
      </trkpt>
      <trkpt lat="45.07979" lon="2.90425">
        <ele>1077.6888</ele>
        <time>2021-07-08T16:17:13+0200</time>
      </trkpt>
      <trkpt lat="45.07986" lon="2.90433">
        <ele>1078.05291</ele>
        <time>2021-07-08T16:17:14+0200</time>
      </trkpt>
      <trkpt lat="45.07991" lon="2.90441">
        <ele>1078.428619</ele>
        <time>2021-07-08T16:17:15+0200</time>
      </trkpt>
      <trkpt lat="45.07996" lon="2.90448">
        <ele>1078.701475</ele>
        <time>2021-07-08T16:17:16+0200</time>
      </trkpt>
      <trkpt lat="45.08" lon="2.90455">
        <ele>1079.147259</ele>
        <time>2021-07-08T16:17:17+0200</time>
      </trkpt>
      <trkpt lat="45.08004" lon="2.90461">
        <ele>1079.522906</ele>
        <time>2021-07-08T16:17:18+0200</time>
      </trkpt>
      <trkpt lat="45.08007" lon="2.90466">
        <ele>1079.541897</ele>
        <time>2021-07-08T16:17:19+0200</time>
      </trkpt>
      <trkpt lat="45.0801" lon="2.90471">
        <ele>1079.871586</ele>
        <time>2021-07-08T16:17:20+0200</time>
      </trkpt>
      <trkpt lat="45.08015" lon="2.9048">
        <ele>1079.854437</ele>
        <time>2021-07-08T16:17:22+0200</time>
      </trkpt>
      <trkpt lat="45.08021" lon="2.90486">
        <ele>1080.939042</ele>
        <time>2021-07-08T16:17:24+0200</time>
      </trkpt>
      <trkpt lat="45.08027" lon="2.9049">
        <ele>1081.687243</ele>
        <time>2021-07-08T16:17:26+0200</time>
      </trkpt>
      <trkpt lat="45.08033" lon="2.90492">
        <ele>1081.898156</ele>
        <time>2021-07-08T16:17:28+0200</time>
      </trkpt>
      <trkpt lat="45.08039" lon="2.90495">
        <ele>1081.710681</ele>
        <time>2021-07-08T16:17:30+0200</time>
      </trkpt>
      <trkpt lat="45.08044" lon="2.90497">
        <ele>1081.775844</ele>
        <time>2021-07-08T16:17:32+0200</time>
      </trkpt>
      <trkpt lat="45.08049" lon="2.90499">
        <ele>1081.684095</ele>
        <time>2021-07-08T16:17:34+0200</time>
      </trkpt>
      <trkpt lat="45.08054" lon="2.90502">
        <ele>1081.742963</ele>
        <time>2021-07-08T16:17:36+0200</time>
      </trkpt>
      <trkpt lat="45.08059" lon="2.90506">
        <ele>1081.718851</ele>
        <time>2021-07-08T16:17:38+0200</time>
      </trkpt>
      <trkpt lat="45.08065" lon="2.9051">
        <ele>1081.410938</ele>
        <time>2021-07-08T16:17:40+0200</time>
      </trkpt>
      <trkpt lat="45.08071" lon="2.90517">
        <ele>1080.845419</ele>
        <time>2021-07-08T16:17:42+0200</time>
      </trkpt>
      <trkpt lat="45.08079" lon="2.90525">
        <ele>1080.26671</ele>
        <time>2021-07-08T16:17:44+0200</time>
      </trkpt>
      <trkpt lat="45.08083" lon="2.9053">
        <ele>1079.699926</ele>
        <time>2021-07-08T16:17:45+0200</time>
      </trkpt>
      <trkpt lat="45.08087" lon="2.90536">
        <ele>1079.17961</ele>
        <time>2021-07-08T16:17:46+0200</time>
      </trkpt>
      <trkpt lat="45.08092" lon="2.90543">
        <ele>1078.425354</ele>
        <time>2021-07-08T16:17:47+0200</time>
      </trkpt>
      <trkpt lat="45.08097" lon="2.90549">
        <ele>1078.006131</ele>
        <time>2021-07-08T16:17:48+0200</time>
      </trkpt>
      <trkpt lat="45.08104" lon="2.90556">
        <ele>1077.185795</ele>
        <time>2021-07-08T16:17:49+0200</time>
      </trkpt>
      <trkpt lat="45.0811" lon="2.90563">
        <ele>1075.620895</ele>
        <time>2021-07-08T16:17:50+0200</time>
      </trkpt>
      <trkpt lat="45.08117" lon="2.90571">
        <ele>1074.900635</ele>
        <time>2021-07-08T16:17:51+0200</time>
      </trkpt>
      <trkpt lat="45.08123" lon="2.90578">
        <ele>1074.418778</ele>
        <time>2021-07-08T16:17:52+0200</time>
      </trkpt>
      <trkpt lat="45.08129" lon="2.90588">
        <ele>1073.244617</ele>
        <time>2021-07-08T16:17:53+0200</time>
      </trkpt>
      <trkpt lat="45.08136" lon="2.90599">
        <ele>1071.694315</ele>
        <time>2021-07-08T16:17:54+0200</time>
      </trkpt>
      <trkpt lat="45.08142" lon="2.9061">
        <ele>1070.687139</ele>
        <time>2021-07-08T16:17:55+0200</time>
      </trkpt>
      <trkpt lat="45.08148" lon="2.90621">
        <ele>1069.921177</ele>
        <time>2021-07-08T16:17:56+0200</time>
      </trkpt>
      <trkpt lat="45.08155" lon="2.90632">
        <ele>1069.498383</ele>
        <time>2021-07-08T16:17:57+0200</time>
      </trkpt>
      <trkpt lat="45.08161" lon="2.90643">
        <ele>1068.717439</ele>
        <time>2021-07-08T16:17:58+0200</time>
      </trkpt>
      <trkpt lat="45.08166" lon="2.90656">
        <ele>1067.896942</ele>
        <time>2021-07-08T16:17:59+0200</time>
      </trkpt>
      <trkpt lat="45.0817" lon="2.90669">
        <ele>1067.391911</ele>
        <time>2021-07-08T16:18:00+0200</time>
      </trkpt>
      <trkpt lat="45.08173" lon="2.90682">
        <ele>1066.90778</ele>
        <time>2021-07-08T16:18:01+0200</time>
      </trkpt>
      <trkpt lat="45.08178" lon="2.90694">
        <ele>1067.030072</ele>
        <time>2021-07-08T16:18:02+0200</time>
      </trkpt>
      <trkpt lat="45.08184" lon="2.90704">
        <ele>1067.086472</ele>
        <time>2021-07-08T16:18:03+0200</time>
      </trkpt>
      <trkpt lat="45.08191" lon="2.90713">
        <ele>1066.58901</ele>
        <time>2021-07-08T16:18:04+0200</time>
      </trkpt>
      <trkpt lat="45.08197" lon="2.90722">
        <ele>1066.275974</ele>
        <time>2021-07-08T16:18:05+0200</time>
      </trkpt>
      <trkpt lat="45.08204" lon="2.90731">
        <ele>1065.81628</ele>
        <time>2021-07-08T16:18:06+0200</time>
      </trkpt>
      <trkpt lat="45.0821" lon="2.9074">
        <ele>1065.292241</ele>
        <time>2021-07-08T16:18:07+0200</time>
      </trkpt>
      <trkpt lat="45.08217" lon="2.90749">
        <ele>1064.890579</ele>
        <time>2021-07-08T16:18:08+0200</time>
      </trkpt>
      <trkpt lat="45.08224" lon="2.90757">
        <ele>1064.374359</ele>
        <time>2021-07-08T16:18:09+0200</time>
      </trkpt>
      <trkpt lat="45.0823" lon="2.90765">
        <ele>1063.938465</ele>
        <time>2021-07-08T16:18:10+0200</time>
      </trkpt>
      <trkpt lat="45.08236" lon="2.90774">
        <ele>1063.414467</ele>
        <time>2021-07-08T16:18:11+0200</time>
      </trkpt>
      <trkpt lat="45.08241" lon="2.90784">
        <ele>1062.890824</ele>
        <time>2021-07-08T16:18:12+0200</time>
      </trkpt>
      <trkpt lat="45.08247" lon="2.90792">
        <ele>1062.457423</ele>
        <time>2021-07-08T16:18:13+0200</time>
      </trkpt>
      <trkpt lat="45.08253" lon="2.90802">
        <ele>1061.801591</ele>
        <time>2021-07-08T16:18:14+0200</time>
      </trkpt>
      <trkpt lat="45.08259" lon="2.9081">
        <ele>1061.459694</ele>
        <time>2021-07-08T16:18:15+0200</time>
      </trkpt>
      <trkpt lat="45.08265" lon="2.90819">
        <ele>1061.059459</ele>
        <time>2021-07-08T16:18:16+0200</time>
      </trkpt>
      <trkpt lat="45.08271" lon="2.90827">
        <ele>1060.459043</ele>
        <time>2021-07-08T16:18:17+0200</time>
      </trkpt>
      <trkpt lat="45.08277" lon="2.90835">
        <ele>1059.696019</ele>
        <time>2021-07-08T16:18:18+0200</time>
      </trkpt>
      <trkpt lat="45.08283" lon="2.90842">
        <ele>1058.849422</ele>
        <time>2021-07-08T16:18:19+0200</time>
      </trkpt>
      <trkpt lat="45.08289" lon="2.9085">
        <ele>1061.11963</ele>
        <time>2021-07-08T16:18:20+0200</time>
      </trkpt>
      <trkpt lat="45.08294" lon="2.90857">
        <ele>1060.566254</ele>
        <time>2021-07-08T16:18:21+0200</time>
      </trkpt>
      <trkpt lat="45.083" lon="2.90866">
        <ele>1060.042226</ele>
        <time>2021-07-08T16:18:22+0200</time>
      </trkpt>
      <trkpt lat="45.08303" lon="2.90876">
        <ele>1059.212372</ele>
        <time>2021-07-08T16:18:23+0200</time>
      </trkpt>
      <trkpt lat="45.08305" lon="2.90887">
        <ele>1058.82142</ele>
        <time>2021-07-08T16:18:24+0200</time>
      </trkpt>
      <trkpt lat="45.08306" lon="2.90899">
        <ele>1058.571211</ele>
        <time>2021-07-08T16:18:25+0200</time>
      </trkpt>
      <trkpt lat="45.08306" lon="2.9091">
        <ele>1058.104628</ele>
        <time>2021-07-08T16:18:26+0200</time>
      </trkpt>
      <trkpt lat="45.08307" lon="2.90921">
        <ele>1058.143842</ele>
        <time>2021-07-08T16:18:27+0200</time>
      </trkpt>
      <trkpt lat="45.08307" lon="2.90932">
        <ele>1058.814907</ele>
        <time>2021-07-08T16:18:28+0200</time>
      </trkpt>
      <trkpt lat="45.08308" lon="2.90941">
        <ele>1059.172867</ele>
        <time>2021-07-08T16:18:29+0200</time>
      </trkpt>
      <trkpt lat="45.08308" lon="2.90952">
        <ele>1059.524808</ele>
        <time>2021-07-08T16:18:30+0200</time>
      </trkpt>
      <trkpt lat="45.08308" lon="2.90961">
        <ele>1059.483492</ele>
        <time>2021-07-08T16:18:31+0200</time>
      </trkpt>
      <trkpt lat="45.08309" lon="2.90971">
        <ele>1059.994604</ele>
        <time>2021-07-08T16:18:32+0200</time>
      </trkpt>
      <trkpt lat="45.0831" lon="2.9098">
        <ele>1059.916014</ele>
        <time>2021-07-08T16:18:33+0200</time>
      </trkpt>
      <trkpt lat="45.08311" lon="2.90989">
        <ele>1059.658411</ele>
        <time>2021-07-08T16:18:34+0200</time>
      </trkpt>
      <trkpt lat="45.08312" lon="2.90997">
        <ele>1059.427629</ele>
        <time>2021-07-08T16:18:35+0200</time>
      </trkpt>
      <trkpt lat="45.08314" lon="2.91006">
        <ele>1059.166434</ele>
        <time>2021-07-08T16:18:36+0200</time>
      </trkpt>
      <trkpt lat="45.08314" lon="2.91014">
        <ele>1058.776425</ele>
        <time>2021-07-08T16:18:37+0200</time>
      </trkpt>
      <trkpt lat="45.08315" lon="2.91022">
        <ele>1057.959832</ele>
        <time>2021-07-08T16:18:38+0200</time>
      </trkpt>
      <trkpt lat="45.08315" lon="2.9103">
        <ele>1057.544953</ele>
        <time>2021-07-08T16:18:39+0200</time>
      </trkpt>
      <trkpt lat="45.08317" lon="2.91037">
        <ele>1057.316926</ele>
        <time>2021-07-08T16:18:40+0200</time>
      </trkpt>
      <trkpt lat="45.08318" lon="2.91043">
        <ele>1057.057089</ele>
        <time>2021-07-08T16:18:41+0200</time>
      </trkpt>
      <trkpt lat="45.08319" lon="2.9105">
        <ele>1056.827307</ele>
        <time>2021-07-08T16:18:42+0200</time>
      </trkpt>
      <trkpt lat="45.0832" lon="2.91057">
        <ele>1056.814985</ele>
        <time>2021-07-08T16:18:43+0200</time>
      </trkpt>
      <trkpt lat="45.08322" lon="2.91063">
        <ele>1057.178314</ele>
        <time>2021-07-08T16:18:44+0200</time>
      </trkpt>
      <trkpt lat="45.08322" lon="2.9107">
        <ele>1056.890267</ele>
        <time>2021-07-08T16:18:45+0200</time>
      </trkpt>
      <trkpt lat="45.08322" lon="2.91076">
        <ele>1056.696535</ele>
        <time>2021-07-08T16:18:46+0200</time>
      </trkpt>
      <trkpt lat="45.08319" lon="2.91087">
        <ele>1056.630041</ele>
        <time>2021-07-08T16:18:48+0200</time>
      </trkpt>
      <trkpt lat="45.08315" lon="2.91095">
        <ele>1057.1107</ele>
        <time>2021-07-08T16:18:50+0200</time>
      </trkpt>
      <trkpt lat="45.0831" lon="2.91103">
        <ele>1057.321223</ele>
        <time>2021-07-08T16:18:52+0200</time>
      </trkpt>
      <trkpt lat="45.08304" lon="2.91113">
        <ele>1057.836936</ele>
        <time>2021-07-08T16:18:54+0200</time>
      </trkpt>
      <trkpt lat="45.08299" lon="2.91121">
        <ele>1059.276889</ele>
        <time>2021-07-08T16:18:56+0200</time>
      </trkpt>
      <trkpt lat="45.08295" lon="2.9113">
        <ele>1060.187064</ele>
        <time>2021-07-08T16:18:58+0200</time>
      </trkpt>
      <trkpt lat="45.08291" lon="2.91138">
        <ele>1060.108588</ele>
        <time>2021-07-08T16:19:00+0200</time>
      </trkpt>
      <trkpt lat="45.08287" lon="2.91148">
        <ele>1060.021015</ele>
        <time>2021-07-08T16:19:02+0200</time>
      </trkpt>
      <trkpt lat="45.08284" lon="2.91157">
        <ele>1060.243841</ele>
        <time>2021-07-08T16:19:04+0200</time>
      </trkpt>
      <trkpt lat="45.08281" lon="2.91168">
        <ele>1060.367634</ele>
        <time>2021-07-08T16:19:06+0200</time>
      </trkpt>
      <trkpt lat="45.08281" lon="2.91179">
        <ele>1061.297432</ele>
        <time>2021-07-08T16:19:08+0200</time>
      </trkpt>
      <trkpt lat="45.08282" lon="2.91189">
        <ele>1061.798619</ele>
        <time>2021-07-08T16:19:10+0200</time>
      </trkpt>
      <trkpt lat="45.08283" lon="2.91199">
        <ele>1062.175602</ele>
        <time>2021-07-08T16:19:12+0200</time>
      </trkpt>
      <trkpt lat="45.08283" lon="2.91209">
        <ele>1061.892874</ele>
        <time>2021-07-08T16:19:14+0200</time>
      </trkpt>
      <trkpt lat="45.08282" lon="2.91219">
        <ele>1061.752319</ele>
        <time>2021-07-08T16:19:16+0200</time>
      </trkpt>
      <trkpt lat="45.08281" lon="2.91229">
        <ele>1062.514188</ele>
        <time>2021-07-08T16:19:18+0200</time>
      </trkpt>
      <trkpt lat="45.08278" lon="2.91237">
        <ele>1062.609057</ele>
        <time>2021-07-08T16:19:20+0200</time>
      </trkpt>
      <trkpt lat="45.08275" lon="2.91244">
        <ele>1062.505842</ele>
        <time>2021-07-08T16:19:22+0200</time>
      </trkpt>
      <trkpt lat="45.08274" lon="2.91251">
        <ele>1063.752746</ele>
        <time>2021-07-08T16:19:24+0200</time>
      </trkpt>
      <trkpt lat="45.08276" lon="2.91257">
        <ele>1067.238854</ele>
        <time>2021-07-08T16:19:26+0200</time>
      </trkpt>
      <trkpt lat="45.08277" lon="2.91263">
        <ele>1070.441048</ele>
        <time>2021-07-08T16:19:28+0200</time>
      </trkpt>
      <trkpt lat="45.08276" lon="2.91269">
        <ele>1073.589818</ele>
        <time>2021-07-08T16:19:30+0200</time>
      </trkpt>
      <trkpt lat="45.08273" lon="2.91277">
        <ele>1071.148962</ele>
        <time>2021-07-08T16:19:32+0200</time>
      </trkpt>
      <trkpt lat="45.08269" lon="2.91283">
        <ele>1071.454609</ele>
        <time>2021-07-08T16:19:34+0200</time>
      </trkpt>
      <trkpt lat="45.08265" lon="2.91287">
        <ele>1072.20616</ele>
        <time>2021-07-08T16:19:36+0200</time>
      </trkpt>
      <trkpt lat="45.08262" lon="2.91292">
        <ele>1072.815553</ele>
        <time>2021-07-08T16:19:38+0200</time>
      </trkpt>
      <trkpt lat="45.08258" lon="2.91299">
        <ele>1072.694827</ele>
        <time>2021-07-08T16:19:40+0200</time>
      </trkpt>
      <trkpt lat="45.08255" lon="2.91305">
        <ele>1073.256949</ele>
        <time>2021-07-08T16:19:42+0200</time>
      </trkpt>
      <trkpt lat="45.08252" lon="2.9131">
        <ele>1074.565933</ele>
        <time>2021-07-08T16:19:44+0200</time>
      </trkpt>
      <trkpt lat="45.08249" lon="2.91316">
        <ele>1075.115516</ele>
        <time>2021-07-08T16:19:46+0200</time>
      </trkpt>
      <trkpt lat="45.08247" lon="2.91322">
        <ele>1075.640021</ele>
        <time>2021-07-08T16:19:48+0200</time>
      </trkpt>
      <trkpt lat="45.08246" lon="2.9133">
        <ele>1076.108864</ele>
        <time>2021-07-08T16:19:50+0200</time>
      </trkpt>
      <trkpt lat="45.08248" lon="2.91337">
        <ele>1073.847534</ele>
        <time>2021-07-08T16:26:57+0200</time>
      </trkpt>
      <trkpt lat="45.08248" lon="2.91345">
        <ele>1074.108192</ele>
        <time>2021-07-08T16:27:01+0200</time>
      </trkpt>
      <trkpt lat="45.0825" lon="2.91352">
        <ele>1073.080945</ele>
        <time>2021-07-08T16:27:04+0200</time>
      </trkpt>
      <trkpt lat="45.0825" lon="2.91361">
        <ele>1071.716749</ele>
        <time>2021-07-08T16:27:07+0200</time>
      </trkpt>
      <trkpt lat="45.0825" lon="2.91369">
        <ele>1071.803934</ele>
        <time>2021-07-08T16:27:11+0200</time>
      </trkpt>
      <trkpt lat="45.0825" lon="2.91378">
        <ele>1072.380265</ele>
        <time>2021-07-08T16:27:14+0200</time>
      </trkpt>
      <trkpt lat="45.08251" lon="2.91385">
        <ele>1072.655297</ele>
        <time>2021-07-08T16:27:16+0200</time>
      </trkpt>
      <trkpt lat="45.08252" lon="2.91393">
        <ele>1072.278294</ele>
        <time>2021-07-08T16:27:19+0200</time>
      </trkpt>
      <trkpt lat="45.08253" lon="2.914">
        <ele>1072.879407</ele>
        <time>2021-07-08T16:27:21+0200</time>
      </trkpt>
      <trkpt lat="45.08253" lon="2.91407">
        <ele>1072.814577</ele>
        <time>2021-07-08T16:27:23+0200</time>
      </trkpt>
      <trkpt lat="45.08253" lon="2.91415">
        <ele>1072.753144</ele>
        <time>2021-07-08T16:27:25+0200</time>
      </trkpt>
      <trkpt lat="45.08255" lon="2.91422">
        <ele>1072.349479</ele>
        <time>2021-07-08T16:27:27+0200</time>
      </trkpt>
      <trkpt lat="45.08257" lon="2.91429">
        <ele>1072.19244</ele>
        <time>2021-07-08T16:27:29+0200</time>
      </trkpt>
      <trkpt lat="45.0826" lon="2.91435">
        <ele>1072.651711</ele>
        <time>2021-07-08T16:27:31+0200</time>
      </trkpt>
      <trkpt lat="45.08263" lon="2.91441">
        <ele>1073.398304</ele>
        <time>2021-07-08T16:27:33+0200</time>
      </trkpt>
      <trkpt lat="45.08268" lon="2.91448">
        <ele>1072.281985</ele>
        <time>2021-07-08T16:27:35+0200</time>
      </trkpt>
      <trkpt lat="45.08273" lon="2.91454">
        <ele>1073.750094</ele>
        <time>2021-07-08T16:27:37+0200</time>
      </trkpt>
      <trkpt lat="45.08279" lon="2.91462">
        <ele>1073.766132</ele>
        <time>2021-07-08T16:27:39+0200</time>
      </trkpt>
      <trkpt lat="45.08283" lon="2.91472">
        <ele>1073.947282</ele>
        <time>2021-07-08T16:27:41+0200</time>
      </trkpt>
      <trkpt lat="45.08286" lon="2.91482">
        <ele>1074.765018</ele>
        <time>2021-07-08T16:27:43+0200</time>
      </trkpt>
      <trkpt lat="45.08289" lon="2.91492">
        <ele>1074.561023</ele>
        <time>2021-07-08T16:27:45+0200</time>
      </trkpt>
      <trkpt lat="45.08292" lon="2.91501">
        <ele>1077.31271</ele>
        <time>2021-07-08T16:27:47+0200</time>
      </trkpt>
      <trkpt lat="45.08294" lon="2.91514">
        <ele>1078.812363</ele>
        <time>2021-07-08T16:27:49+0200</time>
      </trkpt>
      <trkpt lat="45.08296" lon="2.91526">
        <ele>1078.20289</ele>
        <time>2021-07-08T16:27:51+0200</time>
      </trkpt>
      <trkpt lat="45.08296" lon="2.91533">
        <ele>1078.660855</ele>
        <time>2021-07-08T16:27:52+0200</time>
      </trkpt>
      <trkpt lat="45.08295" lon="2.91545">
        <ele>1078.08394</ele>
        <time>2021-07-08T16:27:54+0200</time>
      </trkpt>
      <trkpt lat="45.08291" lon="2.91554">
        <ele>1078.895478</ele>
        <time>2021-07-08T16:27:56+0200</time>
      </trkpt>
      <trkpt lat="45.08287" lon="2.91563">
        <ele>1079.622743</ele>
        <time>2021-07-08T16:27:58+0200</time>
      </trkpt>
      <trkpt lat="45.08282" lon="2.91572">
        <ele>1079.149103</ele>
        <time>2021-07-08T16:28:00+0200</time>
      </trkpt>
      <trkpt lat="45.08277" lon="2.91581">
        <ele>1077.852353</ele>
        <time>2021-07-08T16:28:02+0200</time>
      </trkpt>
      <trkpt lat="45.08273" lon="2.91593">
        <ele>1075.001412</ele>
        <time>2021-07-08T16:28:04+0200</time>
      </trkpt>
      <trkpt lat="45.08274" lon="2.91604">
        <ele>1073.73885</ele>
        <time>2021-07-08T16:28:06+0200</time>
      </trkpt>
      <trkpt lat="45.08276" lon="2.91618">
        <ele>1073.684383</ele>
        <time>2021-07-08T16:28:08+0200</time>
      </trkpt>
      <trkpt lat="45.08278" lon="2.9163">
        <ele>1072.687835</ele>
        <time>2021-07-08T16:28:10+0200</time>
      </trkpt>
      <trkpt lat="45.08279" lon="2.91637">
        <ele>1072.351963</ele>
        <time>2021-07-08T16:28:11+0200</time>
      </trkpt>
      <trkpt lat="45.0828" lon="2.91644">
        <ele>1072.191903</ele>
        <time>2021-07-08T16:28:12+0200</time>
      </trkpt>
      <trkpt lat="45.0828" lon="2.91651">
        <ele>1071.820806</ele>
        <time>2021-07-08T16:28:13+0200</time>
      </trkpt>
      <trkpt lat="45.08281" lon="2.91659">
        <ele>1071.899181</ele>
        <time>2021-07-08T16:28:14+0200</time>
      </trkpt>
      <trkpt lat="45.0828" lon="2.91666">
        <ele>1071.592251</ele>
        <time>2021-07-08T16:28:15+0200</time>
      </trkpt>
      <trkpt lat="45.0828" lon="2.91673">
        <ele>1071.397888</ele>
        <time>2021-07-08T16:28:16+0200</time>
      </trkpt>
      <trkpt lat="45.0828" lon="2.9168">
        <ele>1070.692765</ele>
        <time>2021-07-08T16:28:17+0200</time>
      </trkpt>
      <trkpt lat="45.0828" lon="2.91686">
        <ele>1070.909567</ele>
        <time>2021-07-08T16:28:18+0200</time>
      </trkpt>
      <trkpt lat="45.0828" lon="2.91693">
        <ele>1070.82651</ele>
        <time>2021-07-08T16:28:19+0200</time>
      </trkpt>
      <trkpt lat="45.08281" lon="2.91701">
        <ele>1070.684379</ele>
        <time>2021-07-08T16:28:20+0200</time>
      </trkpt>
      <trkpt lat="45.08283" lon="2.91709">
        <ele>1071.169297</ele>
        <time>2021-07-08T16:28:21+0200</time>
      </trkpt>
      <trkpt lat="45.08285" lon="2.91717">
        <ele>1072.680755</ele>
        <time>2021-07-08T16:28:22+0200</time>
      </trkpt>
      <trkpt lat="45.08287" lon="2.91726">
        <ele>1072.862686</ele>
        <time>2021-07-08T16:28:23+0200</time>
      </trkpt>
      <trkpt lat="45.08287" lon="2.91735">
        <ele>1072.513797</ele>
        <time>2021-07-08T16:28:24+0200</time>
      </trkpt>
      <trkpt lat="45.08288" lon="2.91744">
        <ele>1071.738191</ele>
        <time>2021-07-08T16:28:25+0200</time>
      </trkpt>
      <trkpt lat="45.08289" lon="2.91754">
        <ele>1070.056829</ele>
        <time>2021-07-08T16:28:26+0200</time>
      </trkpt>
      <trkpt lat="45.08289" lon="2.91765">
        <ele>1069.036649</ele>
        <time>2021-07-08T16:28:27+0200</time>
      </trkpt>
      <trkpt lat="45.08289" lon="2.91776">
        <ele>1068.010327</ele>
        <time>2021-07-08T16:28:28+0200</time>
      </trkpt>
      <trkpt lat="45.08289" lon="2.91787">
        <ele>1067.856093</ele>
        <time>2021-07-08T16:28:29+0200</time>
      </trkpt>
      <trkpt lat="45.08289" lon="2.91797">
        <ele>1067.490612</ele>
        <time>2021-07-08T16:28:30+0200</time>
      </trkpt>
      <trkpt lat="45.08288" lon="2.91808">
        <ele>1066.818881</ele>
        <time>2021-07-08T16:28:31+0200</time>
      </trkpt>
      <trkpt lat="45.08287" lon="2.91818">
        <ele>1066.444764</ele>
        <time>2021-07-08T16:28:32+0200</time>
      </trkpt>
      <trkpt lat="45.08286" lon="2.91829">
        <ele>1066.110902</ele>
        <time>2021-07-08T16:28:33+0200</time>
      </trkpt>
      <trkpt lat="45.08284" lon="2.91839">
        <ele>1065.622607</ele>
        <time>2021-07-08T16:28:34+0200</time>
      </trkpt>
      <trkpt lat="45.08283" lon="2.9185">
        <ele>1064.704599</ele>
        <time>2021-07-08T16:28:35+0200</time>
      </trkpt>
      <trkpt lat="45.08282" lon="2.91861">
        <ele>1064.014657</ele>
        <time>2021-07-08T16:28:36+0200</time>
      </trkpt>
      <trkpt lat="45.08283" lon="2.91871">
        <ele>1063.805562</ele>
        <time>2021-07-08T16:28:37+0200</time>
      </trkpt>
      <trkpt lat="45.08285" lon="2.91881">
        <ele>1063.826849</ele>
        <time>2021-07-08T16:28:38+0200</time>
      </trkpt>
      <trkpt lat="45.08286" lon="2.91892">
        <ele>1063.337257</ele>
        <time>2021-07-08T16:28:39+0200</time>
      </trkpt>
      <trkpt lat="45.08287" lon="2.91902">
        <ele>1062.874488</ele>
        <time>2021-07-08T16:28:40+0200</time>
      </trkpt>
      <trkpt lat="45.08289" lon="2.91913">
        <ele>1063.180241</ele>
        <time>2021-07-08T16:28:41+0200</time>
      </trkpt>
      <trkpt lat="45.0829" lon="2.91924">
        <ele>1062.531198</ele>
        <time>2021-07-08T16:28:42+0200</time>
      </trkpt>
      <trkpt lat="45.08292" lon="2.91934">
        <ele>1061.504457</ele>
        <time>2021-07-08T16:28:43+0200</time>
      </trkpt>
      <trkpt lat="45.08295" lon="2.91944">
        <ele>1061.194409</ele>
        <time>2021-07-08T16:28:44+0200</time>
      </trkpt>
      <trkpt lat="45.08297" lon="2.91954">
        <ele>1061.13837</ele>
        <time>2021-07-08T16:28:45+0200</time>
      </trkpt>
      <trkpt lat="45.08299" lon="2.91964">
        <ele>1060.411516</ele>
        <time>2021-07-08T16:28:46+0200</time>
      </trkpt>
      <trkpt lat="45.08303" lon="2.91974">
        <ele>1059.79392</ele>
        <time>2021-07-08T16:28:47+0200</time>
      </trkpt>
      <trkpt lat="45.08306" lon="2.91984">
        <ele>1059.715097</ele>
        <time>2021-07-08T16:28:48+0200</time>
      </trkpt>
      <trkpt lat="45.08308" lon="2.91995">
        <ele>1059.184515</ele>
        <time>2021-07-08T16:28:49+0200</time>
      </trkpt>
      <trkpt lat="45.08309" lon="2.92007">
        <ele>1058.321505</ele>
        <time>2021-07-08T16:28:50+0200</time>
      </trkpt>
      <trkpt lat="45.08309" lon="2.92018">
        <ele>1057.733887</ele>
        <time>2021-07-08T16:28:51+0200</time>
      </trkpt>
      <trkpt lat="45.08309" lon="2.9203">
        <ele>1057.969551</ele>
        <time>2021-07-08T16:28:52+0200</time>
      </trkpt>
      <trkpt lat="45.08309" lon="2.92042">
        <ele>1057.315446</ele>
        <time>2021-07-08T16:28:53+0200</time>
      </trkpt>
      <trkpt lat="45.08308" lon="2.92054">
        <ele>1056.129918</ele>
        <time>2021-07-08T16:28:54+0200</time>
      </trkpt>
      <trkpt lat="45.08308" lon="2.92066">
        <ele>1055.4968</ele>
        <time>2021-07-08T16:28:55+0200</time>
      </trkpt>
      <trkpt lat="45.08306" lon="2.92078">
        <ele>1054.42935</ele>
        <time>2021-07-08T16:28:56+0200</time>
      </trkpt>
      <trkpt lat="45.08303" lon="2.92091">
        <ele>1053.611747</ele>
        <time>2021-07-08T16:28:57+0200</time>
      </trkpt>
      <trkpt lat="45.08301" lon="2.92105">
        <ele>1053.213551</ele>
        <time>2021-07-08T16:28:58+0200</time>
      </trkpt>
      <trkpt lat="45.08299" lon="2.92118">
        <ele>1052.188072</ele>
        <time>2021-07-08T16:28:59+0200</time>
      </trkpt>
      <trkpt lat="45.08298" lon="2.92131">
        <ele>1051.580706</ele>
        <time>2021-07-08T16:29:00+0200</time>
      </trkpt>
      <trkpt lat="45.08296" lon="2.92144">
        <ele>1051.771347</ele>
        <time>2021-07-08T16:29:01+0200</time>
      </trkpt>
      <trkpt lat="45.08295" lon="2.92157">
        <ele>1051.634692</ele>
        <time>2021-07-08T16:29:02+0200</time>
      </trkpt>
      <trkpt lat="45.08297" lon="2.92169">
        <ele>1051.544692</ele>
        <time>2021-07-08T16:29:03+0200</time>
      </trkpt>
      <trkpt lat="45.08302" lon="2.92183">
        <ele>1050.488313</ele>
        <time>2021-07-08T16:29:04+0200</time>
      </trkpt>
      <trkpt lat="45.08305" lon="2.92195">
        <ele>1049.912156</ele>
        <time>2021-07-08T16:29:05+0200</time>
      </trkpt>
      <trkpt lat="45.08306" lon="2.92208">
        <ele>1049.04423</ele>
        <time>2021-07-08T16:29:06+0200</time>
      </trkpt>
      <trkpt lat="45.08302" lon="2.92222">
        <ele>1048.452573</ele>
        <time>2021-07-08T16:29:07+0200</time>
      </trkpt>
      <trkpt lat="45.08301" lon="2.92236">
        <ele>1047.78272</ele>
        <time>2021-07-08T16:29:08+0200</time>
      </trkpt>
      <trkpt lat="45.08289" lon="2.92241">
        <ele>1048.230749</ele>
        <time>2021-07-08T16:29:09+0200</time>
      </trkpt>
      <trkpt lat="45.08283" lon="2.92252">
        <ele>1048.303788</ele>
        <time>2021-07-08T16:29:10+0200</time>
      </trkpt>
      <trkpt lat="45.08277" lon="2.92263">
        <ele>1047.860004</ele>
        <time>2021-07-08T16:29:11+0200</time>
      </trkpt>
      <trkpt lat="45.0827" lon="2.92275">
        <ele>1047.459129</ele>
        <time>2021-07-08T16:29:12+0200</time>
      </trkpt>
      <trkpt lat="45.08264" lon="2.92285">
        <ele>1046.926121</ele>
        <time>2021-07-08T16:29:13+0200</time>
      </trkpt>
      <trkpt lat="45.08258" lon="2.92294">
        <ele>1046.440803</ele>
        <time>2021-07-08T16:29:14+0200</time>
      </trkpt>
      <trkpt lat="45.08252" lon="2.92304">
        <ele>1045.906352</ele>
        <time>2021-07-08T16:29:15+0200</time>
      </trkpt>
      <trkpt lat="45.08247" lon="2.92314">
        <ele>1045.593654</ele>
        <time>2021-07-08T16:29:16+0200</time>
      </trkpt>
      <trkpt lat="45.08241" lon="2.92324">
        <ele>1045.216041</ele>
        <time>2021-07-08T16:29:17+0200</time>
      </trkpt>
      <trkpt lat="45.08236" lon="2.92333">
        <ele>1045.086649</ele>
        <time>2021-07-08T16:29:18+0200</time>
      </trkpt>
      <trkpt lat="45.08231" lon="2.92342">
        <ele>1045.014558</ele>
        <time>2021-07-08T16:29:19+0200</time>
      </trkpt>
      <trkpt lat="45.08226" lon="2.9235">
        <ele>1044.964075</ele>
        <time>2021-07-08T16:29:20+0200</time>
      </trkpt>
      <trkpt lat="45.08222" lon="2.92359">
        <ele>1044.94712</ele>
        <time>2021-07-08T16:29:21+0200</time>
      </trkpt>
      <trkpt lat="45.08217" lon="2.92368">
        <ele>1044.850966</ele>
        <time>2021-07-08T16:29:22+0200</time>
      </trkpt>
      <trkpt lat="45.08214" lon="2.92376">
        <ele>1044.717227</ele>
        <time>2021-07-08T16:29:23+0200</time>
      </trkpt>
      <trkpt lat="45.0821" lon="2.92384">
        <ele>1044.607889</ele>
        <time>2021-07-08T16:29:24+0200</time>
      </trkpt>
      <trkpt lat="45.08206" lon="2.92393">
        <ele>1044.484794</ele>
        <time>2021-07-08T16:29:25+0200</time>
      </trkpt>
      <trkpt lat="45.08202" lon="2.924">
        <ele>1044.420003</ele>
        <time>2021-07-08T16:29:26+0200</time>
      </trkpt>
      <trkpt lat="45.08198" lon="2.92408">
        <ele>1044.221564</ele>
        <time>2021-07-08T16:29:27+0200</time>
      </trkpt>
      <trkpt lat="45.08195" lon="2.92416">
        <ele>1038.255131</ele>
        <time>2021-07-08T16:29:28+0200</time>
      </trkpt>
      <trkpt lat="45.08191" lon="2.92425">
        <ele>1038.199723</ele>
        <time>2021-07-08T16:29:29+0200</time>
      </trkpt>
      <trkpt lat="45.08189" lon="2.92433">
        <ele>1038.214228</ele>
        <time>2021-07-08T16:29:30+0200</time>
      </trkpt>
      <trkpt lat="45.08184" lon="2.92439">
        <ele>1039.463771</ele>
        <time>2021-07-08T16:29:31+0200</time>
      </trkpt>
      <trkpt lat="45.08181" lon="2.92446">
        <ele>1039.236132</ele>
        <time>2021-07-08T16:29:32+0200</time>
      </trkpt>
      <trkpt lat="45.08177" lon="2.92453">
        <ele>1039.010026</ele>
        <time>2021-07-08T16:29:33+0200</time>
      </trkpt>
      <trkpt lat="45.08173" lon="2.92461">
        <ele>1038.973318</ele>
        <time>2021-07-08T16:29:34+0200</time>
      </trkpt>
      <trkpt lat="45.0817" lon="2.92469">
        <ele>1038.840905</ele>
        <time>2021-07-08T16:29:35+0200</time>
      </trkpt>
      <trkpt lat="45.08166" lon="2.92477">
        <ele>1038.399735</ele>
        <time>2021-07-08T16:29:36+0200</time>
      </trkpt>
      <trkpt lat="45.08163" lon="2.92485">
        <ele>1038.036593</ele>
        <time>2021-07-08T16:29:37+0200</time>
      </trkpt>
      <trkpt lat="45.08159" lon="2.92493">
        <ele>1037.556876</ele>
        <time>2021-07-08T16:29:38+0200</time>
      </trkpt>
      <trkpt lat="45.08155" lon="2.92501">
        <ele>1037.376404</ele>
        <time>2021-07-08T16:29:39+0200</time>
      </trkpt>
      <trkpt lat="45.08152" lon="2.92509">
        <ele>1036.855395</ele>
        <time>2021-07-08T16:29:40+0200</time>
      </trkpt>
      <trkpt lat="45.08148" lon="2.92518">
        <ele>1036.677047</ele>
        <time>2021-07-08T16:29:41+0200</time>
      </trkpt>
      <trkpt lat="45.08145" lon="2.92526">
        <ele>1036.682421</ele>
        <time>2021-07-08T16:29:42+0200</time>
      </trkpt>
      <trkpt lat="45.08142" lon="2.92536">
        <ele>1036.59717</ele>
        <time>2021-07-08T16:29:43+0200</time>
      </trkpt>
      <trkpt lat="45.0814" lon="2.92545">
        <ele>1036.537834</ele>
        <time>2021-07-08T16:29:44+0200</time>
      </trkpt>
      <trkpt lat="45.08138" lon="2.92555">
        <ele>1036.616528</ele>
        <time>2021-07-08T16:29:45+0200</time>
      </trkpt>
      <trkpt lat="45.08135" lon="2.92565">
        <ele>1036.477888</ele>
        <time>2021-07-08T16:29:46+0200</time>
      </trkpt>
      <trkpt lat="45.08132" lon="2.92575">
        <ele>1036.910523</ele>
        <time>2021-07-08T16:29:47+0200</time>
      </trkpt>
      <trkpt lat="45.08129" lon="2.92585">
        <ele>1036.541206</ele>
        <time>2021-07-08T16:29:48+0200</time>
      </trkpt>
      <trkpt lat="45.08125" lon="2.92596">
        <ele>1036.389824</ele>
        <time>2021-07-08T16:29:49+0200</time>
      </trkpt>
      <trkpt lat="45.0812" lon="2.92605">
        <ele>1035.694248</ele>
        <time>2021-07-08T16:29:50+0200</time>
      </trkpt>
      <trkpt lat="45.08115" lon="2.92615">
        <ele>1035.678394</ele>
        <time>2021-07-08T16:29:51+0200</time>
      </trkpt>
      <trkpt lat="45.0811" lon="2.92624">
        <ele>1035.216945</ele>
        <time>2021-07-08T16:29:52+0200</time>
      </trkpt>
      <trkpt lat="45.08105" lon="2.92634">
        <ele>1035.043834</ele>
        <time>2021-07-08T16:29:53+0200</time>
      </trkpt>
      <trkpt lat="45.081" lon="2.92643">
        <ele>1035.113089</ele>
        <time>2021-07-08T16:29:54+0200</time>
      </trkpt>
      <trkpt lat="45.08095" lon="2.92652">
        <ele>1035.306362</ele>
        <time>2021-07-08T16:29:55+0200</time>
      </trkpt>
      <trkpt lat="45.08089" lon="2.92661">
        <ele>1034.742849</ele>
        <time>2021-07-08T16:29:56+0200</time>
      </trkpt>
      <trkpt lat="45.08084" lon="2.9267">
        <ele>1034.505073</ele>
        <time>2021-07-08T16:29:57+0200</time>
      </trkpt>
      <trkpt lat="45.08078" lon="2.92679">
        <ele>1034.041751</ele>
        <time>2021-07-08T16:29:58+0200</time>
      </trkpt>
      <trkpt lat="45.08073" lon="2.92688">
        <ele>1033.665941</ele>
        <time>2021-07-08T16:29:59+0200</time>
      </trkpt>
      <trkpt lat="45.08067" lon="2.92697">
        <ele>1033.45441</ele>
        <time>2021-07-08T16:30:00+0200</time>
      </trkpt>
      <trkpt lat="45.08062" lon="2.92706">
        <ele>1032.95808</ele>
        <time>2021-07-08T16:30:01+0200</time>
      </trkpt>
      <trkpt lat="45.08056" lon="2.92714">
        <ele>1032.833161</ele>
        <time>2021-07-08T16:30:02+0200</time>
      </trkpt>
      <trkpt lat="45.08053" lon="2.92725">
        <ele>1033.016242</ele>
        <time>2021-07-08T16:30:03+0200</time>
      </trkpt>
      <trkpt lat="45.0805" lon="2.92735">
        <ele>1033.145404</ele>
        <time>2021-07-08T16:30:04+0200</time>
      </trkpt>
      <trkpt lat="45.08049" lon="2.92746">
        <ele>1033.671631</ele>
        <time>2021-07-08T16:30:05+0200</time>
      </trkpt>
      <trkpt lat="45.08048" lon="2.92757">
        <ele>1034.071257</ele>
        <time>2021-07-08T16:30:06+0200</time>
      </trkpt>
      <trkpt lat="45.08048" lon="2.92768">
        <ele>1034.066088</ele>
        <time>2021-07-08T16:30:07+0200</time>
      </trkpt>
      <trkpt lat="45.08048" lon="2.92779">
        <ele>1033.763301</ele>
        <time>2021-07-08T16:30:08+0200</time>
      </trkpt>
      <trkpt lat="45.08049" lon="2.9279">
        <ele>1033.442193</ele>
        <time>2021-07-08T16:30:09+0200</time>
      </trkpt>
      <trkpt lat="45.0805" lon="2.92801">
        <ele>1032.964144</ele>
        <time>2021-07-08T16:30:10+0200</time>
      </trkpt>
      <trkpt lat="45.08051" lon="2.92812">
        <ele>1033.001016</ele>
        <time>2021-07-08T16:30:11+0200</time>
      </trkpt>
      <trkpt lat="45.08052" lon="2.92824">
        <ele>1032.382424</ele>
        <time>2021-07-08T16:30:12+0200</time>
      </trkpt>
      <trkpt lat="45.08052" lon="2.92836">
        <ele>1031.516622</ele>
        <time>2021-07-08T16:30:13+0200</time>
      </trkpt>
      <trkpt lat="45.08053" lon="2.92846">
        <ele>1031.065597</ele>
        <time>2021-07-08T16:30:14+0200</time>
      </trkpt>
      <trkpt lat="45.08054" lon="2.92856">
        <ele>1030.35642</ele>
        <time>2021-07-08T16:30:15+0200</time>
      </trkpt>
      <trkpt lat="45.08056" lon="2.92866">
        <ele>1030.32905</ele>
        <time>2021-07-08T16:30:16+0200</time>
      </trkpt>
      <trkpt lat="45.08057" lon="2.92876">
        <ele>1030.583481</ele>
        <time>2021-07-08T16:30:17+0200</time>
      </trkpt>
      <trkpt lat="45.08059" lon="2.92886">
        <ele>1030.010571</ele>
        <time>2021-07-08T16:30:18+0200</time>
      </trkpt>
      <trkpt lat="45.08061" lon="2.92898">
        <ele>1030.318116</ele>
        <time>2021-07-08T16:30:19+0200</time>
      </trkpt>
      <trkpt lat="45.08061" lon="2.92908">
        <ele>1030.704409</ele>
        <time>2021-07-08T16:30:20+0200</time>
      </trkpt>
      <trkpt lat="45.08063" lon="2.92919">
        <ele>1030.590448</ele>
        <time>2021-07-08T16:30:21+0200</time>
      </trkpt>
      <trkpt lat="45.08064" lon="2.92929">
        <ele>1030.284976</ele>
        <time>2021-07-08T16:30:22+0200</time>
      </trkpt>
      <trkpt lat="45.08065" lon="2.92941">
        <ele>1030.141336</ele>
        <time>2021-07-08T16:30:23+0200</time>
      </trkpt>
      <trkpt lat="45.08065" lon="2.92953">
        <ele>1029.592208</ele>
        <time>2021-07-08T16:30:24+0200</time>
      </trkpt>
      <trkpt lat="45.08064" lon="2.92965">
        <ele>1029.267534</ele>
        <time>2021-07-08T16:30:25+0200</time>
      </trkpt>
      <trkpt lat="45.08063" lon="2.92976">
        <ele>1028.623594</ele>
        <time>2021-07-08T16:30:26+0200</time>
      </trkpt>
      <trkpt lat="45.0806" lon="2.92987">
        <ele>1027.971402</ele>
        <time>2021-07-08T16:30:27+0200</time>
      </trkpt>
      <trkpt lat="45.08058" lon="2.92998">
        <ele>1027.520841</ele>
        <time>2021-07-08T16:30:28+0200</time>
      </trkpt>
      <trkpt lat="45.08056" lon="2.93008">
        <ele>1027.020962</ele>
        <time>2021-07-08T16:30:29+0200</time>
      </trkpt>
      <trkpt lat="45.08055" lon="2.93017">
        <ele>1027.954968</ele>
        <time>2021-07-08T16:30:30+0200</time>
      </trkpt>
      <trkpt lat="45.08055" lon="2.93029">
        <ele>1028.39739</ele>
        <time>2021-07-08T16:30:31+0200</time>
      </trkpt>
      <trkpt lat="45.08054" lon="2.9304">
        <ele>1028.862876</ele>
        <time>2021-07-08T16:30:32+0200</time>
      </trkpt>
      <trkpt lat="45.08053" lon="2.93047">
        <ele>1028.570351</ele>
        <time>2021-07-08T16:30:33+0200</time>
      </trkpt>
      <trkpt lat="45.08052" lon="2.93054">
        <ele>1028.142874</ele>
        <time>2021-07-08T16:30:34+0200</time>
      </trkpt>
      <trkpt lat="45.0805" lon="2.93061">
        <ele>1028.801604</ele>
        <time>2021-07-08T16:30:35+0200</time>
      </trkpt>
      <trkpt lat="45.08049" lon="2.93068">
        <ele>1027.87792</ele>
        <time>2021-07-08T16:30:36+0200</time>
      </trkpt>
      <trkpt lat="45.08048" lon="2.93075">
        <ele>1028.139722</ele>
        <time>2021-07-08T16:30:37+0200</time>
      </trkpt>
      <trkpt lat="45.08045" lon="2.93081">
        <ele>1028.414503</ele>
        <time>2021-07-08T16:30:38+0200</time>
      </trkpt>
      <trkpt lat="45.08042" lon="2.93088">
        <ele>1028.571156</ele>
        <time>2021-07-08T16:30:39+0200</time>
      </trkpt>
      <trkpt lat="45.0804" lon="2.93094">
        <ele>1028.09088</ele>
        <time>2021-07-08T16:30:40+0200</time>
      </trkpt>
      <trkpt lat="45.08037" lon="2.931">
        <ele>1028.025804</ele>
        <time>2021-07-08T16:30:41+0200</time>
      </trkpt>
      <trkpt lat="45.08032" lon="2.93105">
        <ele>1027.680422</ele>
        <time>2021-07-08T16:30:42+0200</time>
      </trkpt>
      <trkpt lat="45.08029" lon="2.9311">
        <ele>1027.037205</ele>
        <time>2021-07-08T16:30:43+0200</time>
      </trkpt>
      <trkpt lat="45.08025" lon="2.93115">
        <ele>1027.211966</ele>
        <time>2021-07-08T16:30:44+0200</time>
      </trkpt>
      <trkpt lat="45.08021" lon="2.9312">
        <ele>1027.29781</ele>
        <time>2021-07-08T16:30:45+0200</time>
      </trkpt>
      <trkpt lat="45.08017" lon="2.93124">
        <ele>1026.67565</ele>
        <time>2021-07-08T16:30:46+0200</time>
      </trkpt>
      <trkpt lat="45.08013" lon="2.93129">
        <ele>1026.407081</ele>
        <time>2021-07-08T16:30:47+0200</time>
      </trkpt>
      <trkpt lat="45.08009" lon="2.93133">
        <ele>1026.447042</ele>
        <time>2021-07-08T16:30:48+0200</time>
      </trkpt>
      <trkpt lat="45.08005" lon="2.93139">
        <ele>1025.845901</ele>
        <time>2021-07-08T16:30:49+0200</time>
      </trkpt>
      <trkpt lat="45.08002" lon="2.93144">
        <ele>1025.433322</ele>
        <time>2021-07-08T16:30:50+0200</time>
      </trkpt>
      <trkpt lat="45.07999" lon="2.93149">
        <ele>1025.585939</ele>
        <time>2021-07-08T16:30:51+0200</time>
      </trkpt>
      <trkpt lat="45.07996" lon="2.93155">
        <ele>1025.789416</ele>
        <time>2021-07-08T16:30:52+0200</time>
      </trkpt>
      <trkpt lat="45.07994" lon="2.93162">
        <ele>1026.196517</ele>
        <time>2021-07-08T16:30:53+0200</time>
      </trkpt>
      <trkpt lat="45.07993" lon="2.93169">
        <ele>1026.214923</ele>
        <time>2021-07-08T16:30:54+0200</time>
      </trkpt>
      <trkpt lat="45.07992" lon="2.93176">
        <ele>1026.074573</ele>
        <time>2021-07-08T16:30:55+0200</time>
      </trkpt>
      <trkpt lat="45.07992" lon="2.93184">
        <ele>1025.966311</ele>
        <time>2021-07-08T16:30:56+0200</time>
      </trkpt>
      <trkpt lat="45.07993" lon="2.93192">
        <ele>1025.934721</ele>
        <time>2021-07-08T16:30:57+0200</time>
      </trkpt>
      <trkpt lat="45.07993" lon="2.93201">
        <ele>1025.739402</ele>
        <time>2021-07-08T16:30:58+0200</time>
      </trkpt>
      <trkpt lat="45.07993" lon="2.93209">
        <ele>1025.663467</ele>
        <time>2021-07-08T16:30:59+0200</time>
      </trkpt>
      <trkpt lat="45.07993" lon="2.93217">
        <ele>1026.012038</ele>
        <time>2021-07-08T16:31:00+0200</time>
      </trkpt>
      <trkpt lat="45.07993" lon="2.93225">
        <ele>1026.234905</ele>
        <time>2021-07-08T16:31:01+0200</time>
      </trkpt>
      <trkpt lat="45.07993" lon="2.93233">
        <ele>1026.158202</ele>
        <time>2021-07-08T16:31:02+0200</time>
      </trkpt>
      <trkpt lat="45.07993" lon="2.93242">
        <ele>1025.512715</ele>
        <time>2021-07-08T16:31:03+0200</time>
      </trkpt>
      <trkpt lat="45.07993" lon="2.9325">
        <ele>1025.503525</ele>
        <time>2021-07-08T16:31:04+0200</time>
      </trkpt>
      <trkpt lat="45.07994" lon="2.93258">
        <ele>1025.31121</ele>
        <time>2021-07-08T16:31:05+0200</time>
      </trkpt>
      <trkpt lat="45.07994" lon="2.93266">
        <ele>1025.227364</ele>
        <time>2021-07-08T16:31:06+0200</time>
      </trkpt>
      <trkpt lat="45.07995" lon="2.93275">
        <ele>1024.973867</ele>
        <time>2021-07-08T16:31:07+0200</time>
      </trkpt>
      <trkpt lat="45.07995" lon="2.93283">
        <ele>1025.111572</ele>
        <time>2021-07-08T16:31:08+0200</time>
      </trkpt>
      <trkpt lat="45.07995" lon="2.93291">
        <ele>1025.378702</ele>
        <time>2021-07-08T16:31:09+0200</time>
      </trkpt>
      <trkpt lat="45.07995" lon="2.93299">
        <ele>1025.497037</ele>
        <time>2021-07-08T16:31:10+0200</time>
      </trkpt>
      <trkpt lat="45.07995" lon="2.93307">
        <ele>1025.350826</ele>
        <time>2021-07-08T16:31:11+0200</time>
      </trkpt>
      <trkpt lat="45.07995" lon="2.93315">
        <ele>1025.046328</ele>
        <time>2021-07-08T16:31:12+0200</time>
      </trkpt>
      <trkpt lat="45.07994" lon="2.93322">
        <ele>1025.045766</ele>
        <time>2021-07-08T16:31:13+0200</time>
      </trkpt>
      <trkpt lat="45.07993" lon="2.93329">
        <ele>1025.10362</ele>
        <time>2021-07-08T16:31:14+0200</time>
      </trkpt>
      <trkpt lat="45.07991" lon="2.93336">
        <ele>1025.235823</ele>
        <time>2021-07-08T16:31:15+0200</time>
      </trkpt>
      <trkpt lat="45.0799" lon="2.93343">
        <ele>1024.839322</ele>
        <time>2021-07-08T16:31:16+0200</time>
      </trkpt>
      <trkpt lat="45.07989" lon="2.9335">
        <ele>1023.755815</ele>
        <time>2021-07-08T16:31:17+0200</time>
      </trkpt>
      <trkpt lat="45.07987" lon="2.93359">
        <ele>1023.097134</ele>
        <time>2021-07-08T16:31:18+0200</time>
      </trkpt>
      <trkpt lat="45.07986" lon="2.93367">
        <ele>1023.072238</ele>
        <time>2021-07-08T16:31:19+0200</time>
      </trkpt>
      <trkpt lat="45.07984" lon="2.93377">
        <ele>1022.4966</ele>
        <time>2021-07-08T16:31:20+0200</time>
      </trkpt>
      <trkpt lat="45.07982" lon="2.93386">
        <ele>1022.363617</ele>
        <time>2021-07-08T16:31:21+0200</time>
      </trkpt>
      <trkpt lat="45.07981" lon="2.93397">
        <ele>1022.133467</ele>
        <time>2021-07-08T16:31:22+0200</time>
      </trkpt>
      <trkpt lat="45.07979" lon="2.93407">
        <ele>1021.874063</ele>
        <time>2021-07-08T16:31:23+0200</time>
      </trkpt>
      <trkpt lat="45.07977" lon="2.93414">
        <ele>1022.189577</ele>
        <time>2021-07-08T16:31:24+0200</time>
      </trkpt>
      <trkpt lat="45.0798" lon="2.9342">
        <ele>1022.734996</ele>
        <time>2021-07-08T16:31:26+0200</time>
      </trkpt>
      <trkpt lat="45.07986" lon="2.93421">
        <ele>1024.052999</ele>
        <time>2021-07-08T16:31:28+0200</time>
      </trkpt>
      <trkpt lat="45.07994" lon="2.93418">
        <ele>1023.026966</ele>
        <time>2021-07-08T16:31:30+0200</time>
      </trkpt>
      <trkpt lat="45.08" lon="2.93414">
        <ele>1023.37344</ele>
        <time>2021-07-08T16:31:32+0200</time>
      </trkpt>
      <trkpt lat="45.08005" lon="2.93413">
        <ele>1023.997018</ele>
        <time>2021-07-08T16:31:33+0200</time>
      </trkpt>
      <trkpt lat="45.0801" lon="2.93412">
        <ele>1024.181578</ele>
        <time>2021-07-08T16:31:34+0200</time>
      </trkpt>
      <trkpt lat="45.08015" lon="2.93412">
        <ele>1023.672731</ele>
        <time>2021-07-08T16:31:35+0200</time>
      </trkpt>
      <trkpt lat="45.0802" lon="2.9341">
        <ele>1023.625885</ele>
        <time>2021-07-08T16:31:36+0200</time>
      </trkpt>
      <trkpt lat="45.08025" lon="2.93408">
        <ele>1024.13219</ele>
        <time>2021-07-08T16:31:37+0200</time>
      </trkpt>
      <trkpt lat="45.0803" lon="2.93407">
        <ele>1025.062837</ele>
        <time>2021-07-08T16:31:38+0200</time>
      </trkpt>
      <trkpt lat="45.08035" lon="2.93406">
        <ele>1025.430774</ele>
        <time>2021-07-08T16:31:39+0200</time>
      </trkpt>
      <trkpt lat="45.0804" lon="2.93405">
        <ele>1026.210197</ele>
        <time>2021-07-08T16:31:40+0200</time>
      </trkpt>
      <trkpt lat="45.08045" lon="2.93404">
        <ele>1026.580043</ele>
        <time>2021-07-08T16:31:41+0200</time>
      </trkpt>
      <trkpt lat="45.0805" lon="2.93403">
        <ele>1026.483621</ele>
        <time>2021-07-08T16:31:42+0200</time>
      </trkpt>
      <trkpt lat="45.08055" lon="2.93402">
        <ele>1026.54993</ele>
        <time>2021-07-08T16:31:43+0200</time>
      </trkpt>
      <trkpt lat="45.08061" lon="2.93401">
        <ele>1026.626168</ele>
        <time>2021-07-08T16:31:44+0200</time>
      </trkpt>
      <trkpt lat="45.08066" lon="2.93399">
        <ele>1026.6809</ele>
        <time>2021-07-08T16:31:45+0200</time>
      </trkpt>
      <trkpt lat="45.08071" lon="2.93398">
        <ele>1027.196083</ele>
        <time>2021-07-08T16:31:46+0200</time>
      </trkpt>
      <trkpt lat="45.08076" lon="2.93397">
        <ele>1027.092358</ele>
        <time>2021-07-08T16:31:47+0200</time>
      </trkpt>
      <trkpt lat="45.0808" lon="2.93396">
        <ele>1026.839441</ele>
        <time>2021-07-08T16:31:48+0200</time>
      </trkpt>
      <trkpt lat="45.08085" lon="2.934">
        <ele>1026.087802</ele>
        <time>2021-07-08T16:31:49+0200</time>
      </trkpt>
      <trkpt lat="45.08089" lon="2.93407">
        <ele>1025.232653</ele>
        <time>2021-07-08T16:31:50+0200</time>
      </trkpt>
      <trkpt lat="45.08092" lon="2.93413">
        <ele>1024.925762</ele>
        <time>2021-07-08T16:31:51+0200</time>
      </trkpt>
      <trkpt lat="45.08087" lon="2.93426">
        <ele>1023.384374</ele>
        <time>2021-07-08T16:31:52+0200</time>
      </trkpt>
      <trkpt lat="45.08086" lon="2.93434">
        <ele>1023.125043</ele>
        <time>2021-07-08T16:31:53+0200</time>
      </trkpt>
      <trkpt lat="45.08085" lon="2.93442">
        <ele>1022.884781</ele>
        <time>2021-07-08T16:31:54+0200</time>
      </trkpt>
      <trkpt lat="45.08085" lon="2.93451">
        <ele>1022.624463</ele>
        <time>2021-07-08T16:31:55+0200</time>
      </trkpt>
      <trkpt lat="45.08084" lon="2.9346">
        <ele>1022.391346</ele>
        <time>2021-07-08T16:31:56+0200</time>
      </trkpt>
      <trkpt lat="45.08083" lon="2.93469">
        <ele>1022.093729</ele>
        <time>2021-07-08T16:31:57+0200</time>
      </trkpt>
      <trkpt lat="45.08083" lon="2.93479">
        <ele>1021.709818</ele>
        <time>2021-07-08T16:31:58+0200</time>
      </trkpt>
      <trkpt lat="45.08082" lon="2.93488">
        <ele>1021.431326</ele>
        <time>2021-07-08T16:31:59+0200</time>
      </trkpt>
      <trkpt lat="45.08081" lon="2.93497">
        <ele>1021.258025</ele>
        <time>2021-07-08T16:32:00+0200</time>
      </trkpt>
      <trkpt lat="45.0808" lon="2.93506">
        <ele>1020.927097</ele>
        <time>2021-07-08T16:32:01+0200</time>
      </trkpt>
      <trkpt lat="45.08079" lon="2.93516">
        <ele>1020.752563</ele>
        <time>2021-07-08T16:32:02+0200</time>
      </trkpt>
      <trkpt lat="45.08079" lon="2.93526">
        <ele>1020.43152</ele>
        <time>2021-07-08T16:32:03+0200</time>
      </trkpt>
      <trkpt lat="45.08078" lon="2.93536">
        <ele>1020.140899</ele>
        <time>2021-07-08T16:32:04+0200</time>
      </trkpt>
      <trkpt lat="45.08078" lon="2.93546">
        <ele>1019.884768</ele>
        <time>2021-07-08T16:32:05+0200</time>
      </trkpt>
      <trkpt lat="45.08077" lon="2.93556">
        <ele>1019.715917</ele>
        <time>2021-07-08T16:32:06+0200</time>
      </trkpt>
      <trkpt lat="45.08075" lon="2.93566">
        <ele>1019.453038</ele>
        <time>2021-07-08T16:32:07+0200</time>
      </trkpt>
      <trkpt lat="45.08071" lon="2.93575">
        <ele>1019.247141</ele>
        <time>2021-07-08T16:32:08+0200</time>
      </trkpt>
      <trkpt lat="45.08066" lon="2.93583">
        <ele>1019.286774</ele>
        <time>2021-07-08T16:32:09+0200</time>
      </trkpt>
      <trkpt lat="45.08062" lon="2.9359">
        <ele>1019.358285</ele>
        <time>2021-07-08T16:32:10+0200</time>
      </trkpt>
      <trkpt lat="45.08057" lon="2.93597">
        <ele>1014.431901</ele>
        <time>2021-07-08T16:32:11+0200</time>
      </trkpt>
      <trkpt lat="45.08053" lon="2.93602">
        <ele>1014.683369</ele>
        <time>2021-07-08T16:32:12+0200</time>
      </trkpt>
      <trkpt lat="45.08048" lon="2.93608">
        <ele>1013.954928</ele>
        <time>2021-07-08T16:32:13+0200</time>
      </trkpt>
      <trkpt lat="45.08043" lon="2.93613">
        <ele>1013.870097</ele>
        <time>2021-07-08T16:32:14+0200</time>
      </trkpt>
      <trkpt lat="45.08038" lon="2.93621">
        <ele>1013.297836</ele>
        <time>2021-07-08T16:32:15+0200</time>
      </trkpt>
      <trkpt lat="45.08037" lon="2.93632">
        <ele>1012.451793</ele>
        <time>2021-07-08T16:32:16+0200</time>
      </trkpt>
      <trkpt lat="45.08035" lon="2.93641">
        <ele>1012.167565</ele>
        <time>2021-07-08T16:32:17+0200</time>
      </trkpt>
      <trkpt lat="45.08046" lon="2.93651">
        <ele>1017.190954</ele>
        <time>2021-07-08T16:32:18+0200</time>
      </trkpt>
      <trkpt lat="45.0805" lon="2.93661">
        <ele>1016.810732</ele>
        <time>2021-07-08T16:32:19+0200</time>
      </trkpt>
      <trkpt lat="45.08054" lon="2.9367">
        <ele>1015.917396</ele>
        <time>2021-07-08T16:32:20+0200</time>
      </trkpt>
      <trkpt lat="45.08052" lon="2.93679">
        <ele>1015.090807</ele>
        <time>2021-07-08T16:32:21+0200</time>
      </trkpt>
      <trkpt lat="45.08043" lon="2.93685">
        <ele>1014.977149</ele>
        <time>2021-07-08T16:32:23+0200</time>
      </trkpt>
      <trkpt lat="45.08037" lon="2.93686">
        <ele>1014.690747</ele>
        <time>2021-07-08T16:32:24+0200</time>
      </trkpt>
      <trkpt lat="45.08032" lon="2.93687">
        <ele>1014.562638</ele>
        <time>2021-07-08T16:32:25+0200</time>
      </trkpt>
      <trkpt lat="45.08026" lon="2.93689">
        <ele>1014.511258</ele>
        <time>2021-07-08T16:32:26+0200</time>
      </trkpt>
      <trkpt lat="45.0802" lon="2.93692">
        <ele>1014.320598</ele>
        <time>2021-07-08T16:32:27+0200</time>
      </trkpt>
      <trkpt lat="45.08014" lon="2.93695">
        <ele>1014.099373</ele>
        <time>2021-07-08T16:32:28+0200</time>
      </trkpt>
      <trkpt lat="45.08009" lon="2.93698">
        <ele>1013.874639</ele>
        <time>2021-07-08T16:32:29+0200</time>
      </trkpt>
      <trkpt lat="45.08003" lon="2.937">
        <ele>1013.655718</ele>
        <time>2021-07-08T16:32:30+0200</time>
      </trkpt>
      <trkpt lat="45.07997" lon="2.93703">
        <ele>1013.448624</ele>
        <time>2021-07-08T16:32:31+0200</time>
      </trkpt>
      <trkpt lat="45.07991" lon="2.93704">
        <ele>1013.377788</ele>
        <time>2021-07-08T16:32:32+0200</time>
      </trkpt>
      <trkpt lat="45.07985" lon="2.93706">
        <ele>1013.208375</ele>
        <time>2021-07-08T16:32:33+0200</time>
      </trkpt>
      <trkpt lat="45.0798" lon="2.93708">
        <ele>1013.100145</ele>
        <time>2021-07-08T16:32:34+0200</time>
      </trkpt>
      <trkpt lat="45.07973" lon="2.93709">
        <ele>1012.878967</ele>
        <time>2021-07-08T16:32:35+0200</time>
      </trkpt>
      <trkpt lat="45.07967" lon="2.93711">
        <ele>1012.710669</ele>
        <time>2021-07-08T16:32:36+0200</time>
      </trkpt>
      <trkpt lat="45.07961" lon="2.93714">
        <ele>1012.69257</ele>
        <time>2021-07-08T16:32:37+0200</time>
      </trkpt>
      <trkpt lat="45.07955" lon="2.93717">
        <ele>1012.600352</ele>
        <time>2021-07-08T16:32:38+0200</time>
      </trkpt>
      <trkpt lat="45.07949" lon="2.93719">
        <ele>1012.360784</ele>
        <time>2021-07-08T16:32:39+0200</time>
      </trkpt>
      <trkpt lat="45.07942" lon="2.93722">
        <ele>1012.029936</ele>
        <time>2021-07-08T16:32:40+0200</time>
      </trkpt>
      <trkpt lat="45.07936" lon="2.93725">
        <ele>1011.712146</ele>
        <time>2021-07-08T16:32:41+0200</time>
      </trkpt>
      <trkpt lat="45.07929" lon="2.93728">
        <ele>1005.666749</ele>
        <time>2021-07-08T16:32:42+0200</time>
      </trkpt>
      <trkpt lat="45.07922" lon="2.93731">
        <ele>1005.353597</ele>
        <time>2021-07-08T16:32:43+0200</time>
      </trkpt>
      <trkpt lat="45.07916" lon="2.93733">
        <ele>1005.216353</ele>
        <time>2021-07-08T16:32:44+0200</time>
      </trkpt>
      <trkpt lat="45.07909" lon="2.93737">
        <ele>1004.956113</ele>
        <time>2021-07-08T16:32:45+0200</time>
      </trkpt>
      <trkpt lat="45.07902" lon="2.93739">
        <ele>1004.539944</ele>
        <time>2021-07-08T16:32:46+0200</time>
      </trkpt>
      <trkpt lat="45.07895" lon="2.93742">
        <ele>1004.328268</ele>
        <time>2021-07-08T16:32:47+0200</time>
      </trkpt>
      <trkpt lat="45.07889" lon="2.93747">
        <ele>1004.217744</ele>
        <time>2021-07-08T16:32:48+0200</time>
      </trkpt>
      <trkpt lat="45.07884" lon="2.93755">
        <ele>1004.192043</ele>
        <time>2021-07-08T16:32:49+0200</time>
      </trkpt>
      <trkpt lat="45.07882" lon="2.93765">
        <ele>1005.890068</ele>
        <time>2021-07-08T16:32:50+0200</time>
      </trkpt>
      <trkpt lat="45.07882" lon="2.93775">
        <ele>1007.619616</ele>
        <time>2021-07-08T16:32:51+0200</time>
      </trkpt>
      <trkpt lat="45.07885" lon="2.93782">
        <ele>1008.87538</ele>
        <time>2021-07-08T16:32:52+0200</time>
      </trkpt>
      <trkpt lat="45.07888" lon="2.93794">
        <ele>1008.894034</ele>
        <time>2021-07-08T16:32:54+0200</time>
      </trkpt>
      <trkpt lat="45.07889" lon="2.93802">
        <ele>1008.927184</ele>
        <time>2021-07-08T16:32:55+0200</time>
      </trkpt>
      <trkpt lat="45.07887" lon="2.9381">
        <ele>1009.065364</ele>
        <time>2021-07-08T16:32:56+0200</time>
      </trkpt>
      <trkpt lat="45.07885" lon="2.93818">
        <ele>1008.812136</ele>
        <time>2021-07-08T16:32:57+0200</time>
      </trkpt>
      <trkpt lat="45.07883" lon="2.93824">
        <ele>1010.00329</ele>
        <time>2021-07-08T16:32:58+0200</time>
      </trkpt>
      <trkpt lat="45.07882" lon="2.93834">
        <ele>1011.181783</ele>
        <time>2021-07-08T16:33:00+0200</time>
      </trkpt>
      <trkpt lat="45.07884" lon="2.93841">
        <ele>1014.687916</ele>
        <time>2021-07-08T16:33:02+0200</time>
      </trkpt>
      <trkpt lat="45.07884" lon="2.93848">
        <ele>1018.16461</ele>
        <time>2021-07-08T16:33:04+0200</time>
      </trkpt>
      <trkpt lat="45.07885" lon="2.93855">
        <ele>1019.875697</ele>
        <time>2021-07-08T16:33:06+0200</time>
      </trkpt>
      <trkpt lat="45.07884" lon="2.93865">
        <ele>1021.757806</ele>
        <time>2021-07-08T16:33:08+0200</time>
      </trkpt>
      <trkpt lat="45.07883" lon="2.93874">
        <ele>1022.721293</ele>
        <time>2021-07-08T16:33:10+0200</time>
      </trkpt>
      <trkpt lat="45.07886" lon="2.93882">
        <ele>1024.592577</ele>
        <time>2021-07-08T16:33:12+0200</time>
      </trkpt>
      <trkpt lat="45.07891" lon="2.93891">
        <ele>1024.657315</ele>
        <time>2021-07-08T16:33:14+0200</time>
      </trkpt>
      <trkpt lat="45.07896" lon="2.93899">
        <ele>1022.438695</ele>
        <time>2021-07-08T16:33:16+0200</time>
      </trkpt>
      <trkpt lat="45.07903" lon="2.93904">
        <ele>1022.021822</ele>
        <time>2021-07-08T16:33:18+0200</time>
      </trkpt>
      <trkpt lat="45.07907" lon="2.93913">
        <ele>1022.012372</ele>
        <time>2021-07-08T16:33:20+0200</time>
      </trkpt>
      <trkpt lat="45.07909" lon="2.93923">
        <ele>1021.412894</ele>
        <time>2021-07-08T16:33:22+0200</time>
      </trkpt>
      <trkpt lat="45.07908" lon="2.93935">
        <ele>1020.896727</ele>
        <time>2021-07-08T16:33:24+0200</time>
      </trkpt>
      <trkpt lat="45.07907" lon="2.93947">
        <ele>1019.731288</ele>
        <time>2021-07-08T16:33:26+0200</time>
      </trkpt>
      <trkpt lat="45.07906" lon="2.93954">
        <ele>1019.245965</ele>
        <time>2021-07-08T16:33:27+0200</time>
      </trkpt>
      <trkpt lat="45.07906" lon="2.93961">
        <ele>1018.856277</ele>
        <time>2021-07-08T16:33:28+0200</time>
      </trkpt>
      <trkpt lat="45.07904" lon="2.93968">
        <ele>1018.46088</ele>
        <time>2021-07-08T16:33:29+0200</time>
      </trkpt>
      <trkpt lat="45.07904" lon="2.93976">
        <ele>1018.004126</ele>
        <time>2021-07-08T16:33:30+0200</time>
      </trkpt>
      <trkpt lat="45.07903" lon="2.93985">
        <ele>1017.330677</ele>
        <time>2021-07-08T16:33:31+0200</time>
      </trkpt>
      <trkpt lat="45.07904" lon="2.93992">
        <ele>1017.965311</ele>
        <time>2021-07-08T16:33:32+0200</time>
      </trkpt>
      <trkpt lat="45.07906" lon="2.94">
        <ele>1018.21465</ele>
        <time>2021-07-08T16:33:33+0200</time>
      </trkpt>
      <trkpt lat="45.07908" lon="2.94007">
        <ele>1018.219769</ele>
        <time>2021-07-08T16:33:34+0200</time>
      </trkpt>
      <trkpt lat="45.0791" lon="2.94014">
        <ele>1018.190487</ele>
        <time>2021-07-08T16:33:35+0200</time>
      </trkpt>
      <trkpt lat="45.07913" lon="2.94021">
        <ele>1018.182219</ele>
        <time>2021-07-08T16:33:36+0200</time>
      </trkpt>
      <trkpt lat="45.07915" lon="2.94028">
        <ele>1017.705895</ele>
        <time>2021-07-08T16:33:37+0200</time>
      </trkpt>
      <trkpt lat="45.07918" lon="2.94034">
        <ele>1017.416073</ele>
        <time>2021-07-08T16:33:38+0200</time>
      </trkpt>
      <trkpt lat="45.07921" lon="2.9404">
        <ele>1016.760554</ele>
        <time>2021-07-08T16:33:39+0200</time>
      </trkpt>
      <trkpt lat="45.07923" lon="2.94046">
        <ele>1016.441767</ele>
        <time>2021-07-08T16:33:40+0200</time>
      </trkpt>
      <trkpt lat="45.07926" lon="2.94052">
        <ele>1015.313228</ele>
        <time>2021-07-08T16:33:41+0200</time>
      </trkpt>
      <trkpt lat="45.07929" lon="2.94058">
        <ele>1015.622025</ele>
        <time>2021-07-08T16:33:42+0200</time>
      </trkpt>
      <trkpt lat="45.07932" lon="2.94063">
        <ele>1015.681427</ele>
        <time>2021-07-08T16:33:43+0200</time>
      </trkpt>
      <trkpt lat="45.07935" lon="2.94069">
        <ele>1015.778829</ele>
        <time>2021-07-08T16:33:44+0200</time>
      </trkpt>
      <trkpt lat="45.07938" lon="2.94075">
        <ele>1015.024691</ele>
        <time>2021-07-08T16:33:45+0200</time>
      </trkpt>
      <trkpt lat="45.0794" lon="2.94081">
        <ele>1015.421722</ele>
        <time>2021-07-08T16:33:46+0200</time>
      </trkpt>
      <trkpt lat="45.07943" lon="2.94085">
        <ele>1015.625183</ele>
        <time>2021-07-08T16:33:47+0200</time>
      </trkpt>
      <trkpt lat="45.07945" lon="2.94092">
        <ele>1015.587839</ele>
        <time>2021-07-08T16:33:48+0200</time>
      </trkpt>
      <trkpt lat="45.07948" lon="2.94098">
        <ele>1015.595569</ele>
        <time>2021-07-08T16:33:49+0200</time>
      </trkpt>
      <trkpt lat="45.07951" lon="2.94103">
        <ele>1016.412372</ele>
        <time>2021-07-08T16:33:50+0200</time>
      </trkpt>
      <trkpt lat="45.07955" lon="2.94112">
        <ele>1018.608793</ele>
        <time>2021-07-08T16:33:52+0200</time>
      </trkpt>
      <trkpt lat="45.0796" lon="2.9412">
        <ele>1019.938986</ele>
        <time>2021-07-08T16:33:54+0200</time>
      </trkpt>
      <trkpt lat="45.07966" lon="2.94127">
        <ele>1021.294396</ele>
        <time>2021-07-08T16:33:56+0200</time>
      </trkpt>
      <trkpt lat="45.07971" lon="2.94133">
        <ele>1021.399329</ele>
        <time>2021-07-08T16:33:58+0200</time>
      </trkpt>
      <trkpt lat="45.07976" lon="2.94139">
        <ele>1020.624519</ele>
        <time>2021-07-08T16:34:00+0200</time>
      </trkpt>
      <trkpt lat="45.07981" lon="2.94143">
        <ele>1020.649532</ele>
        <time>2021-07-08T16:34:02+0200</time>
      </trkpt>
      <trkpt lat="45.07984" lon="2.94148">
        <ele>1013.826891</ele>
        <time>2021-07-08T16:34:38+0200</time>
      </trkpt>
      <trkpt lat="45.07988" lon="2.94154">
        <ele>1013.742083</ele>
        <time>2021-07-08T16:34:40+0200</time>
      </trkpt>
      <trkpt lat="45.07996" lon="2.94157">
        <ele>1014.779091</ele>
        <time>2021-07-08T16:34:42+0200</time>
      </trkpt>
      <trkpt lat="45.08001" lon="2.94157">
        <ele>1016.232072</ele>
        <time>2021-07-08T16:34:43+0200</time>
      </trkpt>
      <trkpt lat="45.08008" lon="2.94159">
        <ele>1018.578148</ele>
        <time>2021-07-08T16:34:45+0200</time>
      </trkpt>
      <trkpt lat="45.08017" lon="2.94159">
        <ele>1019.553035</ele>
        <time>2021-07-08T16:34:47+0200</time>
      </trkpt>
      <trkpt lat="45.08025" lon="2.94158">
        <ele>1020.637833</ele>
        <time>2021-07-08T16:34:49+0200</time>
      </trkpt>
      <trkpt lat="45.08032" lon="2.94159">
        <ele>1022.161687</ele>
        <time>2021-07-08T16:34:51+0200</time>
      </trkpt>
      <trkpt lat="45.08039" lon="2.94159">
        <ele>1022.949102</ele>
        <time>2021-07-08T16:34:53+0200</time>
      </trkpt>
      <trkpt lat="45.08048" lon="2.94162">
        <ele>1024.651998</ele>
        <time>2021-07-08T16:34:55+0200</time>
      </trkpt>
      <trkpt lat="45.08056" lon="2.94163">
        <ele>1025.258956</ele>
        <time>2021-07-08T16:34:57+0200</time>
      </trkpt>
      <trkpt lat="45.08063" lon="2.94166">
        <ele>1026.350535</ele>
        <time>2021-07-08T16:34:59+0200</time>
      </trkpt>
      <trkpt lat="45.0807" lon="2.94168">
        <ele>1026.954117</ele>
        <time>2021-07-08T16:35:01+0200</time>
      </trkpt>
      <trkpt lat="45.08078" lon="2.9417">
        <ele>1027.302789</ele>
        <time>2021-07-08T16:35:03+0200</time>
      </trkpt>
      <trkpt lat="45.08085" lon="2.94172">
        <ele>1028.433283</ele>
        <time>2021-07-08T16:35:05+0200</time>
      </trkpt>
      <trkpt lat="45.08092" lon="2.94174">
        <ele>1029.096438</ele>
        <time>2021-07-08T16:35:07+0200</time>
      </trkpt>
      <trkpt lat="45.081" lon="2.94176">
        <ele>1028.162106</ele>
        <time>2021-07-08T16:35:09+0200</time>
      </trkpt>
      <trkpt lat="45.08107" lon="2.9418">
        <ele>1028.214962</ele>
        <time>2021-07-08T16:35:11+0200</time>
      </trkpt>
      <trkpt lat="45.08114" lon="2.94182">
        <ele>1028.406452</ele>
        <time>2021-07-08T16:35:13+0200</time>
      </trkpt>
      <trkpt lat="45.08122" lon="2.94188">
        <ele>1028.063933</ele>
        <time>2021-07-08T16:35:15+0200</time>
      </trkpt>
      <trkpt lat="45.0813" lon="2.94194">
        <ele>1027.777642</ele>
        <time>2021-07-08T16:35:17+0200</time>
      </trkpt>
      <trkpt lat="45.08137" lon="2.94198">
        <ele>1028.275873</ele>
        <time>2021-07-08T16:35:19+0200</time>
      </trkpt>
      <trkpt lat="45.08144" lon="2.94205">
        <ele>1028.769198</ele>
        <time>2021-07-08T16:35:21+0200</time>
      </trkpt>
      <trkpt lat="45.08151" lon="2.94212">
        <ele>1029.058082</ele>
        <time>2021-07-08T16:35:23+0200</time>
      </trkpt>
      <trkpt lat="45.08156" lon="2.94216">
        <ele>1029.463447</ele>
        <time>2021-07-08T16:35:24+0200</time>
      </trkpt>
      <trkpt lat="45.08159" lon="2.9422">
        <ele>1030.184013</ele>
        <time>2021-07-08T16:35:25+0200</time>
      </trkpt>
      <trkpt lat="45.08166" lon="2.94226">
        <ele>1030.819466</ele>
        <time>2021-07-08T16:35:27+0200</time>
      </trkpt>
      <trkpt lat="45.08169" lon="2.9423">
        <ele>1030.996184</ele>
        <time>2021-07-08T16:35:28+0200</time>
      </trkpt>
      <trkpt lat="45.08174" lon="2.94233">
        <ele>1030.38555</ele>
        <time>2021-07-08T16:35:29+0200</time>
      </trkpt>
      <trkpt lat="45.08178" lon="2.94238">
        <ele>1030.214666</ele>
        <time>2021-07-08T16:35:30+0200</time>
      </trkpt>
      <trkpt lat="45.08183" lon="2.94241">
        <ele>1030.338446</ele>
        <time>2021-07-08T16:35:31+0200</time>
      </trkpt>
      <trkpt lat="45.08188" lon="2.94245">
        <ele>1030.550739</ele>
        <time>2021-07-08T16:35:32+0200</time>
      </trkpt>
      <trkpt lat="45.08196" lon="2.94252">
        <ele>1030.433268</ele>
        <time>2021-07-08T16:35:34+0200</time>
      </trkpt>
      <trkpt lat="45.082" lon="2.94256">
        <ele>1030.486196</ele>
        <time>2021-07-08T16:35:35+0200</time>
      </trkpt>
      <trkpt lat="45.08204" lon="2.9426">
        <ele>1030.383083</ele>
        <time>2021-07-08T16:35:36+0200</time>
      </trkpt>
      <trkpt lat="45.08208" lon="2.94263">
        <ele>1030.390938</ele>
        <time>2021-07-08T16:35:37+0200</time>
      </trkpt>
      <trkpt lat="45.08212" lon="2.94267">
        <ele>1030.429569</ele>
        <time>2021-07-08T16:35:38+0200</time>
      </trkpt>
      <trkpt lat="45.08218" lon="2.94275">
        <ele>1030.770309</ele>
        <time>2021-07-08T16:35:40+0200</time>
      </trkpt>
      <trkpt lat="45.08219" lon="2.94283">
        <ele>1030.544347</ele>
        <time>2021-07-08T16:35:41+0200</time>
      </trkpt>
      <trkpt lat="45.08218" lon="2.94291">
        <ele>1030.267271</ele>
        <time>2021-07-08T16:35:42+0200</time>
      </trkpt>
      <trkpt lat="45.08216" lon="2.94298">
        <ele>1030.441655</ele>
        <time>2021-07-08T16:35:43+0200</time>
      </trkpt>
      <trkpt lat="45.08213" lon="2.94307">
        <ele>1029.992209</ele>
        <time>2021-07-08T16:35:44+0200</time>
      </trkpt>
      <trkpt lat="45.08209" lon="2.94314">
        <ele>1028.670676</ele>
        <time>2021-07-08T16:35:45+0200</time>
      </trkpt>
      <trkpt lat="45.08205" lon="2.94324">
        <ele>1027.919197</ele>
        <time>2021-07-08T16:35:46+0200</time>
      </trkpt>
      <trkpt lat="45.08203" lon="2.94332">
        <ele>1027.978754</ele>
        <time>2021-07-08T16:35:47+0200</time>
      </trkpt>
      <trkpt lat="45.08204" lon="2.94343">
        <ele>1028.277925</ele>
        <time>2021-07-08T16:35:48+0200</time>
      </trkpt>
      <trkpt lat="45.08207" lon="2.94352">
        <ele>1028.049672</ele>
        <time>2021-07-08T16:35:49+0200</time>
      </trkpt>
      <trkpt lat="45.0821" lon="2.94361">
        <ele>1027.585659</ele>
        <time>2021-07-08T16:35:50+0200</time>
      </trkpt>
      <trkpt lat="45.08213" lon="2.94368">
        <ele>1027.23773</ele>
        <time>2021-07-08T16:35:51+0200</time>
      </trkpt>
      <trkpt lat="45.08217" lon="2.94376">
        <ele>1026.489882</ele>
        <time>2021-07-08T16:35:52+0200</time>
      </trkpt>
      <trkpt lat="45.0822" lon="2.94384">
        <ele>1026.442245</ele>
        <time>2021-07-08T16:35:53+0200</time>
      </trkpt>
      <trkpt lat="45.08224" lon="2.94392">
        <ele>1026.247621</ele>
        <time>2021-07-08T16:35:54+0200</time>
      </trkpt>
      <trkpt lat="45.08226" lon="2.94401">
        <ele>1026.235172</ele>
        <time>2021-07-08T16:35:55+0200</time>
      </trkpt>
      <trkpt lat="45.0823" lon="2.9441">
        <ele>1025.884575</ele>
        <time>2021-07-08T16:35:56+0200</time>
      </trkpt>
      <trkpt lat="45.08233" lon="2.94418">
        <ele>1025.36671</ele>
        <time>2021-07-08T16:35:57+0200</time>
      </trkpt>
      <trkpt lat="45.08237" lon="2.94427">
        <ele>1024.3093</ele>
        <time>2021-07-08T16:35:58+0200</time>
      </trkpt>
      <trkpt lat="45.08241" lon="2.94438">
        <ele>1023.361681</ele>
        <time>2021-07-08T16:35:59+0200</time>
      </trkpt>
      <trkpt lat="45.08244" lon="2.9445">
        <ele>1022.216048</ele>
        <time>2021-07-08T16:36:00+0200</time>
      </trkpt>
      <trkpt lat="45.08246" lon="2.94462">
        <ele>1020.951747</ele>
        <time>2021-07-08T16:36:01+0200</time>
      </trkpt>
      <trkpt lat="45.08248" lon="2.94475">
        <ele>1019.615533</ele>
        <time>2021-07-08T16:36:02+0200</time>
      </trkpt>
      <trkpt lat="45.0825" lon="2.94488">
        <ele>1018.352595</ele>
        <time>2021-07-08T16:36:03+0200</time>
      </trkpt>
      <trkpt lat="45.08253" lon="2.94501">
        <ele>1016.96632</ele>
        <time>2021-07-08T16:36:04+0200</time>
      </trkpt>
      <trkpt lat="45.08255" lon="2.94514">
        <ele>1016.596236</ele>
        <time>2021-07-08T16:36:05+0200</time>
      </trkpt>
      <trkpt lat="45.08258" lon="2.94526">
        <ele>1016.417392</ele>
        <time>2021-07-08T16:36:06+0200</time>
      </trkpt>
      <trkpt lat="45.0826" lon="2.9454">
        <ele>1015.84165</ele>
        <time>2021-07-08T16:36:07+0200</time>
      </trkpt>
      <trkpt lat="45.08262" lon="2.94553">
        <ele>1015.238637</ele>
        <time>2021-07-08T16:36:08+0200</time>
      </trkpt>
      <trkpt lat="45.08263" lon="2.94565">
        <ele>1014.862089</ele>
        <time>2021-07-08T16:36:09+0200</time>
      </trkpt>
      <trkpt lat="45.08265" lon="2.94578">
        <ele>1014.140892</ele>
        <time>2021-07-08T16:36:10+0200</time>
      </trkpt>
      <trkpt lat="45.08269" lon="2.94591">
        <ele>1013.317152</ele>
        <time>2021-07-08T16:36:11+0200</time>
      </trkpt>
      <trkpt lat="45.08273" lon="2.94602">
        <ele>1012.967473</ele>
        <time>2021-07-08T16:36:12+0200</time>
      </trkpt>
      <trkpt lat="45.08277" lon="2.94613">
        <ele>1012.554505</ele>
        <time>2021-07-08T16:36:13+0200</time>
      </trkpt>
      <trkpt lat="45.08281" lon="2.94624">
        <ele>1012.22535</ele>
        <time>2021-07-08T16:36:14+0200</time>
      </trkpt>
      <trkpt lat="45.08284" lon="2.94634">
        <ele>1011.904916</ele>
        <time>2021-07-08T16:36:15+0200</time>
      </trkpt>
      <trkpt lat="45.08288" lon="2.94646">
        <ele>1011.444335</ele>
        <time>2021-07-08T16:36:16+0200</time>
      </trkpt>
      <trkpt lat="45.08291" lon="2.94656">
        <ele>1011.599737</ele>
        <time>2021-07-08T16:36:17+0200</time>
      </trkpt>
      <trkpt lat="45.08295" lon="2.94666">
        <ele>1011.612713</ele>
        <time>2021-07-08T16:36:18+0200</time>
      </trkpt>
      <trkpt lat="45.08297" lon="2.94677">
        <ele>1011.61463</ele>
        <time>2021-07-08T16:36:19+0200</time>
      </trkpt>
      <trkpt lat="45.08298" lon="2.94688">
        <ele>1011.642493</ele>
        <time>2021-07-08T16:36:20+0200</time>
      </trkpt>
      <trkpt lat="45.08296" lon="2.947">
        <ele>1011.783095</ele>
        <time>2021-07-08T16:36:21+0200</time>
      </trkpt>
      <trkpt lat="45.08296" lon="2.94711">
        <ele>1012.006486</ele>
        <time>2021-07-08T16:36:22+0200</time>
      </trkpt>
      <trkpt lat="45.08297" lon="2.94722">
        <ele>1011.669933</ele>
        <time>2021-07-08T16:36:23+0200</time>
      </trkpt>
      <trkpt lat="45.083" lon="2.94731">
        <ele>1011.689319</ele>
        <time>2021-07-08T16:36:24+0200</time>
      </trkpt>
      <trkpt lat="45.08305" lon="2.94739">
        <ele>1010.898625</ele>
        <time>2021-07-08T16:36:25+0200</time>
      </trkpt>
      <trkpt lat="45.08311" lon="2.94747">
        <ele>1010.575408</ele>
        <time>2021-07-08T16:36:26+0200</time>
      </trkpt>
      <trkpt lat="45.08317" lon="2.94752">
        <ele>1010.152852</ele>
        <time>2021-07-08T16:36:27+0200</time>
      </trkpt>
      <trkpt lat="45.08322" lon="2.9476">
        <ele>1009.704261</ele>
        <time>2021-07-08T16:36:28+0200</time>
      </trkpt>
      <trkpt lat="45.08326" lon="2.94767">
        <ele>1009.232516</ele>
        <time>2021-07-08T16:36:29+0200</time>
      </trkpt>
      <trkpt lat="45.0833" lon="2.94774">
        <ele>1009.343253</ele>
        <time>2021-07-08T16:36:30+0200</time>
      </trkpt>
      <trkpt lat="45.08334" lon="2.94782">
        <ele>1009.222515</ele>
        <time>2021-07-08T16:36:31+0200</time>
      </trkpt>
      <trkpt lat="45.08338" lon="2.9479">
        <ele>1009.112779</ele>
        <time>2021-07-08T16:36:32+0200</time>
      </trkpt>
      <trkpt lat="45.08343" lon="2.94797">
        <ele>1009.856196</ele>
        <time>2021-07-08T16:36:33+0200</time>
      </trkpt>
      <trkpt lat="45.08348" lon="2.94804">
        <ele>1010.085694</ele>
        <time>2021-07-08T16:36:34+0200</time>
      </trkpt>
      <trkpt lat="45.08353" lon="2.94811">
        <ele>1009.495743</ele>
        <time>2021-07-08T16:36:35+0200</time>
      </trkpt>
      <trkpt lat="45.08358" lon="2.94818">
        <ele>1009.932103</ele>
        <time>2021-07-08T16:36:36+0200</time>
      </trkpt>
      <trkpt lat="45.08362" lon="2.94824">
        <ele>1009.54149</ele>
        <time>2021-07-08T16:36:37+0200</time>
      </trkpt>
      <trkpt lat="45.08367" lon="2.9483">
        <ele>1010.66958</ele>
        <time>2021-07-08T16:36:38+0200</time>
      </trkpt>
      <trkpt lat="45.08372" lon="2.94836">
        <ele>1011.092677</ele>
        <time>2021-07-08T16:36:39+0200</time>
      </trkpt>
      <trkpt lat="45.08377" lon="2.94843">
        <ele>1010.99386</ele>
        <time>2021-07-08T16:36:40+0200</time>
      </trkpt>
      <trkpt lat="45.08382" lon="2.9485">
        <ele>1010.454417</ele>
        <time>2021-07-08T16:36:41+0200</time>
      </trkpt>
      <trkpt lat="45.08386" lon="2.94856">
        <ele>1010.026383</ele>
        <time>2021-07-08T16:36:42+0200</time>
      </trkpt>
      <trkpt lat="45.08391" lon="2.94862">
        <ele>1009.971081</ele>
        <time>2021-07-08T16:36:43+0200</time>
      </trkpt>
      <trkpt lat="45.08395" lon="2.94866">
        <ele>1009.905116</ele>
        <time>2021-07-08T16:36:44+0200</time>
      </trkpt>
      <trkpt lat="45.084" lon="2.94871">
        <ele>1010.615671</ele>
        <time>2021-07-08T16:36:45+0200</time>
      </trkpt>
      <trkpt lat="45.08406" lon="2.94871">
        <ele>1012.177727</ele>
        <time>2021-07-08T16:36:46+0200</time>
      </trkpt>
      <trkpt lat="45.0841" lon="2.94874">
        <ele>1012.903489</ele>
        <time>2021-07-08T16:36:47+0200</time>
      </trkpt>
      <trkpt lat="45.08416" lon="2.94878">
        <ele>1013.317491</ele>
        <time>2021-07-08T16:36:48+0200</time>
      </trkpt>
      <trkpt lat="45.08422" lon="2.94881">
        <ele>1014.220972</ele>
        <time>2021-07-08T16:36:49+0200</time>
      </trkpt>
      <trkpt lat="45.08427" lon="2.94884">
        <ele>1014.778475</ele>
        <time>2021-07-08T16:36:50+0200</time>
      </trkpt>
      <trkpt lat="45.08434" lon="2.94889">
        <ele>1014.248773</ele>
        <time>2021-07-08T16:36:51+0200</time>
      </trkpt>
      <trkpt lat="45.0844" lon="2.94892">
        <ele>1013.977937</ele>
        <time>2021-07-08T16:36:52+0200</time>
      </trkpt>
      <trkpt lat="45.08446" lon="2.94896">
        <ele>1013.864426</ele>
        <time>2021-07-08T16:36:53+0200</time>
      </trkpt>
      <trkpt lat="45.08452" lon="2.949">
        <ele>1013.579018</ele>
        <time>2021-07-08T16:36:54+0200</time>
      </trkpt>
      <trkpt lat="45.08457" lon="2.94904">
        <ele>1013.288043</ele>
        <time>2021-07-08T16:36:55+0200</time>
      </trkpt>
      <trkpt lat="45.08461" lon="2.94908">
        <ele>1012.949191</ele>
        <time>2021-07-08T16:36:56+0200</time>
      </trkpt>
      <trkpt lat="45.08466" lon="2.94911">
        <ele>1012.889944</ele>
        <time>2021-07-08T16:36:57+0200</time>
      </trkpt>
      <trkpt lat="45.08471" lon="2.94915">
        <ele>1012.954626</ele>
        <time>2021-07-08T16:36:58+0200</time>
      </trkpt>
      <trkpt lat="45.08475" lon="2.9492">
        <ele>1012.795644</ele>
        <time>2021-07-08T16:36:59+0200</time>
      </trkpt>
      <trkpt lat="45.08476" lon="2.94927">
        <ele>1012.662232</ele>
        <time>2021-07-08T16:37:00+0200</time>
      </trkpt>
      <trkpt lat="45.08477" lon="2.94935">
        <ele>1012.550351</ele>
        <time>2021-07-08T16:37:01+0200</time>
      </trkpt>
      <trkpt lat="45.08476" lon="2.94943">
        <ele>1012.022269</ele>
        <time>2021-07-08T16:37:02+0200</time>
      </trkpt>
      <trkpt lat="45.08475" lon="2.94951">
        <ele>1011.767006</ele>
        <time>2021-07-08T16:37:03+0200</time>
      </trkpt>
      <trkpt lat="45.08474" lon="2.94959">
        <ele>1011.50545</ele>
        <time>2021-07-08T16:37:04+0200</time>
      </trkpt>
      <trkpt lat="45.08473" lon="2.94967">
        <ele>1011.555039</ele>
        <time>2021-07-08T16:37:05+0200</time>
      </trkpt>
      <trkpt lat="45.08473" lon="2.94975">
        <ele>1011.561367</ele>
        <time>2021-07-08T16:37:06+0200</time>
      </trkpt>
      <trkpt lat="45.08472" lon="2.94983">
        <ele>1011.420213</ele>
        <time>2021-07-08T16:37:07+0200</time>
      </trkpt>
      <trkpt lat="45.08472" lon="2.94992">
        <ele>1011.032772</ele>
        <time>2021-07-08T16:37:08+0200</time>
      </trkpt>
      <trkpt lat="45.0847" lon="2.95001">
        <ele>1011.097445</ele>
        <time>2021-07-08T16:37:09+0200</time>
      </trkpt>
      <trkpt lat="45.0847" lon="2.9501">
        <ele>1010.30327</ele>
        <time>2021-07-08T16:37:10+0200</time>
      </trkpt>
      <trkpt lat="45.0847" lon="2.95019">
        <ele>1010.008402</ele>
        <time>2021-07-08T16:37:11+0200</time>
      </trkpt>
      <trkpt lat="45.08471" lon="2.95028">
        <ele>1010.075968</ele>
        <time>2021-07-08T16:37:12+0200</time>
      </trkpt>
      <trkpt lat="45.08472" lon="2.95037">
        <ele>1010.354837</ele>
        <time>2021-07-08T16:37:13+0200</time>
      </trkpt>
      <trkpt lat="45.08473" lon="2.95045">
        <ele>1010.125571</ele>
        <time>2021-07-08T16:37:14+0200</time>
      </trkpt>
      <trkpt lat="45.08475" lon="2.95054">
        <ele>1009.745425</ele>
        <time>2021-07-08T16:37:15+0200</time>
      </trkpt>
      <trkpt lat="45.08476" lon="2.95062">
        <ele>1009.791425</ele>
        <time>2021-07-08T16:37:16+0200</time>
      </trkpt>
      <trkpt lat="45.08476" lon="2.95071">
        <ele>1009.97952</ele>
        <time>2021-07-08T16:37:17+0200</time>
      </trkpt>
      <trkpt lat="45.08474" lon="2.9508">
        <ele>1010.134451</ele>
        <time>2021-07-08T16:37:18+0200</time>
      </trkpt>
      <trkpt lat="45.08471" lon="2.95088">
        <ele>1010.717682</ele>
        <time>2021-07-08T16:37:19+0200</time>
      </trkpt>
      <trkpt lat="45.08468" lon="2.95097">
        <ele>1010.182158</ele>
        <time>2021-07-08T16:37:20+0200</time>
      </trkpt>
      <trkpt lat="45.08464" lon="2.95106">
        <ele>1009.660968</ele>
        <time>2021-07-08T16:37:21+0200</time>
      </trkpt>
      <trkpt lat="45.0846" lon="2.95115">
        <ele>1009.142953</ele>
        <time>2021-07-08T16:37:22+0200</time>
      </trkpt>
      <trkpt lat="45.08456" lon="2.95124">
        <ele>1008.886146</ele>
        <time>2021-07-08T16:37:23+0200</time>
      </trkpt>
      <trkpt lat="45.08453" lon="2.95132">
        <ele>1008.640448</ele>
        <time>2021-07-08T16:37:24+0200</time>
      </trkpt>
      <trkpt lat="45.08449" lon="2.9514">
        <ele>1008.313886</ele>
        <time>2021-07-08T16:37:25+0200</time>
      </trkpt>
      <trkpt lat="45.08445" lon="2.95149">
        <ele>1007.67012</ele>
        <time>2021-07-08T16:37:26+0200</time>
      </trkpt>
      <trkpt lat="45.08442" lon="2.95157">
        <ele>1007.839751</ele>
        <time>2021-07-08T16:37:27+0200</time>
      </trkpt>
      <trkpt lat="45.08439" lon="2.95166">
        <ele>1008.283739</ele>
        <time>2021-07-08T16:37:28+0200</time>
      </trkpt>
      <trkpt lat="45.08435" lon="2.95174">
        <ele>1008.354289</ele>
        <time>2021-07-08T16:37:29+0200</time>
      </trkpt>
      <trkpt lat="45.08432" lon="2.95182">
        <ele>1008.260939</ele>
        <time>2021-07-08T16:37:30+0200</time>
      </trkpt>
      <trkpt lat="45.08428" lon="2.95191">
        <ele>1008.553799</ele>
        <time>2021-07-08T16:37:31+0200</time>
      </trkpt>
      <trkpt lat="45.08425" lon="2.952">
        <ele>1008.302035</ele>
        <time>2021-07-08T16:37:32+0200</time>
      </trkpt>
      <trkpt lat="45.08421" lon="2.95207">
        <ele>1008.160349</ele>
        <time>2021-07-08T16:37:33+0200</time>
      </trkpt>
      <trkpt lat="45.08418" lon="2.95216">
        <ele>1007.923021</ele>
        <time>2021-07-08T16:37:34+0200</time>
      </trkpt>
      <trkpt lat="45.08415" lon="2.95224">
        <ele>1007.741075</ele>
        <time>2021-07-08T16:37:35+0200</time>
      </trkpt>
      <trkpt lat="45.08411" lon="2.95232">
        <ele>1007.479496</ele>
        <time>2021-07-08T16:37:36+0200</time>
      </trkpt>
      <trkpt lat="45.08406" lon="2.9524">
        <ele>1007.142957</ele>
        <time>2021-07-08T16:37:37+0200</time>
      </trkpt>
      <trkpt lat="45.08402" lon="2.95248">
        <ele>1006.958866</ele>
        <time>2021-07-08T16:37:38+0200</time>
      </trkpt>
      <trkpt lat="45.08398" lon="2.95256">
        <ele>1006.881874</ele>
        <time>2021-07-08T16:37:39+0200</time>
      </trkpt>
      <trkpt lat="45.08393" lon="2.95264">
        <ele>1006.690102</ele>
        <time>2021-07-08T16:37:40+0200</time>
      </trkpt>
      <trkpt lat="45.08389" lon="2.95271">
        <ele>1006.827196</ele>
        <time>2021-07-08T16:37:41+0200</time>
      </trkpt>
      <trkpt lat="45.08384" lon="2.95278">
        <ele>1006.774161</ele>
        <time>2021-07-08T16:37:42+0200</time>
      </trkpt>
      <trkpt lat="45.08379" lon="2.95286">
        <ele>1006.600512</ele>
        <time>2021-07-08T16:37:43+0200</time>
      </trkpt>
      <trkpt lat="45.08375" lon="2.95293">
        <ele>1006.508449</ele>
        <time>2021-07-08T16:37:44+0200</time>
      </trkpt>
      <trkpt lat="45.08371" lon="2.95302">
        <ele>1006.258829</ele>
        <time>2021-07-08T16:37:45+0200</time>
      </trkpt>
      <trkpt lat="45.08367" lon="2.95312">
        <ele>1005.87666</ele>
        <time>2021-07-08T16:37:46+0200</time>
      </trkpt>
      <trkpt lat="45.08364" lon="2.95322">
        <ele>1005.44555</ele>
        <time>2021-07-08T16:37:47+0200</time>
      </trkpt>
      <trkpt lat="45.08363" lon="2.95333">
        <ele>1005.439053</ele>
        <time>2021-07-08T16:37:48+0200</time>
      </trkpt>
      <trkpt lat="45.08364" lon="2.95343">
        <ele>1005.202603</ele>
        <time>2021-07-08T16:37:49+0200</time>
      </trkpt>
      <trkpt lat="45.08364" lon="2.95355">
        <ele>1005.074469</ele>
        <time>2021-07-08T16:37:50+0200</time>
      </trkpt>
      <trkpt lat="45.08365" lon="2.95365">
        <ele>1005.172944</ele>
        <time>2021-07-08T16:37:51+0200</time>
      </trkpt>
      <trkpt lat="45.08365" lon="2.95377">
        <ele>1004.797555</ele>
        <time>2021-07-08T16:37:52+0200</time>
      </trkpt>
      <trkpt lat="45.08366" lon="2.95387">
        <ele>1004.396756</ele>
        <time>2021-07-08T16:37:53+0200</time>
      </trkpt>
      <trkpt lat="45.08366" lon="2.95399">
        <ele>1004.216823</ele>
        <time>2021-07-08T16:37:54+0200</time>
      </trkpt>
      <trkpt lat="45.08367" lon="2.95409">
        <ele>1004.060203</ele>
        <time>2021-07-08T16:37:55+0200</time>
      </trkpt>
      <trkpt lat="45.08367" lon="2.9542">
        <ele>1004.042682</ele>
        <time>2021-07-08T16:37:56+0200</time>
      </trkpt>
      <trkpt lat="45.08367" lon="2.95431">
        <ele>1003.885394</ele>
        <time>2021-07-08T16:37:57+0200</time>
      </trkpt>
      <trkpt lat="45.08368" lon="2.95442">
        <ele>1003.539676</ele>
        <time>2021-07-08T16:37:58+0200</time>
      </trkpt>
      <trkpt lat="45.08368" lon="2.95452">
        <ele>1003.396179</ele>
        <time>2021-07-08T16:37:59+0200</time>
      </trkpt>
      <trkpt lat="45.08369" lon="2.95462">
        <ele>1003.343517</ele>
        <time>2021-07-08T16:38:00+0200</time>
      </trkpt>
      <trkpt lat="45.08369" lon="2.95472">
        <ele>1003.291297</ele>
        <time>2021-07-08T16:38:01+0200</time>
      </trkpt>
      <trkpt lat="45.0837" lon="2.95482">
        <ele>1003.230134</ele>
        <time>2021-07-08T16:38:02+0200</time>
      </trkpt>
      <trkpt lat="45.0837" lon="2.95492">
        <ele>1003.093192</ele>
        <time>2021-07-08T16:38:03+0200</time>
      </trkpt>
      <trkpt lat="45.08371" lon="2.95502">
        <ele>1002.753417</ele>
        <time>2021-07-08T16:38:04+0200</time>
      </trkpt>
      <trkpt lat="45.08372" lon="2.95511">
        <ele>1002.586823</ele>
        <time>2021-07-08T16:38:05+0200</time>
      </trkpt>
      <trkpt lat="45.08373" lon="2.95521">
        <ele>1002.665385</ele>
        <time>2021-07-08T16:38:06+0200</time>
      </trkpt>
      <trkpt lat="45.08374" lon="2.9553">
        <ele>1002.46401</ele>
        <time>2021-07-08T16:38:07+0200</time>
      </trkpt>
      <trkpt lat="45.08374" lon="2.9554">
        <ele>1002.23933</ele>
        <time>2021-07-08T16:38:08+0200</time>
      </trkpt>
      <trkpt lat="45.08375" lon="2.9555">
        <ele>1002.026203</ele>
        <time>2021-07-08T16:38:09+0200</time>
      </trkpt>
      <trkpt lat="45.08376" lon="2.9556">
        <ele>1001.813822</ele>
        <time>2021-07-08T16:38:10+0200</time>
      </trkpt>
      <trkpt lat="45.08377" lon="2.95569">
        <ele>1001.569336</ele>
        <time>2021-07-08T16:38:11+0200</time>
      </trkpt>
      <trkpt lat="45.08378" lon="2.95578">
        <ele>1001.301579</ele>
        <time>2021-07-08T16:38:12+0200</time>
      </trkpt>
      <trkpt lat="45.08379" lon="2.95588">
        <ele>1001.356196</ele>
        <time>2021-07-08T16:38:13+0200</time>
      </trkpt>
      <trkpt lat="45.08381" lon="2.95598">
        <ele>1001.184808</ele>
        <time>2021-07-08T16:38:14+0200</time>
      </trkpt>
      <trkpt lat="45.08382" lon="2.95609">
        <ele>1001.2085</ele>
        <time>2021-07-08T16:38:15+0200</time>
      </trkpt>
      <trkpt lat="45.08383" lon="2.95618">
        <ele>1001.13434</ele>
        <time>2021-07-08T16:38:16+0200</time>
      </trkpt>
      <trkpt lat="45.08385" lon="2.95628">
        <ele>1000.957496</ele>
        <time>2021-07-08T16:38:17+0200</time>
      </trkpt>
      <trkpt lat="45.08386" lon="2.95638">
        <ele>1000.879703</ele>
        <time>2021-07-08T16:38:18+0200</time>
      </trkpt>
      <trkpt lat="45.08387" lon="2.95649">
        <ele>1000.577307</ele>
        <time>2021-07-08T16:38:19+0200</time>
      </trkpt>
      <trkpt lat="45.08388" lon="2.95659">
        <ele>1000.769029</ele>
        <time>2021-07-08T16:38:20+0200</time>
      </trkpt>
      <trkpt lat="45.0839" lon="2.95668">
        <ele>1000.843973</ele>
        <time>2021-07-08T16:38:21+0200</time>
      </trkpt>
      <trkpt lat="45.08389" lon="2.95678">
        <ele>1001.184227</ele>
        <time>2021-07-08T16:38:22+0200</time>
      </trkpt>
      <trkpt lat="45.08388" lon="2.95687">
        <ele>1001.11462</ele>
        <time>2021-07-08T16:38:23+0200</time>
      </trkpt>
      <trkpt lat="45.08388" lon="2.95698">
        <ele>1001.050083</ele>
        <time>2021-07-08T16:38:24+0200</time>
      </trkpt>
      <trkpt lat="45.08386" lon="2.95709">
        <ele>1000.408103</ele>
        <time>2021-07-08T16:38:25+0200</time>
      </trkpt>
      <trkpt lat="45.08385" lon="2.95719">
        <ele>1000.141551</ele>
        <time>2021-07-08T16:38:26+0200</time>
      </trkpt>
      <trkpt lat="45.08384" lon="2.95729">
        <ele>999.680728</ele>
        <time>2021-07-08T16:38:27+0200</time>
      </trkpt>
      <trkpt lat="45.08382" lon="2.95739">
        <ele>999.008602</ele>
        <time>2021-07-08T16:38:28+0200</time>
      </trkpt>
      <trkpt lat="45.08381" lon="2.9575">
        <ele>998.663009</ele>
        <time>2021-07-08T16:38:29+0200</time>
      </trkpt>
      <trkpt lat="45.0838" lon="2.95761">
        <ele>998.568661</ele>
        <time>2021-07-08T16:38:30+0200</time>
      </trkpt>
      <trkpt lat="45.08378" lon="2.9577">
        <ele>998.580899</ele>
        <time>2021-07-08T16:38:31+0200</time>
      </trkpt>
      <trkpt lat="45.08376" lon="2.9578">
        <ele>998.665081</ele>
        <time>2021-07-08T16:38:32+0200</time>
      </trkpt>
      <trkpt lat="45.08375" lon="2.9579">
        <ele>998.54383</ele>
        <time>2021-07-08T16:38:33+0200</time>
      </trkpt>
      <trkpt lat="45.08374" lon="2.95801">
        <ele>998.240637</ele>
        <time>2021-07-08T16:38:34+0200</time>
      </trkpt>
      <trkpt lat="45.08373" lon="2.9581">
        <ele>998.223605</ele>
        <time>2021-07-08T16:38:35+0200</time>
      </trkpt>
      <trkpt lat="45.08372" lon="2.9582">
        <ele>998.374761</ele>
        <time>2021-07-08T16:38:36+0200</time>
      </trkpt>
      <trkpt lat="45.08372" lon="2.9583">
        <ele>998.32578</ele>
        <time>2021-07-08T16:38:37+0200</time>
      </trkpt>
      <trkpt lat="45.08371" lon="2.9584">
        <ele>998.419261</ele>
        <time>2021-07-08T16:38:38+0200</time>
      </trkpt>
      <trkpt lat="45.08371" lon="2.9585">
        <ele>998.80164</ele>
        <time>2021-07-08T16:38:39+0200</time>
      </trkpt>
      <trkpt lat="45.08371" lon="2.9586">
        <ele>999.382135</ele>
        <time>2021-07-08T16:38:40+0200</time>
      </trkpt>
      <trkpt lat="45.08371" lon="2.95869">
        <ele>999.462799</ele>
        <time>2021-07-08T16:38:41+0200</time>
      </trkpt>
      <trkpt lat="45.08371" lon="2.95879">
        <ele>999.06741</ele>
        <time>2021-07-08T16:38:42+0200</time>
      </trkpt>
      <trkpt lat="45.08372" lon="2.95889">
        <ele>998.712351</ele>
        <time>2021-07-08T16:38:43+0200</time>
      </trkpt>
      <trkpt lat="45.08373" lon="2.95899">
        <ele>998.164873</ele>
        <time>2021-07-08T16:38:44+0200</time>
      </trkpt>
      <trkpt lat="45.08374" lon="2.95908">
        <ele>997.471132</ele>
        <time>2021-07-08T16:38:45+0200</time>
      </trkpt>
      <trkpt lat="45.08374" lon="2.95918">
        <ele>996.992553</ele>
        <time>2021-07-08T16:38:46+0200</time>
      </trkpt>
      <trkpt lat="45.08375" lon="2.95927">
        <ele>997.205586</ele>
        <time>2021-07-08T16:38:47+0200</time>
      </trkpt>
      <trkpt lat="45.08375" lon="2.95936">
        <ele>997.438008</ele>
        <time>2021-07-08T16:38:48+0200</time>
      </trkpt>
      <trkpt lat="45.08375" lon="2.95945">
        <ele>997.560777</ele>
        <time>2021-07-08T16:38:49+0200</time>
      </trkpt>
      <trkpt lat="45.08375" lon="2.95953">
        <ele>997.827396</ele>
        <time>2021-07-08T16:38:50+0200</time>
      </trkpt>
      <trkpt lat="45.08374" lon="2.95962">
        <ele>997.60299</ele>
        <time>2021-07-08T16:38:51+0200</time>
      </trkpt>
      <trkpt lat="45.08374" lon="2.95971">
        <ele>997.872421</ele>
        <time>2021-07-08T16:38:52+0200</time>
      </trkpt>
      <trkpt lat="45.08373" lon="2.95979">
        <ele>998.335534</ele>
        <time>2021-07-08T16:38:53+0200</time>
      </trkpt>
      <trkpt lat="45.08374" lon="2.95987">
        <ele>998.686655</ele>
        <time>2021-07-08T16:38:54+0200</time>
      </trkpt>
      <trkpt lat="45.08374" lon="2.95996">
        <ele>998.807483</ele>
        <time>2021-07-08T16:38:55+0200</time>
      </trkpt>
      <trkpt lat="45.08375" lon="2.96004">
        <ele>998.80901</ele>
        <time>2021-07-08T16:38:56+0200</time>
      </trkpt>
      <trkpt lat="45.08376" lon="2.96011">
        <ele>999.369846</ele>
        <time>2021-07-08T16:38:57+0200</time>
      </trkpt>
      <trkpt lat="45.08378" lon="2.96018">
        <ele>999.533309</ele>
        <time>2021-07-08T16:38:58+0200</time>
      </trkpt>
      <trkpt lat="45.08382" lon="2.96022">
        <ele>999.605328</ele>
        <time>2021-07-08T16:38:59+0200</time>
      </trkpt>
      <trkpt lat="45.08388" lon="2.96022">
        <ele>1000.812568</ele>
        <time>2021-07-08T16:39:00+0200</time>
      </trkpt>
      <trkpt lat="45.08394" lon="2.96019">
        <ele>1001.33322</ele>
        <time>2021-07-08T16:39:02+0200</time>
      </trkpt>
      <trkpt lat="45.08401" lon="2.96018">
        <ele>1002.673185</ele>
        <time>2021-07-08T16:39:04+0200</time>
      </trkpt>
      <trkpt lat="45.08409" lon="2.96018">
        <ele>1003.029724</ele>
        <time>2021-07-08T16:39:06+0200</time>
      </trkpt>
      <trkpt lat="45.08414" lon="2.96019">
        <ele>1003.110915</ele>
        <time>2021-07-08T16:39:07+0200</time>
      </trkpt>
      <trkpt lat="45.0842" lon="2.96022">
        <ele>1003.602878</ele>
        <time>2021-07-08T16:39:09+0200</time>
      </trkpt>
      <trkpt lat="45.08427" lon="2.96027">
        <ele>1004.062353</ele>
        <time>2021-07-08T16:39:11+0200</time>
      </trkpt>
      <trkpt lat="45.08435" lon="2.9603">
        <ele>1006.240162</ele>
        <time>2021-07-08T16:39:13+0200</time>
      </trkpt>
      <trkpt lat="45.08442" lon="2.96034">
        <ele>1007.884725</ele>
        <time>2021-07-08T16:39:15+0200</time>
      </trkpt>
      <trkpt lat="45.08449" lon="2.96041">
        <ele>1008.402725</ele>
        <time>2021-07-08T16:39:17+0200</time>
      </trkpt>
      <trkpt lat="45.08455" lon="2.96045">
        <ele>1009.249339</ele>
        <time>2021-07-08T16:39:19+0200</time>
      </trkpt>
      <trkpt lat="45.08462" lon="2.96047">
        <ele>1009.274184</ele>
        <time>2021-07-08T16:39:21+0200</time>
      </trkpt>
      <trkpt lat="45.08467" lon="2.96048">
        <ele>1009.79137</ele>
        <time>2021-07-08T16:39:23+0200</time>
      </trkpt>
      <trkpt lat="45.08473" lon="2.96052">
        <ele>1008.853326</ele>
        <time>2021-07-08T16:39:25+0200</time>
      </trkpt>
      <trkpt lat="45.08478" lon="2.96053">
        <ele>1009.522829</ele>
        <time>2021-07-08T16:39:27+0200</time>
      </trkpt>
      <trkpt lat="45.08487" lon="2.96053">
        <ele>1008.46243</ele>
        <time>2021-07-08T16:39:29+0200</time>
      </trkpt>
      <trkpt lat="45.08493" lon="2.96052">
        <ele>1008.32354</ele>
        <time>2021-07-08T16:39:31+0200</time>
      </trkpt>
      <trkpt lat="45.085" lon="2.96052">
        <ele>1007.969523</ele>
        <time>2021-07-08T16:39:33+0200</time>
      </trkpt>
      <trkpt lat="45.08508" lon="2.96052">
        <ele>1008.387415</ele>
        <time>2021-07-08T16:39:35+0200</time>
      </trkpt>
      <trkpt lat="45.08516" lon="2.96054">
        <ele>1007.892487</ele>
        <time>2021-07-08T16:39:37+0200</time>
      </trkpt>
      <trkpt lat="45.08522" lon="2.96054">
        <ele>1008.240738</ele>
        <time>2021-07-08T16:39:39+0200</time>
      </trkpt>
      <trkpt lat="45.0853" lon="2.96053">
        <ele>1009.61604</ele>
        <time>2021-07-08T16:39:41+0200</time>
      </trkpt>
      <trkpt lat="45.08535" lon="2.96053">
        <ele>1008.95772</ele>
        <time>2021-07-08T16:39:42+0200</time>
      </trkpt>
      <trkpt lat="45.0854" lon="2.96053">
        <ele>1008.67793</ele>
        <time>2021-07-08T16:39:43+0200</time>
      </trkpt>
      <trkpt lat="45.08545" lon="2.96052">
        <ele>1009.180507</ele>
        <time>2021-07-08T16:39:44+0200</time>
      </trkpt>
      <trkpt lat="45.0855" lon="2.96052">
        <ele>1008.781414</ele>
        <time>2021-07-08T16:39:45+0200</time>
      </trkpt>
      <trkpt lat="45.08555" lon="2.96052">
        <ele>1008.785735</ele>
        <time>2021-07-08T16:39:46+0200</time>
      </trkpt>
      <trkpt lat="45.0856" lon="2.96054">
        <ele>1008.69974</ele>
        <time>2021-07-08T16:39:47+0200</time>
      </trkpt>
      <trkpt lat="45.08566" lon="2.96054">
        <ele>1008.935865</ele>
        <time>2021-07-08T16:39:48+0200</time>
      </trkpt>
      <trkpt lat="45.0857" lon="2.96055">
        <ele>1009.274558</ele>
        <time>2021-07-08T16:39:49+0200</time>
      </trkpt>
      <trkpt lat="45.08576" lon="2.96057">
        <ele>1008.988665</ele>
        <time>2021-07-08T16:39:50+0200</time>
      </trkpt>
      <trkpt lat="45.08581" lon="2.96058">
        <ele>1009.230233</ele>
        <time>2021-07-08T16:39:51+0200</time>
      </trkpt>
      <trkpt lat="45.08586" lon="2.9606">
        <ele>1009.125878</ele>
        <time>2021-07-08T16:39:52+0200</time>
      </trkpt>
      <trkpt lat="45.08591" lon="2.96061">
        <ele>1009.002623</ele>
        <time>2021-07-08T16:39:53+0200</time>
      </trkpt>
      <trkpt lat="45.08596" lon="2.96063">
        <ele>1008.844448</ele>
        <time>2021-07-08T16:39:54+0200</time>
      </trkpt>
      <trkpt lat="45.08601" lon="2.96064">
        <ele>1008.634188</ele>
        <time>2021-07-08T16:39:55+0200</time>
      </trkpt>
      <trkpt lat="45.08606" lon="2.96065">
        <ele>1008.602498</ele>
        <time>2021-07-08T16:39:56+0200</time>
      </trkpt>
      <trkpt lat="45.08612" lon="2.96066">
        <ele>1008.382108</ele>
        <time>2021-07-08T16:39:57+0200</time>
      </trkpt>
      <trkpt lat="45.08617" lon="2.96068">
        <ele>1008.238746</ele>
        <time>2021-07-08T16:39:58+0200</time>
      </trkpt>
      <trkpt lat="45.08622" lon="2.96068">
        <ele>1008.151351</ele>
        <time>2021-07-08T16:39:59+0200</time>
      </trkpt>
      <trkpt lat="45.08626" lon="2.96069">
        <ele>1007.973433</ele>
        <time>2021-07-08T16:40:00+0200</time>
      </trkpt>
      <trkpt lat="45.08631" lon="2.9607">
        <ele>1008.070969</ele>
        <time>2021-07-08T16:40:01+0200</time>
      </trkpt>
      <trkpt lat="45.08635" lon="2.96071">
        <ele>1007.493819</ele>
        <time>2021-07-08T16:40:02+0200</time>
      </trkpt>
      <trkpt lat="45.08641" lon="2.96072">
        <ele>1007.514237</ele>
        <time>2021-07-08T16:40:03+0200</time>
      </trkpt>
      <trkpt lat="45.08646" lon="2.96073">
        <ele>1007.513886</ele>
        <time>2021-07-08T16:40:04+0200</time>
      </trkpt>
      <trkpt lat="45.08651" lon="2.96073">
        <ele>1007.635721</ele>
        <time>2021-07-08T16:40:05+0200</time>
      </trkpt>
      <trkpt lat="45.08656" lon="2.96075">
        <ele>1007.656472</ele>
        <time>2021-07-08T16:40:06+0200</time>
      </trkpt>
      <trkpt lat="45.0866" lon="2.96076">
        <ele>1007.438742</ele>
        <time>2021-07-08T16:40:07+0200</time>
      </trkpt>
      <trkpt lat="45.08665" lon="2.96077">
        <ele>1007.355751</ele>
        <time>2021-07-08T16:40:08+0200</time>
      </trkpt>
      <trkpt lat="45.0867" lon="2.96077">
        <ele>1007.402232</ele>
        <time>2021-07-08T16:40:09+0200</time>
      </trkpt>
      <trkpt lat="45.08675" lon="2.96078">
        <ele>1007.507104</ele>
        <time>2021-07-08T16:40:10+0200</time>
      </trkpt>
      <trkpt lat="45.0868" lon="2.9608">
        <ele>1007.454728</ele>
        <time>2021-07-08T16:40:11+0200</time>
      </trkpt>
      <trkpt lat="45.08685" lon="2.96082">
        <ele>1007.462808</ele>
        <time>2021-07-08T16:40:12+0200</time>
      </trkpt>
      <trkpt lat="45.0869" lon="2.96082">
        <ele>1007.545129</ele>
        <time>2021-07-08T16:40:13+0200</time>
      </trkpt>
      <trkpt lat="45.08695" lon="2.96084">
        <ele>1007.492874</ele>
        <time>2021-07-08T16:40:14+0200</time>
      </trkpt>
      <trkpt lat="45.08699" lon="2.96085">
        <ele>1007.387874</ele>
        <time>2021-07-08T16:40:15+0200</time>
      </trkpt>
      <trkpt lat="45.08704" lon="2.96086">
        <ele>1007.369751</ele>
        <time>2021-07-08T16:40:16+0200</time>
      </trkpt>
      <trkpt lat="45.08709" lon="2.96087">
        <ele>1007.572615</ele>
        <time>2021-07-08T16:40:17+0200</time>
      </trkpt>
      <trkpt lat="45.08714" lon="2.96088">
        <ele>1007.716606</ele>
        <time>2021-07-08T16:40:18+0200</time>
      </trkpt>
      <trkpt lat="45.0872" lon="2.96089">
        <ele>1007.715871</ele>
        <time>2021-07-08T16:40:19+0200</time>
      </trkpt>
      <trkpt lat="45.08725" lon="2.9609">
        <ele>1007.966427</ele>
        <time>2021-07-08T16:40:20+0200</time>
      </trkpt>
      <trkpt lat="45.08729" lon="2.96092">
        <ele>1007.911899</ele>
        <time>2021-07-08T16:40:21+0200</time>
      </trkpt>
      <trkpt lat="45.08734" lon="2.96094">
        <ele>1007.861007</ele>
        <time>2021-07-08T16:40:22+0200</time>
      </trkpt>
      <trkpt lat="45.08739" lon="2.96096">
        <ele>1007.807781</ele>
        <time>2021-07-08T16:40:23+0200</time>
      </trkpt>
      <trkpt lat="45.08744" lon="2.96097">
        <ele>1007.678275</ele>
        <time>2021-07-08T16:40:24+0200</time>
      </trkpt>
      <trkpt lat="45.08753" lon="2.96102">
        <ele>1007.651573</ele>
        <time>2021-07-08T16:40:26+0200</time>
      </trkpt>
      <trkpt lat="45.08757" lon="2.96104">
        <ele>1007.246673</ele>
        <time>2021-07-08T16:40:27+0200</time>
      </trkpt>
      <trkpt lat="45.08762" lon="2.96107">
        <ele>1006.923071</ele>
        <time>2021-07-08T16:40:28+0200</time>
      </trkpt>
      <trkpt lat="45.08767" lon="2.9611">
        <ele>1006.958175</ele>
        <time>2021-07-08T16:40:29+0200</time>
      </trkpt>
      <trkpt lat="45.08771" lon="2.96113">
        <ele>1007.137191</ele>
        <time>2021-07-08T16:40:30+0200</time>
      </trkpt>
      <trkpt lat="45.08775" lon="2.96116">
        <ele>1007.061194</ele>
        <time>2021-07-08T16:40:31+0200</time>
      </trkpt>
      <trkpt lat="45.0878" lon="2.96119">
        <ele>1007.063081</ele>
        <time>2021-07-08T16:40:32+0200</time>
      </trkpt>
      <trkpt lat="45.08785" lon="2.96123">
        <ele>1007.730275</ele>
        <time>2021-07-08T16:40:33+0200</time>
      </trkpt>
      <trkpt lat="45.08789" lon="2.96126">
        <ele>1007.809439</ele>
        <time>2021-07-08T16:40:34+0200</time>
      </trkpt>
      <trkpt lat="45.08793" lon="2.96129">
        <ele>1007.664356</ele>
        <time>2021-07-08T16:40:35+0200</time>
      </trkpt>
      <trkpt lat="45.08798" lon="2.96131">
        <ele>1007.909912</ele>
        <time>2021-07-08T16:40:36+0200</time>
      </trkpt>
      <trkpt lat="45.08803" lon="2.96134">
        <ele>1007.848466</ele>
        <time>2021-07-08T16:40:37+0200</time>
      </trkpt>
      <trkpt lat="45.08807" lon="2.96137">
        <ele>1007.739949</ele>
        <time>2021-07-08T16:40:38+0200</time>
      </trkpt>
      <trkpt lat="45.08811" lon="2.96139">
        <ele>1008.402847</ele>
        <time>2021-07-08T16:40:39+0200</time>
      </trkpt>
      <trkpt lat="45.08816" lon="2.96141">
        <ele>1008.607544</ele>
        <time>2021-07-08T16:40:40+0200</time>
      </trkpt>
      <trkpt lat="45.08821" lon="2.96143">
        <ele>1008.614486</ele>
        <time>2021-07-08T16:40:41+0200</time>
      </trkpt>
      <trkpt lat="45.08826" lon="2.96146">
        <ele>1008.247388</ele>
        <time>2021-07-08T16:40:42+0200</time>
      </trkpt>
      <trkpt lat="45.08831" lon="2.96148">
        <ele>1008.407634</ele>
        <time>2021-07-08T16:40:43+0200</time>
      </trkpt>
      <trkpt lat="45.08835" lon="2.96151">
        <ele>1008.2709</ele>
        <time>2021-07-08T16:40:44+0200</time>
      </trkpt>
      <trkpt lat="45.0884" lon="2.96155">
        <ele>1008.252893</ele>
        <time>2021-07-08T16:40:45+0200</time>
      </trkpt>
      <trkpt lat="45.08845" lon="2.96157">
        <ele>1007.980783</ele>
        <time>2021-07-08T16:40:46+0200</time>
      </trkpt>
      <trkpt lat="45.0885" lon="2.96159">
        <ele>1008.211799</ele>
        <time>2021-07-08T16:40:47+0200</time>
      </trkpt>
      <trkpt lat="45.08855" lon="2.96162">
        <ele>1008.385246</ele>
        <time>2021-07-08T16:40:48+0200</time>
      </trkpt>
      <trkpt lat="45.0886" lon="2.96163">
        <ele>1008.257763</ele>
        <time>2021-07-08T16:40:49+0200</time>
      </trkpt>
      <trkpt lat="45.08865" lon="2.96165">
        <ele>1008.047122</ele>
        <time>2021-07-08T16:40:50+0200</time>
      </trkpt>
      <trkpt lat="45.0887" lon="2.96166">
        <ele>1008.238342</ele>
        <time>2021-07-08T16:40:51+0200</time>
      </trkpt>
      <trkpt lat="45.08876" lon="2.96168">
        <ele>1008.335829</ele>
        <time>2021-07-08T16:40:52+0200</time>
      </trkpt>
      <trkpt lat="45.08881" lon="2.96169">
        <ele>1008.464936</ele>
        <time>2021-07-08T16:40:53+0200</time>
      </trkpt>
      <trkpt lat="45.08886" lon="2.96169">
        <ele>1008.541517</ele>
        <time>2021-07-08T16:40:54+0200</time>
      </trkpt>
      <trkpt lat="45.08891" lon="2.9617">
        <ele>1008.859122</ele>
        <time>2021-07-08T16:40:55+0200</time>
      </trkpt>
      <trkpt lat="45.08897" lon="2.9617">
        <ele>1008.968361</ele>
        <time>2021-07-08T16:40:56+0200</time>
      </trkpt>
      <trkpt lat="45.08902" lon="2.9617">
        <ele>1008.945685</ele>
        <time>2021-07-08T16:40:57+0200</time>
      </trkpt>
      <trkpt lat="45.08908" lon="2.9617">
        <ele>1009.032391</ele>
        <time>2021-07-08T16:40:58+0200</time>
      </trkpt>
      <trkpt lat="45.08913" lon="2.96171">
        <ele>1009.185934</ele>
        <time>2021-07-08T16:40:59+0200</time>
      </trkpt>
      <trkpt lat="45.08918" lon="2.96172">
        <ele>1009.474973</ele>
        <time>2021-07-08T16:41:00+0200</time>
      </trkpt>
      <trkpt lat="45.08923" lon="2.96173">
        <ele>1009.60979</ele>
        <time>2021-07-08T16:41:01+0200</time>
      </trkpt>
      <trkpt lat="45.08928" lon="2.96175">
        <ele>1009.894944</ele>
        <time>2021-07-08T16:41:02+0200</time>
      </trkpt>
      <trkpt lat="45.08933" lon="2.96176">
        <ele>1009.927571</ele>
        <time>2021-07-08T16:41:03+0200</time>
      </trkpt>
      <trkpt lat="45.08939" lon="2.96178">
        <ele>1009.843232</ele>
        <time>2021-07-08T16:41:04+0200</time>
      </trkpt>
      <trkpt lat="45.08944" lon="2.96181">
        <ele>1009.911074</ele>
        <time>2021-07-08T16:41:05+0200</time>
      </trkpt>
      <trkpt lat="45.08949" lon="2.96183">
        <ele>1010.018622</ele>
        <time>2021-07-08T16:41:06+0200</time>
      </trkpt>
      <trkpt lat="45.08954" lon="2.96186">
        <ele>1009.863146</ele>
        <time>2021-07-08T16:41:07+0200</time>
      </trkpt>
      <trkpt lat="45.08958" lon="2.96188">
        <ele>1009.874686</ele>
        <time>2021-07-08T16:41:08+0200</time>
      </trkpt>
      <trkpt lat="45.08964" lon="2.96192">
        <ele>1010.257436</ele>
        <time>2021-07-08T16:41:09+0200</time>
      </trkpt>
      <trkpt lat="45.08968" lon="2.96195">
        <ele>1009.8978</ele>
        <time>2021-07-08T16:41:10+0200</time>
      </trkpt>
      <trkpt lat="45.08972" lon="2.96197">
        <ele>1010.232623</ele>
        <time>2021-07-08T16:41:11+0200</time>
      </trkpt>
      <trkpt lat="45.08977" lon="2.962">
        <ele>1010.247353</ele>
        <time>2021-07-08T16:41:12+0200</time>
      </trkpt>
      <trkpt lat="45.08982" lon="2.96202">
        <ele>1010.405736</ele>
        <time>2021-07-08T16:41:13+0200</time>
      </trkpt>
      <trkpt lat="45.08987" lon="2.96205">
        <ele>1010.48325</ele>
        <time>2021-07-08T16:41:14+0200</time>
      </trkpt>
      <trkpt lat="45.08992" lon="2.96208">
        <ele>1010.496208</ele>
        <time>2021-07-08T16:41:15+0200</time>
      </trkpt>
      <trkpt lat="45.08997" lon="2.9621">
        <ele>1010.571356</ele>
        <time>2021-07-08T16:41:16+0200</time>
      </trkpt>
      <trkpt lat="45.09001" lon="2.96212">
        <ele>1010.68609</ele>
        <time>2021-07-08T16:41:17+0200</time>
      </trkpt>
      <trkpt lat="45.09006" lon="2.96215">
        <ele>1010.746226</ele>
        <time>2021-07-08T16:41:18+0200</time>
      </trkpt>
      <trkpt lat="45.09011" lon="2.96218">
        <ele>1010.597565</ele>
        <time>2021-07-08T16:41:19+0200</time>
      </trkpt>
      <trkpt lat="45.09017" lon="2.9622">
        <ele>1010.718746</ele>
        <time>2021-07-08T16:41:20+0200</time>
      </trkpt>
      <trkpt lat="45.09022" lon="2.96221">
        <ele>1010.645043</ele>
        <time>2021-07-08T16:41:21+0200</time>
      </trkpt>
      <trkpt lat="45.09027" lon="2.96224">
        <ele>1010.685533</ele>
        <time>2021-07-08T16:41:22+0200</time>
      </trkpt>
      <trkpt lat="45.09033" lon="2.96226">
        <ele>1010.70682</ele>
        <time>2021-07-08T16:41:23+0200</time>
      </trkpt>
      <trkpt lat="45.09038" lon="2.96227">
        <ele>1010.538529</ele>
        <time>2021-07-08T16:41:24+0200</time>
      </trkpt>
      <trkpt lat="45.09043" lon="2.96229">
        <ele>1010.46609</ele>
        <time>2021-07-08T16:41:25+0200</time>
      </trkpt>
      <trkpt lat="45.09049" lon="2.96231">
        <ele>1010.630854</ele>
        <time>2021-07-08T16:41:26+0200</time>
      </trkpt>
      <trkpt lat="45.09054" lon="2.96233">
        <ele>1010.705112</ele>
        <time>2021-07-08T16:41:27+0200</time>
      </trkpt>
      <trkpt lat="45.09059" lon="2.96236">
        <ele>1010.748123</ele>
        <time>2021-07-08T16:41:28+0200</time>
      </trkpt>
      <trkpt lat="45.09065" lon="2.96238">
        <ele>1010.701491</ele>
        <time>2021-07-08T16:41:29+0200</time>
      </trkpt>
      <trkpt lat="45.0907" lon="2.96239">
        <ele>1010.494776</ele>
        <time>2021-07-08T16:41:30+0200</time>
      </trkpt>
      <trkpt lat="45.09075" lon="2.96241">
        <ele>1010.585031</ele>
        <time>2021-07-08T16:41:31+0200</time>
      </trkpt>
      <trkpt lat="45.0908" lon="2.96243">
        <ele>1010.297988</ele>
        <time>2021-07-08T16:41:32+0200</time>
      </trkpt>
      <trkpt lat="45.09085" lon="2.96245">
        <ele>1010.109707</ele>
        <time>2021-07-08T16:41:33+0200</time>
      </trkpt>
      <trkpt lat="45.09089" lon="2.96246">
        <ele>1009.924926</ele>
        <time>2021-07-08T16:41:34+0200</time>
      </trkpt>
      <trkpt lat="45.09094" lon="2.96247">
        <ele>1009.90308</ele>
        <time>2021-07-08T16:41:35+0200</time>
      </trkpt>
      <trkpt lat="45.09099" lon="2.96248">
        <ele>1009.984998</ele>
        <time>2021-07-08T16:41:36+0200</time>
      </trkpt>
      <trkpt lat="45.09104" lon="2.96248">
        <ele>1009.993967</ele>
        <time>2021-07-08T16:41:37+0200</time>
      </trkpt>
      <trkpt lat="45.09109" lon="2.96249">
        <ele>1009.945912</ele>
        <time>2021-07-08T16:41:38+0200</time>
      </trkpt>
      <trkpt lat="45.09114" lon="2.9625">
        <ele>1009.794365</ele>
        <time>2021-07-08T16:41:39+0200</time>
      </trkpt>
      <trkpt lat="45.09119" lon="2.96251">
        <ele>1009.596634</ele>
        <time>2021-07-08T16:41:40+0200</time>
      </trkpt>
      <trkpt lat="45.09125" lon="2.96251">
        <ele>1009.979405</ele>
        <time>2021-07-08T16:41:41+0200</time>
      </trkpt>
      <trkpt lat="45.09131" lon="2.96251">
        <ele>1010.120908</ele>
        <time>2021-07-08T16:41:42+0200</time>
      </trkpt>
      <trkpt lat="45.09136" lon="2.96252">
        <ele>1010.126307</ele>
        <time>2021-07-08T16:41:43+0200</time>
      </trkpt>
      <trkpt lat="45.09141" lon="2.96253">
        <ele>1010.057833</ele>
        <time>2021-07-08T16:41:44+0200</time>
      </trkpt>
      <trkpt lat="45.09147" lon="2.96254">
        <ele>1009.96716</ele>
        <time>2021-07-08T16:41:45+0200</time>
      </trkpt>
      <trkpt lat="45.09152" lon="2.96255">
        <ele>1009.736986</ele>
        <time>2021-07-08T16:41:46+0200</time>
      </trkpt>
      <trkpt lat="45.09158" lon="2.96255">
        <ele>1009.354632</ele>
        <time>2021-07-08T16:41:47+0200</time>
      </trkpt>
      <trkpt lat="45.09164" lon="2.96255">
        <ele>1009.277514</ele>
        <time>2021-07-08T16:41:48+0200</time>
      </trkpt>
      <trkpt lat="45.0917" lon="2.96255">
        <ele>1009.21857</ele>
        <time>2021-07-08T16:41:49+0200</time>
      </trkpt>
      <trkpt lat="45.09177" lon="2.96255">
        <ele>1009.20863</ele>
        <time>2021-07-08T16:41:50+0200</time>
      </trkpt>
      <trkpt lat="45.09183" lon="2.96256">
        <ele>1009.08181</ele>
        <time>2021-07-08T16:41:51+0200</time>
      </trkpt>
      <trkpt lat="45.0919" lon="2.96256">
        <ele>1008.856033</ele>
        <time>2021-07-08T16:41:52+0200</time>
      </trkpt>
      <trkpt lat="45.09196" lon="2.96257">
        <ele>1008.744492</ele>
        <time>2021-07-08T16:41:53+0200</time>
      </trkpt>
      <trkpt lat="45.09203" lon="2.96258">
        <ele>1008.665836</ele>
        <time>2021-07-08T16:41:54+0200</time>
      </trkpt>
      <trkpt lat="45.09209" lon="2.96258">
        <ele>1008.414533</ele>
        <time>2021-07-08T16:41:55+0200</time>
      </trkpt>
      <trkpt lat="45.09215" lon="2.96258">
        <ele>1008.290428</ele>
        <time>2021-07-08T16:41:56+0200</time>
      </trkpt>
      <trkpt lat="45.09222" lon="2.96259">
        <ele>1007.972002</ele>
        <time>2021-07-08T16:41:57+0200</time>
      </trkpt>
      <trkpt lat="45.09228" lon="2.96259">
        <ele>1007.692765</ele>
        <time>2021-07-08T16:41:58+0200</time>
      </trkpt>
      <trkpt lat="45.09234" lon="2.9626">
        <ele>1007.594295</ele>
        <time>2021-07-08T16:41:59+0200</time>
      </trkpt>
      <trkpt lat="45.09241" lon="2.96261">
        <ele>1007.8966</ele>
        <time>2021-07-08T16:42:00+0200</time>
      </trkpt>
      <trkpt lat="45.09246" lon="2.96262">
        <ele>1008.033165</ele>
        <time>2021-07-08T16:42:01+0200</time>
      </trkpt>
      <trkpt lat="45.09253" lon="2.96263">
        <ele>1007.775562</ele>
        <time>2021-07-08T16:42:02+0200</time>
      </trkpt>
      <trkpt lat="45.0926" lon="2.96264">
        <ele>1007.816287</ele>
        <time>2021-07-08T16:42:03+0200</time>
      </trkpt>
      <trkpt lat="45.09266" lon="2.96265">
        <ele>1007.775641</ele>
        <time>2021-07-08T16:42:04+0200</time>
      </trkpt>
      <trkpt lat="45.09272" lon="2.96267">
        <ele>1007.657756</ele>
        <time>2021-07-08T16:42:05+0200</time>
      </trkpt>
      <trkpt lat="45.09279" lon="2.96267">
        <ele>1007.417597</ele>
        <time>2021-07-08T16:42:06+0200</time>
      </trkpt>
      <trkpt lat="45.09285" lon="2.96268">
        <ele>1007.269162</ele>
        <time>2021-07-08T16:42:07+0200</time>
      </trkpt>
      <trkpt lat="45.09292" lon="2.96269">
        <ele>1007.093329</ele>
        <time>2021-07-08T16:42:08+0200</time>
      </trkpt>
      <trkpt lat="45.09299" lon="2.9627">
        <ele>1006.871671</ele>
        <time>2021-07-08T16:42:09+0200</time>
      </trkpt>
      <trkpt lat="45.09305" lon="2.9627">
        <ele>1006.874734</ele>
        <time>2021-07-08T16:42:10+0200</time>
      </trkpt>
      <trkpt lat="45.09311" lon="2.96272">
        <ele>1006.618853</ele>
        <time>2021-07-08T16:42:11+0200</time>
      </trkpt>
      <trkpt lat="45.09318" lon="2.96273">
        <ele>1006.551763</ele>
        <time>2021-07-08T16:42:12+0200</time>
      </trkpt>
      <trkpt lat="45.09324" lon="2.96273">
        <ele>1006.491063</ele>
        <time>2021-07-08T16:42:13+0200</time>
      </trkpt>
      <trkpt lat="45.0933" lon="2.96274">
        <ele>1006.311086</ele>
        <time>2021-07-08T16:42:14+0200</time>
      </trkpt>
      <trkpt lat="45.09337" lon="2.96275">
        <ele>1006.126801</ele>
        <time>2021-07-08T16:42:15+0200</time>
      </trkpt>
      <trkpt lat="45.09343" lon="2.96275">
        <ele>1005.813463</ele>
        <time>2021-07-08T16:42:16+0200</time>
      </trkpt>
      <trkpt lat="45.0935" lon="2.96276">
        <ele>1005.824473</ele>
        <time>2021-07-08T16:42:17+0200</time>
      </trkpt>
      <trkpt lat="45.09357" lon="2.96276">
        <ele>1006.005682</ele>
        <time>2021-07-08T16:42:18+0200</time>
      </trkpt>
      <trkpt lat="45.09363" lon="2.96277">
        <ele>1005.862596</ele>
        <time>2021-07-08T16:42:19+0200</time>
      </trkpt>
      <trkpt lat="45.0937" lon="2.96277">
        <ele>1005.815184</ele>
        <time>2021-07-08T16:42:20+0200</time>
      </trkpt>
      <trkpt lat="45.09377" lon="2.96277">
        <ele>1005.660172</ele>
        <time>2021-07-08T16:42:21+0200</time>
      </trkpt>
      <trkpt lat="45.09384" lon="2.96277">
        <ele>1005.334746</ele>
        <time>2021-07-08T16:42:22+0200</time>
      </trkpt>
      <trkpt lat="45.0939" lon="2.96277">
        <ele>1005.240819</ele>
        <time>2021-07-08T16:42:23+0200</time>
      </trkpt>
      <trkpt lat="45.09397" lon="2.96277">
        <ele>1005.104665</ele>
        <time>2021-07-08T16:42:24+0200</time>
      </trkpt>
      <trkpt lat="45.09404" lon="2.96276">
        <ele>1004.7248</ele>
        <time>2021-07-08T16:42:25+0200</time>
      </trkpt>
      <trkpt lat="45.09411" lon="2.96276">
        <ele>1004.592051</ele>
        <time>2021-07-08T16:42:26+0200</time>
      </trkpt>
      <trkpt lat="45.09418" lon="2.96275">
        <ele>1004.304634</ele>
        <time>2021-07-08T16:42:27+0200</time>
      </trkpt>
      <trkpt lat="45.09425" lon="2.96276">
        <ele>1004.209244</ele>
        <time>2021-07-08T16:42:28+0200</time>
      </trkpt>
      <trkpt lat="45.09432" lon="2.96277">
        <ele>1004.018783</ele>
        <time>2021-07-08T16:42:29+0200</time>
      </trkpt>
      <trkpt lat="45.09439" lon="2.96277">
        <ele>1003.785998</ele>
        <time>2021-07-08T16:42:30+0200</time>
      </trkpt>
      <trkpt lat="45.09447" lon="2.96279">
        <ele>1003.662418</ele>
        <time>2021-07-08T16:42:31+0200</time>
      </trkpt>
      <trkpt lat="45.09454" lon="2.96279">
        <ele>1003.635378</ele>
        <time>2021-07-08T16:42:32+0200</time>
      </trkpt>
      <trkpt lat="45.0946" lon="2.9628">
        <ele>1003.594237</ele>
        <time>2021-07-08T16:42:33+0200</time>
      </trkpt>
      <trkpt lat="45.09467" lon="2.96281">
        <ele>1003.496415</ele>
        <time>2021-07-08T16:42:34+0200</time>
      </trkpt>
      <trkpt lat="45.09474" lon="2.96282">
        <ele>1003.223589</ele>
        <time>2021-07-08T16:42:35+0200</time>
      </trkpt>
      <trkpt lat="45.09481" lon="2.96283">
        <ele>1003.05587</ele>
        <time>2021-07-08T16:42:36+0200</time>
      </trkpt>
      <trkpt lat="45.09488" lon="2.96284">
        <ele>1003.140371</ele>
        <time>2021-07-08T16:42:37+0200</time>
      </trkpt>
      <trkpt lat="45.09494" lon="2.96285">
        <ele>1002.85855</ele>
        <time>2021-07-08T16:42:38+0200</time>
      </trkpt>
      <trkpt lat="45.09501" lon="2.96286">
        <ele>1002.890579</ele>
        <time>2021-07-08T16:42:39+0200</time>
      </trkpt>
      <trkpt lat="45.09508" lon="2.96287">
        <ele>1002.809818</ele>
        <time>2021-07-08T16:42:40+0200</time>
      </trkpt>
      <trkpt lat="45.09515" lon="2.96288">
        <ele>1002.844795</ele>
        <time>2021-07-08T16:42:41+0200</time>
      </trkpt>
      <trkpt lat="45.09522" lon="2.96288">
        <ele>1002.718724</ele>
        <time>2021-07-08T16:42:42+0200</time>
      </trkpt>
      <trkpt lat="45.09529" lon="2.96287">
        <ele>1002.588391</ele>
        <time>2021-07-08T16:42:43+0200</time>
      </trkpt>
      <trkpt lat="45.09536" lon="2.96286">
        <ele>1002.658362</ele>
        <time>2021-07-08T16:42:44+0200</time>
      </trkpt>
      <trkpt lat="45.09543" lon="2.96286">
        <ele>1002.736229</ele>
        <time>2021-07-08T16:42:45+0200</time>
      </trkpt>
      <trkpt lat="45.0955" lon="2.96286">
        <ele>1003.027805</ele>
        <time>2021-07-08T16:42:46+0200</time>
      </trkpt>
      <trkpt lat="45.09556" lon="2.96286">
        <ele>1003.083406</ele>
        <time>2021-07-08T16:42:47+0200</time>
      </trkpt>
      <trkpt lat="45.09563" lon="2.96285">
        <ele>1003.220769</ele>
        <time>2021-07-08T16:42:48+0200</time>
      </trkpt>
      <trkpt lat="45.0957" lon="2.96285">
        <ele>1003.187568</ele>
        <time>2021-07-08T16:42:49+0200</time>
      </trkpt>
      <trkpt lat="45.09576" lon="2.96285">
        <ele>1003.076785</ele>
        <time>2021-07-08T16:42:50+0200</time>
      </trkpt>
      <trkpt lat="45.09581" lon="2.96284">
        <ele>1003.015938</ele>
        <time>2021-07-08T16:42:51+0200</time>
      </trkpt>
      <trkpt lat="45.09588" lon="2.96282">
        <ele>1003.342311</ele>
        <time>2021-07-08T16:42:52+0200</time>
      </trkpt>
      <trkpt lat="45.09594" lon="2.96281">
        <ele>1003.138606</ele>
        <time>2021-07-08T16:42:53+0200</time>
      </trkpt>
      <trkpt lat="45.096" lon="2.96279">
        <ele>1003.017911</ele>
        <time>2021-07-08T16:42:54+0200</time>
      </trkpt>
      <trkpt lat="45.09605" lon="2.96277">
        <ele>1002.79404</ele>
        <time>2021-07-08T16:42:55+0200</time>
      </trkpt>
      <trkpt lat="45.09611" lon="2.96273">
        <ele>1002.586123</ele>
        <time>2021-07-08T16:42:56+0200</time>
      </trkpt>
      <trkpt lat="45.09617" lon="2.96269">
        <ele>1002.145346</ele>
        <time>2021-07-08T16:42:57+0200</time>
      </trkpt>
      <trkpt lat="45.09622" lon="2.96265">
        <ele>1001.601978</ele>
        <time>2021-07-08T16:42:58+0200</time>
      </trkpt>
      <trkpt lat="45.09628" lon="2.9626">
        <ele>1001.1397</ele>
        <time>2021-07-08T16:42:59+0200</time>
      </trkpt>
      <trkpt lat="45.09635" lon="2.96255">
        <ele>1000.639492</ele>
        <time>2021-07-08T16:43:00+0200</time>
      </trkpt>
      <trkpt lat="45.09641" lon="2.9625">
        <ele>1000.187734</ele>
        <time>2021-07-08T16:43:01+0200</time>
      </trkpt>
      <trkpt lat="45.09647" lon="2.96244">
        <ele>999.730026</ele>
        <time>2021-07-08T16:43:02+0200</time>
      </trkpt>
      <trkpt lat="45.09654" lon="2.96239">
        <ele>999.372374</ele>
        <time>2021-07-08T16:43:03+0200</time>
      </trkpt>
      <trkpt lat="45.09662" lon="2.96234">
        <ele>999.289647</ele>
        <time>2021-07-08T16:43:04+0200</time>
      </trkpt>
      <trkpt lat="45.09669" lon="2.96228">
        <ele>998.897072</ele>
        <time>2021-07-08T16:43:05+0200</time>
      </trkpt>
      <trkpt lat="45.09676" lon="2.96222">
        <ele>998.544546</ele>
        <time>2021-07-08T16:43:06+0200</time>
      </trkpt>
      <trkpt lat="45.09683" lon="2.96217">
        <ele>998.353208</ele>
        <time>2021-07-08T16:43:07+0200</time>
      </trkpt>
      <trkpt lat="45.0969" lon="2.96211">
        <ele>998.094906</ele>
        <time>2021-07-08T16:43:08+0200</time>
      </trkpt>
      <trkpt lat="45.09698" lon="2.96205">
        <ele>997.58109</ele>
        <time>2021-07-08T16:43:09+0200</time>
      </trkpt>
      <trkpt lat="45.09705" lon="2.96199">
        <ele>997.34731</ele>
        <time>2021-07-08T16:43:10+0200</time>
      </trkpt>
      <trkpt lat="45.09712" lon="2.96194">
        <ele>996.770856</ele>
        <time>2021-07-08T16:43:11+0200</time>
      </trkpt>
      <trkpt lat="45.09719" lon="2.96189">
        <ele>996.251897</ele>
        <time>2021-07-08T16:43:12+0200</time>
      </trkpt>
      <trkpt lat="45.09727" lon="2.96183">
        <ele>995.885718</ele>
        <time>2021-07-08T16:43:13+0200</time>
      </trkpt>
      <trkpt lat="45.09734" lon="2.96177">
        <ele>995.470165</ele>
        <time>2021-07-08T16:43:14+0200</time>
      </trkpt>
      <trkpt lat="45.09742" lon="2.96171">
        <ele>994.988005</ele>
        <time>2021-07-08T16:43:15+0200</time>
      </trkpt>
      <trkpt lat="45.09749" lon="2.96165">
        <ele>994.390883</ele>
        <time>2021-07-08T16:43:16+0200</time>
      </trkpt>
      <trkpt lat="45.09757" lon="2.96158">
        <ele>994.003799</ele>
        <time>2021-07-08T16:43:17+0200</time>
      </trkpt>
      <trkpt lat="45.09765" lon="2.96152">
        <ele>993.443097</ele>
        <time>2021-07-08T16:43:18+0200</time>
      </trkpt>
      <trkpt lat="45.09773" lon="2.96145">
        <ele>993.214695</ele>
        <time>2021-07-08T16:43:19+0200</time>
      </trkpt>
      <trkpt lat="45.0978" lon="2.96139">
        <ele>992.615415</ele>
        <time>2021-07-08T16:43:20+0200</time>
      </trkpt>
      <trkpt lat="45.09788" lon="2.96132">
        <ele>992.329876</ele>
        <time>2021-07-08T16:43:21+0200</time>
      </trkpt>
      <trkpt lat="45.09796" lon="2.96126">
        <ele>991.901171</ele>
        <time>2021-07-08T16:43:22+0200</time>
      </trkpt>
      <trkpt lat="45.09804" lon="2.96119">
        <ele>991.705011</ele>
        <time>2021-07-08T16:43:23+0200</time>
      </trkpt>
      <trkpt lat="45.09812" lon="2.96113">
        <ele>991.54275</ele>
        <time>2021-07-08T16:43:24+0200</time>
      </trkpt>
      <trkpt lat="45.09819" lon="2.96107">
        <ele>991.516153</ele>
        <time>2021-07-08T16:43:25+0200</time>
      </trkpt>
      <trkpt lat="45.09827" lon="2.96102">
        <ele>991.390769</ele>
        <time>2021-07-08T16:43:26+0200</time>
      </trkpt>
      <trkpt lat="45.09834" lon="2.96096">
        <ele>991.41316</ele>
        <time>2021-07-08T16:43:27+0200</time>
      </trkpt>
      <trkpt lat="45.09841" lon="2.96091">
        <ele>991.590839</ele>
        <time>2021-07-08T16:43:28+0200</time>
      </trkpt>
      <trkpt lat="45.09848" lon="2.96085">
        <ele>991.468584</ele>
        <time>2021-07-08T16:43:29+0200</time>
      </trkpt>
      <trkpt lat="45.09855" lon="2.9608">
        <ele>991.042179</ele>
        <time>2021-07-08T16:43:30+0200</time>
      </trkpt>
      <trkpt lat="45.09862" lon="2.96075">
        <ele>990.93464</ele>
        <time>2021-07-08T16:43:31+0200</time>
      </trkpt>
      <trkpt lat="45.09869" lon="2.96071">
        <ele>990.855081</ele>
        <time>2021-07-08T16:43:32+0200</time>
      </trkpt>
      <trkpt lat="45.09875" lon="2.96065">
        <ele>990.930962</ele>
        <time>2021-07-08T16:43:33+0200</time>
      </trkpt>
      <trkpt lat="45.09881" lon="2.96061">
        <ele>990.904142</ele>
        <time>2021-07-08T16:43:34+0200</time>
      </trkpt>
      <trkpt lat="45.09887" lon="2.96057">
        <ele>990.879784</ele>
        <time>2021-07-08T16:43:35+0200</time>
      </trkpt>
      <trkpt lat="45.09894" lon="2.96054">
        <ele>990.503827</ele>
        <time>2021-07-08T16:43:36+0200</time>
      </trkpt>
      <trkpt lat="45.09901" lon="2.96052">
        <ele>990.320128</ele>
        <time>2021-07-08T16:43:37+0200</time>
      </trkpt>
      <trkpt lat="45.09909" lon="2.96052">
        <ele>990.354307</ele>
        <time>2021-07-08T16:43:38+0200</time>
      </trkpt>
      <trkpt lat="45.09916" lon="2.96053">
        <ele>990.618216</ele>
        <time>2021-07-08T16:43:39+0200</time>
      </trkpt>
      <trkpt lat="45.09922" lon="2.96054">
        <ele>990.834748</ele>
        <time>2021-07-08T16:43:40+0200</time>
      </trkpt>
      <trkpt lat="45.09929" lon="2.96054">
        <ele>990.647957</ele>
        <time>2021-07-08T16:43:41+0200</time>
      </trkpt>
      <trkpt lat="45.09936" lon="2.96053">
        <ele>990.503229</ele>
        <time>2021-07-08T16:43:42+0200</time>
      </trkpt>
      <trkpt lat="45.09942" lon="2.96051">
        <ele>990.562549</ele>
        <time>2021-07-08T16:43:43+0200</time>
      </trkpt>
      <trkpt lat="45.09948" lon="2.96049">
        <ele>990.569053</ele>
        <time>2021-07-08T16:43:44+0200</time>
      </trkpt>
      <trkpt lat="45.09954" lon="2.96048">
        <ele>991.037225</ele>
        <time>2021-07-08T16:43:45+0200</time>
      </trkpt>
      <trkpt lat="45.09961" lon="2.96046">
        <ele>991.171783</ele>
        <time>2021-07-08T16:43:46+0200</time>
      </trkpt>
      <trkpt lat="45.09967" lon="2.96044">
        <ele>991.561655</ele>
        <time>2021-07-08T16:43:47+0200</time>
      </trkpt>
      <trkpt lat="45.09973" lon="2.96042">
        <ele>991.803321</ele>
        <time>2021-07-08T16:43:48+0200</time>
      </trkpt>
      <trkpt lat="45.09979" lon="2.96041">
        <ele>991.953228</ele>
        <time>2021-07-08T16:43:49+0200</time>
      </trkpt>
      <trkpt lat="45.09985" lon="2.9604">
        <ele>992.45735</ele>
        <time>2021-07-08T16:43:50+0200</time>
      </trkpt>
      <trkpt lat="45.09991" lon="2.96038">
        <ele>992.793192</ele>
        <time>2021-07-08T16:43:51+0200</time>
      </trkpt>
      <trkpt lat="45.09996" lon="2.96035">
        <ele>992.997378</ele>
        <time>2021-07-08T16:43:52+0200</time>
      </trkpt>
      <trkpt lat="45.10001" lon="2.96032">
        <ele>993.708154</ele>
        <time>2021-07-08T16:43:53+0200</time>
      </trkpt>
      <trkpt lat="45.10006" lon="2.96028">
        <ele>994.142783</ele>
        <time>2021-07-08T16:43:54+0200</time>
      </trkpt>
      <trkpt lat="45.1001" lon="2.96024">
        <ele>994.082991</ele>
        <time>2021-07-08T16:43:55+0200</time>
      </trkpt>
      <trkpt lat="45.10015" lon="2.96021">
        <ele>994.426954</ele>
        <time>2021-07-08T16:43:56+0200</time>
      </trkpt>
      <trkpt lat="45.10018" lon="2.96017">
        <ele>994.878972</ele>
        <time>2021-07-08T16:43:57+0200</time>
      </trkpt>
      <trkpt lat="45.10022" lon="2.96013">
        <ele>995.066</ele>
        <time>2021-07-08T16:43:58+0200</time>
      </trkpt>
      <trkpt lat="45.10029" lon="2.96004">
        <ele>995.141491</ele>
        <time>2021-07-08T16:44:00+0200</time>
      </trkpt>
      <trkpt lat="45.10033" lon="2.96">
        <ele>995.161582</ele>
        <time>2021-07-08T16:44:01+0200</time>
      </trkpt>
      <trkpt lat="45.10037" lon="2.95996">
        <ele>995.229305</ele>
        <time>2021-07-08T16:44:02+0200</time>
      </trkpt>
      <trkpt lat="45.10041" lon="2.95992">
        <ele>995.181789</ele>
        <time>2021-07-08T16:44:03+0200</time>
      </trkpt>
      <trkpt lat="45.10048" lon="2.95985">
        <ele>995.938807</ele>
        <time>2021-07-08T16:44:05+0200</time>
      </trkpt>
      <trkpt lat="45.10055" lon="2.95978">
        <ele>996.275343</ele>
        <time>2021-07-08T16:44:07+0200</time>
      </trkpt>
      <trkpt lat="45.10062" lon="2.95971">
        <ele>996.956561</ele>
        <time>2021-07-08T16:44:09+0200</time>
      </trkpt>
      <trkpt lat="45.10069" lon="2.95966">
        <ele>998.114637</ele>
        <time>2021-07-08T16:44:11+0200</time>
      </trkpt>
      <trkpt lat="45.10076" lon="2.95961">
        <ele>998.682803</ele>
        <time>2021-07-08T16:44:13+0200</time>
      </trkpt>
      <trkpt lat="45.10081" lon="2.95956">
        <ele>999.218687</ele>
        <time>2021-07-08T16:44:15+0200</time>
      </trkpt>
      <trkpt lat="45.10087" lon="2.95951">
        <ele>1000.536981</ele>
        <time>2021-07-08T16:44:17+0200</time>
      </trkpt>
      <trkpt lat="45.10094" lon="2.95949">
        <ele>1001.20116</ele>
        <time>2021-07-08T16:44:19+0200</time>
      </trkpt>
      <trkpt lat="45.10101" lon="2.95946">
        <ele>1001.987178</ele>
        <time>2021-07-08T16:44:21+0200</time>
      </trkpt>
      <trkpt lat="45.10108" lon="2.95943">
        <ele>1002.066314</ele>
        <time>2021-07-08T16:44:23+0200</time>
      </trkpt>
      <trkpt lat="45.10116" lon="2.9594">
        <ele>1002.296207</ele>
        <time>2021-07-08T16:44:25+0200</time>
      </trkpt>
      <trkpt lat="45.10124" lon="2.95936">
        <ele>1002.476229</ele>
        <time>2021-07-08T16:44:27+0200</time>
      </trkpt>
      <trkpt lat="45.10131" lon="2.95934">
        <ele>1002.462165</ele>
        <time>2021-07-08T16:44:29+0200</time>
      </trkpt>
      <trkpt lat="45.10138" lon="2.95931">
        <ele>1003.35806</ele>
        <time>2021-07-08T16:44:31+0200</time>
      </trkpt>
      <trkpt lat="45.10145" lon="2.95928">
        <ele>1003.70499</ele>
        <time>2021-07-08T16:44:33+0200</time>
      </trkpt>
      <trkpt lat="45.10151" lon="2.95926">
        <ele>1003.988437</ele>
        <time>2021-07-08T16:44:35+0200</time>
      </trkpt>
      <trkpt lat="45.10159" lon="2.95924">
        <ele>1004.591204</ele>
        <time>2021-07-08T16:44:37+0200</time>
      </trkpt>
      <trkpt lat="45.10166" lon="2.9592">
        <ele>1005.50111</ele>
        <time>2021-07-08T16:44:39+0200</time>
      </trkpt>
      <trkpt lat="45.10173" lon="2.95919">
        <ele>1005.700418</ele>
        <time>2021-07-08T16:44:41+0200</time>
      </trkpt>
      <trkpt lat="45.10179" lon="2.95916">
        <ele>1006.518333</ele>
        <time>2021-07-08T16:44:43+0200</time>
      </trkpt>
      <trkpt lat="45.10186" lon="2.95913">
        <ele>1007.262615</ele>
        <time>2021-07-08T16:44:45+0200</time>
      </trkpt>
      <trkpt lat="45.10193" lon="2.95912">
        <ele>1007.132468</ele>
        <time>2021-07-08T16:44:47+0200</time>
      </trkpt>
      <trkpt lat="45.10201" lon="2.95909">
        <ele>1007.415985</ele>
        <time>2021-07-08T16:44:49+0200</time>
      </trkpt>
      <trkpt lat="45.10208" lon="2.95907">
        <ele>1007.48882</ele>
        <time>2021-07-08T16:44:51+0200</time>
      </trkpt>
      <trkpt lat="45.10215" lon="2.95904">
        <ele>1007.766645</ele>
        <time>2021-07-08T16:44:53+0200</time>
      </trkpt>
      <trkpt lat="45.10223" lon="2.95902">
        <ele>1007.621916</ele>
        <time>2021-07-08T16:44:55+0200</time>
      </trkpt>
      <trkpt lat="45.1023" lon="2.95899">
        <ele>1007.911601</ele>
        <time>2021-07-08T16:44:57+0200</time>
      </trkpt>
      <trkpt lat="45.10238" lon="2.95897">
        <ele>1008.47945</ele>
        <time>2021-07-08T16:44:59+0200</time>
      </trkpt>
      <trkpt lat="45.10246" lon="2.95894">
        <ele>1008.619498</ele>
        <time>2021-07-08T16:45:01+0200</time>
      </trkpt>
      <trkpt lat="45.10254" lon="2.95892">
        <ele>1009.468087</ele>
        <time>2021-07-08T16:45:03+0200</time>
      </trkpt>
      <trkpt lat="45.10262" lon="2.95888">
        <ele>1010.15267</ele>
        <time>2021-07-08T16:45:05+0200</time>
      </trkpt>
      <trkpt lat="45.10269" lon="2.95884">
        <ele>1010.71649</ele>
        <time>2021-07-08T16:45:07+0200</time>
      </trkpt>
      <trkpt lat="45.10276" lon="2.9588">
        <ele>1011.184472</ele>
        <time>2021-07-08T16:45:09+0200</time>
      </trkpt>
      <trkpt lat="45.10284" lon="2.95875">
        <ele>1012.051438</ele>
        <time>2021-07-08T16:45:11+0200</time>
      </trkpt>
      <trkpt lat="45.10291" lon="2.95871">
        <ele>1012.081413</ele>
        <time>2021-07-08T16:45:13+0200</time>
      </trkpt>
      <trkpt lat="45.10298" lon="2.95869">
        <ele>1011.830694</ele>
        <time>2021-07-08T16:45:15+0200</time>
      </trkpt>
      <trkpt lat="45.10304" lon="2.95871">
        <ele>1012.041774</ele>
        <time>2021-07-08T16:45:17+0200</time>
      </trkpt>
      <trkpt lat="45.1031" lon="2.95876">
        <ele>1012.245022</ele>
        <time>2021-07-08T16:45:19+0200</time>
      </trkpt>
      <trkpt lat="45.10313" lon="2.95885">
        <ele>1012.086398</ele>
        <time>2021-07-08T16:45:21+0200</time>
      </trkpt>
      <trkpt lat="45.10313" lon="2.95896">
        <ele>1012.021011</ele>
        <time>2021-07-08T16:45:23+0200</time>
      </trkpt>
      <trkpt lat="45.10314" lon="2.95904">
        <ele>1012.431376</ele>
        <time>2021-07-08T16:45:25+0200</time>
      </trkpt>
      <trkpt lat="45.10314" lon="2.95913">
        <ele>1012.046734</ele>
        <time>2021-07-08T16:45:27+0200</time>
      </trkpt>
      <trkpt lat="45.10315" lon="2.95923">
        <ele>1011.289207</ele>
        <time>2021-07-08T16:45:29+0200</time>
      </trkpt>
      <trkpt lat="45.10315" lon="2.95933">
        <ele>1011.129243</ele>
        <time>2021-07-08T16:45:31+0200</time>
      </trkpt>
      <trkpt lat="45.10316" lon="2.95943">
        <ele>1010.600643</ele>
        <time>2021-07-08T16:45:33+0200</time>
      </trkpt>
      <trkpt lat="45.10317" lon="2.95949">
        <ele>1010.266931</ele>
        <time>2021-07-08T16:45:34+0200</time>
      </trkpt>
      <trkpt lat="45.10319" lon="2.95962">
        <ele>1010.165758</ele>
        <time>2021-07-08T16:45:36+0200</time>
      </trkpt>
      <trkpt lat="45.1032" lon="2.95974">
        <ele>1009.634848</ele>
        <time>2021-07-08T16:45:38+0200</time>
      </trkpt>
      <trkpt lat="45.1032" lon="2.95981">
        <ele>1009.522674</ele>
        <time>2021-07-08T16:45:39+0200</time>
      </trkpt>
      <trkpt lat="45.10321" lon="2.95987">
        <ele>1009.485619</ele>
        <time>2021-07-08T16:45:40+0200</time>
      </trkpt>
      <trkpt lat="45.10322" lon="2.95998">
        <ele>1009.902333</ele>
        <time>2021-07-08T16:45:42+0200</time>
      </trkpt>
      <trkpt lat="45.10323" lon="2.9601">
        <ele>1010.243214</ele>
        <time>2021-07-08T16:45:44+0200</time>
      </trkpt>
      <trkpt lat="45.10324" lon="2.96017">
        <ele>1010.756463</ele>
        <time>2021-07-08T16:45:45+0200</time>
      </trkpt>
      <trkpt lat="45.10325" lon="2.96029">
        <ele>1010.950863</ele>
        <time>2021-07-08T16:45:47+0200</time>
      </trkpt>
      <trkpt lat="45.10325" lon="2.96036">
        <ele>1010.757576</ele>
        <time>2021-07-08T16:45:48+0200</time>
      </trkpt>
      <trkpt lat="45.10326" lon="2.96043">
        <ele>1010.772091</ele>
        <time>2021-07-08T16:45:49+0200</time>
      </trkpt>
      <trkpt lat="45.10326" lon="2.96051">
        <ele>1010.525522</ele>
        <time>2021-07-08T16:45:50+0200</time>
      </trkpt>
      <trkpt lat="45.10327" lon="2.96058">
        <ele>1010.587583</ele>
        <time>2021-07-08T16:45:51+0200</time>
      </trkpt>
      <trkpt lat="45.10328" lon="2.96065">
        <ele>1010.871841</ele>
        <time>2021-07-08T16:45:52+0200</time>
      </trkpt>
      <trkpt lat="45.10328" lon="2.96072">
        <ele>1010.831299</ele>
        <time>2021-07-08T16:45:53+0200</time>
      </trkpt>
      <trkpt lat="45.10329" lon="2.9608">
        <ele>1011.036116</ele>
        <time>2021-07-08T16:45:54+0200</time>
      </trkpt>
      <trkpt lat="45.1033" lon="2.96087">
        <ele>1011.315409</ele>
        <time>2021-07-08T16:45:55+0200</time>
      </trkpt>
      <trkpt lat="45.10331" lon="2.96095">
        <ele>1011.236338</ele>
        <time>2021-07-08T16:45:56+0200</time>
      </trkpt>
      <trkpt lat="45.10332" lon="2.96102">
        <ele>1011.256999</ele>
        <time>2021-07-08T16:45:57+0200</time>
      </trkpt>
      <trkpt lat="45.10333" lon="2.9611">
        <ele>1011.160207</ele>
        <time>2021-07-08T16:45:58+0200</time>
      </trkpt>
      <trkpt lat="45.10334" lon="2.96117">
        <ele>1011.257477</ele>
        <time>2021-07-08T16:45:59+0200</time>
      </trkpt>
      <trkpt lat="45.10335" lon="2.96125">
        <ele>1011.295131</ele>
        <time>2021-07-08T16:46:00+0200</time>
      </trkpt>
      <trkpt lat="45.10336" lon="2.96132">
        <ele>1011.296083</ele>
        <time>2021-07-08T16:46:01+0200</time>
      </trkpt>
      <trkpt lat="45.10338" lon="2.96138">
        <ele>1011.278293</ele>
        <time>2021-07-08T16:46:02+0200</time>
      </trkpt>
      <trkpt lat="45.1034" lon="2.96146">
        <ele>1011.076754</ele>
        <time>2021-07-08T16:46:03+0200</time>
      </trkpt>
      <trkpt lat="45.10341" lon="2.96152">
        <ele>1011.040596</ele>
        <time>2021-07-08T16:46:04+0200</time>
      </trkpt>
      <trkpt lat="45.10343" lon="2.96159">
        <ele>1011.005479</ele>
        <time>2021-07-08T16:46:05+0200</time>
      </trkpt>
      <trkpt lat="45.10344" lon="2.96166">
        <ele>1011.077049</ele>
        <time>2021-07-08T16:46:06+0200</time>
      </trkpt>
      <trkpt lat="45.10346" lon="2.96173">
        <ele>1010.745765</ele>
        <time>2021-07-08T16:46:07+0200</time>
      </trkpt>
      <trkpt lat="45.10348" lon="2.9618">
        <ele>1010.698183</ele>
        <time>2021-07-08T16:46:08+0200</time>
      </trkpt>
      <trkpt lat="45.10349" lon="2.96187">
        <ele>1010.564364</ele>
        <time>2021-07-08T16:46:09+0200</time>
      </trkpt>
      <trkpt lat="45.10351" lon="2.96194">
        <ele>1010.173004</ele>
        <time>2021-07-08T16:46:10+0200</time>
      </trkpt>
      <trkpt lat="45.10353" lon="2.96202">
        <ele>1010.215077</ele>
        <time>2021-07-08T16:46:11+0200</time>
      </trkpt>
      <trkpt lat="45.10355" lon="2.96209">
        <ele>1010.453952</ele>
        <time>2021-07-08T16:46:12+0200</time>
      </trkpt>
      <trkpt lat="45.10356" lon="2.96216">
        <ele>1010.709252</ele>
        <time>2021-07-08T16:46:13+0200</time>
      </trkpt>
      <trkpt lat="45.10357" lon="2.96223">
        <ele>1010.542245</ele>
        <time>2021-07-08T16:46:14+0200</time>
      </trkpt>
      <trkpt lat="45.10359" lon="2.96231">
        <ele>1010.648953</ele>
        <time>2021-07-08T16:46:15+0200</time>
      </trkpt>
      <trkpt lat="45.10359" lon="2.96239">
        <ele>1010.413078</ele>
        <time>2021-07-08T16:46:16+0200</time>
      </trkpt>
      <trkpt lat="45.1036" lon="2.96246">
        <ele>1009.986163</ele>
        <time>2021-07-08T16:46:17+0200</time>
      </trkpt>
      <trkpt lat="45.1036" lon="2.96254">
        <ele>1010.012557</ele>
        <time>2021-07-08T16:46:18+0200</time>
      </trkpt>
      <trkpt lat="45.1036" lon="2.96262">
        <ele>1009.538693</ele>
        <time>2021-07-08T16:46:19+0200</time>
      </trkpt>
      <trkpt lat="45.1036" lon="2.9627">
        <ele>1009.351803</ele>
        <time>2021-07-08T16:46:20+0200</time>
      </trkpt>
      <trkpt lat="45.1036" lon="2.96279">
        <ele>1009.088524</ele>
        <time>2021-07-08T16:46:21+0200</time>
      </trkpt>
      <trkpt lat="45.10359" lon="2.96287">
        <ele>1008.77838</ele>
        <time>2021-07-08T16:46:22+0200</time>
      </trkpt>
      <trkpt lat="45.10358" lon="2.96296">
        <ele>1008.417485</ele>
        <time>2021-07-08T16:46:23+0200</time>
      </trkpt>
      <trkpt lat="45.10356" lon="2.96305">
        <ele>1007.941805</ele>
        <time>2021-07-08T16:46:24+0200</time>
      </trkpt>
      <trkpt lat="45.10353" lon="2.96314">
        <ele>1007.145098</ele>
        <time>2021-07-08T16:46:25+0200</time>
      </trkpt>
      <trkpt lat="45.10349" lon="2.96323">
        <ele>1006.467941</ele>
        <time>2021-07-08T16:46:26+0200</time>
      </trkpt>
      <trkpt lat="45.10345" lon="2.96332">
        <ele>1006.071044</ele>
        <time>2021-07-08T16:46:27+0200</time>
      </trkpt>
      <trkpt lat="45.1034" lon="2.96341">
        <ele>1005.743907</ele>
        <time>2021-07-08T16:46:28+0200</time>
      </trkpt>
      <trkpt lat="45.10336" lon="2.96351">
        <ele>1005.150431</ele>
        <time>2021-07-08T16:46:29+0200</time>
      </trkpt>
      <trkpt lat="45.10332" lon="2.9636">
        <ele>1005.143723</ele>
        <time>2021-07-08T16:46:30+0200</time>
      </trkpt>
      <trkpt lat="45.10327" lon="2.96369">
        <ele>1005.096807</ele>
        <time>2021-07-08T16:46:31+0200</time>
      </trkpt>
      <trkpt lat="45.10323" lon="2.96378">
        <ele>1005.333147</ele>
        <time>2021-07-08T16:46:32+0200</time>
      </trkpt>
      <trkpt lat="45.1032" lon="2.96386">
        <ele>1005.561603</ele>
        <time>2021-07-08T16:46:33+0200</time>
      </trkpt>
      <trkpt lat="45.10316" lon="2.96395">
        <ele>1005.586521</ele>
        <time>2021-07-08T16:46:34+0200</time>
      </trkpt>
      <trkpt lat="45.10313" lon="2.96404">
        <ele>1005.667043</ele>
        <time>2021-07-08T16:46:35+0200</time>
      </trkpt>
      <trkpt lat="45.10309" lon="2.96413">
        <ele>1005.70688</ele>
        <time>2021-07-08T16:46:36+0200</time>
      </trkpt>
      <trkpt lat="45.10305" lon="2.96422">
        <ele>1005.526737</ele>
        <time>2021-07-08T16:46:37+0200</time>
      </trkpt>
      <trkpt lat="45.10302" lon="2.9643">
        <ele>1005.35629</ele>
        <time>2021-07-08T16:46:38+0200</time>
      </trkpt>
      <trkpt lat="45.10299" lon="2.96439">
        <ele>1005.24617</ele>
        <time>2021-07-08T16:46:39+0200</time>
      </trkpt>
      <trkpt lat="45.10295" lon="2.96448">
        <ele>1005.032375</ele>
        <time>2021-07-08T16:46:40+0200</time>
      </trkpt>
      <trkpt lat="45.10291" lon="2.96456">
        <ele>1004.60804</ele>
        <time>2021-07-08T16:46:41+0200</time>
      </trkpt>
      <trkpt lat="45.10287" lon="2.96464">
        <ele>1004.271821</ele>
        <time>2021-07-08T16:46:42+0200</time>
      </trkpt>
      <trkpt lat="45.10283" lon="2.96473">
        <ele>1003.882998</ele>
        <time>2021-07-08T16:46:43+0200</time>
      </trkpt>
      <trkpt lat="45.10279" lon="2.96483">
        <ele>1003.38718</ele>
        <time>2021-07-08T16:46:44+0200</time>
      </trkpt>
      <trkpt lat="45.10275" lon="2.96493">
        <ele>1002.89088</ele>
        <time>2021-07-08T16:46:45+0200</time>
      </trkpt>
      <trkpt lat="45.10271" lon="2.96503">
        <ele>1002.202504</ele>
        <time>2021-07-08T16:46:46+0200</time>
      </trkpt>
      <trkpt lat="45.10267" lon="2.96514">
        <ele>1001.516429</ele>
        <time>2021-07-08T16:46:47+0200</time>
      </trkpt>
      <trkpt lat="45.10263" lon="2.96524">
        <ele>1001.31011</ele>
        <time>2021-07-08T16:46:48+0200</time>
      </trkpt>
      <trkpt lat="45.10258" lon="2.96535">
        <ele>1001.024183</ele>
        <time>2021-07-08T16:46:49+0200</time>
      </trkpt>
      <trkpt lat="45.10253" lon="2.96545">
        <ele>1000.617509</ele>
        <time>2021-07-08T16:46:50+0200</time>
      </trkpt>
      <trkpt lat="45.10249" lon="2.96556">
        <ele>1000.181547</ele>
        <time>2021-07-08T16:46:51+0200</time>
      </trkpt>
      <trkpt lat="45.10244" lon="2.96567">
        <ele>1000.002044</ele>
        <time>2021-07-08T16:46:52+0200</time>
      </trkpt>
      <trkpt lat="45.10239" lon="2.96578">
        <ele>999.691288</ele>
        <time>2021-07-08T16:46:53+0200</time>
      </trkpt>
      <trkpt lat="45.10235" lon="2.96588">
        <ele>999.571392</ele>
        <time>2021-07-08T16:46:54+0200</time>
      </trkpt>
      <trkpt lat="45.1023" lon="2.96598">
        <ele>999.321297</ele>
        <time>2021-07-08T16:46:55+0200</time>
      </trkpt>
      <trkpt lat="45.10226" lon="2.96609">
        <ele>999.144018</ele>
        <time>2021-07-08T16:46:56+0200</time>
      </trkpt>
      <trkpt lat="45.10222" lon="2.96619">
        <ele>999.270132</ele>
        <time>2021-07-08T16:46:57+0200</time>
      </trkpt>
      <trkpt lat="45.10219" lon="2.96629">
        <ele>999.19648</ele>
        <time>2021-07-08T16:46:58+0200</time>
      </trkpt>
      <trkpt lat="45.10215" lon="2.96638">
        <ele>999.08531</ele>
        <time>2021-07-08T16:46:59+0200</time>
      </trkpt>
      <trkpt lat="45.10211" lon="2.96648">
        <ele>998.932676</ele>
        <time>2021-07-08T16:47:00+0200</time>
      </trkpt>
      <trkpt lat="45.10208" lon="2.96658">
        <ele>998.530808</ele>
        <time>2021-07-08T16:47:01+0200</time>
      </trkpt>
      <trkpt lat="45.10204" lon="2.96668">
        <ele>998.563002</ele>
        <time>2021-07-08T16:47:02+0200</time>
      </trkpt>
      <trkpt lat="45.102" lon="2.96678">
        <ele>998.458941</ele>
        <time>2021-07-08T16:47:03+0200</time>
      </trkpt>
      <trkpt lat="45.10196" lon="2.96687">
        <ele>998.238774</ele>
        <time>2021-07-08T16:47:04+0200</time>
      </trkpt>
      <trkpt lat="45.10193" lon="2.96697">
        <ele>998.117774</ele>
        <time>2021-07-08T16:47:05+0200</time>
      </trkpt>
      <trkpt lat="45.1019" lon="2.96707">
        <ele>997.671494</ele>
        <time>2021-07-08T16:47:06+0200</time>
      </trkpt>
      <trkpt lat="45.10188" lon="2.96717">
        <ele>997.311003</ele>
        <time>2021-07-08T16:47:07+0200</time>
      </trkpt>
      <trkpt lat="45.10185" lon="2.96727">
        <ele>997.069479</ele>
        <time>2021-07-08T16:47:08+0200</time>
      </trkpt>
      <trkpt lat="45.10182" lon="2.96737">
        <ele>996.965729</ele>
        <time>2021-07-08T16:47:09+0200</time>
      </trkpt>
      <trkpt lat="45.10178" lon="2.96747">
        <ele>996.806677</ele>
        <time>2021-07-08T16:47:10+0200</time>
      </trkpt>
      <trkpt lat="45.10175" lon="2.96757">
        <ele>996.701387</ele>
        <time>2021-07-08T16:47:11+0200</time>
      </trkpt>
      <trkpt lat="45.10171" lon="2.96767">
        <ele>996.560958</ele>
        <time>2021-07-08T16:47:12+0200</time>
      </trkpt>
      <trkpt lat="45.10168" lon="2.96776">
        <ele>996.601467</ele>
        <time>2021-07-08T16:47:13+0200</time>
      </trkpt>
      <trkpt lat="45.10165" lon="2.96785">
        <ele>996.844428</ele>
        <time>2021-07-08T16:47:14+0200</time>
      </trkpt>
      <trkpt lat="45.10162" lon="2.96794">
        <ele>996.764122</ele>
        <time>2021-07-08T16:47:15+0200</time>
      </trkpt>
      <trkpt lat="45.10159" lon="2.96804">
        <ele>996.591251</ele>
        <time>2021-07-08T16:47:16+0200</time>
      </trkpt>
      <trkpt lat="45.10157" lon="2.96814">
        <ele>996.185942</ele>
        <time>2021-07-08T16:47:17+0200</time>
      </trkpt>
      <trkpt lat="45.10155" lon="2.96823">
        <ele>996.368846</ele>
        <time>2021-07-08T16:47:18+0200</time>
      </trkpt>
      <trkpt lat="45.10154" lon="2.96834">
        <ele>996.58715</ele>
        <time>2021-07-08T16:47:19+0200</time>
      </trkpt>
      <trkpt lat="45.10152" lon="2.96843">
        <ele>996.608965</ele>
        <time>2021-07-08T16:47:20+0200</time>
      </trkpt>
      <trkpt lat="45.1015" lon="2.96853">
        <ele>996.446726</ele>
        <time>2021-07-08T16:47:21+0200</time>
      </trkpt>
      <trkpt lat="45.10148" lon="2.96863">
        <ele>996.342648</ele>
        <time>2021-07-08T16:47:22+0200</time>
      </trkpt>
      <trkpt lat="45.10146" lon="2.96873">
        <ele>995.876614</ele>
        <time>2021-07-08T16:47:23+0200</time>
      </trkpt>
      <trkpt lat="45.10144" lon="2.96883">
        <ele>995.725058</ele>
        <time>2021-07-08T16:47:24+0200</time>
      </trkpt>
      <trkpt lat="45.10142" lon="2.96892">
        <ele>995.622875</ele>
        <time>2021-07-08T16:47:25+0200</time>
      </trkpt>
      <trkpt lat="45.1014" lon="2.96901">
        <ele>995.37719</ele>
        <time>2021-07-08T16:47:26+0200</time>
      </trkpt>
      <trkpt lat="45.10138" lon="2.96911">
        <ele>995.369407</ele>
        <time>2021-07-08T16:47:27+0200</time>
      </trkpt>
      <trkpt lat="45.10136" lon="2.96921">
        <ele>995.264217</ele>
        <time>2021-07-08T16:47:28+0200</time>
      </trkpt>
      <trkpt lat="45.10134" lon="2.96931">
        <ele>995.331394</ele>
        <time>2021-07-08T16:47:29+0200</time>
      </trkpt>
      <trkpt lat="45.10132" lon="2.9694">
        <ele>995.547831</ele>
        <time>2021-07-08T16:47:30+0200</time>
      </trkpt>
      <trkpt lat="45.10131" lon="2.9695">
        <ele>995.172447</ele>
        <time>2021-07-08T16:47:31+0200</time>
      </trkpt>
      <trkpt lat="45.10128" lon="2.9696">
        <ele>995.121559</ele>
        <time>2021-07-08T16:47:32+0200</time>
      </trkpt>
      <trkpt lat="45.10127" lon="2.9697">
        <ele>995.083255</ele>
        <time>2021-07-08T16:47:33+0200</time>
      </trkpt>
      <trkpt lat="45.10125" lon="2.9698">
        <ele>994.635845</ele>
        <time>2021-07-08T16:47:34+0200</time>
      </trkpt>
      <trkpt lat="45.10123" lon="2.9699">
        <ele>994.564237</ele>
        <time>2021-07-08T16:47:35+0200</time>
      </trkpt>
      <trkpt lat="45.10121" lon="2.97">
        <ele>994.206468</ele>
        <time>2021-07-08T16:47:36+0200</time>
      </trkpt>
      <trkpt lat="45.10119" lon="2.97011">
        <ele>994.0171</ele>
        <time>2021-07-08T16:47:37+0200</time>
      </trkpt>
      <trkpt lat="45.10117" lon="2.9702">
        <ele>993.889699</ele>
        <time>2021-07-08T16:47:38+0200</time>
      </trkpt>
      <trkpt lat="45.10115" lon="2.97031">
        <ele>993.870331</ele>
        <time>2021-07-08T16:47:39+0200</time>
      </trkpt>
      <trkpt lat="45.10113" lon="2.97041">
        <ele>993.876032</ele>
        <time>2021-07-08T16:47:40+0200</time>
      </trkpt>
      <trkpt lat="45.10111" lon="2.97051">
        <ele>993.709311</ele>
        <time>2021-07-08T16:47:41+0200</time>
      </trkpt>
      <trkpt lat="45.10109" lon="2.97061">
        <ele>993.912869</ele>
        <time>2021-07-08T16:47:42+0200</time>
      </trkpt>
      <trkpt lat="45.10107" lon="2.9707">
        <ele>994.16056</ele>
        <time>2021-07-08T16:47:43+0200</time>
      </trkpt>
      <trkpt lat="45.10105" lon="2.9708">
        <ele>994.162905</ele>
        <time>2021-07-08T16:47:44+0200</time>
      </trkpt>
      <trkpt lat="45.10103" lon="2.9709">
        <ele>993.890347</ele>
        <time>2021-07-08T16:47:45+0200</time>
      </trkpt>
      <trkpt lat="45.101" lon="2.97101">
        <ele>993.782601</ele>
        <time>2021-07-08T16:47:46+0200</time>
      </trkpt>
      <trkpt lat="45.10098" lon="2.9711">
        <ele>993.605652</ele>
        <time>2021-07-08T16:47:47+0200</time>
      </trkpt>
      <trkpt lat="45.10095" lon="2.9712">
        <ele>993.227999</ele>
        <time>2021-07-08T16:47:48+0200</time>
      </trkpt>
      <trkpt lat="45.10093" lon="2.9713">
        <ele>993.311685</ele>
        <time>2021-07-08T16:47:49+0200</time>
      </trkpt>
      <trkpt lat="45.10091" lon="2.9714">
        <ele>993.206813</ele>
        <time>2021-07-08T16:47:50+0200</time>
      </trkpt>
      <trkpt lat="45.10089" lon="2.97149">
        <ele>993.381948</ele>
        <time>2021-07-08T16:47:51+0200</time>
      </trkpt>
      <trkpt lat="45.10086" lon="2.97159">
        <ele>993.070465</ele>
        <time>2021-07-08T16:47:52+0200</time>
      </trkpt>
      <trkpt lat="45.10084" lon="2.97168">
        <ele>992.937059</ele>
        <time>2021-07-08T16:47:53+0200</time>
      </trkpt>
      <trkpt lat="45.10082" lon="2.97178">
        <ele>992.669153</ele>
        <time>2021-07-08T16:47:54+0200</time>
      </trkpt>
      <trkpt lat="45.1008" lon="2.97187">
        <ele>992.679014</ele>
        <time>2021-07-08T16:47:55+0200</time>
      </trkpt>
      <trkpt lat="45.10078" lon="2.97196">
        <ele>992.387807</ele>
        <time>2021-07-08T16:47:56+0200</time>
      </trkpt>
      <trkpt lat="45.10076" lon="2.97206">
        <ele>992.46009</ele>
        <time>2021-07-08T16:47:57+0200</time>
      </trkpt>
      <trkpt lat="45.10073" lon="2.97215">
        <ele>992.344414</ele>
        <time>2021-07-08T16:47:58+0200</time>
      </trkpt>
      <trkpt lat="45.10071" lon="2.97225">
        <ele>992.126929</ele>
        <time>2021-07-08T16:47:59+0200</time>
      </trkpt>
      <trkpt lat="45.10069" lon="2.97234">
        <ele>992.077632</ele>
        <time>2021-07-08T16:48:00+0200</time>
      </trkpt>
      <trkpt lat="45.10066" lon="2.97244">
        <ele>991.909652</ele>
        <time>2021-07-08T16:48:01+0200</time>
      </trkpt>
      <trkpt lat="45.10064" lon="2.97254">
        <ele>991.55423</ele>
        <time>2021-07-08T16:48:02+0200</time>
      </trkpt>
      <trkpt lat="45.10062" lon="2.97264">
        <ele>991.66497</ele>
        <time>2021-07-08T16:48:03+0200</time>
      </trkpt>
      <trkpt lat="45.1006" lon="2.97274">
        <ele>991.607995</ele>
        <time>2021-07-08T16:48:04+0200</time>
      </trkpt>
      <trkpt lat="45.10057" lon="2.97283">
        <ele>991.622804</ele>
        <time>2021-07-08T16:48:05+0200</time>
      </trkpt>
      <trkpt lat="45.10055" lon="2.97293">
        <ele>991.628257</ele>
        <time>2021-07-08T16:48:06+0200</time>
      </trkpt>
      <trkpt lat="45.10053" lon="2.97304">
        <ele>991.652398</ele>
        <time>2021-07-08T16:48:07+0200</time>
      </trkpt>
      <trkpt lat="45.10051" lon="2.97314">
        <ele>991.511093</ele>
        <time>2021-07-08T16:48:08+0200</time>
      </trkpt>
      <trkpt lat="45.10048" lon="2.97325">
        <ele>991.53055</ele>
        <time>2021-07-08T16:48:09+0200</time>
      </trkpt>
      <trkpt lat="45.10046" lon="2.97335">
        <ele>991.396184</ele>
        <time>2021-07-08T16:48:10+0200</time>
      </trkpt>
      <trkpt lat="45.10044" lon="2.97345">
        <ele>991.505855</ele>
        <time>2021-07-08T16:48:11+0200</time>
      </trkpt>
      <trkpt lat="45.10041" lon="2.97356">
        <ele>991.455075</ele>
        <time>2021-07-08T16:48:12+0200</time>
      </trkpt>
      <trkpt lat="45.10039" lon="2.97367">
        <ele>991.333523</ele>
        <time>2021-07-08T16:48:13+0200</time>
      </trkpt>
      <trkpt lat="45.10037" lon="2.97378">
        <ele>991.019407</ele>
        <time>2021-07-08T16:48:14+0200</time>
      </trkpt>
      <trkpt lat="45.10035" lon="2.97388">
        <ele>990.858589</ele>
        <time>2021-07-08T16:48:15+0200</time>
      </trkpt>
      <trkpt lat="45.10031" lon="2.97398">
        <ele>990.653571</ele>
        <time>2021-07-08T16:48:16+0200</time>
      </trkpt>
      <trkpt lat="45.10028" lon="2.97409">
        <ele>990.215574</ele>
        <time>2021-07-08T16:48:17+0200</time>
      </trkpt>
      <trkpt lat="45.10026" lon="2.9742">
        <ele>989.568566</ele>
        <time>2021-07-08T16:48:18+0200</time>
      </trkpt>
      <trkpt lat="45.10023" lon="2.97431">
        <ele>989.054069</ele>
        <time>2021-07-08T16:48:19+0200</time>
      </trkpt>
      <trkpt lat="45.10021" lon="2.97442">
        <ele>988.966139</ele>
        <time>2021-07-08T16:48:20+0200</time>
      </trkpt>
      <trkpt lat="45.10018" lon="2.97452">
        <ele>988.605893</ele>
        <time>2021-07-08T16:48:21+0200</time>
      </trkpt>
      <trkpt lat="45.10015" lon="2.97463">
        <ele>988.474894</ele>
        <time>2021-07-08T16:48:22+0200</time>
      </trkpt>
      <trkpt lat="45.10013" lon="2.97473">
        <ele>988.345104</ele>
        <time>2021-07-08T16:48:23+0200</time>
      </trkpt>
      <trkpt lat="45.10011" lon="2.97485">
        <ele>988.177698</ele>
        <time>2021-07-08T16:48:24+0200</time>
      </trkpt>
      <trkpt lat="45.10009" lon="2.97495">
        <ele>987.938308</ele>
        <time>2021-07-08T16:48:25+0200</time>
      </trkpt>
      <trkpt lat="45.10006" lon="2.97506">
        <ele>987.840545</ele>
        <time>2021-07-08T16:48:26+0200</time>
      </trkpt>
      <trkpt lat="45.10003" lon="2.97516">
        <ele>987.540194</ele>
        <time>2021-07-08T16:48:27+0200</time>
      </trkpt>
      <trkpt lat="45.10001" lon="2.97527">
        <ele>987.456002</ele>
        <time>2021-07-08T16:48:28+0200</time>
      </trkpt>
      <trkpt lat="45.09998" lon="2.97537">
        <ele>987.147407</ele>
        <time>2021-07-08T16:48:29+0200</time>
      </trkpt>
      <trkpt lat="45.09995" lon="2.97549">
        <ele>987.325775</ele>
        <time>2021-07-08T16:48:30+0200</time>
      </trkpt>
      <trkpt lat="45.09991" lon="2.9756">
        <ele>987.336834</ele>
        <time>2021-07-08T16:48:31+0200</time>
      </trkpt>
      <trkpt lat="45.09988" lon="2.97571">
        <ele>987.195252</ele>
        <time>2021-07-08T16:48:32+0200</time>
      </trkpt>
      <trkpt lat="45.09985" lon="2.97582">
        <ele>987.194692</ele>
        <time>2021-07-08T16:48:33+0200</time>
      </trkpt>
      <trkpt lat="45.09982" lon="2.97592">
        <ele>987.172128</ele>
        <time>2021-07-08T16:48:34+0200</time>
      </trkpt>
      <trkpt lat="45.0998" lon="2.97602">
        <ele>987.036152</ele>
        <time>2021-07-08T16:48:35+0200</time>
      </trkpt>
      <trkpt lat="45.09978" lon="2.97612">
        <ele>986.911955</ele>
        <time>2021-07-08T16:48:36+0200</time>
      </trkpt>
      <trkpt lat="45.09975" lon="2.97621">
        <ele>986.850307</ele>
        <time>2021-07-08T16:48:37+0200</time>
      </trkpt>
      <trkpt lat="45.09971" lon="2.97631">
        <ele>986.964677</ele>
        <time>2021-07-08T16:48:38+0200</time>
      </trkpt>
      <trkpt lat="45.09968" lon="2.9764">
        <ele>987.122307</ele>
        <time>2021-07-08T16:48:39+0200</time>
      </trkpt>
      <trkpt lat="45.09965" lon="2.9765">
        <ele>987.084375</ele>
        <time>2021-07-08T16:48:40+0200</time>
      </trkpt>
      <trkpt lat="45.09962" lon="2.97659">
        <ele>986.927487</ele>
        <time>2021-07-08T16:48:41+0200</time>
      </trkpt>
      <trkpt lat="45.09959" lon="2.97669">
        <ele>986.773169</ele>
        <time>2021-07-08T16:48:42+0200</time>
      </trkpt>
      <trkpt lat="45.09957" lon="2.97679">
        <ele>986.184767</ele>
        <time>2021-07-08T16:48:43+0200</time>
      </trkpt>
      <trkpt lat="45.09954" lon="2.97689">
        <ele>986.553289</ele>
        <time>2021-07-08T16:48:44+0200</time>
      </trkpt>
      <trkpt lat="45.09952" lon="2.97698">
        <ele>986.445391</ele>
        <time>2021-07-08T16:48:45+0200</time>
      </trkpt>
      <trkpt lat="45.0995" lon="2.97708">
        <ele>986.265417</ele>
        <time>2021-07-08T16:48:46+0200</time>
      </trkpt>
      <trkpt lat="45.09947" lon="2.97718">
        <ele>986.059315</ele>
        <time>2021-07-08T16:48:47+0200</time>
      </trkpt>
      <trkpt lat="45.09945" lon="2.97728">
        <ele>986.142999</ele>
        <time>2021-07-08T16:48:48+0200</time>
      </trkpt>
      <trkpt lat="45.09942" lon="2.97737">
        <ele>986.320072</ele>
        <time>2021-07-08T16:48:49+0200</time>
      </trkpt>
      <trkpt lat="45.0994" lon="2.97747">
        <ele>986.106237</ele>
        <time>2021-07-08T16:48:50+0200</time>
      </trkpt>
      <trkpt lat="45.09938" lon="2.97756">
        <ele>986.017079</ele>
        <time>2021-07-08T16:48:51+0200</time>
      </trkpt>
      <trkpt lat="45.09936" lon="2.97765">
        <ele>985.909689</ele>
        <time>2021-07-08T16:48:52+0200</time>
      </trkpt>
      <trkpt lat="45.09933" lon="2.97774">
        <ele>985.862552</ele>
        <time>2021-07-08T16:48:53+0200</time>
      </trkpt>
      <trkpt lat="45.09931" lon="2.97782">
        <ele>986.01786</ele>
        <time>2021-07-08T16:48:54+0200</time>
      </trkpt>
      <trkpt lat="45.09929" lon="2.97791">
        <ele>985.592599</ele>
        <time>2021-07-08T16:48:55+0200</time>
      </trkpt>
      <trkpt lat="45.09927" lon="2.978">
        <ele>985.57278</ele>
        <time>2021-07-08T16:48:56+0200</time>
      </trkpt>
      <trkpt lat="45.09924" lon="2.97809">
        <ele>985.270037</ele>
        <time>2021-07-08T16:48:57+0200</time>
      </trkpt>
      <trkpt lat="45.09922" lon="2.97818">
        <ele>984.757452</ele>
        <time>2021-07-08T16:48:58+0200</time>
      </trkpt>
      <trkpt lat="45.09919" lon="2.97827">
        <ele>984.329698</ele>
        <time>2021-07-08T16:48:59+0200</time>
      </trkpt>
      <trkpt lat="45.09916" lon="2.97836">
        <ele>984.17211</ele>
        <time>2021-07-08T16:49:00+0200</time>
      </trkpt>
      <trkpt lat="45.09912" lon="2.97844">
        <ele>983.772994</ele>
        <time>2021-07-08T16:49:01+0200</time>
      </trkpt>
      <trkpt lat="45.09908" lon="2.97853">
        <ele>983.863107</ele>
        <time>2021-07-08T16:49:02+0200</time>
      </trkpt>
      <trkpt lat="45.09904" lon="2.97861">
        <ele>983.957991</ele>
        <time>2021-07-08T16:49:03+0200</time>
      </trkpt>
      <trkpt lat="45.099" lon="2.9787">
        <ele>983.955747</ele>
        <time>2021-07-08T16:49:04+0200</time>
      </trkpt>
      <trkpt lat="45.09897" lon="2.97879">
        <ele>983.55422</ele>
        <time>2021-07-08T16:49:05+0200</time>
      </trkpt>
      <trkpt lat="45.09893" lon="2.97888">
        <ele>983.17339</ele>
        <time>2021-07-08T16:49:06+0200</time>
      </trkpt>
      <trkpt lat="45.0989" lon="2.97899">
        <ele>982.504144</ele>
        <time>2021-07-08T16:49:07+0200</time>
      </trkpt>
      <trkpt lat="45.09887" lon="2.97911">
        <ele>982.229329</ele>
        <time>2021-07-08T16:49:08+0200</time>
      </trkpt>
      <trkpt lat="45.09885" lon="2.97922">
        <ele>981.26377</ele>
        <time>2021-07-08T16:49:09+0200</time>
      </trkpt>
      <trkpt lat="45.09884" lon="2.97931">
        <ele>981.107976</ele>
        <time>2021-07-08T16:49:10+0200</time>
      </trkpt>
      <trkpt lat="45.09884" lon="2.97941">
        <ele>980.613678</ele>
        <time>2021-07-08T16:49:11+0200</time>
      </trkpt>
      <trkpt lat="45.09884" lon="2.97948">
        <ele>980.452869</ele>
        <time>2021-07-08T16:49:12+0200</time>
      </trkpt>
      <trkpt lat="45.09876" lon="2.9795">
        <ele>980.781927</ele>
        <time>2021-07-08T16:49:14+0200</time>
      </trkpt>
      <trkpt lat="45.09873" lon="2.97944">
        <ele>981.623455</ele>
        <time>2021-07-08T16:49:16+0200</time>
      </trkpt>
      <trkpt lat="45.09871" lon="2.97938">
        <ele>981.630571</ele>
        <time>2021-07-08T16:49:18+0200</time>
      </trkpt>
      <trkpt lat="45.09866" lon="2.97929">
        <ele>981.402125</ele>
        <time>2021-07-08T16:49:21+0200</time>
      </trkpt>
      <trkpt lat="45.0986" lon="2.97924">
        <ele>980.846202</ele>
        <time>2021-07-08T16:49:23+0200</time>
      </trkpt>
      <trkpt lat="45.09853" lon="2.97921">
        <ele>980.338779</ele>
        <time>2021-07-08T16:49:25+0200</time>
      </trkpt>
      <trkpt lat="45.09845" lon="2.97924">
        <ele>980.087057</ele>
        <time>2021-07-08T16:49:27+0200</time>
      </trkpt>
      <trkpt lat="45.09837" lon="2.97929">
        <ele>978.994438</ele>
        <time>2021-07-08T16:49:29+0200</time>
      </trkpt>
      <trkpt lat="45.09833" lon="2.97931">
        <ele>978.365137</ele>
        <time>2021-07-08T16:49:30+0200</time>
      </trkpt>
      <trkpt lat="45.09828" lon="2.97934">
        <ele>977.603039</ele>
        <time>2021-07-08T16:49:31+0200</time>
      </trkpt>
      <trkpt lat="45.09819" lon="2.97938">
        <ele>976.816232</ele>
        <time>2021-07-08T16:49:33+0200</time>
      </trkpt>
      <trkpt lat="45.09814" lon="2.97941">
        <ele>976.65679</ele>
        <time>2021-07-08T16:49:34+0200</time>
      </trkpt>
      <trkpt lat="45.09809" lon="2.97942">
        <ele>976.455818</ele>
        <time>2021-07-08T16:49:35+0200</time>
      </trkpt>
      <trkpt lat="45.09804" lon="2.97945">
        <ele>976.042735</ele>
        <time>2021-07-08T16:49:36+0200</time>
      </trkpt>
      <trkpt lat="45.09798" lon="2.97946">
        <ele>976.065449</ele>
        <time>2021-07-08T16:49:38+0200</time>
      </trkpt>
      <trkpt lat="45.09791" lon="2.97942">
        <ele>976.056839</ele>
        <time>2021-07-08T16:49:40+0200</time>
      </trkpt>
      <trkpt lat="45.09786" lon="2.97936">
        <ele>975.954887</ele>
        <time>2021-07-08T16:49:42+0200</time>
      </trkpt>
      <trkpt lat="45.09781" lon="2.97932">
        <ele>976.0604</ele>
        <time>2021-07-08T16:49:44+0200</time>
      </trkpt>
      <trkpt lat="45.09774" lon="2.97928">
        <ele>974.559537</ele>
        <time>2021-07-08T16:49:46+0200</time>
      </trkpt>
      <trkpt lat="45.09768" lon="2.97925">
        <ele>975.266382</ele>
        <time>2021-07-08T16:49:48+0200</time>
      </trkpt>
      <trkpt lat="45.09762" lon="2.97923">
        <ele>975.80745</ele>
        <time>2021-07-08T16:49:50+0200</time>
      </trkpt>
      <trkpt lat="45.09755" lon="2.97919">
        <ele>975.57044</ele>
        <time>2021-07-08T16:49:52+0200</time>
      </trkpt>
      <trkpt lat="45.09747" lon="2.97915">
        <ele>975.382836</ele>
        <time>2021-07-08T16:49:54+0200</time>
      </trkpt>
      <trkpt lat="45.0974" lon="2.97911">
        <ele>975.717563</ele>
        <time>2021-07-08T16:49:56+0200</time>
      </trkpt>
      <trkpt lat="45.09732" lon="2.97908">
        <ele>975.680889</ele>
        <time>2021-07-08T16:49:58+0200</time>
      </trkpt>
      <trkpt lat="45.09725" lon="2.97905">
        <ele>975.538572</ele>
        <time>2021-07-08T16:50:00+0200</time>
      </trkpt>
      <trkpt lat="45.09719" lon="2.97901">
        <ele>975.166802</ele>
        <time>2021-07-08T16:50:02+0200</time>
      </trkpt>
      <trkpt lat="45.09713" lon="2.97898">
        <ele>975.149413</ele>
        <time>2021-07-08T16:50:04+0200</time>
      </trkpt>
      <trkpt lat="45.09708" lon="2.97896">
        <ele>974.950174</ele>
        <time>2021-07-08T16:50:05+0200</time>
      </trkpt>
      <trkpt lat="45.097" lon="2.97892">
        <ele>974.500589</ele>
        <time>2021-07-08T16:50:07+0200</time>
      </trkpt>
      <trkpt lat="45.09693" lon="2.97889">
        <ele>974.099563</ele>
        <time>2021-07-08T16:50:09+0200</time>
      </trkpt>
      <trkpt lat="45.09686" lon="2.97886">
        <ele>974.072456</ele>
        <time>2021-07-08T16:50:11+0200</time>
      </trkpt>
      <trkpt lat="45.09679" lon="2.97883">
        <ele>974.383343</ele>
        <time>2021-07-08T16:50:13+0200</time>
      </trkpt>
      <trkpt lat="45.09673" lon="2.9788">
        <ele>974.206679</ele>
        <time>2021-07-08T16:50:15+0200</time>
      </trkpt>
      <trkpt lat="45.09666" lon="2.97877">
        <ele>974.549359</ele>
        <time>2021-07-08T16:50:17+0200</time>
      </trkpt>
      <trkpt lat="45.0966" lon="2.97873">
        <ele>974.145488</ele>
        <time>2021-07-08T16:50:19+0200</time>
      </trkpt>
      <trkpt lat="45.09654" lon="2.97872">
        <ele>974.225181</ele>
        <time>2021-07-08T16:50:21+0200</time>
      </trkpt>
      <trkpt lat="45.09648" lon="2.97869">
        <ele>973.374139</ele>
        <time>2021-07-08T16:50:23+0200</time>
      </trkpt>
      <trkpt lat="45.09643" lon="2.97864">
        <ele>973.128503</ele>
        <time>2021-07-08T16:50:25+0200</time>
      </trkpt>
      <trkpt lat="45.09637" lon="2.97864">
        <ele>973.654055</ele>
        <time>2021-07-08T16:50:28+0200</time>
      </trkpt>
      <trkpt lat="45.09633" lon="2.9786">
        <ele>973.384166</ele>
        <time>2021-07-08T16:50:31+0200</time>
      </trkpt>
      <trkpt lat="45.09634" lon="2.9785">
        <ele>973.688069</ele>
        <time>2021-07-08T16:50:33+0200</time>
      </trkpt>
      <trkpt lat="45.09632" lon="2.9784">
        <ele>973.33284</ele>
        <time>2021-07-08T16:50:35+0200</time>
      </trkpt>
      <trkpt lat="45.0963" lon="2.97832">
        <ele>973.193617</ele>
        <time>2021-07-08T16:50:37+0200</time>
      </trkpt>
      <trkpt lat="45.09628" lon="2.97825">
        <ele>973.427303</ele>
        <time>2021-07-08T16:50:39+0200</time>
      </trkpt>
      <trkpt lat="45.09627" lon="2.97817">
        <ele>973.364982</ele>
        <time>2021-07-08T16:50:41+0200</time>
      </trkpt>
      <trkpt lat="45.09626" lon="2.97808">
        <ele>973.402766</ele>
        <time>2021-07-08T16:50:43+0200</time>
      </trkpt>
      <trkpt lat="45.09625" lon="2.97799">
        <ele>972.941084</ele>
        <time>2021-07-08T16:50:45+0200</time>
      </trkpt>
      <trkpt lat="45.09623" lon="2.97789">
        <ele>972.676561</ele>
        <time>2021-07-08T16:50:47+0200</time>
      </trkpt>
      <trkpt lat="45.09616" lon="2.97782">
        <ele>972.246293</ele>
        <time>2021-07-08T16:50:49+0200</time>
      </trkpt>
      <trkpt lat="45.09612" lon="2.97779">
        <ele>972.128387</ele>
        <time>2021-07-08T16:50:50+0200</time>
      </trkpt>
      <trkpt lat="45.09604" lon="2.97776">
        <ele>971.611199</ele>
        <time>2021-07-08T16:50:52+0200</time>
      </trkpt>
      <trkpt lat="45.09599" lon="2.97775">
        <ele>971.676949</ele>
        <time>2021-07-08T16:50:53+0200</time>
      </trkpt>
      <trkpt lat="45.09594" lon="2.97774">
        <ele>971.623254</ele>
        <time>2021-07-08T16:50:54+0200</time>
      </trkpt>
      <trkpt lat="45.0959" lon="2.97774">
        <ele>971.760398</ele>
        <time>2021-07-08T16:50:55+0200</time>
      </trkpt>
      <trkpt lat="45.09584" lon="2.97774">
        <ele>971.283806</ele>
        <time>2021-07-08T16:50:56+0200</time>
      </trkpt>
      <trkpt lat="45.0958" lon="2.97773">
        <ele>971.024736</ele>
        <time>2021-07-08T16:50:57+0200</time>
      </trkpt>
      <trkpt lat="45.0957" lon="2.97772">
        <ele>970.603467</ele>
        <time>2021-07-08T16:50:59+0200</time>
      </trkpt>
      <trkpt lat="45.09566" lon="2.97772">
        <ele>970.530614</ele>
        <time>2021-07-08T16:51:00+0200</time>
      </trkpt>
      <trkpt lat="45.09561" lon="2.97772">
        <ele>970.407542</ele>
        <time>2021-07-08T16:51:01+0200</time>
      </trkpt>
      <trkpt lat="45.09556" lon="2.97772">
        <ele>970.221869</ele>
        <time>2021-07-08T16:51:02+0200</time>
      </trkpt>
      <trkpt lat="45.09551" lon="2.97771">
        <ele>970.033746</ele>
        <time>2021-07-08T16:51:03+0200</time>
      </trkpt>
      <trkpt lat="45.09545" lon="2.97771">
        <ele>969.769062</ele>
        <time>2021-07-08T16:51:04+0200</time>
      </trkpt>
      <trkpt lat="45.0954" lon="2.97771">
        <ele>969.602586</ele>
        <time>2021-07-08T16:51:05+0200</time>
      </trkpt>
      <trkpt lat="45.09535" lon="2.97774">
        <ele>969.793213</ele>
        <time>2021-07-08T16:51:06+0200</time>
      </trkpt>
      <trkpt lat="45.09529" lon="2.97779">
        <ele>970.157244</ele>
        <time>2021-07-08T16:51:08+0200</time>
      </trkpt>
      <trkpt lat="45.09525" lon="2.97784">
        <ele>970.512362</ele>
        <time>2021-07-08T16:51:10+0200</time>
      </trkpt>
      <trkpt lat="45.09522" lon="2.97794">
        <ele>970.81799</ele>
        <time>2021-07-08T16:51:12+0200</time>
      </trkpt>
      <trkpt lat="45.09521" lon="2.97804">
        <ele>970.911613</ele>
        <time>2021-07-08T16:51:14+0200</time>
      </trkpt>
      <trkpt lat="45.09518" lon="2.97814">
        <ele>971.182768</ele>
        <time>2021-07-08T16:51:16+0200</time>
      </trkpt>
      <trkpt lat="45.09515" lon="2.97823">
        <ele>971.025093</ele>
        <time>2021-07-08T16:51:18+0200</time>
      </trkpt>
      <trkpt lat="45.09513" lon="2.97833">
        <ele>971.054555</ele>
        <time>2021-07-08T16:51:20+0200</time>
      </trkpt>
      <trkpt lat="45.09509" lon="2.97843">
        <ele>971.033218</ele>
        <time>2021-07-08T16:51:22+0200</time>
      </trkpt>
      <trkpt lat="45.09504" lon="2.97851">
        <ele>969.980406</ele>
        <time>2021-07-08T16:51:24+0200</time>
      </trkpt>
      <trkpt lat="45.09499" lon="2.97859">
        <ele>969.358103</ele>
        <time>2021-07-08T16:51:26+0200</time>
      </trkpt>
      <trkpt lat="45.09494" lon="2.97867">
        <ele>968.965738</ele>
        <time>2021-07-08T16:51:28+0200</time>
      </trkpt>
      <trkpt lat="45.09489" lon="2.97876">
        <ele>969.139868</ele>
        <time>2021-07-08T16:51:30+0200</time>
      </trkpt>
      <trkpt lat="45.09485" lon="2.97886">
        <ele>968.777387</ele>
        <time>2021-07-08T16:51:32+0200</time>
      </trkpt>
      <trkpt lat="45.09483" lon="2.97896">
        <ele>968.517243</ele>
        <time>2021-07-08T16:51:34+0200</time>
      </trkpt>
      <trkpt lat="45.09479" lon="2.97905">
        <ele>967.218779</ele>
        <time>2021-07-08T16:51:36+0200</time>
      </trkpt>
      <trkpt lat="45.09476" lon="2.97916">
        <ele>967.180939</ele>
        <time>2021-07-08T16:51:38+0200</time>
      </trkpt>
      <trkpt lat="45.09473" lon="2.97926">
        <ele>966.968344</ele>
        <time>2021-07-08T16:51:40+0200</time>
      </trkpt>
      <trkpt lat="45.0947" lon="2.97937">
        <ele>967.640229</ele>
        <time>2021-07-08T16:51:42+0200</time>
      </trkpt>
      <trkpt lat="45.09468" lon="2.97946">
        <ele>966.620784</ele>
        <time>2021-07-08T16:51:44+0200</time>
      </trkpt>
      <trkpt lat="45.09466" lon="2.97953">
        <ele>967.020933</ele>
        <time>2021-07-08T16:51:45+0200</time>
      </trkpt>
      <trkpt lat="45.09463" lon="2.97963">
        <ele>966.796066</ele>
        <time>2021-07-08T16:51:47+0200</time>
      </trkpt>
      <trkpt lat="45.09458" lon="2.97972">
        <ele>966.653595</ele>
        <time>2021-07-08T16:51:49+0200</time>
      </trkpt>
      <trkpt lat="45.09454" lon="2.97982">
        <ele>967.064973</ele>
        <time>2021-07-08T16:51:51+0200</time>
      </trkpt>
      <trkpt lat="45.09449" lon="2.97991">
        <ele>966.861363</ele>
        <time>2021-07-08T16:51:53+0200</time>
      </trkpt>
      <trkpt lat="45.09445" lon="2.98">
        <ele>966.386973</ele>
        <time>2021-07-08T16:51:55+0200</time>
      </trkpt>
      <trkpt lat="45.09441" lon="2.98009">
        <ele>966.088878</ele>
        <time>2021-07-08T16:51:57+0200</time>
      </trkpt>
      <trkpt lat="45.09437" lon="2.98019">
        <ele>966.355098</ele>
        <time>2021-07-08T16:51:59+0200</time>
      </trkpt>
      <trkpt lat="45.09432" lon="2.98028">
        <ele>966.325974</ele>
        <time>2021-07-08T16:52:01+0200</time>
      </trkpt>
      <trkpt lat="45.09428" lon="2.98038">
        <ele>966.143736</ele>
        <time>2021-07-08T16:52:03+0200</time>
      </trkpt>
      <trkpt lat="45.09423" lon="2.98046">
        <ele>966.251306</ele>
        <time>2021-07-08T16:52:05+0200</time>
      </trkpt>
      <trkpt lat="45.09418" lon="2.98054">
        <ele>965.939742</ele>
        <time>2021-07-08T16:52:07+0200</time>
      </trkpt>
      <trkpt lat="45.09413" lon="2.98063">
        <ele>965.152779</ele>
        <time>2021-07-08T16:52:09+0200</time>
      </trkpt>
      <trkpt lat="45.09412" lon="2.98074">
        <ele>965.890266</ele>
        <time>2021-07-08T16:52:11+0200</time>
      </trkpt>
      <trkpt lat="45.0941" lon="2.98084">
        <ele>966.239914</ele>
        <time>2021-07-08T16:52:13+0200</time>
      </trkpt>
      <trkpt lat="45.09407" lon="2.98093">
        <ele>966.473189</ele>
        <time>2021-07-08T16:52:15+0200</time>
      </trkpt>
      <trkpt lat="45.09406" lon="2.98102">
        <ele>966.546605</ele>
        <time>2021-07-08T16:52:17+0200</time>
      </trkpt>
      <trkpt lat="45.09402" lon="2.98111">
        <ele>966.804756</ele>
        <time>2021-07-08T16:52:19+0200</time>
      </trkpt>
      <trkpt lat="45.09399" lon="2.98117">
        <ele>966.847521</ele>
        <time>2021-07-08T16:52:20+0200</time>
      </trkpt>
      <trkpt lat="45.09394" lon="2.98125">
        <ele>966.723003</ele>
        <time>2021-07-08T16:52:22+0200</time>
      </trkpt>
      <trkpt lat="45.09388" lon="2.98134">
        <ele>966.254574</ele>
        <time>2021-07-08T16:52:24+0200</time>
      </trkpt>
      <trkpt lat="45.09383" lon="2.98146">
        <ele>965.853553</ele>
        <time>2021-07-08T16:52:26+0200</time>
      </trkpt>
      <trkpt lat="45.09377" lon="2.98156">
        <ele>965.007334</ele>
        <time>2021-07-08T16:52:28+0200</time>
      </trkpt>
      <trkpt lat="45.0937" lon="2.98163">
        <ele>964.697534</ele>
        <time>2021-07-08T16:52:30+0200</time>
      </trkpt>
      <trkpt lat="45.09363" lon="2.9817">
        <ele>964.483486</ele>
        <time>2021-07-08T16:52:32+0200</time>
      </trkpt>
      <trkpt lat="45.09361" lon="2.98176">
        <ele>964.379871</ele>
        <time>2021-07-08T16:52:33+0200</time>
      </trkpt>
      <trkpt lat="45.09359" lon="2.98183">
        <ele>964.231153</ele>
        <time>2021-07-08T16:52:34+0200</time>
      </trkpt>
      <trkpt lat="45.09358" lon="2.98189">
        <ele>964.370898</ele>
        <time>2021-07-08T16:52:35+0200</time>
      </trkpt>
      <trkpt lat="45.09356" lon="2.98195">
        <ele>964.359455</ele>
        <time>2021-07-08T16:52:36+0200</time>
      </trkpt>
      <trkpt lat="45.09353" lon="2.98206">
        <ele>964.011682</ele>
        <time>2021-07-08T16:52:38+0200</time>
      </trkpt>
      <trkpt lat="45.09351" lon="2.98213">
        <ele>963.394642</ele>
        <time>2021-07-08T16:52:39+0200</time>
      </trkpt>
      <trkpt lat="45.09349" lon="2.98224">
        <ele>963.263766</ele>
        <time>2021-07-08T16:52:41+0200</time>
      </trkpt>
      <trkpt lat="45.09347" lon="2.9823">
        <ele>962.95945</ele>
        <time>2021-07-08T16:52:42+0200</time>
      </trkpt>
      <trkpt lat="45.09344" lon="2.98236">
        <ele>962.725023</ele>
        <time>2021-07-08T16:52:43+0200</time>
      </trkpt>
      <trkpt lat="45.09342" lon="2.98243">
        <ele>962.656413</ele>
        <time>2021-07-08T16:52:44+0200</time>
      </trkpt>
      <trkpt lat="45.0934" lon="2.98249">
        <ele>962.471002</ele>
        <time>2021-07-08T16:52:45+0200</time>
      </trkpt>
      <trkpt lat="45.09338" lon="2.98255">
        <ele>962.94907</ele>
        <time>2021-07-08T16:52:46+0200</time>
      </trkpt>
      <trkpt lat="45.09335" lon="2.98261">
        <ele>963.033554</ele>
        <time>2021-07-08T16:52:47+0200</time>
      </trkpt>
      <trkpt lat="45.09333" lon="2.98266">
        <ele>962.578646</ele>
        <time>2021-07-08T16:52:48+0200</time>
      </trkpt>
      <trkpt lat="45.0933" lon="2.98273">
        <ele>962.232769</ele>
        <time>2021-07-08T16:52:49+0200</time>
      </trkpt>
      <trkpt lat="45.09327" lon="2.98279">
        <ele>962.034093</ele>
        <time>2021-07-08T16:52:50+0200</time>
      </trkpt>
      <trkpt lat="45.09324" lon="2.98285">
        <ele>961.498628</ele>
        <time>2021-07-08T16:52:51+0200</time>
      </trkpt>
      <trkpt lat="45.09321" lon="2.98291">
        <ele>961.443154</ele>
        <time>2021-07-08T16:52:52+0200</time>
      </trkpt>
      <trkpt lat="45.09319" lon="2.98297">
        <ele>961.276696</ele>
        <time>2021-07-08T16:52:53+0200</time>
      </trkpt>
      <trkpt lat="45.09314" lon="2.98309">
        <ele>960.641546</ele>
        <time>2021-07-08T16:52:55+0200</time>
      </trkpt>
      <trkpt lat="45.0931" lon="2.98314">
        <ele>960.609437</ele>
        <time>2021-07-08T16:52:56+0200</time>
      </trkpt>
      <trkpt lat="45.09307" lon="2.98319">
        <ele>960.628566</ele>
        <time>2021-07-08T16:52:57+0200</time>
      </trkpt>
      <trkpt lat="45.09302" lon="2.98324">
        <ele>960.594596</ele>
        <time>2021-07-08T16:52:58+0200</time>
      </trkpt>
      <trkpt lat="45.09298" lon="2.98329">
        <ele>960.499134</ele>
        <time>2021-07-08T16:52:59+0200</time>
      </trkpt>
      <trkpt lat="45.09295" lon="2.98335">
        <ele>960.3572</ele>
        <time>2021-07-08T16:53:00+0200</time>
      </trkpt>
      <trkpt lat="45.09291" lon="2.98346">
        <ele>959.882562</ele>
        <time>2021-07-08T16:53:02+0200</time>
      </trkpt>
      <trkpt lat="45.09291" lon="2.98353">
        <ele>959.956299</ele>
        <time>2021-07-08T16:53:03+0200</time>
      </trkpt>
      <trkpt lat="45.09288" lon="2.98365">
        <ele>960.207929</ele>
        <time>2021-07-08T16:53:05+0200</time>
      </trkpt>
      <trkpt lat="45.09287" lon="2.98372">
        <ele>960.109502</ele>
        <time>2021-07-08T16:53:06+0200</time>
      </trkpt>
      <trkpt lat="45.09283" lon="2.98382">
        <ele>959.716365</ele>
        <time>2021-07-08T16:53:08+0200</time>
      </trkpt>
      <trkpt lat="45.09281" lon="2.98388">
        <ele>959.23931</ele>
        <time>2021-07-08T16:53:09+0200</time>
      </trkpt>
      <trkpt lat="45.0928" lon="2.98395">
        <ele>959.056894</ele>
        <time>2021-07-08T16:53:10+0200</time>
      </trkpt>
      <trkpt lat="45.0928" lon="2.98402">
        <ele>958.72762</ele>
        <time>2021-07-08T16:53:11+0200</time>
      </trkpt>
      <trkpt lat="45.09279" lon="2.98409">
        <ele>959.102441</ele>
        <time>2021-07-08T16:53:12+0200</time>
      </trkpt>
      <trkpt lat="45.09278" lon="2.98416">
        <ele>959.406056</ele>
        <time>2021-07-08T16:53:13+0200</time>
      </trkpt>
      <trkpt lat="45.09277" lon="2.98423">
        <ele>959.401758</ele>
        <time>2021-07-08T16:53:14+0200</time>
      </trkpt>
      <trkpt lat="45.09276" lon="2.9843">
        <ele>959.29502</ele>
        <time>2021-07-08T16:53:15+0200</time>
      </trkpt>
      <trkpt lat="45.09274" lon="2.98437">
        <ele>958.896158</ele>
        <time>2021-07-08T16:53:16+0200</time>
      </trkpt>
      <trkpt lat="45.09271" lon="2.98444">
        <ele>958.522634</ele>
        <time>2021-07-08T16:53:17+0200</time>
      </trkpt>
      <trkpt lat="45.09269" lon="2.9845">
        <ele>957.945377</ele>
        <time>2021-07-08T16:53:18+0200</time>
      </trkpt>
      <trkpt lat="45.09266" lon="2.98456">
        <ele>957.777022</ele>
        <time>2021-07-08T16:53:19+0200</time>
      </trkpt>
      <trkpt lat="45.09263" lon="2.98463">
        <ele>957.323818</ele>
        <time>2021-07-08T16:53:20+0200</time>
      </trkpt>
      <trkpt lat="45.09261" lon="2.9847">
        <ele>957.320076</ele>
        <time>2021-07-08T16:53:21+0200</time>
      </trkpt>
      <trkpt lat="45.0926" lon="2.98476">
        <ele>957.032294</ele>
        <time>2021-07-08T16:53:22+0200</time>
      </trkpt>
      <trkpt lat="45.09258" lon="2.98489">
        <ele>957.514427</ele>
        <time>2021-07-08T16:53:24+0200</time>
      </trkpt>
      <trkpt lat="45.09258" lon="2.98496">
        <ele>957.423143</ele>
        <time>2021-07-08T16:53:25+0200</time>
      </trkpt>
      <trkpt lat="45.09257" lon="2.98502">
        <ele>957.648386</ele>
        <time>2021-07-08T16:53:26+0200</time>
      </trkpt>
      <trkpt lat="45.09257" lon="2.9851">
        <ele>957.38245</ele>
        <time>2021-07-08T16:53:27+0200</time>
      </trkpt>
      <trkpt lat="45.09257" lon="2.98517">
        <ele>957.828046</ele>
        <time>2021-07-08T16:53:28+0200</time>
      </trkpt>
      <trkpt lat="45.09258" lon="2.98524">
        <ele>958.514193</ele>
        <time>2021-07-08T16:53:29+0200</time>
      </trkpt>
      <trkpt lat="45.09259" lon="2.98537">
        <ele>958.108436</ele>
        <time>2021-07-08T16:53:31+0200</time>
      </trkpt>
      <trkpt lat="45.09258" lon="2.98549">
        <ele>958.18399</ele>
        <time>2021-07-08T16:53:33+0200</time>
      </trkpt>
      <trkpt lat="45.09255" lon="2.98561">
        <ele>957.467243</ele>
        <time>2021-07-08T16:53:35+0200</time>
      </trkpt>
      <trkpt lat="45.09251" lon="2.98567">
        <ele>957.302954</ele>
        <time>2021-07-08T16:53:36+0200</time>
      </trkpt>
      <trkpt lat="45.09248" lon="2.98572">
        <ele>957.210848</ele>
        <time>2021-07-08T16:53:37+0200</time>
      </trkpt>
      <trkpt lat="45.09245" lon="2.98579">
        <ele>957.046958</ele>
        <time>2021-07-08T16:53:38+0200</time>
      </trkpt>
      <trkpt lat="45.09242" lon="2.98585">
        <ele>956.379132</ele>
        <time>2021-07-08T16:53:39+0200</time>
      </trkpt>
      <trkpt lat="45.09239" lon="2.98591">
        <ele>956.026783</ele>
        <time>2021-07-08T16:53:40+0200</time>
      </trkpt>
      <trkpt lat="45.09235" lon="2.98596">
        <ele>956.942695</ele>
        <time>2021-07-08T16:53:41+0200</time>
      </trkpt>
      <trkpt lat="45.09233" lon="2.98601">
        <ele>957.127803</ele>
        <time>2021-07-08T16:53:42+0200</time>
      </trkpt>
      <trkpt lat="45.09233" lon="2.98613">
        <ele>959.798188</ele>
        <time>2021-07-08T16:53:44+0200</time>
      </trkpt>
      <trkpt lat="45.0923" lon="2.98624">
        <ele>959.576501</ele>
        <time>2021-07-08T16:53:46+0200</time>
      </trkpt>
      <trkpt lat="45.09228" lon="2.9863">
        <ele>959.190753</ele>
        <time>2021-07-08T16:53:47+0200</time>
      </trkpt>
      <trkpt lat="45.09221" lon="2.98639">
        <ele>958.360447</ele>
        <time>2021-07-08T16:53:49+0200</time>
      </trkpt>
      <trkpt lat="45.09219" lon="2.98645">
        <ele>957.072452</ele>
        <time>2021-07-08T16:53:50+0200</time>
      </trkpt>
      <trkpt lat="45.09218" lon="2.98651">
        <ele>956.986344</ele>
        <time>2021-07-08T16:54:43+0200</time>
      </trkpt>
      <trkpt lat="45.09221" lon="2.98658">
        <ele>956.23473</ele>
        <time>2021-07-08T16:54:47+0200</time>
      </trkpt>
      <trkpt lat="45.09226" lon="2.98663">
        <ele>956.166438</ele>
        <time>2021-07-08T16:54:50+0200</time>
      </trkpt>
      <trkpt lat="45.09232" lon="2.98669">
        <ele>956.37743</ele>
        <time>2021-07-08T16:54:52+0200</time>
      </trkpt>
      <trkpt lat="45.09237" lon="2.98675">
        <ele>957.176561</ele>
        <time>2021-07-08T16:54:54+0200</time>
      </trkpt>
      <trkpt lat="45.09244" lon="2.98678">
        <ele>956.929996</ele>
        <time>2021-07-08T16:54:56+0200</time>
      </trkpt>
      <trkpt lat="45.09249" lon="2.98686">
        <ele>956.460225</ele>
        <time>2021-07-08T16:54:58+0200</time>
      </trkpt>
      <trkpt lat="45.09253" lon="2.98693">
        <ele>957.548854</ele>
        <time>2021-07-08T16:55:00+0200</time>
      </trkpt>
      <trkpt lat="45.09257" lon="2.98701">
        <ele>959.223207</ele>
        <time>2021-07-08T16:55:02+0200</time>
      </trkpt>
      <trkpt lat="45.09261" lon="2.98708">
        <ele>960.680709</ele>
        <time>2021-07-08T16:55:04+0200</time>
      </trkpt>
      <trkpt lat="45.09264" lon="2.98714">
        <ele>961.620579</ele>
        <time>2021-07-08T16:55:06+0200</time>
      </trkpt>
      <trkpt lat="45.09267" lon="2.98722">
        <ele>962.281498</ele>
        <time>2021-07-08T16:55:08+0200</time>
      </trkpt>
      <trkpt lat="45.09269" lon="2.98731">
        <ele>963.201094</ele>
        <time>2021-07-08T16:55:10+0200</time>
      </trkpt>
      <trkpt lat="45.09272" lon="2.98739">
        <ele>964.431428</ele>
        <time>2021-07-08T16:55:12+0200</time>
      </trkpt>
      <trkpt lat="45.09275" lon="2.98747">
        <ele>964.239598</ele>
        <time>2021-07-08T16:55:14+0200</time>
      </trkpt>
      <trkpt lat="45.09275" lon="2.98754">
        <ele>963.334738</ele>
        <time>2021-07-08T16:55:16+0200</time>
      </trkpt>
      <trkpt lat="45.09275" lon="2.98763">
        <ele>962.551567</ele>
        <time>2021-07-08T16:55:19+0200</time>
      </trkpt>
      <trkpt lat="45.09282" lon="2.98771">
        <ele>961.685518</ele>
        <time>2021-07-08T16:55:21+0200</time>
      </trkpt>
      <trkpt lat="45.09287" lon="2.98779">
        <ele>961.51638</ele>
        <time>2021-07-08T16:55:23+0200</time>
      </trkpt>
      <trkpt lat="45.0929" lon="2.98787">
        <ele>960.739335</ele>
        <time>2021-07-08T16:55:25+0200</time>
      </trkpt>
      <trkpt lat="45.09294" lon="2.98793">
        <ele>961.916476</ele>
        <time>2021-07-08T16:55:27+0200</time>
      </trkpt>
      <trkpt lat="45.09298" lon="2.98798">
        <ele>962.292487</ele>
        <time>2021-07-08T16:55:29+0200</time>
      </trkpt>
      <trkpt lat="45.09302" lon="2.98804">
        <ele>962.769766</ele>
        <time>2021-07-08T16:55:31+0200</time>
      </trkpt>
      <trkpt lat="45.09307" lon="2.98808">
        <ele>964.769786</ele>
        <time>2021-07-08T16:55:33+0200</time>
      </trkpt>
      <trkpt lat="45.09312" lon="2.98807">
        <ele>966.47691</ele>
        <time>2021-07-08T16:55:35+0200</time>
      </trkpt>
      <trkpt lat="45.09317" lon="2.98807">
        <ele>968.484797</ele>
        <time>2021-07-08T16:55:37+0200</time>
      </trkpt>
      <trkpt lat="45.09322" lon="2.98804">
        <ele>969.399235</ele>
        <time>2021-07-08T16:55:39+0200</time>
      </trkpt>
      <trkpt lat="45.09328" lon="2.98805">
        <ele>969.998056</ele>
        <time>2021-07-08T16:55:41+0200</time>
      </trkpt>
      <trkpt lat="45.09335" lon="2.98806">
        <ele>968.957532</ele>
        <time>2021-07-08T16:55:43+0200</time>
      </trkpt>
      <trkpt lat="45.0934" lon="2.98807">
        <ele>970.029545</ele>
        <time>2021-07-08T16:55:45+0200</time>
      </trkpt>
      <trkpt lat="45.09348" lon="2.98808">
        <ele>974.145906</ele>
        <time>2021-07-08T16:55:48+0200</time>
      </trkpt>
      <trkpt lat="45.09354" lon="2.98808">
        <ele>973.776313</ele>
        <time>2021-07-08T16:55:50+0200</time>
      </trkpt>
      <trkpt lat="45.09361" lon="2.98808">
        <ele>973.274543</ele>
        <time>2021-07-08T16:55:52+0200</time>
      </trkpt>
      <trkpt lat="45.09367" lon="2.98807">
        <ele>974.055311</ele>
        <time>2021-07-08T16:55:54+0200</time>
      </trkpt>
      <trkpt lat="45.09372" lon="2.98801">
        <ele>974.804087</ele>
        <time>2021-07-08T16:55:56+0200</time>
      </trkpt>
      <trkpt lat="45.09378" lon="2.98798">
        <ele>974.992166</ele>
        <time>2021-07-08T16:55:58+0200</time>
      </trkpt>
      <trkpt lat="45.09383" lon="2.98796">
        <ele>976.730774</ele>
        <time>2021-07-08T16:56:00+0200</time>
      </trkpt>
      <trkpt lat="45.0939" lon="2.98794">
        <ele>975.575388</ele>
        <time>2021-07-08T16:56:02+0200</time>
      </trkpt>
      <trkpt lat="45.09396" lon="2.98792">
        <ele>974.531523</ele>
        <time>2021-07-08T16:56:04+0200</time>
      </trkpt>
      <trkpt lat="45.09402" lon="2.9879">
        <ele>974.773362</ele>
        <time>2021-07-08T16:56:06+0200</time>
      </trkpt>
      <trkpt lat="45.09407" lon="2.98787">
        <ele>974.22874</ele>
        <time>2021-07-08T16:56:08+0200</time>
      </trkpt>
      <trkpt lat="45.09413" lon="2.98785">
        <ele>973.884759</ele>
        <time>2021-07-08T16:56:10+0200</time>
      </trkpt>
      <trkpt lat="45.09418" lon="2.9878">
        <ele>973.951885</ele>
        <time>2021-07-08T16:56:12+0200</time>
      </trkpt>
      <trkpt lat="45.09423" lon="2.98778">
        <ele>973.292426</ele>
        <time>2021-07-08T16:56:15+0200</time>
      </trkpt>
      <trkpt lat="45.09426" lon="2.98773">
        <ele>971.136714</ele>
        <time>2021-07-08T16:56:21+0200</time>
      </trkpt>
      <trkpt lat="45.09425" lon="2.98766">
        <ele>972.267306</ele>
        <time>2021-07-08T16:56:26+0200</time>
      </trkpt>
    </trkseg>
  </trk>
</gpx>